<?xml version="1.0" encoding="UTF-8" standalone="no" ?>
<gpx xmlns="http://www.topografix.com/GPX/1/1" xmlns:xsi="http://www.w3.org/2001/XMLSchema-instance" xsi:schemaLocation="http://www.topografix.com/GPX/1/1 http://www.topografix.com/GPX/1/1/gpx.xsd" version="1.1" creator="VisuGPX - https://www.visugpx.com">
  <metadata>
    <name>Loeuilly</name>
    <desc><![CDATA[22 pax
]]></desc>
  </metadata>
  <trk>
    <name><![CDATA[Loeuilly_1]]></name>
    <trkseg>
      <trkpt lat="49.77452" lon="2.17787">
        <ele>61.5</ele>
        <time>2023-08-16T07:03:23Z</time>
      </trkpt>
      <trkpt lat="49.77462" lon="2.17779">
        <ele>61.4</ele>
        <time>2023-08-16T07:03:24Z</time>
      </trkpt>
      <trkpt lat="49.77465" lon="2.17778">
        <ele>61.4</ele>
        <time>2023-08-16T07:03:25Z</time>
      </trkpt>
      <trkpt lat="49.77466" lon="2.17778">
        <ele>61.4</ele>
        <time>2023-08-16T07:03:26Z</time>
      </trkpt>
      <trkpt lat="49.77466" lon="2.17778">
        <ele>61.4</ele>
        <time>2023-08-16T07:03:27Z</time>
      </trkpt>
      <trkpt lat="49.77466" lon="2.17778">
        <ele>61.4</ele>
        <time>2023-08-16T07:03:28Z</time>
      </trkpt>
      <trkpt lat="49.77466" lon="2.17778">
        <ele>61.4</ele>
        <time>2023-08-16T07:03:29Z</time>
      </trkpt>
      <trkpt lat="49.77466" lon="2.17778">
        <ele>61.4</ele>
        <time>2023-08-16T07:03:30Z</time>
      </trkpt>
      <trkpt lat="49.77466" lon="2.17778">
        <ele>61.4</ele>
        <time>2023-08-16T07:03:31Z</time>
      </trkpt>
      <trkpt lat="49.77466" lon="2.17778">
        <ele>61.4</ele>
        <time>2023-08-16T07:03:32Z</time>
      </trkpt>
      <trkpt lat="49.77466" lon="2.17778">
        <ele>61.4</ele>
        <time>2023-08-16T07:03:33Z</time>
      </trkpt>
      <trkpt lat="49.77466" lon="2.17778">
        <ele>61.4</ele>
        <time>2023-08-16T07:03:34Z</time>
      </trkpt>
      <trkpt lat="49.77466" lon="2.17778">
        <ele>61.4</ele>
        <time>2023-08-16T07:03:35Z</time>
      </trkpt>
      <trkpt lat="49.77466" lon="2.17778">
        <ele>61.4</ele>
        <time>2023-08-16T07:03:36Z</time>
      </trkpt>
      <trkpt lat="49.77466" lon="2.17778">
        <ele>61.4</ele>
        <time>2023-08-16T07:03:37Z</time>
      </trkpt>
      <trkpt lat="49.77466" lon="2.17778">
        <ele>61.4</ele>
        <time>2023-08-16T07:03:38Z</time>
      </trkpt>
      <trkpt lat="49.77466" lon="2.17778">
        <ele>61.4</ele>
        <time>2023-08-16T07:03:39Z</time>
      </trkpt>
      <trkpt lat="49.77466" lon="2.17778">
        <ele>61.4</ele>
        <time>2023-08-16T07:03:40Z</time>
      </trkpt>
      <trkpt lat="49.77466" lon="2.17778">
        <ele>61.4</ele>
        <time>2023-08-16T07:03:41Z</time>
      </trkpt>
      <trkpt lat="49.77466" lon="2.17778">
        <ele>61.4</ele>
        <time>2023-08-16T07:03:42Z</time>
      </trkpt>
      <trkpt lat="49.77466" lon="2.17778">
        <ele>61.4</ele>
        <time>2023-08-16T07:03:43Z</time>
      </trkpt>
      <trkpt lat="49.77466" lon="2.17778">
        <ele>61.4</ele>
        <time>2023-08-16T07:03:44Z</time>
      </trkpt>
      <trkpt lat="49.77466" lon="2.17778">
        <ele>61.4</ele>
        <time>2023-08-16T07:03:45Z</time>
      </trkpt>
      <trkpt lat="49.77466" lon="2.17778">
        <ele>61.4</ele>
        <time>2023-08-16T07:03:46Z</time>
      </trkpt>
      <trkpt lat="49.77466" lon="2.17778">
        <ele>61.4</ele>
        <time>2023-08-16T07:03:47Z</time>
      </trkpt>
      <trkpt lat="49.77466" lon="2.17778">
        <ele>61.4</ele>
        <time>2023-08-16T07:03:48Z</time>
      </trkpt>
      <trkpt lat="49.77466" lon="2.17778">
        <ele>61.4</ele>
        <time>2023-08-16T07:03:49Z</time>
      </trkpt>
      <trkpt lat="49.77466" lon="2.17778">
        <ele>61.4</ele>
        <time>2023-08-16T07:03:50Z</time>
      </trkpt>
      <trkpt lat="49.77466" lon="2.17778">
        <ele>61.4</ele>
        <time>2023-08-16T07:03:52Z</time>
      </trkpt>
      <trkpt lat="49.77466" lon="2.17778">
        <ele>61.4</ele>
        <time>2023-08-16T07:03:53Z</time>
      </trkpt>
      <trkpt lat="49.77466" lon="2.17778">
        <ele>61.4</ele>
        <time>2023-08-16T07:03:54Z</time>
      </trkpt>
      <trkpt lat="49.77466" lon="2.17778">
        <ele>61.4</ele>
        <time>2023-08-16T07:03:55Z</time>
      </trkpt>
      <trkpt lat="49.77466" lon="2.17778">
        <ele>61.4</ele>
        <time>2023-08-16T07:03:56Z</time>
      </trkpt>
      <trkpt lat="49.77466" lon="2.17778">
        <ele>61.4</ele>
        <time>2023-08-16T07:03:57Z</time>
      </trkpt>
      <trkpt lat="49.77466" lon="2.17779">
        <ele>61.4</ele>
        <time>2023-08-16T07:03:59Z</time>
      </trkpt>
      <trkpt lat="49.77466" lon="2.1778">
        <ele>61.4</ele>
        <time>2023-08-16T07:04:00Z</time>
      </trkpt>
      <trkpt lat="49.77466" lon="2.17781">
        <ele>61.4</ele>
        <time>2023-08-16T07:04:01Z</time>
      </trkpt>
      <trkpt lat="49.77467" lon="2.17782">
        <ele>61.4</ele>
        <time>2023-08-16T07:04:02Z</time>
      </trkpt>
      <trkpt lat="49.77467" lon="2.17783">
        <ele>61.4</ele>
        <time>2023-08-16T07:04:03Z</time>
      </trkpt>
      <trkpt lat="49.77468" lon="2.17784">
        <ele>61.4</ele>
        <time>2023-08-16T07:04:04Z</time>
      </trkpt>
      <trkpt lat="49.77468" lon="2.17786">
        <ele>61.4</ele>
        <time>2023-08-16T07:04:05Z</time>
      </trkpt>
      <trkpt lat="49.77469" lon="2.17788">
        <ele>61.4</ele>
        <time>2023-08-16T07:04:07Z</time>
      </trkpt>
      <trkpt lat="49.7747" lon="2.1779">
        <ele>61.4</ele>
        <time>2023-08-16T07:04:08Z</time>
      </trkpt>
      <trkpt lat="49.77471" lon="2.1779">
        <ele>61.4</ele>
        <time>2023-08-16T07:04:09Z</time>
      </trkpt>
      <trkpt lat="49.77471" lon="2.1779">
        <ele>61.4</ele>
        <time>2023-08-16T07:04:10Z</time>
      </trkpt>
      <trkpt lat="49.77472" lon="2.17791">
        <ele>61.4</ele>
        <time>2023-08-16T07:04:11Z</time>
      </trkpt>
      <trkpt lat="49.77473" lon="2.17791">
        <ele>61.4</ele>
        <time>2023-08-16T07:04:12Z</time>
      </trkpt>
      <trkpt lat="49.77474" lon="2.17791">
        <ele>61.4</ele>
        <time>2023-08-16T07:04:14Z</time>
      </trkpt>
      <trkpt lat="49.77475" lon="2.17792">
        <ele>61.3</ele>
        <time>2023-08-16T07:04:15Z</time>
      </trkpt>
      <trkpt lat="49.77475" lon="2.17794">
        <ele>61.3</ele>
        <time>2023-08-16T07:04:16Z</time>
      </trkpt>
      <trkpt lat="49.77476" lon="2.17795">
        <ele>61.3</ele>
        <time>2023-08-16T07:04:17Z</time>
      </trkpt>
      <trkpt lat="49.77476" lon="2.17796">
        <ele>61.3</ele>
        <time>2023-08-16T07:04:18Z</time>
      </trkpt>
      <trkpt lat="49.77477" lon="2.17797">
        <ele>61.3</ele>
        <time>2023-08-16T07:04:19Z</time>
      </trkpt>
      <trkpt lat="49.77478" lon="2.17798">
        <ele>61.3</ele>
        <time>2023-08-16T07:04:20Z</time>
      </trkpt>
      <trkpt lat="49.77478" lon="2.17799">
        <ele>61.3</ele>
        <time>2023-08-16T07:04:21Z</time>
      </trkpt>
      <trkpt lat="49.77479" lon="2.17799">
        <ele>61.3</ele>
        <time>2023-08-16T07:04:22Z</time>
      </trkpt>
      <trkpt lat="49.7748" lon="2.17801">
        <ele>61.2</ele>
        <time>2023-08-16T07:04:24Z</time>
      </trkpt>
      <trkpt lat="49.77482" lon="2.17805">
        <ele>61.2</ele>
        <time>2023-08-16T07:04:25Z</time>
      </trkpt>
      <trkpt lat="49.77482" lon="2.17806">
        <ele>61.2</ele>
        <time>2023-08-16T07:04:26Z</time>
      </trkpt>
      <trkpt lat="49.77484" lon="2.17808">
        <ele>61.2</ele>
        <time>2023-08-16T07:04:27Z</time>
      </trkpt>
      <trkpt lat="49.77485" lon="2.1781">
        <ele>61.2</ele>
        <time>2023-08-16T07:04:28Z</time>
      </trkpt>
      <trkpt lat="49.77486" lon="2.17812">
        <ele>61.1</ele>
        <time>2023-08-16T07:04:29Z</time>
      </trkpt>
      <trkpt lat="49.77486" lon="2.17814">
        <ele>61.1</ele>
        <time>2023-08-16T07:04:30Z</time>
      </trkpt>
      <trkpt lat="49.77488" lon="2.17817">
        <ele>61.1</ele>
        <time>2023-08-16T07:04:31Z</time>
      </trkpt>
      <trkpt lat="49.77488" lon="2.17818">
        <ele>61.1</ele>
        <time>2023-08-16T07:04:33Z</time>
      </trkpt>
      <trkpt lat="49.77489" lon="2.1782">
        <ele>61.1</ele>
        <time>2023-08-16T07:04:34Z</time>
      </trkpt>
      <trkpt lat="49.7749" lon="2.17821">
        <ele>61.1</ele>
        <time>2023-08-16T07:04:35Z</time>
      </trkpt>
      <trkpt lat="49.7749" lon="2.17822">
        <ele>61</ele>
        <time>2023-08-16T07:04:36Z</time>
      </trkpt>
      <trkpt lat="49.77491" lon="2.17825">
        <ele>61</ele>
        <time>2023-08-16T07:04:37Z</time>
      </trkpt>
      <trkpt lat="49.77492" lon="2.17826">
        <ele>61</ele>
        <time>2023-08-16T07:04:38Z</time>
      </trkpt>
      <trkpt lat="49.77492" lon="2.17827">
        <ele>61</ele>
        <time>2023-08-16T07:04:39Z</time>
      </trkpt>
      <trkpt lat="49.77492" lon="2.17829">
        <ele>61.1</ele>
        <time>2023-08-16T07:04:41Z</time>
      </trkpt>
      <trkpt lat="49.77492" lon="2.17831">
        <ele>61.2</ele>
        <time>2023-08-16T07:04:42Z</time>
      </trkpt>
      <trkpt lat="49.77492" lon="2.17832">
        <ele>61.3</ele>
        <time>2023-08-16T07:04:43Z</time>
      </trkpt>
      <trkpt lat="49.77492" lon="2.17834">
        <ele>61.4</ele>
        <time>2023-08-16T07:04:44Z</time>
      </trkpt>
      <trkpt lat="49.77491" lon="2.17835">
        <ele>61.5</ele>
        <time>2023-08-16T07:04:45Z</time>
      </trkpt>
      <trkpt lat="49.77491" lon="2.17837">
        <ele>61.6</ele>
        <time>2023-08-16T07:04:46Z</time>
      </trkpt>
      <trkpt lat="49.77489" lon="2.17839">
        <ele>61.8</ele>
        <time>2023-08-16T07:04:47Z</time>
      </trkpt>
      <trkpt lat="49.77489" lon="2.1784">
        <ele>61.8</ele>
        <time>2023-08-16T07:04:49Z</time>
      </trkpt>
      <trkpt lat="49.77488" lon="2.17841">
        <ele>61.9</ele>
        <time>2023-08-16T07:04:50Z</time>
      </trkpt>
      <trkpt lat="49.77487" lon="2.17843">
        <ele>62</ele>
        <time>2023-08-16T07:04:51Z</time>
      </trkpt>
      <trkpt lat="49.77487" lon="2.17844">
        <ele>62.1</ele>
        <time>2023-08-16T07:04:52Z</time>
      </trkpt>
      <trkpt lat="49.77486" lon="2.17845">
        <ele>62.2</ele>
        <time>2023-08-16T07:04:53Z</time>
      </trkpt>
      <trkpt lat="49.77485" lon="2.17846">
        <ele>62.3</ele>
        <time>2023-08-16T07:04:54Z</time>
      </trkpt>
      <trkpt lat="49.77484" lon="2.17847">
        <ele>62.4</ele>
        <time>2023-08-16T07:04:55Z</time>
      </trkpt>
      <trkpt lat="49.77484" lon="2.17849">
        <ele>62.5</ele>
        <time>2023-08-16T07:04:57Z</time>
      </trkpt>
      <trkpt lat="49.77483" lon="2.1785">
        <ele>62.5</ele>
        <time>2023-08-16T07:04:58Z</time>
      </trkpt>
      <trkpt lat="49.77483" lon="2.17852">
        <ele>62.6</ele>
        <time>2023-08-16T07:04:59Z</time>
      </trkpt>
      <trkpt lat="49.77482" lon="2.17853">
        <ele>62.7</ele>
        <time>2023-08-16T07:05:00Z</time>
      </trkpt>
      <trkpt lat="49.77481" lon="2.17856">
        <ele>62.9</ele>
        <time>2023-08-16T07:05:01Z</time>
      </trkpt>
      <trkpt lat="49.77481" lon="2.17857">
        <ele>63</ele>
        <time>2023-08-16T07:05:03Z</time>
      </trkpt>
      <trkpt lat="49.7748" lon="2.17858">
        <ele>63.1</ele>
        <time>2023-08-16T07:05:04Z</time>
      </trkpt>
      <trkpt lat="49.7748" lon="2.1786">
        <ele>63.2</ele>
        <time>2023-08-16T07:05:05Z</time>
      </trkpt>
      <trkpt lat="49.77479" lon="2.17861">
        <ele>63.3</ele>
        <time>2023-08-16T07:05:06Z</time>
      </trkpt>
      <trkpt lat="49.77478" lon="2.17862">
        <ele>63.4</ele>
        <time>2023-08-16T07:05:07Z</time>
      </trkpt>
      <trkpt lat="49.77477" lon="2.17865">
        <ele>63.6</ele>
        <time>2023-08-16T07:05:08Z</time>
      </trkpt>
      <trkpt lat="49.77476" lon="2.17866">
        <ele>63.6</ele>
        <time>2023-08-16T07:05:10Z</time>
      </trkpt>
      <trkpt lat="49.77475" lon="2.17867">
        <ele>63.7</ele>
        <time>2023-08-16T07:05:11Z</time>
      </trkpt>
      <trkpt lat="49.77474" lon="2.17869">
        <ele>63.9</ele>
        <time>2023-08-16T07:05:12Z</time>
      </trkpt>
      <trkpt lat="49.77474" lon="2.1787">
        <ele>64</ele>
        <time>2023-08-16T07:05:13Z</time>
      </trkpt>
      <trkpt lat="49.77473" lon="2.17871">
        <ele>64.1</ele>
        <time>2023-08-16T07:05:14Z</time>
      </trkpt>
      <trkpt lat="49.77472" lon="2.17873">
        <ele>64.3</ele>
        <time>2023-08-16T07:05:15Z</time>
      </trkpt>
      <trkpt lat="49.77471" lon="2.17874">
        <ele>64.4</ele>
        <time>2023-08-16T07:05:17Z</time>
      </trkpt>
      <trkpt lat="49.7747" lon="2.17875">
        <ele>64.5</ele>
        <time>2023-08-16T07:05:18Z</time>
      </trkpt>
      <trkpt lat="49.77469" lon="2.17876">
        <ele>64.6</ele>
        <time>2023-08-16T07:05:19Z</time>
      </trkpt>
      <trkpt lat="49.77469" lon="2.17878">
        <ele>64.7</ele>
        <time>2023-08-16T07:05:20Z</time>
      </trkpt>
      <trkpt lat="49.77468" lon="2.17879">
        <ele>64.8</ele>
        <time>2023-08-16T07:05:21Z</time>
      </trkpt>
      <trkpt lat="49.77466" lon="2.17881">
        <ele>65</ele>
        <time>2023-08-16T07:05:23Z</time>
      </trkpt>
      <trkpt lat="49.77466" lon="2.17882">
        <ele>65.1</ele>
        <time>2023-08-16T07:05:24Z</time>
      </trkpt>
      <trkpt lat="49.77465" lon="2.17883">
        <ele>65.2</ele>
        <time>2023-08-16T07:05:25Z</time>
      </trkpt>
      <trkpt lat="49.77464" lon="2.17884">
        <ele>65.3</ele>
        <time>2023-08-16T07:05:26Z</time>
      </trkpt>
      <trkpt lat="49.77463" lon="2.17885">
        <ele>65.4</ele>
        <time>2023-08-16T07:05:27Z</time>
      </trkpt>
      <trkpt lat="49.77463" lon="2.17886">
        <ele>65.5</ele>
        <time>2023-08-16T07:05:28Z</time>
      </trkpt>
      <trkpt lat="49.77462" lon="2.17888">
        <ele>65.6</ele>
        <time>2023-08-16T07:05:30Z</time>
      </trkpt>
      <trkpt lat="49.77461" lon="2.17889">
        <ele>65.7</ele>
        <time>2023-08-16T07:05:31Z</time>
      </trkpt>
      <trkpt lat="49.7746" lon="2.1789">
        <ele>65.9</ele>
        <time>2023-08-16T07:05:32Z</time>
      </trkpt>
      <trkpt lat="49.77459" lon="2.17892">
        <ele>66.1</ele>
        <time>2023-08-16T07:05:33Z</time>
      </trkpt>
      <trkpt lat="49.77458" lon="2.17893">
        <ele>66.2</ele>
        <time>2023-08-16T07:05:34Z</time>
      </trkpt>
      <trkpt lat="49.77457" lon="2.17894">
        <ele>66.3</ele>
        <time>2023-08-16T07:05:36Z</time>
      </trkpt>
      <trkpt lat="49.77457" lon="2.17895">
        <ele>66.4</ele>
        <time>2023-08-16T07:05:37Z</time>
      </trkpt>
      <trkpt lat="49.77456" lon="2.17896">
        <ele>66.5</ele>
        <time>2023-08-16T07:05:38Z</time>
      </trkpt>
      <trkpt lat="49.77455" lon="2.17897">
        <ele>66.6</ele>
        <time>2023-08-16T07:05:39Z</time>
      </trkpt>
      <trkpt lat="49.77455" lon="2.17899">
        <ele>66.7</ele>
        <time>2023-08-16T07:05:41Z</time>
      </trkpt>
      <trkpt lat="49.77454" lon="2.179">
        <ele>66.9</ele>
        <time>2023-08-16T07:05:42Z</time>
      </trkpt>
      <trkpt lat="49.77453" lon="2.17901">
        <ele>67</ele>
        <time>2023-08-16T07:05:43Z</time>
      </trkpt>
      <trkpt lat="49.77453" lon="2.17902">
        <ele>67.1</ele>
        <time>2023-08-16T07:05:44Z</time>
      </trkpt>
      <trkpt lat="49.77452" lon="2.17903">
        <ele>67.2</ele>
        <time>2023-08-16T07:05:45Z</time>
      </trkpt>
      <trkpt lat="49.77451" lon="2.17905">
        <ele>67.3</ele>
        <time>2023-08-16T07:05:46Z</time>
      </trkpt>
      <trkpt lat="49.77451" lon="2.17906">
        <ele>67.4</ele>
        <time>2023-08-16T07:05:47Z</time>
      </trkpt>
      <trkpt lat="49.7745" lon="2.17907">
        <ele>67.5</ele>
        <time>2023-08-16T07:05:49Z</time>
      </trkpt>
      <trkpt lat="49.7745" lon="2.17909">
        <ele>67.6</ele>
        <time>2023-08-16T07:05:50Z</time>
      </trkpt>
      <trkpt lat="49.77449" lon="2.1791">
        <ele>67.8</ele>
        <time>2023-08-16T07:05:51Z</time>
      </trkpt>
      <trkpt lat="49.77448" lon="2.17911">
        <ele>67.9</ele>
        <time>2023-08-16T07:05:52Z</time>
      </trkpt>
      <trkpt lat="49.77448" lon="2.17912">
        <ele>68</ele>
        <time>2023-08-16T07:05:53Z</time>
      </trkpt>
      <trkpt lat="49.77447" lon="2.17914">
        <ele>68.1</ele>
        <time>2023-08-16T07:05:55Z</time>
      </trkpt>
      <trkpt lat="49.77446" lon="2.17915">
        <ele>68.2</ele>
        <time>2023-08-16T07:05:56Z</time>
      </trkpt>
      <trkpt lat="49.77446" lon="2.17917">
        <ele>68.3</ele>
        <time>2023-08-16T07:05:57Z</time>
      </trkpt>
      <trkpt lat="49.77445" lon="2.17919">
        <ele>68.6</ele>
        <time>2023-08-16T07:05:58Z</time>
      </trkpt>
      <trkpt lat="49.77444" lon="2.1792">
        <ele>68.6</ele>
        <time>2023-08-16T07:05:59Z</time>
      </trkpt>
      <trkpt lat="49.77444" lon="2.17921">
        <ele>68.7</ele>
        <time>2023-08-16T07:06:00Z</time>
      </trkpt>
      <trkpt lat="49.77442" lon="2.17923">
        <ele>68.9</ele>
        <time>2023-08-16T07:06:01Z</time>
      </trkpt>
      <trkpt lat="49.77442" lon="2.17924">
        <ele>69</ele>
        <time>2023-08-16T07:06:03Z</time>
      </trkpt>
      <trkpt lat="49.77441" lon="2.17926">
        <ele>69.1</ele>
        <time>2023-08-16T07:06:04Z</time>
      </trkpt>
      <trkpt lat="49.77441" lon="2.17927">
        <ele>69.3</ele>
        <time>2023-08-16T07:06:05Z</time>
      </trkpt>
      <trkpt lat="49.7744" lon="2.17929">
        <ele>69.4</ele>
        <time>2023-08-16T07:06:07Z</time>
      </trkpt>
      <trkpt lat="49.77439" lon="2.1793">
        <ele>69.5</ele>
        <time>2023-08-16T07:06:08Z</time>
      </trkpt>
      <trkpt lat="49.77439" lon="2.17931">
        <ele>69.6</ele>
        <time>2023-08-16T07:06:09Z</time>
      </trkpt>
      <trkpt lat="49.77439" lon="2.17932">
        <ele>69.7</ele>
        <time>2023-08-16T07:06:10Z</time>
      </trkpt>
      <trkpt lat="49.77438" lon="2.17933">
        <ele>69.8</ele>
        <time>2023-08-16T07:06:11Z</time>
      </trkpt>
      <trkpt lat="49.77438" lon="2.17935">
        <ele>69.9</ele>
        <time>2023-08-16T07:06:12Z</time>
      </trkpt>
      <trkpt lat="49.77437" lon="2.17936">
        <ele>70</ele>
        <time>2023-08-16T07:06:13Z</time>
      </trkpt>
      <trkpt lat="49.77437" lon="2.17937">
        <ele>70.1</ele>
        <time>2023-08-16T07:06:14Z</time>
      </trkpt>
      <trkpt lat="49.77436" lon="2.17938">
        <ele>70.2</ele>
        <time>2023-08-16T07:06:16Z</time>
      </trkpt>
      <trkpt lat="49.77436" lon="2.17939">
        <ele>70.3</ele>
        <time>2023-08-16T07:06:17Z</time>
      </trkpt>
      <trkpt lat="49.77435" lon="2.17941">
        <ele>70.4</ele>
        <time>2023-08-16T07:06:18Z</time>
      </trkpt>
      <trkpt lat="49.77434" lon="2.17942">
        <ele>70.5</ele>
        <time>2023-08-16T07:06:19Z</time>
      </trkpt>
      <trkpt lat="49.77434" lon="2.17943">
        <ele>70.6</ele>
        <time>2023-08-16T07:06:20Z</time>
      </trkpt>
      <trkpt lat="49.77434" lon="2.17944">
        <ele>70.7</ele>
        <time>2023-08-16T07:06:21Z</time>
      </trkpt>
      <trkpt lat="49.77433" lon="2.17946">
        <ele>70.8</ele>
        <time>2023-08-16T07:06:23Z</time>
      </trkpt>
      <trkpt lat="49.77432" lon="2.17947">
        <ele>70.9</ele>
        <time>2023-08-16T07:06:24Z</time>
      </trkpt>
      <trkpt lat="49.77432" lon="2.17948">
        <ele>71</ele>
        <time>2023-08-16T07:06:25Z</time>
      </trkpt>
      <trkpt lat="49.77431" lon="2.17949">
        <ele>71.1</ele>
        <time>2023-08-16T07:06:26Z</time>
      </trkpt>
      <trkpt lat="49.77431" lon="2.17951">
        <ele>71.2</ele>
        <time>2023-08-16T07:06:27Z</time>
      </trkpt>
      <trkpt lat="49.7743" lon="2.17952">
        <ele>71.3</ele>
        <time>2023-08-16T07:06:28Z</time>
      </trkpt>
      <trkpt lat="49.7743" lon="2.17953">
        <ele>71.4</ele>
        <time>2023-08-16T07:06:30Z</time>
      </trkpt>
      <trkpt lat="49.77429" lon="2.17954">
        <ele>71.5</ele>
        <time>2023-08-16T07:06:31Z</time>
      </trkpt>
      <trkpt lat="49.77428" lon="2.17956">
        <ele>71.6</ele>
        <time>2023-08-16T07:06:32Z</time>
      </trkpt>
      <trkpt lat="49.77428" lon="2.17957">
        <ele>71.7</ele>
        <time>2023-08-16T07:06:33Z</time>
      </trkpt>
      <trkpt lat="49.77427" lon="2.17958">
        <ele>71.8</ele>
        <time>2023-08-16T07:06:34Z</time>
      </trkpt>
      <trkpt lat="49.77427" lon="2.17959">
        <ele>71.9</ele>
        <time>2023-08-16T07:06:35Z</time>
      </trkpt>
      <trkpt lat="49.77426" lon="2.1796">
        <ele>72</ele>
        <time>2023-08-16T07:06:37Z</time>
      </trkpt>
      <trkpt lat="49.77426" lon="2.17961">
        <ele>72.1</ele>
        <time>2023-08-16T07:06:38Z</time>
      </trkpt>
      <trkpt lat="49.77425" lon="2.17962">
        <ele>72.2</ele>
        <time>2023-08-16T07:06:39Z</time>
      </trkpt>
      <trkpt lat="49.77424" lon="2.17963">
        <ele>72.3</ele>
        <time>2023-08-16T07:06:40Z</time>
      </trkpt>
      <trkpt lat="49.77423" lon="2.17964">
        <ele>72.4</ele>
        <time>2023-08-16T07:06:42Z</time>
      </trkpt>
      <trkpt lat="49.77422" lon="2.17966">
        <ele>72.6</ele>
        <time>2023-08-16T07:06:43Z</time>
      </trkpt>
      <trkpt lat="49.77421" lon="2.17967">
        <ele>72.7</ele>
        <time>2023-08-16T07:06:44Z</time>
      </trkpt>
      <trkpt lat="49.77421" lon="2.17968">
        <ele>72.8</ele>
        <time>2023-08-16T07:06:45Z</time>
      </trkpt>
      <trkpt lat="49.7742" lon="2.17969">
        <ele>72.9</ele>
        <time>2023-08-16T07:06:46Z</time>
      </trkpt>
      <trkpt lat="49.77419" lon="2.17971">
        <ele>73</ele>
        <time>2023-08-16T07:06:47Z</time>
      </trkpt>
      <trkpt lat="49.77419" lon="2.17972">
        <ele>73.2</ele>
        <time>2023-08-16T07:06:49Z</time>
      </trkpt>
      <trkpt lat="49.77418" lon="2.17974">
        <ele>73.3</ele>
        <time>2023-08-16T07:06:50Z</time>
      </trkpt>
      <trkpt lat="49.77417" lon="2.17976">
        <ele>73.4</ele>
        <time>2023-08-16T07:06:51Z</time>
      </trkpt>
      <trkpt lat="49.77417" lon="2.17977">
        <ele>73.5</ele>
        <time>2023-08-16T07:06:52Z</time>
      </trkpt>
      <trkpt lat="49.77415" lon="2.17979">
        <ele>73.8</ele>
        <time>2023-08-16T07:06:53Z</time>
      </trkpt>
      <trkpt lat="49.77415" lon="2.1798">
        <ele>73.9</ele>
        <time>2023-08-16T07:06:54Z</time>
      </trkpt>
      <trkpt lat="49.77414" lon="2.17981">
        <ele>73.9</ele>
        <time>2023-08-16T07:06:55Z</time>
      </trkpt>
      <trkpt lat="49.77413" lon="2.17984">
        <ele>74.1</ele>
        <time>2023-08-16T07:06:57Z</time>
      </trkpt>
      <trkpt lat="49.77412" lon="2.17985">
        <ele>74.1</ele>
        <time>2023-08-16T07:06:58Z</time>
      </trkpt>
      <trkpt lat="49.77412" lon="2.17986">
        <ele>74.2</ele>
        <time>2023-08-16T07:06:59Z</time>
      </trkpt>
      <trkpt lat="49.7741" lon="2.17988">
        <ele>74.3</ele>
        <time>2023-08-16T07:07:00Z</time>
      </trkpt>
      <trkpt lat="49.7741" lon="2.17989">
        <ele>74.4</ele>
        <time>2023-08-16T07:07:02Z</time>
      </trkpt>
      <trkpt lat="49.77409" lon="2.1799">
        <ele>74.5</ele>
        <time>2023-08-16T07:07:03Z</time>
      </trkpt>
      <trkpt lat="49.77408" lon="2.17991">
        <ele>74.5</ele>
        <time>2023-08-16T07:07:04Z</time>
      </trkpt>
      <trkpt lat="49.77407" lon="2.17992">
        <ele>74.6</ele>
        <time>2023-08-16T07:07:05Z</time>
      </trkpt>
      <trkpt lat="49.77407" lon="2.17994">
        <ele>74.7</ele>
        <time>2023-08-16T07:07:07Z</time>
      </trkpt>
      <trkpt lat="49.77406" lon="2.17995">
        <ele>74.8</ele>
        <time>2023-08-16T07:07:08Z</time>
      </trkpt>
      <trkpt lat="49.77406" lon="2.17996">
        <ele>74.8</ele>
        <time>2023-08-16T07:07:09Z</time>
      </trkpt>
      <trkpt lat="49.77405" lon="2.17998">
        <ele>74.9</ele>
        <time>2023-08-16T07:07:10Z</time>
      </trkpt>
      <trkpt lat="49.77405" lon="2.17999">
        <ele>75</ele>
        <time>2023-08-16T07:07:11Z</time>
      </trkpt>
      <trkpt lat="49.77404" lon="2.18">
        <ele>75</ele>
        <time>2023-08-16T07:07:12Z</time>
      </trkpt>
      <trkpt lat="49.77404" lon="2.18002">
        <ele>75.1</ele>
        <time>2023-08-16T07:07:13Z</time>
      </trkpt>
      <trkpt lat="49.77403" lon="2.18003">
        <ele>75.2</ele>
        <time>2023-08-16T07:07:14Z</time>
      </trkpt>
      <trkpt lat="49.77403" lon="2.18005">
        <ele>75.2</ele>
        <time>2023-08-16T07:07:16Z</time>
      </trkpt>
      <trkpt lat="49.77402" lon="2.18006">
        <ele>75.3</ele>
        <time>2023-08-16T07:07:17Z</time>
      </trkpt>
      <trkpt lat="49.77402" lon="2.18007">
        <ele>75.4</ele>
        <time>2023-08-16T07:07:18Z</time>
      </trkpt>
      <trkpt lat="49.77401" lon="2.18008">
        <ele>75.4</ele>
        <time>2023-08-16T07:07:19Z</time>
      </trkpt>
      <trkpt lat="49.77401" lon="2.1801">
        <ele>75.5</ele>
        <time>2023-08-16T07:07:20Z</time>
      </trkpt>
      <trkpt lat="49.77401" lon="2.18011">
        <ele>75.6</ele>
        <time>2023-08-16T07:07:21Z</time>
      </trkpt>
      <trkpt lat="49.774" lon="2.18012">
        <ele>75.6</ele>
        <time>2023-08-16T07:07:22Z</time>
      </trkpt>
      <trkpt lat="49.774" lon="2.18014">
        <ele>75.7</ele>
        <time>2023-08-16T07:07:23Z</time>
      </trkpt>
      <trkpt lat="49.77399" lon="2.18015">
        <ele>75.8</ele>
        <time>2023-08-16T07:07:25Z</time>
      </trkpt>
      <trkpt lat="49.77399" lon="2.18016">
        <ele>75.8</ele>
        <time>2023-08-16T07:07:26Z</time>
      </trkpt>
      <trkpt lat="49.77399" lon="2.18018">
        <ele>75.9</ele>
        <time>2023-08-16T07:07:27Z</time>
      </trkpt>
      <trkpt lat="49.77398" lon="2.18019">
        <ele>76</ele>
        <time>2023-08-16T07:07:28Z</time>
      </trkpt>
      <trkpt lat="49.77397" lon="2.18021">
        <ele>76.1</ele>
        <time>2023-08-16T07:07:29Z</time>
      </trkpt>
      <trkpt lat="49.77397" lon="2.18022">
        <ele>76.2</ele>
        <time>2023-08-16T07:07:30Z</time>
      </trkpt>
      <trkpt lat="49.77397" lon="2.18023">
        <ele>76.2</ele>
        <time>2023-08-16T07:07:32Z</time>
      </trkpt>
      <trkpt lat="49.77396" lon="2.18024">
        <ele>76.3</ele>
        <time>2023-08-16T07:07:33Z</time>
      </trkpt>
      <trkpt lat="49.77396" lon="2.18025">
        <ele>76.3</ele>
        <time>2023-08-16T07:07:34Z</time>
      </trkpt>
      <trkpt lat="49.77396" lon="2.18027">
        <ele>76.4</ele>
        <time>2023-08-16T07:07:35Z</time>
      </trkpt>
      <trkpt lat="49.77395" lon="2.18028">
        <ele>76.5</ele>
        <time>2023-08-16T07:07:36Z</time>
      </trkpt>
      <trkpt lat="49.77395" lon="2.18029">
        <ele>76.6</ele>
        <time>2023-08-16T07:07:37Z</time>
      </trkpt>
      <trkpt lat="49.77394" lon="2.1803">
        <ele>76.6</ele>
        <time>2023-08-16T07:07:39Z</time>
      </trkpt>
      <trkpt lat="49.77394" lon="2.18032">
        <ele>76.7</ele>
        <time>2023-08-16T07:07:40Z</time>
      </trkpt>
      <trkpt lat="49.77394" lon="2.18033">
        <ele>76.8</ele>
        <time>2023-08-16T07:07:41Z</time>
      </trkpt>
      <trkpt lat="49.77393" lon="2.18035">
        <ele>76.8</ele>
        <time>2023-08-16T07:07:42Z</time>
      </trkpt>
      <trkpt lat="49.77393" lon="2.18036">
        <ele>76.9</ele>
        <time>2023-08-16T07:07:43Z</time>
      </trkpt>
      <trkpt lat="49.77392" lon="2.18037">
        <ele>77</ele>
        <time>2023-08-16T07:07:44Z</time>
      </trkpt>
      <trkpt lat="49.77392" lon="2.18039">
        <ele>77.1</ele>
        <time>2023-08-16T07:07:46Z</time>
      </trkpt>
      <trkpt lat="49.77391" lon="2.1804">
        <ele>77.1</ele>
        <time>2023-08-16T07:07:47Z</time>
      </trkpt>
      <trkpt lat="49.77391" lon="2.18042">
        <ele>77.2</ele>
        <time>2023-08-16T07:07:48Z</time>
      </trkpt>
      <trkpt lat="49.77391" lon="2.18043">
        <ele>77.3</ele>
        <time>2023-08-16T07:07:49Z</time>
      </trkpt>
      <trkpt lat="49.77391" lon="2.18045">
        <ele>77.4</ele>
        <time>2023-08-16T07:07:50Z</time>
      </trkpt>
      <trkpt lat="49.7739" lon="2.18047">
        <ele>77.5</ele>
        <time>2023-08-16T07:07:51Z</time>
      </trkpt>
      <trkpt lat="49.7739" lon="2.18048">
        <ele>77.6</ele>
        <time>2023-08-16T07:07:53Z</time>
      </trkpt>
      <trkpt lat="49.77389" lon="2.1805">
        <ele>77.6</ele>
        <time>2023-08-16T07:07:54Z</time>
      </trkpt>
      <trkpt lat="49.77389" lon="2.18051">
        <ele>77.7</ele>
        <time>2023-08-16T07:07:55Z</time>
      </trkpt>
      <trkpt lat="49.77388" lon="2.18052">
        <ele>77.8</ele>
        <time>2023-08-16T07:07:56Z</time>
      </trkpt>
      <trkpt lat="49.77388" lon="2.18053">
        <ele>77.8</ele>
        <time>2023-08-16T07:07:57Z</time>
      </trkpt>
      <trkpt lat="49.77387" lon="2.18055">
        <ele>77.9</ele>
        <time>2023-08-16T07:07:59Z</time>
      </trkpt>
      <trkpt lat="49.77387" lon="2.18056">
        <ele>78</ele>
        <time>2023-08-16T07:08:00Z</time>
      </trkpt>
      <trkpt lat="49.77387" lon="2.18058">
        <ele>78.1</ele>
        <time>2023-08-16T07:08:01Z</time>
      </trkpt>
      <trkpt lat="49.77386" lon="2.18059">
        <ele>78.1</ele>
        <time>2023-08-16T07:08:02Z</time>
      </trkpt>
      <trkpt lat="49.77386" lon="2.1806">
        <ele>78.2</ele>
        <time>2023-08-16T07:08:03Z</time>
      </trkpt>
      <trkpt lat="49.77386" lon="2.18061">
        <ele>78.2</ele>
        <time>2023-08-16T07:08:04Z</time>
      </trkpt>
      <trkpt lat="49.77385" lon="2.18062">
        <ele>78.3</ele>
        <time>2023-08-16T07:08:06Z</time>
      </trkpt>
      <trkpt lat="49.77385" lon="2.18063">
        <ele>78.3</ele>
        <time>2023-08-16T07:08:07Z</time>
      </trkpt>
      <trkpt lat="49.77385" lon="2.18064">
        <ele>78.4</ele>
        <time>2023-08-16T07:08:08Z</time>
      </trkpt>
      <trkpt lat="49.77384" lon="2.18065">
        <ele>78.4</ele>
        <time>2023-08-16T07:08:09Z</time>
      </trkpt>
      <trkpt lat="49.77384" lon="2.18067">
        <ele>78.5</ele>
        <time>2023-08-16T07:08:10Z</time>
      </trkpt>
      <trkpt lat="49.77384" lon="2.18068">
        <ele>78.5</ele>
        <time>2023-08-16T07:08:11Z</time>
      </trkpt>
      <trkpt lat="49.77383" lon="2.18069">
        <ele>78.6</ele>
        <time>2023-08-16T07:08:13Z</time>
      </trkpt>
      <trkpt lat="49.77383" lon="2.1807">
        <ele>78.7</ele>
        <time>2023-08-16T07:08:14Z</time>
      </trkpt>
      <trkpt lat="49.77383" lon="2.18072">
        <ele>78.7</ele>
        <time>2023-08-16T07:08:15Z</time>
      </trkpt>
      <trkpt lat="49.77383" lon="2.18073">
        <ele>78.8</ele>
        <time>2023-08-16T07:08:17Z</time>
      </trkpt>
      <trkpt lat="49.77383" lon="2.18075">
        <ele>78.9</ele>
        <time>2023-08-16T07:08:18Z</time>
      </trkpt>
      <trkpt lat="49.77383" lon="2.18076">
        <ele>78.9</ele>
        <time>2023-08-16T07:08:19Z</time>
      </trkpt>
      <trkpt lat="49.77383" lon="2.18077">
        <ele>79</ele>
        <time>2023-08-16T07:08:20Z</time>
      </trkpt>
      <trkpt lat="49.77382" lon="2.18079">
        <ele>79.1</ele>
        <time>2023-08-16T07:08:21Z</time>
      </trkpt>
      <trkpt lat="49.77382" lon="2.1808">
        <ele>79.1</ele>
        <time>2023-08-16T07:08:22Z</time>
      </trkpt>
      <trkpt lat="49.77382" lon="2.18082">
        <ele>79.2</ele>
        <time>2023-08-16T07:08:24Z</time>
      </trkpt>
      <trkpt lat="49.77381" lon="2.18084">
        <ele>79.3</ele>
        <time>2023-08-16T07:08:25Z</time>
      </trkpt>
      <trkpt lat="49.77381" lon="2.18085">
        <ele>79.3</ele>
        <time>2023-08-16T07:08:26Z</time>
      </trkpt>
      <trkpt lat="49.77381" lon="2.18086">
        <ele>79.4</ele>
        <time>2023-08-16T07:08:27Z</time>
      </trkpt>
      <trkpt lat="49.77381" lon="2.18087">
        <ele>79.4</ele>
        <time>2023-08-16T07:08:28Z</time>
      </trkpt>
      <trkpt lat="49.7738" lon="2.18089">
        <ele>79.5</ele>
        <time>2023-08-16T07:08:29Z</time>
      </trkpt>
      <trkpt lat="49.7738" lon="2.18091">
        <ele>79.6</ele>
        <time>2023-08-16T07:08:31Z</time>
      </trkpt>
      <trkpt lat="49.7738" lon="2.18092">
        <ele>79.7</ele>
        <time>2023-08-16T07:08:32Z</time>
      </trkpt>
      <trkpt lat="49.77379" lon="2.18094">
        <ele>79.7</ele>
        <time>2023-08-16T07:08:33Z</time>
      </trkpt>
      <trkpt lat="49.77379" lon="2.18095">
        <ele>79.8</ele>
        <time>2023-08-16T07:08:35Z</time>
      </trkpt>
      <trkpt lat="49.77379" lon="2.18097">
        <ele>79.9</ele>
        <time>2023-08-16T07:08:36Z</time>
      </trkpt>
      <trkpt lat="49.77378" lon="2.18098">
        <ele>79.9</ele>
        <time>2023-08-16T07:08:37Z</time>
      </trkpt>
      <trkpt lat="49.77378" lon="2.18099">
        <ele>80</ele>
        <time>2023-08-16T07:08:38Z</time>
      </trkpt>
      <trkpt lat="49.77377" lon="2.18101">
        <ele>80</ele>
        <time>2023-08-16T07:08:39Z</time>
      </trkpt>
      <trkpt lat="49.77377" lon="2.18102">
        <ele>80.1</ele>
        <time>2023-08-16T07:08:40Z</time>
      </trkpt>
      <trkpt lat="49.77376" lon="2.18103">
        <ele>80.2</ele>
        <time>2023-08-16T07:08:42Z</time>
      </trkpt>
      <trkpt lat="49.77376" lon="2.18105">
        <ele>80.2</ele>
        <time>2023-08-16T07:08:43Z</time>
      </trkpt>
      <trkpt lat="49.77375" lon="2.18107">
        <ele>80.3</ele>
        <time>2023-08-16T07:08:44Z</time>
      </trkpt>
      <trkpt lat="49.77375" lon="2.18108">
        <ele>80.4</ele>
        <time>2023-08-16T07:08:45Z</time>
      </trkpt>
      <trkpt lat="49.77375" lon="2.1811">
        <ele>80.4</ele>
        <time>2023-08-16T07:08:46Z</time>
      </trkpt>
      <trkpt lat="49.77375" lon="2.18111">
        <ele>80.5</ele>
        <time>2023-08-16T07:08:47Z</time>
      </trkpt>
      <trkpt lat="49.77374" lon="2.18114">
        <ele>80.6</ele>
        <time>2023-08-16T07:08:48Z</time>
      </trkpt>
      <trkpt lat="49.77374" lon="2.18115">
        <ele>80.6</ele>
        <time>2023-08-16T07:08:50Z</time>
      </trkpt>
      <trkpt lat="49.77374" lon="2.18117">
        <ele>80.7</ele>
        <time>2023-08-16T07:08:51Z</time>
      </trkpt>
      <trkpt lat="49.77373" lon="2.1812">
        <ele>80.8</ele>
        <time>2023-08-16T07:08:52Z</time>
      </trkpt>
      <trkpt lat="49.77373" lon="2.18121">
        <ele>80.8</ele>
        <time>2023-08-16T07:08:54Z</time>
      </trkpt>
      <trkpt lat="49.77373" lon="2.18122">
        <ele>80.9</ele>
        <time>2023-08-16T07:08:55Z</time>
      </trkpt>
      <trkpt lat="49.77372" lon="2.18125">
        <ele>81</ele>
        <time>2023-08-16T07:08:56Z</time>
      </trkpt>
      <trkpt lat="49.77371" lon="2.18126">
        <ele>81</ele>
        <time>2023-08-16T07:08:58Z</time>
      </trkpt>
      <trkpt lat="49.77371" lon="2.18128">
        <ele>81.1</ele>
        <time>2023-08-16T07:08:59Z</time>
      </trkpt>
      <trkpt lat="49.7737" lon="2.18129">
        <ele>81.1</ele>
        <time>2023-08-16T07:09:00Z</time>
      </trkpt>
      <trkpt lat="49.7737" lon="2.1813">
        <ele>81.2</ele>
        <time>2023-08-16T07:09:01Z</time>
      </trkpt>
      <trkpt lat="49.77369" lon="2.18131">
        <ele>81.2</ele>
        <time>2023-08-16T07:09:02Z</time>
      </trkpt>
      <trkpt lat="49.77368" lon="2.18133">
        <ele>81.3</ele>
        <time>2023-08-16T07:09:03Z</time>
      </trkpt>
      <trkpt lat="49.77368" lon="2.18134">
        <ele>81.3</ele>
        <time>2023-08-16T07:09:05Z</time>
      </trkpt>
      <trkpt lat="49.77367" lon="2.18136">
        <ele>81.4</ele>
        <time>2023-08-16T07:09:06Z</time>
      </trkpt>
      <trkpt lat="49.77367" lon="2.18138">
        <ele>81.4</ele>
        <time>2023-08-16T07:09:07Z</time>
      </trkpt>
      <trkpt lat="49.77367" lon="2.18139">
        <ele>81.5</ele>
        <time>2023-08-16T07:09:08Z</time>
      </trkpt>
      <trkpt lat="49.77366" lon="2.1814">
        <ele>81.5</ele>
        <time>2023-08-16T07:09:09Z</time>
      </trkpt>
      <trkpt lat="49.77366" lon="2.18142">
        <ele>81.6</ele>
        <time>2023-08-16T07:09:11Z</time>
      </trkpt>
      <trkpt lat="49.77366" lon="2.18143">
        <ele>81.7</ele>
        <time>2023-08-16T07:09:12Z</time>
      </trkpt>
      <trkpt lat="49.77365" lon="2.18145">
        <ele>81.7</ele>
        <time>2023-08-16T07:09:13Z</time>
      </trkpt>
      <trkpt lat="49.77365" lon="2.18147">
        <ele>81.8</ele>
        <time>2023-08-16T07:09:14Z</time>
      </trkpt>
      <trkpt lat="49.77365" lon="2.18148">
        <ele>81.8</ele>
        <time>2023-08-16T07:09:15Z</time>
      </trkpt>
      <trkpt lat="49.77364" lon="2.18149">
        <ele>81.9</ele>
        <time>2023-08-16T07:09:16Z</time>
      </trkpt>
      <trkpt lat="49.77364" lon="2.18151">
        <ele>81.9</ele>
        <time>2023-08-16T07:09:18Z</time>
      </trkpt>
      <trkpt lat="49.77364" lon="2.18153">
        <ele>82</ele>
        <time>2023-08-16T07:09:19Z</time>
      </trkpt>
      <trkpt lat="49.77363" lon="2.18154">
        <ele>82</ele>
        <time>2023-08-16T07:09:20Z</time>
      </trkpt>
      <trkpt lat="49.77363" lon="2.18156">
        <ele>82.1</ele>
        <time>2023-08-16T07:09:22Z</time>
      </trkpt>
      <trkpt lat="49.77363" lon="2.18157">
        <ele>82.1</ele>
        <time>2023-08-16T07:09:23Z</time>
      </trkpt>
      <trkpt lat="49.77363" lon="2.18159">
        <ele>82.2</ele>
        <time>2023-08-16T07:09:24Z</time>
      </trkpt>
      <trkpt lat="49.77362" lon="2.1816">
        <ele>82.2</ele>
        <time>2023-08-16T07:09:25Z</time>
      </trkpt>
      <trkpt lat="49.77362" lon="2.18162">
        <ele>82.3</ele>
        <time>2023-08-16T07:09:26Z</time>
      </trkpt>
      <trkpt lat="49.77362" lon="2.18163">
        <ele>82.3</ele>
        <time>2023-08-16T07:09:27Z</time>
      </trkpt>
      <trkpt lat="49.77362" lon="2.18165">
        <ele>82.4</ele>
        <time>2023-08-16T07:09:29Z</time>
      </trkpt>
      <trkpt lat="49.77361" lon="2.18166">
        <ele>82.4</ele>
        <time>2023-08-16T07:09:30Z</time>
      </trkpt>
      <trkpt lat="49.77361" lon="2.18168">
        <ele>82.5</ele>
        <time>2023-08-16T07:09:31Z</time>
      </trkpt>
      <trkpt lat="49.7736" lon="2.18169">
        <ele>82.5</ele>
        <time>2023-08-16T07:09:32Z</time>
      </trkpt>
      <trkpt lat="49.7736" lon="2.1817">
        <ele>82.6</ele>
        <time>2023-08-16T07:09:33Z</time>
      </trkpt>
      <trkpt lat="49.77359" lon="2.18172">
        <ele>82.6</ele>
        <time>2023-08-16T07:09:34Z</time>
      </trkpt>
      <trkpt lat="49.77359" lon="2.18175">
        <ele>82.7</ele>
        <time>2023-08-16T07:09:35Z</time>
      </trkpt>
      <trkpt lat="49.77358" lon="2.18176">
        <ele>82.7</ele>
        <time>2023-08-16T07:09:37Z</time>
      </trkpt>
      <trkpt lat="49.77358" lon="2.18177">
        <ele>82.8</ele>
        <time>2023-08-16T07:09:38Z</time>
      </trkpt>
      <trkpt lat="49.77357" lon="2.18179">
        <ele>82.8</ele>
        <time>2023-08-16T07:09:39Z</time>
      </trkpt>
      <trkpt lat="49.77357" lon="2.1818">
        <ele>82.9</ele>
        <time>2023-08-16T07:09:40Z</time>
      </trkpt>
      <trkpt lat="49.77356" lon="2.18182">
        <ele>82.9</ele>
        <time>2023-08-16T07:09:41Z</time>
      </trkpt>
      <trkpt lat="49.77355" lon="2.18184">
        <ele>83</ele>
        <time>2023-08-16T07:09:43Z</time>
      </trkpt>
      <trkpt lat="49.77354" lon="2.18185">
        <ele>83.1</ele>
        <time>2023-08-16T07:09:44Z</time>
      </trkpt>
      <trkpt lat="49.77354" lon="2.18187">
        <ele>83.1</ele>
        <time>2023-08-16T07:09:45Z</time>
      </trkpt>
      <trkpt lat="49.77353" lon="2.18188">
        <ele>83.2</ele>
        <time>2023-08-16T07:09:46Z</time>
      </trkpt>
      <trkpt lat="49.77352" lon="2.1819">
        <ele>83.2</ele>
        <time>2023-08-16T07:09:47Z</time>
      </trkpt>
      <trkpt lat="49.77351" lon="2.18192">
        <ele>83.3</ele>
        <time>2023-08-16T07:09:48Z</time>
      </trkpt>
      <trkpt lat="49.77351" lon="2.18193">
        <ele>83.3</ele>
        <time>2023-08-16T07:09:50Z</time>
      </trkpt>
      <trkpt lat="49.7735" lon="2.18194">
        <ele>83.4</ele>
        <time>2023-08-16T07:09:51Z</time>
      </trkpt>
      <trkpt lat="49.77349" lon="2.18197">
        <ele>83.5</ele>
        <time>2023-08-16T07:09:52Z</time>
      </trkpt>
      <trkpt lat="49.77348" lon="2.18198">
        <ele>83.5</ele>
        <time>2023-08-16T07:09:53Z</time>
      </trkpt>
      <trkpt lat="49.77348" lon="2.18199">
        <ele>83.5</ele>
        <time>2023-08-16T07:09:54Z</time>
      </trkpt>
      <trkpt lat="49.77346" lon="2.18201">
        <ele>83.6</ele>
        <time>2023-08-16T07:09:56Z</time>
      </trkpt>
      <trkpt lat="49.77346" lon="2.18202">
        <ele>83.7</ele>
        <time>2023-08-16T07:09:57Z</time>
      </trkpt>
      <trkpt lat="49.77346" lon="2.18203">
        <ele>83.7</ele>
        <time>2023-08-16T07:09:58Z</time>
      </trkpt>
      <trkpt lat="49.77345" lon="2.18205">
        <ele>83.8</ele>
        <time>2023-08-16T07:09:59Z</time>
      </trkpt>
      <trkpt lat="49.77344" lon="2.18206">
        <ele>83.8</ele>
        <time>2023-08-16T07:10:00Z</time>
      </trkpt>
      <trkpt lat="49.77344" lon="2.18208">
        <ele>83.9</ele>
        <time>2023-08-16T07:10:01Z</time>
      </trkpt>
      <trkpt lat="49.77343" lon="2.18211">
        <ele>84</ele>
        <time>2023-08-16T07:10:03Z</time>
      </trkpt>
      <trkpt lat="49.77342" lon="2.18212">
        <ele>84</ele>
        <time>2023-08-16T07:10:04Z</time>
      </trkpt>
      <trkpt lat="49.77342" lon="2.18213">
        <ele>84</ele>
        <time>2023-08-16T07:10:05Z</time>
      </trkpt>
      <trkpt lat="49.77341" lon="2.18216">
        <ele>84.1</ele>
        <time>2023-08-16T07:10:06Z</time>
      </trkpt>
      <trkpt lat="49.7734" lon="2.18217">
        <ele>84.2</ele>
        <time>2023-08-16T07:10:07Z</time>
      </trkpt>
      <trkpt lat="49.77339" lon="2.18218">
        <ele>84.2</ele>
        <time>2023-08-16T07:10:08Z</time>
      </trkpt>
      <trkpt lat="49.77338" lon="2.18219">
        <ele>84.3</ele>
        <time>2023-08-16T07:10:10Z</time>
      </trkpt>
      <trkpt lat="49.77338" lon="2.18221">
        <ele>84.4</ele>
        <time>2023-08-16T07:10:11Z</time>
      </trkpt>
      <trkpt lat="49.77336" lon="2.18223">
        <ele>84.5</ele>
        <time>2023-08-16T07:10:12Z</time>
      </trkpt>
      <trkpt lat="49.77336" lon="2.18224">
        <ele>84.6</ele>
        <time>2023-08-16T07:10:13Z</time>
      </trkpt>
      <trkpt lat="49.77335" lon="2.18225">
        <ele>84.6</ele>
        <time>2023-08-16T07:10:14Z</time>
      </trkpt>
      <trkpt lat="49.77335" lon="2.18227">
        <ele>84.7</ele>
        <time>2023-08-16T07:10:16Z</time>
      </trkpt>
      <trkpt lat="49.77334" lon="2.18229">
        <ele>84.8</ele>
        <time>2023-08-16T07:10:17Z</time>
      </trkpt>
      <trkpt lat="49.77332" lon="2.18232">
        <ele>84.9</ele>
        <time>2023-08-16T07:10:18Z</time>
      </trkpt>
      <trkpt lat="49.77332" lon="2.18233">
        <ele>84.9</ele>
        <time>2023-08-16T07:10:19Z</time>
      </trkpt>
      <trkpt lat="49.77332" lon="2.18234">
        <ele>85</ele>
        <time>2023-08-16T07:10:20Z</time>
      </trkpt>
      <trkpt lat="49.77331" lon="2.18236">
        <ele>85</ele>
        <time>2023-08-16T07:10:22Z</time>
      </trkpt>
      <trkpt lat="49.77331" lon="2.18238">
        <ele>85.1</ele>
        <time>2023-08-16T07:10:23Z</time>
      </trkpt>
      <trkpt lat="49.7733" lon="2.18241">
        <ele>85.2</ele>
        <time>2023-08-16T07:10:24Z</time>
      </trkpt>
      <trkpt lat="49.7733" lon="2.18242">
        <ele>85.2</ele>
        <time>2023-08-16T07:10:25Z</time>
      </trkpt>
      <trkpt lat="49.77329" lon="2.18244">
        <ele>85.3</ele>
        <time>2023-08-16T07:10:26Z</time>
      </trkpt>
      <trkpt lat="49.77328" lon="2.18247">
        <ele>85.4</ele>
        <time>2023-08-16T07:10:27Z</time>
      </trkpt>
      <trkpt lat="49.77328" lon="2.18248">
        <ele>85.4</ele>
        <time>2023-08-16T07:10:29Z</time>
      </trkpt>
      <trkpt lat="49.77327" lon="2.1825">
        <ele>85.5</ele>
        <time>2023-08-16T07:10:30Z</time>
      </trkpt>
      <trkpt lat="49.77327" lon="2.18251">
        <ele>85.5</ele>
        <time>2023-08-16T07:10:31Z</time>
      </trkpt>
      <trkpt lat="49.77326" lon="2.18253">
        <ele>85.6</ele>
        <time>2023-08-16T07:10:32Z</time>
      </trkpt>
      <trkpt lat="49.77326" lon="2.18254">
        <ele>85.6</ele>
        <time>2023-08-16T07:10:33Z</time>
      </trkpt>
      <trkpt lat="49.77325" lon="2.18256">
        <ele>85.6</ele>
        <time>2023-08-16T07:10:34Z</time>
      </trkpt>
      <trkpt lat="49.77324" lon="2.18257">
        <ele>85.7</ele>
        <time>2023-08-16T07:10:36Z</time>
      </trkpt>
      <trkpt lat="49.77324" lon="2.18259">
        <ele>85.8</ele>
        <time>2023-08-16T07:10:37Z</time>
      </trkpt>
      <trkpt lat="49.77323" lon="2.1826">
        <ele>85.8</ele>
        <time>2023-08-16T07:10:38Z</time>
      </trkpt>
      <trkpt lat="49.77323" lon="2.18262">
        <ele>85.8</ele>
        <time>2023-08-16T07:10:39Z</time>
      </trkpt>
      <trkpt lat="49.77322" lon="2.18263">
        <ele>85.9</ele>
        <time>2023-08-16T07:10:40Z</time>
      </trkpt>
      <trkpt lat="49.77321" lon="2.18264">
        <ele>85.9</ele>
        <time>2023-08-16T07:10:41Z</time>
      </trkpt>
      <trkpt lat="49.77321" lon="2.18265">
        <ele>86</ele>
        <time>2023-08-16T07:10:42Z</time>
      </trkpt>
      <trkpt lat="49.7732" lon="2.18266">
        <ele>86</ele>
        <time>2023-08-16T07:10:44Z</time>
      </trkpt>
      <trkpt lat="49.77319" lon="2.18268">
        <ele>86.1</ele>
        <time>2023-08-16T07:10:45Z</time>
      </trkpt>
      <trkpt lat="49.77319" lon="2.18269">
        <ele>86.1</ele>
        <time>2023-08-16T07:10:46Z</time>
      </trkpt>
      <trkpt lat="49.77318" lon="2.1827">
        <ele>86.2</ele>
        <time>2023-08-16T07:10:47Z</time>
      </trkpt>
      <trkpt lat="49.77318" lon="2.18272">
        <ele>86.2</ele>
        <time>2023-08-16T07:10:48Z</time>
      </trkpt>
      <trkpt lat="49.77317" lon="2.18274">
        <ele>86.3</ele>
        <time>2023-08-16T07:10:49Z</time>
      </trkpt>
      <trkpt lat="49.77316" lon="2.18275">
        <ele>86.3</ele>
        <time>2023-08-16T07:10:51Z</time>
      </trkpt>
      <trkpt lat="49.77316" lon="2.18277">
        <ele>86.4</ele>
        <time>2023-08-16T07:10:52Z</time>
      </trkpt>
      <trkpt lat="49.77315" lon="2.18278">
        <ele>86.4</ele>
        <time>2023-08-16T07:10:53Z</time>
      </trkpt>
      <trkpt lat="49.77314" lon="2.18279">
        <ele>86.5</ele>
        <time>2023-08-16T07:10:54Z</time>
      </trkpt>
      <trkpt lat="49.77313" lon="2.18279">
        <ele>86.5</ele>
        <time>2023-08-16T07:10:55Z</time>
      </trkpt>
      <trkpt lat="49.77312" lon="2.18281">
        <ele>86.6</ele>
        <time>2023-08-16T07:10:57Z</time>
      </trkpt>
      <trkpt lat="49.77311" lon="2.18282">
        <ele>86.6</ele>
        <time>2023-08-16T07:10:58Z</time>
      </trkpt>
      <trkpt lat="49.77311" lon="2.18282">
        <ele>86.7</ele>
        <time>2023-08-16T07:10:59Z</time>
      </trkpt>
      <trkpt lat="49.7731" lon="2.18283">
        <ele>86.7</ele>
        <time>2023-08-16T07:11:01Z</time>
      </trkpt>
      <trkpt lat="49.77309" lon="2.18284">
        <ele>86.8</ele>
        <time>2023-08-16T07:11:02Z</time>
      </trkpt>
      <trkpt lat="49.77308" lon="2.18285">
        <ele>86.8</ele>
        <time>2023-08-16T07:11:03Z</time>
      </trkpt>
      <trkpt lat="49.77308" lon="2.18286">
        <ele>86.8</ele>
        <time>2023-08-16T07:11:04Z</time>
      </trkpt>
      <trkpt lat="49.77307" lon="2.18287">
        <ele>86.9</ele>
        <time>2023-08-16T07:11:05Z</time>
      </trkpt>
      <trkpt lat="49.77306" lon="2.18289">
        <ele>87</ele>
        <time>2023-08-16T07:11:07Z</time>
      </trkpt>
      <trkpt lat="49.77306" lon="2.1829">
        <ele>87</ele>
        <time>2023-08-16T07:11:08Z</time>
      </trkpt>
      <trkpt lat="49.77305" lon="2.18292">
        <ele>87</ele>
        <time>2023-08-16T07:11:09Z</time>
      </trkpt>
      <trkpt lat="49.77304" lon="2.18293">
        <ele>87.1</ele>
        <time>2023-08-16T07:11:10Z</time>
      </trkpt>
      <trkpt lat="49.77304" lon="2.18294">
        <ele>87.1</ele>
        <time>2023-08-16T07:11:11Z</time>
      </trkpt>
      <trkpt lat="49.77303" lon="2.18296">
        <ele>87.2</ele>
        <time>2023-08-16T07:11:12Z</time>
      </trkpt>
      <trkpt lat="49.77302" lon="2.18297">
        <ele>87.2</ele>
        <time>2023-08-16T07:11:14Z</time>
      </trkpt>
      <trkpt lat="49.77302" lon="2.18298">
        <ele>87.3</ele>
        <time>2023-08-16T07:11:15Z</time>
      </trkpt>
      <trkpt lat="49.77301" lon="2.18299">
        <ele>87.3</ele>
        <time>2023-08-16T07:11:16Z</time>
      </trkpt>
      <trkpt lat="49.773" lon="2.183">
        <ele>87.3</ele>
        <time>2023-08-16T07:11:17Z</time>
      </trkpt>
      <trkpt lat="49.773" lon="2.18302">
        <ele>87.4</ele>
        <time>2023-08-16T07:11:18Z</time>
      </trkpt>
      <trkpt lat="49.77299" lon="2.18303">
        <ele>87.4</ele>
        <time>2023-08-16T07:11:19Z</time>
      </trkpt>
      <trkpt lat="49.77299" lon="2.18305">
        <ele>87.4</ele>
        <time>2023-08-16T07:11:21Z</time>
      </trkpt>
      <trkpt lat="49.77298" lon="2.18306">
        <ele>87.5</ele>
        <time>2023-08-16T07:11:22Z</time>
      </trkpt>
      <trkpt lat="49.77298" lon="2.18308">
        <ele>87.5</ele>
        <time>2023-08-16T07:11:23Z</time>
      </trkpt>
      <trkpt lat="49.77297" lon="2.18309">
        <ele>87.6</ele>
        <time>2023-08-16T07:11:24Z</time>
      </trkpt>
      <trkpt lat="49.77297" lon="2.18311">
        <ele>87.6</ele>
        <time>2023-08-16T07:11:25Z</time>
      </trkpt>
      <trkpt lat="49.77295" lon="2.18313">
        <ele>87.7</ele>
        <time>2023-08-16T07:11:27Z</time>
      </trkpt>
      <trkpt lat="49.77295" lon="2.18314">
        <ele>87.7</ele>
        <time>2023-08-16T07:11:28Z</time>
      </trkpt>
      <trkpt lat="49.77295" lon="2.18315">
        <ele>87.7</ele>
        <time>2023-08-16T07:11:29Z</time>
      </trkpt>
      <trkpt lat="49.77294" lon="2.18317">
        <ele>87.7</ele>
        <time>2023-08-16T07:11:30Z</time>
      </trkpt>
      <trkpt lat="49.77294" lon="2.18318">
        <ele>87.8</ele>
        <time>2023-08-16T07:11:31Z</time>
      </trkpt>
      <trkpt lat="49.77293" lon="2.1832">
        <ele>87.8</ele>
        <time>2023-08-16T07:11:32Z</time>
      </trkpt>
      <trkpt lat="49.77292" lon="2.18321">
        <ele>87.8</ele>
        <time>2023-08-16T07:11:33Z</time>
      </trkpt>
      <trkpt lat="49.77292" lon="2.18323">
        <ele>87.9</ele>
        <time>2023-08-16T07:11:35Z</time>
      </trkpt>
      <trkpt lat="49.77291" lon="2.18324">
        <ele>87.9</ele>
        <time>2023-08-16T07:11:36Z</time>
      </trkpt>
      <trkpt lat="49.7729" lon="2.18326">
        <ele>88</ele>
        <time>2023-08-16T07:11:37Z</time>
      </trkpt>
      <trkpt lat="49.7729" lon="2.18328">
        <ele>88</ele>
        <time>2023-08-16T07:11:38Z</time>
      </trkpt>
      <trkpt lat="49.77289" lon="2.18329">
        <ele>88</ele>
        <time>2023-08-16T07:11:39Z</time>
      </trkpt>
      <trkpt lat="49.77289" lon="2.1833">
        <ele>88.1</ele>
        <time>2023-08-16T07:11:40Z</time>
      </trkpt>
      <trkpt lat="49.77288" lon="2.18331">
        <ele>88.1</ele>
        <time>2023-08-16T07:11:41Z</time>
      </trkpt>
      <trkpt lat="49.77287" lon="2.18333">
        <ele>88.1</ele>
        <time>2023-08-16T07:11:43Z</time>
      </trkpt>
      <trkpt lat="49.77286" lon="2.18334">
        <ele>88.2</ele>
        <time>2023-08-16T07:11:44Z</time>
      </trkpt>
      <trkpt lat="49.77286" lon="2.18336">
        <ele>88.2</ele>
        <time>2023-08-16T07:11:45Z</time>
      </trkpt>
      <trkpt lat="49.77285" lon="2.18337">
        <ele>88.3</ele>
        <time>2023-08-16T07:11:46Z</time>
      </trkpt>
      <trkpt lat="49.77284" lon="2.18338">
        <ele>88.3</ele>
        <time>2023-08-16T07:11:47Z</time>
      </trkpt>
      <trkpt lat="49.77284" lon="2.1834">
        <ele>88.3</ele>
        <time>2023-08-16T07:11:48Z</time>
      </trkpt>
      <trkpt lat="49.77283" lon="2.18341">
        <ele>88.4</ele>
        <time>2023-08-16T07:11:49Z</time>
      </trkpt>
      <trkpt lat="49.77282" lon="2.18342">
        <ele>88.4</ele>
        <time>2023-08-16T07:11:51Z</time>
      </trkpt>
      <trkpt lat="49.77282" lon="2.18343">
        <ele>88.4</ele>
        <time>2023-08-16T07:11:52Z</time>
      </trkpt>
      <trkpt lat="49.77281" lon="2.18345">
        <ele>88.4</ele>
        <time>2023-08-16T07:11:53Z</time>
      </trkpt>
      <trkpt lat="49.7728" lon="2.18348">
        <ele>88.5</ele>
        <time>2023-08-16T07:11:54Z</time>
      </trkpt>
      <trkpt lat="49.77279" lon="2.18349">
        <ele>88.5</ele>
        <time>2023-08-16T07:11:55Z</time>
      </trkpt>
      <trkpt lat="49.77279" lon="2.1835">
        <ele>88.6</ele>
        <time>2023-08-16T07:11:57Z</time>
      </trkpt>
      <trkpt lat="49.77278" lon="2.18351">
        <ele>88.6</ele>
        <time>2023-08-16T07:11:58Z</time>
      </trkpt>
      <trkpt lat="49.77278" lon="2.18353">
        <ele>88.6</ele>
        <time>2023-08-16T07:11:59Z</time>
      </trkpt>
      <trkpt lat="49.77277" lon="2.18354">
        <ele>88.6</ele>
        <time>2023-08-16T07:12:00Z</time>
      </trkpt>
      <trkpt lat="49.77276" lon="2.18355">
        <ele>88.6</ele>
        <time>2023-08-16T07:12:01Z</time>
      </trkpt>
      <trkpt lat="49.77276" lon="2.18356">
        <ele>88.7</ele>
        <time>2023-08-16T07:12:03Z</time>
      </trkpt>
      <trkpt lat="49.77275" lon="2.18358">
        <ele>88.7</ele>
        <time>2023-08-16T07:12:04Z</time>
      </trkpt>
      <trkpt lat="49.77274" lon="2.1836">
        <ele>88.7</ele>
        <time>2023-08-16T07:12:05Z</time>
      </trkpt>
      <trkpt lat="49.77274" lon="2.18361">
        <ele>88.8</ele>
        <time>2023-08-16T07:12:06Z</time>
      </trkpt>
      <trkpt lat="49.77273" lon="2.18363">
        <ele>88.8</ele>
        <time>2023-08-16T07:12:07Z</time>
      </trkpt>
      <trkpt lat="49.77272" lon="2.18364">
        <ele>88.8</ele>
        <time>2023-08-16T07:12:08Z</time>
      </trkpt>
      <trkpt lat="49.77272" lon="2.18365">
        <ele>88.8</ele>
        <time>2023-08-16T07:12:09Z</time>
      </trkpt>
      <trkpt lat="49.77271" lon="2.18367">
        <ele>88.9</ele>
        <time>2023-08-16T07:12:11Z</time>
      </trkpt>
      <trkpt lat="49.77271" lon="2.18369">
        <ele>88.9</ele>
        <time>2023-08-16T07:12:12Z</time>
      </trkpt>
      <trkpt lat="49.7727" lon="2.1837">
        <ele>88.9</ele>
        <time>2023-08-16T07:12:13Z</time>
      </trkpt>
      <trkpt lat="49.7727" lon="2.18371">
        <ele>88.9</ele>
        <time>2023-08-16T07:12:14Z</time>
      </trkpt>
      <trkpt lat="49.77269" lon="2.18373">
        <ele>88.9</ele>
        <time>2023-08-16T07:12:15Z</time>
      </trkpt>
      <trkpt lat="49.77268" lon="2.18374">
        <ele>89</ele>
        <time>2023-08-16T07:12:16Z</time>
      </trkpt>
      <trkpt lat="49.77267" lon="2.18376">
        <ele>89</ele>
        <time>2023-08-16T07:12:18Z</time>
      </trkpt>
      <trkpt lat="49.77267" lon="2.18378">
        <ele>89</ele>
        <time>2023-08-16T07:12:19Z</time>
      </trkpt>
      <trkpt lat="49.77266" lon="2.18379">
        <ele>89</ele>
        <time>2023-08-16T07:12:20Z</time>
      </trkpt>
      <trkpt lat="49.77266" lon="2.18381">
        <ele>89.1</ele>
        <time>2023-08-16T07:12:21Z</time>
      </trkpt>
      <trkpt lat="49.77265" lon="2.18383">
        <ele>89.1</ele>
        <time>2023-08-16T07:12:23Z</time>
      </trkpt>
      <trkpt lat="49.77265" lon="2.18384">
        <ele>89.1</ele>
        <time>2023-08-16T07:12:24Z</time>
      </trkpt>
      <trkpt lat="49.77264" lon="2.18385">
        <ele>89.1</ele>
        <time>2023-08-16T07:12:25Z</time>
      </trkpt>
      <trkpt lat="49.77263" lon="2.18387">
        <ele>89.2</ele>
        <time>2023-08-16T07:12:26Z</time>
      </trkpt>
      <trkpt lat="49.77263" lon="2.18388">
        <ele>89.2</ele>
        <time>2023-08-16T07:12:28Z</time>
      </trkpt>
      <trkpt lat="49.77262" lon="2.1839">
        <ele>89.2</ele>
        <time>2023-08-16T07:12:29Z</time>
      </trkpt>
      <trkpt lat="49.77262" lon="2.18392">
        <ele>89.2</ele>
        <time>2023-08-16T07:12:30Z</time>
      </trkpt>
      <trkpt lat="49.77261" lon="2.18393">
        <ele>89.2</ele>
        <time>2023-08-16T07:12:31Z</time>
      </trkpt>
      <trkpt lat="49.77261" lon="2.18395">
        <ele>89.3</ele>
        <time>2023-08-16T07:12:32Z</time>
      </trkpt>
      <trkpt lat="49.77261" lon="2.18396">
        <ele>89.3</ele>
        <time>2023-08-16T07:12:33Z</time>
      </trkpt>
      <trkpt lat="49.7726" lon="2.18398">
        <ele>89.3</ele>
        <time>2023-08-16T07:12:35Z</time>
      </trkpt>
      <trkpt lat="49.7726" lon="2.18399">
        <ele>89.3</ele>
        <time>2023-08-16T07:12:36Z</time>
      </trkpt>
      <trkpt lat="49.77259" lon="2.184">
        <ele>89.3</ele>
        <time>2023-08-16T07:12:37Z</time>
      </trkpt>
      <trkpt lat="49.77259" lon="2.18402">
        <ele>89.4</ele>
        <time>2023-08-16T07:12:38Z</time>
      </trkpt>
      <trkpt lat="49.77259" lon="2.18403">
        <ele>89.4</ele>
        <time>2023-08-16T07:12:39Z</time>
      </trkpt>
      <trkpt lat="49.77258" lon="2.18404">
        <ele>89.4</ele>
        <time>2023-08-16T07:12:41Z</time>
      </trkpt>
      <trkpt lat="49.77258" lon="2.18406">
        <ele>89.4</ele>
        <time>2023-08-16T07:12:42Z</time>
      </trkpt>
      <trkpt lat="49.77257" lon="2.18407">
        <ele>89.4</ele>
        <time>2023-08-16T07:12:43Z</time>
      </trkpt>
      <trkpt lat="49.77257" lon="2.18409">
        <ele>89.5</ele>
        <time>2023-08-16T07:12:44Z</time>
      </trkpt>
      <trkpt lat="49.77256" lon="2.1841">
        <ele>89.5</ele>
        <time>2023-08-16T07:12:45Z</time>
      </trkpt>
      <trkpt lat="49.77255" lon="2.18411">
        <ele>89.5</ele>
        <time>2023-08-16T07:12:46Z</time>
      </trkpt>
      <trkpt lat="49.77254" lon="2.18414">
        <ele>89.5</ele>
        <time>2023-08-16T07:12:48Z</time>
      </trkpt>
      <trkpt lat="49.77254" lon="2.18415">
        <ele>89.5</ele>
        <time>2023-08-16T07:12:49Z</time>
      </trkpt>
      <trkpt lat="49.77253" lon="2.18416">
        <ele>89.5</ele>
        <time>2023-08-16T07:12:50Z</time>
      </trkpt>
      <trkpt lat="49.77253" lon="2.18417">
        <ele>89.6</ele>
        <time>2023-08-16T07:12:51Z</time>
      </trkpt>
      <trkpt lat="49.77252" lon="2.18419">
        <ele>89.6</ele>
        <time>2023-08-16T07:12:52Z</time>
      </trkpt>
      <trkpt lat="49.77251" lon="2.1842">
        <ele>89.6</ele>
        <time>2023-08-16T07:12:53Z</time>
      </trkpt>
      <trkpt lat="49.77251" lon="2.18421">
        <ele>89.6</ele>
        <time>2023-08-16T07:12:54Z</time>
      </trkpt>
      <trkpt lat="49.7725" lon="2.18423">
        <ele>89.6</ele>
        <time>2023-08-16T07:12:56Z</time>
      </trkpt>
      <trkpt lat="49.7725" lon="2.18425">
        <ele>89.7</ele>
        <time>2023-08-16T07:12:57Z</time>
      </trkpt>
      <trkpt lat="49.77249" lon="2.18428">
        <ele>89.7</ele>
        <time>2023-08-16T07:12:58Z</time>
      </trkpt>
      <trkpt lat="49.77249" lon="2.18429">
        <ele>89.7</ele>
        <time>2023-08-16T07:12:59Z</time>
      </trkpt>
      <trkpt lat="49.77249" lon="2.1843">
        <ele>89.7</ele>
        <time>2023-08-16T07:13:00Z</time>
      </trkpt>
      <trkpt lat="49.77248" lon="2.18433">
        <ele>89.8</ele>
        <time>2023-08-16T07:13:01Z</time>
      </trkpt>
      <trkpt lat="49.77248" lon="2.18435">
        <ele>89.8</ele>
        <time>2023-08-16T07:13:03Z</time>
      </trkpt>
      <trkpt lat="49.77248" lon="2.18436">
        <ele>89.8</ele>
        <time>2023-08-16T07:13:04Z</time>
      </trkpt>
      <trkpt lat="49.77247" lon="2.18439">
        <ele>89.8</ele>
        <time>2023-08-16T07:13:05Z</time>
      </trkpt>
      <trkpt lat="49.77247" lon="2.18441">
        <ele>89.8</ele>
        <time>2023-08-16T07:13:07Z</time>
      </trkpt>
      <trkpt lat="49.77247" lon="2.18442">
        <ele>89.9</ele>
        <time>2023-08-16T07:13:08Z</time>
      </trkpt>
      <trkpt lat="49.77246" lon="2.18445">
        <ele>89.9</ele>
        <time>2023-08-16T07:13:09Z</time>
      </trkpt>
      <trkpt lat="49.77246" lon="2.18446">
        <ele>89.9</ele>
        <time>2023-08-16T07:13:10Z</time>
      </trkpt>
      <trkpt lat="49.77245" lon="2.18447">
        <ele>89.9</ele>
        <time>2023-08-16T07:13:11Z</time>
      </trkpt>
      <trkpt lat="49.77245" lon="2.18449">
        <ele>89.9</ele>
        <time>2023-08-16T07:13:12Z</time>
      </trkpt>
      <trkpt lat="49.77244" lon="2.18451">
        <ele>90</ele>
        <time>2023-08-16T07:13:14Z</time>
      </trkpt>
      <trkpt lat="49.77244" lon="2.18452">
        <ele>90</ele>
        <time>2023-08-16T07:13:15Z</time>
      </trkpt>
      <trkpt lat="49.77243" lon="2.18455">
        <ele>90</ele>
        <time>2023-08-16T07:13:16Z</time>
      </trkpt>
      <trkpt lat="49.77243" lon="2.18456">
        <ele>90</ele>
        <time>2023-08-16T07:13:17Z</time>
      </trkpt>
      <trkpt lat="49.77242" lon="2.18457">
        <ele>90</ele>
        <time>2023-08-16T07:13:18Z</time>
      </trkpt>
      <trkpt lat="49.77242" lon="2.18458">
        <ele>90.1</ele>
        <time>2023-08-16T07:13:19Z</time>
      </trkpt>
      <trkpt lat="49.77241" lon="2.1846">
        <ele>90.1</ele>
        <time>2023-08-16T07:13:21Z</time>
      </trkpt>
      <trkpt lat="49.77241" lon="2.18462">
        <ele>90.1</ele>
        <time>2023-08-16T07:13:22Z</time>
      </trkpt>
      <trkpt lat="49.7724" lon="2.18463">
        <ele>90.1</ele>
        <time>2023-08-16T07:13:23Z</time>
      </trkpt>
      <trkpt lat="49.7724" lon="2.18464">
        <ele>90.1</ele>
        <time>2023-08-16T07:13:24Z</time>
      </trkpt>
      <trkpt lat="49.77239" lon="2.18466">
        <ele>90.2</ele>
        <time>2023-08-16T07:13:25Z</time>
      </trkpt>
      <trkpt lat="49.77239" lon="2.18467">
        <ele>90.2</ele>
        <time>2023-08-16T07:13:26Z</time>
      </trkpt>
      <trkpt lat="49.77238" lon="2.18469">
        <ele>90.2</ele>
        <time>2023-08-16T07:13:28Z</time>
      </trkpt>
      <trkpt lat="49.77238" lon="2.1847">
        <ele>90.2</ele>
        <time>2023-08-16T07:13:29Z</time>
      </trkpt>
      <trkpt lat="49.77238" lon="2.18472">
        <ele>90.2</ele>
        <time>2023-08-16T07:13:30Z</time>
      </trkpt>
      <trkpt lat="49.77237" lon="2.18473">
        <ele>90.3</ele>
        <time>2023-08-16T07:13:31Z</time>
      </trkpt>
      <trkpt lat="49.77237" lon="2.18475">
        <ele>90.3</ele>
        <time>2023-08-16T07:13:32Z</time>
      </trkpt>
      <trkpt lat="49.77236" lon="2.18476">
        <ele>90.3</ele>
        <time>2023-08-16T07:13:34Z</time>
      </trkpt>
      <trkpt lat="49.77236" lon="2.18477">
        <ele>90.3</ele>
        <time>2023-08-16T07:13:35Z</time>
      </trkpt>
      <trkpt lat="49.77235" lon="2.18479">
        <ele>90.3</ele>
        <time>2023-08-16T07:13:36Z</time>
      </trkpt>
      <trkpt lat="49.77235" lon="2.1848">
        <ele>90.4</ele>
        <time>2023-08-16T07:13:37Z</time>
      </trkpt>
      <trkpt lat="49.77235" lon="2.18482">
        <ele>90.4</ele>
        <time>2023-08-16T07:13:38Z</time>
      </trkpt>
      <trkpt lat="49.77235" lon="2.18483">
        <ele>90.4</ele>
        <time>2023-08-16T07:13:39Z</time>
      </trkpt>
      <trkpt lat="49.77234" lon="2.18485">
        <ele>90.4</ele>
        <time>2023-08-16T07:13:40Z</time>
      </trkpt>
      <trkpt lat="49.77234" lon="2.18486">
        <ele>90.5</ele>
        <time>2023-08-16T07:13:42Z</time>
      </trkpt>
      <trkpt lat="49.77234" lon="2.18488">
        <ele>90.5</ele>
        <time>2023-08-16T07:13:43Z</time>
      </trkpt>
      <trkpt lat="49.77233" lon="2.1849">
        <ele>90.5</ele>
        <time>2023-08-16T07:13:44Z</time>
      </trkpt>
      <trkpt lat="49.77233" lon="2.18492">
        <ele>90.5</ele>
        <time>2023-08-16T07:13:45Z</time>
      </trkpt>
      <trkpt lat="49.77232" lon="2.18493">
        <ele>90.6</ele>
        <time>2023-08-16T07:13:47Z</time>
      </trkpt>
      <trkpt lat="49.77231" lon="2.18495">
        <ele>90.6</ele>
        <time>2023-08-16T07:13:48Z</time>
      </trkpt>
      <trkpt lat="49.77231" lon="2.18496">
        <ele>90.6</ele>
        <time>2023-08-16T07:13:49Z</time>
      </trkpt>
      <trkpt lat="49.7723" lon="2.18498">
        <ele>90.6</ele>
        <time>2023-08-16T07:13:50Z</time>
      </trkpt>
      <trkpt lat="49.7723" lon="2.18501">
        <ele>90.7</ele>
        <time>2023-08-16T07:13:52Z</time>
      </trkpt>
      <trkpt lat="49.77229" lon="2.18502">
        <ele>90.7</ele>
        <time>2023-08-16T07:13:53Z</time>
      </trkpt>
      <trkpt lat="49.77229" lon="2.18503">
        <ele>90.7</ele>
        <time>2023-08-16T07:13:54Z</time>
      </trkpt>
      <trkpt lat="49.77228" lon="2.18505">
        <ele>90.7</ele>
        <time>2023-08-16T07:13:55Z</time>
      </trkpt>
      <trkpt lat="49.77228" lon="2.18506">
        <ele>90.7</ele>
        <time>2023-08-16T07:13:56Z</time>
      </trkpt>
      <trkpt lat="49.77228" lon="2.18508">
        <ele>90.8</ele>
        <time>2023-08-16T07:13:57Z</time>
      </trkpt>
      <trkpt lat="49.77227" lon="2.18509">
        <ele>90.8</ele>
        <time>2023-08-16T07:13:58Z</time>
      </trkpt>
      <trkpt lat="49.77227" lon="2.18511">
        <ele>90.8</ele>
        <time>2023-08-16T07:14:00Z</time>
      </trkpt>
      <trkpt lat="49.77226" lon="2.18512">
        <ele>90.8</ele>
        <time>2023-08-16T07:14:01Z</time>
      </trkpt>
      <trkpt lat="49.77225" lon="2.18515">
        <ele>90.8</ele>
        <time>2023-08-16T07:14:02Z</time>
      </trkpt>
      <trkpt lat="49.77225" lon="2.18516">
        <ele>90.8</ele>
        <time>2023-08-16T07:14:03Z</time>
      </trkpt>
      <trkpt lat="49.77225" lon="2.18517">
        <ele>90.9</ele>
        <time>2023-08-16T07:14:04Z</time>
      </trkpt>
      <trkpt lat="49.77224" lon="2.18519">
        <ele>90.9</ele>
        <time>2023-08-16T07:14:05Z</time>
      </trkpt>
      <trkpt lat="49.77224" lon="2.18521">
        <ele>90.9</ele>
        <time>2023-08-16T07:14:07Z</time>
      </trkpt>
      <trkpt lat="49.77223" lon="2.18522">
        <ele>90.9</ele>
        <time>2023-08-16T07:14:08Z</time>
      </trkpt>
      <trkpt lat="49.77223" lon="2.18525">
        <ele>90.9</ele>
        <time>2023-08-16T07:14:09Z</time>
      </trkpt>
      <trkpt lat="49.77222" lon="2.18526">
        <ele>91</ele>
        <time>2023-08-16T07:14:10Z</time>
      </trkpt>
      <trkpt lat="49.77222" lon="2.18528">
        <ele>91</ele>
        <time>2023-08-16T07:14:11Z</time>
      </trkpt>
      <trkpt lat="49.77221" lon="2.18529">
        <ele>91</ele>
        <time>2023-08-16T07:14:12Z</time>
      </trkpt>
      <trkpt lat="49.77221" lon="2.18531">
        <ele>91</ele>
        <time>2023-08-16T07:14:14Z</time>
      </trkpt>
      <trkpt lat="49.7722" lon="2.18532">
        <ele>91.1</ele>
        <time>2023-08-16T07:14:15Z</time>
      </trkpt>
      <trkpt lat="49.7722" lon="2.18534">
        <ele>91.1</ele>
        <time>2023-08-16T07:14:16Z</time>
      </trkpt>
      <trkpt lat="49.7722" lon="2.18536">
        <ele>91.1</ele>
        <time>2023-08-16T07:14:17Z</time>
      </trkpt>
      <trkpt lat="49.7722" lon="2.18537">
        <ele>91.1</ele>
        <time>2023-08-16T07:14:18Z</time>
      </trkpt>
      <trkpt lat="49.77219" lon="2.1854">
        <ele>91.2</ele>
        <time>2023-08-16T07:14:19Z</time>
      </trkpt>
      <trkpt lat="49.77219" lon="2.18542">
        <ele>91.2</ele>
        <time>2023-08-16T07:14:21Z</time>
      </trkpt>
      <trkpt lat="49.77218" lon="2.18543">
        <ele>91.2</ele>
        <time>2023-08-16T07:14:22Z</time>
      </trkpt>
      <trkpt lat="49.77218" lon="2.18544">
        <ele>91.2</ele>
        <time>2023-08-16T07:14:23Z</time>
      </trkpt>
      <trkpt lat="49.77218" lon="2.18546">
        <ele>91.3</ele>
        <time>2023-08-16T07:14:24Z</time>
      </trkpt>
      <trkpt lat="49.77217" lon="2.18548">
        <ele>91.3</ele>
        <time>2023-08-16T07:14:25Z</time>
      </trkpt>
      <trkpt lat="49.77216" lon="2.1855">
        <ele>91.3</ele>
        <time>2023-08-16T07:14:26Z</time>
      </trkpt>
      <trkpt lat="49.77216" lon="2.18552">
        <ele>91.4</ele>
        <time>2023-08-16T07:14:28Z</time>
      </trkpt>
      <trkpt lat="49.77216" lon="2.18553">
        <ele>91.4</ele>
        <time>2023-08-16T07:14:29Z</time>
      </trkpt>
      <trkpt lat="49.77215" lon="2.18555">
        <ele>91.4</ele>
        <time>2023-08-16T07:14:30Z</time>
      </trkpt>
      <trkpt lat="49.77215" lon="2.18556">
        <ele>91.4</ele>
        <time>2023-08-16T07:14:31Z</time>
      </trkpt>
      <trkpt lat="49.77215" lon="2.18558">
        <ele>91.5</ele>
        <time>2023-08-16T07:14:32Z</time>
      </trkpt>
      <trkpt lat="49.77214" lon="2.18561">
        <ele>91.5</ele>
        <time>2023-08-16T07:14:34Z</time>
      </trkpt>
      <trkpt lat="49.77214" lon="2.18562">
        <ele>91.5</ele>
        <time>2023-08-16T07:14:35Z</time>
      </trkpt>
      <trkpt lat="49.77213" lon="2.18563">
        <ele>91.6</ele>
        <time>2023-08-16T07:14:36Z</time>
      </trkpt>
      <trkpt lat="49.77213" lon="2.18565">
        <ele>91.6</ele>
        <time>2023-08-16T07:14:37Z</time>
      </trkpt>
      <trkpt lat="49.77212" lon="2.18567">
        <ele>91.6</ele>
        <time>2023-08-16T07:14:38Z</time>
      </trkpt>
      <trkpt lat="49.77212" lon="2.18569">
        <ele>91.6</ele>
        <time>2023-08-16T07:14:40Z</time>
      </trkpt>
      <trkpt lat="49.77211" lon="2.18572">
        <ele>91.7</ele>
        <time>2023-08-16T07:14:41Z</time>
      </trkpt>
      <trkpt lat="49.7721" lon="2.18573">
        <ele>91.7</ele>
        <time>2023-08-16T07:14:42Z</time>
      </trkpt>
      <trkpt lat="49.7721" lon="2.18574">
        <ele>91.7</ele>
        <time>2023-08-16T07:14:43Z</time>
      </trkpt>
      <trkpt lat="49.77209" lon="2.18576">
        <ele>91.7</ele>
        <time>2023-08-16T07:14:44Z</time>
      </trkpt>
      <trkpt lat="49.77209" lon="2.18577">
        <ele>91.7</ele>
        <time>2023-08-16T07:14:45Z</time>
      </trkpt>
      <trkpt lat="49.77208" lon="2.18579">
        <ele>91.8</ele>
        <time>2023-08-16T07:14:47Z</time>
      </trkpt>
      <trkpt lat="49.77207" lon="2.18581">
        <ele>91.8</ele>
        <time>2023-08-16T07:14:48Z</time>
      </trkpt>
      <trkpt lat="49.77207" lon="2.18582">
        <ele>91.8</ele>
        <time>2023-08-16T07:14:49Z</time>
      </trkpt>
      <trkpt lat="49.77206" lon="2.18584">
        <ele>91.8</ele>
        <time>2023-08-16T07:14:50Z</time>
      </trkpt>
      <trkpt lat="49.77205" lon="2.18585">
        <ele>91.8</ele>
        <time>2023-08-16T07:14:51Z</time>
      </trkpt>
      <trkpt lat="49.77205" lon="2.18586">
        <ele>91.9</ele>
        <time>2023-08-16T07:14:52Z</time>
      </trkpt>
      <trkpt lat="49.77204" lon="2.18588">
        <ele>91.9</ele>
        <time>2023-08-16T07:14:54Z</time>
      </trkpt>
      <trkpt lat="49.77203" lon="2.1859">
        <ele>91.9</ele>
        <time>2023-08-16T07:14:55Z</time>
      </trkpt>
      <trkpt lat="49.77203" lon="2.18591">
        <ele>91.9</ele>
        <time>2023-08-16T07:14:56Z</time>
      </trkpt>
      <trkpt lat="49.77202" lon="2.18592">
        <ele>91.9</ele>
        <time>2023-08-16T07:14:57Z</time>
      </trkpt>
      <trkpt lat="49.77201" lon="2.18595">
        <ele>92</ele>
        <time>2023-08-16T07:14:58Z</time>
      </trkpt>
      <trkpt lat="49.77201" lon="2.18596">
        <ele>92</ele>
        <time>2023-08-16T07:15:00Z</time>
      </trkpt>
      <trkpt lat="49.772" lon="2.18597">
        <ele>92</ele>
        <time>2023-08-16T07:15:01Z</time>
      </trkpt>
      <trkpt lat="49.77199" lon="2.18599">
        <ele>92</ele>
        <time>2023-08-16T07:15:02Z</time>
      </trkpt>
      <trkpt lat="49.77199" lon="2.186">
        <ele>92</ele>
        <time>2023-08-16T07:15:03Z</time>
      </trkpt>
      <trkpt lat="49.77199" lon="2.18602">
        <ele>92.1</ele>
        <time>2023-08-16T07:15:04Z</time>
      </trkpt>
      <trkpt lat="49.77198" lon="2.18603">
        <ele>92.1</ele>
        <time>2023-08-16T07:15:05Z</time>
      </trkpt>
      <trkpt lat="49.77198" lon="2.18606">
        <ele>92.1</ele>
        <time>2023-08-16T07:15:07Z</time>
      </trkpt>
      <trkpt lat="49.77197" lon="2.18607">
        <ele>92.1</ele>
        <time>2023-08-16T07:15:08Z</time>
      </trkpt>
      <trkpt lat="49.77197" lon="2.18609">
        <ele>92.1</ele>
        <time>2023-08-16T07:15:09Z</time>
      </trkpt>
      <trkpt lat="49.77196" lon="2.1861">
        <ele>92.2</ele>
        <time>2023-08-16T07:15:10Z</time>
      </trkpt>
      <trkpt lat="49.77196" lon="2.18612">
        <ele>92.2</ele>
        <time>2023-08-16T07:15:11Z</time>
      </trkpt>
      <trkpt lat="49.77196" lon="2.18613">
        <ele>92.2</ele>
        <time>2023-08-16T07:15:12Z</time>
      </trkpt>
      <trkpt lat="49.77195" lon="2.18615">
        <ele>92.2</ele>
        <time>2023-08-16T07:15:14Z</time>
      </trkpt>
      <trkpt lat="49.77195" lon="2.18616">
        <ele>92.2</ele>
        <time>2023-08-16T07:15:15Z</time>
      </trkpt>
      <trkpt lat="49.77194" lon="2.18618">
        <ele>92.3</ele>
        <time>2023-08-16T07:15:16Z</time>
      </trkpt>
      <trkpt lat="49.77194" lon="2.18619">
        <ele>92.3</ele>
        <time>2023-08-16T07:15:17Z</time>
      </trkpt>
      <trkpt lat="49.77194" lon="2.1862">
        <ele>92.3</ele>
        <time>2023-08-16T07:15:18Z</time>
      </trkpt>
      <trkpt lat="49.77193" lon="2.18621">
        <ele>92.3</ele>
        <time>2023-08-16T07:15:20Z</time>
      </trkpt>
      <trkpt lat="49.77193" lon="2.18622">
        <ele>92.3</ele>
        <time>2023-08-16T07:15:21Z</time>
      </trkpt>
      <trkpt lat="49.77193" lon="2.18623">
        <ele>92.3</ele>
        <time>2023-08-16T07:15:22Z</time>
      </trkpt>
      <trkpt lat="49.77192" lon="2.18624">
        <ele>92.4</ele>
        <time>2023-08-16T07:15:23Z</time>
      </trkpt>
      <trkpt lat="49.77192" lon="2.18625">
        <ele>92.4</ele>
        <time>2023-08-16T07:15:24Z</time>
      </trkpt>
      <trkpt lat="49.77191" lon="2.18626">
        <ele>92.4</ele>
        <time>2023-08-16T07:15:25Z</time>
      </trkpt>
      <trkpt lat="49.77191" lon="2.18628">
        <ele>92.4</ele>
        <time>2023-08-16T07:15:27Z</time>
      </trkpt>
      <trkpt lat="49.7719" lon="2.1863">
        <ele>92.4</ele>
        <time>2023-08-16T07:15:28Z</time>
      </trkpt>
      <trkpt lat="49.7719" lon="2.18632">
        <ele>92.5</ele>
        <time>2023-08-16T07:15:29Z</time>
      </trkpt>
      <trkpt lat="49.7719" lon="2.18633">
        <ele>92.5</ele>
        <time>2023-08-16T07:15:30Z</time>
      </trkpt>
      <trkpt lat="49.77189" lon="2.18635">
        <ele>92.5</ele>
        <time>2023-08-16T07:15:31Z</time>
      </trkpt>
      <trkpt lat="49.77189" lon="2.18636">
        <ele>92.5</ele>
        <time>2023-08-16T07:15:32Z</time>
      </trkpt>
      <trkpt lat="49.77189" lon="2.18638">
        <ele>92.6</ele>
        <time>2023-08-16T07:15:34Z</time>
      </trkpt>
      <trkpt lat="49.77188" lon="2.1864">
        <ele>92.6</ele>
        <time>2023-08-16T07:15:35Z</time>
      </trkpt>
      <trkpt lat="49.77188" lon="2.18642">
        <ele>92.6</ele>
        <time>2023-08-16T07:15:36Z</time>
      </trkpt>
      <trkpt lat="49.77188" lon="2.18643">
        <ele>92.6</ele>
        <time>2023-08-16T07:15:37Z</time>
      </trkpt>
      <trkpt lat="49.77187" lon="2.18645">
        <ele>92.7</ele>
        <time>2023-08-16T07:15:38Z</time>
      </trkpt>
      <trkpt lat="49.77187" lon="2.18647">
        <ele>92.7</ele>
        <time>2023-08-16T07:15:39Z</time>
      </trkpt>
      <trkpt lat="49.77187" lon="2.18648">
        <ele>92.7</ele>
        <time>2023-08-16T07:15:40Z</time>
      </trkpt>
      <trkpt lat="49.77186" lon="2.18652">
        <ele>92.7</ele>
        <time>2023-08-16T07:15:42Z</time>
      </trkpt>
      <trkpt lat="49.77186" lon="2.18653">
        <ele>92.8</ele>
        <time>2023-08-16T07:15:43Z</time>
      </trkpt>
      <trkpt lat="49.77186" lon="2.18654">
        <ele>92.8</ele>
        <time>2023-08-16T07:15:44Z</time>
      </trkpt>
      <trkpt lat="49.77186" lon="2.18656">
        <ele>92.8</ele>
        <time>2023-08-16T07:15:45Z</time>
      </trkpt>
      <trkpt lat="49.77185" lon="2.18657">
        <ele>92.8</ele>
        <time>2023-08-16T07:15:46Z</time>
      </trkpt>
      <trkpt lat="49.77185" lon="2.18659">
        <ele>92.8</ele>
        <time>2023-08-16T07:15:48Z</time>
      </trkpt>
      <trkpt lat="49.77184" lon="2.18661">
        <ele>92.9</ele>
        <time>2023-08-16T07:15:49Z</time>
      </trkpt>
      <trkpt lat="49.77184" lon="2.18662">
        <ele>92.9</ele>
        <time>2023-08-16T07:15:50Z</time>
      </trkpt>
      <trkpt lat="49.77184" lon="2.18664">
        <ele>92.9</ele>
        <time>2023-08-16T07:15:51Z</time>
      </trkpt>
      <trkpt lat="49.77183" lon="2.18667">
        <ele>93</ele>
        <time>2023-08-16T07:15:52Z</time>
      </trkpt>
      <trkpt lat="49.77183" lon="2.18669">
        <ele>93</ele>
        <time>2023-08-16T07:15:53Z</time>
      </trkpt>
      <trkpt lat="49.77183" lon="2.1867">
        <ele>93</ele>
        <time>2023-08-16T07:15:55Z</time>
      </trkpt>
      <trkpt lat="49.77183" lon="2.18672">
        <ele>93</ele>
        <time>2023-08-16T07:15:56Z</time>
      </trkpt>
      <trkpt lat="49.77182" lon="2.18673">
        <ele>93</ele>
        <time>2023-08-16T07:15:57Z</time>
      </trkpt>
      <trkpt lat="49.77182" lon="2.18675">
        <ele>93.1</ele>
        <time>2023-08-16T07:15:58Z</time>
      </trkpt>
      <trkpt lat="49.77182" lon="2.18678">
        <ele>93.1</ele>
        <time>2023-08-16T07:15:59Z</time>
      </trkpt>
      <trkpt lat="49.77182" lon="2.18679">
        <ele>93.1</ele>
        <time>2023-08-16T07:16:01Z</time>
      </trkpt>
      <trkpt lat="49.77182" lon="2.1868">
        <ele>93.1</ele>
        <time>2023-08-16T07:16:02Z</time>
      </trkpt>
      <trkpt lat="49.77181" lon="2.18682">
        <ele>93.2</ele>
        <time>2023-08-16T07:16:03Z</time>
      </trkpt>
      <trkpt lat="49.77181" lon="2.18684">
        <ele>93.2</ele>
        <time>2023-08-16T07:16:04Z</time>
      </trkpt>
      <trkpt lat="49.77181" lon="2.18685">
        <ele>93.2</ele>
        <time>2023-08-16T07:16:05Z</time>
      </trkpt>
      <trkpt lat="49.7718" lon="2.18689">
        <ele>93.3</ele>
        <time>2023-08-16T07:16:06Z</time>
      </trkpt>
      <trkpt lat="49.7718" lon="2.1869">
        <ele>93.3</ele>
        <time>2023-08-16T07:16:08Z</time>
      </trkpt>
      <trkpt lat="49.7718" lon="2.18691">
        <ele>93.3</ele>
        <time>2023-08-16T07:16:09Z</time>
      </trkpt>
      <trkpt lat="49.7718" lon="2.18694">
        <ele>93.3</ele>
        <time>2023-08-16T07:16:10Z</time>
      </trkpt>
      <trkpt lat="49.77179" lon="2.18696">
        <ele>93.4</ele>
        <time>2023-08-16T07:16:11Z</time>
      </trkpt>
      <trkpt lat="49.77179" lon="2.18697">
        <ele>93.4</ele>
        <time>2023-08-16T07:16:12Z</time>
      </trkpt>
      <trkpt lat="49.77179" lon="2.18699">
        <ele>93.4</ele>
        <time>2023-08-16T07:16:13Z</time>
      </trkpt>
      <trkpt lat="49.77178" lon="2.18701">
        <ele>93.4</ele>
        <time>2023-08-16T07:16:15Z</time>
      </trkpt>
      <trkpt lat="49.77178" lon="2.18703">
        <ele>93.5</ele>
        <time>2023-08-16T07:16:16Z</time>
      </trkpt>
      <trkpt lat="49.77178" lon="2.18705">
        <ele>93.5</ele>
        <time>2023-08-16T07:16:17Z</time>
      </trkpt>
      <trkpt lat="49.77178" lon="2.18706">
        <ele>93.5</ele>
        <time>2023-08-16T07:16:18Z</time>
      </trkpt>
      <trkpt lat="49.77178" lon="2.18709">
        <ele>93.6</ele>
        <time>2023-08-16T07:16:19Z</time>
      </trkpt>
      <trkpt lat="49.77177" lon="2.1871">
        <ele>93.6</ele>
        <time>2023-08-16T07:16:21Z</time>
      </trkpt>
      <trkpt lat="49.77177" lon="2.18712">
        <ele>93.6</ele>
        <time>2023-08-16T07:16:22Z</time>
      </trkpt>
      <trkpt lat="49.77177" lon="2.18713">
        <ele>93.6</ele>
        <time>2023-08-16T07:16:23Z</time>
      </trkpt>
      <trkpt lat="49.77177" lon="2.18715">
        <ele>93.6</ele>
        <time>2023-08-16T07:16:25Z</time>
      </trkpt>
      <trkpt lat="49.77177" lon="2.18717">
        <ele>93.6</ele>
        <time>2023-08-16T07:16:26Z</time>
      </trkpt>
      <trkpt lat="49.77176" lon="2.1872">
        <ele>93.7</ele>
        <time>2023-08-16T07:16:27Z</time>
      </trkpt>
      <trkpt lat="49.77176" lon="2.18721">
        <ele>93.7</ele>
        <time>2023-08-16T07:16:28Z</time>
      </trkpt>
      <trkpt lat="49.77175" lon="2.18722">
        <ele>93.7</ele>
        <time>2023-08-16T07:16:29Z</time>
      </trkpt>
      <trkpt lat="49.77175" lon="2.18724">
        <ele>93.7</ele>
        <time>2023-08-16T07:16:30Z</time>
      </trkpt>
      <trkpt lat="49.77174" lon="2.18725">
        <ele>93.8</ele>
        <time>2023-08-16T07:16:31Z</time>
      </trkpt>
      <trkpt lat="49.77174" lon="2.18727">
        <ele>93.8</ele>
        <time>2023-08-16T07:16:33Z</time>
      </trkpt>
      <trkpt lat="49.77173" lon="2.18729">
        <ele>93.8</ele>
        <time>2023-08-16T07:16:34Z</time>
      </trkpt>
      <trkpt lat="49.77173" lon="2.18732">
        <ele>93.8</ele>
        <time>2023-08-16T07:16:35Z</time>
      </trkpt>
      <trkpt lat="49.77172" lon="2.18734">
        <ele>93.9</ele>
        <time>2023-08-16T07:16:36Z</time>
      </trkpt>
      <trkpt lat="49.77172" lon="2.18736">
        <ele>93.9</ele>
        <time>2023-08-16T07:16:37Z</time>
      </trkpt>
      <trkpt lat="49.77171" lon="2.18738">
        <ele>93.9</ele>
        <time>2023-08-16T07:16:38Z</time>
      </trkpt>
      <trkpt lat="49.77171" lon="2.1874">
        <ele>94</ele>
        <time>2023-08-16T07:16:40Z</time>
      </trkpt>
      <trkpt lat="49.77171" lon="2.18742">
        <ele>94</ele>
        <time>2023-08-16T07:16:41Z</time>
      </trkpt>
      <trkpt lat="49.7717" lon="2.18744">
        <ele>94</ele>
        <time>2023-08-16T07:16:42Z</time>
      </trkpt>
      <trkpt lat="49.7717" lon="2.18746">
        <ele>94.1</ele>
        <time>2023-08-16T07:16:43Z</time>
      </trkpt>
      <trkpt lat="49.7717" lon="2.18748">
        <ele>94.1</ele>
        <time>2023-08-16T07:16:44Z</time>
      </trkpt>
      <trkpt lat="49.77169" lon="2.18751">
        <ele>94.1</ele>
        <time>2023-08-16T07:16:45Z</time>
      </trkpt>
      <trkpt lat="49.77169" lon="2.18753">
        <ele>94.1</ele>
        <time>2023-08-16T07:16:47Z</time>
      </trkpt>
      <trkpt lat="49.77168" lon="2.18754">
        <ele>94.1</ele>
        <time>2023-08-16T07:16:48Z</time>
      </trkpt>
      <trkpt lat="49.77168" lon="2.18757">
        <ele>94.2</ele>
        <time>2023-08-16T07:16:49Z</time>
      </trkpt>
      <trkpt lat="49.77167" lon="2.18758">
        <ele>94.2</ele>
        <time>2023-08-16T07:16:50Z</time>
      </trkpt>
      <trkpt lat="49.77167" lon="2.18759">
        <ele>94.2</ele>
        <time>2023-08-16T07:16:51Z</time>
      </trkpt>
      <trkpt lat="49.77167" lon="2.18761">
        <ele>94.2</ele>
        <time>2023-08-16T07:16:52Z</time>
      </trkpt>
      <trkpt lat="49.77166" lon="2.18763">
        <ele>94.2</ele>
        <time>2023-08-16T07:16:54Z</time>
      </trkpt>
      <trkpt lat="49.77166" lon="2.18764">
        <ele>94.2</ele>
        <time>2023-08-16T07:16:55Z</time>
      </trkpt>
      <trkpt lat="49.77165" lon="2.18768">
        <ele>94.3</ele>
        <time>2023-08-16T07:16:56Z</time>
      </trkpt>
      <trkpt lat="49.77165" lon="2.18769">
        <ele>94.3</ele>
        <time>2023-08-16T07:16:57Z</time>
      </trkpt>
      <trkpt lat="49.77165" lon="2.1877">
        <ele>94.3</ele>
        <time>2023-08-16T07:16:58Z</time>
      </trkpt>
      <trkpt lat="49.77164" lon="2.18773">
        <ele>94.3</ele>
        <time>2023-08-16T07:16:59Z</time>
      </trkpt>
      <trkpt lat="49.77164" lon="2.18774">
        <ele>94.3</ele>
        <time>2023-08-16T07:17:00Z</time>
      </trkpt>
      <trkpt lat="49.77163" lon="2.18776">
        <ele>94.3</ele>
        <time>2023-08-16T07:17:02Z</time>
      </trkpt>
      <trkpt lat="49.77163" lon="2.18777">
        <ele>94.3</ele>
        <time>2023-08-16T07:17:03Z</time>
      </trkpt>
      <trkpt lat="49.77163" lon="2.18779">
        <ele>94.3</ele>
        <time>2023-08-16T07:17:04Z</time>
      </trkpt>
      <trkpt lat="49.77162" lon="2.1878">
        <ele>94.3</ele>
        <time>2023-08-16T07:17:05Z</time>
      </trkpt>
      <trkpt lat="49.77162" lon="2.18783">
        <ele>94.4</ele>
        <time>2023-08-16T07:17:06Z</time>
      </trkpt>
      <trkpt lat="49.77161" lon="2.18785">
        <ele>94.4</ele>
        <time>2023-08-16T07:17:07Z</time>
      </trkpt>
      <trkpt lat="49.77161" lon="2.18786">
        <ele>94.4</ele>
        <time>2023-08-16T07:17:09Z</time>
      </trkpt>
      <trkpt lat="49.77161" lon="2.18788">
        <ele>94.4</ele>
        <time>2023-08-16T07:17:10Z</time>
      </trkpt>
      <trkpt lat="49.7716" lon="2.18789">
        <ele>94.4</ele>
        <time>2023-08-16T07:17:11Z</time>
      </trkpt>
      <trkpt lat="49.7716" lon="2.1879">
        <ele>94.4</ele>
        <time>2023-08-16T07:17:12Z</time>
      </trkpt>
      <trkpt lat="49.7716" lon="2.18792">
        <ele>94.4</ele>
        <time>2023-08-16T07:17:13Z</time>
      </trkpt>
      <trkpt lat="49.7716" lon="2.18793">
        <ele>94.4</ele>
        <time>2023-08-16T07:17:14Z</time>
      </trkpt>
      <trkpt lat="49.77159" lon="2.18795">
        <ele>94.4</ele>
        <time>2023-08-16T07:17:16Z</time>
      </trkpt>
      <trkpt lat="49.77159" lon="2.18796">
        <ele>94.5</ele>
        <time>2023-08-16T07:17:17Z</time>
      </trkpt>
      <trkpt lat="49.77159" lon="2.18798">
        <ele>94.5</ele>
        <time>2023-08-16T07:17:18Z</time>
      </trkpt>
      <trkpt lat="49.77158" lon="2.188">
        <ele>94.5</ele>
        <time>2023-08-16T07:17:19Z</time>
      </trkpt>
      <trkpt lat="49.77158" lon="2.18802">
        <ele>94.5</ele>
        <time>2023-08-16T07:17:20Z</time>
      </trkpt>
      <trkpt lat="49.77158" lon="2.18803">
        <ele>94.5</ele>
        <time>2023-08-16T07:17:21Z</time>
      </trkpt>
      <trkpt lat="49.77157" lon="2.18805">
        <ele>94.5</ele>
        <time>2023-08-16T07:17:22Z</time>
      </trkpt>
      <trkpt lat="49.77157" lon="2.18807">
        <ele>94.5</ele>
        <time>2023-08-16T07:17:24Z</time>
      </trkpt>
      <trkpt lat="49.77157" lon="2.18808">
        <ele>94.5</ele>
        <time>2023-08-16T07:17:25Z</time>
      </trkpt>
      <trkpt lat="49.77157" lon="2.1881">
        <ele>94.6</ele>
        <time>2023-08-16T07:17:26Z</time>
      </trkpt>
      <trkpt lat="49.77156" lon="2.18812">
        <ele>94.6</ele>
        <time>2023-08-16T07:17:27Z</time>
      </trkpt>
      <trkpt lat="49.77156" lon="2.18814">
        <ele>94.6</ele>
        <time>2023-08-16T07:17:28Z</time>
      </trkpt>
      <trkpt lat="49.77156" lon="2.18815">
        <ele>94.6</ele>
        <time>2023-08-16T07:17:29Z</time>
      </trkpt>
      <trkpt lat="49.77155" lon="2.18819">
        <ele>94.7</ele>
        <time>2023-08-16T07:17:31Z</time>
      </trkpt>
      <trkpt lat="49.77155" lon="2.1882">
        <ele>94.7</ele>
        <time>2023-08-16T07:17:32Z</time>
      </trkpt>
      <trkpt lat="49.77155" lon="2.18821">
        <ele>94.7</ele>
        <time>2023-08-16T07:17:33Z</time>
      </trkpt>
      <trkpt lat="49.77155" lon="2.18823">
        <ele>94.7</ele>
        <time>2023-08-16T07:17:34Z</time>
      </trkpt>
      <trkpt lat="49.77155" lon="2.18825">
        <ele>94.7</ele>
        <time>2023-08-16T07:17:35Z</time>
      </trkpt>
      <trkpt lat="49.77155" lon="2.18827">
        <ele>94.8</ele>
        <time>2023-08-16T07:17:36Z</time>
      </trkpt>
      <trkpt lat="49.77155" lon="2.18828">
        <ele>94.8</ele>
        <time>2023-08-16T07:17:37Z</time>
      </trkpt>
      <trkpt lat="49.77155" lon="2.1883">
        <ele>94.8</ele>
        <time>2023-08-16T07:17:39Z</time>
      </trkpt>
      <trkpt lat="49.77154" lon="2.18832">
        <ele>94.8</ele>
        <time>2023-08-16T07:17:40Z</time>
      </trkpt>
      <trkpt lat="49.77154" lon="2.18836">
        <ele>94.9</ele>
        <time>2023-08-16T07:17:41Z</time>
      </trkpt>
      <trkpt lat="49.77154" lon="2.18837">
        <ele>94.9</ele>
        <time>2023-08-16T07:17:42Z</time>
      </trkpt>
      <trkpt lat="49.77154" lon="2.18838">
        <ele>94.9</ele>
        <time>2023-08-16T07:17:43Z</time>
      </trkpt>
      <trkpt lat="49.77154" lon="2.18841">
        <ele>95</ele>
        <time>2023-08-16T07:17:44Z</time>
      </trkpt>
      <trkpt lat="49.77154" lon="2.18842">
        <ele>95</ele>
        <time>2023-08-16T07:17:46Z</time>
      </trkpt>
      <trkpt lat="49.77154" lon="2.18844">
        <ele>95</ele>
        <time>2023-08-16T07:17:47Z</time>
      </trkpt>
      <trkpt lat="49.77154" lon="2.18847">
        <ele>95.1</ele>
        <time>2023-08-16T07:17:48Z</time>
      </trkpt>
      <trkpt lat="49.77154" lon="2.18848">
        <ele>95.1</ele>
        <time>2023-08-16T07:17:49Z</time>
      </trkpt>
      <trkpt lat="49.77154" lon="2.1885">
        <ele>95.1</ele>
        <time>2023-08-16T07:17:50Z</time>
      </trkpt>
      <trkpt lat="49.77153" lon="2.18853">
        <ele>95.1</ele>
        <time>2023-08-16T07:17:51Z</time>
      </trkpt>
      <trkpt lat="49.77153" lon="2.18854">
        <ele>95.2</ele>
        <time>2023-08-16T07:17:53Z</time>
      </trkpt>
      <trkpt lat="49.77153" lon="2.18855">
        <ele>95.2</ele>
        <time>2023-08-16T07:17:54Z</time>
      </trkpt>
      <trkpt lat="49.77153" lon="2.18859">
        <ele>95.2</ele>
        <time>2023-08-16T07:17:55Z</time>
      </trkpt>
      <trkpt lat="49.77153" lon="2.1886">
        <ele>95.2</ele>
        <time>2023-08-16T07:17:56Z</time>
      </trkpt>
      <trkpt lat="49.77153" lon="2.18861">
        <ele>95.3</ele>
        <time>2023-08-16T07:17:57Z</time>
      </trkpt>
      <trkpt lat="49.77153" lon="2.18863">
        <ele>95.3</ele>
        <time>2023-08-16T07:17:58Z</time>
      </trkpt>
      <trkpt lat="49.77153" lon="2.18865">
        <ele>95.3</ele>
        <time>2023-08-16T07:17:59Z</time>
      </trkpt>
      <trkpt lat="49.77153" lon="2.18867">
        <ele>95.4</ele>
        <time>2023-08-16T07:18:01Z</time>
      </trkpt>
      <trkpt lat="49.77153" lon="2.1887">
        <ele>95.4</ele>
        <time>2023-08-16T07:18:02Z</time>
      </trkpt>
      <trkpt lat="49.77153" lon="2.18872">
        <ele>95.4</ele>
        <time>2023-08-16T07:18:03Z</time>
      </trkpt>
      <trkpt lat="49.77153" lon="2.18873">
        <ele>95.5</ele>
        <time>2023-08-16T07:18:04Z</time>
      </trkpt>
      <trkpt lat="49.77153" lon="2.18875">
        <ele>95.5</ele>
        <time>2023-08-16T07:18:05Z</time>
      </trkpt>
      <trkpt lat="49.77153" lon="2.18877">
        <ele>95.5</ele>
        <time>2023-08-16T07:18:06Z</time>
      </trkpt>
      <trkpt lat="49.77153" lon="2.18878">
        <ele>95.6</ele>
        <time>2023-08-16T07:18:07Z</time>
      </trkpt>
      <trkpt lat="49.77152" lon="2.18881">
        <ele>95.6</ele>
        <time>2023-08-16T07:18:09Z</time>
      </trkpt>
      <trkpt lat="49.77152" lon="2.18883">
        <ele>95.6</ele>
        <time>2023-08-16T07:18:10Z</time>
      </trkpt>
      <trkpt lat="49.77152" lon="2.18884">
        <ele>95.7</ele>
        <time>2023-08-16T07:18:11Z</time>
      </trkpt>
      <trkpt lat="49.77151" lon="2.18887">
        <ele>95.7</ele>
        <time>2023-08-16T07:18:12Z</time>
      </trkpt>
      <trkpt lat="49.77151" lon="2.18889">
        <ele>95.8</ele>
        <time>2023-08-16T07:18:13Z</time>
      </trkpt>
      <trkpt lat="49.77151" lon="2.1889">
        <ele>95.8</ele>
        <time>2023-08-16T07:18:14Z</time>
      </trkpt>
      <trkpt lat="49.77151" lon="2.18893">
        <ele>95.8</ele>
        <time>2023-08-16T07:18:15Z</time>
      </trkpt>
      <trkpt lat="49.77151" lon="2.18894">
        <ele>95.9</ele>
        <time>2023-08-16T07:18:17Z</time>
      </trkpt>
      <trkpt lat="49.77151" lon="2.18896">
        <ele>95.9</ele>
        <time>2023-08-16T07:18:18Z</time>
      </trkpt>
      <trkpt lat="49.7715" lon="2.18899">
        <ele>96</ele>
        <time>2023-08-16T07:18:19Z</time>
      </trkpt>
      <trkpt lat="49.7715" lon="2.189">
        <ele>96</ele>
        <time>2023-08-16T07:18:20Z</time>
      </trkpt>
      <trkpt lat="49.7715" lon="2.18902">
        <ele>96</ele>
        <time>2023-08-16T07:18:21Z</time>
      </trkpt>
      <trkpt lat="49.77149" lon="2.18905">
        <ele>96.1</ele>
        <time>2023-08-16T07:18:22Z</time>
      </trkpt>
      <trkpt lat="49.77149" lon="2.18906">
        <ele>96.1</ele>
        <time>2023-08-16T07:18:23Z</time>
      </trkpt>
      <trkpt lat="49.77149" lon="2.18908">
        <ele>96.1</ele>
        <time>2023-08-16T07:18:25Z</time>
      </trkpt>
      <trkpt lat="49.77149" lon="2.18909">
        <ele>96.2</ele>
        <time>2023-08-16T07:18:26Z</time>
      </trkpt>
      <trkpt lat="49.77149" lon="2.18911">
        <ele>96.2</ele>
        <time>2023-08-16T07:18:27Z</time>
      </trkpt>
      <trkpt lat="49.77148" lon="2.18912">
        <ele>96.2</ele>
        <time>2023-08-16T07:18:28Z</time>
      </trkpt>
      <trkpt lat="49.77148" lon="2.18916">
        <ele>96.3</ele>
        <time>2023-08-16T07:18:29Z</time>
      </trkpt>
      <trkpt lat="49.77148" lon="2.18917">
        <ele>96.3</ele>
        <time>2023-08-16T07:18:30Z</time>
      </trkpt>
      <trkpt lat="49.77148" lon="2.18919">
        <ele>96.3</ele>
        <time>2023-08-16T07:18:32Z</time>
      </trkpt>
      <trkpt lat="49.77148" lon="2.1892">
        <ele>96.4</ele>
        <time>2023-08-16T07:18:33Z</time>
      </trkpt>
      <trkpt lat="49.77148" lon="2.18922">
        <ele>96.4</ele>
        <time>2023-08-16T07:18:34Z</time>
      </trkpt>
      <trkpt lat="49.77148" lon="2.18923">
        <ele>96.4</ele>
        <time>2023-08-16T07:18:35Z</time>
      </trkpt>
      <trkpt lat="49.77148" lon="2.18927">
        <ele>96.5</ele>
        <time>2023-08-16T07:18:36Z</time>
      </trkpt>
      <trkpt lat="49.77148" lon="2.18928">
        <ele>96.5</ele>
        <time>2023-08-16T07:18:37Z</time>
      </trkpt>
      <trkpt lat="49.77148" lon="2.1893">
        <ele>96.6</ele>
        <time>2023-08-16T07:18:39Z</time>
      </trkpt>
      <trkpt lat="49.77148" lon="2.18932">
        <ele>96.6</ele>
        <time>2023-08-16T07:18:40Z</time>
      </trkpt>
      <trkpt lat="49.77148" lon="2.18933">
        <ele>96.6</ele>
        <time>2023-08-16T07:18:41Z</time>
      </trkpt>
      <trkpt lat="49.77148" lon="2.18935">
        <ele>96.7</ele>
        <time>2023-08-16T07:18:42Z</time>
      </trkpt>
      <trkpt lat="49.77148" lon="2.18937">
        <ele>96.7</ele>
        <time>2023-08-16T07:18:43Z</time>
      </trkpt>
      <trkpt lat="49.77148" lon="2.18938">
        <ele>96.8</ele>
        <time>2023-08-16T07:18:44Z</time>
      </trkpt>
      <trkpt lat="49.77148" lon="2.1894">
        <ele>96.8</ele>
        <time>2023-08-16T07:18:45Z</time>
      </trkpt>
      <trkpt lat="49.77148" lon="2.18942">
        <ele>96.8</ele>
        <time>2023-08-16T07:18:47Z</time>
      </trkpt>
      <trkpt lat="49.77148" lon="2.18943">
        <ele>96.9</ele>
        <time>2023-08-16T07:18:48Z</time>
      </trkpt>
      <trkpt lat="49.77148" lon="2.18945">
        <ele>96.9</ele>
        <time>2023-08-16T07:18:49Z</time>
      </trkpt>
      <trkpt lat="49.77148" lon="2.18947">
        <ele>96.9</ele>
        <time>2023-08-16T07:18:50Z</time>
      </trkpt>
      <trkpt lat="49.77148" lon="2.18949">
        <ele>97</ele>
        <time>2023-08-16T07:18:51Z</time>
      </trkpt>
      <trkpt lat="49.77148" lon="2.1895">
        <ele>97</ele>
        <time>2023-08-16T07:18:52Z</time>
      </trkpt>
      <trkpt lat="49.77148" lon="2.18953">
        <ele>97.1</ele>
        <time>2023-08-16T07:18:53Z</time>
      </trkpt>
      <trkpt lat="49.77148" lon="2.18955">
        <ele>97.1</ele>
        <time>2023-08-16T07:18:55Z</time>
      </trkpt>
      <trkpt lat="49.77148" lon="2.18956">
        <ele>97.1</ele>
        <time>2023-08-16T07:18:56Z</time>
      </trkpt>
      <trkpt lat="49.77148" lon="2.18958">
        <ele>97.2</ele>
        <time>2023-08-16T07:18:57Z</time>
      </trkpt>
      <trkpt lat="49.77148" lon="2.1896">
        <ele>97.2</ele>
        <time>2023-08-16T07:18:58Z</time>
      </trkpt>
      <trkpt lat="49.77148" lon="2.18964">
        <ele>97.3</ele>
        <time>2023-08-16T07:18:59Z</time>
      </trkpt>
      <trkpt lat="49.77148" lon="2.18965">
        <ele>97.3</ele>
        <time>2023-08-16T07:19:00Z</time>
      </trkpt>
      <trkpt lat="49.77149" lon="2.18966">
        <ele>97.4</ele>
        <time>2023-08-16T07:19:01Z</time>
      </trkpt>
      <trkpt lat="49.77149" lon="2.1897">
        <ele>97.4</ele>
        <time>2023-08-16T07:19:03Z</time>
      </trkpt>
      <trkpt lat="49.77149" lon="2.18971">
        <ele>97.4</ele>
        <time>2023-08-16T07:19:04Z</time>
      </trkpt>
      <trkpt lat="49.77149" lon="2.18972">
        <ele>97.5</ele>
        <time>2023-08-16T07:19:05Z</time>
      </trkpt>
      <trkpt lat="49.77149" lon="2.18976">
        <ele>97.5</ele>
        <time>2023-08-16T07:19:06Z</time>
      </trkpt>
      <trkpt lat="49.77149" lon="2.18977">
        <ele>97.5</ele>
        <time>2023-08-16T07:19:07Z</time>
      </trkpt>
      <trkpt lat="49.77149" lon="2.18978">
        <ele>97.5</ele>
        <time>2023-08-16T07:19:08Z</time>
      </trkpt>
      <trkpt lat="49.77149" lon="2.18981">
        <ele>97.6</ele>
        <time>2023-08-16T07:19:09Z</time>
      </trkpt>
      <trkpt lat="49.77149" lon="2.18983">
        <ele>97.6</ele>
        <time>2023-08-16T07:19:11Z</time>
      </trkpt>
      <trkpt lat="49.77149" lon="2.18984">
        <ele>97.6</ele>
        <time>2023-08-16T07:19:12Z</time>
      </trkpt>
      <trkpt lat="49.77149" lon="2.18986">
        <ele>97.6</ele>
        <time>2023-08-16T07:19:13Z</time>
      </trkpt>
      <trkpt lat="49.77149" lon="2.18988">
        <ele>97.7</ele>
        <time>2023-08-16T07:19:14Z</time>
      </trkpt>
      <trkpt lat="49.77149" lon="2.18989">
        <ele>97.7</ele>
        <time>2023-08-16T07:19:15Z</time>
      </trkpt>
      <trkpt lat="49.77149" lon="2.18991">
        <ele>97.7</ele>
        <time>2023-08-16T07:19:17Z</time>
      </trkpt>
      <trkpt lat="49.77149" lon="2.18993">
        <ele>97.7</ele>
        <time>2023-08-16T07:19:18Z</time>
      </trkpt>
      <trkpt lat="49.77149" lon="2.18995">
        <ele>97.7</ele>
        <time>2023-08-16T07:19:19Z</time>
      </trkpt>
      <trkpt lat="49.7715" lon="2.18998">
        <ele>97.8</ele>
        <time>2023-08-16T07:19:20Z</time>
      </trkpt>
      <trkpt lat="49.7715" lon="2.18999">
        <ele>97.8</ele>
        <time>2023-08-16T07:19:21Z</time>
      </trkpt>
      <trkpt lat="49.7715" lon="2.19">
        <ele>97.8</ele>
        <time>2023-08-16T07:19:22Z</time>
      </trkpt>
      <trkpt lat="49.7715" lon="2.19002">
        <ele>97.8</ele>
        <time>2023-08-16T07:19:23Z</time>
      </trkpt>
      <trkpt lat="49.7715" lon="2.19004">
        <ele>97.9</ele>
        <time>2023-08-16T07:19:25Z</time>
      </trkpt>
      <trkpt lat="49.7715" lon="2.19006">
        <ele>97.9</ele>
        <time>2023-08-16T07:19:26Z</time>
      </trkpt>
      <trkpt lat="49.7715" lon="2.19009">
        <ele>97.9</ele>
        <time>2023-08-16T07:19:27Z</time>
      </trkpt>
      <trkpt lat="49.7715" lon="2.1901">
        <ele>97.9</ele>
        <time>2023-08-16T07:19:28Z</time>
      </trkpt>
      <trkpt lat="49.7715" lon="2.19011">
        <ele>97.9</ele>
        <time>2023-08-16T07:19:29Z</time>
      </trkpt>
      <trkpt lat="49.7715" lon="2.19013">
        <ele>98</ele>
        <time>2023-08-16T07:19:30Z</time>
      </trkpt>
      <trkpt lat="49.77151" lon="2.19015">
        <ele>98</ele>
        <time>2023-08-16T07:19:31Z</time>
      </trkpt>
      <trkpt lat="49.77151" lon="2.19017">
        <ele>98</ele>
        <time>2023-08-16T07:19:33Z</time>
      </trkpt>
      <trkpt lat="49.77151" lon="2.19019">
        <ele>98</ele>
        <time>2023-08-16T07:19:34Z</time>
      </trkpt>
      <trkpt lat="49.77151" lon="2.19021">
        <ele>98.1</ele>
        <time>2023-08-16T07:19:35Z</time>
      </trkpt>
      <trkpt lat="49.77151" lon="2.19024">
        <ele>98.1</ele>
        <time>2023-08-16T07:19:36Z</time>
      </trkpt>
      <trkpt lat="49.77151" lon="2.19026">
        <ele>98.1</ele>
        <time>2023-08-16T07:19:37Z</time>
      </trkpt>
      <trkpt lat="49.77151" lon="2.19027">
        <ele>98.1</ele>
        <time>2023-08-16T07:19:38Z</time>
      </trkpt>
      <trkpt lat="49.77151" lon="2.19029">
        <ele>98.2</ele>
        <time>2023-08-16T07:19:39Z</time>
      </trkpt>
      <trkpt lat="49.77151" lon="2.19031">
        <ele>98.2</ele>
        <time>2023-08-16T07:19:41Z</time>
      </trkpt>
      <trkpt lat="49.77151" lon="2.19033">
        <ele>98.2</ele>
        <time>2023-08-16T07:19:42Z</time>
      </trkpt>
      <trkpt lat="49.77151" lon="2.19036">
        <ele>98.3</ele>
        <time>2023-08-16T07:19:43Z</time>
      </trkpt>
      <trkpt lat="49.77151" lon="2.19037">
        <ele>98.3</ele>
        <time>2023-08-16T07:19:44Z</time>
      </trkpt>
      <trkpt lat="49.77151" lon="2.19038">
        <ele>98.3</ele>
        <time>2023-08-16T07:19:45Z</time>
      </trkpt>
      <trkpt lat="49.77151" lon="2.19041">
        <ele>98.4</ele>
        <time>2023-08-16T07:19:46Z</time>
      </trkpt>
      <trkpt lat="49.77151" lon="2.19043">
        <ele>98.4</ele>
        <time>2023-08-16T07:19:47Z</time>
      </trkpt>
      <trkpt lat="49.77151" lon="2.19044">
        <ele>98.4</ele>
        <time>2023-08-16T07:19:49Z</time>
      </trkpt>
      <trkpt lat="49.77151" lon="2.19046">
        <ele>98.4</ele>
        <time>2023-08-16T07:19:50Z</time>
      </trkpt>
      <trkpt lat="49.77151" lon="2.19048">
        <ele>98.5</ele>
        <time>2023-08-16T07:19:51Z</time>
      </trkpt>
      <trkpt lat="49.77151" lon="2.19049">
        <ele>98.5</ele>
        <time>2023-08-16T07:19:52Z</time>
      </trkpt>
      <trkpt lat="49.77151" lon="2.19051">
        <ele>98.5</ele>
        <time>2023-08-16T07:19:53Z</time>
      </trkpt>
      <trkpt lat="49.77151" lon="2.19053">
        <ele>98.5</ele>
        <time>2023-08-16T07:19:54Z</time>
      </trkpt>
      <trkpt lat="49.77151" lon="2.19054">
        <ele>98.6</ele>
        <time>2023-08-16T07:19:55Z</time>
      </trkpt>
      <trkpt lat="49.77151" lon="2.19056">
        <ele>98.6</ele>
        <time>2023-08-16T07:19:57Z</time>
      </trkpt>
      <trkpt lat="49.77151" lon="2.19058">
        <ele>98.6</ele>
        <time>2023-08-16T07:19:58Z</time>
      </trkpt>
      <trkpt lat="49.77151" lon="2.19059">
        <ele>98.6</ele>
        <time>2023-08-16T07:19:59Z</time>
      </trkpt>
      <trkpt lat="49.77151" lon="2.19063">
        <ele>98.7</ele>
        <time>2023-08-16T07:20:00Z</time>
      </trkpt>
      <trkpt lat="49.77151" lon="2.19064">
        <ele>98.7</ele>
        <time>2023-08-16T07:20:01Z</time>
      </trkpt>
      <trkpt lat="49.7715" lon="2.19065">
        <ele>98.7</ele>
        <time>2023-08-16T07:20:02Z</time>
      </trkpt>
      <trkpt lat="49.7715" lon="2.19068">
        <ele>98.8</ele>
        <time>2023-08-16T07:20:03Z</time>
      </trkpt>
      <trkpt lat="49.7715" lon="2.1907">
        <ele>98.8</ele>
        <time>2023-08-16T07:20:04Z</time>
      </trkpt>
      <trkpt lat="49.7715" lon="2.19071">
        <ele>98.8</ele>
        <time>2023-08-16T07:20:06Z</time>
      </trkpt>
      <trkpt lat="49.7715" lon="2.19073">
        <ele>98.8</ele>
        <time>2023-08-16T07:20:07Z</time>
      </trkpt>
      <trkpt lat="49.7715" lon="2.19075">
        <ele>98.9</ele>
        <time>2023-08-16T07:20:08Z</time>
      </trkpt>
      <trkpt lat="49.7715" lon="2.19076">
        <ele>98.9</ele>
        <time>2023-08-16T07:20:09Z</time>
      </trkpt>
      <trkpt lat="49.77149" lon="2.19078">
        <ele>98.9</ele>
        <time>2023-08-16T07:20:10Z</time>
      </trkpt>
      <trkpt lat="49.77149" lon="2.1908">
        <ele>99</ele>
        <time>2023-08-16T07:20:11Z</time>
      </trkpt>
      <trkpt lat="49.77148" lon="2.19083">
        <ele>99</ele>
        <time>2023-08-16T07:20:12Z</time>
      </trkpt>
      <trkpt lat="49.77148" lon="2.19084">
        <ele>99</ele>
        <time>2023-08-16T07:20:14Z</time>
      </trkpt>
      <trkpt lat="49.77148" lon="2.19086">
        <ele>99.1</ele>
        <time>2023-08-16T07:20:15Z</time>
      </trkpt>
      <trkpt lat="49.77147" lon="2.19088">
        <ele>99.1</ele>
        <time>2023-08-16T07:20:16Z</time>
      </trkpt>
      <trkpt lat="49.77146" lon="2.1909">
        <ele>99.1</ele>
        <time>2023-08-16T07:20:17Z</time>
      </trkpt>
      <trkpt lat="49.77146" lon="2.19091">
        <ele>99.2</ele>
        <time>2023-08-16T07:20:18Z</time>
      </trkpt>
      <trkpt lat="49.77145" lon="2.19093">
        <ele>99.2</ele>
        <time>2023-08-16T07:20:19Z</time>
      </trkpt>
      <trkpt lat="49.77144" lon="2.19096">
        <ele>99.3</ele>
        <time>2023-08-16T07:20:20Z</time>
      </trkpt>
      <trkpt lat="49.77144" lon="2.19097">
        <ele>99.3</ele>
        <time>2023-08-16T07:20:22Z</time>
      </trkpt>
      <trkpt lat="49.77143" lon="2.19098">
        <ele>99.3</ele>
        <time>2023-08-16T07:20:23Z</time>
      </trkpt>
      <trkpt lat="49.77142" lon="2.19102">
        <ele>99.4</ele>
        <time>2023-08-16T07:20:24Z</time>
      </trkpt>
      <trkpt lat="49.77142" lon="2.19103">
        <ele>99.4</ele>
        <time>2023-08-16T07:20:25Z</time>
      </trkpt>
      <trkpt lat="49.77142" lon="2.19104">
        <ele>99.4</ele>
        <time>2023-08-16T07:20:26Z</time>
      </trkpt>
      <trkpt lat="49.77141" lon="2.19107">
        <ele>99.5</ele>
        <time>2023-08-16T07:20:27Z</time>
      </trkpt>
      <trkpt lat="49.77141" lon="2.19109">
        <ele>99.5</ele>
        <time>2023-08-16T07:20:28Z</time>
      </trkpt>
      <trkpt lat="49.7714" lon="2.1911">
        <ele>99.5</ele>
        <time>2023-08-16T07:20:29Z</time>
      </trkpt>
      <trkpt lat="49.7714" lon="2.19112">
        <ele>99.6</ele>
        <time>2023-08-16T07:20:31Z</time>
      </trkpt>
      <trkpt lat="49.77139" lon="2.19114">
        <ele>99.6</ele>
        <time>2023-08-16T07:20:32Z</time>
      </trkpt>
      <trkpt lat="49.77138" lon="2.19116">
        <ele>99.7</ele>
        <time>2023-08-16T07:20:33Z</time>
      </trkpt>
      <trkpt lat="49.77138" lon="2.19118">
        <ele>99.7</ele>
        <time>2023-08-16T07:20:34Z</time>
      </trkpt>
      <trkpt lat="49.77137" lon="2.19121">
        <ele>99.8</ele>
        <time>2023-08-16T07:20:35Z</time>
      </trkpt>
      <trkpt lat="49.77136" lon="2.19122">
        <ele>99.8</ele>
        <time>2023-08-16T07:20:36Z</time>
      </trkpt>
      <trkpt lat="49.77136" lon="2.19123">
        <ele>99.8</ele>
        <time>2023-08-16T07:20:37Z</time>
      </trkpt>
      <trkpt lat="49.77135" lon="2.19125">
        <ele>99.9</ele>
        <time>2023-08-16T07:20:39Z</time>
      </trkpt>
      <trkpt lat="49.77134" lon="2.19127">
        <ele>99.9</ele>
        <time>2023-08-16T07:20:40Z</time>
      </trkpt>
      <trkpt lat="49.77134" lon="2.19129">
        <ele>99.9</ele>
        <time>2023-08-16T07:20:41Z</time>
      </trkpt>
      <trkpt lat="49.77133" lon="2.19131">
        <ele>100</ele>
        <time>2023-08-16T07:20:42Z</time>
      </trkpt>
      <trkpt lat="49.77132" lon="2.19133">
        <ele>100</ele>
        <time>2023-08-16T07:20:43Z</time>
      </trkpt>
      <trkpt lat="49.77131" lon="2.19135">
        <ele>100.1</ele>
        <time>2023-08-16T07:20:44Z</time>
      </trkpt>
      <trkpt lat="49.7713" lon="2.19138">
        <ele>100.1</ele>
        <time>2023-08-16T07:20:45Z</time>
      </trkpt>
      <trkpt lat="49.7713" lon="2.19139">
        <ele>100.2</ele>
        <time>2023-08-16T07:20:47Z</time>
      </trkpt>
      <trkpt lat="49.77129" lon="2.1914">
        <ele>100.2</ele>
        <time>2023-08-16T07:20:48Z</time>
      </trkpt>
      <trkpt lat="49.77128" lon="2.19143">
        <ele>100.3</ele>
        <time>2023-08-16T07:20:49Z</time>
      </trkpt>
      <trkpt lat="49.77128" lon="2.19144">
        <ele>100.3</ele>
        <time>2023-08-16T07:20:50Z</time>
      </trkpt>
      <trkpt lat="49.77128" lon="2.19145">
        <ele>100.3</ele>
        <time>2023-08-16T07:20:51Z</time>
      </trkpt>
      <trkpt lat="49.77127" lon="2.19147">
        <ele>100.4</ele>
        <time>2023-08-16T07:20:52Z</time>
      </trkpt>
      <trkpt lat="49.77127" lon="2.19148">
        <ele>100.4</ele>
        <time>2023-08-16T07:20:53Z</time>
      </trkpt>
      <trkpt lat="49.77126" lon="2.1915">
        <ele>100.4</ele>
        <time>2023-08-16T07:20:55Z</time>
      </trkpt>
      <trkpt lat="49.77125" lon="2.19152">
        <ele>100.5</ele>
        <time>2023-08-16T07:20:56Z</time>
      </trkpt>
      <trkpt lat="49.77125" lon="2.19153">
        <ele>100.5</ele>
        <time>2023-08-16T07:20:57Z</time>
      </trkpt>
      <trkpt lat="49.77124" lon="2.19155">
        <ele>100.6</ele>
        <time>2023-08-16T07:20:58Z</time>
      </trkpt>
      <trkpt lat="49.77124" lon="2.19156">
        <ele>100.6</ele>
        <time>2023-08-16T07:20:59Z</time>
      </trkpt>
      <trkpt lat="49.77123" lon="2.19158">
        <ele>100.6</ele>
        <time>2023-08-16T07:21:00Z</time>
      </trkpt>
      <trkpt lat="49.77123" lon="2.1916">
        <ele>100.7</ele>
        <time>2023-08-16T07:21:01Z</time>
      </trkpt>
      <trkpt lat="49.77122" lon="2.19163">
        <ele>100.7</ele>
        <time>2023-08-16T07:21:03Z</time>
      </trkpt>
      <trkpt lat="49.77122" lon="2.19164">
        <ele>100.8</ele>
        <time>2023-08-16T07:21:04Z</time>
      </trkpt>
      <trkpt lat="49.77121" lon="2.19165">
        <ele>100.8</ele>
        <time>2023-08-16T07:21:05Z</time>
      </trkpt>
      <trkpt lat="49.77121" lon="2.19168">
        <ele>100.9</ele>
        <time>2023-08-16T07:21:06Z</time>
      </trkpt>
      <trkpt lat="49.7712" lon="2.19169">
        <ele>100.9</ele>
        <time>2023-08-16T07:21:07Z</time>
      </trkpt>
      <trkpt lat="49.7712" lon="2.1917">
        <ele>100.9</ele>
        <time>2023-08-16T07:21:08Z</time>
      </trkpt>
      <trkpt lat="49.77119" lon="2.19172">
        <ele>101</ele>
        <time>2023-08-16T07:21:09Z</time>
      </trkpt>
      <trkpt lat="49.77119" lon="2.19173">
        <ele>101</ele>
        <time>2023-08-16T07:21:11Z</time>
      </trkpt>
      <trkpt lat="49.77118" lon="2.19175">
        <ele>101</ele>
        <time>2023-08-16T07:21:12Z</time>
      </trkpt>
      <trkpt lat="49.77118" lon="2.19177">
        <ele>101.1</ele>
        <time>2023-08-16T07:21:13Z</time>
      </trkpt>
      <trkpt lat="49.77117" lon="2.19179">
        <ele>101.1</ele>
        <time>2023-08-16T07:21:14Z</time>
      </trkpt>
      <trkpt lat="49.77116" lon="2.19181">
        <ele>101.1</ele>
        <time>2023-08-16T07:21:15Z</time>
      </trkpt>
      <trkpt lat="49.77116" lon="2.19183">
        <ele>101.2</ele>
        <time>2023-08-16T07:21:16Z</time>
      </trkpt>
      <trkpt lat="49.77115" lon="2.19184">
        <ele>101.2</ele>
        <time>2023-08-16T07:21:17Z</time>
      </trkpt>
      <trkpt lat="49.77115" lon="2.19186">
        <ele>101.2</ele>
        <time>2023-08-16T07:21:18Z</time>
      </trkpt>
      <trkpt lat="49.77115" lon="2.19188">
        <ele>101.3</ele>
        <time>2023-08-16T07:21:20Z</time>
      </trkpt>
      <trkpt lat="49.77114" lon="2.1919">
        <ele>101.3</ele>
        <time>2023-08-16T07:21:21Z</time>
      </trkpt>
      <trkpt lat="49.77113" lon="2.19192">
        <ele>101.3</ele>
        <time>2023-08-16T07:21:22Z</time>
      </trkpt>
      <trkpt lat="49.77112" lon="2.19193">
        <ele>101.3</ele>
        <time>2023-08-16T07:21:23Z</time>
      </trkpt>
      <trkpt lat="49.77112" lon="2.19195">
        <ele>101.4</ele>
        <time>2023-08-16T07:21:24Z</time>
      </trkpt>
      <trkpt lat="49.77111" lon="2.19197">
        <ele>101.4</ele>
        <time>2023-08-16T07:21:25Z</time>
      </trkpt>
      <trkpt lat="49.7711" lon="2.19198">
        <ele>101.4</ele>
        <time>2023-08-16T07:21:26Z</time>
      </trkpt>
      <trkpt lat="49.7711" lon="2.19199">
        <ele>101.4</ele>
        <time>2023-08-16T07:21:28Z</time>
      </trkpt>
      <trkpt lat="49.77109" lon="2.19201">
        <ele>101.5</ele>
        <time>2023-08-16T07:21:29Z</time>
      </trkpt>
      <trkpt lat="49.77108" lon="2.19202">
        <ele>101.5</ele>
        <time>2023-08-16T07:21:30Z</time>
      </trkpt>
      <trkpt lat="49.77108" lon="2.19204">
        <ele>101.5</ele>
        <time>2023-08-16T07:21:31Z</time>
      </trkpt>
      <trkpt lat="49.77107" lon="2.19205">
        <ele>101.5</ele>
        <time>2023-08-16T07:21:32Z</time>
      </trkpt>
      <trkpt lat="49.77107" lon="2.19207">
        <ele>101.6</ele>
        <time>2023-08-16T07:21:33Z</time>
      </trkpt>
      <trkpt lat="49.77106" lon="2.19208">
        <ele>101.6</ele>
        <time>2023-08-16T07:21:34Z</time>
      </trkpt>
      <trkpt lat="49.77105" lon="2.1921">
        <ele>101.6</ele>
        <time>2023-08-16T07:21:35Z</time>
      </trkpt>
      <trkpt lat="49.77105" lon="2.19211">
        <ele>101.7</ele>
        <time>2023-08-16T07:21:37Z</time>
      </trkpt>
      <trkpt lat="49.77104" lon="2.19213">
        <ele>101.7</ele>
        <time>2023-08-16T07:21:38Z</time>
      </trkpt>
      <trkpt lat="49.77103" lon="2.19216">
        <ele>101.7</ele>
        <time>2023-08-16T07:21:39Z</time>
      </trkpt>
      <trkpt lat="49.77103" lon="2.19217">
        <ele>101.8</ele>
        <time>2023-08-16T07:21:40Z</time>
      </trkpt>
      <trkpt lat="49.77103" lon="2.19218">
        <ele>101.8</ele>
        <time>2023-08-16T07:21:41Z</time>
      </trkpt>
      <trkpt lat="49.77102" lon="2.19219">
        <ele>101.8</ele>
        <time>2023-08-16T07:21:42Z</time>
      </trkpt>
      <trkpt lat="49.77102" lon="2.19221">
        <ele>101.8</ele>
        <time>2023-08-16T07:21:44Z</time>
      </trkpt>
      <trkpt lat="49.77101" lon="2.19222">
        <ele>101.9</ele>
        <time>2023-08-16T07:21:45Z</time>
      </trkpt>
      <trkpt lat="49.77101" lon="2.19224">
        <ele>101.9</ele>
        <time>2023-08-16T07:21:46Z</time>
      </trkpt>
      <trkpt lat="49.771" lon="2.19225">
        <ele>101.9</ele>
        <time>2023-08-16T07:21:47Z</time>
      </trkpt>
      <trkpt lat="49.771" lon="2.19227">
        <ele>101.9</ele>
        <time>2023-08-16T07:21:48Z</time>
      </trkpt>
      <trkpt lat="49.77099" lon="2.1923">
        <ele>102</ele>
        <time>2023-08-16T07:21:49Z</time>
      </trkpt>
      <trkpt lat="49.77098" lon="2.19231">
        <ele>102</ele>
        <time>2023-08-16T07:21:50Z</time>
      </trkpt>
      <trkpt lat="49.77098" lon="2.19232">
        <ele>102</ele>
        <time>2023-08-16T07:21:52Z</time>
      </trkpt>
      <trkpt lat="49.77097" lon="2.19234">
        <ele>102.1</ele>
        <time>2023-08-16T07:21:53Z</time>
      </trkpt>
      <trkpt lat="49.77097" lon="2.19235">
        <ele>102.1</ele>
        <time>2023-08-16T07:21:54Z</time>
      </trkpt>
      <trkpt lat="49.77096" lon="2.19236">
        <ele>102.1</ele>
        <time>2023-08-16T07:21:55Z</time>
      </trkpt>
      <trkpt lat="49.77095" lon="2.19239">
        <ele>102.1</ele>
        <time>2023-08-16T07:21:56Z</time>
      </trkpt>
      <trkpt lat="49.77095" lon="2.1924">
        <ele>102.1</ele>
        <time>2023-08-16T07:21:57Z</time>
      </trkpt>
      <trkpt lat="49.77094" lon="2.19241">
        <ele>102.2</ele>
        <time>2023-08-16T07:21:58Z</time>
      </trkpt>
      <trkpt lat="49.77093" lon="2.19243">
        <ele>102.2</ele>
        <time>2023-08-16T07:21:59Z</time>
      </trkpt>
      <trkpt lat="49.77092" lon="2.19244">
        <ele>102.2</ele>
        <time>2023-08-16T07:22:01Z</time>
      </trkpt>
      <trkpt lat="49.77092" lon="2.19245">
        <ele>102.2</ele>
        <time>2023-08-16T07:22:02Z</time>
      </trkpt>
      <trkpt lat="49.77091" lon="2.19247">
        <ele>102.2</ele>
        <time>2023-08-16T07:22:03Z</time>
      </trkpt>
      <trkpt lat="49.7709" lon="2.19249">
        <ele>102.3</ele>
        <time>2023-08-16T07:22:04Z</time>
      </trkpt>
      <trkpt lat="49.77089" lon="2.19251">
        <ele>102.3</ele>
        <time>2023-08-16T07:22:05Z</time>
      </trkpt>
      <trkpt lat="49.77088" lon="2.19252">
        <ele>102.3</ele>
        <time>2023-08-16T07:22:06Z</time>
      </trkpt>
      <trkpt lat="49.77087" lon="2.19253">
        <ele>102.3</ele>
        <time>2023-08-16T07:22:07Z</time>
      </trkpt>
      <trkpt lat="49.77086" lon="2.19255">
        <ele>102.4</ele>
        <time>2023-08-16T07:22:08Z</time>
      </trkpt>
      <trkpt lat="49.77086" lon="2.19256">
        <ele>102.4</ele>
        <time>2023-08-16T07:22:10Z</time>
      </trkpt>
      <trkpt lat="49.77085" lon="2.19257">
        <ele>102.4</ele>
        <time>2023-08-16T07:22:11Z</time>
      </trkpt>
      <trkpt lat="49.77084" lon="2.19259">
        <ele>102.4</ele>
        <time>2023-08-16T07:22:12Z</time>
      </trkpt>
      <trkpt lat="49.77083" lon="2.19261">
        <ele>102.4</ele>
        <time>2023-08-16T07:22:13Z</time>
      </trkpt>
      <trkpt lat="49.77083" lon="2.19262">
        <ele>102.5</ele>
        <time>2023-08-16T07:22:14Z</time>
      </trkpt>
      <trkpt lat="49.77082" lon="2.19264">
        <ele>102.5</ele>
        <time>2023-08-16T07:22:15Z</time>
      </trkpt>
      <trkpt lat="49.77081" lon="2.19265">
        <ele>102.5</ele>
        <time>2023-08-16T07:22:16Z</time>
      </trkpt>
      <trkpt lat="49.7708" lon="2.19266">
        <ele>102.5</ele>
        <time>2023-08-16T07:22:18Z</time>
      </trkpt>
      <trkpt lat="49.7708" lon="2.19268">
        <ele>102.6</ele>
        <time>2023-08-16T07:22:19Z</time>
      </trkpt>
      <trkpt lat="49.77078" lon="2.19271">
        <ele>102.6</ele>
        <time>2023-08-16T07:22:20Z</time>
      </trkpt>
      <trkpt lat="49.77078" lon="2.19272">
        <ele>102.6</ele>
        <time>2023-08-16T07:22:21Z</time>
      </trkpt>
      <trkpt lat="49.77077" lon="2.19273">
        <ele>102.6</ele>
        <time>2023-08-16T07:22:22Z</time>
      </trkpt>
      <trkpt lat="49.77077" lon="2.19275">
        <ele>102.7</ele>
        <time>2023-08-16T07:22:23Z</time>
      </trkpt>
      <trkpt lat="49.77076" lon="2.19276">
        <ele>102.7</ele>
        <time>2023-08-16T07:22:24Z</time>
      </trkpt>
      <trkpt lat="49.77076" lon="2.19277">
        <ele>102.7</ele>
        <time>2023-08-16T07:22:25Z</time>
      </trkpt>
      <trkpt lat="49.77074" lon="2.1928">
        <ele>102.7</ele>
        <time>2023-08-16T07:22:27Z</time>
      </trkpt>
      <trkpt lat="49.77074" lon="2.19281">
        <ele>102.8</ele>
        <time>2023-08-16T07:22:28Z</time>
      </trkpt>
      <trkpt lat="49.77073" lon="2.19282">
        <ele>102.8</ele>
        <time>2023-08-16T07:22:29Z</time>
      </trkpt>
      <trkpt lat="49.77072" lon="2.19284">
        <ele>102.8</ele>
        <time>2023-08-16T07:22:30Z</time>
      </trkpt>
      <trkpt lat="49.77072" lon="2.19285">
        <ele>102.8</ele>
        <time>2023-08-16T07:22:31Z</time>
      </trkpt>
      <trkpt lat="49.77071" lon="2.19287">
        <ele>102.8</ele>
        <time>2023-08-16T07:22:33Z</time>
      </trkpt>
      <trkpt lat="49.7707" lon="2.19289">
        <ele>102.8</ele>
        <time>2023-08-16T07:22:34Z</time>
      </trkpt>
      <trkpt lat="49.7707" lon="2.1929">
        <ele>102.8</ele>
        <time>2023-08-16T07:22:35Z</time>
      </trkpt>
      <trkpt lat="49.77069" lon="2.19292">
        <ele>102.8</ele>
        <time>2023-08-16T07:22:36Z</time>
      </trkpt>
      <trkpt lat="49.77068" lon="2.19294">
        <ele>102.9</ele>
        <time>2023-08-16T07:22:37Z</time>
      </trkpt>
      <trkpt lat="49.77067" lon="2.19296">
        <ele>102.9</ele>
        <time>2023-08-16T07:22:38Z</time>
      </trkpt>
      <trkpt lat="49.77067" lon="2.19297">
        <ele>102.9</ele>
        <time>2023-08-16T07:22:40Z</time>
      </trkpt>
      <trkpt lat="49.77066" lon="2.19298">
        <ele>102.9</ele>
        <time>2023-08-16T07:22:41Z</time>
      </trkpt>
      <trkpt lat="49.77066" lon="2.19299">
        <ele>102.9</ele>
        <time>2023-08-16T07:22:42Z</time>
      </trkpt>
      <trkpt lat="49.77065" lon="2.19301">
        <ele>102.9</ele>
        <time>2023-08-16T07:22:43Z</time>
      </trkpt>
      <trkpt lat="49.77065" lon="2.19302">
        <ele>102.9</ele>
        <time>2023-08-16T07:22:44Z</time>
      </trkpt>
      <trkpt lat="49.77065" lon="2.19304">
        <ele>102.9</ele>
        <time>2023-08-16T07:22:46Z</time>
      </trkpt>
      <trkpt lat="49.77064" lon="2.19306">
        <ele>102.9</ele>
        <time>2023-08-16T07:22:47Z</time>
      </trkpt>
      <trkpt lat="49.77064" lon="2.19307">
        <ele>102.9</ele>
        <time>2023-08-16T07:22:48Z</time>
      </trkpt>
      <trkpt lat="49.77063" lon="2.19308">
        <ele>102.9</ele>
        <time>2023-08-16T07:22:49Z</time>
      </trkpt>
      <trkpt lat="49.77063" lon="2.1931">
        <ele>102.9</ele>
        <time>2023-08-16T07:22:51Z</time>
      </trkpt>
      <trkpt lat="49.77062" lon="2.19311">
        <ele>102.9</ele>
        <time>2023-08-16T07:22:52Z</time>
      </trkpt>
      <trkpt lat="49.77061" lon="2.19312">
        <ele>102.9</ele>
        <time>2023-08-16T07:22:53Z</time>
      </trkpt>
      <trkpt lat="49.7706" lon="2.19312">
        <ele>102.9</ele>
        <time>2023-08-16T07:22:54Z</time>
      </trkpt>
      <trkpt lat="49.77059" lon="2.19313">
        <ele>102.9</ele>
        <time>2023-08-16T07:22:55Z</time>
      </trkpt>
      <trkpt lat="49.77059" lon="2.19314">
        <ele>102.9</ele>
        <time>2023-08-16T07:22:56Z</time>
      </trkpt>
      <trkpt lat="49.77058" lon="2.19315">
        <ele>102.9</ele>
        <time>2023-08-16T07:22:57Z</time>
      </trkpt>
      <trkpt lat="49.77057" lon="2.19316">
        <ele>102.9</ele>
        <time>2023-08-16T07:22:58Z</time>
      </trkpt>
      <trkpt lat="49.77056" lon="2.19317">
        <ele>102.9</ele>
        <time>2023-08-16T07:23:00Z</time>
      </trkpt>
      <trkpt lat="49.77055" lon="2.19318">
        <ele>103</ele>
        <time>2023-08-16T07:23:01Z</time>
      </trkpt>
      <trkpt lat="49.77054" lon="2.19319">
        <ele>103</ele>
        <time>2023-08-16T07:23:02Z</time>
      </trkpt>
      <trkpt lat="49.77054" lon="2.1932">
        <ele>103</ele>
        <time>2023-08-16T07:23:03Z</time>
      </trkpt>
      <trkpt lat="49.77053" lon="2.19321">
        <ele>103.1</ele>
        <time>2023-08-16T07:23:04Z</time>
      </trkpt>
      <trkpt lat="49.77052" lon="2.19322">
        <ele>103.1</ele>
        <time>2023-08-16T07:23:06Z</time>
      </trkpt>
      <trkpt lat="49.77051" lon="2.19324">
        <ele>103.1</ele>
        <time>2023-08-16T07:23:07Z</time>
      </trkpt>
      <trkpt lat="49.77051" lon="2.19325">
        <ele>103.2</ele>
        <time>2023-08-16T07:23:08Z</time>
      </trkpt>
      <trkpt lat="49.77051" lon="2.19326">
        <ele>103.2</ele>
        <time>2023-08-16T07:23:09Z</time>
      </trkpt>
      <trkpt lat="49.77051" lon="2.19328">
        <ele>103.2</ele>
        <time>2023-08-16T07:23:11Z</time>
      </trkpt>
      <trkpt lat="49.77052" lon="2.19328">
        <ele>103.2</ele>
        <time>2023-08-16T07:23:12Z</time>
      </trkpt>
      <trkpt lat="49.77052" lon="2.19328">
        <ele>103.2</ele>
        <time>2023-08-16T07:23:13Z</time>
      </trkpt>
      <trkpt lat="49.77052" lon="2.19328">
        <ele>103.2</ele>
        <time>2023-08-16T07:23:15Z</time>
      </trkpt>
      <trkpt lat="49.77052" lon="2.19328">
        <ele>103.2</ele>
        <time>2023-08-16T07:23:16Z</time>
      </trkpt>
      <trkpt lat="49.77052" lon="2.19327">
        <ele>103.2</ele>
        <time>2023-08-16T07:23:18Z</time>
      </trkpt>
      <trkpt lat="49.77052" lon="2.19327">
        <ele>103.2</ele>
        <time>2023-08-16T07:23:19Z</time>
      </trkpt>
      <trkpt lat="49.77052" lon="2.19327">
        <ele>103.2</ele>
        <time>2023-08-16T07:23:20Z</time>
      </trkpt>
      <trkpt lat="49.77052" lon="2.19327">
        <ele>103.2</ele>
        <time>2023-08-16T07:23:22Z</time>
      </trkpt>
      <trkpt lat="49.77053" lon="2.19327">
        <ele>103.2</ele>
        <time>2023-08-16T07:23:23Z</time>
      </trkpt>
      <trkpt lat="49.77053" lon="2.19327">
        <ele>103.3</ele>
        <time>2023-08-16T07:23:25Z</time>
      </trkpt>
      <trkpt lat="49.77053" lon="2.19327">
        <ele>103.3</ele>
        <time>2023-08-16T07:23:26Z</time>
      </trkpt>
      <trkpt lat="49.77053" lon="2.19325">
        <ele>103.3</ele>
        <time>2023-08-16T07:23:28Z</time>
      </trkpt>
      <trkpt lat="49.77053" lon="2.19324">
        <ele>103.3</ele>
        <time>2023-08-16T07:23:29Z</time>
      </trkpt>
      <trkpt lat="49.77053" lon="2.19323">
        <ele>103.3</ele>
        <time>2023-08-16T07:23:30Z</time>
      </trkpt>
      <trkpt lat="49.77053" lon="2.19322">
        <ele>103.3</ele>
        <time>2023-08-16T07:23:31Z</time>
      </trkpt>
      <trkpt lat="49.77053" lon="2.19322">
        <ele>103.3</ele>
        <time>2023-08-16T07:23:32Z</time>
      </trkpt>
      <trkpt lat="49.77053" lon="2.19322">
        <ele>103.3</ele>
        <time>2023-08-16T07:23:33Z</time>
      </trkpt>
      <trkpt lat="49.77053" lon="2.19322">
        <ele>103.3</ele>
        <time>2023-08-16T07:23:34Z</time>
      </trkpt>
      <trkpt lat="49.77053" lon="2.19322">
        <ele>103.3</ele>
        <time>2023-08-16T07:23:35Z</time>
      </trkpt>
      <trkpt lat="49.77053" lon="2.19322">
        <ele>103.3</ele>
        <time>2023-08-16T07:23:36Z</time>
      </trkpt>
      <trkpt lat="49.77053" lon="2.19322">
        <ele>103.3</ele>
        <time>2023-08-16T07:23:37Z</time>
      </trkpt>
      <trkpt lat="49.77053" lon="2.19322">
        <ele>103.3</ele>
        <time>2023-08-16T07:23:38Z</time>
      </trkpt>
      <trkpt lat="49.77053" lon="2.19322">
        <ele>103.3</ele>
        <time>2023-08-16T07:23:39Z</time>
      </trkpt>
      <trkpt lat="49.77053" lon="2.19322">
        <ele>103.3</ele>
        <time>2023-08-16T07:23:40Z</time>
      </trkpt>
      <trkpt lat="49.77053" lon="2.19322">
        <ele>103.3</ele>
        <time>2023-08-16T07:23:41Z</time>
      </trkpt>
      <trkpt lat="49.77053" lon="2.19322">
        <ele>103.3</ele>
        <time>2023-08-16T07:23:42Z</time>
      </trkpt>
      <trkpt lat="49.77053" lon="2.19322">
        <ele>103.3</ele>
        <time>2023-08-16T07:23:43Z</time>
      </trkpt>
      <trkpt lat="49.77053" lon="2.19322">
        <ele>103.3</ele>
        <time>2023-08-16T07:23:44Z</time>
      </trkpt>
      <trkpt lat="49.77053" lon="2.19322">
        <ele>103.3</ele>
        <time>2023-08-16T07:23:45Z</time>
      </trkpt>
      <trkpt lat="49.77053" lon="2.19322">
        <ele>103.3</ele>
        <time>2023-08-16T07:23:46Z</time>
      </trkpt>
      <trkpt lat="49.77053" lon="2.19322">
        <ele>103.3</ele>
        <time>2023-08-16T07:23:47Z</time>
      </trkpt>
      <trkpt lat="49.77053" lon="2.19322">
        <ele>103.3</ele>
        <time>2023-08-16T07:23:48Z</time>
      </trkpt>
      <trkpt lat="49.77053" lon="2.19322">
        <ele>103.3</ele>
        <time>2023-08-16T07:23:49Z</time>
      </trkpt>
      <trkpt lat="49.77053" lon="2.19322">
        <ele>103.3</ele>
        <time>2023-08-16T07:23:50Z</time>
      </trkpt>
      <trkpt lat="49.77053" lon="2.19322">
        <ele>103.3</ele>
        <time>2023-08-16T07:23:51Z</time>
      </trkpt>
      <trkpt lat="49.77053" lon="2.19322">
        <ele>103.3</ele>
        <time>2023-08-16T07:23:52Z</time>
      </trkpt>
      <trkpt lat="49.77053" lon="2.19322">
        <ele>103.3</ele>
        <time>2023-08-16T07:23:53Z</time>
      </trkpt>
      <trkpt lat="49.77053" lon="2.19322">
        <ele>103.3</ele>
        <time>2023-08-16T07:23:54Z</time>
      </trkpt>
      <trkpt lat="49.77053" lon="2.19322">
        <ele>103.3</ele>
        <time>2023-08-16T07:23:55Z</time>
      </trkpt>
      <trkpt lat="49.77053" lon="2.19322">
        <ele>103.3</ele>
        <time>2023-08-16T07:23:56Z</time>
      </trkpt>
      <trkpt lat="49.77053" lon="2.19321">
        <ele>103.3</ele>
        <time>2023-08-16T07:23:57Z</time>
      </trkpt>
      <trkpt lat="49.77053" lon="2.19321">
        <ele>103.3</ele>
        <time>2023-08-16T07:23:58Z</time>
      </trkpt>
      <trkpt lat="49.77053" lon="2.19321">
        <ele>103.3</ele>
        <time>2023-08-16T07:23:59Z</time>
      </trkpt>
      <trkpt lat="49.77053" lon="2.1932">
        <ele>103.3</ele>
        <time>2023-08-16T07:24:00Z</time>
      </trkpt>
      <trkpt lat="49.77053" lon="2.19321">
        <ele>103.3</ele>
        <time>2023-08-16T07:24:01Z</time>
      </trkpt>
      <trkpt lat="49.77053" lon="2.19321">
        <ele>103.3</ele>
        <time>2023-08-16T07:24:02Z</time>
      </trkpt>
      <trkpt lat="49.77053" lon="2.19321">
        <ele>103.3</ele>
        <time>2023-08-16T07:24:03Z</time>
      </trkpt>
      <trkpt lat="49.77053" lon="2.19321">
        <ele>103.3</ele>
        <time>2023-08-16T07:24:04Z</time>
      </trkpt>
      <trkpt lat="49.77053" lon="2.19321">
        <ele>103.3</ele>
        <time>2023-08-16T07:24:05Z</time>
      </trkpt>
      <trkpt lat="49.77053" lon="2.19321">
        <ele>103.3</ele>
        <time>2023-08-16T07:24:06Z</time>
      </trkpt>
      <trkpt lat="49.77053" lon="2.1932">
        <ele>103.3</ele>
        <time>2023-08-16T07:24:07Z</time>
      </trkpt>
      <trkpt lat="49.77053" lon="2.1932">
        <ele>103.3</ele>
        <time>2023-08-16T07:24:08Z</time>
      </trkpt>
      <trkpt lat="49.77053" lon="2.1932">
        <ele>103.3</ele>
        <time>2023-08-16T07:24:09Z</time>
      </trkpt>
      <trkpt lat="49.77054" lon="2.1932">
        <ele>103.4</ele>
        <time>2023-08-16T07:24:11Z</time>
      </trkpt>
      <trkpt lat="49.77055" lon="2.1932">
        <ele>103.4</ele>
        <time>2023-08-16T07:24:12Z</time>
      </trkpt>
      <trkpt lat="49.77055" lon="2.19319">
        <ele>103.4</ele>
        <time>2023-08-16T07:24:14Z</time>
      </trkpt>
      <trkpt lat="49.77055" lon="2.19319">
        <ele>103.4</ele>
        <time>2023-08-16T07:24:15Z</time>
      </trkpt>
      <trkpt lat="49.77055" lon="2.19319">
        <ele>103.4</ele>
        <time>2023-08-16T07:24:17Z</time>
      </trkpt>
      <trkpt lat="49.77055" lon="2.19319">
        <ele>103.4</ele>
        <time>2023-08-16T07:24:18Z</time>
      </trkpt>
      <trkpt lat="49.77055" lon="2.19319">
        <ele>103.4</ele>
        <time>2023-08-16T07:24:19Z</time>
      </trkpt>
      <trkpt lat="49.77054" lon="2.19319">
        <ele>103.4</ele>
        <time>2023-08-16T07:24:21Z</time>
      </trkpt>
      <trkpt lat="49.77054" lon="2.19319">
        <ele>103.4</ele>
        <time>2023-08-16T07:24:22Z</time>
      </trkpt>
      <trkpt lat="49.77054" lon="2.19319">
        <ele>103.4</ele>
        <time>2023-08-16T07:24:24Z</time>
      </trkpt>
      <trkpt lat="49.77054" lon="2.19319">
        <ele>103.4</ele>
        <time>2023-08-16T07:24:25Z</time>
      </trkpt>
      <trkpt lat="49.77054" lon="2.19319">
        <ele>103.4</ele>
        <time>2023-08-16T07:24:27Z</time>
      </trkpt>
      <trkpt lat="49.77054" lon="2.19319">
        <ele>103.4</ele>
        <time>2023-08-16T07:24:28Z</time>
      </trkpt>
      <trkpt lat="49.77055" lon="2.19319">
        <ele>103.4</ele>
        <time>2023-08-16T07:24:29Z</time>
      </trkpt>
      <trkpt lat="49.77055" lon="2.19319">
        <ele>103.4</ele>
        <time>2023-08-16T07:24:31Z</time>
      </trkpt>
      <trkpt lat="49.77055" lon="2.1932">
        <ele>103.4</ele>
        <time>2023-08-16T07:24:32Z</time>
      </trkpt>
      <trkpt lat="49.77055" lon="2.19321">
        <ele>103.4</ele>
        <time>2023-08-16T07:24:34Z</time>
      </trkpt>
      <trkpt lat="49.77055" lon="2.19323">
        <ele>103.4</ele>
        <time>2023-08-16T07:24:35Z</time>
      </trkpt>
      <trkpt lat="49.77055" lon="2.19325">
        <ele>103.4</ele>
        <time>2023-08-16T07:24:36Z</time>
      </trkpt>
      <trkpt lat="49.77054" lon="2.19327">
        <ele>103.4</ele>
        <time>2023-08-16T07:24:37Z</time>
      </trkpt>
      <trkpt lat="49.77053" lon="2.1933">
        <ele>103.4</ele>
        <time>2023-08-16T07:24:38Z</time>
      </trkpt>
      <trkpt lat="49.77052" lon="2.19332">
        <ele>103.3</ele>
        <time>2023-08-16T07:24:39Z</time>
      </trkpt>
      <trkpt lat="49.77051" lon="2.19333">
        <ele>103.3</ele>
        <time>2023-08-16T07:24:40Z</time>
      </trkpt>
      <trkpt lat="49.7705" lon="2.19335">
        <ele>103.3</ele>
        <time>2023-08-16T07:24:42Z</time>
      </trkpt>
      <trkpt lat="49.77049" lon="2.19336">
        <ele>103.3</ele>
        <time>2023-08-16T07:24:43Z</time>
      </trkpt>
      <trkpt lat="49.77047" lon="2.19338">
        <ele>103.3</ele>
        <time>2023-08-16T07:24:45Z</time>
      </trkpt>
      <trkpt lat="49.77047" lon="2.19338">
        <ele>103.3</ele>
        <time>2023-08-16T07:24:46Z</time>
      </trkpt>
      <trkpt lat="49.77047" lon="2.19338">
        <ele>103.3</ele>
        <time>2023-08-16T07:24:47Z</time>
      </trkpt>
      <trkpt lat="49.77046" lon="2.19338">
        <ele>103.3</ele>
        <time>2023-08-16T07:24:49Z</time>
      </trkpt>
      <trkpt lat="49.77046" lon="2.19339">
        <ele>103.3</ele>
        <time>2023-08-16T07:24:50Z</time>
      </trkpt>
      <trkpt lat="49.77046" lon="2.19339">
        <ele>103.3</ele>
        <time>2023-08-16T07:24:52Z</time>
      </trkpt>
      <trkpt lat="49.77045" lon="2.19339">
        <ele>103.3</ele>
        <time>2023-08-16T07:24:53Z</time>
      </trkpt>
      <trkpt lat="49.77045" lon="2.19339">
        <ele>103.3</ele>
        <time>2023-08-16T07:24:54Z</time>
      </trkpt>
      <trkpt lat="49.77044" lon="2.19342">
        <ele>103.3</ele>
        <time>2023-08-16T07:24:55Z</time>
      </trkpt>
      <trkpt lat="49.77043" lon="2.19343">
        <ele>103.3</ele>
        <time>2023-08-16T07:24:56Z</time>
      </trkpt>
      <trkpt lat="49.77043" lon="2.19344">
        <ele>103.3</ele>
        <time>2023-08-16T07:24:57Z</time>
      </trkpt>
      <trkpt lat="49.77042" lon="2.19346">
        <ele>103.3</ele>
        <time>2023-08-16T07:24:59Z</time>
      </trkpt>
      <trkpt lat="49.77041" lon="2.19348">
        <ele>103.3</ele>
        <time>2023-08-16T07:25:00Z</time>
      </trkpt>
      <trkpt lat="49.7704" lon="2.19351">
        <ele>103.4</ele>
        <time>2023-08-16T07:25:01Z</time>
      </trkpt>
      <trkpt lat="49.7704" lon="2.19352">
        <ele>103.4</ele>
        <time>2023-08-16T07:25:03Z</time>
      </trkpt>
      <trkpt lat="49.77039" lon="2.19353">
        <ele>103.4</ele>
        <time>2023-08-16T07:25:04Z</time>
      </trkpt>
      <trkpt lat="49.77039" lon="2.19355">
        <ele>103.4</ele>
        <time>2023-08-16T07:25:05Z</time>
      </trkpt>
      <trkpt lat="49.77038" lon="2.19356">
        <ele>103.4</ele>
        <time>2023-08-16T07:25:06Z</time>
      </trkpt>
      <trkpt lat="49.77037" lon="2.19358">
        <ele>103.5</ele>
        <time>2023-08-16T07:25:08Z</time>
      </trkpt>
      <trkpt lat="49.77036" lon="2.1936">
        <ele>103.5</ele>
        <time>2023-08-16T07:25:09Z</time>
      </trkpt>
      <trkpt lat="49.77036" lon="2.19361">
        <ele>103.5</ele>
        <time>2023-08-16T07:25:11Z</time>
      </trkpt>
      <trkpt lat="49.77035" lon="2.19363">
        <ele>103.5</ele>
        <time>2023-08-16T07:25:12Z</time>
      </trkpt>
      <trkpt lat="49.77034" lon="2.19365">
        <ele>103.6</ele>
        <time>2023-08-16T07:25:13Z</time>
      </trkpt>
      <trkpt lat="49.77033" lon="2.19366">
        <ele>103.6</ele>
        <time>2023-08-16T07:25:14Z</time>
      </trkpt>
      <trkpt lat="49.77032" lon="2.19367">
        <ele>103.6</ele>
        <time>2023-08-16T07:25:15Z</time>
      </trkpt>
      <trkpt lat="49.77031" lon="2.19369">
        <ele>103.6</ele>
        <time>2023-08-16T07:25:17Z</time>
      </trkpt>
      <trkpt lat="49.7703" lon="2.1937">
        <ele>103.7</ele>
        <time>2023-08-16T07:25:18Z</time>
      </trkpt>
      <trkpt lat="49.77029" lon="2.19372">
        <ele>103.7</ele>
        <time>2023-08-16T07:25:19Z</time>
      </trkpt>
      <trkpt lat="49.77028" lon="2.19373">
        <ele>103.7</ele>
        <time>2023-08-16T07:25:20Z</time>
      </trkpt>
      <trkpt lat="49.77028" lon="2.19374">
        <ele>103.7</ele>
        <time>2023-08-16T07:25:21Z</time>
      </trkpt>
      <trkpt lat="49.77027" lon="2.19375">
        <ele>103.7</ele>
        <time>2023-08-16T07:25:22Z</time>
      </trkpt>
      <trkpt lat="49.77026" lon="2.19377">
        <ele>103.8</ele>
        <time>2023-08-16T07:25:23Z</time>
      </trkpt>
      <trkpt lat="49.77025" lon="2.19379">
        <ele>103.8</ele>
        <time>2023-08-16T07:25:25Z</time>
      </trkpt>
      <trkpt lat="49.77025" lon="2.1938">
        <ele>103.8</ele>
        <time>2023-08-16T07:25:26Z</time>
      </trkpt>
      <trkpt lat="49.77024" lon="2.19381">
        <ele>103.8</ele>
        <time>2023-08-16T07:25:27Z</time>
      </trkpt>
      <trkpt lat="49.77023" lon="2.19383">
        <ele>103.8</ele>
        <time>2023-08-16T07:25:29Z</time>
      </trkpt>
      <trkpt lat="49.77022" lon="2.19385">
        <ele>103.9</ele>
        <time>2023-08-16T07:25:30Z</time>
      </trkpt>
      <trkpt lat="49.77021" lon="2.19386">
        <ele>103.9</ele>
        <time>2023-08-16T07:25:31Z</time>
      </trkpt>
      <trkpt lat="49.77021" lon="2.19387">
        <ele>103.9</ele>
        <time>2023-08-16T07:25:32Z</time>
      </trkpt>
      <trkpt lat="49.7702" lon="2.19389">
        <ele>103.9</ele>
        <time>2023-08-16T07:25:33Z</time>
      </trkpt>
      <trkpt lat="49.77018" lon="2.19391">
        <ele>104</ele>
        <time>2023-08-16T07:25:35Z</time>
      </trkpt>
      <trkpt lat="49.77018" lon="2.19392">
        <ele>104</ele>
        <time>2023-08-16T07:25:36Z</time>
      </trkpt>
      <trkpt lat="49.77017" lon="2.19392">
        <ele>104</ele>
        <time>2023-08-16T07:25:37Z</time>
      </trkpt>
      <trkpt lat="49.77016" lon="2.19394">
        <ele>104</ele>
        <time>2023-08-16T07:25:38Z</time>
      </trkpt>
      <trkpt lat="49.77016" lon="2.19395">
        <ele>104</ele>
        <time>2023-08-16T07:25:39Z</time>
      </trkpt>
      <trkpt lat="49.77015" lon="2.19396">
        <ele>104</ele>
        <time>2023-08-16T07:25:40Z</time>
      </trkpt>
      <trkpt lat="49.77014" lon="2.19399">
        <ele>104.1</ele>
        <time>2023-08-16T07:25:42Z</time>
      </trkpt>
      <trkpt lat="49.77014" lon="2.194">
        <ele>104.1</ele>
        <time>2023-08-16T07:25:43Z</time>
      </trkpt>
      <trkpt lat="49.77013" lon="2.19402">
        <ele>104.1</ele>
        <time>2023-08-16T07:25:44Z</time>
      </trkpt>
      <trkpt lat="49.77013" lon="2.19403">
        <ele>104.1</ele>
        <time>2023-08-16T07:25:45Z</time>
      </trkpt>
      <trkpt lat="49.77012" lon="2.19405">
        <ele>104.1</ele>
        <time>2023-08-16T07:25:47Z</time>
      </trkpt>
      <trkpt lat="49.77012" lon="2.19406">
        <ele>104.1</ele>
        <time>2023-08-16T07:25:48Z</time>
      </trkpt>
      <trkpt lat="49.77011" lon="2.19408">
        <ele>104.2</ele>
        <time>2023-08-16T07:25:49Z</time>
      </trkpt>
      <trkpt lat="49.77011" lon="2.19409">
        <ele>104.2</ele>
        <time>2023-08-16T07:25:50Z</time>
      </trkpt>
      <trkpt lat="49.77009" lon="2.19412">
        <ele>104.2</ele>
        <time>2023-08-16T07:25:51Z</time>
      </trkpt>
      <trkpt lat="49.77009" lon="2.19413">
        <ele>104.2</ele>
        <time>2023-08-16T07:25:53Z</time>
      </trkpt>
      <trkpt lat="49.77008" lon="2.19414">
        <ele>104.3</ele>
        <time>2023-08-16T07:25:54Z</time>
      </trkpt>
      <trkpt lat="49.77007" lon="2.19416">
        <ele>104.3</ele>
        <time>2023-08-16T07:25:55Z</time>
      </trkpt>
      <trkpt lat="49.77007" lon="2.19418">
        <ele>104.3</ele>
        <time>2023-08-16T07:25:56Z</time>
      </trkpt>
      <trkpt lat="49.77006" lon="2.19421">
        <ele>104.4</ele>
        <time>2023-08-16T07:25:58Z</time>
      </trkpt>
      <trkpt lat="49.77005" lon="2.19422">
        <ele>104.4</ele>
        <time>2023-08-16T07:25:59Z</time>
      </trkpt>
      <trkpt lat="49.77005" lon="2.19423">
        <ele>104.4</ele>
        <time>2023-08-16T07:26:00Z</time>
      </trkpt>
      <trkpt lat="49.77004" lon="2.19426">
        <ele>104.5</ele>
        <time>2023-08-16T07:26:01Z</time>
      </trkpt>
      <trkpt lat="49.77004" lon="2.19427">
        <ele>104.5</ele>
        <time>2023-08-16T07:26:03Z</time>
      </trkpt>
      <trkpt lat="49.77004" lon="2.19429">
        <ele>104.5</ele>
        <time>2023-08-16T07:26:04Z</time>
      </trkpt>
      <trkpt lat="49.77003" lon="2.19432">
        <ele>104.6</ele>
        <time>2023-08-16T07:26:05Z</time>
      </trkpt>
      <trkpt lat="49.77003" lon="2.19433">
        <ele>104.6</ele>
        <time>2023-08-16T07:26:06Z</time>
      </trkpt>
      <trkpt lat="49.77003" lon="2.19434">
        <ele>104.6</ele>
        <time>2023-08-16T07:26:07Z</time>
      </trkpt>
      <trkpt lat="49.77002" lon="2.19436">
        <ele>104.6</ele>
        <time>2023-08-16T07:26:08Z</time>
      </trkpt>
      <trkpt lat="49.77002" lon="2.19438">
        <ele>104.7</ele>
        <time>2023-08-16T07:26:10Z</time>
      </trkpt>
      <trkpt lat="49.77002" lon="2.19439">
        <ele>104.7</ele>
        <time>2023-08-16T07:26:11Z</time>
      </trkpt>
      <trkpt lat="49.77001" lon="2.19441">
        <ele>104.7</ele>
        <time>2023-08-16T07:26:12Z</time>
      </trkpt>
      <trkpt lat="49.77001" lon="2.19443">
        <ele>104.7</ele>
        <time>2023-08-16T07:26:13Z</time>
      </trkpt>
      <trkpt lat="49.77001" lon="2.19444">
        <ele>104.8</ele>
        <time>2023-08-16T07:26:14Z</time>
      </trkpt>
      <trkpt lat="49.77" lon="2.19447">
        <ele>104.8</ele>
        <time>2023-08-16T07:26:15Z</time>
      </trkpt>
      <trkpt lat="49.77" lon="2.19448">
        <ele>104.8</ele>
        <time>2023-08-16T07:26:17Z</time>
      </trkpt>
      <trkpt lat="49.76999" lon="2.1945">
        <ele>104.8</ele>
        <time>2023-08-16T07:26:18Z</time>
      </trkpt>
      <trkpt lat="49.76999" lon="2.19452">
        <ele>104.9</ele>
        <time>2023-08-16T07:26:19Z</time>
      </trkpt>
      <trkpt lat="49.76998" lon="2.19453">
        <ele>104.9</ele>
        <time>2023-08-16T07:26:20Z</time>
      </trkpt>
      <trkpt lat="49.76998" lon="2.19455">
        <ele>104.9</ele>
        <time>2023-08-16T07:26:21Z</time>
      </trkpt>
      <trkpt lat="49.76998" lon="2.19456">
        <ele>105</ele>
        <time>2023-08-16T07:26:23Z</time>
      </trkpt>
      <trkpt lat="49.76997" lon="2.19459">
        <ele>105</ele>
        <time>2023-08-16T07:26:24Z</time>
      </trkpt>
      <trkpt lat="49.76997" lon="2.1946">
        <ele>105</ele>
        <time>2023-08-16T07:26:25Z</time>
      </trkpt>
      <trkpt lat="49.76996" lon="2.19462">
        <ele>105.1</ele>
        <time>2023-08-16T07:26:27Z</time>
      </trkpt>
      <trkpt lat="49.76996" lon="2.19463">
        <ele>105.1</ele>
        <time>2023-08-16T07:26:28Z</time>
      </trkpt>
      <trkpt lat="49.76996" lon="2.19465">
        <ele>105.1</ele>
        <time>2023-08-16T07:26:29Z</time>
      </trkpt>
      <trkpt lat="49.76995" lon="2.19467">
        <ele>105.1</ele>
        <time>2023-08-16T07:26:30Z</time>
      </trkpt>
      <trkpt lat="49.76995" lon="2.19468">
        <ele>105.2</ele>
        <time>2023-08-16T07:26:31Z</time>
      </trkpt>
      <trkpt lat="49.76994" lon="2.19471">
        <ele>105.2</ele>
        <time>2023-08-16T07:26:33Z</time>
      </trkpt>
      <trkpt lat="49.76994" lon="2.19473">
        <ele>105.2</ele>
        <time>2023-08-16T07:26:34Z</time>
      </trkpt>
      <trkpt lat="49.76994" lon="2.19474">
        <ele>105.3</ele>
        <time>2023-08-16T07:26:35Z</time>
      </trkpt>
      <trkpt lat="49.76993" lon="2.19475">
        <ele>105.3</ele>
        <time>2023-08-16T07:26:36Z</time>
      </trkpt>
      <trkpt lat="49.76993" lon="2.19477">
        <ele>105.3</ele>
        <time>2023-08-16T07:26:37Z</time>
      </trkpt>
      <trkpt lat="49.76993" lon="2.19478">
        <ele>105.3</ele>
        <time>2023-08-16T07:26:38Z</time>
      </trkpt>
      <trkpt lat="49.76992" lon="2.1948">
        <ele>105.4</ele>
        <time>2023-08-16T07:26:39Z</time>
      </trkpt>
      <trkpt lat="49.76991" lon="2.19481">
        <ele>105.4</ele>
        <time>2023-08-16T07:26:41Z</time>
      </trkpt>
      <trkpt lat="49.76991" lon="2.19483">
        <ele>105.4</ele>
        <time>2023-08-16T07:26:42Z</time>
      </trkpt>
      <trkpt lat="49.76991" lon="2.19485">
        <ele>105.4</ele>
        <time>2023-08-16T07:26:43Z</time>
      </trkpt>
      <trkpt lat="49.7699" lon="2.19487">
        <ele>105.4</ele>
        <time>2023-08-16T07:26:44Z</time>
      </trkpt>
      <trkpt lat="49.76989" lon="2.19488">
        <ele>105.4</ele>
        <time>2023-08-16T07:26:46Z</time>
      </trkpt>
      <trkpt lat="49.76989" lon="2.1949">
        <ele>105.5</ele>
        <time>2023-08-16T07:26:47Z</time>
      </trkpt>
      <trkpt lat="49.76988" lon="2.19491">
        <ele>105.5</ele>
        <time>2023-08-16T07:26:48Z</time>
      </trkpt>
      <trkpt lat="49.76988" lon="2.19492">
        <ele>105.5</ele>
        <time>2023-08-16T07:26:49Z</time>
      </trkpt>
      <trkpt lat="49.76987" lon="2.19494">
        <ele>105.5</ele>
        <time>2023-08-16T07:26:50Z</time>
      </trkpt>
      <trkpt lat="49.76986" lon="2.19496">
        <ele>105.5</ele>
        <time>2023-08-16T07:26:51Z</time>
      </trkpt>
      <trkpt lat="49.76986" lon="2.19497">
        <ele>105.5</ele>
        <time>2023-08-16T07:26:52Z</time>
      </trkpt>
      <trkpt lat="49.76985" lon="2.19499">
        <ele>105.5</ele>
        <time>2023-08-16T07:26:54Z</time>
      </trkpt>
      <trkpt lat="49.76985" lon="2.195">
        <ele>105.6</ele>
        <time>2023-08-16T07:26:55Z</time>
      </trkpt>
      <trkpt lat="49.76984" lon="2.19502">
        <ele>105.6</ele>
        <time>2023-08-16T07:26:56Z</time>
      </trkpt>
      <trkpt lat="49.76984" lon="2.19503">
        <ele>105.6</ele>
        <time>2023-08-16T07:26:57Z</time>
      </trkpt>
      <trkpt lat="49.76983" lon="2.19505">
        <ele>105.6</ele>
        <time>2023-08-16T07:26:58Z</time>
      </trkpt>
      <trkpt lat="49.76983" lon="2.19506">
        <ele>105.6</ele>
        <time>2023-08-16T07:26:59Z</time>
      </trkpt>
      <trkpt lat="49.76983" lon="2.19508">
        <ele>105.6</ele>
        <time>2023-08-16T07:27:00Z</time>
      </trkpt>
      <trkpt lat="49.76982" lon="2.1951">
        <ele>105.6</ele>
        <time>2023-08-16T07:27:01Z</time>
      </trkpt>
      <trkpt lat="49.76982" lon="2.19512">
        <ele>105.7</ele>
        <time>2023-08-16T07:27:03Z</time>
      </trkpt>
      <trkpt lat="49.76981" lon="2.19513">
        <ele>105.7</ele>
        <time>2023-08-16T07:27:04Z</time>
      </trkpt>
      <trkpt lat="49.76981" lon="2.19515">
        <ele>105.7</ele>
        <time>2023-08-16T07:27:05Z</time>
      </trkpt>
      <trkpt lat="49.7698" lon="2.19516">
        <ele>105.7</ele>
        <time>2023-08-16T07:27:06Z</time>
      </trkpt>
      <trkpt lat="49.76979" lon="2.19519">
        <ele>105.8</ele>
        <time>2023-08-16T07:27:07Z</time>
      </trkpt>
      <trkpt lat="49.76979" lon="2.1952">
        <ele>105.8</ele>
        <time>2023-08-16T07:27:09Z</time>
      </trkpt>
      <trkpt lat="49.76978" lon="2.19522">
        <ele>105.8</ele>
        <time>2023-08-16T07:27:10Z</time>
      </trkpt>
      <trkpt lat="49.76978" lon="2.19523">
        <ele>105.8</ele>
        <time>2023-08-16T07:27:11Z</time>
      </trkpt>
      <trkpt lat="49.76977" lon="2.19525">
        <ele>105.9</ele>
        <time>2023-08-16T07:27:12Z</time>
      </trkpt>
      <trkpt lat="49.76977" lon="2.19527">
        <ele>105.9</ele>
        <time>2023-08-16T07:27:13Z</time>
      </trkpt>
      <trkpt lat="49.76976" lon="2.1953">
        <ele>105.9</ele>
        <time>2023-08-16T07:27:14Z</time>
      </trkpt>
      <trkpt lat="49.76976" lon="2.19532">
        <ele>106</ele>
        <time>2023-08-16T07:27:15Z</time>
      </trkpt>
      <trkpt lat="49.76976" lon="2.19533">
        <ele>106</ele>
        <time>2023-08-16T07:27:17Z</time>
      </trkpt>
      <trkpt lat="49.76975" lon="2.19535">
        <ele>106</ele>
        <time>2023-08-16T07:27:18Z</time>
      </trkpt>
      <trkpt lat="49.76975" lon="2.19536">
        <ele>106</ele>
        <time>2023-08-16T07:27:19Z</time>
      </trkpt>
      <trkpt lat="49.76975" lon="2.19538">
        <ele>106.1</ele>
        <time>2023-08-16T07:27:20Z</time>
      </trkpt>
      <trkpt lat="49.76974" lon="2.19539">
        <ele>106.1</ele>
        <time>2023-08-16T07:27:21Z</time>
      </trkpt>
      <trkpt lat="49.76974" lon="2.19541">
        <ele>106.1</ele>
        <time>2023-08-16T07:27:22Z</time>
      </trkpt>
      <trkpt lat="49.76973" lon="2.19543">
        <ele>106.1</ele>
        <time>2023-08-16T07:27:24Z</time>
      </trkpt>
      <trkpt lat="49.76972" lon="2.19546">
        <ele>106.2</ele>
        <time>2023-08-16T07:27:25Z</time>
      </trkpt>
      <trkpt lat="49.76972" lon="2.19547">
        <ele>106.2</ele>
        <time>2023-08-16T07:27:26Z</time>
      </trkpt>
      <trkpt lat="49.76972" lon="2.19548">
        <ele>106.2</ele>
        <time>2023-08-16T07:27:27Z</time>
      </trkpt>
      <trkpt lat="49.76971" lon="2.1955">
        <ele>106.2</ele>
        <time>2023-08-16T07:27:28Z</time>
      </trkpt>
      <trkpt lat="49.76971" lon="2.19551">
        <ele>106.3</ele>
        <time>2023-08-16T07:27:29Z</time>
      </trkpt>
      <trkpt lat="49.7697" lon="2.19553">
        <ele>106.3</ele>
        <time>2023-08-16T07:27:31Z</time>
      </trkpt>
      <trkpt lat="49.7697" lon="2.19555">
        <ele>106.3</ele>
        <time>2023-08-16T07:27:32Z</time>
      </trkpt>
      <trkpt lat="49.76969" lon="2.19557">
        <ele>106.3</ele>
        <time>2023-08-16T07:27:33Z</time>
      </trkpt>
      <trkpt lat="49.76969" lon="2.19559">
        <ele>106.3</ele>
        <time>2023-08-16T07:27:34Z</time>
      </trkpt>
      <trkpt lat="49.76969" lon="2.19561">
        <ele>106.4</ele>
        <time>2023-08-16T07:27:35Z</time>
      </trkpt>
      <trkpt lat="49.76968" lon="2.19563">
        <ele>106.4</ele>
        <time>2023-08-16T07:27:37Z</time>
      </trkpt>
      <trkpt lat="49.76968" lon="2.19565">
        <ele>106.4</ele>
        <time>2023-08-16T07:27:38Z</time>
      </trkpt>
      <trkpt lat="49.76967" lon="2.19567">
        <ele>106.4</ele>
        <time>2023-08-16T07:27:39Z</time>
      </trkpt>
      <trkpt lat="49.76967" lon="2.19568">
        <ele>106.4</ele>
        <time>2023-08-16T07:27:41Z</time>
      </trkpt>
      <trkpt lat="49.76967" lon="2.19569">
        <ele>106.5</ele>
        <time>2023-08-16T07:27:42Z</time>
      </trkpt>
      <trkpt lat="49.76966" lon="2.19571">
        <ele>106.5</ele>
        <time>2023-08-16T07:27:43Z</time>
      </trkpt>
      <trkpt lat="49.76966" lon="2.19573">
        <ele>106.5</ele>
        <time>2023-08-16T07:27:44Z</time>
      </trkpt>
      <trkpt lat="49.76965" lon="2.19575">
        <ele>106.5</ele>
        <time>2023-08-16T07:27:45Z</time>
      </trkpt>
      <trkpt lat="49.76965" lon="2.19577">
        <ele>106.5</ele>
        <time>2023-08-16T07:27:46Z</time>
      </trkpt>
      <trkpt lat="49.76965" lon="2.19578">
        <ele>106.5</ele>
        <time>2023-08-16T07:27:48Z</time>
      </trkpt>
      <trkpt lat="49.76964" lon="2.1958">
        <ele>106.5</ele>
        <time>2023-08-16T07:27:49Z</time>
      </trkpt>
      <trkpt lat="49.76964" lon="2.19582">
        <ele>106.5</ele>
        <time>2023-08-16T07:27:50Z</time>
      </trkpt>
      <trkpt lat="49.76963" lon="2.19583">
        <ele>106.5</ele>
        <time>2023-08-16T07:27:51Z</time>
      </trkpt>
      <trkpt lat="49.76963" lon="2.19585">
        <ele>106.5</ele>
        <time>2023-08-16T07:27:52Z</time>
      </trkpt>
      <trkpt lat="49.76962" lon="2.19586">
        <ele>106.5</ele>
        <time>2023-08-16T07:27:54Z</time>
      </trkpt>
      <trkpt lat="49.76962" lon="2.19588">
        <ele>106.5</ele>
        <time>2023-08-16T07:27:55Z</time>
      </trkpt>
      <trkpt lat="49.76961" lon="2.1959">
        <ele>106.5</ele>
        <time>2023-08-16T07:27:56Z</time>
      </trkpt>
      <trkpt lat="49.76961" lon="2.19591">
        <ele>106.6</ele>
        <time>2023-08-16T07:27:57Z</time>
      </trkpt>
      <trkpt lat="49.7696" lon="2.19592">
        <ele>106.6</ele>
        <time>2023-08-16T07:27:58Z</time>
      </trkpt>
      <trkpt lat="49.7696" lon="2.19594">
        <ele>106.6</ele>
        <time>2023-08-16T07:27:59Z</time>
      </trkpt>
      <trkpt lat="49.76959" lon="2.19595">
        <ele>106.6</ele>
        <time>2023-08-16T07:28:01Z</time>
      </trkpt>
      <trkpt lat="49.76959" lon="2.19597">
        <ele>106.6</ele>
        <time>2023-08-16T07:28:02Z</time>
      </trkpt>
      <trkpt lat="49.76958" lon="2.19599">
        <ele>106.6</ele>
        <time>2023-08-16T07:28:03Z</time>
      </trkpt>
      <trkpt lat="49.76958" lon="2.19599">
        <ele>106.6</ele>
        <time>2023-08-16T07:28:04Z</time>
      </trkpt>
      <trkpt lat="49.76957" lon="2.19601">
        <ele>106.6</ele>
        <time>2023-08-16T07:28:05Z</time>
      </trkpt>
      <trkpt lat="49.76957" lon="2.19603">
        <ele>106.6</ele>
        <time>2023-08-16T07:28:06Z</time>
      </trkpt>
      <trkpt lat="49.76956" lon="2.19604">
        <ele>106.6</ele>
        <time>2023-08-16T07:28:07Z</time>
      </trkpt>
      <trkpt lat="49.76956" lon="2.19606">
        <ele>106.6</ele>
        <time>2023-08-16T07:28:09Z</time>
      </trkpt>
      <trkpt lat="49.76955" lon="2.19607">
        <ele>106.7</ele>
        <time>2023-08-16T07:28:10Z</time>
      </trkpt>
      <trkpt lat="49.76955" lon="2.19609">
        <ele>106.7</ele>
        <time>2023-08-16T07:28:11Z</time>
      </trkpt>
      <trkpt lat="49.76954" lon="2.1961">
        <ele>106.7</ele>
        <time>2023-08-16T07:28:12Z</time>
      </trkpt>
      <trkpt lat="49.76953" lon="2.19612">
        <ele>106.7</ele>
        <time>2023-08-16T07:28:13Z</time>
      </trkpt>
      <trkpt lat="49.76953" lon="2.19613">
        <ele>106.7</ele>
        <time>2023-08-16T07:28:14Z</time>
      </trkpt>
      <trkpt lat="49.76953" lon="2.19615">
        <ele>106.7</ele>
        <time>2023-08-16T07:28:15Z</time>
      </trkpt>
      <trkpt lat="49.76952" lon="2.19618">
        <ele>106.8</ele>
        <time>2023-08-16T07:28:17Z</time>
      </trkpt>
      <trkpt lat="49.76952" lon="2.19619">
        <ele>106.8</ele>
        <time>2023-08-16T07:28:18Z</time>
      </trkpt>
      <trkpt lat="49.76951" lon="2.19621">
        <ele>106.8</ele>
        <time>2023-08-16T07:28:19Z</time>
      </trkpt>
      <trkpt lat="49.76951" lon="2.19623">
        <ele>106.8</ele>
        <time>2023-08-16T07:28:20Z</time>
      </trkpt>
      <trkpt lat="49.76951" lon="2.19624">
        <ele>106.8</ele>
        <time>2023-08-16T07:28:21Z</time>
      </trkpt>
      <trkpt lat="49.76951" lon="2.19626">
        <ele>106.9</ele>
        <time>2023-08-16T07:28:22Z</time>
      </trkpt>
      <trkpt lat="49.7695" lon="2.19629">
        <ele>106.9</ele>
        <time>2023-08-16T07:28:24Z</time>
      </trkpt>
      <trkpt lat="49.7695" lon="2.1963">
        <ele>106.9</ele>
        <time>2023-08-16T07:28:25Z</time>
      </trkpt>
      <trkpt lat="49.7695" lon="2.19632">
        <ele>106.9</ele>
        <time>2023-08-16T07:28:26Z</time>
      </trkpt>
      <trkpt lat="49.76949" lon="2.19635">
        <ele>107</ele>
        <time>2023-08-16T07:28:27Z</time>
      </trkpt>
      <trkpt lat="49.76949" lon="2.19636">
        <ele>107</ele>
        <time>2023-08-16T07:28:28Z</time>
      </trkpt>
      <trkpt lat="49.76948" lon="2.19638">
        <ele>107</ele>
        <time>2023-08-16T07:28:30Z</time>
      </trkpt>
      <trkpt lat="49.76948" lon="2.19639">
        <ele>107</ele>
        <time>2023-08-16T07:28:31Z</time>
      </trkpt>
      <trkpt lat="49.76947" lon="2.1964">
        <ele>107</ele>
        <time>2023-08-16T07:28:32Z</time>
      </trkpt>
      <trkpt lat="49.76946" lon="2.19642">
        <ele>107</ele>
        <time>2023-08-16T07:28:33Z</time>
      </trkpt>
      <trkpt lat="49.76946" lon="2.19644">
        <ele>107.1</ele>
        <time>2023-08-16T07:28:34Z</time>
      </trkpt>
      <trkpt lat="49.76945" lon="2.19646">
        <ele>107.1</ele>
        <time>2023-08-16T07:28:35Z</time>
      </trkpt>
      <trkpt lat="49.76945" lon="2.19647">
        <ele>107.1</ele>
        <time>2023-08-16T07:28:37Z</time>
      </trkpt>
      <trkpt lat="49.76944" lon="2.19649">
        <ele>107.1</ele>
        <time>2023-08-16T07:28:38Z</time>
      </trkpt>
      <trkpt lat="49.76944" lon="2.1965">
        <ele>107.1</ele>
        <time>2023-08-16T07:28:39Z</time>
      </trkpt>
      <trkpt lat="49.76944" lon="2.19651">
        <ele>107.1</ele>
        <time>2023-08-16T07:28:40Z</time>
      </trkpt>
      <trkpt lat="49.76943" lon="2.19654">
        <ele>107.2</ele>
        <time>2023-08-16T07:28:41Z</time>
      </trkpt>
      <trkpt lat="49.76942" lon="2.19656">
        <ele>107.2</ele>
        <time>2023-08-16T07:28:42Z</time>
      </trkpt>
      <trkpt lat="49.76942" lon="2.19657">
        <ele>107.2</ele>
        <time>2023-08-16T07:28:44Z</time>
      </trkpt>
      <trkpt lat="49.76941" lon="2.19658">
        <ele>107.2</ele>
        <time>2023-08-16T07:28:45Z</time>
      </trkpt>
      <trkpt lat="49.76941" lon="2.1966">
        <ele>107.2</ele>
        <time>2023-08-16T07:28:46Z</time>
      </trkpt>
      <trkpt lat="49.76941" lon="2.19661">
        <ele>107.2</ele>
        <time>2023-08-16T07:28:47Z</time>
      </trkpt>
      <trkpt lat="49.7694" lon="2.19663">
        <ele>107.2</ele>
        <time>2023-08-16T07:28:48Z</time>
      </trkpt>
      <trkpt lat="49.7694" lon="2.19665">
        <ele>107.2</ele>
        <time>2023-08-16T07:28:49Z</time>
      </trkpt>
      <trkpt lat="49.76939" lon="2.19667">
        <ele>107.2</ele>
        <time>2023-08-16T07:28:51Z</time>
      </trkpt>
      <trkpt lat="49.76939" lon="2.1967">
        <ele>107.2</ele>
        <time>2023-08-16T07:28:52Z</time>
      </trkpt>
      <trkpt lat="49.76938" lon="2.19671">
        <ele>107.2</ele>
        <time>2023-08-16T07:28:53Z</time>
      </trkpt>
      <trkpt lat="49.76938" lon="2.19673">
        <ele>107.2</ele>
        <time>2023-08-16T07:28:54Z</time>
      </trkpt>
      <trkpt lat="49.76938" lon="2.19675">
        <ele>107.2</ele>
        <time>2023-08-16T07:28:55Z</time>
      </trkpt>
      <trkpt lat="49.76937" lon="2.19676">
        <ele>107.2</ele>
        <time>2023-08-16T07:28:56Z</time>
      </trkpt>
      <trkpt lat="49.76937" lon="2.19678">
        <ele>107.2</ele>
        <time>2023-08-16T07:28:58Z</time>
      </trkpt>
      <trkpt lat="49.76936" lon="2.1968">
        <ele>107.1</ele>
        <time>2023-08-16T07:28:59Z</time>
      </trkpt>
      <trkpt lat="49.76936" lon="2.19682">
        <ele>107.1</ele>
        <time>2023-08-16T07:29:00Z</time>
      </trkpt>
      <trkpt lat="49.76935" lon="2.19685">
        <ele>107.1</ele>
        <time>2023-08-16T07:29:01Z</time>
      </trkpt>
      <trkpt lat="49.76935" lon="2.19686">
        <ele>107.1</ele>
        <time>2023-08-16T07:29:02Z</time>
      </trkpt>
      <trkpt lat="49.76934" lon="2.19688">
        <ele>107.1</ele>
        <time>2023-08-16T07:29:03Z</time>
      </trkpt>
      <trkpt lat="49.76934" lon="2.19691">
        <ele>107.1</ele>
        <time>2023-08-16T07:29:05Z</time>
      </trkpt>
      <trkpt lat="49.76933" lon="2.19692">
        <ele>107</ele>
        <time>2023-08-16T07:29:06Z</time>
      </trkpt>
      <trkpt lat="49.76933" lon="2.19693">
        <ele>107</ele>
        <time>2023-08-16T07:29:07Z</time>
      </trkpt>
      <trkpt lat="49.76932" lon="2.19696">
        <ele>107</ele>
        <time>2023-08-16T07:29:08Z</time>
      </trkpt>
      <trkpt lat="49.76932" lon="2.19697">
        <ele>107</ele>
        <time>2023-08-16T07:29:09Z</time>
      </trkpt>
      <trkpt lat="49.76931" lon="2.19699">
        <ele>107</ele>
        <time>2023-08-16T07:29:10Z</time>
      </trkpt>
      <trkpt lat="49.76931" lon="2.197">
        <ele>107</ele>
        <time>2023-08-16T07:29:12Z</time>
      </trkpt>
      <trkpt lat="49.76931" lon="2.19702">
        <ele>107</ele>
        <time>2023-08-16T07:29:13Z</time>
      </trkpt>
      <trkpt lat="49.7693" lon="2.19704">
        <ele>107</ele>
        <time>2023-08-16T07:29:14Z</time>
      </trkpt>
      <trkpt lat="49.7693" lon="2.19706">
        <ele>107</ele>
        <time>2023-08-16T07:29:15Z</time>
      </trkpt>
      <trkpt lat="49.7693" lon="2.19708">
        <ele>107</ele>
        <time>2023-08-16T07:29:16Z</time>
      </trkpt>
      <trkpt lat="49.76929" lon="2.19709">
        <ele>107</ele>
        <time>2023-08-16T07:29:17Z</time>
      </trkpt>
      <trkpt lat="49.76929" lon="2.19712">
        <ele>107</ele>
        <time>2023-08-16T07:29:18Z</time>
      </trkpt>
      <trkpt lat="49.76928" lon="2.19714">
        <ele>107</ele>
        <time>2023-08-16T07:29:20Z</time>
      </trkpt>
      <trkpt lat="49.76928" lon="2.19715">
        <ele>107</ele>
        <time>2023-08-16T07:29:21Z</time>
      </trkpt>
      <trkpt lat="49.76928" lon="2.19717">
        <ele>107</ele>
        <time>2023-08-16T07:29:22Z</time>
      </trkpt>
      <trkpt lat="49.76928" lon="2.19719">
        <ele>107.1</ele>
        <time>2023-08-16T07:29:23Z</time>
      </trkpt>
      <trkpt lat="49.76927" lon="2.1972">
        <ele>107.1</ele>
        <time>2023-08-16T07:29:24Z</time>
      </trkpt>
      <trkpt lat="49.76927" lon="2.19722">
        <ele>107.1</ele>
        <time>2023-08-16T07:29:25Z</time>
      </trkpt>
      <trkpt lat="49.76927" lon="2.19723">
        <ele>107.1</ele>
        <time>2023-08-16T07:29:27Z</time>
      </trkpt>
      <trkpt lat="49.76926" lon="2.19725">
        <ele>107.1</ele>
        <time>2023-08-16T07:29:28Z</time>
      </trkpt>
      <trkpt lat="49.76926" lon="2.19728">
        <ele>107.1</ele>
        <time>2023-08-16T07:29:29Z</time>
      </trkpt>
      <trkpt lat="49.76925" lon="2.1973">
        <ele>107.1</ele>
        <time>2023-08-16T07:29:30Z</time>
      </trkpt>
      <trkpt lat="49.76925" lon="2.19731">
        <ele>107.1</ele>
        <time>2023-08-16T07:29:31Z</time>
      </trkpt>
      <trkpt lat="49.76925" lon="2.19734">
        <ele>107.2</ele>
        <time>2023-08-16T07:29:32Z</time>
      </trkpt>
      <trkpt lat="49.76924" lon="2.19735">
        <ele>107.2</ele>
        <time>2023-08-16T07:29:34Z</time>
      </trkpt>
      <trkpt lat="49.76924" lon="2.19736">
        <ele>107.2</ele>
        <time>2023-08-16T07:29:35Z</time>
      </trkpt>
      <trkpt lat="49.76923" lon="2.19739">
        <ele>107.2</ele>
        <time>2023-08-16T07:29:36Z</time>
      </trkpt>
      <trkpt lat="49.76923" lon="2.19741">
        <ele>107.2</ele>
        <time>2023-08-16T07:29:37Z</time>
      </trkpt>
      <trkpt lat="49.76923" lon="2.19742">
        <ele>107.2</ele>
        <time>2023-08-16T07:29:38Z</time>
      </trkpt>
      <trkpt lat="49.76922" lon="2.19745">
        <ele>107.2</ele>
        <time>2023-08-16T07:29:39Z</time>
      </trkpt>
      <trkpt lat="49.76921" lon="2.19746">
        <ele>107.3</ele>
        <time>2023-08-16T07:29:41Z</time>
      </trkpt>
      <trkpt lat="49.76921" lon="2.19747">
        <ele>107.3</ele>
        <time>2023-08-16T07:29:42Z</time>
      </trkpt>
      <trkpt lat="49.76921" lon="2.19749">
        <ele>107.3</ele>
        <time>2023-08-16T07:29:43Z</time>
      </trkpt>
      <trkpt lat="49.7692" lon="2.19751">
        <ele>107.3</ele>
        <time>2023-08-16T07:29:44Z</time>
      </trkpt>
      <trkpt lat="49.7692" lon="2.19752">
        <ele>107.3</ele>
        <time>2023-08-16T07:29:45Z</time>
      </trkpt>
      <trkpt lat="49.76919" lon="2.19755">
        <ele>107.3</ele>
        <time>2023-08-16T07:29:46Z</time>
      </trkpt>
      <trkpt lat="49.76919" lon="2.19756">
        <ele>107.3</ele>
        <time>2023-08-16T07:29:48Z</time>
      </trkpt>
      <trkpt lat="49.76919" lon="2.19758">
        <ele>107.3</ele>
        <time>2023-08-16T07:29:49Z</time>
      </trkpt>
      <trkpt lat="49.76918" lon="2.1976">
        <ele>107.3</ele>
        <time>2023-08-16T07:29:50Z</time>
      </trkpt>
      <trkpt lat="49.76918" lon="2.19762">
        <ele>107.3</ele>
        <time>2023-08-16T07:29:51Z</time>
      </trkpt>
      <trkpt lat="49.76918" lon="2.19764">
        <ele>107.3</ele>
        <time>2023-08-16T07:29:52Z</time>
      </trkpt>
      <trkpt lat="49.76917" lon="2.19766">
        <ele>107.3</ele>
        <time>2023-08-16T07:29:53Z</time>
      </trkpt>
      <trkpt lat="49.76917" lon="2.19768">
        <ele>107.3</ele>
        <time>2023-08-16T07:29:55Z</time>
      </trkpt>
      <trkpt lat="49.76916" lon="2.1977">
        <ele>107.3</ele>
        <time>2023-08-16T07:29:56Z</time>
      </trkpt>
      <trkpt lat="49.76915" lon="2.19772">
        <ele>107.3</ele>
        <time>2023-08-16T07:29:57Z</time>
      </trkpt>
      <trkpt lat="49.76915" lon="2.19774">
        <ele>107.3</ele>
        <time>2023-08-16T07:29:58Z</time>
      </trkpt>
      <trkpt lat="49.76914" lon="2.19776">
        <ele>107.3</ele>
        <time>2023-08-16T07:29:59Z</time>
      </trkpt>
      <trkpt lat="49.76913" lon="2.19779">
        <ele>107.3</ele>
        <time>2023-08-16T07:30:00Z</time>
      </trkpt>
      <trkpt lat="49.76913" lon="2.1978">
        <ele>107.3</ele>
        <time>2023-08-16T07:30:02Z</time>
      </trkpt>
      <trkpt lat="49.76913" lon="2.19781">
        <ele>107.3</ele>
        <time>2023-08-16T07:30:03Z</time>
      </trkpt>
      <trkpt lat="49.76912" lon="2.19784">
        <ele>107.3</ele>
        <time>2023-08-16T07:30:04Z</time>
      </trkpt>
      <trkpt lat="49.76912" lon="2.19785">
        <ele>107.3</ele>
        <time>2023-08-16T07:30:05Z</time>
      </trkpt>
      <trkpt lat="49.76911" lon="2.19787">
        <ele>107.3</ele>
        <time>2023-08-16T07:30:06Z</time>
      </trkpt>
      <trkpt lat="49.76911" lon="2.19788">
        <ele>107.3</ele>
        <time>2023-08-16T07:30:07Z</time>
      </trkpt>
      <trkpt lat="49.7691" lon="2.1979">
        <ele>107.3</ele>
        <time>2023-08-16T07:30:08Z</time>
      </trkpt>
      <trkpt lat="49.7691" lon="2.19792">
        <ele>107.3</ele>
        <time>2023-08-16T07:30:10Z</time>
      </trkpt>
      <trkpt lat="49.76909" lon="2.19794">
        <ele>107.3</ele>
        <time>2023-08-16T07:30:11Z</time>
      </trkpt>
      <trkpt lat="49.76909" lon="2.19796">
        <ele>107.3</ele>
        <time>2023-08-16T07:30:12Z</time>
      </trkpt>
      <trkpt lat="49.76908" lon="2.19797">
        <ele>107.3</ele>
        <time>2023-08-16T07:30:13Z</time>
      </trkpt>
      <trkpt lat="49.76907" lon="2.19799">
        <ele>107.3</ele>
        <time>2023-08-16T07:30:14Z</time>
      </trkpt>
      <trkpt lat="49.76906" lon="2.198">
        <ele>107.3</ele>
        <time>2023-08-16T07:30:16Z</time>
      </trkpt>
      <trkpt lat="49.76905" lon="2.19803">
        <ele>107.3</ele>
        <time>2023-08-16T07:30:17Z</time>
      </trkpt>
      <trkpt lat="49.76905" lon="2.19804">
        <ele>107.3</ele>
        <time>2023-08-16T07:30:18Z</time>
      </trkpt>
      <trkpt lat="49.76905" lon="2.19805">
        <ele>107.3</ele>
        <time>2023-08-16T07:30:19Z</time>
      </trkpt>
      <trkpt lat="49.76905" lon="2.19807">
        <ele>107.3</ele>
        <time>2023-08-16T07:30:20Z</time>
      </trkpt>
      <trkpt lat="49.76904" lon="2.19809">
        <ele>107.3</ele>
        <time>2023-08-16T07:30:21Z</time>
      </trkpt>
      <trkpt lat="49.76904" lon="2.19811">
        <ele>107.3</ele>
        <time>2023-08-16T07:30:22Z</time>
      </trkpt>
      <trkpt lat="49.76904" lon="2.19812">
        <ele>107.3</ele>
        <time>2023-08-16T07:30:24Z</time>
      </trkpt>
      <trkpt lat="49.76904" lon="2.19814">
        <ele>107.3</ele>
        <time>2023-08-16T07:30:25Z</time>
      </trkpt>
      <trkpt lat="49.76903" lon="2.19816">
        <ele>107.3</ele>
        <time>2023-08-16T07:30:26Z</time>
      </trkpt>
      <trkpt lat="49.76903" lon="2.19819">
        <ele>107.3</ele>
        <time>2023-08-16T07:30:27Z</time>
      </trkpt>
      <trkpt lat="49.76903" lon="2.19821">
        <ele>107.3</ele>
        <time>2023-08-16T07:30:28Z</time>
      </trkpt>
      <trkpt lat="49.76903" lon="2.19822">
        <ele>107.4</ele>
        <time>2023-08-16T07:30:29Z</time>
      </trkpt>
      <trkpt lat="49.76903" lon="2.19824">
        <ele>107.4</ele>
        <time>2023-08-16T07:30:30Z</time>
      </trkpt>
      <trkpt lat="49.76903" lon="2.19825">
        <ele>107.4</ele>
        <time>2023-08-16T07:30:31Z</time>
      </trkpt>
      <trkpt lat="49.76903" lon="2.19827">
        <ele>107.4</ele>
        <time>2023-08-16T07:30:33Z</time>
      </trkpt>
      <trkpt lat="49.76902" lon="2.19829">
        <ele>107.5</ele>
        <time>2023-08-16T07:30:34Z</time>
      </trkpt>
      <trkpt lat="49.76902" lon="2.19831">
        <ele>107.5</ele>
        <time>2023-08-16T07:30:35Z</time>
      </trkpt>
      <trkpt lat="49.76901" lon="2.19834">
        <ele>107.6</ele>
        <time>2023-08-16T07:30:36Z</time>
      </trkpt>
      <trkpt lat="49.76901" lon="2.19835">
        <ele>107.6</ele>
        <time>2023-08-16T07:30:37Z</time>
      </trkpt>
      <trkpt lat="49.769" lon="2.19837">
        <ele>107.6</ele>
        <time>2023-08-16T07:30:38Z</time>
      </trkpt>
      <trkpt lat="49.769" lon="2.19838">
        <ele>107.6</ele>
        <time>2023-08-16T07:30:39Z</time>
      </trkpt>
      <trkpt lat="49.76899" lon="2.1984">
        <ele>107.6</ele>
        <time>2023-08-16T07:30:40Z</time>
      </trkpt>
      <trkpt lat="49.76899" lon="2.19841">
        <ele>107.7</ele>
        <time>2023-08-16T07:30:42Z</time>
      </trkpt>
      <trkpt lat="49.76898" lon="2.19843">
        <ele>107.7</ele>
        <time>2023-08-16T07:30:43Z</time>
      </trkpt>
      <trkpt lat="49.76898" lon="2.19845">
        <ele>107.7</ele>
        <time>2023-08-16T07:30:44Z</time>
      </trkpt>
      <trkpt lat="49.76897" lon="2.19847">
        <ele>107.7</ele>
        <time>2023-08-16T07:30:45Z</time>
      </trkpt>
      <trkpt lat="49.76897" lon="2.19849">
        <ele>107.7</ele>
        <time>2023-08-16T07:30:46Z</time>
      </trkpt>
      <trkpt lat="49.76897" lon="2.19851">
        <ele>107.7</ele>
        <time>2023-08-16T07:30:47Z</time>
      </trkpt>
      <trkpt lat="49.76896" lon="2.19853">
        <ele>107.7</ele>
        <time>2023-08-16T07:30:49Z</time>
      </trkpt>
      <trkpt lat="49.76896" lon="2.19854">
        <ele>107.7</ele>
        <time>2023-08-16T07:30:50Z</time>
      </trkpt>
      <trkpt lat="49.76895" lon="2.19856">
        <ele>107.7</ele>
        <time>2023-08-16T07:30:51Z</time>
      </trkpt>
      <trkpt lat="49.76895" lon="2.19858">
        <ele>107.7</ele>
        <time>2023-08-16T07:30:52Z</time>
      </trkpt>
      <trkpt lat="49.76894" lon="2.19859">
        <ele>107.7</ele>
        <time>2023-08-16T07:30:53Z</time>
      </trkpt>
      <trkpt lat="49.76894" lon="2.19861">
        <ele>107.7</ele>
        <time>2023-08-16T07:30:54Z</time>
      </trkpt>
      <trkpt lat="49.76894" lon="2.19862">
        <ele>107.7</ele>
        <time>2023-08-16T07:30:56Z</time>
      </trkpt>
      <trkpt lat="49.76893" lon="2.19864">
        <ele>107.7</ele>
        <time>2023-08-16T07:30:57Z</time>
      </trkpt>
      <trkpt lat="49.76893" lon="2.19867">
        <ele>107.7</ele>
        <time>2023-08-16T07:30:58Z</time>
      </trkpt>
      <trkpt lat="49.76893" lon="2.19869">
        <ele>107.7</ele>
        <time>2023-08-16T07:30:59Z</time>
      </trkpt>
      <trkpt lat="49.76892" lon="2.1987">
        <ele>107.6</ele>
        <time>2023-08-16T07:31:00Z</time>
      </trkpt>
      <trkpt lat="49.76892" lon="2.19873">
        <ele>107.6</ele>
        <time>2023-08-16T07:31:01Z</time>
      </trkpt>
      <trkpt lat="49.76892" lon="2.19874">
        <ele>107.6</ele>
        <time>2023-08-16T07:31:03Z</time>
      </trkpt>
      <trkpt lat="49.76892" lon="2.19876">
        <ele>107.6</ele>
        <time>2023-08-16T07:31:04Z</time>
      </trkpt>
      <trkpt lat="49.76891" lon="2.19879">
        <ele>107.6</ele>
        <time>2023-08-16T07:31:05Z</time>
      </trkpt>
      <trkpt lat="49.76891" lon="2.1988">
        <ele>107.6</ele>
        <time>2023-08-16T07:31:06Z</time>
      </trkpt>
      <trkpt lat="49.76891" lon="2.19882">
        <ele>107.6</ele>
        <time>2023-08-16T07:31:07Z</time>
      </trkpt>
      <trkpt lat="49.76891" lon="2.19883">
        <ele>107.5</ele>
        <time>2023-08-16T07:31:09Z</time>
      </trkpt>
      <trkpt lat="49.76891" lon="2.19885">
        <ele>107.5</ele>
        <time>2023-08-16T07:31:10Z</time>
      </trkpt>
      <trkpt lat="49.76892" lon="2.19887">
        <ele>107.5</ele>
        <time>2023-08-16T07:31:11Z</time>
      </trkpt>
      <trkpt lat="49.76892" lon="2.19888">
        <ele>107.5</ele>
        <time>2023-08-16T07:31:12Z</time>
      </trkpt>
      <trkpt lat="49.76891" lon="2.1989">
        <ele>107.5</ele>
        <time>2023-08-16T07:31:13Z</time>
      </trkpt>
      <trkpt lat="49.76891" lon="2.19891">
        <ele>107.5</ele>
        <time>2023-08-16T07:31:14Z</time>
      </trkpt>
      <trkpt lat="49.7689" lon="2.19893">
        <ele>107.5</ele>
        <time>2023-08-16T07:31:16Z</time>
      </trkpt>
      <trkpt lat="49.7689" lon="2.19894">
        <ele>107.5</ele>
        <time>2023-08-16T07:31:17Z</time>
      </trkpt>
      <trkpt lat="49.7689" lon="2.19895">
        <ele>107.5</ele>
        <time>2023-08-16T07:31:19Z</time>
      </trkpt>
      <trkpt lat="49.7689" lon="2.19895">
        <ele>107.5</ele>
        <time>2023-08-16T07:31:20Z</time>
      </trkpt>
      <trkpt lat="49.7689" lon="2.19895">
        <ele>107.5</ele>
        <time>2023-08-16T07:31:21Z</time>
      </trkpt>
      <trkpt lat="49.7689" lon="2.19895">
        <ele>107.5</ele>
        <time>2023-08-16T07:31:23Z</time>
      </trkpt>
      <trkpt lat="49.7689" lon="2.19895">
        <ele>107.5</ele>
        <time>2023-08-16T07:31:24Z</time>
      </trkpt>
      <trkpt lat="49.7689" lon="2.19895">
        <ele>107.5</ele>
        <time>2023-08-16T07:31:25Z</time>
      </trkpt>
      <trkpt lat="49.7689" lon="2.19895">
        <ele>107.5</ele>
        <time>2023-08-16T07:31:27Z</time>
      </trkpt>
      <trkpt lat="49.7689" lon="2.19896">
        <ele>107.5</ele>
        <time>2023-08-16T07:31:28Z</time>
      </trkpt>
      <trkpt lat="49.7689" lon="2.19897">
        <ele>107.5</ele>
        <time>2023-08-16T07:31:29Z</time>
      </trkpt>
      <trkpt lat="49.7689" lon="2.19898">
        <ele>107.5</ele>
        <time>2023-08-16T07:31:30Z</time>
      </trkpt>
      <trkpt lat="49.7689" lon="2.19899">
        <ele>107.5</ele>
        <time>2023-08-16T07:31:31Z</time>
      </trkpt>
      <trkpt lat="49.7689" lon="2.19899">
        <ele>107.5</ele>
        <time>2023-08-16T07:31:32Z</time>
      </trkpt>
      <trkpt lat="49.7689" lon="2.19898">
        <ele>107.5</ele>
        <time>2023-08-16T07:31:34Z</time>
      </trkpt>
      <trkpt lat="49.7689" lon="2.19898">
        <ele>107.5</ele>
        <time>2023-08-16T07:31:35Z</time>
      </trkpt>
      <trkpt lat="49.7689" lon="2.19898">
        <ele>107.5</ele>
        <time>2023-08-16T07:31:37Z</time>
      </trkpt>
      <trkpt lat="49.7689" lon="2.19898">
        <ele>107.5</ele>
        <time>2023-08-16T07:31:38Z</time>
      </trkpt>
      <trkpt lat="49.7689" lon="2.19897">
        <ele>107.5</ele>
        <time>2023-08-16T07:31:39Z</time>
      </trkpt>
      <trkpt lat="49.7689" lon="2.19897">
        <ele>107.5</ele>
        <time>2023-08-16T07:31:41Z</time>
      </trkpt>
      <trkpt lat="49.7689" lon="2.19897">
        <ele>107.5</ele>
        <time>2023-08-16T07:31:42Z</time>
      </trkpt>
      <trkpt lat="49.7689" lon="2.19897">
        <ele>107.5</ele>
        <time>2023-08-16T07:31:44Z</time>
      </trkpt>
      <trkpt lat="49.7689" lon="2.19897">
        <ele>107.5</ele>
        <time>2023-08-16T07:31:45Z</time>
      </trkpt>
      <trkpt lat="49.7689" lon="2.19896">
        <ele>107.5</ele>
        <time>2023-08-16T07:31:47Z</time>
      </trkpt>
      <trkpt lat="49.7689" lon="2.19896">
        <ele>107.5</ele>
        <time>2023-08-16T07:31:48Z</time>
      </trkpt>
      <trkpt lat="49.7689" lon="2.19896">
        <ele>107.5</ele>
        <time>2023-08-16T07:31:50Z</time>
      </trkpt>
      <trkpt lat="49.7689" lon="2.19896">
        <ele>107.5</ele>
        <time>2023-08-16T07:31:51Z</time>
      </trkpt>
      <trkpt lat="49.7689" lon="2.19895">
        <ele>107.5</ele>
        <time>2023-08-16T07:31:52Z</time>
      </trkpt>
      <trkpt lat="49.7689" lon="2.19895">
        <ele>107.5</ele>
        <time>2023-08-16T07:31:53Z</time>
      </trkpt>
      <trkpt lat="49.7689" lon="2.19895">
        <ele>107.5</ele>
        <time>2023-08-16T07:31:54Z</time>
      </trkpt>
      <trkpt lat="49.7689" lon="2.19895">
        <ele>107.5</ele>
        <time>2023-08-16T07:31:55Z</time>
      </trkpt>
      <trkpt lat="49.7689" lon="2.19895">
        <ele>107.5</ele>
        <time>2023-08-16T07:31:56Z</time>
      </trkpt>
      <trkpt lat="49.7689" lon="2.19894">
        <ele>107.5</ele>
        <time>2023-08-16T07:31:57Z</time>
      </trkpt>
      <trkpt lat="49.7689" lon="2.19894">
        <ele>107.5</ele>
        <time>2023-08-16T07:31:58Z</time>
      </trkpt>
      <trkpt lat="49.7689" lon="2.19894">
        <ele>107.5</ele>
        <time>2023-08-16T07:31:59Z</time>
      </trkpt>
      <trkpt lat="49.7689" lon="2.19894">
        <ele>107.5</ele>
        <time>2023-08-16T07:32:00Z</time>
      </trkpt>
      <trkpt lat="49.7689" lon="2.19893">
        <ele>107.5</ele>
        <time>2023-08-16T07:32:01Z</time>
      </trkpt>
      <trkpt lat="49.7689" lon="2.19893">
        <ele>107.5</ele>
        <time>2023-08-16T07:32:02Z</time>
      </trkpt>
      <trkpt lat="49.7689" lon="2.19893">
        <ele>107.5</ele>
        <time>2023-08-16T07:32:03Z</time>
      </trkpt>
      <trkpt lat="49.7689" lon="2.19893">
        <ele>107.5</ele>
        <time>2023-08-16T07:32:04Z</time>
      </trkpt>
      <trkpt lat="49.7689" lon="2.19892">
        <ele>107.5</ele>
        <time>2023-08-16T07:32:05Z</time>
      </trkpt>
      <trkpt lat="49.7689" lon="2.19892">
        <ele>107.5</ele>
        <time>2023-08-16T07:32:06Z</time>
      </trkpt>
      <trkpt lat="49.7689" lon="2.19892">
        <ele>107.5</ele>
        <time>2023-08-16T07:32:07Z</time>
      </trkpt>
      <trkpt lat="49.76889" lon="2.19895">
        <ele>107.5</ele>
        <time>2023-08-16T07:32:09Z</time>
      </trkpt>
      <trkpt lat="49.7689" lon="2.19894">
        <ele>107.6</ele>
        <time>2023-08-16T07:32:10Z</time>
      </trkpt>
      <trkpt lat="49.7689" lon="2.19894">
        <ele>107.6</ele>
        <time>2023-08-16T07:32:12Z</time>
      </trkpt>
      <trkpt lat="49.76891" lon="2.19893">
        <ele>107.6</ele>
        <time>2023-08-16T07:32:13Z</time>
      </trkpt>
      <trkpt lat="49.76892" lon="2.19892">
        <ele>107.6</ele>
        <time>2023-08-16T07:32:14Z</time>
      </trkpt>
      <trkpt lat="49.76893" lon="2.1989">
        <ele>107.6</ele>
        <time>2023-08-16T07:32:15Z</time>
      </trkpt>
      <trkpt lat="49.76893" lon="2.19889">
        <ele>107.6</ele>
        <time>2023-08-16T07:32:17Z</time>
      </trkpt>
      <trkpt lat="49.76893" lon="2.19889">
        <ele>107.6</ele>
        <time>2023-08-16T07:32:18Z</time>
      </trkpt>
      <trkpt lat="49.76892" lon="2.19888">
        <ele>107.6</ele>
        <time>2023-08-16T07:32:20Z</time>
      </trkpt>
      <trkpt lat="49.76892" lon="2.19887">
        <ele>107.6</ele>
        <time>2023-08-16T07:32:21Z</time>
      </trkpt>
      <trkpt lat="49.76891" lon="2.19887">
        <ele>107.6</ele>
        <time>2023-08-16T07:32:22Z</time>
      </trkpt>
      <trkpt lat="49.76891" lon="2.19887">
        <ele>107.6</ele>
        <time>2023-08-16T07:32:24Z</time>
      </trkpt>
      <trkpt lat="49.76891" lon="2.19887">
        <ele>107.6</ele>
        <time>2023-08-16T07:32:25Z</time>
      </trkpt>
      <trkpt lat="49.7689" lon="2.19887">
        <ele>107.6</ele>
        <time>2023-08-16T07:32:27Z</time>
      </trkpt>
      <trkpt lat="49.7689" lon="2.19887">
        <ele>107.6</ele>
        <time>2023-08-16T07:32:28Z</time>
      </trkpt>
      <trkpt lat="49.7689" lon="2.19886">
        <ele>107.6</ele>
        <time>2023-08-16T07:32:30Z</time>
      </trkpt>
      <trkpt lat="49.7689" lon="2.19886">
        <ele>107.6</ele>
        <time>2023-08-16T07:32:31Z</time>
      </trkpt>
      <trkpt lat="49.7689" lon="2.19886">
        <ele>107.6</ele>
        <time>2023-08-16T07:32:33Z</time>
      </trkpt>
      <trkpt lat="49.7689" lon="2.19886">
        <ele>107.6</ele>
        <time>2023-08-16T07:32:34Z</time>
      </trkpt>
      <trkpt lat="49.7689" lon="2.19886">
        <ele>107.6</ele>
        <time>2023-08-16T07:32:35Z</time>
      </trkpt>
      <trkpt lat="49.76891" lon="2.19885">
        <ele>107.6</ele>
        <time>2023-08-16T07:32:36Z</time>
      </trkpt>
      <trkpt lat="49.76891" lon="2.19885">
        <ele>107.6</ele>
        <time>2023-08-16T07:32:37Z</time>
      </trkpt>
      <trkpt lat="49.76891" lon="2.19885">
        <ele>107.6</ele>
        <time>2023-08-16T07:32:38Z</time>
      </trkpt>
      <trkpt lat="49.76891" lon="2.19885">
        <ele>107.6</ele>
        <time>2023-08-16T07:32:39Z</time>
      </trkpt>
      <trkpt lat="49.7689" lon="2.19887">
        <ele>107.6</ele>
        <time>2023-08-16T07:32:41Z</time>
      </trkpt>
      <trkpt lat="49.7689" lon="2.19887">
        <ele>107.6</ele>
        <time>2023-08-16T07:32:42Z</time>
      </trkpt>
      <trkpt lat="49.7689" lon="2.19887">
        <ele>107.6</ele>
        <time>2023-08-16T07:32:43Z</time>
      </trkpt>
      <trkpt lat="49.7689" lon="2.19888">
        <ele>107.6</ele>
        <time>2023-08-16T07:32:44Z</time>
      </trkpt>
      <trkpt lat="49.7689" lon="2.19889">
        <ele>107.6</ele>
        <time>2023-08-16T07:32:45Z</time>
      </trkpt>
      <trkpt lat="49.7689" lon="2.19889">
        <ele>107.6</ele>
        <time>2023-08-16T07:32:47Z</time>
      </trkpt>
      <trkpt lat="49.7689" lon="2.1989">
        <ele>107.6</ele>
        <time>2023-08-16T07:32:48Z</time>
      </trkpt>
      <trkpt lat="49.76891" lon="2.1989">
        <ele>107.6</ele>
        <time>2023-08-16T07:32:49Z</time>
      </trkpt>
      <trkpt lat="49.76891" lon="2.19891">
        <ele>107.6</ele>
        <time>2023-08-16T07:32:50Z</time>
      </trkpt>
      <trkpt lat="49.76891" lon="2.19892">
        <ele>107.6</ele>
        <time>2023-08-16T07:32:51Z</time>
      </trkpt>
      <trkpt lat="49.76891" lon="2.19894">
        <ele>107.6</ele>
        <time>2023-08-16T07:32:52Z</time>
      </trkpt>
      <trkpt lat="49.76891" lon="2.19895">
        <ele>107.7</ele>
        <time>2023-08-16T07:32:53Z</time>
      </trkpt>
      <trkpt lat="49.76891" lon="2.19898">
        <ele>107.7</ele>
        <time>2023-08-16T07:32:55Z</time>
      </trkpt>
      <trkpt lat="49.7689" lon="2.19899">
        <ele>107.7</ele>
        <time>2023-08-16T07:32:56Z</time>
      </trkpt>
      <trkpt lat="49.7689" lon="2.19901">
        <ele>107.7</ele>
        <time>2023-08-16T07:32:57Z</time>
      </trkpt>
      <trkpt lat="49.76889" lon="2.19903">
        <ele>107.7</ele>
        <time>2023-08-16T07:32:59Z</time>
      </trkpt>
      <trkpt lat="49.76889" lon="2.19904">
        <ele>107.7</ele>
        <time>2023-08-16T07:33:00Z</time>
      </trkpt>
      <trkpt lat="49.76889" lon="2.19906">
        <ele>107.7</ele>
        <time>2023-08-16T07:33:01Z</time>
      </trkpt>
      <trkpt lat="49.76889" lon="2.19907">
        <ele>107.7</ele>
        <time>2023-08-16T07:33:02Z</time>
      </trkpt>
      <trkpt lat="49.76888" lon="2.19909">
        <ele>107.7</ele>
        <time>2023-08-16T07:33:03Z</time>
      </trkpt>
      <trkpt lat="49.76888" lon="2.19911">
        <ele>107.7</ele>
        <time>2023-08-16T07:33:04Z</time>
      </trkpt>
      <trkpt lat="49.76888" lon="2.19912">
        <ele>107.7</ele>
        <time>2023-08-16T07:33:05Z</time>
      </trkpt>
      <trkpt lat="49.76888" lon="2.19913">
        <ele>107.7</ele>
        <time>2023-08-16T07:33:07Z</time>
      </trkpt>
      <trkpt lat="49.76888" lon="2.19914">
        <ele>107.7</ele>
        <time>2023-08-16T07:33:08Z</time>
      </trkpt>
      <trkpt lat="49.76888" lon="2.19915">
        <ele>107.7</ele>
        <time>2023-08-16T07:33:09Z</time>
      </trkpt>
      <trkpt lat="49.76888" lon="2.19917">
        <ele>107.7</ele>
        <time>2023-08-16T07:33:10Z</time>
      </trkpt>
      <trkpt lat="49.76887" lon="2.19919">
        <ele>107.7</ele>
        <time>2023-08-16T07:33:11Z</time>
      </trkpt>
      <trkpt lat="49.76887" lon="2.1992">
        <ele>107.7</ele>
        <time>2023-08-16T07:33:12Z</time>
      </trkpt>
      <trkpt lat="49.76887" lon="2.19921">
        <ele>107.7</ele>
        <time>2023-08-16T07:33:13Z</time>
      </trkpt>
      <trkpt lat="49.76887" lon="2.19922">
        <ele>107.7</ele>
        <time>2023-08-16T07:33:14Z</time>
      </trkpt>
      <trkpt lat="49.76887" lon="2.19923">
        <ele>107.7</ele>
        <time>2023-08-16T07:33:16Z</time>
      </trkpt>
      <trkpt lat="49.76887" lon="2.19923">
        <ele>107.7</ele>
        <time>2023-08-16T07:33:17Z</time>
      </trkpt>
      <trkpt lat="49.76886" lon="2.19927">
        <ele>107.8</ele>
        <time>2023-08-16T07:33:19Z</time>
      </trkpt>
      <trkpt lat="49.76886" lon="2.19929">
        <ele>107.8</ele>
        <time>2023-08-16T07:33:20Z</time>
      </trkpt>
      <trkpt lat="49.76885" lon="2.19933">
        <ele>107.8</ele>
        <time>2023-08-16T07:33:21Z</time>
      </trkpt>
      <trkpt lat="49.76885" lon="2.19934">
        <ele>107.8</ele>
        <time>2023-08-16T07:33:22Z</time>
      </trkpt>
      <trkpt lat="49.76885" lon="2.19938">
        <ele>107.9</ele>
        <time>2023-08-16T07:33:24Z</time>
      </trkpt>
      <trkpt lat="49.76885" lon="2.19941">
        <ele>107.9</ele>
        <time>2023-08-16T07:33:26Z</time>
      </trkpt>
      <trkpt lat="49.76885" lon="2.19941">
        <ele>107.9</ele>
        <time>2023-08-16T07:33:27Z</time>
      </trkpt>
      <trkpt lat="49.76885" lon="2.19941">
        <ele>107.9</ele>
        <time>2023-08-16T07:33:28Z</time>
      </trkpt>
      <trkpt lat="49.76885" lon="2.19941">
        <ele>107.9</ele>
        <time>2023-08-16T07:33:30Z</time>
      </trkpt>
      <trkpt lat="49.76886" lon="2.19941">
        <ele>107.9</ele>
        <time>2023-08-16T07:33:31Z</time>
      </trkpt>
      <trkpt lat="49.76886" lon="2.19941">
        <ele>107.9</ele>
        <time>2023-08-16T07:33:33Z</time>
      </trkpt>
      <trkpt lat="49.76886" lon="2.1994">
        <ele>107.9</ele>
        <time>2023-08-16T07:33:34Z</time>
      </trkpt>
      <trkpt lat="49.76886" lon="2.1994">
        <ele>107.9</ele>
        <time>2023-08-16T07:33:36Z</time>
      </trkpt>
      <trkpt lat="49.76886" lon="2.1994">
        <ele>107.9</ele>
        <time>2023-08-16T07:33:37Z</time>
      </trkpt>
      <trkpt lat="49.76887" lon="2.19941">
        <ele>107.9</ele>
        <time>2023-08-16T07:33:38Z</time>
      </trkpt>
      <trkpt lat="49.76887" lon="2.19941">
        <ele>107.9</ele>
        <time>2023-08-16T07:33:40Z</time>
      </trkpt>
      <trkpt lat="49.76887" lon="2.19942">
        <ele>107.9</ele>
        <time>2023-08-16T07:33:41Z</time>
      </trkpt>
      <trkpt lat="49.76887" lon="2.19943">
        <ele>107.9</ele>
        <time>2023-08-16T07:33:42Z</time>
      </trkpt>
      <trkpt lat="49.76887" lon="2.19944">
        <ele>107.9</ele>
        <time>2023-08-16T07:33:43Z</time>
      </trkpt>
      <trkpt lat="49.76887" lon="2.19945">
        <ele>107.9</ele>
        <time>2023-08-16T07:33:44Z</time>
      </trkpt>
      <trkpt lat="49.76886" lon="2.19947">
        <ele>108</ele>
        <time>2023-08-16T07:33:46Z</time>
      </trkpt>
      <trkpt lat="49.76886" lon="2.19949">
        <ele>108</ele>
        <time>2023-08-16T07:33:47Z</time>
      </trkpt>
      <trkpt lat="49.76886" lon="2.1995">
        <ele>108</ele>
        <time>2023-08-16T07:33:48Z</time>
      </trkpt>
      <trkpt lat="49.76886" lon="2.19952">
        <ele>108</ele>
        <time>2023-08-16T07:33:49Z</time>
      </trkpt>
      <trkpt lat="49.76886" lon="2.19954">
        <ele>108</ele>
        <time>2023-08-16T07:33:50Z</time>
      </trkpt>
      <trkpt lat="49.76886" lon="2.19957">
        <ele>108</ele>
        <time>2023-08-16T07:33:51Z</time>
      </trkpt>
      <trkpt lat="49.76885" lon="2.19959">
        <ele>108</ele>
        <time>2023-08-16T07:33:53Z</time>
      </trkpt>
      <trkpt lat="49.76885" lon="2.1996">
        <ele>108.1</ele>
        <time>2023-08-16T07:33:54Z</time>
      </trkpt>
      <trkpt lat="49.76885" lon="2.19962">
        <ele>108.1</ele>
        <time>2023-08-16T07:33:55Z</time>
      </trkpt>
      <trkpt lat="49.76885" lon="2.19964">
        <ele>108.1</ele>
        <time>2023-08-16T07:33:56Z</time>
      </trkpt>
      <trkpt lat="49.76884" lon="2.19966">
        <ele>108.1</ele>
        <time>2023-08-16T07:33:58Z</time>
      </trkpt>
      <trkpt lat="49.76884" lon="2.19968">
        <ele>108.1</ele>
        <time>2023-08-16T07:33:59Z</time>
      </trkpt>
      <trkpt lat="49.76884" lon="2.19971">
        <ele>108.1</ele>
        <time>2023-08-16T07:34:00Z</time>
      </trkpt>
      <trkpt lat="49.76884" lon="2.19973">
        <ele>108.2</ele>
        <time>2023-08-16T07:34:01Z</time>
      </trkpt>
      <trkpt lat="49.76884" lon="2.19975">
        <ele>108.2</ele>
        <time>2023-08-16T07:34:02Z</time>
      </trkpt>
      <trkpt lat="49.76884" lon="2.19977">
        <ele>108.2</ele>
        <time>2023-08-16T07:34:03Z</time>
      </trkpt>
      <trkpt lat="49.76884" lon="2.19979">
        <ele>108.2</ele>
        <time>2023-08-16T07:34:04Z</time>
      </trkpt>
      <trkpt lat="49.76884" lon="2.19981">
        <ele>108.2</ele>
        <time>2023-08-16T07:34:05Z</time>
      </trkpt>
      <trkpt lat="49.76883" lon="2.19984">
        <ele>108.3</ele>
        <time>2023-08-16T07:34:07Z</time>
      </trkpt>
      <trkpt lat="49.76883" lon="2.19985">
        <ele>108.3</ele>
        <time>2023-08-16T07:34:08Z</time>
      </trkpt>
      <trkpt lat="49.76883" lon="2.19987">
        <ele>108.3</ele>
        <time>2023-08-16T07:34:09Z</time>
      </trkpt>
      <trkpt lat="49.76883" lon="2.19989">
        <ele>108.3</ele>
        <time>2023-08-16T07:34:10Z</time>
      </trkpt>
      <trkpt lat="49.76882" lon="2.19991">
        <ele>108.4</ele>
        <time>2023-08-16T07:34:11Z</time>
      </trkpt>
      <trkpt lat="49.76882" lon="2.19993">
        <ele>108.4</ele>
        <time>2023-08-16T07:34:12Z</time>
      </trkpt>
      <trkpt lat="49.76882" lon="2.19995">
        <ele>108.4</ele>
        <time>2023-08-16T07:34:13Z</time>
      </trkpt>
      <trkpt lat="49.76882" lon="2.19996">
        <ele>108.4</ele>
        <time>2023-08-16T07:34:14Z</time>
      </trkpt>
      <trkpt lat="49.76882" lon="2.2">
        <ele>108.5</ele>
        <time>2023-08-16T07:34:15Z</time>
      </trkpt>
      <trkpt lat="49.76882" lon="2.20002">
        <ele>108.5</ele>
        <time>2023-08-16T07:34:17Z</time>
      </trkpt>
      <trkpt lat="49.76881" lon="2.20004">
        <ele>108.5</ele>
        <time>2023-08-16T07:34:18Z</time>
      </trkpt>
      <trkpt lat="49.76881" lon="2.20005">
        <ele>108.6</ele>
        <time>2023-08-16T07:34:19Z</time>
      </trkpt>
      <trkpt lat="49.76881" lon="2.20007">
        <ele>108.6</ele>
        <time>2023-08-16T07:34:20Z</time>
      </trkpt>
      <trkpt lat="49.76881" lon="2.20011">
        <ele>108.6</ele>
        <time>2023-08-16T07:34:21Z</time>
      </trkpt>
      <trkpt lat="49.7688" lon="2.20012">
        <ele>108.6</ele>
        <time>2023-08-16T07:34:23Z</time>
      </trkpt>
      <trkpt lat="49.7688" lon="2.20014">
        <ele>108.7</ele>
        <time>2023-08-16T07:34:24Z</time>
      </trkpt>
      <trkpt lat="49.7688" lon="2.20015">
        <ele>108.7</ele>
        <time>2023-08-16T07:34:25Z</time>
      </trkpt>
      <trkpt lat="49.7688" lon="2.20017">
        <ele>108.7</ele>
        <time>2023-08-16T07:34:26Z</time>
      </trkpt>
      <trkpt lat="49.76879" lon="2.2002">
        <ele>108.8</ele>
        <time>2023-08-16T07:34:27Z</time>
      </trkpt>
      <trkpt lat="49.76879" lon="2.20022">
        <ele>108.8</ele>
        <time>2023-08-16T07:34:28Z</time>
      </trkpt>
      <trkpt lat="49.76879" lon="2.20023">
        <ele>108.8</ele>
        <time>2023-08-16T07:34:29Z</time>
      </trkpt>
      <trkpt lat="49.76878" lon="2.20026">
        <ele>108.8</ele>
        <time>2023-08-16T07:34:31Z</time>
      </trkpt>
      <trkpt lat="49.76878" lon="2.20028">
        <ele>108.8</ele>
        <time>2023-08-16T07:34:32Z</time>
      </trkpt>
      <trkpt lat="49.76877" lon="2.2003">
        <ele>108.9</ele>
        <time>2023-08-16T07:34:33Z</time>
      </trkpt>
      <trkpt lat="49.76877" lon="2.20032">
        <ele>108.9</ele>
        <time>2023-08-16T07:34:34Z</time>
      </trkpt>
      <trkpt lat="49.76877" lon="2.20034">
        <ele>108.9</ele>
        <time>2023-08-16T07:34:35Z</time>
      </trkpt>
      <trkpt lat="49.76876" lon="2.20037">
        <ele>108.9</ele>
        <time>2023-08-16T07:34:37Z</time>
      </trkpt>
      <trkpt lat="49.76876" lon="2.20039">
        <ele>109</ele>
        <time>2023-08-16T07:34:38Z</time>
      </trkpt>
      <trkpt lat="49.76876" lon="2.20041">
        <ele>109</ele>
        <time>2023-08-16T07:34:39Z</time>
      </trkpt>
      <trkpt lat="49.76875" lon="2.20044">
        <ele>109</ele>
        <time>2023-08-16T07:34:40Z</time>
      </trkpt>
      <trkpt lat="49.76875" lon="2.20045">
        <ele>109.1</ele>
        <time>2023-08-16T07:34:41Z</time>
      </trkpt>
      <trkpt lat="49.76875" lon="2.20047">
        <ele>109.1</ele>
        <time>2023-08-16T07:34:42Z</time>
      </trkpt>
      <trkpt lat="49.76874" lon="2.20048">
        <ele>109.1</ele>
        <time>2023-08-16T07:34:43Z</time>
      </trkpt>
      <trkpt lat="49.76874" lon="2.2005">
        <ele>109.1</ele>
        <time>2023-08-16T07:34:44Z</time>
      </trkpt>
      <trkpt lat="49.76874" lon="2.20051">
        <ele>109.2</ele>
        <time>2023-08-16T07:34:45Z</time>
      </trkpt>
      <trkpt lat="49.76873" lon="2.20053">
        <ele>109.2</ele>
        <time>2023-08-16T07:34:47Z</time>
      </trkpt>
      <trkpt lat="49.76873" lon="2.20056">
        <ele>109.2</ele>
        <time>2023-08-16T07:34:48Z</time>
      </trkpt>
      <trkpt lat="49.76872" lon="2.20058">
        <ele>109.3</ele>
        <time>2023-08-16T07:34:49Z</time>
      </trkpt>
      <trkpt lat="49.76872" lon="2.2006">
        <ele>109.3</ele>
        <time>2023-08-16T07:34:50Z</time>
      </trkpt>
      <trkpt lat="49.76872" lon="2.20062">
        <ele>109.3</ele>
        <time>2023-08-16T07:34:52Z</time>
      </trkpt>
      <trkpt lat="49.76871" lon="2.20064">
        <ele>109.4</ele>
        <time>2023-08-16T07:34:53Z</time>
      </trkpt>
      <trkpt lat="49.76871" lon="2.20065">
        <ele>109.4</ele>
        <time>2023-08-16T07:34:54Z</time>
      </trkpt>
      <trkpt lat="49.76871" lon="2.20067">
        <ele>109.4</ele>
        <time>2023-08-16T07:34:55Z</time>
      </trkpt>
      <trkpt lat="49.7687" lon="2.2007">
        <ele>109.5</ele>
        <time>2023-08-16T07:34:57Z</time>
      </trkpt>
      <trkpt lat="49.7687" lon="2.20071">
        <ele>109.5</ele>
        <time>2023-08-16T07:34:58Z</time>
      </trkpt>
      <trkpt lat="49.7687" lon="2.20072">
        <ele>109.5</ele>
        <time>2023-08-16T07:34:59Z</time>
      </trkpt>
      <trkpt lat="49.76869" lon="2.20075">
        <ele>109.6</ele>
        <time>2023-08-16T07:35:00Z</time>
      </trkpt>
      <trkpt lat="49.76869" lon="2.20077">
        <ele>109.6</ele>
        <time>2023-08-16T07:35:01Z</time>
      </trkpt>
      <trkpt lat="49.76868" lon="2.20078">
        <ele>109.7</ele>
        <time>2023-08-16T07:35:02Z</time>
      </trkpt>
      <trkpt lat="49.76868" lon="2.20081">
        <ele>109.7</ele>
        <time>2023-08-16T07:35:04Z</time>
      </trkpt>
      <trkpt lat="49.76867" lon="2.20082">
        <ele>109.8</ele>
        <time>2023-08-16T07:35:05Z</time>
      </trkpt>
      <trkpt lat="49.76867" lon="2.20083">
        <ele>109.8</ele>
        <time>2023-08-16T07:35:06Z</time>
      </trkpt>
      <trkpt lat="49.76866" lon="2.20086">
        <ele>109.9</ele>
        <time>2023-08-16T07:35:07Z</time>
      </trkpt>
      <trkpt lat="49.76866" lon="2.20087">
        <ele>109.9</ele>
        <time>2023-08-16T07:35:08Z</time>
      </trkpt>
      <trkpt lat="49.76865" lon="2.20089">
        <ele>109.9</ele>
        <time>2023-08-16T07:35:09Z</time>
      </trkpt>
      <trkpt lat="49.76865" lon="2.2009">
        <ele>109.9</ele>
        <time>2023-08-16T07:35:10Z</time>
      </trkpt>
      <trkpt lat="49.76865" lon="2.20092">
        <ele>110</ele>
        <time>2023-08-16T07:35:12Z</time>
      </trkpt>
      <trkpt lat="49.76864" lon="2.20093">
        <ele>110</ele>
        <time>2023-08-16T07:35:13Z</time>
      </trkpt>
      <trkpt lat="49.76864" lon="2.20095">
        <ele>110.1</ele>
        <time>2023-08-16T07:35:14Z</time>
      </trkpt>
      <trkpt lat="49.76863" lon="2.20096">
        <ele>110.1</ele>
        <time>2023-08-16T07:35:15Z</time>
      </trkpt>
      <trkpt lat="49.76863" lon="2.20098">
        <ele>110.1</ele>
        <time>2023-08-16T07:35:16Z</time>
      </trkpt>
      <trkpt lat="49.76863" lon="2.20101">
        <ele>110.2</ele>
        <time>2023-08-16T07:35:17Z</time>
      </trkpt>
      <trkpt lat="49.76862" lon="2.20102">
        <ele>110.2</ele>
        <time>2023-08-16T07:35:18Z</time>
      </trkpt>
      <trkpt lat="49.76862" lon="2.20103">
        <ele>110.2</ele>
        <time>2023-08-16T07:35:19Z</time>
      </trkpt>
      <trkpt lat="49.76862" lon="2.20107">
        <ele>110.3</ele>
        <time>2023-08-16T07:35:20Z</time>
      </trkpt>
      <trkpt lat="49.76861" lon="2.20108">
        <ele>110.3</ele>
        <time>2023-08-16T07:35:22Z</time>
      </trkpt>
      <trkpt lat="49.76861" lon="2.20109">
        <ele>110.3</ele>
        <time>2023-08-16T07:35:23Z</time>
      </trkpt>
      <trkpt lat="49.76861" lon="2.20111">
        <ele>110.4</ele>
        <time>2023-08-16T07:35:24Z</time>
      </trkpt>
      <trkpt lat="49.76861" lon="2.20113">
        <ele>110.4</ele>
        <time>2023-08-16T07:35:25Z</time>
      </trkpt>
      <trkpt lat="49.7686" lon="2.20114">
        <ele>110.4</ele>
        <time>2023-08-16T07:35:26Z</time>
      </trkpt>
      <trkpt lat="49.7686" lon="2.20118">
        <ele>110.5</ele>
        <time>2023-08-16T07:35:27Z</time>
      </trkpt>
      <trkpt lat="49.76859" lon="2.20119">
        <ele>110.5</ele>
        <time>2023-08-16T07:35:28Z</time>
      </trkpt>
      <trkpt lat="49.76859" lon="2.2012">
        <ele>110.6</ele>
        <time>2023-08-16T07:35:29Z</time>
      </trkpt>
      <trkpt lat="49.76859" lon="2.20122">
        <ele>110.6</ele>
        <time>2023-08-16T07:35:30Z</time>
      </trkpt>
      <trkpt lat="49.76859" lon="2.20124">
        <ele>110.6</ele>
        <time>2023-08-16T07:35:32Z</time>
      </trkpt>
      <trkpt lat="49.76858" lon="2.20126">
        <ele>110.7</ele>
        <time>2023-08-16T07:35:33Z</time>
      </trkpt>
      <trkpt lat="49.76858" lon="2.20127">
        <ele>110.7</ele>
        <time>2023-08-16T07:35:34Z</time>
      </trkpt>
      <trkpt lat="49.76858" lon="2.20129">
        <ele>110.8</ele>
        <time>2023-08-16T07:35:35Z</time>
      </trkpt>
      <trkpt lat="49.76858" lon="2.20131">
        <ele>110.8</ele>
        <time>2023-08-16T07:35:36Z</time>
      </trkpt>
      <trkpt lat="49.76857" lon="2.20133">
        <ele>110.8</ele>
        <time>2023-08-16T07:35:37Z</time>
      </trkpt>
      <trkpt lat="49.76857" lon="2.20135">
        <ele>110.9</ele>
        <time>2023-08-16T07:35:38Z</time>
      </trkpt>
      <trkpt lat="49.76857" lon="2.20137">
        <ele>111</ele>
        <time>2023-08-16T07:35:40Z</time>
      </trkpt>
      <trkpt lat="49.76856" lon="2.20139">
        <ele>111</ele>
        <time>2023-08-16T07:35:41Z</time>
      </trkpt>
      <trkpt lat="49.76856" lon="2.2014">
        <ele>111.1</ele>
        <time>2023-08-16T07:35:42Z</time>
      </trkpt>
      <trkpt lat="49.76855" lon="2.20142">
        <ele>111.1</ele>
        <time>2023-08-16T07:35:44Z</time>
      </trkpt>
      <trkpt lat="49.76855" lon="2.20144">
        <ele>111.2</ele>
        <time>2023-08-16T07:35:45Z</time>
      </trkpt>
      <trkpt lat="49.76854" lon="2.20145">
        <ele>111.2</ele>
        <time>2023-08-16T07:35:46Z</time>
      </trkpt>
      <trkpt lat="49.76854" lon="2.20147">
        <ele>111.3</ele>
        <time>2023-08-16T07:35:47Z</time>
      </trkpt>
      <trkpt lat="49.76853" lon="2.20148">
        <ele>111.3</ele>
        <time>2023-08-16T07:35:48Z</time>
      </trkpt>
      <trkpt lat="49.76853" lon="2.2015">
        <ele>111.4</ele>
        <time>2023-08-16T07:35:50Z</time>
      </trkpt>
      <trkpt lat="49.76852" lon="2.20151">
        <ele>111.4</ele>
        <time>2023-08-16T07:35:51Z</time>
      </trkpt>
      <trkpt lat="49.76851" lon="2.20153">
        <ele>111.5</ele>
        <time>2023-08-16T07:35:52Z</time>
      </trkpt>
      <trkpt lat="49.76851" lon="2.20155">
        <ele>111.6</ele>
        <time>2023-08-16T07:35:53Z</time>
      </trkpt>
      <trkpt lat="49.7685" lon="2.20156">
        <ele>111.6</ele>
        <time>2023-08-16T07:35:55Z</time>
      </trkpt>
      <trkpt lat="49.7685" lon="2.20158">
        <ele>111.7</ele>
        <time>2023-08-16T07:35:56Z</time>
      </trkpt>
      <trkpt lat="49.7685" lon="2.20159">
        <ele>111.7</ele>
        <time>2023-08-16T07:35:57Z</time>
      </trkpt>
      <trkpt lat="49.76849" lon="2.2016">
        <ele>111.8</ele>
        <time>2023-08-16T07:35:58Z</time>
      </trkpt>
      <trkpt lat="49.76849" lon="2.20162">
        <ele>111.8</ele>
        <time>2023-08-16T07:35:59Z</time>
      </trkpt>
      <trkpt lat="49.76849" lon="2.20163">
        <ele>111.8</ele>
        <time>2023-08-16T07:36:00Z</time>
      </trkpt>
      <trkpt lat="49.76848" lon="2.20164">
        <ele>111.9</ele>
        <time>2023-08-16T07:36:01Z</time>
      </trkpt>
      <trkpt lat="49.76848" lon="2.20166">
        <ele>111.9</ele>
        <time>2023-08-16T07:36:03Z</time>
      </trkpt>
      <trkpt lat="49.76847" lon="2.20167">
        <ele>112</ele>
        <time>2023-08-16T07:36:04Z</time>
      </trkpt>
      <trkpt lat="49.76847" lon="2.20169">
        <ele>112</ele>
        <time>2023-08-16T07:36:05Z</time>
      </trkpt>
      <trkpt lat="49.76847" lon="2.2017">
        <ele>112.1</ele>
        <time>2023-08-16T07:36:06Z</time>
      </trkpt>
      <trkpt lat="49.76846" lon="2.20172">
        <ele>112.1</ele>
        <time>2023-08-16T07:36:07Z</time>
      </trkpt>
      <trkpt lat="49.76846" lon="2.20173">
        <ele>112.2</ele>
        <time>2023-08-16T07:36:08Z</time>
      </trkpt>
      <trkpt lat="49.76846" lon="2.20175">
        <ele>112.2</ele>
        <time>2023-08-16T07:36:10Z</time>
      </trkpt>
      <trkpt lat="49.76845" lon="2.20176">
        <ele>112.3</ele>
        <time>2023-08-16T07:36:11Z</time>
      </trkpt>
      <trkpt lat="49.76845" lon="2.20178">
        <ele>112.3</ele>
        <time>2023-08-16T07:36:12Z</time>
      </trkpt>
      <trkpt lat="49.76844" lon="2.20179">
        <ele>112.4</ele>
        <time>2023-08-16T07:36:13Z</time>
      </trkpt>
      <trkpt lat="49.76844" lon="2.20181">
        <ele>112.4</ele>
        <time>2023-08-16T07:36:14Z</time>
      </trkpt>
      <trkpt lat="49.76844" lon="2.20182">
        <ele>112.5</ele>
        <time>2023-08-16T07:36:15Z</time>
      </trkpt>
      <trkpt lat="49.76843" lon="2.20183">
        <ele>112.5</ele>
        <time>2023-08-16T07:36:16Z</time>
      </trkpt>
      <trkpt lat="49.76843" lon="2.20185">
        <ele>112.6</ele>
        <time>2023-08-16T07:36:18Z</time>
      </trkpt>
      <trkpt lat="49.76842" lon="2.20187">
        <ele>112.6</ele>
        <time>2023-08-16T07:36:19Z</time>
      </trkpt>
      <trkpt lat="49.76842" lon="2.20188">
        <ele>112.7</ele>
        <time>2023-08-16T07:36:20Z</time>
      </trkpt>
      <trkpt lat="49.76841" lon="2.2019">
        <ele>112.7</ele>
        <time>2023-08-16T07:36:21Z</time>
      </trkpt>
      <trkpt lat="49.76841" lon="2.20191">
        <ele>112.8</ele>
        <time>2023-08-16T07:36:22Z</time>
      </trkpt>
      <trkpt lat="49.7684" lon="2.20192">
        <ele>112.8</ele>
        <time>2023-08-16T07:36:23Z</time>
      </trkpt>
      <trkpt lat="49.7684" lon="2.20194">
        <ele>112.9</ele>
        <time>2023-08-16T07:36:25Z</time>
      </trkpt>
      <trkpt lat="49.76839" lon="2.20195">
        <ele>113</ele>
        <time>2023-08-16T07:36:26Z</time>
      </trkpt>
      <trkpt lat="49.76839" lon="2.20197">
        <ele>113</ele>
        <time>2023-08-16T07:36:27Z</time>
      </trkpt>
      <trkpt lat="49.76839" lon="2.20198">
        <ele>113.1</ele>
        <time>2023-08-16T07:36:28Z</time>
      </trkpt>
      <trkpt lat="49.76838" lon="2.20199">
        <ele>113.1</ele>
        <time>2023-08-16T07:36:29Z</time>
      </trkpt>
      <trkpt lat="49.76837" lon="2.202">
        <ele>113.2</ele>
        <time>2023-08-16T07:36:30Z</time>
      </trkpt>
      <trkpt lat="49.76836" lon="2.20202">
        <ele>113.3</ele>
        <time>2023-08-16T07:36:32Z</time>
      </trkpt>
      <trkpt lat="49.76836" lon="2.20203">
        <ele>113.3</ele>
        <time>2023-08-16T07:36:33Z</time>
      </trkpt>
      <trkpt lat="49.76835" lon="2.20204">
        <ele>113.4</ele>
        <time>2023-08-16T07:36:34Z</time>
      </trkpt>
      <trkpt lat="49.76834" lon="2.20206">
        <ele>113.5</ele>
        <time>2023-08-16T07:36:35Z</time>
      </trkpt>
      <trkpt lat="49.76834" lon="2.20207">
        <ele>113.5</ele>
        <time>2023-08-16T07:36:36Z</time>
      </trkpt>
      <trkpt lat="49.76833" lon="2.20209">
        <ele>113.6</ele>
        <time>2023-08-16T07:36:38Z</time>
      </trkpt>
      <trkpt lat="49.76831" lon="2.20211">
        <ele>113.8</ele>
        <time>2023-08-16T07:36:39Z</time>
      </trkpt>
      <trkpt lat="49.7683" lon="2.20214">
        <ele>113.9</ele>
        <time>2023-08-16T07:36:41Z</time>
      </trkpt>
      <trkpt lat="49.7683" lon="2.20215">
        <ele>114</ele>
        <time>2023-08-16T07:36:42Z</time>
      </trkpt>
      <trkpt lat="49.76829" lon="2.20217">
        <ele>114.1</ele>
        <time>2023-08-16T07:36:43Z</time>
      </trkpt>
      <trkpt lat="49.76828" lon="2.2022">
        <ele>114.2</ele>
        <time>2023-08-16T07:36:44Z</time>
      </trkpt>
      <trkpt lat="49.76828" lon="2.20221">
        <ele>114.3</ele>
        <time>2023-08-16T07:36:45Z</time>
      </trkpt>
      <trkpt lat="49.76828" lon="2.20222">
        <ele>114.3</ele>
        <time>2023-08-16T07:36:46Z</time>
      </trkpt>
      <trkpt lat="49.76826" lon="2.20224">
        <ele>114.5</ele>
        <time>2023-08-16T07:36:48Z</time>
      </trkpt>
      <trkpt lat="49.76826" lon="2.20225">
        <ele>114.6</ele>
        <time>2023-08-16T07:36:49Z</time>
      </trkpt>
      <trkpt lat="49.76825" lon="2.20226">
        <ele>114.6</ele>
        <time>2023-08-16T07:36:50Z</time>
      </trkpt>
      <trkpt lat="49.76825" lon="2.20228">
        <ele>114.7</ele>
        <time>2023-08-16T07:36:51Z</time>
      </trkpt>
      <trkpt lat="49.76824" lon="2.20229">
        <ele>114.8</ele>
        <time>2023-08-16T07:36:52Z</time>
      </trkpt>
      <trkpt lat="49.76823" lon="2.2023">
        <ele>114.9</ele>
        <time>2023-08-16T07:36:53Z</time>
      </trkpt>
      <trkpt lat="49.76823" lon="2.20231">
        <ele>115</ele>
        <time>2023-08-16T07:36:55Z</time>
      </trkpt>
      <trkpt lat="49.76822" lon="2.20232">
        <ele>115.1</ele>
        <time>2023-08-16T07:36:56Z</time>
      </trkpt>
      <trkpt lat="49.76821" lon="2.20234">
        <ele>115.1</ele>
        <time>2023-08-16T07:36:57Z</time>
      </trkpt>
      <trkpt lat="49.7682" lon="2.20237">
        <ele>115.3</ele>
        <time>2023-08-16T07:36:58Z</time>
      </trkpt>
      <trkpt lat="49.7682" lon="2.20238">
        <ele>115.4</ele>
        <time>2023-08-16T07:36:59Z</time>
      </trkpt>
      <trkpt lat="49.76819" lon="2.2024">
        <ele>115.5</ele>
        <time>2023-08-16T07:37:01Z</time>
      </trkpt>
      <trkpt lat="49.76819" lon="2.20241">
        <ele>115.5</ele>
        <time>2023-08-16T07:37:02Z</time>
      </trkpt>
      <trkpt lat="49.76819" lon="2.20242">
        <ele>115.6</ele>
        <time>2023-08-16T07:37:03Z</time>
      </trkpt>
      <trkpt lat="49.76818" lon="2.20244">
        <ele>115.7</ele>
        <time>2023-08-16T07:37:04Z</time>
      </trkpt>
      <trkpt lat="49.76818" lon="2.20245">
        <ele>115.8</ele>
        <time>2023-08-16T07:37:05Z</time>
      </trkpt>
      <trkpt lat="49.76817" lon="2.20247">
        <ele>115.8</ele>
        <time>2023-08-16T07:37:06Z</time>
      </trkpt>
      <trkpt lat="49.76817" lon="2.20248">
        <ele>115.9</ele>
        <time>2023-08-16T07:37:08Z</time>
      </trkpt>
      <trkpt lat="49.76816" lon="2.2025">
        <ele>116</ele>
        <time>2023-08-16T07:37:09Z</time>
      </trkpt>
      <trkpt lat="49.76815" lon="2.20251">
        <ele>116.1</ele>
        <time>2023-08-16T07:37:10Z</time>
      </trkpt>
      <trkpt lat="49.76815" lon="2.20252">
        <ele>116.2</ele>
        <time>2023-08-16T07:37:11Z</time>
      </trkpt>
      <trkpt lat="49.76814" lon="2.20253">
        <ele>116.2</ele>
        <time>2023-08-16T07:37:12Z</time>
      </trkpt>
      <trkpt lat="49.76813" lon="2.20255">
        <ele>116.3</ele>
        <time>2023-08-16T07:37:13Z</time>
      </trkpt>
      <trkpt lat="49.76813" lon="2.20256">
        <ele>116.4</ele>
        <time>2023-08-16T07:37:15Z</time>
      </trkpt>
      <trkpt lat="49.76812" lon="2.20258">
        <ele>116.5</ele>
        <time>2023-08-16T07:37:16Z</time>
      </trkpt>
      <trkpt lat="49.76812" lon="2.20259">
        <ele>116.5</ele>
        <time>2023-08-16T07:37:17Z</time>
      </trkpt>
      <trkpt lat="49.76811" lon="2.2026">
        <ele>116.6</ele>
        <time>2023-08-16T07:37:18Z</time>
      </trkpt>
      <trkpt lat="49.76811" lon="2.20263">
        <ele>116.7</ele>
        <time>2023-08-16T07:37:19Z</time>
      </trkpt>
      <trkpt lat="49.7681" lon="2.20264">
        <ele>116.8</ele>
        <time>2023-08-16T07:37:21Z</time>
      </trkpt>
      <trkpt lat="49.7681" lon="2.20265">
        <ele>116.9</ele>
        <time>2023-08-16T07:37:22Z</time>
      </trkpt>
      <trkpt lat="49.76809" lon="2.20267">
        <ele>117</ele>
        <time>2023-08-16T07:37:23Z</time>
      </trkpt>
      <trkpt lat="49.76809" lon="2.20269">
        <ele>117</ele>
        <time>2023-08-16T07:37:24Z</time>
      </trkpt>
      <trkpt lat="49.76809" lon="2.2027">
        <ele>117.1</ele>
        <time>2023-08-16T07:37:25Z</time>
      </trkpt>
      <trkpt lat="49.76808" lon="2.20272">
        <ele>117.2</ele>
        <time>2023-08-16T07:37:26Z</time>
      </trkpt>
      <trkpt lat="49.76808" lon="2.20274">
        <ele>117.3</ele>
        <time>2023-08-16T07:37:27Z</time>
      </trkpt>
      <trkpt lat="49.76807" lon="2.20276">
        <ele>117.4</ele>
        <time>2023-08-16T07:37:29Z</time>
      </trkpt>
      <trkpt lat="49.76807" lon="2.20277">
        <ele>117.5</ele>
        <time>2023-08-16T07:37:30Z</time>
      </trkpt>
      <trkpt lat="49.76806" lon="2.20279">
        <ele>117.6</ele>
        <time>2023-08-16T07:37:31Z</time>
      </trkpt>
      <trkpt lat="49.76806" lon="2.2028">
        <ele>117.7</ele>
        <time>2023-08-16T07:37:32Z</time>
      </trkpt>
      <trkpt lat="49.76806" lon="2.20282">
        <ele>117.8</ele>
        <time>2023-08-16T07:37:34Z</time>
      </trkpt>
      <trkpt lat="49.76805" lon="2.20284">
        <ele>117.9</ele>
        <time>2023-08-16T07:37:35Z</time>
      </trkpt>
      <trkpt lat="49.76805" lon="2.20286">
        <ele>118</ele>
        <time>2023-08-16T07:37:36Z</time>
      </trkpt>
      <trkpt lat="49.76805" lon="2.20287">
        <ele>118.1</ele>
        <time>2023-08-16T07:37:37Z</time>
      </trkpt>
      <trkpt lat="49.76804" lon="2.20289">
        <ele>118.2</ele>
        <time>2023-08-16T07:37:38Z</time>
      </trkpt>
      <trkpt lat="49.76804" lon="2.2029">
        <ele>118.3</ele>
        <time>2023-08-16T07:37:39Z</time>
      </trkpt>
      <trkpt lat="49.76803" lon="2.20294">
        <ele>118.5</ele>
        <time>2023-08-16T07:37:41Z</time>
      </trkpt>
      <trkpt lat="49.76803" lon="2.20295">
        <ele>118.5</ele>
        <time>2023-08-16T07:37:42Z</time>
      </trkpt>
      <trkpt lat="49.76802" lon="2.20296">
        <ele>118.6</ele>
        <time>2023-08-16T07:37:43Z</time>
      </trkpt>
      <trkpt lat="49.76802" lon="2.20298">
        <ele>118.7</ele>
        <time>2023-08-16T07:37:44Z</time>
      </trkpt>
      <trkpt lat="49.76802" lon="2.20299">
        <ele>118.8</ele>
        <time>2023-08-16T07:37:45Z</time>
      </trkpt>
      <trkpt lat="49.76801" lon="2.20301">
        <ele>118.9</ele>
        <time>2023-08-16T07:37:46Z</time>
      </trkpt>
      <trkpt lat="49.76801" lon="2.20302">
        <ele>119</ele>
        <time>2023-08-16T07:37:47Z</time>
      </trkpt>
      <trkpt lat="49.76801" lon="2.20304">
        <ele>119.1</ele>
        <time>2023-08-16T07:37:49Z</time>
      </trkpt>
      <trkpt lat="49.768" lon="2.20306">
        <ele>119.3</ele>
        <time>2023-08-16T07:37:50Z</time>
      </trkpt>
      <trkpt lat="49.768" lon="2.20308">
        <ele>119.4</ele>
        <time>2023-08-16T07:37:51Z</time>
      </trkpt>
      <trkpt lat="49.768" lon="2.20309">
        <ele>119.5</ele>
        <time>2023-08-16T07:37:52Z</time>
      </trkpt>
      <trkpt lat="49.76799" lon="2.20311">
        <ele>119.6</ele>
        <time>2023-08-16T07:37:53Z</time>
      </trkpt>
      <trkpt lat="49.76799" lon="2.20312">
        <ele>119.7</ele>
        <time>2023-08-16T07:37:54Z</time>
      </trkpt>
      <trkpt lat="49.76798" lon="2.20314">
        <ele>119.8</ele>
        <time>2023-08-16T07:37:55Z</time>
      </trkpt>
      <trkpt lat="49.76798" lon="2.20316">
        <ele>119.9</ele>
        <time>2023-08-16T07:37:57Z</time>
      </trkpt>
      <trkpt lat="49.76798" lon="2.20317">
        <ele>120</ele>
        <time>2023-08-16T07:37:58Z</time>
      </trkpt>
      <trkpt lat="49.76797" lon="2.20319">
        <ele>120.1</ele>
        <time>2023-08-16T07:37:59Z</time>
      </trkpt>
      <trkpt lat="49.76797" lon="2.2032">
        <ele>120.2</ele>
        <time>2023-08-16T07:38:00Z</time>
      </trkpt>
      <trkpt lat="49.76796" lon="2.20322">
        <ele>120.3</ele>
        <time>2023-08-16T07:38:01Z</time>
      </trkpt>
      <trkpt lat="49.76796" lon="2.20323">
        <ele>120.4</ele>
        <time>2023-08-16T07:38:02Z</time>
      </trkpt>
      <trkpt lat="49.76795" lon="2.20324">
        <ele>120.5</ele>
        <time>2023-08-16T07:38:03Z</time>
      </trkpt>
      <trkpt lat="49.76795" lon="2.20326">
        <ele>120.6</ele>
        <time>2023-08-16T07:38:05Z</time>
      </trkpt>
      <trkpt lat="49.76794" lon="2.20327">
        <ele>120.7</ele>
        <time>2023-08-16T07:38:06Z</time>
      </trkpt>
      <trkpt lat="49.76793" lon="2.20329">
        <ele>120.8</ele>
        <time>2023-08-16T07:38:07Z</time>
      </trkpt>
      <trkpt lat="49.76793" lon="2.2033">
        <ele>120.9</ele>
        <time>2023-08-16T07:38:08Z</time>
      </trkpt>
      <trkpt lat="49.76792" lon="2.20332">
        <ele>121</ele>
        <time>2023-08-16T07:38:09Z</time>
      </trkpt>
      <trkpt lat="49.76792" lon="2.20333">
        <ele>121.1</ele>
        <time>2023-08-16T07:38:10Z</time>
      </trkpt>
      <trkpt lat="49.7679" lon="2.20335">
        <ele>121.3</ele>
        <time>2023-08-16T07:38:11Z</time>
      </trkpt>
      <trkpt lat="49.7679" lon="2.20337">
        <ele>121.3</ele>
        <time>2023-08-16T07:38:13Z</time>
      </trkpt>
      <trkpt lat="49.76789" lon="2.20338">
        <ele>121.4</ele>
        <time>2023-08-16T07:38:14Z</time>
      </trkpt>
      <trkpt lat="49.76789" lon="2.20339">
        <ele>121.5</ele>
        <time>2023-08-16T07:38:15Z</time>
      </trkpt>
      <trkpt lat="49.76788" lon="2.20341">
        <ele>121.6</ele>
        <time>2023-08-16T07:38:16Z</time>
      </trkpt>
      <trkpt lat="49.76788" lon="2.20342">
        <ele>121.7</ele>
        <time>2023-08-16T07:38:17Z</time>
      </trkpt>
      <trkpt lat="49.76787" lon="2.20344">
        <ele>121.8</ele>
        <time>2023-08-16T07:38:19Z</time>
      </trkpt>
      <trkpt lat="49.76786" lon="2.20346">
        <ele>121.9</ele>
        <time>2023-08-16T07:38:20Z</time>
      </trkpt>
      <trkpt lat="49.76786" lon="2.20347">
        <ele>122</ele>
        <time>2023-08-16T07:38:21Z</time>
      </trkpt>
      <trkpt lat="49.76785" lon="2.20348">
        <ele>122.1</ele>
        <time>2023-08-16T07:38:22Z</time>
      </trkpt>
      <trkpt lat="49.76785" lon="2.2035">
        <ele>122.2</ele>
        <time>2023-08-16T07:38:23Z</time>
      </trkpt>
      <trkpt lat="49.76784" lon="2.20351">
        <ele>122.3</ele>
        <time>2023-08-16T07:38:24Z</time>
      </trkpt>
      <trkpt lat="49.76783" lon="2.20352">
        <ele>122.4</ele>
        <time>2023-08-16T07:38:26Z</time>
      </trkpt>
      <trkpt lat="49.76783" lon="2.20353">
        <ele>122.5</ele>
        <time>2023-08-16T07:38:27Z</time>
      </trkpt>
      <trkpt lat="49.76782" lon="2.20354">
        <ele>122.5</ele>
        <time>2023-08-16T07:38:28Z</time>
      </trkpt>
      <trkpt lat="49.76781" lon="2.20356">
        <ele>122.6</ele>
        <time>2023-08-16T07:38:30Z</time>
      </trkpt>
      <trkpt lat="49.76781" lon="2.20357">
        <ele>122.7</ele>
        <time>2023-08-16T07:38:31Z</time>
      </trkpt>
      <trkpt lat="49.7678" lon="2.20358">
        <ele>122.8</ele>
        <time>2023-08-16T07:38:32Z</time>
      </trkpt>
      <trkpt lat="49.76779" lon="2.2036">
        <ele>122.9</ele>
        <time>2023-08-16T07:38:34Z</time>
      </trkpt>
      <trkpt lat="49.76779" lon="2.20361">
        <ele>122.9</ele>
        <time>2023-08-16T07:38:35Z</time>
      </trkpt>
      <trkpt lat="49.76778" lon="2.20363">
        <ele>123</ele>
        <time>2023-08-16T07:38:36Z</time>
      </trkpt>
      <trkpt lat="49.76778" lon="2.20364">
        <ele>123.1</ele>
        <time>2023-08-16T07:38:37Z</time>
      </trkpt>
      <trkpt lat="49.76777" lon="2.20365">
        <ele>123.2</ele>
        <time>2023-08-16T07:38:38Z</time>
      </trkpt>
      <trkpt lat="49.76777" lon="2.20367">
        <ele>123.3</ele>
        <time>2023-08-16T07:38:40Z</time>
      </trkpt>
      <trkpt lat="49.76776" lon="2.20369">
        <ele>123.4</ele>
        <time>2023-08-16T07:38:41Z</time>
      </trkpt>
      <trkpt lat="49.76776" lon="2.20371">
        <ele>123.5</ele>
        <time>2023-08-16T07:38:42Z</time>
      </trkpt>
      <trkpt lat="49.76775" lon="2.20373">
        <ele>123.6</ele>
        <time>2023-08-16T07:38:44Z</time>
      </trkpt>
      <trkpt lat="49.76775" lon="2.20374">
        <ele>123.7</ele>
        <time>2023-08-16T07:38:45Z</time>
      </trkpt>
      <trkpt lat="49.76774" lon="2.20376">
        <ele>123.7</ele>
        <time>2023-08-16T07:38:46Z</time>
      </trkpt>
      <trkpt lat="49.76774" lon="2.20378">
        <ele>123.8</ele>
        <time>2023-08-16T07:38:47Z</time>
      </trkpt>
      <trkpt lat="49.76773" lon="2.20379">
        <ele>123.9</ele>
        <time>2023-08-16T07:38:48Z</time>
      </trkpt>
      <trkpt lat="49.76773" lon="2.20382">
        <ele>124</ele>
        <time>2023-08-16T07:38:50Z</time>
      </trkpt>
      <trkpt lat="49.76772" lon="2.20384">
        <ele>124.1</ele>
        <time>2023-08-16T07:38:52Z</time>
      </trkpt>
      <trkpt lat="49.76772" lon="2.20385">
        <ele>124.2</ele>
        <time>2023-08-16T07:38:53Z</time>
      </trkpt>
      <trkpt lat="49.76771" lon="2.20387">
        <ele>124.3</ele>
        <time>2023-08-16T07:38:54Z</time>
      </trkpt>
      <trkpt lat="49.76771" lon="2.20388">
        <ele>124.4</ele>
        <time>2023-08-16T07:38:55Z</time>
      </trkpt>
      <trkpt lat="49.76771" lon="2.2039">
        <ele>124.5</ele>
        <time>2023-08-16T07:38:57Z</time>
      </trkpt>
      <trkpt lat="49.7677" lon="2.20391">
        <ele>124.6</ele>
        <time>2023-08-16T07:38:58Z</time>
      </trkpt>
      <trkpt lat="49.7677" lon="2.20393">
        <ele>124.7</ele>
        <time>2023-08-16T07:38:59Z</time>
      </trkpt>
      <trkpt lat="49.76769" lon="2.20394">
        <ele>124.8</ele>
        <time>2023-08-16T07:39:00Z</time>
      </trkpt>
      <trkpt lat="49.76769" lon="2.20396">
        <ele>124.8</ele>
        <time>2023-08-16T07:39:01Z</time>
      </trkpt>
      <trkpt lat="49.76768" lon="2.20397">
        <ele>124.9</ele>
        <time>2023-08-16T07:39:02Z</time>
      </trkpt>
      <trkpt lat="49.76767" lon="2.20399">
        <ele>125</ele>
        <time>2023-08-16T07:39:04Z</time>
      </trkpt>
      <trkpt lat="49.76767" lon="2.204">
        <ele>125.1</ele>
        <time>2023-08-16T07:39:05Z</time>
      </trkpt>
      <trkpt lat="49.76766" lon="2.20402">
        <ele>125.2</ele>
        <time>2023-08-16T07:39:06Z</time>
      </trkpt>
      <trkpt lat="49.76766" lon="2.20403">
        <ele>125.3</ele>
        <time>2023-08-16T07:39:07Z</time>
      </trkpt>
      <trkpt lat="49.76766" lon="2.20404">
        <ele>125.4</ele>
        <time>2023-08-16T07:39:08Z</time>
      </trkpt>
      <trkpt lat="49.76765" lon="2.20406">
        <ele>125.5</ele>
        <time>2023-08-16T07:39:10Z</time>
      </trkpt>
      <trkpt lat="49.76765" lon="2.20408">
        <ele>125.6</ele>
        <time>2023-08-16T07:39:11Z</time>
      </trkpt>
      <trkpt lat="49.76764" lon="2.20409">
        <ele>125.7</ele>
        <time>2023-08-16T07:39:12Z</time>
      </trkpt>
      <trkpt lat="49.76764" lon="2.2041">
        <ele>125.8</ele>
        <time>2023-08-16T07:39:14Z</time>
      </trkpt>
      <trkpt lat="49.76763" lon="2.20412">
        <ele>125.9</ele>
        <time>2023-08-16T07:39:15Z</time>
      </trkpt>
      <trkpt lat="49.76763" lon="2.20414">
        <ele>126</ele>
        <time>2023-08-16T07:39:16Z</time>
      </trkpt>
      <trkpt lat="49.76763" lon="2.20415">
        <ele>126.1</ele>
        <time>2023-08-16T07:39:17Z</time>
      </trkpt>
      <trkpt lat="49.76762" lon="2.20417">
        <ele>126.2</ele>
        <time>2023-08-16T07:39:18Z</time>
      </trkpt>
      <trkpt lat="49.76762" lon="2.20419">
        <ele>126.4</ele>
        <time>2023-08-16T07:39:20Z</time>
      </trkpt>
      <trkpt lat="49.76761" lon="2.2042">
        <ele>126.5</ele>
        <time>2023-08-16T07:39:21Z</time>
      </trkpt>
      <trkpt lat="49.76761" lon="2.20422">
        <ele>126.6</ele>
        <time>2023-08-16T07:39:22Z</time>
      </trkpt>
      <trkpt lat="49.76761" lon="2.20423">
        <ele>126.7</ele>
        <time>2023-08-16T07:39:23Z</time>
      </trkpt>
      <trkpt lat="49.7676" lon="2.20424">
        <ele>126.8</ele>
        <time>2023-08-16T07:39:24Z</time>
      </trkpt>
      <trkpt lat="49.7676" lon="2.20426">
        <ele>126.9</ele>
        <time>2023-08-16T07:39:25Z</time>
      </trkpt>
      <trkpt lat="49.76759" lon="2.20428">
        <ele>127.1</ele>
        <time>2023-08-16T07:39:27Z</time>
      </trkpt>
      <trkpt lat="49.76759" lon="2.20429">
        <ele>127.2</ele>
        <time>2023-08-16T07:39:28Z</time>
      </trkpt>
      <trkpt lat="49.76758" lon="2.20431">
        <ele>127.3</ele>
        <time>2023-08-16T07:39:29Z</time>
      </trkpt>
      <trkpt lat="49.76758" lon="2.20432">
        <ele>127.4</ele>
        <time>2023-08-16T07:39:30Z</time>
      </trkpt>
      <trkpt lat="49.76758" lon="2.20434">
        <ele>127.5</ele>
        <time>2023-08-16T07:39:31Z</time>
      </trkpt>
      <trkpt lat="49.76758" lon="2.20435">
        <ele>127.6</ele>
        <time>2023-08-16T07:39:32Z</time>
      </trkpt>
      <trkpt lat="49.76757" lon="2.20437">
        <ele>127.7</ele>
        <time>2023-08-16T07:39:34Z</time>
      </trkpt>
      <trkpt lat="49.76757" lon="2.20438">
        <ele>127.8</ele>
        <time>2023-08-16T07:39:35Z</time>
      </trkpt>
      <trkpt lat="49.76757" lon="2.2044">
        <ele>128</ele>
        <time>2023-08-16T07:39:36Z</time>
      </trkpt>
      <trkpt lat="49.76757" lon="2.20441">
        <ele>128</ele>
        <time>2023-08-16T07:39:37Z</time>
      </trkpt>
      <trkpt lat="49.76757" lon="2.20442">
        <ele>128.1</ele>
        <time>2023-08-16T07:39:38Z</time>
      </trkpt>
      <trkpt lat="49.76757" lon="2.20444">
        <ele>128.3</ele>
        <time>2023-08-16T07:39:39Z</time>
      </trkpt>
      <trkpt lat="49.76757" lon="2.20446">
        <ele>128.4</ele>
        <time>2023-08-16T07:39:41Z</time>
      </trkpt>
      <trkpt lat="49.76757" lon="2.20448">
        <ele>128.6</ele>
        <time>2023-08-16T07:39:42Z</time>
      </trkpt>
      <trkpt lat="49.76757" lon="2.20449">
        <ele>128.7</ele>
        <time>2023-08-16T07:39:43Z</time>
      </trkpt>
      <trkpt lat="49.76757" lon="2.20451">
        <ele>128.8</ele>
        <time>2023-08-16T07:39:44Z</time>
      </trkpt>
      <trkpt lat="49.76757" lon="2.20452">
        <ele>128.9</ele>
        <time>2023-08-16T07:39:45Z</time>
      </trkpt>
      <trkpt lat="49.76758" lon="2.20454">
        <ele>129</ele>
        <time>2023-08-16T07:39:46Z</time>
      </trkpt>
      <trkpt lat="49.76758" lon="2.20456">
        <ele>129.2</ele>
        <time>2023-08-16T07:39:48Z</time>
      </trkpt>
      <trkpt lat="49.76758" lon="2.20458">
        <ele>129.3</ele>
        <time>2023-08-16T07:39:49Z</time>
      </trkpt>
      <trkpt lat="49.76758" lon="2.20459">
        <ele>129.5</ele>
        <time>2023-08-16T07:39:50Z</time>
      </trkpt>
      <trkpt lat="49.76758" lon="2.2046">
        <ele>129.6</ele>
        <time>2023-08-16T07:39:51Z</time>
      </trkpt>
      <trkpt lat="49.76758" lon="2.20462">
        <ele>129.7</ele>
        <time>2023-08-16T07:39:52Z</time>
      </trkpt>
      <trkpt lat="49.76759" lon="2.20463">
        <ele>129.8</ele>
        <time>2023-08-16T07:39:53Z</time>
      </trkpt>
      <trkpt lat="49.76759" lon="2.20465">
        <ele>129.9</ele>
        <time>2023-08-16T07:39:55Z</time>
      </trkpt>
      <trkpt lat="49.76759" lon="2.20466">
        <ele>130</ele>
        <time>2023-08-16T07:39:56Z</time>
      </trkpt>
      <trkpt lat="49.76759" lon="2.20467">
        <ele>130.1</ele>
        <time>2023-08-16T07:39:57Z</time>
      </trkpt>
      <trkpt lat="49.76759" lon="2.20469">
        <ele>130.2</ele>
        <time>2023-08-16T07:39:58Z</time>
      </trkpt>
      <trkpt lat="49.76759" lon="2.2047">
        <ele>130.4</ele>
        <time>2023-08-16T07:39:59Z</time>
      </trkpt>
      <trkpt lat="49.76759" lon="2.20471">
        <ele>130.5</ele>
        <time>2023-08-16T07:40:00Z</time>
      </trkpt>
      <trkpt lat="49.76759" lon="2.20474">
        <ele>130.7</ele>
        <time>2023-08-16T07:40:02Z</time>
      </trkpt>
      <trkpt lat="49.76759" lon="2.20475">
        <ele>130.8</ele>
        <time>2023-08-16T07:40:03Z</time>
      </trkpt>
      <trkpt lat="49.7676" lon="2.20477">
        <ele>130.9</ele>
        <time>2023-08-16T07:40:04Z</time>
      </trkpt>
      <trkpt lat="49.7676" lon="2.2048">
        <ele>131.1</ele>
        <time>2023-08-16T07:40:06Z</time>
      </trkpt>
      <trkpt lat="49.7676" lon="2.20482">
        <ele>131.3</ele>
        <time>2023-08-16T07:40:08Z</time>
      </trkpt>
      <trkpt lat="49.7676" lon="2.20483">
        <ele>131.4</ele>
        <time>2023-08-16T07:40:09Z</time>
      </trkpt>
      <trkpt lat="49.7676" lon="2.20485">
        <ele>131.5</ele>
        <time>2023-08-16T07:40:10Z</time>
      </trkpt>
      <trkpt lat="49.7676" lon="2.20486">
        <ele>131.6</ele>
        <time>2023-08-16T07:40:11Z</time>
      </trkpt>
      <trkpt lat="49.76759" lon="2.20487">
        <ele>131.8</ele>
        <time>2023-08-16T07:40:12Z</time>
      </trkpt>
      <trkpt lat="49.76759" lon="2.20489">
        <ele>131.9</ele>
        <time>2023-08-16T07:40:14Z</time>
      </trkpt>
      <trkpt lat="49.76759" lon="2.2049">
        <ele>131.9</ele>
        <time>2023-08-16T07:40:15Z</time>
      </trkpt>
      <trkpt lat="49.76759" lon="2.20491">
        <ele>132</ele>
        <time>2023-08-16T07:40:16Z</time>
      </trkpt>
      <trkpt lat="49.76759" lon="2.20492">
        <ele>132.2</ele>
        <time>2023-08-16T07:40:17Z</time>
      </trkpt>
      <trkpt lat="49.76758" lon="2.20494">
        <ele>132.3</ele>
        <time>2023-08-16T07:40:18Z</time>
      </trkpt>
      <trkpt lat="49.76758" lon="2.20497">
        <ele>132.5</ele>
        <time>2023-08-16T07:40:19Z</time>
      </trkpt>
      <trkpt lat="49.76758" lon="2.20498">
        <ele>132.6</ele>
        <time>2023-08-16T07:40:21Z</time>
      </trkpt>
      <trkpt lat="49.76758" lon="2.205">
        <ele>132.7</ele>
        <time>2023-08-16T07:40:22Z</time>
      </trkpt>
      <trkpt lat="49.76757" lon="2.20502">
        <ele>132.8</ele>
        <time>2023-08-16T07:40:23Z</time>
      </trkpt>
      <trkpt lat="49.76757" lon="2.20503">
        <ele>132.9</ele>
        <time>2023-08-16T07:40:24Z</time>
      </trkpt>
      <trkpt lat="49.76757" lon="2.20505">
        <ele>133.1</ele>
        <time>2023-08-16T07:40:25Z</time>
      </trkpt>
      <trkpt lat="49.76757" lon="2.20507">
        <ele>133.2</ele>
        <time>2023-08-16T07:40:26Z</time>
      </trkpt>
      <trkpt lat="49.76757" lon="2.20509">
        <ele>133.3</ele>
        <time>2023-08-16T07:40:27Z</time>
      </trkpt>
      <trkpt lat="49.76757" lon="2.20511">
        <ele>133.4</ele>
        <time>2023-08-16T07:40:28Z</time>
      </trkpt>
      <trkpt lat="49.76757" lon="2.20513">
        <ele>133.6</ele>
        <time>2023-08-16T07:40:30Z</time>
      </trkpt>
      <trkpt lat="49.76757" lon="2.20515">
        <ele>133.7</ele>
        <time>2023-08-16T07:40:31Z</time>
      </trkpt>
      <trkpt lat="49.76757" lon="2.20517">
        <ele>133.9</ele>
        <time>2023-08-16T07:40:32Z</time>
      </trkpt>
      <trkpt lat="49.76757" lon="2.20518">
        <ele>134</ele>
        <time>2023-08-16T07:40:33Z</time>
      </trkpt>
      <trkpt lat="49.76757" lon="2.2052">
        <ele>134.1</ele>
        <time>2023-08-16T07:40:34Z</time>
      </trkpt>
      <trkpt lat="49.76756" lon="2.20521">
        <ele>134.1</ele>
        <time>2023-08-16T07:40:35Z</time>
      </trkpt>
      <trkpt lat="49.76756" lon="2.20523">
        <ele>134.3</ele>
        <time>2023-08-16T07:40:37Z</time>
      </trkpt>
      <trkpt lat="49.76756" lon="2.20525">
        <ele>134.4</ele>
        <time>2023-08-16T07:40:39Z</time>
      </trkpt>
      <trkpt lat="49.76756" lon="2.20527">
        <ele>134.5</ele>
        <time>2023-08-16T07:40:40Z</time>
      </trkpt>
      <trkpt lat="49.76755" lon="2.20529">
        <ele>134.6</ele>
        <time>2023-08-16T07:40:41Z</time>
      </trkpt>
      <trkpt lat="49.76755" lon="2.2053">
        <ele>134.7</ele>
        <time>2023-08-16T07:40:42Z</time>
      </trkpt>
      <trkpt lat="49.76754" lon="2.20532">
        <ele>134.8</ele>
        <time>2023-08-16T07:40:44Z</time>
      </trkpt>
      <trkpt lat="49.76754" lon="2.20534">
        <ele>134.9</ele>
        <time>2023-08-16T07:40:45Z</time>
      </trkpt>
      <trkpt lat="49.76754" lon="2.20536">
        <ele>135</ele>
        <time>2023-08-16T07:40:46Z</time>
      </trkpt>
      <trkpt lat="49.76754" lon="2.20537">
        <ele>135</ele>
        <time>2023-08-16T07:40:48Z</time>
      </trkpt>
      <trkpt lat="49.76754" lon="2.20538">
        <ele>135.1</ele>
        <time>2023-08-16T07:40:49Z</time>
      </trkpt>
      <trkpt lat="49.76754" lon="2.2054">
        <ele>135.2</ele>
        <time>2023-08-16T07:40:50Z</time>
      </trkpt>
      <trkpt lat="49.76754" lon="2.20541">
        <ele>135.2</ele>
        <time>2023-08-16T07:40:51Z</time>
      </trkpt>
      <trkpt lat="49.76753" lon="2.20542">
        <ele>135.3</ele>
        <time>2023-08-16T07:40:52Z</time>
      </trkpt>
      <trkpt lat="49.76753" lon="2.20543">
        <ele>135.3</ele>
        <time>2023-08-16T07:40:53Z</time>
      </trkpt>
      <trkpt lat="49.76753" lon="2.20544">
        <ele>135.4</ele>
        <time>2023-08-16T07:40:55Z</time>
      </trkpt>
      <trkpt lat="49.76753" lon="2.20545">
        <ele>135.5</ele>
        <time>2023-08-16T07:40:56Z</time>
      </trkpt>
      <trkpt lat="49.76753" lon="2.20546">
        <ele>135.5</ele>
        <time>2023-08-16T07:40:57Z</time>
      </trkpt>
      <trkpt lat="49.76752" lon="2.20548">
        <ele>135.6</ele>
        <time>2023-08-16T07:40:58Z</time>
      </trkpt>
      <trkpt lat="49.76752" lon="2.20549">
        <ele>135.6</ele>
        <time>2023-08-16T07:40:59Z</time>
      </trkpt>
      <trkpt lat="49.76752" lon="2.2055">
        <ele>135.7</ele>
        <time>2023-08-16T07:41:00Z</time>
      </trkpt>
      <trkpt lat="49.76752" lon="2.20551">
        <ele>135.7</ele>
        <time>2023-08-16T07:41:02Z</time>
      </trkpt>
      <trkpt lat="49.76752" lon="2.20552">
        <ele>135.8</ele>
        <time>2023-08-16T07:41:03Z</time>
      </trkpt>
      <trkpt lat="49.76752" lon="2.20552">
        <ele>135.8</ele>
        <time>2023-08-16T07:41:04Z</time>
      </trkpt>
      <trkpt lat="49.76751" lon="2.20554">
        <ele>135.9</ele>
        <time>2023-08-16T07:41:05Z</time>
      </trkpt>
      <trkpt lat="49.76751" lon="2.20555">
        <ele>136</ele>
        <time>2023-08-16T07:41:06Z</time>
      </trkpt>
      <trkpt lat="49.76751" lon="2.20556">
        <ele>136</ele>
        <time>2023-08-16T07:41:07Z</time>
      </trkpt>
      <trkpt lat="49.7675" lon="2.20558">
        <ele>136.1</ele>
        <time>2023-08-16T07:41:09Z</time>
      </trkpt>
      <trkpt lat="49.7675" lon="2.2056">
        <ele>136.2</ele>
        <time>2023-08-16T07:41:10Z</time>
      </trkpt>
      <trkpt lat="49.76749" lon="2.20562">
        <ele>136.4</ele>
        <time>2023-08-16T07:41:11Z</time>
      </trkpt>
      <trkpt lat="49.76749" lon="2.20564">
        <ele>136.4</ele>
        <time>2023-08-16T07:41:12Z</time>
      </trkpt>
      <trkpt lat="49.76749" lon="2.20566">
        <ele>136.5</ele>
        <time>2023-08-16T07:41:14Z</time>
      </trkpt>
      <trkpt lat="49.76749" lon="2.20568">
        <ele>136.6</ele>
        <time>2023-08-16T07:41:15Z</time>
      </trkpt>
      <trkpt lat="49.76749" lon="2.20569">
        <ele>136.7</ele>
        <time>2023-08-16T07:41:16Z</time>
      </trkpt>
      <trkpt lat="49.76749" lon="2.20571">
        <ele>136.8</ele>
        <time>2023-08-16T07:41:17Z</time>
      </trkpt>
      <trkpt lat="49.76749" lon="2.20573">
        <ele>136.9</ele>
        <time>2023-08-16T07:41:19Z</time>
      </trkpt>
      <trkpt lat="49.76748" lon="2.20575">
        <ele>137</ele>
        <time>2023-08-16T07:41:20Z</time>
      </trkpt>
      <trkpt lat="49.76748" lon="2.20576">
        <ele>137.1</ele>
        <time>2023-08-16T07:41:21Z</time>
      </trkpt>
      <trkpt lat="49.76748" lon="2.20578">
        <ele>137.2</ele>
        <time>2023-08-16T07:41:22Z</time>
      </trkpt>
      <trkpt lat="49.76748" lon="2.20581">
        <ele>137.3</ele>
        <time>2023-08-16T07:41:24Z</time>
      </trkpt>
      <trkpt lat="49.76748" lon="2.20582">
        <ele>137.4</ele>
        <time>2023-08-16T07:41:25Z</time>
      </trkpt>
      <trkpt lat="49.76748" lon="2.20584">
        <ele>137.5</ele>
        <time>2023-08-16T07:41:26Z</time>
      </trkpt>
      <trkpt lat="49.76748" lon="2.20585">
        <ele>137.6</ele>
        <time>2023-08-16T07:41:27Z</time>
      </trkpt>
      <trkpt lat="49.76747" lon="2.20587">
        <ele>137.6</ele>
        <time>2023-08-16T07:41:28Z</time>
      </trkpt>
      <trkpt lat="49.76747" lon="2.20588">
        <ele>137.7</ele>
        <time>2023-08-16T07:41:29Z</time>
      </trkpt>
      <trkpt lat="49.76747" lon="2.20591">
        <ele>137.9</ele>
        <time>2023-08-16T07:41:30Z</time>
      </trkpt>
      <trkpt lat="49.76746" lon="2.20593">
        <ele>137.9</ele>
        <time>2023-08-16T07:41:32Z</time>
      </trkpt>
      <trkpt lat="49.76746" lon="2.20594">
        <ele>138</ele>
        <time>2023-08-16T07:41:33Z</time>
      </trkpt>
      <trkpt lat="49.76746" lon="2.20597">
        <ele>138.1</ele>
        <time>2023-08-16T07:41:34Z</time>
      </trkpt>
      <trkpt lat="49.76745" lon="2.20599">
        <ele>138.2</ele>
        <time>2023-08-16T07:41:35Z</time>
      </trkpt>
      <trkpt lat="49.76745" lon="2.206">
        <ele>138.3</ele>
        <time>2023-08-16T07:41:37Z</time>
      </trkpt>
      <trkpt lat="49.76745" lon="2.20602">
        <ele>138.3</ele>
        <time>2023-08-16T07:41:38Z</time>
      </trkpt>
      <trkpt lat="49.76745" lon="2.20603">
        <ele>138.4</ele>
        <time>2023-08-16T07:41:39Z</time>
      </trkpt>
      <trkpt lat="49.76744" lon="2.20605">
        <ele>138.5</ele>
        <time>2023-08-16T07:41:40Z</time>
      </trkpt>
      <trkpt lat="49.76744" lon="2.20608">
        <ele>138.6</ele>
        <time>2023-08-16T07:41:42Z</time>
      </trkpt>
      <trkpt lat="49.76744" lon="2.2061">
        <ele>138.7</ele>
        <time>2023-08-16T07:41:43Z</time>
      </trkpt>
      <trkpt lat="49.76744" lon="2.20611">
        <ele>138.7</ele>
        <time>2023-08-16T07:41:44Z</time>
      </trkpt>
      <trkpt lat="49.76744" lon="2.20614">
        <ele>138.9</ele>
        <time>2023-08-16T07:41:45Z</time>
      </trkpt>
      <trkpt lat="49.76744" lon="2.20615">
        <ele>138.9</ele>
        <time>2023-08-16T07:41:47Z</time>
      </trkpt>
      <trkpt lat="49.76744" lon="2.20617">
        <ele>139</ele>
        <time>2023-08-16T07:41:48Z</time>
      </trkpt>
      <trkpt lat="49.76743" lon="2.2062">
        <ele>139.1</ele>
        <time>2023-08-16T07:41:49Z</time>
      </trkpt>
      <trkpt lat="49.76743" lon="2.20621">
        <ele>139.2</ele>
        <time>2023-08-16T07:41:51Z</time>
      </trkpt>
      <trkpt lat="49.76743" lon="2.20622">
        <ele>139.2</ele>
        <time>2023-08-16T07:41:52Z</time>
      </trkpt>
      <trkpt lat="49.76743" lon="2.20624">
        <ele>139.3</ele>
        <time>2023-08-16T07:41:53Z</time>
      </trkpt>
      <trkpt lat="49.76743" lon="2.20625">
        <ele>139.4</ele>
        <time>2023-08-16T07:41:54Z</time>
      </trkpt>
      <trkpt lat="49.76743" lon="2.20627">
        <ele>139.5</ele>
        <time>2023-08-16T07:41:55Z</time>
      </trkpt>
      <trkpt lat="49.76743" lon="2.20629">
        <ele>139.5</ele>
        <time>2023-08-16T07:41:57Z</time>
      </trkpt>
      <trkpt lat="49.76743" lon="2.2063">
        <ele>139.6</ele>
        <time>2023-08-16T07:41:58Z</time>
      </trkpt>
      <trkpt lat="49.76743" lon="2.20631">
        <ele>139.7</ele>
        <time>2023-08-16T07:41:59Z</time>
      </trkpt>
      <trkpt lat="49.76742" lon="2.20632">
        <ele>139.7</ele>
        <time>2023-08-16T07:42:00Z</time>
      </trkpt>
      <trkpt lat="49.76742" lon="2.20633">
        <ele>139.8</ele>
        <time>2023-08-16T07:42:01Z</time>
      </trkpt>
      <trkpt lat="49.76741" lon="2.20633">
        <ele>139.8</ele>
        <time>2023-08-16T07:42:02Z</time>
      </trkpt>
      <trkpt lat="49.76741" lon="2.20633">
        <ele>139.9</ele>
        <time>2023-08-16T07:42:03Z</time>
      </trkpt>
      <trkpt lat="49.7674" lon="2.20634">
        <ele>139.9</ele>
        <time>2023-08-16T07:42:05Z</time>
      </trkpt>
      <trkpt lat="49.7674" lon="2.20635">
        <ele>140</ele>
        <time>2023-08-16T07:42:06Z</time>
      </trkpt>
      <trkpt lat="49.7674" lon="2.20637">
        <ele>140</ele>
        <time>2023-08-16T07:42:07Z</time>
      </trkpt>
      <trkpt lat="49.7674" lon="2.20638">
        <ele>140.1</ele>
        <time>2023-08-16T07:42:08Z</time>
      </trkpt>
      <trkpt lat="49.7674" lon="2.2064">
        <ele>140.2</ele>
        <time>2023-08-16T07:42:10Z</time>
      </trkpt>
      <trkpt lat="49.7674" lon="2.20642">
        <ele>140.3</ele>
        <time>2023-08-16T07:42:11Z</time>
      </trkpt>
      <trkpt lat="49.76741" lon="2.20643">
        <ele>140.3</ele>
        <time>2023-08-16T07:42:12Z</time>
      </trkpt>
      <trkpt lat="49.76741" lon="2.20645">
        <ele>140.4</ele>
        <time>2023-08-16T07:42:14Z</time>
      </trkpt>
      <trkpt lat="49.76741" lon="2.20647">
        <ele>140.5</ele>
        <time>2023-08-16T07:42:15Z</time>
      </trkpt>
      <trkpt lat="49.76741" lon="2.20648">
        <ele>140.5</ele>
        <time>2023-08-16T07:42:16Z</time>
      </trkpt>
      <trkpt lat="49.76741" lon="2.20649">
        <ele>140.6</ele>
        <time>2023-08-16T07:42:17Z</time>
      </trkpt>
      <trkpt lat="49.76741" lon="2.20651">
        <ele>140.7</ele>
        <time>2023-08-16T07:42:19Z</time>
      </trkpt>
      <trkpt lat="49.76741" lon="2.20653">
        <ele>140.7</ele>
        <time>2023-08-16T07:42:20Z</time>
      </trkpt>
      <trkpt lat="49.76741" lon="2.20654">
        <ele>140.8</ele>
        <time>2023-08-16T07:42:21Z</time>
      </trkpt>
      <trkpt lat="49.76741" lon="2.20655">
        <ele>140.8</ele>
        <time>2023-08-16T07:42:22Z</time>
      </trkpt>
      <trkpt lat="49.76741" lon="2.20656">
        <ele>140.9</ele>
        <time>2023-08-16T07:42:23Z</time>
      </trkpt>
      <trkpt lat="49.7674" lon="2.20657">
        <ele>140.9</ele>
        <time>2023-08-16T07:42:25Z</time>
      </trkpt>
      <trkpt lat="49.7674" lon="2.20658">
        <ele>141</ele>
        <time>2023-08-16T07:42:26Z</time>
      </trkpt>
      <trkpt lat="49.7674" lon="2.20659">
        <ele>141</ele>
        <time>2023-08-16T07:42:27Z</time>
      </trkpt>
      <trkpt lat="49.76739" lon="2.2066">
        <ele>141.1</ele>
        <time>2023-08-16T07:42:28Z</time>
      </trkpt>
      <trkpt lat="49.76739" lon="2.20661">
        <ele>141.1</ele>
        <time>2023-08-16T07:42:29Z</time>
      </trkpt>
      <trkpt lat="49.76738" lon="2.20662">
        <ele>141.1</ele>
        <time>2023-08-16T07:42:30Z</time>
      </trkpt>
      <trkpt lat="49.76738" lon="2.20663">
        <ele>141.1</ele>
        <time>2023-08-16T07:42:31Z</time>
      </trkpt>
      <trkpt lat="49.76737" lon="2.20663">
        <ele>141.2</ele>
        <time>2023-08-16T07:42:32Z</time>
      </trkpt>
      <trkpt lat="49.76737" lon="2.20662">
        <ele>141.2</ele>
        <time>2023-08-16T07:42:34Z</time>
      </trkpt>
      <trkpt lat="49.76737" lon="2.20662">
        <ele>141.2</ele>
        <time>2023-08-16T07:42:35Z</time>
      </trkpt>
      <trkpt lat="49.76737" lon="2.20661">
        <ele>141.2</ele>
        <time>2023-08-16T07:42:37Z</time>
      </trkpt>
      <trkpt lat="49.76737" lon="2.20661">
        <ele>141.2</ele>
        <time>2023-08-16T07:42:38Z</time>
      </trkpt>
      <trkpt lat="49.76737" lon="2.20661">
        <ele>141.2</ele>
        <time>2023-08-16T07:42:40Z</time>
      </trkpt>
      <trkpt lat="49.76737" lon="2.2066">
        <ele>141.2</ele>
        <time>2023-08-16T07:42:41Z</time>
      </trkpt>
      <trkpt lat="49.76737" lon="2.2066">
        <ele>141.2</ele>
        <time>2023-08-16T07:42:42Z</time>
      </trkpt>
      <trkpt lat="49.76737" lon="2.2066">
        <ele>141.2</ele>
        <time>2023-08-16T07:42:44Z</time>
      </trkpt>
      <trkpt lat="49.76737" lon="2.2066">
        <ele>141.2</ele>
        <time>2023-08-16T07:42:45Z</time>
      </trkpt>
      <trkpt lat="49.76737" lon="2.2066">
        <ele>141.2</ele>
        <time>2023-08-16T07:42:47Z</time>
      </trkpt>
      <trkpt lat="49.76737" lon="2.2066">
        <ele>141.2</ele>
        <time>2023-08-16T07:42:48Z</time>
      </trkpt>
      <trkpt lat="49.76737" lon="2.2066">
        <ele>141.2</ele>
        <time>2023-08-16T07:42:50Z</time>
      </trkpt>
      <trkpt lat="49.76737" lon="2.2066">
        <ele>141.2</ele>
        <time>2023-08-16T07:42:51Z</time>
      </trkpt>
      <trkpt lat="49.76737" lon="2.2066">
        <ele>141.2</ele>
        <time>2023-08-16T07:42:52Z</time>
      </trkpt>
      <trkpt lat="49.76737" lon="2.2066">
        <ele>141.2</ele>
        <time>2023-08-16T07:42:53Z</time>
      </trkpt>
      <trkpt lat="49.76737" lon="2.2066">
        <ele>141.2</ele>
        <time>2023-08-16T07:42:54Z</time>
      </trkpt>
      <trkpt lat="49.76737" lon="2.2066">
        <ele>141.2</ele>
        <time>2023-08-16T07:42:55Z</time>
      </trkpt>
      <trkpt lat="49.76737" lon="2.2066">
        <ele>141.2</ele>
        <time>2023-08-16T07:42:56Z</time>
      </trkpt>
      <trkpt lat="49.76737" lon="2.2066">
        <ele>141.2</ele>
        <time>2023-08-16T07:42:57Z</time>
      </trkpt>
      <trkpt lat="49.76737" lon="2.2066">
        <ele>141.2</ele>
        <time>2023-08-16T07:42:58Z</time>
      </trkpt>
      <trkpt lat="49.76737" lon="2.2066">
        <ele>141.2</ele>
        <time>2023-08-16T07:42:59Z</time>
      </trkpt>
      <trkpt lat="49.76737" lon="2.2066">
        <ele>141.2</ele>
        <time>2023-08-16T07:43:00Z</time>
      </trkpt>
      <trkpt lat="49.76737" lon="2.2066">
        <ele>141.2</ele>
        <time>2023-08-16T07:43:01Z</time>
      </trkpt>
      <trkpt lat="49.76737" lon="2.2066">
        <ele>141.2</ele>
        <time>2023-08-16T07:43:02Z</time>
      </trkpt>
      <trkpt lat="49.76737" lon="2.2066">
        <ele>141.2</ele>
        <time>2023-08-16T07:43:03Z</time>
      </trkpt>
      <trkpt lat="49.76737" lon="2.2066">
        <ele>141.2</ele>
        <time>2023-08-16T07:43:04Z</time>
      </trkpt>
      <trkpt lat="49.76737" lon="2.2066">
        <ele>141.2</ele>
        <time>2023-08-16T07:43:05Z</time>
      </trkpt>
      <trkpt lat="49.76737" lon="2.2066">
        <ele>141.2</ele>
        <time>2023-08-16T07:43:06Z</time>
      </trkpt>
      <trkpt lat="49.76737" lon="2.2066">
        <ele>141.2</ele>
        <time>2023-08-16T07:43:07Z</time>
      </trkpt>
      <trkpt lat="49.76737" lon="2.2066">
        <ele>141.2</ele>
        <time>2023-08-16T07:43:08Z</time>
      </trkpt>
      <trkpt lat="49.76737" lon="2.2066">
        <ele>141.2</ele>
        <time>2023-08-16T07:43:09Z</time>
      </trkpt>
      <trkpt lat="49.76737" lon="2.2066">
        <ele>141.2</ele>
        <time>2023-08-16T07:43:10Z</time>
      </trkpt>
      <trkpt lat="49.76737" lon="2.2066">
        <ele>141.2</ele>
        <time>2023-08-16T07:43:11Z</time>
      </trkpt>
      <trkpt lat="49.76737" lon="2.2066">
        <ele>141.2</ele>
        <time>2023-08-16T07:43:12Z</time>
      </trkpt>
      <trkpt lat="49.76737" lon="2.2066">
        <ele>141.2</ele>
        <time>2023-08-16T07:43:13Z</time>
      </trkpt>
      <trkpt lat="49.76737" lon="2.2066">
        <ele>141.2</ele>
        <time>2023-08-16T07:43:14Z</time>
      </trkpt>
      <trkpt lat="49.76737" lon="2.2066">
        <ele>141.2</ele>
        <time>2023-08-16T07:43:15Z</time>
      </trkpt>
      <trkpt lat="49.76737" lon="2.2066">
        <ele>141.2</ele>
        <time>2023-08-16T07:43:16Z</time>
      </trkpt>
      <trkpt lat="49.76737" lon="2.2066">
        <ele>141.2</ele>
        <time>2023-08-16T07:43:17Z</time>
      </trkpt>
      <trkpt lat="49.76737" lon="2.2066">
        <ele>141.2</ele>
        <time>2023-08-16T07:43:18Z</time>
      </trkpt>
      <trkpt lat="49.76737" lon="2.2066">
        <ele>141.2</ele>
        <time>2023-08-16T07:43:19Z</time>
      </trkpt>
      <trkpt lat="49.76737" lon="2.2066">
        <ele>141.2</ele>
        <time>2023-08-16T07:43:20Z</time>
      </trkpt>
      <trkpt lat="49.76737" lon="2.2066">
        <ele>141.2</ele>
        <time>2023-08-16T07:43:21Z</time>
      </trkpt>
      <trkpt lat="49.76737" lon="2.2066">
        <ele>141.2</ele>
        <time>2023-08-16T07:43:22Z</time>
      </trkpt>
      <trkpt lat="49.76737" lon="2.2066">
        <ele>141.2</ele>
        <time>2023-08-16T07:43:23Z</time>
      </trkpt>
      <trkpt lat="49.76737" lon="2.2066">
        <ele>141.2</ele>
        <time>2023-08-16T07:43:24Z</time>
      </trkpt>
      <trkpt lat="49.76737" lon="2.2066">
        <ele>141.2</ele>
        <time>2023-08-16T07:43:25Z</time>
      </trkpt>
      <trkpt lat="49.76737" lon="2.2066">
        <ele>141.2</ele>
        <time>2023-08-16T07:43:26Z</time>
      </trkpt>
      <trkpt lat="49.76737" lon="2.2066">
        <ele>141.2</ele>
        <time>2023-08-16T07:43:27Z</time>
      </trkpt>
      <trkpt lat="49.76737" lon="2.2066">
        <ele>141.2</ele>
        <time>2023-08-16T07:43:28Z</time>
      </trkpt>
      <trkpt lat="49.76737" lon="2.2066">
        <ele>141.2</ele>
        <time>2023-08-16T07:43:29Z</time>
      </trkpt>
      <trkpt lat="49.76737" lon="2.2066">
        <ele>141.2</ele>
        <time>2023-08-16T07:43:30Z</time>
      </trkpt>
      <trkpt lat="49.76737" lon="2.2066">
        <ele>141.2</ele>
        <time>2023-08-16T07:43:31Z</time>
      </trkpt>
      <trkpt lat="49.76737" lon="2.2066">
        <ele>141.2</ele>
        <time>2023-08-16T07:43:32Z</time>
      </trkpt>
      <trkpt lat="49.76737" lon="2.2066">
        <ele>141.2</ele>
        <time>2023-08-16T07:43:33Z</time>
      </trkpt>
      <trkpt lat="49.76737" lon="2.2066">
        <ele>141.2</ele>
        <time>2023-08-16T07:43:34Z</time>
      </trkpt>
      <trkpt lat="49.76737" lon="2.2066">
        <ele>141.2</ele>
        <time>2023-08-16T07:43:35Z</time>
      </trkpt>
      <trkpt lat="49.76737" lon="2.2066">
        <ele>141.2</ele>
        <time>2023-08-16T07:43:36Z</time>
      </trkpt>
      <trkpt lat="49.76737" lon="2.2066">
        <ele>141.2</ele>
        <time>2023-08-16T07:43:37Z</time>
      </trkpt>
      <trkpt lat="49.76737" lon="2.2066">
        <ele>141.2</ele>
        <time>2023-08-16T07:43:38Z</time>
      </trkpt>
      <trkpt lat="49.76737" lon="2.2066">
        <ele>141.2</ele>
        <time>2023-08-16T07:43:39Z</time>
      </trkpt>
      <trkpt lat="49.76737" lon="2.2066">
        <ele>141.2</ele>
        <time>2023-08-16T07:43:40Z</time>
      </trkpt>
      <trkpt lat="49.76737" lon="2.2066">
        <ele>141.2</ele>
        <time>2023-08-16T07:43:41Z</time>
      </trkpt>
      <trkpt lat="49.76737" lon="2.2066">
        <ele>141.2</ele>
        <time>2023-08-16T07:43:42Z</time>
      </trkpt>
      <trkpt lat="49.76737" lon="2.2066">
        <ele>141.2</ele>
        <time>2023-08-16T07:43:43Z</time>
      </trkpt>
      <trkpt lat="49.76737" lon="2.2066">
        <ele>141.2</ele>
        <time>2023-08-16T07:43:44Z</time>
      </trkpt>
      <trkpt lat="49.76737" lon="2.2066">
        <ele>141.2</ele>
        <time>2023-08-16T07:43:45Z</time>
      </trkpt>
      <trkpt lat="49.76737" lon="2.2066">
        <ele>141.2</ele>
        <time>2023-08-16T07:43:46Z</time>
      </trkpt>
      <trkpt lat="49.76737" lon="2.2066">
        <ele>141.2</ele>
        <time>2023-08-16T07:43:47Z</time>
      </trkpt>
      <trkpt lat="49.76737" lon="2.2066">
        <ele>141.2</ele>
        <time>2023-08-16T07:43:48Z</time>
      </trkpt>
      <trkpt lat="49.76737" lon="2.2066">
        <ele>141.2</ele>
        <time>2023-08-16T07:43:49Z</time>
      </trkpt>
      <trkpt lat="49.76737" lon="2.2066">
        <ele>141.2</ele>
        <time>2023-08-16T07:43:50Z</time>
      </trkpt>
      <trkpt lat="49.76737" lon="2.2066">
        <ele>141.2</ele>
        <time>2023-08-16T07:43:51Z</time>
      </trkpt>
      <trkpt lat="49.76737" lon="2.2066">
        <ele>141.2</ele>
        <time>2023-08-16T07:43:52Z</time>
      </trkpt>
      <trkpt lat="49.76737" lon="2.2066">
        <ele>141.2</ele>
        <time>2023-08-16T07:43:53Z</time>
      </trkpt>
      <trkpt lat="49.76737" lon="2.2066">
        <ele>141.2</ele>
        <time>2023-08-16T07:43:54Z</time>
      </trkpt>
      <trkpt lat="49.76737" lon="2.2066">
        <ele>141.2</ele>
        <time>2023-08-16T07:43:55Z</time>
      </trkpt>
      <trkpt lat="49.76737" lon="2.2066">
        <ele>141.2</ele>
        <time>2023-08-16T07:43:56Z</time>
      </trkpt>
      <trkpt lat="49.76737" lon="2.2066">
        <ele>141.2</ele>
        <time>2023-08-16T07:43:57Z</time>
      </trkpt>
      <trkpt lat="49.76737" lon="2.2066">
        <ele>141.2</ele>
        <time>2023-08-16T07:43:58Z</time>
      </trkpt>
      <trkpt lat="49.76737" lon="2.2066">
        <ele>141.2</ele>
        <time>2023-08-16T07:43:59Z</time>
      </trkpt>
      <trkpt lat="49.76737" lon="2.2066">
        <ele>141.2</ele>
        <time>2023-08-16T07:44:00Z</time>
      </trkpt>
      <trkpt lat="49.76737" lon="2.2066">
        <ele>141.2</ele>
        <time>2023-08-16T07:44:01Z</time>
      </trkpt>
      <trkpt lat="49.76737" lon="2.2066">
        <ele>141.2</ele>
        <time>2023-08-16T07:44:02Z</time>
      </trkpt>
      <trkpt lat="49.76737" lon="2.2066">
        <ele>141.2</ele>
        <time>2023-08-16T07:44:03Z</time>
      </trkpt>
      <trkpt lat="49.76737" lon="2.2066">
        <ele>141.2</ele>
        <time>2023-08-16T07:44:04Z</time>
      </trkpt>
      <trkpt lat="49.76737" lon="2.2066">
        <ele>141.2</ele>
        <time>2023-08-16T07:44:05Z</time>
      </trkpt>
      <trkpt lat="49.76737" lon="2.2066">
        <ele>141.2</ele>
        <time>2023-08-16T07:44:06Z</time>
      </trkpt>
      <trkpt lat="49.76737" lon="2.2066">
        <ele>141.2</ele>
        <time>2023-08-16T07:44:07Z</time>
      </trkpt>
      <trkpt lat="49.76737" lon="2.2066">
        <ele>141.2</ele>
        <time>2023-08-16T07:44:08Z</time>
      </trkpt>
      <trkpt lat="49.76737" lon="2.2066">
        <ele>141.2</ele>
        <time>2023-08-16T07:44:09Z</time>
      </trkpt>
      <trkpt lat="49.76737" lon="2.2066">
        <ele>141.2</ele>
        <time>2023-08-16T07:44:10Z</time>
      </trkpt>
      <trkpt lat="49.76737" lon="2.2066">
        <ele>141.2</ele>
        <time>2023-08-16T07:44:11Z</time>
      </trkpt>
      <trkpt lat="49.76737" lon="2.2066">
        <ele>141.2</ele>
        <time>2023-08-16T07:44:12Z</time>
      </trkpt>
      <trkpt lat="49.76737" lon="2.2066">
        <ele>141.2</ele>
        <time>2023-08-16T07:44:13Z</time>
      </trkpt>
      <trkpt lat="49.76737" lon="2.2066">
        <ele>141.2</ele>
        <time>2023-08-16T07:44:14Z</time>
      </trkpt>
      <trkpt lat="49.76737" lon="2.2066">
        <ele>141.2</ele>
        <time>2023-08-16T07:44:15Z</time>
      </trkpt>
      <trkpt lat="49.76737" lon="2.2066">
        <ele>141.2</ele>
        <time>2023-08-16T07:44:16Z</time>
      </trkpt>
      <trkpt lat="49.76737" lon="2.2066">
        <ele>141.2</ele>
        <time>2023-08-16T07:44:17Z</time>
      </trkpt>
      <trkpt lat="49.76737" lon="2.2066">
        <ele>141.2</ele>
        <time>2023-08-16T07:44:18Z</time>
      </trkpt>
      <trkpt lat="49.76737" lon="2.2066">
        <ele>141.2</ele>
        <time>2023-08-16T07:44:19Z</time>
      </trkpt>
      <trkpt lat="49.76737" lon="2.2066">
        <ele>141.2</ele>
        <time>2023-08-16T07:44:20Z</time>
      </trkpt>
      <trkpt lat="49.76737" lon="2.2066">
        <ele>141.2</ele>
        <time>2023-08-16T07:44:21Z</time>
      </trkpt>
      <trkpt lat="49.76737" lon="2.2066">
        <ele>141.2</ele>
        <time>2023-08-16T07:44:22Z</time>
      </trkpt>
      <trkpt lat="49.76737" lon="2.2066">
        <ele>141.2</ele>
        <time>2023-08-16T07:44:23Z</time>
      </trkpt>
      <trkpt lat="49.76737" lon="2.2066">
        <ele>141.2</ele>
        <time>2023-08-16T07:44:24Z</time>
      </trkpt>
      <trkpt lat="49.76737" lon="2.2066">
        <ele>141.2</ele>
        <time>2023-08-16T07:44:25Z</time>
      </trkpt>
      <trkpt lat="49.76737" lon="2.2066">
        <ele>141.2</ele>
        <time>2023-08-16T07:44:26Z</time>
      </trkpt>
      <trkpt lat="49.76737" lon="2.2066">
        <ele>141.2</ele>
        <time>2023-08-16T07:44:27Z</time>
      </trkpt>
      <trkpt lat="49.76737" lon="2.2066">
        <ele>141.2</ele>
        <time>2023-08-16T07:44:28Z</time>
      </trkpt>
      <trkpt lat="49.76737" lon="2.2066">
        <ele>141.2</ele>
        <time>2023-08-16T07:44:29Z</time>
      </trkpt>
      <trkpt lat="49.76737" lon="2.2066">
        <ele>141.2</ele>
        <time>2023-08-16T07:44:30Z</time>
      </trkpt>
      <trkpt lat="49.76737" lon="2.2066">
        <ele>141.2</ele>
        <time>2023-08-16T07:44:31Z</time>
      </trkpt>
      <trkpt lat="49.76737" lon="2.2066">
        <ele>141.2</ele>
        <time>2023-08-16T07:44:32Z</time>
      </trkpt>
      <trkpt lat="49.76737" lon="2.2066">
        <ele>141.2</ele>
        <time>2023-08-16T07:44:33Z</time>
      </trkpt>
      <trkpt lat="49.76737" lon="2.2066">
        <ele>141.2</ele>
        <time>2023-08-16T07:44:34Z</time>
      </trkpt>
      <trkpt lat="49.76737" lon="2.2066">
        <ele>141.2</ele>
        <time>2023-08-16T07:44:35Z</time>
      </trkpt>
      <trkpt lat="49.76737" lon="2.2066">
        <ele>141.2</ele>
        <time>2023-08-16T07:44:36Z</time>
      </trkpt>
      <trkpt lat="49.76737" lon="2.2066">
        <ele>141.2</ele>
        <time>2023-08-16T07:44:37Z</time>
      </trkpt>
      <trkpt lat="49.76737" lon="2.2066">
        <ele>141.2</ele>
        <time>2023-08-16T07:44:38Z</time>
      </trkpt>
      <trkpt lat="49.76737" lon="2.2066">
        <ele>141.2</ele>
        <time>2023-08-16T07:44:39Z</time>
      </trkpt>
      <trkpt lat="49.76737" lon="2.2066">
        <ele>141.2</ele>
        <time>2023-08-16T07:44:40Z</time>
      </trkpt>
      <trkpt lat="49.76736" lon="2.20661">
        <ele>141.3</ele>
        <time>2023-08-16T07:44:41Z</time>
      </trkpt>
      <trkpt lat="49.76735" lon="2.20662">
        <ele>141.3</ele>
        <time>2023-08-16T07:44:42Z</time>
      </trkpt>
      <trkpt lat="49.76735" lon="2.20662">
        <ele>141.3</ele>
        <time>2023-08-16T07:44:43Z</time>
      </trkpt>
      <trkpt lat="49.76735" lon="2.20662">
        <ele>141.3</ele>
        <time>2023-08-16T07:44:44Z</time>
      </trkpt>
      <trkpt lat="49.76735" lon="2.20663">
        <ele>141.3</ele>
        <time>2023-08-16T07:44:45Z</time>
      </trkpt>
      <trkpt lat="49.76735" lon="2.20663">
        <ele>141.3</ele>
        <time>2023-08-16T07:44:46Z</time>
      </trkpt>
      <trkpt lat="49.76735" lon="2.20663">
        <ele>141.3</ele>
        <time>2023-08-16T07:44:47Z</time>
      </trkpt>
      <trkpt lat="49.76735" lon="2.20662">
        <ele>141.3</ele>
        <time>2023-08-16T07:44:48Z</time>
      </trkpt>
      <trkpt lat="49.76735" lon="2.20662">
        <ele>141.3</ele>
        <time>2023-08-16T07:44:49Z</time>
      </trkpt>
      <trkpt lat="49.76735" lon="2.20662">
        <ele>141.3</ele>
        <time>2023-08-16T07:44:50Z</time>
      </trkpt>
      <trkpt lat="49.76735" lon="2.20662">
        <ele>141.3</ele>
        <time>2023-08-16T07:44:51Z</time>
      </trkpt>
      <trkpt lat="49.76735" lon="2.20662">
        <ele>141.3</ele>
        <time>2023-08-16T07:44:52Z</time>
      </trkpt>
      <trkpt lat="49.76735" lon="2.20662">
        <ele>141.3</ele>
        <time>2023-08-16T07:44:53Z</time>
      </trkpt>
      <trkpt lat="49.76735" lon="2.20662">
        <ele>141.3</ele>
        <time>2023-08-16T07:44:54Z</time>
      </trkpt>
      <trkpt lat="49.76735" lon="2.20662">
        <ele>141.3</ele>
        <time>2023-08-16T07:44:55Z</time>
      </trkpt>
      <trkpt lat="49.76735" lon="2.20663">
        <ele>141.4</ele>
        <time>2023-08-16T07:44:56Z</time>
      </trkpt>
      <trkpt lat="49.76735" lon="2.20663">
        <ele>141.4</ele>
        <time>2023-08-16T07:44:57Z</time>
      </trkpt>
      <trkpt lat="49.76736" lon="2.20663">
        <ele>141.4</ele>
        <time>2023-08-16T07:44:58Z</time>
      </trkpt>
      <trkpt lat="49.76736" lon="2.20663">
        <ele>141.4</ele>
        <time>2023-08-16T07:44:59Z</time>
      </trkpt>
      <trkpt lat="49.76736" lon="2.20663">
        <ele>141.4</ele>
        <time>2023-08-16T07:45:00Z</time>
      </trkpt>
      <trkpt lat="49.76736" lon="2.20663">
        <ele>141.4</ele>
        <time>2023-08-16T07:45:01Z</time>
      </trkpt>
      <trkpt lat="49.76736" lon="2.20663">
        <ele>141.4</ele>
        <time>2023-08-16T07:45:02Z</time>
      </trkpt>
      <trkpt lat="49.76736" lon="2.20663">
        <ele>141.4</ele>
        <time>2023-08-16T07:45:03Z</time>
      </trkpt>
      <trkpt lat="49.76736" lon="2.20663">
        <ele>141.4</ele>
        <time>2023-08-16T07:45:04Z</time>
      </trkpt>
      <trkpt lat="49.76736" lon="2.20663">
        <ele>141.4</ele>
        <time>2023-08-16T07:45:05Z</time>
      </trkpt>
      <trkpt lat="49.76736" lon="2.20663">
        <ele>141.4</ele>
        <time>2023-08-16T07:45:06Z</time>
      </trkpt>
      <trkpt lat="49.76736" lon="2.20663">
        <ele>141.4</ele>
        <time>2023-08-16T07:45:07Z</time>
      </trkpt>
      <trkpt lat="49.76736" lon="2.20663">
        <ele>141.4</ele>
        <time>2023-08-16T07:45:08Z</time>
      </trkpt>
      <trkpt lat="49.76736" lon="2.20663">
        <ele>141.4</ele>
        <time>2023-08-16T07:45:09Z</time>
      </trkpt>
      <trkpt lat="49.76736" lon="2.20663">
        <ele>141.4</ele>
        <time>2023-08-16T07:45:10Z</time>
      </trkpt>
      <trkpt lat="49.76736" lon="2.20663">
        <ele>141.4</ele>
        <time>2023-08-16T07:45:11Z</time>
      </trkpt>
      <trkpt lat="49.76736" lon="2.20663">
        <ele>141.4</ele>
        <time>2023-08-16T07:45:12Z</time>
      </trkpt>
      <trkpt lat="49.76736" lon="2.20663">
        <ele>141.4</ele>
        <time>2023-08-16T07:45:13Z</time>
      </trkpt>
      <trkpt lat="49.76736" lon="2.20663">
        <ele>141.4</ele>
        <time>2023-08-16T07:45:14Z</time>
      </trkpt>
      <trkpt lat="49.76735" lon="2.20662">
        <ele>141.4</ele>
        <time>2023-08-16T07:45:16Z</time>
      </trkpt>
      <trkpt lat="49.76735" lon="2.20662">
        <ele>141.4</ele>
        <time>2023-08-16T07:45:17Z</time>
      </trkpt>
      <trkpt lat="49.76735" lon="2.20662">
        <ele>141.4</ele>
        <time>2023-08-16T07:45:19Z</time>
      </trkpt>
      <trkpt lat="49.76735" lon="2.20662">
        <ele>141.4</ele>
        <time>2023-08-16T07:45:20Z</time>
      </trkpt>
      <trkpt lat="49.76735" lon="2.20662">
        <ele>141.4</ele>
        <time>2023-08-16T07:45:22Z</time>
      </trkpt>
      <trkpt lat="49.76735" lon="2.20662">
        <ele>141.4</ele>
        <time>2023-08-16T07:45:23Z</time>
      </trkpt>
      <trkpt lat="49.76735" lon="2.20662">
        <ele>141.4</ele>
        <time>2023-08-16T07:45:24Z</time>
      </trkpt>
      <trkpt lat="49.76735" lon="2.20662">
        <ele>141.4</ele>
        <time>2023-08-16T07:45:26Z</time>
      </trkpt>
      <trkpt lat="49.76735" lon="2.20662">
        <ele>141.4</ele>
        <time>2023-08-16T07:45:27Z</time>
      </trkpt>
      <trkpt lat="49.76735" lon="2.20662">
        <ele>141.4</ele>
        <time>2023-08-16T07:45:29Z</time>
      </trkpt>
      <trkpt lat="49.76735" lon="2.20662">
        <ele>141.4</ele>
        <time>2023-08-16T07:45:30Z</time>
      </trkpt>
      <trkpt lat="49.76735" lon="2.20662">
        <ele>141.4</ele>
        <time>2023-08-16T07:45:32Z</time>
      </trkpt>
      <trkpt lat="49.76735" lon="2.20662">
        <ele>141.4</ele>
        <time>2023-08-16T07:45:33Z</time>
      </trkpt>
      <trkpt lat="49.76735" lon="2.20662">
        <ele>141.4</ele>
        <time>2023-08-16T07:45:35Z</time>
      </trkpt>
      <trkpt lat="49.76735" lon="2.20662">
        <ele>141.4</ele>
        <time>2023-08-16T07:45:36Z</time>
      </trkpt>
      <trkpt lat="49.76735" lon="2.20662">
        <ele>141.4</ele>
        <time>2023-08-16T07:45:37Z</time>
      </trkpt>
      <trkpt lat="49.76735" lon="2.20662">
        <ele>141.4</ele>
        <time>2023-08-16T07:45:38Z</time>
      </trkpt>
      <trkpt lat="49.76735" lon="2.20662">
        <ele>141.4</ele>
        <time>2023-08-16T07:45:39Z</time>
      </trkpt>
      <trkpt lat="49.76735" lon="2.20662">
        <ele>141.4</ele>
        <time>2023-08-16T07:45:40Z</time>
      </trkpt>
      <trkpt lat="49.76735" lon="2.20662">
        <ele>141.4</ele>
        <time>2023-08-16T07:45:41Z</time>
      </trkpt>
      <trkpt lat="49.76735" lon="2.20662">
        <ele>141.4</ele>
        <time>2023-08-16T07:45:42Z</time>
      </trkpt>
      <trkpt lat="49.76735" lon="2.20662">
        <ele>141.4</ele>
        <time>2023-08-16T07:45:43Z</time>
      </trkpt>
      <trkpt lat="49.76735" lon="2.20662">
        <ele>141.4</ele>
        <time>2023-08-16T07:45:44Z</time>
      </trkpt>
      <trkpt lat="49.76735" lon="2.20662">
        <ele>141.4</ele>
        <time>2023-08-16T07:45:45Z</time>
      </trkpt>
      <trkpt lat="49.76735" lon="2.20662">
        <ele>141.4</ele>
        <time>2023-08-16T07:45:46Z</time>
      </trkpt>
      <trkpt lat="49.76735" lon="2.20662">
        <ele>141.4</ele>
        <time>2023-08-16T07:45:47Z</time>
      </trkpt>
      <trkpt lat="49.76735" lon="2.20662">
        <ele>141.4</ele>
        <time>2023-08-16T07:45:48Z</time>
      </trkpt>
      <trkpt lat="49.76735" lon="2.20662">
        <ele>141.4</ele>
        <time>2023-08-16T07:45:49Z</time>
      </trkpt>
      <trkpt lat="49.76735" lon="2.20662">
        <ele>141.4</ele>
        <time>2023-08-16T07:45:50Z</time>
      </trkpt>
      <trkpt lat="49.76735" lon="2.20662">
        <ele>141.4</ele>
        <time>2023-08-16T07:45:51Z</time>
      </trkpt>
      <trkpt lat="49.76735" lon="2.20662">
        <ele>141.4</ele>
        <time>2023-08-16T07:45:52Z</time>
      </trkpt>
      <trkpt lat="49.76735" lon="2.20662">
        <ele>141.4</ele>
        <time>2023-08-16T07:45:53Z</time>
      </trkpt>
      <trkpt lat="49.76735" lon="2.20662">
        <ele>141.4</ele>
        <time>2023-08-16T07:45:54Z</time>
      </trkpt>
      <trkpt lat="49.76735" lon="2.20662">
        <ele>141.4</ele>
        <time>2023-08-16T07:45:55Z</time>
      </trkpt>
      <trkpt lat="49.76735" lon="2.20662">
        <ele>141.4</ele>
        <time>2023-08-16T07:45:56Z</time>
      </trkpt>
      <trkpt lat="49.76735" lon="2.20662">
        <ele>141.4</ele>
        <time>2023-08-16T07:45:57Z</time>
      </trkpt>
      <trkpt lat="49.76735" lon="2.20662">
        <ele>141.4</ele>
        <time>2023-08-16T07:45:58Z</time>
      </trkpt>
      <trkpt lat="49.76735" lon="2.20662">
        <ele>141.4</ele>
        <time>2023-08-16T07:45:59Z</time>
      </trkpt>
      <trkpt lat="49.76735" lon="2.20662">
        <ele>141.4</ele>
        <time>2023-08-16T07:46:00Z</time>
      </trkpt>
      <trkpt lat="49.76735" lon="2.20662">
        <ele>141.4</ele>
        <time>2023-08-16T07:46:01Z</time>
      </trkpt>
      <trkpt lat="49.76735" lon="2.20662">
        <ele>141.4</ele>
        <time>2023-08-16T07:46:02Z</time>
      </trkpt>
      <trkpt lat="49.76735" lon="2.20662">
        <ele>141.4</ele>
        <time>2023-08-16T07:46:03Z</time>
      </trkpt>
      <trkpt lat="49.76735" lon="2.20662">
        <ele>141.4</ele>
        <time>2023-08-16T07:46:04Z</time>
      </trkpt>
      <trkpt lat="49.76735" lon="2.20662">
        <ele>141.4</ele>
        <time>2023-08-16T07:46:05Z</time>
      </trkpt>
      <trkpt lat="49.76735" lon="2.20662">
        <ele>141.4</ele>
        <time>2023-08-16T07:46:06Z</time>
      </trkpt>
      <trkpt lat="49.76735" lon="2.20662">
        <ele>141.4</ele>
        <time>2023-08-16T07:46:07Z</time>
      </trkpt>
      <trkpt lat="49.76735" lon="2.20662">
        <ele>141.4</ele>
        <time>2023-08-16T07:46:08Z</time>
      </trkpt>
      <trkpt lat="49.76735" lon="2.20662">
        <ele>141.4</ele>
        <time>2023-08-16T07:46:09Z</time>
      </trkpt>
      <trkpt lat="49.76735" lon="2.20662">
        <ele>141.4</ele>
        <time>2023-08-16T07:46:10Z</time>
      </trkpt>
      <trkpt lat="49.76735" lon="2.20662">
        <ele>141.4</ele>
        <time>2023-08-16T07:46:11Z</time>
      </trkpt>
      <trkpt lat="49.76735" lon="2.20662">
        <ele>141.4</ele>
        <time>2023-08-16T07:46:12Z</time>
      </trkpt>
      <trkpt lat="49.76735" lon="2.20662">
        <ele>141.4</ele>
        <time>2023-08-16T07:46:13Z</time>
      </trkpt>
      <trkpt lat="49.76735" lon="2.20662">
        <ele>141.4</ele>
        <time>2023-08-16T07:46:14Z</time>
      </trkpt>
      <trkpt lat="49.76735" lon="2.20662">
        <ele>141.4</ele>
        <time>2023-08-16T07:46:15Z</time>
      </trkpt>
      <trkpt lat="49.76735" lon="2.20662">
        <ele>141.4</ele>
        <time>2023-08-16T07:46:16Z</time>
      </trkpt>
      <trkpt lat="49.76735" lon="2.20662">
        <ele>141.4</ele>
        <time>2023-08-16T07:46:17Z</time>
      </trkpt>
      <trkpt lat="49.76735" lon="2.20662">
        <ele>141.4</ele>
        <time>2023-08-16T07:46:18Z</time>
      </trkpt>
      <trkpt lat="49.76735" lon="2.20662">
        <ele>141.4</ele>
        <time>2023-08-16T07:46:19Z</time>
      </trkpt>
      <trkpt lat="49.76735" lon="2.20662">
        <ele>141.4</ele>
        <time>2023-08-16T07:46:20Z</time>
      </trkpt>
      <trkpt lat="49.76735" lon="2.20662">
        <ele>141.4</ele>
        <time>2023-08-16T07:46:21Z</time>
      </trkpt>
      <trkpt lat="49.76735" lon="2.20662">
        <ele>141.4</ele>
        <time>2023-08-16T07:46:22Z</time>
      </trkpt>
      <trkpt lat="49.76735" lon="2.20662">
        <ele>141.4</ele>
        <time>2023-08-16T07:46:23Z</time>
      </trkpt>
      <trkpt lat="49.76735" lon="2.20662">
        <ele>141.4</ele>
        <time>2023-08-16T07:46:24Z</time>
      </trkpt>
      <trkpt lat="49.76735" lon="2.20662">
        <ele>141.4</ele>
        <time>2023-08-16T07:46:25Z</time>
      </trkpt>
      <trkpt lat="49.76735" lon="2.20662">
        <ele>141.4</ele>
        <time>2023-08-16T07:46:26Z</time>
      </trkpt>
      <trkpt lat="49.76735" lon="2.20663">
        <ele>141.4</ele>
        <time>2023-08-16T07:46:27Z</time>
      </trkpt>
      <trkpt lat="49.76735" lon="2.20663">
        <ele>141.5</ele>
        <time>2023-08-16T07:46:28Z</time>
      </trkpt>
      <trkpt lat="49.76735" lon="2.20664">
        <ele>141.5</ele>
        <time>2023-08-16T07:46:29Z</time>
      </trkpt>
      <trkpt lat="49.76735" lon="2.20665">
        <ele>141.5</ele>
        <time>2023-08-16T07:46:30Z</time>
      </trkpt>
      <trkpt lat="49.76735" lon="2.20666">
        <ele>141.5</ele>
        <time>2023-08-16T07:46:31Z</time>
      </trkpt>
      <trkpt lat="49.76735" lon="2.20668">
        <ele>141.5</ele>
        <time>2023-08-16T07:46:32Z</time>
      </trkpt>
      <trkpt lat="49.76734" lon="2.20668">
        <ele>141.6</ele>
        <time>2023-08-16T07:46:34Z</time>
      </trkpt>
      <trkpt lat="49.76734" lon="2.20669">
        <ele>141.6</ele>
        <time>2023-08-16T07:46:35Z</time>
      </trkpt>
      <trkpt lat="49.76734" lon="2.2067">
        <ele>141.6</ele>
        <time>2023-08-16T07:46:36Z</time>
      </trkpt>
      <trkpt lat="49.76733" lon="2.20672">
        <ele>141.7</ele>
        <time>2023-08-16T07:46:37Z</time>
      </trkpt>
      <trkpt lat="49.76731" lon="2.20674">
        <ele>141.7</ele>
        <time>2023-08-16T07:46:38Z</time>
      </trkpt>
      <trkpt lat="49.7673" lon="2.20676">
        <ele>141.8</ele>
        <time>2023-08-16T07:46:39Z</time>
      </trkpt>
      <trkpt lat="49.7673" lon="2.20678">
        <ele>141.8</ele>
        <time>2023-08-16T07:46:40Z</time>
      </trkpt>
      <trkpt lat="49.76729" lon="2.2068">
        <ele>141.8</ele>
        <time>2023-08-16T07:46:42Z</time>
      </trkpt>
      <trkpt lat="49.76729" lon="2.20682">
        <ele>141.9</ele>
        <time>2023-08-16T07:46:43Z</time>
      </trkpt>
      <trkpt lat="49.76728" lon="2.20683">
        <ele>141.9</ele>
        <time>2023-08-16T07:46:44Z</time>
      </trkpt>
      <trkpt lat="49.76728" lon="2.20685">
        <ele>141.9</ele>
        <time>2023-08-16T07:46:45Z</time>
      </trkpt>
      <trkpt lat="49.76727" lon="2.20686">
        <ele>142</ele>
        <time>2023-08-16T07:46:46Z</time>
      </trkpt>
      <trkpt lat="49.76727" lon="2.20687">
        <ele>142</ele>
        <time>2023-08-16T07:46:47Z</time>
      </trkpt>
      <trkpt lat="49.76726" lon="2.20689">
        <ele>142</ele>
        <time>2023-08-16T07:46:49Z</time>
      </trkpt>
      <trkpt lat="49.76725" lon="2.2069">
        <ele>142</ele>
        <time>2023-08-16T07:46:50Z</time>
      </trkpt>
      <trkpt lat="49.76725" lon="2.20691">
        <ele>142.1</ele>
        <time>2023-08-16T07:46:51Z</time>
      </trkpt>
      <trkpt lat="49.76724" lon="2.20692">
        <ele>142.1</ele>
        <time>2023-08-16T07:46:52Z</time>
      </trkpt>
      <trkpt lat="49.76724" lon="2.20692">
        <ele>142.1</ele>
        <time>2023-08-16T07:46:53Z</time>
      </trkpt>
      <trkpt lat="49.76723" lon="2.20693">
        <ele>142.1</ele>
        <time>2023-08-16T07:46:54Z</time>
      </trkpt>
      <trkpt lat="49.76723" lon="2.20694">
        <ele>142.2</ele>
        <time>2023-08-16T07:46:55Z</time>
      </trkpt>
      <trkpt lat="49.76722" lon="2.20696">
        <ele>142.2</ele>
        <time>2023-08-16T07:46:57Z</time>
      </trkpt>
      <trkpt lat="49.76721" lon="2.20697">
        <ele>142.2</ele>
        <time>2023-08-16T07:46:58Z</time>
      </trkpt>
      <trkpt lat="49.7672" lon="2.20698">
        <ele>142.2</ele>
        <time>2023-08-16T07:46:59Z</time>
      </trkpt>
      <trkpt lat="49.7672" lon="2.207">
        <ele>142.3</ele>
        <time>2023-08-16T07:47:00Z</time>
      </trkpt>
      <trkpt lat="49.76719" lon="2.20701">
        <ele>142.3</ele>
        <time>2023-08-16T07:47:01Z</time>
      </trkpt>
      <trkpt lat="49.76718" lon="2.20704">
        <ele>142.3</ele>
        <time>2023-08-16T07:47:03Z</time>
      </trkpt>
      <trkpt lat="49.76717" lon="2.20705">
        <ele>142.3</ele>
        <time>2023-08-16T07:47:04Z</time>
      </trkpt>
      <trkpt lat="49.76716" lon="2.20706">
        <ele>142.4</ele>
        <time>2023-08-16T07:47:05Z</time>
      </trkpt>
      <trkpt lat="49.76715" lon="2.20707">
        <ele>142.4</ele>
        <time>2023-08-16T07:47:06Z</time>
      </trkpt>
      <trkpt lat="49.76715" lon="2.20708">
        <ele>142.4</ele>
        <time>2023-08-16T07:47:07Z</time>
      </trkpt>
      <trkpt lat="49.76714" lon="2.20709">
        <ele>142.4</ele>
        <time>2023-08-16T07:47:08Z</time>
      </trkpt>
      <trkpt lat="49.76713" lon="2.20711">
        <ele>142.5</ele>
        <time>2023-08-16T07:47:10Z</time>
      </trkpt>
      <trkpt lat="49.76712" lon="2.20713">
        <ele>142.5</ele>
        <time>2023-08-16T07:47:11Z</time>
      </trkpt>
      <trkpt lat="49.76712" lon="2.20714">
        <ele>142.5</ele>
        <time>2023-08-16T07:47:13Z</time>
      </trkpt>
      <trkpt lat="49.76711" lon="2.20716">
        <ele>142.6</ele>
        <time>2023-08-16T07:47:14Z</time>
      </trkpt>
      <trkpt lat="49.7671" lon="2.20717">
        <ele>142.6</ele>
        <time>2023-08-16T07:47:15Z</time>
      </trkpt>
      <trkpt lat="49.7671" lon="2.20718">
        <ele>142.6</ele>
        <time>2023-08-16T07:47:16Z</time>
      </trkpt>
      <trkpt lat="49.76709" lon="2.20719">
        <ele>142.6</ele>
        <time>2023-08-16T07:47:17Z</time>
      </trkpt>
      <trkpt lat="49.76708" lon="2.2072">
        <ele>142.6</ele>
        <time>2023-08-16T07:47:18Z</time>
      </trkpt>
      <trkpt lat="49.76706" lon="2.20722">
        <ele>142.7</ele>
        <time>2023-08-16T07:47:20Z</time>
      </trkpt>
      <trkpt lat="49.76706" lon="2.20723">
        <ele>142.7</ele>
        <time>2023-08-16T07:47:21Z</time>
      </trkpt>
      <trkpt lat="49.76705" lon="2.20724">
        <ele>142.7</ele>
        <time>2023-08-16T07:47:22Z</time>
      </trkpt>
      <trkpt lat="49.76704" lon="2.20725">
        <ele>142.8</ele>
        <time>2023-08-16T07:47:23Z</time>
      </trkpt>
      <trkpt lat="49.76704" lon="2.20727">
        <ele>142.8</ele>
        <time>2023-08-16T07:47:24Z</time>
      </trkpt>
      <trkpt lat="49.76703" lon="2.20728">
        <ele>142.8</ele>
        <time>2023-08-16T07:47:25Z</time>
      </trkpt>
      <trkpt lat="49.76702" lon="2.2073">
        <ele>142.8</ele>
        <time>2023-08-16T07:47:27Z</time>
      </trkpt>
      <trkpt lat="49.76701" lon="2.20731">
        <ele>142.9</ele>
        <time>2023-08-16T07:47:28Z</time>
      </trkpt>
      <trkpt lat="49.767" lon="2.20733">
        <ele>142.9</ele>
        <time>2023-08-16T07:47:29Z</time>
      </trkpt>
      <trkpt lat="49.767" lon="2.20734">
        <ele>142.9</ele>
        <time>2023-08-16T07:47:30Z</time>
      </trkpt>
      <trkpt lat="49.76699" lon="2.20735">
        <ele>143</ele>
        <time>2023-08-16T07:47:31Z</time>
      </trkpt>
      <trkpt lat="49.76698" lon="2.20736">
        <ele>143</ele>
        <time>2023-08-16T07:47:32Z</time>
      </trkpt>
      <trkpt lat="49.76697" lon="2.20737">
        <ele>143</ele>
        <time>2023-08-16T07:47:34Z</time>
      </trkpt>
      <trkpt lat="49.76696" lon="2.20739">
        <ele>143</ele>
        <time>2023-08-16T07:47:35Z</time>
      </trkpt>
      <trkpt lat="49.76695" lon="2.2074">
        <ele>143.1</ele>
        <time>2023-08-16T07:47:36Z</time>
      </trkpt>
      <trkpt lat="49.76694" lon="2.20741">
        <ele>143.1</ele>
        <time>2023-08-16T07:47:37Z</time>
      </trkpt>
      <trkpt lat="49.76693" lon="2.20742">
        <ele>143.1</ele>
        <time>2023-08-16T07:47:38Z</time>
      </trkpt>
      <trkpt lat="49.76692" lon="2.20743">
        <ele>143.2</ele>
        <time>2023-08-16T07:47:39Z</time>
      </trkpt>
      <trkpt lat="49.76691" lon="2.20745">
        <ele>143.2</ele>
        <time>2023-08-16T07:47:40Z</time>
      </trkpt>
      <trkpt lat="49.7669" lon="2.20746">
        <ele>143.2</ele>
        <time>2023-08-16T07:47:42Z</time>
      </trkpt>
      <trkpt lat="49.76689" lon="2.20748">
        <ele>143.3</ele>
        <time>2023-08-16T07:47:43Z</time>
      </trkpt>
      <trkpt lat="49.76689" lon="2.20749">
        <ele>143.3</ele>
        <time>2023-08-16T07:47:44Z</time>
      </trkpt>
      <trkpt lat="49.76688" lon="2.20751">
        <ele>143.3</ele>
        <time>2023-08-16T07:47:45Z</time>
      </trkpt>
      <trkpt lat="49.76687" lon="2.20752">
        <ele>143.4</ele>
        <time>2023-08-16T07:47:46Z</time>
      </trkpt>
      <trkpt lat="49.76686" lon="2.20753">
        <ele>143.4</ele>
        <time>2023-08-16T07:47:47Z</time>
      </trkpt>
      <trkpt lat="49.76685" lon="2.20755">
        <ele>143.4</ele>
        <time>2023-08-16T07:47:48Z</time>
      </trkpt>
      <trkpt lat="49.76685" lon="2.20757">
        <ele>143.5</ele>
        <time>2023-08-16T07:47:50Z</time>
      </trkpt>
      <trkpt lat="49.76684" lon="2.20758">
        <ele>143.5</ele>
        <time>2023-08-16T07:47:51Z</time>
      </trkpt>
      <trkpt lat="49.76683" lon="2.2076">
        <ele>143.6</ele>
        <time>2023-08-16T07:47:52Z</time>
      </trkpt>
      <trkpt lat="49.76682" lon="2.20761">
        <ele>143.6</ele>
        <time>2023-08-16T07:47:53Z</time>
      </trkpt>
      <trkpt lat="49.76681" lon="2.20762">
        <ele>143.6</ele>
        <time>2023-08-16T07:47:54Z</time>
      </trkpt>
      <trkpt lat="49.7668" lon="2.20763">
        <ele>143.7</ele>
        <time>2023-08-16T07:47:55Z</time>
      </trkpt>
      <trkpt lat="49.76679" lon="2.20765">
        <ele>143.7</ele>
        <time>2023-08-16T07:47:56Z</time>
      </trkpt>
      <trkpt lat="49.76678" lon="2.20766">
        <ele>143.8</ele>
        <time>2023-08-16T07:47:57Z</time>
      </trkpt>
      <trkpt lat="49.76678" lon="2.20767">
        <ele>143.8</ele>
        <time>2023-08-16T07:47:59Z</time>
      </trkpt>
      <trkpt lat="49.76676" lon="2.2077">
        <ele>143.9</ele>
        <time>2023-08-16T07:48:00Z</time>
      </trkpt>
      <trkpt lat="49.76675" lon="2.20771">
        <ele>143.9</ele>
        <time>2023-08-16T07:48:01Z</time>
      </trkpt>
      <trkpt lat="49.76675" lon="2.20772">
        <ele>143.9</ele>
        <time>2023-08-16T07:48:02Z</time>
      </trkpt>
      <trkpt lat="49.76674" lon="2.20773">
        <ele>144</ele>
        <time>2023-08-16T07:48:03Z</time>
      </trkpt>
      <trkpt lat="49.76674" lon="2.20774">
        <ele>144</ele>
        <time>2023-08-16T07:48:04Z</time>
      </trkpt>
      <trkpt lat="49.76673" lon="2.20775">
        <ele>144</ele>
        <time>2023-08-16T07:48:05Z</time>
      </trkpt>
      <trkpt lat="49.76672" lon="2.20776">
        <ele>144.1</ele>
        <time>2023-08-16T07:48:06Z</time>
      </trkpt>
      <trkpt lat="49.76671" lon="2.20778">
        <ele>144.1</ele>
        <time>2023-08-16T07:48:08Z</time>
      </trkpt>
      <trkpt lat="49.7667" lon="2.20779">
        <ele>144.2</ele>
        <time>2023-08-16T07:48:09Z</time>
      </trkpt>
      <trkpt lat="49.76669" lon="2.2078">
        <ele>144.2</ele>
        <time>2023-08-16T07:48:10Z</time>
      </trkpt>
      <trkpt lat="49.76669" lon="2.20782">
        <ele>144.2</ele>
        <time>2023-08-16T07:48:11Z</time>
      </trkpt>
      <trkpt lat="49.76668" lon="2.20783">
        <ele>144.3</ele>
        <time>2023-08-16T07:48:12Z</time>
      </trkpt>
      <trkpt lat="49.76667" lon="2.20785">
        <ele>144.3</ele>
        <time>2023-08-16T07:48:13Z</time>
      </trkpt>
      <trkpt lat="49.76666" lon="2.20786">
        <ele>144.4</ele>
        <time>2023-08-16T07:48:14Z</time>
      </trkpt>
      <trkpt lat="49.76665" lon="2.20787">
        <ele>144.4</ele>
        <time>2023-08-16T07:48:16Z</time>
      </trkpt>
      <trkpt lat="49.76665" lon="2.20788">
        <ele>144.5</ele>
        <time>2023-08-16T07:48:17Z</time>
      </trkpt>
      <trkpt lat="49.76664" lon="2.2079">
        <ele>144.5</ele>
        <time>2023-08-16T07:48:18Z</time>
      </trkpt>
      <trkpt lat="49.76663" lon="2.20791">
        <ele>144.5</ele>
        <time>2023-08-16T07:48:19Z</time>
      </trkpt>
      <trkpt lat="49.76662" lon="2.20793">
        <ele>144.6</ele>
        <time>2023-08-16T07:48:20Z</time>
      </trkpt>
      <trkpt lat="49.76661" lon="2.20794">
        <ele>144.6</ele>
        <time>2023-08-16T07:48:21Z</time>
      </trkpt>
      <trkpt lat="49.76661" lon="2.20795">
        <ele>144.7</ele>
        <time>2023-08-16T07:48:22Z</time>
      </trkpt>
      <trkpt lat="49.7666" lon="2.20797">
        <ele>144.7</ele>
        <time>2023-08-16T07:48:24Z</time>
      </trkpt>
      <trkpt lat="49.76659" lon="2.20798">
        <ele>144.8</ele>
        <time>2023-08-16T07:48:25Z</time>
      </trkpt>
      <trkpt lat="49.76658" lon="2.20799">
        <ele>144.8</ele>
        <time>2023-08-16T07:48:26Z</time>
      </trkpt>
      <trkpt lat="49.76657" lon="2.20801">
        <ele>144.9</ele>
        <time>2023-08-16T07:48:27Z</time>
      </trkpt>
      <trkpt lat="49.76657" lon="2.20802">
        <ele>144.9</ele>
        <time>2023-08-16T07:48:28Z</time>
      </trkpt>
      <trkpt lat="49.76656" lon="2.20804">
        <ele>145</ele>
        <time>2023-08-16T07:48:29Z</time>
      </trkpt>
      <trkpt lat="49.76655" lon="2.20805">
        <ele>145</ele>
        <time>2023-08-16T07:48:30Z</time>
      </trkpt>
      <trkpt lat="49.76654" lon="2.20807">
        <ele>145</ele>
        <time>2023-08-16T07:48:32Z</time>
      </trkpt>
      <trkpt lat="49.76653" lon="2.2081">
        <ele>145.1</ele>
        <time>2023-08-16T07:48:33Z</time>
      </trkpt>
      <trkpt lat="49.76652" lon="2.2081">
        <ele>145.1</ele>
        <time>2023-08-16T07:48:34Z</time>
      </trkpt>
      <trkpt lat="49.76652" lon="2.20811">
        <ele>145.2</ele>
        <time>2023-08-16T07:48:35Z</time>
      </trkpt>
      <trkpt lat="49.76651" lon="2.20813">
        <ele>145.2</ele>
        <time>2023-08-16T07:48:36Z</time>
      </trkpt>
      <trkpt lat="49.7665" lon="2.20814">
        <ele>145.3</ele>
        <time>2023-08-16T07:48:37Z</time>
      </trkpt>
      <trkpt lat="49.7665" lon="2.20816">
        <ele>145.3</ele>
        <time>2023-08-16T07:48:39Z</time>
      </trkpt>
      <trkpt lat="49.76649" lon="2.20818">
        <ele>145.3</ele>
        <time>2023-08-16T07:48:40Z</time>
      </trkpt>
      <trkpt lat="49.76648" lon="2.20819">
        <ele>145.4</ele>
        <time>2023-08-16T07:48:41Z</time>
      </trkpt>
      <trkpt lat="49.76648" lon="2.20821">
        <ele>145.4</ele>
        <time>2023-08-16T07:48:42Z</time>
      </trkpt>
      <trkpt lat="49.76647" lon="2.20822">
        <ele>145.4</ele>
        <time>2023-08-16T07:48:43Z</time>
      </trkpt>
      <trkpt lat="49.76647" lon="2.20824">
        <ele>145.5</ele>
        <time>2023-08-16T07:48:44Z</time>
      </trkpt>
      <trkpt lat="49.76646" lon="2.20825">
        <ele>145.5</ele>
        <time>2023-08-16T07:48:46Z</time>
      </trkpt>
      <trkpt lat="49.76645" lon="2.20827">
        <ele>145.5</ele>
        <time>2023-08-16T07:48:47Z</time>
      </trkpt>
      <trkpt lat="49.76644" lon="2.20828">
        <ele>145.6</ele>
        <time>2023-08-16T07:48:48Z</time>
      </trkpt>
      <trkpt lat="49.76643" lon="2.20829">
        <ele>145.6</ele>
        <time>2023-08-16T07:48:49Z</time>
      </trkpt>
      <trkpt lat="49.76642" lon="2.20831">
        <ele>145.6</ele>
        <time>2023-08-16T07:48:50Z</time>
      </trkpt>
      <trkpt lat="49.76642" lon="2.20832">
        <ele>145.7</ele>
        <time>2023-08-16T07:48:51Z</time>
      </trkpt>
      <trkpt lat="49.76641" lon="2.20833">
        <ele>145.7</ele>
        <time>2023-08-16T07:48:52Z</time>
      </trkpt>
      <trkpt lat="49.7664" lon="2.20836">
        <ele>145.8</ele>
        <time>2023-08-16T07:48:54Z</time>
      </trkpt>
      <trkpt lat="49.76639" lon="2.20837">
        <ele>145.8</ele>
        <time>2023-08-16T07:48:55Z</time>
      </trkpt>
      <trkpt lat="49.76639" lon="2.20838">
        <ele>145.8</ele>
        <time>2023-08-16T07:48:56Z</time>
      </trkpt>
      <trkpt lat="49.76638" lon="2.20839">
        <ele>145.8</ele>
        <time>2023-08-16T07:48:57Z</time>
      </trkpt>
      <trkpt lat="49.76637" lon="2.2084">
        <ele>145.9</ele>
        <time>2023-08-16T07:48:58Z</time>
      </trkpt>
      <trkpt lat="49.76637" lon="2.20842">
        <ele>145.9</ele>
        <time>2023-08-16T07:48:59Z</time>
      </trkpt>
      <trkpt lat="49.76636" lon="2.20844">
        <ele>145.9</ele>
        <time>2023-08-16T07:49:01Z</time>
      </trkpt>
      <trkpt lat="49.76635" lon="2.20845">
        <ele>146</ele>
        <time>2023-08-16T07:49:02Z</time>
      </trkpt>
      <trkpt lat="49.76634" lon="2.20846">
        <ele>146</ele>
        <time>2023-08-16T07:49:03Z</time>
      </trkpt>
      <trkpt lat="49.76633" lon="2.20847">
        <ele>146</ele>
        <time>2023-08-16T07:49:04Z</time>
      </trkpt>
      <trkpt lat="49.76632" lon="2.20849">
        <ele>146.1</ele>
        <time>2023-08-16T07:49:05Z</time>
      </trkpt>
      <trkpt lat="49.76631" lon="2.20851">
        <ele>146.1</ele>
        <time>2023-08-16T07:49:06Z</time>
      </trkpt>
      <trkpt lat="49.7663" lon="2.20852">
        <ele>146.2</ele>
        <time>2023-08-16T07:49:08Z</time>
      </trkpt>
      <trkpt lat="49.7663" lon="2.20853">
        <ele>146.2</ele>
        <time>2023-08-16T07:49:09Z</time>
      </trkpt>
      <trkpt lat="49.76628" lon="2.20855">
        <ele>146.2</ele>
        <time>2023-08-16T07:49:10Z</time>
      </trkpt>
      <trkpt lat="49.76628" lon="2.20856">
        <ele>146.3</ele>
        <time>2023-08-16T07:49:11Z</time>
      </trkpt>
      <trkpt lat="49.76627" lon="2.20857">
        <ele>146.3</ele>
        <time>2023-08-16T07:49:12Z</time>
      </trkpt>
      <trkpt lat="49.76625" lon="2.20859">
        <ele>146.3</ele>
        <time>2023-08-16T07:49:14Z</time>
      </trkpt>
      <trkpt lat="49.76625" lon="2.2086">
        <ele>146.4</ele>
        <time>2023-08-16T07:49:15Z</time>
      </trkpt>
      <trkpt lat="49.76624" lon="2.20861">
        <ele>146.4</ele>
        <time>2023-08-16T07:49:16Z</time>
      </trkpt>
      <trkpt lat="49.76623" lon="2.20863">
        <ele>146.4</ele>
        <time>2023-08-16T07:49:17Z</time>
      </trkpt>
      <trkpt lat="49.76622" lon="2.20863">
        <ele>146.5</ele>
        <time>2023-08-16T07:49:18Z</time>
      </trkpt>
      <trkpt lat="49.76621" lon="2.20864">
        <ele>146.5</ele>
        <time>2023-08-16T07:49:19Z</time>
      </trkpt>
      <trkpt lat="49.76621" lon="2.20866">
        <ele>146.5</ele>
        <time>2023-08-16T07:49:21Z</time>
      </trkpt>
      <trkpt lat="49.7662" lon="2.20867">
        <ele>146.6</ele>
        <time>2023-08-16T07:49:22Z</time>
      </trkpt>
      <trkpt lat="49.76619" lon="2.20869">
        <ele>146.6</ele>
        <time>2023-08-16T07:49:23Z</time>
      </trkpt>
      <trkpt lat="49.76618" lon="2.2087">
        <ele>146.6</ele>
        <time>2023-08-16T07:49:24Z</time>
      </trkpt>
      <trkpt lat="49.76617" lon="2.20871">
        <ele>146.6</ele>
        <time>2023-08-16T07:49:25Z</time>
      </trkpt>
      <trkpt lat="49.76617" lon="2.20872">
        <ele>146.7</ele>
        <time>2023-08-16T07:49:26Z</time>
      </trkpt>
      <trkpt lat="49.76616" lon="2.20873">
        <ele>146.7</ele>
        <time>2023-08-16T07:49:28Z</time>
      </trkpt>
      <trkpt lat="49.76615" lon="2.20874">
        <ele>146.7</ele>
        <time>2023-08-16T07:49:29Z</time>
      </trkpt>
      <trkpt lat="49.76614" lon="2.20876">
        <ele>146.7</ele>
        <time>2023-08-16T07:49:30Z</time>
      </trkpt>
      <trkpt lat="49.76613" lon="2.20877">
        <ele>146.7</ele>
        <time>2023-08-16T07:49:31Z</time>
      </trkpt>
      <trkpt lat="49.76612" lon="2.20878">
        <ele>146.8</ele>
        <time>2023-08-16T07:49:32Z</time>
      </trkpt>
      <trkpt lat="49.76612" lon="2.20879">
        <ele>146.8</ele>
        <time>2023-08-16T07:49:33Z</time>
      </trkpt>
      <trkpt lat="49.76611" lon="2.2088">
        <ele>146.8</ele>
        <time>2023-08-16T07:49:34Z</time>
      </trkpt>
      <trkpt lat="49.7661" lon="2.20881">
        <ele>146.8</ele>
        <time>2023-08-16T07:49:36Z</time>
      </trkpt>
      <trkpt lat="49.7661" lon="2.20882">
        <ele>146.9</ele>
        <time>2023-08-16T07:49:37Z</time>
      </trkpt>
      <trkpt lat="49.76609" lon="2.20883">
        <ele>146.9</ele>
        <time>2023-08-16T07:49:38Z</time>
      </trkpt>
      <trkpt lat="49.76608" lon="2.20885">
        <ele>146.9</ele>
        <time>2023-08-16T07:49:39Z</time>
      </trkpt>
      <trkpt lat="49.76607" lon="2.20887">
        <ele>146.9</ele>
        <time>2023-08-16T07:49:40Z</time>
      </trkpt>
      <trkpt lat="49.76606" lon="2.20888">
        <ele>147</ele>
        <time>2023-08-16T07:49:42Z</time>
      </trkpt>
      <trkpt lat="49.76606" lon="2.20889">
        <ele>147</ele>
        <time>2023-08-16T07:49:43Z</time>
      </trkpt>
      <trkpt lat="49.76605" lon="2.2089">
        <ele>147</ele>
        <time>2023-08-16T07:49:44Z</time>
      </trkpt>
      <trkpt lat="49.76604" lon="2.20891">
        <ele>147</ele>
        <time>2023-08-16T07:49:45Z</time>
      </trkpt>
      <trkpt lat="49.76603" lon="2.20893">
        <ele>147.1</ele>
        <time>2023-08-16T07:49:46Z</time>
      </trkpt>
      <trkpt lat="49.76603" lon="2.20894">
        <ele>147.1</ele>
        <time>2023-08-16T07:49:47Z</time>
      </trkpt>
      <trkpt lat="49.76602" lon="2.20895">
        <ele>147.1</ele>
        <time>2023-08-16T07:49:49Z</time>
      </trkpt>
      <trkpt lat="49.76601" lon="2.20897">
        <ele>147.1</ele>
        <time>2023-08-16T07:49:50Z</time>
      </trkpt>
      <trkpt lat="49.766" lon="2.20898">
        <ele>147.2</ele>
        <time>2023-08-16T07:49:51Z</time>
      </trkpt>
      <trkpt lat="49.766" lon="2.20899">
        <ele>147.2</ele>
        <time>2023-08-16T07:49:52Z</time>
      </trkpt>
      <trkpt lat="49.76599" lon="2.20901">
        <ele>147.2</ele>
        <time>2023-08-16T07:49:53Z</time>
      </trkpt>
      <trkpt lat="49.76598" lon="2.20902">
        <ele>147.2</ele>
        <time>2023-08-16T07:49:55Z</time>
      </trkpt>
      <trkpt lat="49.76597" lon="2.20903">
        <ele>147.3</ele>
        <time>2023-08-16T07:49:56Z</time>
      </trkpt>
      <trkpt lat="49.76596" lon="2.20905">
        <ele>147.3</ele>
        <time>2023-08-16T07:49:57Z</time>
      </trkpt>
      <trkpt lat="49.76596" lon="2.20906">
        <ele>147.3</ele>
        <time>2023-08-16T07:49:58Z</time>
      </trkpt>
      <trkpt lat="49.76595" lon="2.20907">
        <ele>147.4</ele>
        <time>2023-08-16T07:49:59Z</time>
      </trkpt>
      <trkpt lat="49.76594" lon="2.20908">
        <ele>147.4</ele>
        <time>2023-08-16T07:50:00Z</time>
      </trkpt>
      <trkpt lat="49.76592" lon="2.20911">
        <ele>147.4</ele>
        <time>2023-08-16T07:50:02Z</time>
      </trkpt>
      <trkpt lat="49.76592" lon="2.20912">
        <ele>147.5</ele>
        <time>2023-08-16T07:50:03Z</time>
      </trkpt>
      <trkpt lat="49.76591" lon="2.20913">
        <ele>147.5</ele>
        <time>2023-08-16T07:50:05Z</time>
      </trkpt>
      <trkpt lat="49.7659" lon="2.20914">
        <ele>147.5</ele>
        <time>2023-08-16T07:50:06Z</time>
      </trkpt>
      <trkpt lat="49.76589" lon="2.20916">
        <ele>147.5</ele>
        <time>2023-08-16T07:50:07Z</time>
      </trkpt>
      <trkpt lat="49.76588" lon="2.20917">
        <ele>147.6</ele>
        <time>2023-08-16T07:50:08Z</time>
      </trkpt>
      <trkpt lat="49.76588" lon="2.20919">
        <ele>147.6</ele>
        <time>2023-08-16T07:50:09Z</time>
      </trkpt>
      <trkpt lat="49.76587" lon="2.2092">
        <ele>147.6</ele>
        <time>2023-08-16T07:50:10Z</time>
      </trkpt>
      <trkpt lat="49.76587" lon="2.20922">
        <ele>147.7</ele>
        <time>2023-08-16T07:50:12Z</time>
      </trkpt>
      <trkpt lat="49.76585" lon="2.20924">
        <ele>147.7</ele>
        <time>2023-08-16T07:50:13Z</time>
      </trkpt>
      <trkpt lat="49.76585" lon="2.20925">
        <ele>147.7</ele>
        <time>2023-08-16T07:50:15Z</time>
      </trkpt>
      <trkpt lat="49.76584" lon="2.20927">
        <ele>147.8</ele>
        <time>2023-08-16T07:50:16Z</time>
      </trkpt>
      <trkpt lat="49.76583" lon="2.20929">
        <ele>147.8</ele>
        <time>2023-08-16T07:50:17Z</time>
      </trkpt>
      <trkpt lat="49.76583" lon="2.2093">
        <ele>147.8</ele>
        <time>2023-08-16T07:50:18Z</time>
      </trkpt>
      <trkpt lat="49.76582" lon="2.20931">
        <ele>147.8</ele>
        <time>2023-08-16T07:50:19Z</time>
      </trkpt>
      <trkpt lat="49.76581" lon="2.20933">
        <ele>147.9</ele>
        <time>2023-08-16T07:50:20Z</time>
      </trkpt>
      <trkpt lat="49.7658" lon="2.20935">
        <ele>147.9</ele>
        <time>2023-08-16T07:50:22Z</time>
      </trkpt>
      <trkpt lat="49.76579" lon="2.20936">
        <ele>147.9</ele>
        <time>2023-08-16T07:50:23Z</time>
      </trkpt>
      <trkpt lat="49.76579" lon="2.20938">
        <ele>148</ele>
        <time>2023-08-16T07:50:24Z</time>
      </trkpt>
      <trkpt lat="49.76578" lon="2.20939">
        <ele>148</ele>
        <time>2023-08-16T07:50:25Z</time>
      </trkpt>
      <trkpt lat="49.76577" lon="2.20941">
        <ele>148</ele>
        <time>2023-08-16T07:50:26Z</time>
      </trkpt>
      <trkpt lat="49.76576" lon="2.20942">
        <ele>148.1</ele>
        <time>2023-08-16T07:50:28Z</time>
      </trkpt>
      <trkpt lat="49.76575" lon="2.20944">
        <ele>148.1</ele>
        <time>2023-08-16T07:50:29Z</time>
      </trkpt>
      <trkpt lat="49.76574" lon="2.20946">
        <ele>148.1</ele>
        <time>2023-08-16T07:50:30Z</time>
      </trkpt>
      <trkpt lat="49.76574" lon="2.20947">
        <ele>148.2</ele>
        <time>2023-08-16T07:50:31Z</time>
      </trkpt>
      <trkpt lat="49.76573" lon="2.20948">
        <ele>148.2</ele>
        <time>2023-08-16T07:50:32Z</time>
      </trkpt>
      <trkpt lat="49.76572" lon="2.20949">
        <ele>148.2</ele>
        <time>2023-08-16T07:50:33Z</time>
      </trkpt>
      <trkpt lat="49.76572" lon="2.20951">
        <ele>148.2</ele>
        <time>2023-08-16T07:50:35Z</time>
      </trkpt>
      <trkpt lat="49.76571" lon="2.20952">
        <ele>148.3</ele>
        <time>2023-08-16T07:50:36Z</time>
      </trkpt>
      <trkpt lat="49.7657" lon="2.20953">
        <ele>148.3</ele>
        <time>2023-08-16T07:50:37Z</time>
      </trkpt>
      <trkpt lat="49.7657" lon="2.20954">
        <ele>148.3</ele>
        <time>2023-08-16T07:50:38Z</time>
      </trkpt>
      <trkpt lat="49.76569" lon="2.20955">
        <ele>148.3</ele>
        <time>2023-08-16T07:50:39Z</time>
      </trkpt>
      <trkpt lat="49.76568" lon="2.20956">
        <ele>148.4</ele>
        <time>2023-08-16T07:50:40Z</time>
      </trkpt>
      <trkpt lat="49.76568" lon="2.20958">
        <ele>148.4</ele>
        <time>2023-08-16T07:50:42Z</time>
      </trkpt>
      <trkpt lat="49.76567" lon="2.20959">
        <ele>148.4</ele>
        <time>2023-08-16T07:50:43Z</time>
      </trkpt>
      <trkpt lat="49.76566" lon="2.2096">
        <ele>148.4</ele>
        <time>2023-08-16T07:50:44Z</time>
      </trkpt>
      <trkpt lat="49.76566" lon="2.20962">
        <ele>148.5</ele>
        <time>2023-08-16T07:50:45Z</time>
      </trkpt>
      <trkpt lat="49.76565" lon="2.20963">
        <ele>148.5</ele>
        <time>2023-08-16T07:50:46Z</time>
      </trkpt>
      <trkpt lat="49.76564" lon="2.20964">
        <ele>148.5</ele>
        <time>2023-08-16T07:50:48Z</time>
      </trkpt>
      <trkpt lat="49.76563" lon="2.20965">
        <ele>148.5</ele>
        <time>2023-08-16T07:50:49Z</time>
      </trkpt>
      <trkpt lat="49.76563" lon="2.20967">
        <ele>148.6</ele>
        <time>2023-08-16T07:50:50Z</time>
      </trkpt>
      <trkpt lat="49.76562" lon="2.20968">
        <ele>148.6</ele>
        <time>2023-08-16T07:50:51Z</time>
      </trkpt>
      <trkpt lat="49.76561" lon="2.20969">
        <ele>148.6</ele>
        <time>2023-08-16T07:50:52Z</time>
      </trkpt>
      <trkpt lat="49.7656" lon="2.20972">
        <ele>148.6</ele>
        <time>2023-08-16T07:50:53Z</time>
      </trkpt>
      <trkpt lat="49.76559" lon="2.20973">
        <ele>148.7</ele>
        <time>2023-08-16T07:50:55Z</time>
      </trkpt>
      <trkpt lat="49.76559" lon="2.20974">
        <ele>148.7</ele>
        <time>2023-08-16T07:50:56Z</time>
      </trkpt>
      <trkpt lat="49.76558" lon="2.20975">
        <ele>148.7</ele>
        <time>2023-08-16T07:50:57Z</time>
      </trkpt>
      <trkpt lat="49.76557" lon="2.20977">
        <ele>148.7</ele>
        <time>2023-08-16T07:50:58Z</time>
      </trkpt>
      <trkpt lat="49.76556" lon="2.20978">
        <ele>148.8</ele>
        <time>2023-08-16T07:50:59Z</time>
      </trkpt>
      <trkpt lat="49.76556" lon="2.20979">
        <ele>148.8</ele>
        <time>2023-08-16T07:51:00Z</time>
      </trkpt>
      <trkpt lat="49.76555" lon="2.2098">
        <ele>148.8</ele>
        <time>2023-08-16T07:51:01Z</time>
      </trkpt>
      <trkpt lat="49.76554" lon="2.20982">
        <ele>148.8</ele>
        <time>2023-08-16T07:51:03Z</time>
      </trkpt>
      <trkpt lat="49.76553" lon="2.20984">
        <ele>148.8</ele>
        <time>2023-08-16T07:51:04Z</time>
      </trkpt>
      <trkpt lat="49.76552" lon="2.20985">
        <ele>148.9</ele>
        <time>2023-08-16T07:51:05Z</time>
      </trkpt>
      <trkpt lat="49.76552" lon="2.20986">
        <ele>148.9</ele>
        <time>2023-08-16T07:51:06Z</time>
      </trkpt>
      <trkpt lat="49.76551" lon="2.20987">
        <ele>148.9</ele>
        <time>2023-08-16T07:51:07Z</time>
      </trkpt>
      <trkpt lat="49.7655" lon="2.20989">
        <ele>148.9</ele>
        <time>2023-08-16T07:51:08Z</time>
      </trkpt>
      <trkpt lat="49.76549" lon="2.2099">
        <ele>149</ele>
        <time>2023-08-16T07:51:10Z</time>
      </trkpt>
      <trkpt lat="49.76548" lon="2.20991">
        <ele>149</ele>
        <time>2023-08-16T07:51:11Z</time>
      </trkpt>
      <trkpt lat="49.76547" lon="2.20993">
        <ele>149</ele>
        <time>2023-08-16T07:51:12Z</time>
      </trkpt>
      <trkpt lat="49.76546" lon="2.20994">
        <ele>149</ele>
        <time>2023-08-16T07:51:13Z</time>
      </trkpt>
      <trkpt lat="49.76545" lon="2.20995">
        <ele>149.1</ele>
        <time>2023-08-16T07:51:14Z</time>
      </trkpt>
      <trkpt lat="49.76544" lon="2.20996">
        <ele>149.1</ele>
        <time>2023-08-16T07:51:15Z</time>
      </trkpt>
      <trkpt lat="49.76543" lon="2.20998">
        <ele>149.1</ele>
        <time>2023-08-16T07:51:16Z</time>
      </trkpt>
      <trkpt lat="49.76542" lon="2.20999">
        <ele>149.2</ele>
        <time>2023-08-16T07:51:18Z</time>
      </trkpt>
      <trkpt lat="49.76541" lon="2.21">
        <ele>149.2</ele>
        <time>2023-08-16T07:51:19Z</time>
      </trkpt>
      <trkpt lat="49.7654" lon="2.21002">
        <ele>149.2</ele>
        <time>2023-08-16T07:51:20Z</time>
      </trkpt>
      <trkpt lat="49.7654" lon="2.21003">
        <ele>149.2</ele>
        <time>2023-08-16T07:51:21Z</time>
      </trkpt>
      <trkpt lat="49.76539" lon="2.21004">
        <ele>149.3</ele>
        <time>2023-08-16T07:51:22Z</time>
      </trkpt>
      <trkpt lat="49.76538" lon="2.21006">
        <ele>149.3</ele>
        <time>2023-08-16T07:51:23Z</time>
      </trkpt>
      <trkpt lat="49.76537" lon="2.21007">
        <ele>149.3</ele>
        <time>2023-08-16T07:51:24Z</time>
      </trkpt>
      <trkpt lat="49.76537" lon="2.21009">
        <ele>149.4</ele>
        <time>2023-08-16T07:51:26Z</time>
      </trkpt>
      <trkpt lat="49.76536" lon="2.2101">
        <ele>149.4</ele>
        <time>2023-08-16T07:51:27Z</time>
      </trkpt>
      <trkpt lat="49.76535" lon="2.21012">
        <ele>149.4</ele>
        <time>2023-08-16T07:51:28Z</time>
      </trkpt>
      <trkpt lat="49.76533" lon="2.21014">
        <ele>149.5</ele>
        <time>2023-08-16T07:51:29Z</time>
      </trkpt>
      <trkpt lat="49.76532" lon="2.21015">
        <ele>149.5</ele>
        <time>2023-08-16T07:51:30Z</time>
      </trkpt>
      <trkpt lat="49.76532" lon="2.21016">
        <ele>149.5</ele>
        <time>2023-08-16T07:51:31Z</time>
      </trkpt>
      <trkpt lat="49.76531" lon="2.21018">
        <ele>149.5</ele>
        <time>2023-08-16T07:51:32Z</time>
      </trkpt>
      <trkpt lat="49.7653" lon="2.21019">
        <ele>149.6</ele>
        <time>2023-08-16T07:51:33Z</time>
      </trkpt>
      <trkpt lat="49.76529" lon="2.21022">
        <ele>149.6</ele>
        <time>2023-08-16T07:51:34Z</time>
      </trkpt>
      <trkpt lat="49.76528" lon="2.21023">
        <ele>149.6</ele>
        <time>2023-08-16T07:51:36Z</time>
      </trkpt>
      <trkpt lat="49.76527" lon="2.21024">
        <ele>149.7</ele>
        <time>2023-08-16T07:51:37Z</time>
      </trkpt>
      <trkpt lat="49.76526" lon="2.21026">
        <ele>149.7</ele>
        <time>2023-08-16T07:51:38Z</time>
      </trkpt>
      <trkpt lat="49.76526" lon="2.21027">
        <ele>149.7</ele>
        <time>2023-08-16T07:51:39Z</time>
      </trkpt>
      <trkpt lat="49.76524" lon="2.21029">
        <ele>149.8</ele>
        <time>2023-08-16T07:51:40Z</time>
      </trkpt>
      <trkpt lat="49.76524" lon="2.2103">
        <ele>149.8</ele>
        <time>2023-08-16T07:51:41Z</time>
      </trkpt>
      <trkpt lat="49.76523" lon="2.21031">
        <ele>149.8</ele>
        <time>2023-08-16T07:51:42Z</time>
      </trkpt>
      <trkpt lat="49.76522" lon="2.21033">
        <ele>149.8</ele>
        <time>2023-08-16T07:51:44Z</time>
      </trkpt>
      <trkpt lat="49.76522" lon="2.21035">
        <ele>149.9</ele>
        <time>2023-08-16T07:51:45Z</time>
      </trkpt>
      <trkpt lat="49.76521" lon="2.21036">
        <ele>149.9</ele>
        <time>2023-08-16T07:51:46Z</time>
      </trkpt>
      <trkpt lat="49.7652" lon="2.21038">
        <ele>149.9</ele>
        <time>2023-08-16T07:51:47Z</time>
      </trkpt>
      <trkpt lat="49.76519" lon="2.21039">
        <ele>149.9</ele>
        <time>2023-08-16T07:51:48Z</time>
      </trkpt>
      <trkpt lat="49.76518" lon="2.21041">
        <ele>150</ele>
        <time>2023-08-16T07:51:49Z</time>
      </trkpt>
      <trkpt lat="49.76517" lon="2.21042">
        <ele>150</ele>
        <time>2023-08-16T07:51:51Z</time>
      </trkpt>
      <trkpt lat="49.76517" lon="2.21043">
        <ele>150</ele>
        <time>2023-08-16T07:51:52Z</time>
      </trkpt>
      <trkpt lat="49.76516" lon="2.21045">
        <ele>150</ele>
        <time>2023-08-16T07:51:53Z</time>
      </trkpt>
      <trkpt lat="49.76515" lon="2.21046">
        <ele>150</ele>
        <time>2023-08-16T07:51:54Z</time>
      </trkpt>
      <trkpt lat="49.76514" lon="2.21047">
        <ele>150.1</ele>
        <time>2023-08-16T07:51:55Z</time>
      </trkpt>
      <trkpt lat="49.76514" lon="2.21048">
        <ele>150.1</ele>
        <time>2023-08-16T07:51:56Z</time>
      </trkpt>
      <trkpt lat="49.76513" lon="2.2105">
        <ele>150.1</ele>
        <time>2023-08-16T07:51:58Z</time>
      </trkpt>
      <trkpt lat="49.76512" lon="2.21051">
        <ele>150.1</ele>
        <time>2023-08-16T07:51:59Z</time>
      </trkpt>
      <trkpt lat="49.76511" lon="2.21052">
        <ele>150.1</ele>
        <time>2023-08-16T07:52:00Z</time>
      </trkpt>
      <trkpt lat="49.7651" lon="2.21053">
        <ele>150.2</ele>
        <time>2023-08-16T07:52:01Z</time>
      </trkpt>
      <trkpt lat="49.76509" lon="2.21054">
        <ele>150.2</ele>
        <time>2023-08-16T07:52:02Z</time>
      </trkpt>
      <trkpt lat="49.76508" lon="2.21057">
        <ele>150.2</ele>
        <time>2023-08-16T07:52:03Z</time>
      </trkpt>
      <trkpt lat="49.76507" lon="2.21058">
        <ele>150.2</ele>
        <time>2023-08-16T07:52:05Z</time>
      </trkpt>
      <trkpt lat="49.76507" lon="2.21059">
        <ele>150.2</ele>
        <time>2023-08-16T07:52:06Z</time>
      </trkpt>
      <trkpt lat="49.76506" lon="2.21061">
        <ele>150.3</ele>
        <time>2023-08-16T07:52:07Z</time>
      </trkpt>
      <trkpt lat="49.76506" lon="2.21062">
        <ele>150.3</ele>
        <time>2023-08-16T07:52:08Z</time>
      </trkpt>
      <trkpt lat="49.76505" lon="2.21063">
        <ele>150.3</ele>
        <time>2023-08-16T07:52:09Z</time>
      </trkpt>
      <trkpt lat="49.76504" lon="2.21066">
        <ele>150.3</ele>
        <time>2023-08-16T07:52:10Z</time>
      </trkpt>
      <trkpt lat="49.76503" lon="2.21067">
        <ele>150.3</ele>
        <time>2023-08-16T07:52:12Z</time>
      </trkpt>
      <trkpt lat="49.76502" lon="2.21068">
        <ele>150.4</ele>
        <time>2023-08-16T07:52:13Z</time>
      </trkpt>
      <trkpt lat="49.76502" lon="2.2107">
        <ele>150.4</ele>
        <time>2023-08-16T07:52:14Z</time>
      </trkpt>
      <trkpt lat="49.76501" lon="2.21071">
        <ele>150.4</ele>
        <time>2023-08-16T07:52:15Z</time>
      </trkpt>
      <trkpt lat="49.765" lon="2.21072">
        <ele>150.4</ele>
        <time>2023-08-16T07:52:16Z</time>
      </trkpt>
      <trkpt lat="49.76499" lon="2.21075">
        <ele>150.5</ele>
        <time>2023-08-16T07:52:17Z</time>
      </trkpt>
      <trkpt lat="49.76498" lon="2.21075">
        <ele>150.5</ele>
        <time>2023-08-16T07:52:19Z</time>
      </trkpt>
      <trkpt lat="49.76498" lon="2.21076">
        <ele>150.5</ele>
        <time>2023-08-16T07:52:20Z</time>
      </trkpt>
      <trkpt lat="49.76496" lon="2.21079">
        <ele>150.5</ele>
        <time>2023-08-16T07:52:21Z</time>
      </trkpt>
      <trkpt lat="49.76495" lon="2.2108">
        <ele>150.5</ele>
        <time>2023-08-16T07:52:22Z</time>
      </trkpt>
      <trkpt lat="49.76495" lon="2.2108">
        <ele>150.5</ele>
        <time>2023-08-16T07:52:23Z</time>
      </trkpt>
      <trkpt lat="49.76493" lon="2.21083">
        <ele>150.6</ele>
        <time>2023-08-16T07:52:24Z</time>
      </trkpt>
      <trkpt lat="49.76493" lon="2.21084">
        <ele>150.6</ele>
        <time>2023-08-16T07:52:25Z</time>
      </trkpt>
      <trkpt lat="49.76492" lon="2.21085">
        <ele>150.6</ele>
        <time>2023-08-16T07:52:27Z</time>
      </trkpt>
      <trkpt lat="49.76491" lon="2.21086">
        <ele>150.6</ele>
        <time>2023-08-16T07:52:28Z</time>
      </trkpt>
      <trkpt lat="49.76491" lon="2.21087">
        <ele>150.6</ele>
        <time>2023-08-16T07:52:29Z</time>
      </trkpt>
      <trkpt lat="49.7649" lon="2.21089">
        <ele>150.6</ele>
        <time>2023-08-16T07:52:30Z</time>
      </trkpt>
      <trkpt lat="49.76489" lon="2.2109">
        <ele>150.6</ele>
        <time>2023-08-16T07:52:31Z</time>
      </trkpt>
      <trkpt lat="49.76489" lon="2.21091">
        <ele>150.6</ele>
        <time>2023-08-16T07:52:32Z</time>
      </trkpt>
      <trkpt lat="49.76488" lon="2.21093">
        <ele>150.6</ele>
        <time>2023-08-16T07:52:33Z</time>
      </trkpt>
      <trkpt lat="49.76487" lon="2.21094">
        <ele>150.7</ele>
        <time>2023-08-16T07:52:35Z</time>
      </trkpt>
      <trkpt lat="49.76486" lon="2.21096">
        <ele>150.7</ele>
        <time>2023-08-16T07:52:36Z</time>
      </trkpt>
      <trkpt lat="49.76486" lon="2.21097">
        <ele>150.7</ele>
        <time>2023-08-16T07:52:37Z</time>
      </trkpt>
      <trkpt lat="49.76485" lon="2.21098">
        <ele>150.7</ele>
        <time>2023-08-16T07:52:38Z</time>
      </trkpt>
      <trkpt lat="49.76484" lon="2.211">
        <ele>150.7</ele>
        <time>2023-08-16T07:52:39Z</time>
      </trkpt>
      <trkpt lat="49.76484" lon="2.21101">
        <ele>150.7</ele>
        <time>2023-08-16T07:52:40Z</time>
      </trkpt>
      <trkpt lat="49.76482" lon="2.21103">
        <ele>150.7</ele>
        <time>2023-08-16T07:52:42Z</time>
      </trkpt>
      <trkpt lat="49.76481" lon="2.21104">
        <ele>150.7</ele>
        <time>2023-08-16T07:52:43Z</time>
      </trkpt>
      <trkpt lat="49.76481" lon="2.21105">
        <ele>150.7</ele>
        <time>2023-08-16T07:52:44Z</time>
      </trkpt>
      <trkpt lat="49.76479" lon="2.21107">
        <ele>150.8</ele>
        <time>2023-08-16T07:52:45Z</time>
      </trkpt>
      <trkpt lat="49.76478" lon="2.21108">
        <ele>150.8</ele>
        <time>2023-08-16T07:52:46Z</time>
      </trkpt>
      <trkpt lat="49.76478" lon="2.21109">
        <ele>150.8</ele>
        <time>2023-08-16T07:52:47Z</time>
      </trkpt>
      <trkpt lat="49.76476" lon="2.21112">
        <ele>150.8</ele>
        <time>2023-08-16T07:52:49Z</time>
      </trkpt>
      <trkpt lat="49.76475" lon="2.21113">
        <ele>150.8</ele>
        <time>2023-08-16T07:52:50Z</time>
      </trkpt>
      <trkpt lat="49.76475" lon="2.21115">
        <ele>150.8</ele>
        <time>2023-08-16T07:52:51Z</time>
      </trkpt>
      <trkpt lat="49.76474" lon="2.21116">
        <ele>150.8</ele>
        <time>2023-08-16T07:52:52Z</time>
      </trkpt>
      <trkpt lat="49.76472" lon="2.21118">
        <ele>150.9</ele>
        <time>2023-08-16T07:52:54Z</time>
      </trkpt>
      <trkpt lat="49.76472" lon="2.2112">
        <ele>150.9</ele>
        <time>2023-08-16T07:52:55Z</time>
      </trkpt>
      <trkpt lat="49.76471" lon="2.21121">
        <ele>150.9</ele>
        <time>2023-08-16T07:52:56Z</time>
      </trkpt>
      <trkpt lat="49.7647" lon="2.21122">
        <ele>150.9</ele>
        <time>2023-08-16T07:52:58Z</time>
      </trkpt>
      <trkpt lat="49.76469" lon="2.21124">
        <ele>150.9</ele>
        <time>2023-08-16T07:52:59Z</time>
      </trkpt>
      <trkpt lat="49.76469" lon="2.21125">
        <ele>150.9</ele>
        <time>2023-08-16T07:53:00Z</time>
      </trkpt>
      <trkpt lat="49.76468" lon="2.21126">
        <ele>150.9</ele>
        <time>2023-08-16T07:53:01Z</time>
      </trkpt>
      <trkpt lat="49.76468" lon="2.21127">
        <ele>150.9</ele>
        <time>2023-08-16T07:53:02Z</time>
      </trkpt>
      <trkpt lat="49.76467" lon="2.21129">
        <ele>150.9</ele>
        <time>2023-08-16T07:53:03Z</time>
      </trkpt>
      <trkpt lat="49.76466" lon="2.2113">
        <ele>150.9</ele>
        <time>2023-08-16T07:53:04Z</time>
      </trkpt>
      <trkpt lat="49.76465" lon="2.21132">
        <ele>150.9</ele>
        <time>2023-08-16T07:53:06Z</time>
      </trkpt>
      <trkpt lat="49.76464" lon="2.21133">
        <ele>150.9</ele>
        <time>2023-08-16T07:53:07Z</time>
      </trkpt>
      <trkpt lat="49.76463" lon="2.21136">
        <ele>150.9</ele>
        <time>2023-08-16T07:53:08Z</time>
      </trkpt>
      <trkpt lat="49.76463" lon="2.21137">
        <ele>151</ele>
        <time>2023-08-16T07:53:09Z</time>
      </trkpt>
      <trkpt lat="49.76462" lon="2.21138">
        <ele>151</ele>
        <time>2023-08-16T07:53:10Z</time>
      </trkpt>
      <trkpt lat="49.76461" lon="2.21139">
        <ele>151</ele>
        <time>2023-08-16T07:53:11Z</time>
      </trkpt>
      <trkpt lat="49.7646" lon="2.21141">
        <ele>151</ele>
        <time>2023-08-16T07:53:13Z</time>
      </trkpt>
      <trkpt lat="49.76459" lon="2.21143">
        <ele>151</ele>
        <time>2023-08-16T07:53:15Z</time>
      </trkpt>
      <trkpt lat="49.76458" lon="2.21145">
        <ele>151</ele>
        <time>2023-08-16T07:53:16Z</time>
      </trkpt>
      <trkpt lat="49.76457" lon="2.21146">
        <ele>151</ele>
        <time>2023-08-16T07:53:17Z</time>
      </trkpt>
      <trkpt lat="49.76456" lon="2.21148">
        <ele>151</ele>
        <time>2023-08-16T07:53:18Z</time>
      </trkpt>
      <trkpt lat="49.76455" lon="2.21149">
        <ele>151</ele>
        <time>2023-08-16T07:53:19Z</time>
      </trkpt>
      <trkpt lat="49.76454" lon="2.21151">
        <ele>151</ele>
        <time>2023-08-16T07:53:20Z</time>
      </trkpt>
      <trkpt lat="49.76453" lon="2.21152">
        <ele>151</ele>
        <time>2023-08-16T07:53:22Z</time>
      </trkpt>
      <trkpt lat="49.76452" lon="2.21154">
        <ele>151</ele>
        <time>2023-08-16T07:53:23Z</time>
      </trkpt>
      <trkpt lat="49.76452" lon="2.21155">
        <ele>151.1</ele>
        <time>2023-08-16T07:53:24Z</time>
      </trkpt>
      <trkpt lat="49.76451" lon="2.21156">
        <ele>151.1</ele>
        <time>2023-08-16T07:53:25Z</time>
      </trkpt>
      <trkpt lat="49.7645" lon="2.21157">
        <ele>151.1</ele>
        <time>2023-08-16T07:53:26Z</time>
      </trkpt>
      <trkpt lat="49.76449" lon="2.21158">
        <ele>151.1</ele>
        <time>2023-08-16T07:53:27Z</time>
      </trkpt>
      <trkpt lat="49.76448" lon="2.2116">
        <ele>151.1</ele>
        <time>2023-08-16T07:53:29Z</time>
      </trkpt>
      <trkpt lat="49.76447" lon="2.21162">
        <ele>151.1</ele>
        <time>2023-08-16T07:53:30Z</time>
      </trkpt>
      <trkpt lat="49.76446" lon="2.21163">
        <ele>151.1</ele>
        <time>2023-08-16T07:53:31Z</time>
      </trkpt>
      <trkpt lat="49.76446" lon="2.21164">
        <ele>151.1</ele>
        <time>2023-08-16T07:53:32Z</time>
      </trkpt>
      <trkpt lat="49.76445" lon="2.21165">
        <ele>151.1</ele>
        <time>2023-08-16T07:53:33Z</time>
      </trkpt>
      <trkpt lat="49.76444" lon="2.21167">
        <ele>151.1</ele>
        <time>2023-08-16T07:53:34Z</time>
      </trkpt>
      <trkpt lat="49.76443" lon="2.21168">
        <ele>151.1</ele>
        <time>2023-08-16T07:53:36Z</time>
      </trkpt>
      <trkpt lat="49.76442" lon="2.2117">
        <ele>151.1</ele>
        <time>2023-08-16T07:53:37Z</time>
      </trkpt>
      <trkpt lat="49.76441" lon="2.21171">
        <ele>151.1</ele>
        <time>2023-08-16T07:53:38Z</time>
      </trkpt>
      <trkpt lat="49.7644" lon="2.21172">
        <ele>151.1</ele>
        <time>2023-08-16T07:53:39Z</time>
      </trkpt>
      <trkpt lat="49.7644" lon="2.21173">
        <ele>151.1</ele>
        <time>2023-08-16T07:53:40Z</time>
      </trkpt>
      <trkpt lat="49.76439" lon="2.21175">
        <ele>151.1</ele>
        <time>2023-08-16T07:53:41Z</time>
      </trkpt>
      <trkpt lat="49.76438" lon="2.21176">
        <ele>151.1</ele>
        <time>2023-08-16T07:53:42Z</time>
      </trkpt>
      <trkpt lat="49.76437" lon="2.21178">
        <ele>151.2</ele>
        <time>2023-08-16T07:53:44Z</time>
      </trkpt>
      <trkpt lat="49.76436" lon="2.21179">
        <ele>151.2</ele>
        <time>2023-08-16T07:53:45Z</time>
      </trkpt>
      <trkpt lat="49.76435" lon="2.2118">
        <ele>151.2</ele>
        <time>2023-08-16T07:53:46Z</time>
      </trkpt>
      <trkpt lat="49.76435" lon="2.21182">
        <ele>151.2</ele>
        <time>2023-08-16T07:53:47Z</time>
      </trkpt>
      <trkpt lat="49.76434" lon="2.21183">
        <ele>151.2</ele>
        <time>2023-08-16T07:53:48Z</time>
      </trkpt>
      <trkpt lat="49.76433" lon="2.21184">
        <ele>151.2</ele>
        <time>2023-08-16T07:53:49Z</time>
      </trkpt>
      <trkpt lat="49.76432" lon="2.21186">
        <ele>151.2</ele>
        <time>2023-08-16T07:53:50Z</time>
      </trkpt>
      <trkpt lat="49.76432" lon="2.21187">
        <ele>151.2</ele>
        <time>2023-08-16T07:53:52Z</time>
      </trkpt>
      <trkpt lat="49.76431" lon="2.21189">
        <ele>151.2</ele>
        <time>2023-08-16T07:53:53Z</time>
      </trkpt>
      <trkpt lat="49.7643" lon="2.2119">
        <ele>151.2</ele>
        <time>2023-08-16T07:53:54Z</time>
      </trkpt>
      <trkpt lat="49.76429" lon="2.21191">
        <ele>151.2</ele>
        <time>2023-08-16T07:53:55Z</time>
      </trkpt>
      <trkpt lat="49.76428" lon="2.21193">
        <ele>151.2</ele>
        <time>2023-08-16T07:53:56Z</time>
      </trkpt>
      <trkpt lat="49.76427" lon="2.21194">
        <ele>151.2</ele>
        <time>2023-08-16T07:53:57Z</time>
      </trkpt>
      <trkpt lat="49.76426" lon="2.21197">
        <ele>151.2</ele>
        <time>2023-08-16T07:53:58Z</time>
      </trkpt>
      <trkpt lat="49.76425" lon="2.21198">
        <ele>151.2</ele>
        <time>2023-08-16T07:54:00Z</time>
      </trkpt>
      <trkpt lat="49.76424" lon="2.21199">
        <ele>151.2</ele>
        <time>2023-08-16T07:54:01Z</time>
      </trkpt>
      <trkpt lat="49.76424" lon="2.21201">
        <ele>151.2</ele>
        <time>2023-08-16T07:54:02Z</time>
      </trkpt>
      <trkpt lat="49.76423" lon="2.21202">
        <ele>151.2</ele>
        <time>2023-08-16T07:54:03Z</time>
      </trkpt>
      <trkpt lat="49.76422" lon="2.21203">
        <ele>151.2</ele>
        <time>2023-08-16T07:54:04Z</time>
      </trkpt>
      <trkpt lat="49.76421" lon="2.21205">
        <ele>151.2</ele>
        <time>2023-08-16T07:54:05Z</time>
      </trkpt>
      <trkpt lat="49.76421" lon="2.21206">
        <ele>151.2</ele>
        <time>2023-08-16T07:54:07Z</time>
      </trkpt>
      <trkpt lat="49.7642" lon="2.21208">
        <ele>151.2</ele>
        <time>2023-08-16T07:54:08Z</time>
      </trkpt>
      <trkpt lat="49.76419" lon="2.2121">
        <ele>151.2</ele>
        <time>2023-08-16T07:54:09Z</time>
      </trkpt>
      <trkpt lat="49.76417" lon="2.21212">
        <ele>151.2</ele>
        <time>2023-08-16T07:54:10Z</time>
      </trkpt>
      <trkpt lat="49.76416" lon="2.21213">
        <ele>151.2</ele>
        <time>2023-08-16T07:54:11Z</time>
      </trkpt>
      <trkpt lat="49.76416" lon="2.21214">
        <ele>151.2</ele>
        <time>2023-08-16T07:54:12Z</time>
      </trkpt>
      <trkpt lat="49.76414" lon="2.21215">
        <ele>151.2</ele>
        <time>2023-08-16T07:54:13Z</time>
      </trkpt>
      <trkpt lat="49.76413" lon="2.21216">
        <ele>151.2</ele>
        <time>2023-08-16T07:54:15Z</time>
      </trkpt>
      <trkpt lat="49.76412" lon="2.21218">
        <ele>151.2</ele>
        <time>2023-08-16T07:54:16Z</time>
      </trkpt>
      <trkpt lat="49.76412" lon="2.21219">
        <ele>151.2</ele>
        <time>2023-08-16T07:54:17Z</time>
      </trkpt>
      <trkpt lat="49.76411" lon="2.2122">
        <ele>151.2</ele>
        <time>2023-08-16T07:54:18Z</time>
      </trkpt>
      <trkpt lat="49.7641" lon="2.21222">
        <ele>151.2</ele>
        <time>2023-08-16T07:54:20Z</time>
      </trkpt>
      <trkpt lat="49.76409" lon="2.21224">
        <ele>151.2</ele>
        <time>2023-08-16T07:54:21Z</time>
      </trkpt>
      <trkpt lat="49.76408" lon="2.21226">
        <ele>151.2</ele>
        <time>2023-08-16T07:54:22Z</time>
      </trkpt>
      <trkpt lat="49.76407" lon="2.21227">
        <ele>151.2</ele>
        <time>2023-08-16T07:54:24Z</time>
      </trkpt>
      <trkpt lat="49.76406" lon="2.21229">
        <ele>151.2</ele>
        <time>2023-08-16T07:54:25Z</time>
      </trkpt>
      <trkpt lat="49.76406" lon="2.21231">
        <ele>151.2</ele>
        <time>2023-08-16T07:54:26Z</time>
      </trkpt>
      <trkpt lat="49.76405" lon="2.21232">
        <ele>151.2</ele>
        <time>2023-08-16T07:54:27Z</time>
      </trkpt>
      <trkpt lat="49.76404" lon="2.21233">
        <ele>151.2</ele>
        <time>2023-08-16T07:54:28Z</time>
      </trkpt>
      <trkpt lat="49.76403" lon="2.21235">
        <ele>151.2</ele>
        <time>2023-08-16T07:54:29Z</time>
      </trkpt>
      <trkpt lat="49.76403" lon="2.21236">
        <ele>151.2</ele>
        <time>2023-08-16T07:54:30Z</time>
      </trkpt>
      <trkpt lat="49.76402" lon="2.21237">
        <ele>151.2</ele>
        <time>2023-08-16T07:54:31Z</time>
      </trkpt>
      <trkpt lat="49.76401" lon="2.2124">
        <ele>151.2</ele>
        <time>2023-08-16T07:54:33Z</time>
      </trkpt>
      <trkpt lat="49.764" lon="2.21241">
        <ele>151.2</ele>
        <time>2023-08-16T07:54:34Z</time>
      </trkpt>
      <trkpt lat="49.764" lon="2.21242">
        <ele>151.2</ele>
        <time>2023-08-16T07:54:35Z</time>
      </trkpt>
      <trkpt lat="49.76399" lon="2.21243">
        <ele>151.2</ele>
        <time>2023-08-16T07:54:36Z</time>
      </trkpt>
      <trkpt lat="49.76398" lon="2.21244">
        <ele>151.2</ele>
        <time>2023-08-16T07:54:37Z</time>
      </trkpt>
      <trkpt lat="49.76398" lon="2.21246">
        <ele>151.2</ele>
        <time>2023-08-16T07:54:38Z</time>
      </trkpt>
      <trkpt lat="49.76397" lon="2.21247">
        <ele>151.2</ele>
        <time>2023-08-16T07:54:39Z</time>
      </trkpt>
      <trkpt lat="49.76396" lon="2.21248">
        <ele>151.2</ele>
        <time>2023-08-16T07:54:40Z</time>
      </trkpt>
      <trkpt lat="49.76395" lon="2.21251">
        <ele>151.2</ele>
        <time>2023-08-16T07:54:42Z</time>
      </trkpt>
      <trkpt lat="49.76393" lon="2.21254">
        <ele>151.1</ele>
        <time>2023-08-16T07:54:43Z</time>
      </trkpt>
      <trkpt lat="49.76392" lon="2.21255">
        <ele>151.1</ele>
        <time>2023-08-16T07:54:45Z</time>
      </trkpt>
      <trkpt lat="49.76391" lon="2.21256">
        <ele>151.1</ele>
        <time>2023-08-16T07:54:46Z</time>
      </trkpt>
      <trkpt lat="49.76391" lon="2.21257">
        <ele>151.1</ele>
        <time>2023-08-16T07:54:48Z</time>
      </trkpt>
      <trkpt lat="49.7639" lon="2.21259">
        <ele>151.1</ele>
        <time>2023-08-16T07:54:49Z</time>
      </trkpt>
      <trkpt lat="49.76389" lon="2.2126">
        <ele>151.1</ele>
        <time>2023-08-16T07:54:50Z</time>
      </trkpt>
      <trkpt lat="49.76388" lon="2.21261">
        <ele>151.1</ele>
        <time>2023-08-16T07:54:51Z</time>
      </trkpt>
      <trkpt lat="49.76386" lon="2.21263">
        <ele>151</ele>
        <time>2023-08-16T07:54:52Z</time>
      </trkpt>
      <trkpt lat="49.76386" lon="2.21264">
        <ele>151</ele>
        <time>2023-08-16T07:54:53Z</time>
      </trkpt>
      <trkpt lat="49.76385" lon="2.21265">
        <ele>151</ele>
        <time>2023-08-16T07:54:54Z</time>
      </trkpt>
      <trkpt lat="49.76384" lon="2.21266">
        <ele>151</ele>
        <time>2023-08-16T07:54:56Z</time>
      </trkpt>
      <trkpt lat="49.76383" lon="2.21267">
        <ele>151</ele>
        <time>2023-08-16T07:54:57Z</time>
      </trkpt>
      <trkpt lat="49.76382" lon="2.21268">
        <ele>151</ele>
        <time>2023-08-16T07:54:58Z</time>
      </trkpt>
      <trkpt lat="49.76381" lon="2.2127">
        <ele>151</ele>
        <time>2023-08-16T07:54:59Z</time>
      </trkpt>
      <trkpt lat="49.7638" lon="2.21271">
        <ele>151</ele>
        <time>2023-08-16T07:55:00Z</time>
      </trkpt>
      <trkpt lat="49.7638" lon="2.21272">
        <ele>150.9</ele>
        <time>2023-08-16T07:55:01Z</time>
      </trkpt>
      <trkpt lat="49.76378" lon="2.21274">
        <ele>150.9</ele>
        <time>2023-08-16T07:55:03Z</time>
      </trkpt>
      <trkpt lat="49.76377" lon="2.21275">
        <ele>150.9</ele>
        <time>2023-08-16T07:55:04Z</time>
      </trkpt>
      <trkpt lat="49.76376" lon="2.21277">
        <ele>150.9</ele>
        <time>2023-08-16T07:55:05Z</time>
      </trkpt>
      <trkpt lat="49.76375" lon="2.21278">
        <ele>150.9</ele>
        <time>2023-08-16T07:55:06Z</time>
      </trkpt>
      <trkpt lat="49.76375" lon="2.21279">
        <ele>150.9</ele>
        <time>2023-08-16T07:55:07Z</time>
      </trkpt>
      <trkpt lat="49.76373" lon="2.21282">
        <ele>150.9</ele>
        <time>2023-08-16T07:55:09Z</time>
      </trkpt>
      <trkpt lat="49.76373" lon="2.21283">
        <ele>150.9</ele>
        <time>2023-08-16T07:55:10Z</time>
      </trkpt>
      <trkpt lat="49.76372" lon="2.21284">
        <ele>150.9</ele>
        <time>2023-08-16T07:55:11Z</time>
      </trkpt>
      <trkpt lat="49.76371" lon="2.21285">
        <ele>150.8</ele>
        <time>2023-08-16T07:55:12Z</time>
      </trkpt>
      <trkpt lat="49.7637" lon="2.21287">
        <ele>150.8</ele>
        <time>2023-08-16T07:55:13Z</time>
      </trkpt>
      <trkpt lat="49.7637" lon="2.21288">
        <ele>150.8</ele>
        <time>2023-08-16T07:55:14Z</time>
      </trkpt>
      <trkpt lat="49.76368" lon="2.2129">
        <ele>150.8</ele>
        <time>2023-08-16T07:55:16Z</time>
      </trkpt>
      <trkpt lat="49.76368" lon="2.21291">
        <ele>150.8</ele>
        <time>2023-08-16T07:55:17Z</time>
      </trkpt>
      <trkpt lat="49.76367" lon="2.21293">
        <ele>150.8</ele>
        <time>2023-08-16T07:55:18Z</time>
      </trkpt>
      <trkpt lat="49.76366" lon="2.21294">
        <ele>150.8</ele>
        <time>2023-08-16T07:55:19Z</time>
      </trkpt>
      <trkpt lat="49.76364" lon="2.21296">
        <ele>150.8</ele>
        <time>2023-08-16T07:55:20Z</time>
      </trkpt>
      <trkpt lat="49.76363" lon="2.21297">
        <ele>150.7</ele>
        <time>2023-08-16T07:55:22Z</time>
      </trkpt>
      <trkpt lat="49.76363" lon="2.21297">
        <ele>150.7</ele>
        <time>2023-08-16T07:55:23Z</time>
      </trkpt>
      <trkpt lat="49.76362" lon="2.21299">
        <ele>150.7</ele>
        <time>2023-08-16T07:55:24Z</time>
      </trkpt>
      <trkpt lat="49.76361" lon="2.213">
        <ele>150.7</ele>
        <time>2023-08-16T07:55:25Z</time>
      </trkpt>
      <trkpt lat="49.7636" lon="2.21301">
        <ele>150.7</ele>
        <time>2023-08-16T07:55:26Z</time>
      </trkpt>
      <trkpt lat="49.76359" lon="2.21303">
        <ele>150.7</ele>
        <time>2023-08-16T07:55:27Z</time>
      </trkpt>
      <trkpt lat="49.76358" lon="2.21304">
        <ele>150.7</ele>
        <time>2023-08-16T07:55:28Z</time>
      </trkpt>
      <trkpt lat="49.76357" lon="2.21306">
        <ele>150.7</ele>
        <time>2023-08-16T07:55:29Z</time>
      </trkpt>
      <trkpt lat="49.76356" lon="2.21308">
        <ele>150.6</ele>
        <time>2023-08-16T07:55:30Z</time>
      </trkpt>
      <trkpt lat="49.76355" lon="2.21309">
        <ele>150.6</ele>
        <time>2023-08-16T07:55:32Z</time>
      </trkpt>
      <trkpt lat="49.76355" lon="2.21311">
        <ele>150.6</ele>
        <time>2023-08-16T07:55:33Z</time>
      </trkpt>
      <trkpt lat="49.76354" lon="2.21313">
        <ele>150.6</ele>
        <time>2023-08-16T07:55:34Z</time>
      </trkpt>
      <trkpt lat="49.76353" lon="2.21315">
        <ele>150.6</ele>
        <time>2023-08-16T07:55:35Z</time>
      </trkpt>
      <trkpt lat="49.76352" lon="2.21316">
        <ele>150.6</ele>
        <time>2023-08-16T07:55:36Z</time>
      </trkpt>
      <trkpt lat="49.76351" lon="2.21319">
        <ele>150.6</ele>
        <time>2023-08-16T07:55:38Z</time>
      </trkpt>
      <trkpt lat="49.7635" lon="2.21321">
        <ele>150.6</ele>
        <time>2023-08-16T07:55:39Z</time>
      </trkpt>
      <trkpt lat="49.76349" lon="2.21323">
        <ele>150.6</ele>
        <time>2023-08-16T07:55:40Z</time>
      </trkpt>
      <trkpt lat="49.76349" lon="2.21325">
        <ele>150.6</ele>
        <time>2023-08-16T07:55:42Z</time>
      </trkpt>
      <trkpt lat="49.76348" lon="2.21326">
        <ele>150.6</ele>
        <time>2023-08-16T07:55:43Z</time>
      </trkpt>
      <trkpt lat="49.76347" lon="2.21328">
        <ele>150.5</ele>
        <time>2023-08-16T07:55:44Z</time>
      </trkpt>
      <trkpt lat="49.76346" lon="2.2133">
        <ele>150.5</ele>
        <time>2023-08-16T07:55:45Z</time>
      </trkpt>
      <trkpt lat="49.76345" lon="2.21332">
        <ele>150.5</ele>
        <time>2023-08-16T07:55:46Z</time>
      </trkpt>
      <trkpt lat="49.76344" lon="2.21333">
        <ele>150.5</ele>
        <time>2023-08-16T07:55:47Z</time>
      </trkpt>
      <trkpt lat="49.76344" lon="2.21334">
        <ele>150.5</ele>
        <time>2023-08-16T07:55:48Z</time>
      </trkpt>
      <trkpt lat="49.76342" lon="2.21336">
        <ele>150.5</ele>
        <time>2023-08-16T07:55:50Z</time>
      </trkpt>
      <trkpt lat="49.76341" lon="2.21338">
        <ele>150.5</ele>
        <time>2023-08-16T07:55:51Z</time>
      </trkpt>
      <trkpt lat="49.7634" lon="2.2134">
        <ele>150.5</ele>
        <time>2023-08-16T07:55:52Z</time>
      </trkpt>
      <trkpt lat="49.76339" lon="2.21341">
        <ele>150.5</ele>
        <time>2023-08-16T07:55:54Z</time>
      </trkpt>
      <trkpt lat="49.76338" lon="2.21342">
        <ele>150.5</ele>
        <time>2023-08-16T07:55:55Z</time>
      </trkpt>
      <trkpt lat="49.76338" lon="2.21343">
        <ele>150.5</ele>
        <time>2023-08-16T07:55:56Z</time>
      </trkpt>
      <trkpt lat="49.76337" lon="2.21344">
        <ele>150.4</ele>
        <time>2023-08-16T07:55:57Z</time>
      </trkpt>
      <trkpt lat="49.76336" lon="2.21346">
        <ele>150.4</ele>
        <time>2023-08-16T07:55:58Z</time>
      </trkpt>
      <trkpt lat="49.76336" lon="2.21348">
        <ele>150.4</ele>
        <time>2023-08-16T07:55:59Z</time>
      </trkpt>
      <trkpt lat="49.76335" lon="2.21349">
        <ele>150.4</ele>
        <time>2023-08-16T07:56:00Z</time>
      </trkpt>
      <trkpt lat="49.76334" lon="2.2135">
        <ele>150.4</ele>
        <time>2023-08-16T07:56:02Z</time>
      </trkpt>
      <trkpt lat="49.76333" lon="2.21352">
        <ele>150.4</ele>
        <time>2023-08-16T07:56:03Z</time>
      </trkpt>
      <trkpt lat="49.76332" lon="2.21353">
        <ele>150.4</ele>
        <time>2023-08-16T07:56:04Z</time>
      </trkpt>
      <trkpt lat="49.7633" lon="2.21355">
        <ele>150.4</ele>
        <time>2023-08-16T07:56:05Z</time>
      </trkpt>
      <trkpt lat="49.7633" lon="2.21356">
        <ele>150.4</ele>
        <time>2023-08-16T07:56:07Z</time>
      </trkpt>
      <trkpt lat="49.76329" lon="2.21357">
        <ele>150.3</ele>
        <time>2023-08-16T07:56:08Z</time>
      </trkpt>
      <trkpt lat="49.76328" lon="2.21358">
        <ele>150.3</ele>
        <time>2023-08-16T07:56:09Z</time>
      </trkpt>
      <trkpt lat="49.76327" lon="2.21359">
        <ele>150.3</ele>
        <time>2023-08-16T07:56:10Z</time>
      </trkpt>
      <trkpt lat="49.76326" lon="2.21361">
        <ele>150.3</ele>
        <time>2023-08-16T07:56:11Z</time>
      </trkpt>
      <trkpt lat="49.76325" lon="2.21363">
        <ele>150.3</ele>
        <time>2023-08-16T07:56:12Z</time>
      </trkpt>
      <trkpt lat="49.76324" lon="2.21364">
        <ele>150.3</ele>
        <time>2023-08-16T07:56:13Z</time>
      </trkpt>
      <trkpt lat="49.76323" lon="2.21364">
        <ele>150.3</ele>
        <time>2023-08-16T07:56:14Z</time>
      </trkpt>
      <trkpt lat="49.76322" lon="2.21366">
        <ele>150.3</ele>
        <time>2023-08-16T07:56:16Z</time>
      </trkpt>
      <trkpt lat="49.76321" lon="2.21368">
        <ele>150.3</ele>
        <time>2023-08-16T07:56:17Z</time>
      </trkpt>
      <trkpt lat="49.7632" lon="2.21369">
        <ele>150.2</ele>
        <time>2023-08-16T07:56:18Z</time>
      </trkpt>
      <trkpt lat="49.7632" lon="2.21371">
        <ele>150.2</ele>
        <time>2023-08-16T07:56:19Z</time>
      </trkpt>
      <trkpt lat="49.76319" lon="2.21372">
        <ele>150.2</ele>
        <time>2023-08-16T07:56:20Z</time>
      </trkpt>
      <trkpt lat="49.76318" lon="2.21374">
        <ele>150.2</ele>
        <time>2023-08-16T07:56:21Z</time>
      </trkpt>
      <trkpt lat="49.76317" lon="2.21375">
        <ele>150.2</ele>
        <time>2023-08-16T07:56:22Z</time>
      </trkpt>
      <trkpt lat="49.76316" lon="2.21376">
        <ele>150.2</ele>
        <time>2023-08-16T07:56:23Z</time>
      </trkpt>
      <trkpt lat="49.76315" lon="2.21378">
        <ele>150.2</ele>
        <time>2023-08-16T07:56:25Z</time>
      </trkpt>
      <trkpt lat="49.76314" lon="2.2138">
        <ele>150.2</ele>
        <time>2023-08-16T07:56:26Z</time>
      </trkpt>
      <trkpt lat="49.76314" lon="2.21381">
        <ele>150.2</ele>
        <time>2023-08-16T07:56:27Z</time>
      </trkpt>
      <trkpt lat="49.76313" lon="2.21382">
        <ele>150.1</ele>
        <time>2023-08-16T07:56:28Z</time>
      </trkpt>
      <trkpt lat="49.76312" lon="2.21383">
        <ele>150.1</ele>
        <time>2023-08-16T07:56:29Z</time>
      </trkpt>
      <trkpt lat="49.76311" lon="2.21385">
        <ele>150.1</ele>
        <time>2023-08-16T07:56:31Z</time>
      </trkpt>
      <trkpt lat="49.7631" lon="2.21386">
        <ele>150.1</ele>
        <time>2023-08-16T07:56:32Z</time>
      </trkpt>
      <trkpt lat="49.76309" lon="2.21388">
        <ele>150.1</ele>
        <time>2023-08-16T07:56:33Z</time>
      </trkpt>
      <trkpt lat="49.76308" lon="2.21389">
        <ele>150.1</ele>
        <time>2023-08-16T07:56:34Z</time>
      </trkpt>
      <trkpt lat="49.76307" lon="2.2139">
        <ele>150.1</ele>
        <time>2023-08-16T07:56:35Z</time>
      </trkpt>
      <trkpt lat="49.76306" lon="2.21392">
        <ele>150.1</ele>
        <time>2023-08-16T07:56:36Z</time>
      </trkpt>
      <trkpt lat="49.76305" lon="2.21393">
        <ele>150.1</ele>
        <time>2023-08-16T07:56:37Z</time>
      </trkpt>
      <trkpt lat="49.76304" lon="2.21394">
        <ele>150</ele>
        <time>2023-08-16T07:56:39Z</time>
      </trkpt>
      <trkpt lat="49.76304" lon="2.21396">
        <ele>150</ele>
        <time>2023-08-16T07:56:40Z</time>
      </trkpt>
      <trkpt lat="49.76302" lon="2.21399">
        <ele>150</ele>
        <time>2023-08-16T07:56:41Z</time>
      </trkpt>
      <trkpt lat="49.76301" lon="2.214">
        <ele>150</ele>
        <time>2023-08-16T07:56:42Z</time>
      </trkpt>
      <trkpt lat="49.76301" lon="2.21401">
        <ele>150</ele>
        <time>2023-08-16T07:56:43Z</time>
      </trkpt>
      <trkpt lat="49.763" lon="2.21402">
        <ele>150</ele>
        <time>2023-08-16T07:56:44Z</time>
      </trkpt>
      <trkpt lat="49.763" lon="2.21404">
        <ele>150</ele>
        <time>2023-08-16T07:56:45Z</time>
      </trkpt>
      <trkpt lat="49.76299" lon="2.21405">
        <ele>150</ele>
        <time>2023-08-16T07:56:47Z</time>
      </trkpt>
      <trkpt lat="49.76297" lon="2.21408">
        <ele>150</ele>
        <time>2023-08-16T07:56:48Z</time>
      </trkpt>
      <trkpt lat="49.76297" lon="2.21409">
        <ele>150</ele>
        <time>2023-08-16T07:56:49Z</time>
      </trkpt>
      <trkpt lat="49.76296" lon="2.2141">
        <ele>150</ele>
        <time>2023-08-16T07:56:50Z</time>
      </trkpt>
      <trkpt lat="49.76295" lon="2.21412">
        <ele>150</ele>
        <time>2023-08-16T07:56:51Z</time>
      </trkpt>
      <trkpt lat="49.76295" lon="2.21413">
        <ele>150</ele>
        <time>2023-08-16T07:56:52Z</time>
      </trkpt>
      <trkpt lat="49.76294" lon="2.21414">
        <ele>150</ele>
        <time>2023-08-16T07:56:53Z</time>
      </trkpt>
      <trkpt lat="49.76293" lon="2.21417">
        <ele>149.9</ele>
        <time>2023-08-16T07:56:55Z</time>
      </trkpt>
      <trkpt lat="49.76292" lon="2.21418">
        <ele>149.9</ele>
        <time>2023-08-16T07:56:56Z</time>
      </trkpt>
      <trkpt lat="49.76291" lon="2.21419">
        <ele>149.9</ele>
        <time>2023-08-16T07:56:57Z</time>
      </trkpt>
      <trkpt lat="49.7629" lon="2.2142">
        <ele>149.9</ele>
        <time>2023-08-16T07:56:59Z</time>
      </trkpt>
      <trkpt lat="49.76289" lon="2.21422">
        <ele>149.9</ele>
        <time>2023-08-16T07:57:00Z</time>
      </trkpt>
      <trkpt lat="49.76288" lon="2.21423">
        <ele>149.9</ele>
        <time>2023-08-16T07:57:01Z</time>
      </trkpt>
      <trkpt lat="49.76287" lon="2.21424">
        <ele>149.9</ele>
        <time>2023-08-16T07:57:02Z</time>
      </trkpt>
      <trkpt lat="49.76287" lon="2.21426">
        <ele>149.9</ele>
        <time>2023-08-16T07:57:03Z</time>
      </trkpt>
      <trkpt lat="49.76286" lon="2.21427">
        <ele>149.9</ele>
        <time>2023-08-16T07:57:04Z</time>
      </trkpt>
      <trkpt lat="49.76285" lon="2.21428">
        <ele>149.9</ele>
        <time>2023-08-16T07:57:05Z</time>
      </trkpt>
      <trkpt lat="49.76284" lon="2.2143">
        <ele>149.9</ele>
        <time>2023-08-16T07:57:07Z</time>
      </trkpt>
      <trkpt lat="49.76283" lon="2.21431">
        <ele>149.9</ele>
        <time>2023-08-16T07:57:08Z</time>
      </trkpt>
      <trkpt lat="49.76282" lon="2.21433">
        <ele>149.9</ele>
        <time>2023-08-16T07:57:09Z</time>
      </trkpt>
      <trkpt lat="49.76281" lon="2.21435">
        <ele>149.9</ele>
        <time>2023-08-16T07:57:11Z</time>
      </trkpt>
      <trkpt lat="49.76281" lon="2.21436">
        <ele>149.9</ele>
        <time>2023-08-16T07:57:12Z</time>
      </trkpt>
      <trkpt lat="49.7628" lon="2.21437">
        <ele>149.9</ele>
        <time>2023-08-16T07:57:13Z</time>
      </trkpt>
      <trkpt lat="49.76279" lon="2.2144">
        <ele>149.9</ele>
        <time>2023-08-16T07:57:14Z</time>
      </trkpt>
      <trkpt lat="49.76279" lon="2.21441">
        <ele>149.9</ele>
        <time>2023-08-16T07:57:15Z</time>
      </trkpt>
      <trkpt lat="49.76279" lon="2.21442">
        <ele>149.9</ele>
        <time>2023-08-16T07:57:16Z</time>
      </trkpt>
      <trkpt lat="49.76279" lon="2.21444">
        <ele>149.9</ele>
        <time>2023-08-16T07:57:17Z</time>
      </trkpt>
      <trkpt lat="49.76278" lon="2.21446">
        <ele>149.9</ele>
        <time>2023-08-16T07:57:19Z</time>
      </trkpt>
      <trkpt lat="49.76278" lon="2.21448">
        <ele>149.9</ele>
        <time>2023-08-16T07:57:20Z</time>
      </trkpt>
      <trkpt lat="49.76278" lon="2.21451">
        <ele>149.9</ele>
        <time>2023-08-16T07:57:21Z</time>
      </trkpt>
      <trkpt lat="49.76278" lon="2.21453">
        <ele>149.9</ele>
        <time>2023-08-16T07:57:22Z</time>
      </trkpt>
      <trkpt lat="49.76277" lon="2.21454">
        <ele>149.9</ele>
        <time>2023-08-16T07:57:23Z</time>
      </trkpt>
      <trkpt lat="49.76277" lon="2.21456">
        <ele>149.9</ele>
        <time>2023-08-16T07:57:24Z</time>
      </trkpt>
      <trkpt lat="49.76277" lon="2.21458">
        <ele>149.9</ele>
        <time>2023-08-16T07:57:25Z</time>
      </trkpt>
      <trkpt lat="49.76277" lon="2.2146">
        <ele>149.9</ele>
        <time>2023-08-16T07:57:27Z</time>
      </trkpt>
      <trkpt lat="49.76277" lon="2.21462">
        <ele>149.9</ele>
        <time>2023-08-16T07:57:28Z</time>
      </trkpt>
      <trkpt lat="49.76277" lon="2.21464">
        <ele>149.9</ele>
        <time>2023-08-16T07:57:29Z</time>
      </trkpt>
      <trkpt lat="49.76277" lon="2.21466">
        <ele>149.9</ele>
        <time>2023-08-16T07:57:30Z</time>
      </trkpt>
      <trkpt lat="49.76277" lon="2.21469">
        <ele>149.8</ele>
        <time>2023-08-16T07:57:31Z</time>
      </trkpt>
      <trkpt lat="49.76277" lon="2.2147">
        <ele>149.8</ele>
        <time>2023-08-16T07:57:32Z</time>
      </trkpt>
      <trkpt lat="49.76277" lon="2.21471">
        <ele>149.8</ele>
        <time>2023-08-16T07:57:33Z</time>
      </trkpt>
      <trkpt lat="49.76276" lon="2.21474">
        <ele>149.8</ele>
        <time>2023-08-16T07:57:35Z</time>
      </trkpt>
      <trkpt lat="49.76276" lon="2.21476">
        <ele>149.8</ele>
        <time>2023-08-16T07:57:36Z</time>
      </trkpt>
      <trkpt lat="49.76276" lon="2.21478">
        <ele>149.7</ele>
        <time>2023-08-16T07:57:38Z</time>
      </trkpt>
      <trkpt lat="49.76275" lon="2.21481">
        <ele>149.7</ele>
        <time>2023-08-16T07:57:39Z</time>
      </trkpt>
      <trkpt lat="49.76275" lon="2.21482">
        <ele>149.7</ele>
        <time>2023-08-16T07:57:40Z</time>
      </trkpt>
      <trkpt lat="49.76275" lon="2.21484">
        <ele>149.7</ele>
        <time>2023-08-16T07:57:41Z</time>
      </trkpt>
      <trkpt lat="49.76275" lon="2.21486">
        <ele>149.7</ele>
        <time>2023-08-16T07:57:42Z</time>
      </trkpt>
      <trkpt lat="49.76275" lon="2.21488">
        <ele>149.6</ele>
        <time>2023-08-16T07:57:43Z</time>
      </trkpt>
      <trkpt lat="49.76275" lon="2.21489">
        <ele>149.6</ele>
        <time>2023-08-16T07:57:44Z</time>
      </trkpt>
      <trkpt lat="49.76275" lon="2.21491">
        <ele>149.6</ele>
        <time>2023-08-16T07:57:46Z</time>
      </trkpt>
      <trkpt lat="49.76274" lon="2.21493">
        <ele>149.6</ele>
        <time>2023-08-16T07:57:47Z</time>
      </trkpt>
      <trkpt lat="49.76274" lon="2.21495">
        <ele>149.6</ele>
        <time>2023-08-16T07:57:48Z</time>
      </trkpt>
      <trkpt lat="49.76274" lon="2.21496">
        <ele>149.5</ele>
        <time>2023-08-16T07:57:49Z</time>
      </trkpt>
      <trkpt lat="49.76274" lon="2.21499">
        <ele>149.5</ele>
        <time>2023-08-16T07:57:50Z</time>
      </trkpt>
      <trkpt lat="49.76274" lon="2.21501">
        <ele>149.5</ele>
        <time>2023-08-16T07:57:51Z</time>
      </trkpt>
      <trkpt lat="49.76274" lon="2.21502">
        <ele>149.5</ele>
        <time>2023-08-16T07:57:52Z</time>
      </trkpt>
      <trkpt lat="49.76274" lon="2.21505">
        <ele>149.4</ele>
        <time>2023-08-16T07:57:54Z</time>
      </trkpt>
      <trkpt lat="49.76274" lon="2.21506">
        <ele>149.4</ele>
        <time>2023-08-16T07:57:55Z</time>
      </trkpt>
      <trkpt lat="49.76274" lon="2.21508">
        <ele>149.4</ele>
        <time>2023-08-16T07:57:56Z</time>
      </trkpt>
      <trkpt lat="49.76274" lon="2.21509">
        <ele>149.4</ele>
        <time>2023-08-16T07:57:57Z</time>
      </trkpt>
      <trkpt lat="49.76274" lon="2.21511">
        <ele>149.4</ele>
        <time>2023-08-16T07:57:58Z</time>
      </trkpt>
      <trkpt lat="49.76274" lon="2.21513">
        <ele>149.3</ele>
        <time>2023-08-16T07:57:59Z</time>
      </trkpt>
      <trkpt lat="49.76275" lon="2.21516">
        <ele>149.3</ele>
        <time>2023-08-16T07:58:00Z</time>
      </trkpt>
      <trkpt lat="49.76275" lon="2.21517">
        <ele>149.3</ele>
        <time>2023-08-16T07:58:02Z</time>
      </trkpt>
      <trkpt lat="49.76275" lon="2.21519">
        <ele>149.3</ele>
        <time>2023-08-16T07:58:03Z</time>
      </trkpt>
      <trkpt lat="49.76275" lon="2.2152">
        <ele>149.3</ele>
        <time>2023-08-16T07:58:04Z</time>
      </trkpt>
      <trkpt lat="49.76275" lon="2.21522">
        <ele>149.2</ele>
        <time>2023-08-16T07:58:05Z</time>
      </trkpt>
      <trkpt lat="49.76275" lon="2.21524">
        <ele>149.2</ele>
        <time>2023-08-16T07:58:06Z</time>
      </trkpt>
      <trkpt lat="49.76275" lon="2.21525">
        <ele>149.2</ele>
        <time>2023-08-16T07:58:07Z</time>
      </trkpt>
      <trkpt lat="49.76275" lon="2.21527">
        <ele>149.2</ele>
        <time>2023-08-16T07:58:08Z</time>
      </trkpt>
      <trkpt lat="49.76275" lon="2.21529">
        <ele>149.1</ele>
        <time>2023-08-16T07:58:10Z</time>
      </trkpt>
      <trkpt lat="49.76275" lon="2.21533">
        <ele>149.1</ele>
        <time>2023-08-16T07:58:11Z</time>
      </trkpt>
      <trkpt lat="49.76275" lon="2.21534">
        <ele>149.1</ele>
        <time>2023-08-16T07:58:12Z</time>
      </trkpt>
      <trkpt lat="49.76275" lon="2.21535">
        <ele>149.1</ele>
        <time>2023-08-16T07:58:13Z</time>
      </trkpt>
      <trkpt lat="49.76274" lon="2.21537">
        <ele>149</ele>
        <time>2023-08-16T07:58:14Z</time>
      </trkpt>
      <trkpt lat="49.76274" lon="2.21539">
        <ele>149</ele>
        <time>2023-08-16T07:58:15Z</time>
      </trkpt>
      <trkpt lat="49.76274" lon="2.21541">
        <ele>149</ele>
        <time>2023-08-16T07:58:17Z</time>
      </trkpt>
      <trkpt lat="49.76274" lon="2.21543">
        <ele>148.9</ele>
        <time>2023-08-16T07:58:18Z</time>
      </trkpt>
      <trkpt lat="49.76274" lon="2.21544">
        <ele>148.9</ele>
        <time>2023-08-16T07:58:19Z</time>
      </trkpt>
      <trkpt lat="49.76273" lon="2.21546">
        <ele>148.9</ele>
        <time>2023-08-16T07:58:20Z</time>
      </trkpt>
      <trkpt lat="49.76273" lon="2.21548">
        <ele>148.9</ele>
        <time>2023-08-16T07:58:21Z</time>
      </trkpt>
      <trkpt lat="49.76273" lon="2.2155">
        <ele>148.8</ele>
        <time>2023-08-16T07:58:22Z</time>
      </trkpt>
      <trkpt lat="49.76273" lon="2.21552">
        <ele>148.8</ele>
        <time>2023-08-16T07:58:24Z</time>
      </trkpt>
      <trkpt lat="49.76273" lon="2.21555">
        <ele>148.7</ele>
        <time>2023-08-16T07:58:25Z</time>
      </trkpt>
      <trkpt lat="49.76274" lon="2.21557">
        <ele>148.7</ele>
        <time>2023-08-16T07:58:26Z</time>
      </trkpt>
      <trkpt lat="49.76274" lon="2.21558">
        <ele>148.7</ele>
        <time>2023-08-16T07:58:27Z</time>
      </trkpt>
      <trkpt lat="49.76274" lon="2.21559">
        <ele>148.7</ele>
        <time>2023-08-16T07:58:28Z</time>
      </trkpt>
      <trkpt lat="49.76274" lon="2.21561">
        <ele>148.6</ele>
        <time>2023-08-16T07:58:29Z</time>
      </trkpt>
      <trkpt lat="49.76274" lon="2.21563">
        <ele>148.6</ele>
        <time>2023-08-16T07:58:30Z</time>
      </trkpt>
      <trkpt lat="49.76274" lon="2.21565">
        <ele>148.6</ele>
        <time>2023-08-16T07:58:32Z</time>
      </trkpt>
      <trkpt lat="49.76274" lon="2.21567">
        <ele>148.5</ele>
        <time>2023-08-16T07:58:33Z</time>
      </trkpt>
      <trkpt lat="49.76274" lon="2.21569">
        <ele>148.5</ele>
        <time>2023-08-16T07:58:34Z</time>
      </trkpt>
      <trkpt lat="49.76274" lon="2.21571">
        <ele>148.5</ele>
        <time>2023-08-16T07:58:35Z</time>
      </trkpt>
      <trkpt lat="49.76274" lon="2.21573">
        <ele>148.4</ele>
        <time>2023-08-16T07:58:36Z</time>
      </trkpt>
      <trkpt lat="49.76273" lon="2.21574">
        <ele>148.4</ele>
        <time>2023-08-16T07:58:37Z</time>
      </trkpt>
      <trkpt lat="49.76273" lon="2.21576">
        <ele>148.4</ele>
        <time>2023-08-16T07:58:38Z</time>
      </trkpt>
      <trkpt lat="49.76273" lon="2.21578">
        <ele>148.3</ele>
        <time>2023-08-16T07:58:40Z</time>
      </trkpt>
      <trkpt lat="49.76273" lon="2.2158">
        <ele>148.3</ele>
        <time>2023-08-16T07:58:41Z</time>
      </trkpt>
      <trkpt lat="49.76273" lon="2.21581">
        <ele>148.2</ele>
        <time>2023-08-16T07:58:42Z</time>
      </trkpt>
      <trkpt lat="49.76273" lon="2.21583">
        <ele>148.2</ele>
        <time>2023-08-16T07:58:43Z</time>
      </trkpt>
      <trkpt lat="49.76272" lon="2.21585">
        <ele>148.2</ele>
        <time>2023-08-16T07:58:44Z</time>
      </trkpt>
      <trkpt lat="49.76272" lon="2.21587">
        <ele>148.1</ele>
        <time>2023-08-16T07:58:45Z</time>
      </trkpt>
      <trkpt lat="49.76272" lon="2.21589">
        <ele>148.1</ele>
        <time>2023-08-16T07:58:47Z</time>
      </trkpt>
      <trkpt lat="49.76271" lon="2.21591">
        <ele>148</ele>
        <time>2023-08-16T07:58:48Z</time>
      </trkpt>
      <trkpt lat="49.76271" lon="2.21593">
        <ele>148</ele>
        <time>2023-08-16T07:58:49Z</time>
      </trkpt>
      <trkpt lat="49.7627" lon="2.21596">
        <ele>147.9</ele>
        <time>2023-08-16T07:58:50Z</time>
      </trkpt>
      <trkpt lat="49.7627" lon="2.21597">
        <ele>147.9</ele>
        <time>2023-08-16T07:58:51Z</time>
      </trkpt>
      <trkpt lat="49.7627" lon="2.21599">
        <ele>147.8</ele>
        <time>2023-08-16T07:58:53Z</time>
      </trkpt>
      <trkpt lat="49.7627" lon="2.21601">
        <ele>147.8</ele>
        <time>2023-08-16T07:58:54Z</time>
      </trkpt>
      <trkpt lat="49.7627" lon="2.21602">
        <ele>147.8</ele>
        <time>2023-08-16T07:58:55Z</time>
      </trkpt>
      <trkpt lat="49.7627" lon="2.21604">
        <ele>147.7</ele>
        <time>2023-08-16T07:58:56Z</time>
      </trkpt>
      <trkpt lat="49.7627" lon="2.21607">
        <ele>147.7</ele>
        <time>2023-08-16T07:58:57Z</time>
      </trkpt>
      <trkpt lat="49.7627" lon="2.21609">
        <ele>147.6</ele>
        <time>2023-08-16T07:58:58Z</time>
      </trkpt>
      <trkpt lat="49.7627" lon="2.2161">
        <ele>147.6</ele>
        <time>2023-08-16T07:58:59Z</time>
      </trkpt>
      <trkpt lat="49.7627" lon="2.21611">
        <ele>147.6</ele>
        <time>2023-08-16T07:59:00Z</time>
      </trkpt>
      <trkpt lat="49.7627" lon="2.21613">
        <ele>147.5</ele>
        <time>2023-08-16T07:59:01Z</time>
      </trkpt>
      <trkpt lat="49.76269" lon="2.21615">
        <ele>147.5</ele>
        <time>2023-08-16T07:59:03Z</time>
      </trkpt>
      <trkpt lat="49.76269" lon="2.21618">
        <ele>147.4</ele>
        <time>2023-08-16T07:59:04Z</time>
      </trkpt>
      <trkpt lat="49.76269" lon="2.2162">
        <ele>147.4</ele>
        <time>2023-08-16T07:59:05Z</time>
      </trkpt>
      <trkpt lat="49.76269" lon="2.21624">
        <ele>147.3</ele>
        <time>2023-08-16T07:59:06Z</time>
      </trkpt>
      <trkpt lat="49.76269" lon="2.21626">
        <ele>147.3</ele>
        <time>2023-08-16T07:59:08Z</time>
      </trkpt>
      <trkpt lat="49.76269" lon="2.21627">
        <ele>147.2</ele>
        <time>2023-08-16T07:59:09Z</time>
      </trkpt>
      <trkpt lat="49.76269" lon="2.21629">
        <ele>147.2</ele>
        <time>2023-08-16T07:59:10Z</time>
      </trkpt>
      <trkpt lat="49.76269" lon="2.21631">
        <ele>147.1</ele>
        <time>2023-08-16T07:59:11Z</time>
      </trkpt>
      <trkpt lat="49.76269" lon="2.21633">
        <ele>147.1</ele>
        <time>2023-08-16T07:59:12Z</time>
      </trkpt>
      <trkpt lat="49.7627" lon="2.21635">
        <ele>147</ele>
        <time>2023-08-16T07:59:13Z</time>
      </trkpt>
      <trkpt lat="49.7627" lon="2.21638">
        <ele>147</ele>
        <time>2023-08-16T07:59:15Z</time>
      </trkpt>
      <trkpt lat="49.7627" lon="2.2164">
        <ele>146.9</ele>
        <time>2023-08-16T07:59:16Z</time>
      </trkpt>
      <trkpt lat="49.7627" lon="2.21642">
        <ele>146.9</ele>
        <time>2023-08-16T07:59:17Z</time>
      </trkpt>
      <trkpt lat="49.7627" lon="2.21645">
        <ele>146.8</ele>
        <time>2023-08-16T07:59:18Z</time>
      </trkpt>
      <trkpt lat="49.7627" lon="2.21648">
        <ele>146.8</ele>
        <time>2023-08-16T07:59:19Z</time>
      </trkpt>
      <trkpt lat="49.7627" lon="2.21649">
        <ele>146.7</ele>
        <time>2023-08-16T07:59:20Z</time>
      </trkpt>
      <trkpt lat="49.7627" lon="2.21651">
        <ele>146.7</ele>
        <time>2023-08-16T07:59:21Z</time>
      </trkpt>
      <trkpt lat="49.7627" lon="2.21654">
        <ele>146.6</ele>
        <time>2023-08-16T07:59:23Z</time>
      </trkpt>
      <trkpt lat="49.7627" lon="2.21656">
        <ele>146.6</ele>
        <time>2023-08-16T07:59:24Z</time>
      </trkpt>
      <trkpt lat="49.7627" lon="2.2166">
        <ele>146.5</ele>
        <time>2023-08-16T07:59:25Z</time>
      </trkpt>
      <trkpt lat="49.7627" lon="2.21661">
        <ele>146.5</ele>
        <time>2023-08-16T07:59:27Z</time>
      </trkpt>
      <trkpt lat="49.7627" lon="2.21662">
        <ele>146.4</ele>
        <time>2023-08-16T07:59:28Z</time>
      </trkpt>
      <trkpt lat="49.7627" lon="2.21664">
        <ele>146.4</ele>
        <time>2023-08-16T07:59:29Z</time>
      </trkpt>
      <trkpt lat="49.7627" lon="2.21666">
        <ele>146.4</ele>
        <time>2023-08-16T07:59:30Z</time>
      </trkpt>
      <trkpt lat="49.76269" lon="2.21668">
        <ele>146.3</ele>
        <time>2023-08-16T07:59:31Z</time>
      </trkpt>
      <trkpt lat="49.76269" lon="2.21669">
        <ele>146.3</ele>
        <time>2023-08-16T07:59:32Z</time>
      </trkpt>
      <trkpt lat="49.76269" lon="2.21671">
        <ele>146.2</ele>
        <time>2023-08-16T07:59:33Z</time>
      </trkpt>
      <trkpt lat="49.76269" lon="2.21674">
        <ele>146.2</ele>
        <time>2023-08-16T07:59:35Z</time>
      </trkpt>
      <trkpt lat="49.76269" lon="2.21677">
        <ele>146.1</ele>
        <time>2023-08-16T07:59:36Z</time>
      </trkpt>
      <trkpt lat="49.76269" lon="2.21678">
        <ele>146.1</ele>
        <time>2023-08-16T07:59:37Z</time>
      </trkpt>
      <trkpt lat="49.76269" lon="2.2168">
        <ele>146.1</ele>
        <time>2023-08-16T07:59:38Z</time>
      </trkpt>
      <trkpt lat="49.76269" lon="2.21681">
        <ele>146</ele>
        <time>2023-08-16T07:59:39Z</time>
      </trkpt>
      <trkpt lat="49.76269" lon="2.21683">
        <ele>146</ele>
        <time>2023-08-16T07:59:41Z</time>
      </trkpt>
      <trkpt lat="49.76269" lon="2.21685">
        <ele>145.9</ele>
        <time>2023-08-16T07:59:42Z</time>
      </trkpt>
      <trkpt lat="49.76269" lon="2.21687">
        <ele>145.9</ele>
        <time>2023-08-16T07:59:43Z</time>
      </trkpt>
      <trkpt lat="49.76269" lon="2.21689">
        <ele>145.9</ele>
        <time>2023-08-16T07:59:44Z</time>
      </trkpt>
      <trkpt lat="49.76269" lon="2.2169">
        <ele>145.8</ele>
        <time>2023-08-16T07:59:45Z</time>
      </trkpt>
      <trkpt lat="49.76269" lon="2.21692">
        <ele>145.8</ele>
        <time>2023-08-16T07:59:46Z</time>
      </trkpt>
      <trkpt lat="49.76268" lon="2.21693">
        <ele>145.8</ele>
        <time>2023-08-16T07:59:47Z</time>
      </trkpt>
      <trkpt lat="49.76268" lon="2.21695">
        <ele>145.7</ele>
        <time>2023-08-16T07:59:49Z</time>
      </trkpt>
      <trkpt lat="49.76268" lon="2.21697">
        <ele>145.7</ele>
        <time>2023-08-16T07:59:50Z</time>
      </trkpt>
      <trkpt lat="49.76268" lon="2.21699">
        <ele>145.6</ele>
        <time>2023-08-16T07:59:51Z</time>
      </trkpt>
      <trkpt lat="49.76268" lon="2.21701">
        <ele>145.6</ele>
        <time>2023-08-16T07:59:52Z</time>
      </trkpt>
      <trkpt lat="49.76268" lon="2.21703">
        <ele>145.6</ele>
        <time>2023-08-16T07:59:53Z</time>
      </trkpt>
      <trkpt lat="49.76268" lon="2.21704">
        <ele>145.5</ele>
        <time>2023-08-16T07:59:54Z</time>
      </trkpt>
      <trkpt lat="49.76268" lon="2.21706">
        <ele>145.5</ele>
        <time>2023-08-16T07:59:55Z</time>
      </trkpt>
      <trkpt lat="49.76268" lon="2.21709">
        <ele>145.5</ele>
        <time>2023-08-16T07:59:57Z</time>
      </trkpt>
      <trkpt lat="49.76268" lon="2.21711">
        <ele>145.4</ele>
        <time>2023-08-16T07:59:58Z</time>
      </trkpt>
      <trkpt lat="49.76268" lon="2.21714">
        <ele>145.4</ele>
        <time>2023-08-16T08:00:00Z</time>
      </trkpt>
      <trkpt lat="49.76268" lon="2.21716">
        <ele>145.3</ele>
        <time>2023-08-16T08:00:01Z</time>
      </trkpt>
      <trkpt lat="49.76268" lon="2.21717">
        <ele>145.3</ele>
        <time>2023-08-16T08:00:02Z</time>
      </trkpt>
      <trkpt lat="49.76267" lon="2.21719">
        <ele>145.3</ele>
        <time>2023-08-16T08:00:03Z</time>
      </trkpt>
      <trkpt lat="49.76267" lon="2.2172">
        <ele>145.3</ele>
        <time>2023-08-16T08:00:04Z</time>
      </trkpt>
      <trkpt lat="49.76267" lon="2.21722">
        <ele>145.2</ele>
        <time>2023-08-16T08:00:05Z</time>
      </trkpt>
      <trkpt lat="49.76267" lon="2.21724">
        <ele>145.2</ele>
        <time>2023-08-16T08:00:06Z</time>
      </trkpt>
      <trkpt lat="49.76267" lon="2.21726">
        <ele>145.2</ele>
        <time>2023-08-16T08:00:07Z</time>
      </trkpt>
      <trkpt lat="49.76267" lon="2.21728">
        <ele>145.1</ele>
        <time>2023-08-16T08:00:09Z</time>
      </trkpt>
      <trkpt lat="49.76267" lon="2.21731">
        <ele>145.1</ele>
        <time>2023-08-16T08:00:10Z</time>
      </trkpt>
      <trkpt lat="49.76267" lon="2.21732">
        <ele>145.1</ele>
        <time>2023-08-16T08:00:11Z</time>
      </trkpt>
      <trkpt lat="49.76267" lon="2.21734">
        <ele>145.1</ele>
        <time>2023-08-16T08:00:12Z</time>
      </trkpt>
      <trkpt lat="49.76266" lon="2.21737">
        <ele>145</ele>
        <time>2023-08-16T08:00:13Z</time>
      </trkpt>
      <trkpt lat="49.76266" lon="2.21739">
        <ele>145</ele>
        <time>2023-08-16T08:00:15Z</time>
      </trkpt>
      <trkpt lat="49.76266" lon="2.2174">
        <ele>144.9</ele>
        <time>2023-08-16T08:00:16Z</time>
      </trkpt>
      <trkpt lat="49.76266" lon="2.21742">
        <ele>144.9</ele>
        <time>2023-08-16T08:00:17Z</time>
      </trkpt>
      <trkpt lat="49.76266" lon="2.21744">
        <ele>144.9</ele>
        <time>2023-08-16T08:00:18Z</time>
      </trkpt>
      <trkpt lat="49.76266" lon="2.21746">
        <ele>144.9</ele>
        <time>2023-08-16T08:00:20Z</time>
      </trkpt>
      <trkpt lat="49.76266" lon="2.21749">
        <ele>144.8</ele>
        <time>2023-08-16T08:00:21Z</time>
      </trkpt>
      <trkpt lat="49.76266" lon="2.21751">
        <ele>144.8</ele>
        <time>2023-08-16T08:00:22Z</time>
      </trkpt>
      <trkpt lat="49.76266" lon="2.21753">
        <ele>144.7</ele>
        <time>2023-08-16T08:00:23Z</time>
      </trkpt>
      <trkpt lat="49.76266" lon="2.21755">
        <ele>144.7</ele>
        <time>2023-08-16T08:00:25Z</time>
      </trkpt>
      <trkpt lat="49.76266" lon="2.21757">
        <ele>144.7</ele>
        <time>2023-08-16T08:00:26Z</time>
      </trkpt>
      <trkpt lat="49.76266" lon="2.2176">
        <ele>144.6</ele>
        <time>2023-08-16T08:00:27Z</time>
      </trkpt>
      <trkpt lat="49.76267" lon="2.21763">
        <ele>144.6</ele>
        <time>2023-08-16T08:00:28Z</time>
      </trkpt>
      <trkpt lat="49.76267" lon="2.21764">
        <ele>144.5</ele>
        <time>2023-08-16T08:00:29Z</time>
      </trkpt>
      <trkpt lat="49.76267" lon="2.21766">
        <ele>144.5</ele>
        <time>2023-08-16T08:00:30Z</time>
      </trkpt>
      <trkpt lat="49.76267" lon="2.21768">
        <ele>144.5</ele>
        <time>2023-08-16T08:00:32Z</time>
      </trkpt>
      <trkpt lat="49.76268" lon="2.2177">
        <ele>144.4</ele>
        <time>2023-08-16T08:00:33Z</time>
      </trkpt>
      <trkpt lat="49.76268" lon="2.21774">
        <ele>144.4</ele>
        <time>2023-08-16T08:00:34Z</time>
      </trkpt>
      <trkpt lat="49.76268" lon="2.21775">
        <ele>144.4</ele>
        <time>2023-08-16T08:00:35Z</time>
      </trkpt>
      <trkpt lat="49.76268" lon="2.21776">
        <ele>144.3</ele>
        <time>2023-08-16T08:00:36Z</time>
      </trkpt>
      <trkpt lat="49.76268" lon="2.21779">
        <ele>144.3</ele>
        <time>2023-08-16T08:00:37Z</time>
      </trkpt>
      <trkpt lat="49.76268" lon="2.21781">
        <ele>144.2</ele>
        <time>2023-08-16T08:00:39Z</time>
      </trkpt>
      <trkpt lat="49.76268" lon="2.21782">
        <ele>144.2</ele>
        <time>2023-08-16T08:00:40Z</time>
      </trkpt>
      <trkpt lat="49.76268" lon="2.21785">
        <ele>144.2</ele>
        <time>2023-08-16T08:00:41Z</time>
      </trkpt>
      <trkpt lat="49.76268" lon="2.21787">
        <ele>144.1</ele>
        <time>2023-08-16T08:00:42Z</time>
      </trkpt>
      <trkpt lat="49.76267" lon="2.2179">
        <ele>144.1</ele>
        <time>2023-08-16T08:00:44Z</time>
      </trkpt>
      <trkpt lat="49.76267" lon="2.21791">
        <ele>144.1</ele>
        <time>2023-08-16T08:00:45Z</time>
      </trkpt>
      <trkpt lat="49.76267" lon="2.21792">
        <ele>144</ele>
        <time>2023-08-16T08:00:46Z</time>
      </trkpt>
      <trkpt lat="49.76267" lon="2.21794">
        <ele>144</ele>
        <time>2023-08-16T08:00:47Z</time>
      </trkpt>
      <trkpt lat="49.76266" lon="2.21796">
        <ele>144</ele>
        <time>2023-08-16T08:00:48Z</time>
      </trkpt>
      <trkpt lat="49.76266" lon="2.21797">
        <ele>144</ele>
        <time>2023-08-16T08:00:49Z</time>
      </trkpt>
      <trkpt lat="49.76265" lon="2.21799">
        <ele>143.9</ele>
        <time>2023-08-16T08:00:51Z</time>
      </trkpt>
      <trkpt lat="49.76265" lon="2.21801">
        <ele>143.9</ele>
        <time>2023-08-16T08:00:52Z</time>
      </trkpt>
      <trkpt lat="49.76264" lon="2.21804">
        <ele>143.8</ele>
        <time>2023-08-16T08:00:53Z</time>
      </trkpt>
      <trkpt lat="49.76264" lon="2.21806">
        <ele>143.8</ele>
        <time>2023-08-16T08:00:54Z</time>
      </trkpt>
      <trkpt lat="49.76264" lon="2.21808">
        <ele>143.8</ele>
        <time>2023-08-16T08:00:55Z</time>
      </trkpt>
      <trkpt lat="49.76263" lon="2.2181">
        <ele>143.7</ele>
        <time>2023-08-16T08:00:56Z</time>
      </trkpt>
      <trkpt lat="49.76263" lon="2.21812">
        <ele>143.7</ele>
        <time>2023-08-16T08:00:57Z</time>
      </trkpt>
      <trkpt lat="49.76263" lon="2.21814">
        <ele>143.7</ele>
        <time>2023-08-16T08:00:59Z</time>
      </trkpt>
      <trkpt lat="49.76263" lon="2.21816">
        <ele>143.7</ele>
        <time>2023-08-16T08:01:00Z</time>
      </trkpt>
      <trkpt lat="49.76262" lon="2.21819">
        <ele>143.6</ele>
        <time>2023-08-16T08:01:01Z</time>
      </trkpt>
      <trkpt lat="49.76262" lon="2.21821">
        <ele>143.6</ele>
        <time>2023-08-16T08:01:02Z</time>
      </trkpt>
      <trkpt lat="49.76262" lon="2.21823">
        <ele>143.5</ele>
        <time>2023-08-16T08:01:03Z</time>
      </trkpt>
      <trkpt lat="49.76262" lon="2.21825">
        <ele>143.5</ele>
        <time>2023-08-16T08:01:04Z</time>
      </trkpt>
      <trkpt lat="49.76262" lon="2.21827">
        <ele>143.5</ele>
        <time>2023-08-16T08:01:05Z</time>
      </trkpt>
      <trkpt lat="49.76262" lon="2.21829">
        <ele>143.5</ele>
        <time>2023-08-16T08:01:07Z</time>
      </trkpt>
      <trkpt lat="49.76262" lon="2.21831">
        <ele>143.4</ele>
        <time>2023-08-16T08:01:08Z</time>
      </trkpt>
      <trkpt lat="49.76262" lon="2.21833">
        <ele>143.4</ele>
        <time>2023-08-16T08:01:09Z</time>
      </trkpt>
      <trkpt lat="49.76261" lon="2.21835">
        <ele>143.4</ele>
        <time>2023-08-16T08:01:10Z</time>
      </trkpt>
      <trkpt lat="49.76261" lon="2.21837">
        <ele>143.3</ele>
        <time>2023-08-16T08:01:11Z</time>
      </trkpt>
      <trkpt lat="49.76262" lon="2.21839">
        <ele>143.3</ele>
        <time>2023-08-16T08:01:12Z</time>
      </trkpt>
      <trkpt lat="49.76262" lon="2.21841">
        <ele>143.3</ele>
        <time>2023-08-16T08:01:13Z</time>
      </trkpt>
      <trkpt lat="49.76262" lon="2.21844">
        <ele>143.2</ele>
        <time>2023-08-16T08:01:15Z</time>
      </trkpt>
      <trkpt lat="49.76262" lon="2.21846">
        <ele>143.2</ele>
        <time>2023-08-16T08:01:16Z</time>
      </trkpt>
      <trkpt lat="49.76262" lon="2.21848">
        <ele>143.2</ele>
        <time>2023-08-16T08:01:17Z</time>
      </trkpt>
      <trkpt lat="49.76262" lon="2.21851">
        <ele>143.1</ele>
        <time>2023-08-16T08:01:19Z</time>
      </trkpt>
      <trkpt lat="49.76262" lon="2.21853">
        <ele>143.1</ele>
        <time>2023-08-16T08:01:20Z</time>
      </trkpt>
      <trkpt lat="49.76262" lon="2.21854">
        <ele>143.1</ele>
        <time>2023-08-16T08:01:21Z</time>
      </trkpt>
      <trkpt lat="49.76262" lon="2.21856">
        <ele>143.1</ele>
        <time>2023-08-16T08:01:23Z</time>
      </trkpt>
      <trkpt lat="49.76262" lon="2.21858">
        <ele>143.1</ele>
        <time>2023-08-16T08:01:24Z</time>
      </trkpt>
      <trkpt lat="49.76262" lon="2.21862">
        <ele>143</ele>
        <time>2023-08-16T08:01:25Z</time>
      </trkpt>
      <trkpt lat="49.76262" lon="2.21863">
        <ele>143</ele>
        <time>2023-08-16T08:01:26Z</time>
      </trkpt>
      <trkpt lat="49.76262" lon="2.21864">
        <ele>143</ele>
        <time>2023-08-16T08:01:27Z</time>
      </trkpt>
      <trkpt lat="49.76262" lon="2.21866">
        <ele>143</ele>
        <time>2023-08-16T08:01:28Z</time>
      </trkpt>
      <trkpt lat="49.76262" lon="2.21868">
        <ele>143</ele>
        <time>2023-08-16T08:01:29Z</time>
      </trkpt>
      <trkpt lat="49.76262" lon="2.2187">
        <ele>143</ele>
        <time>2023-08-16T08:01:31Z</time>
      </trkpt>
      <trkpt lat="49.76262" lon="2.21872">
        <ele>142.9</ele>
        <time>2023-08-16T08:01:32Z</time>
      </trkpt>
      <trkpt lat="49.76262" lon="2.21874">
        <ele>142.9</ele>
        <time>2023-08-16T08:01:33Z</time>
      </trkpt>
      <trkpt lat="49.76262" lon="2.21876">
        <ele>142.9</ele>
        <time>2023-08-16T08:01:34Z</time>
      </trkpt>
      <trkpt lat="49.76262" lon="2.21878">
        <ele>142.9</ele>
        <time>2023-08-16T08:01:35Z</time>
      </trkpt>
      <trkpt lat="49.76262" lon="2.21882">
        <ele>142.9</ele>
        <time>2023-08-16T08:01:36Z</time>
      </trkpt>
      <trkpt lat="49.76262" lon="2.21883">
        <ele>142.9</ele>
        <time>2023-08-16T08:01:37Z</time>
      </trkpt>
      <trkpt lat="49.76262" lon="2.21884">
        <ele>142.8</ele>
        <time>2023-08-16T08:01:38Z</time>
      </trkpt>
      <trkpt lat="49.76262" lon="2.21886">
        <ele>142.8</ele>
        <time>2023-08-16T08:01:40Z</time>
      </trkpt>
      <trkpt lat="49.76262" lon="2.21888">
        <ele>142.8</ele>
        <time>2023-08-16T08:01:41Z</time>
      </trkpt>
      <trkpt lat="49.76262" lon="2.21892">
        <ele>142.8</ele>
        <time>2023-08-16T08:01:42Z</time>
      </trkpt>
      <trkpt lat="49.76262" lon="2.21893">
        <ele>142.8</ele>
        <time>2023-08-16T08:01:43Z</time>
      </trkpt>
      <trkpt lat="49.76262" lon="2.21895">
        <ele>142.8</ele>
        <time>2023-08-16T08:01:44Z</time>
      </trkpt>
      <trkpt lat="49.76262" lon="2.21897">
        <ele>142.8</ele>
        <time>2023-08-16T08:01:45Z</time>
      </trkpt>
      <trkpt lat="49.76262" lon="2.21898">
        <ele>142.7</ele>
        <time>2023-08-16T08:01:46Z</time>
      </trkpt>
      <trkpt lat="49.76262" lon="2.21901">
        <ele>142.7</ele>
        <time>2023-08-16T08:01:48Z</time>
      </trkpt>
      <trkpt lat="49.76262" lon="2.21903">
        <ele>142.7</ele>
        <time>2023-08-16T08:01:49Z</time>
      </trkpt>
      <trkpt lat="49.76262" lon="2.21906">
        <ele>142.7</ele>
        <time>2023-08-16T08:01:51Z</time>
      </trkpt>
      <trkpt lat="49.76262" lon="2.21908">
        <ele>142.7</ele>
        <time>2023-08-16T08:01:52Z</time>
      </trkpt>
      <trkpt lat="49.76262" lon="2.2191">
        <ele>142.7</ele>
        <time>2023-08-16T08:01:53Z</time>
      </trkpt>
      <trkpt lat="49.76262" lon="2.21911">
        <ele>142.7</ele>
        <time>2023-08-16T08:01:54Z</time>
      </trkpt>
      <trkpt lat="49.76262" lon="2.21915">
        <ele>142.7</ele>
        <time>2023-08-16T08:01:55Z</time>
      </trkpt>
      <trkpt lat="49.76262" lon="2.21916">
        <ele>142.7</ele>
        <time>2023-08-16T08:01:56Z</time>
      </trkpt>
      <trkpt lat="49.76262" lon="2.21918">
        <ele>142.7</ele>
        <time>2023-08-16T08:01:57Z</time>
      </trkpt>
      <trkpt lat="49.76262" lon="2.2192">
        <ele>142.7</ele>
        <time>2023-08-16T08:01:58Z</time>
      </trkpt>
      <trkpt lat="49.76262" lon="2.21922">
        <ele>142.7</ele>
        <time>2023-08-16T08:02:00Z</time>
      </trkpt>
      <trkpt lat="49.76262" lon="2.21924">
        <ele>142.7</ele>
        <time>2023-08-16T08:02:01Z</time>
      </trkpt>
      <trkpt lat="49.76262" lon="2.21926">
        <ele>142.7</ele>
        <time>2023-08-16T08:02:02Z</time>
      </trkpt>
      <trkpt lat="49.76262" lon="2.2193">
        <ele>142.7</ele>
        <time>2023-08-16T08:02:03Z</time>
      </trkpt>
      <trkpt lat="49.76262" lon="2.21931">
        <ele>142.7</ele>
        <time>2023-08-16T08:02:04Z</time>
      </trkpt>
      <trkpt lat="49.76261" lon="2.21932">
        <ele>142.7</ele>
        <time>2023-08-16T08:02:05Z</time>
      </trkpt>
      <trkpt lat="49.76261" lon="2.21934">
        <ele>142.7</ele>
        <time>2023-08-16T08:02:06Z</time>
      </trkpt>
      <trkpt lat="49.76261" lon="2.21936">
        <ele>142.7</ele>
        <time>2023-08-16T08:02:07Z</time>
      </trkpt>
      <trkpt lat="49.76261" lon="2.21938">
        <ele>142.7</ele>
        <time>2023-08-16T08:02:09Z</time>
      </trkpt>
      <trkpt lat="49.7626" lon="2.21941">
        <ele>142.7</ele>
        <time>2023-08-16T08:02:10Z</time>
      </trkpt>
      <trkpt lat="49.7626" lon="2.21943">
        <ele>142.7</ele>
        <time>2023-08-16T08:02:11Z</time>
      </trkpt>
      <trkpt lat="49.7626" lon="2.21944">
        <ele>142.7</ele>
        <time>2023-08-16T08:02:12Z</time>
      </trkpt>
      <trkpt lat="49.7626" lon="2.21947">
        <ele>142.8</ele>
        <time>2023-08-16T08:02:13Z</time>
      </trkpt>
      <trkpt lat="49.76259" lon="2.21949">
        <ele>142.8</ele>
        <time>2023-08-16T08:02:14Z</time>
      </trkpt>
      <trkpt lat="49.76259" lon="2.2195">
        <ele>142.8</ele>
        <time>2023-08-16T08:02:15Z</time>
      </trkpt>
      <trkpt lat="49.76259" lon="2.21952">
        <ele>142.8</ele>
        <time>2023-08-16T08:02:16Z</time>
      </trkpt>
      <trkpt lat="49.76259" lon="2.21954">
        <ele>142.8</ele>
        <time>2023-08-16T08:02:17Z</time>
      </trkpt>
      <trkpt lat="49.76258" lon="2.21957">
        <ele>142.8</ele>
        <time>2023-08-16T08:02:19Z</time>
      </trkpt>
      <trkpt lat="49.76258" lon="2.21959">
        <ele>142.8</ele>
        <time>2023-08-16T08:02:20Z</time>
      </trkpt>
      <trkpt lat="49.76258" lon="2.2196">
        <ele>142.8</ele>
        <time>2023-08-16T08:02:21Z</time>
      </trkpt>
      <trkpt lat="49.76257" lon="2.21962">
        <ele>142.8</ele>
        <time>2023-08-16T08:02:23Z</time>
      </trkpt>
      <trkpt lat="49.76257" lon="2.21964">
        <ele>142.7</ele>
        <time>2023-08-16T08:02:24Z</time>
      </trkpt>
      <trkpt lat="49.76257" lon="2.21966">
        <ele>142.7</ele>
        <time>2023-08-16T08:02:25Z</time>
      </trkpt>
      <trkpt lat="49.76257" lon="2.21969">
        <ele>142.7</ele>
        <time>2023-08-16T08:02:26Z</time>
      </trkpt>
      <trkpt lat="49.76257" lon="2.21971">
        <ele>142.7</ele>
        <time>2023-08-16T08:02:27Z</time>
      </trkpt>
      <trkpt lat="49.76256" lon="2.21972">
        <ele>142.7</ele>
        <time>2023-08-16T08:02:28Z</time>
      </trkpt>
      <trkpt lat="49.76256" lon="2.21975">
        <ele>142.7</ele>
        <time>2023-08-16T08:02:29Z</time>
      </trkpt>
      <trkpt lat="49.76256" lon="2.21977">
        <ele>142.7</ele>
        <time>2023-08-16T08:02:30Z</time>
      </trkpt>
      <trkpt lat="49.76256" lon="2.21978">
        <ele>142.7</ele>
        <time>2023-08-16T08:02:32Z</time>
      </trkpt>
      <trkpt lat="49.76256" lon="2.2198">
        <ele>142.7</ele>
        <time>2023-08-16T08:02:33Z</time>
      </trkpt>
      <trkpt lat="49.76256" lon="2.21981">
        <ele>142.7</ele>
        <time>2023-08-16T08:02:34Z</time>
      </trkpt>
      <trkpt lat="49.76255" lon="2.21983">
        <ele>142.7</ele>
        <time>2023-08-16T08:02:35Z</time>
      </trkpt>
      <trkpt lat="49.76255" lon="2.21986">
        <ele>142.7</ele>
        <time>2023-08-16T08:02:36Z</time>
      </trkpt>
      <trkpt lat="49.76255" lon="2.21987">
        <ele>142.7</ele>
        <time>2023-08-16T08:02:37Z</time>
      </trkpt>
      <trkpt lat="49.76255" lon="2.21989">
        <ele>142.7</ele>
        <time>2023-08-16T08:02:38Z</time>
      </trkpt>
      <trkpt lat="49.76255" lon="2.2199">
        <ele>142.7</ele>
        <time>2023-08-16T08:02:39Z</time>
      </trkpt>
      <trkpt lat="49.76255" lon="2.21992">
        <ele>142.7</ele>
        <time>2023-08-16T08:02:41Z</time>
      </trkpt>
      <trkpt lat="49.76255" lon="2.21994">
        <ele>142.7</ele>
        <time>2023-08-16T08:02:42Z</time>
      </trkpt>
      <trkpt lat="49.76255" lon="2.21997">
        <ele>142.7</ele>
        <time>2023-08-16T08:02:43Z</time>
      </trkpt>
      <trkpt lat="49.76255" lon="2.21998">
        <ele>142.6</ele>
        <time>2023-08-16T08:02:44Z</time>
      </trkpt>
      <trkpt lat="49.76255" lon="2.22">
        <ele>142.6</ele>
        <time>2023-08-16T08:02:45Z</time>
      </trkpt>
      <trkpt lat="49.76255" lon="2.22001">
        <ele>142.6</ele>
        <time>2023-08-16T08:02:46Z</time>
      </trkpt>
      <trkpt lat="49.76254" lon="2.22003">
        <ele>142.6</ele>
        <time>2023-08-16T08:02:47Z</time>
      </trkpt>
      <trkpt lat="49.76254" lon="2.22004">
        <ele>142.6</ele>
        <time>2023-08-16T08:02:48Z</time>
      </trkpt>
      <trkpt lat="49.76254" lon="2.22006">
        <ele>142.6</ele>
        <time>2023-08-16T08:02:50Z</time>
      </trkpt>
      <trkpt lat="49.76254" lon="2.22009">
        <ele>142.6</ele>
        <time>2023-08-16T08:02:51Z</time>
      </trkpt>
      <trkpt lat="49.76254" lon="2.22012">
        <ele>142.6</ele>
        <time>2023-08-16T08:02:52Z</time>
      </trkpt>
      <trkpt lat="49.76254" lon="2.22013">
        <ele>142.6</ele>
        <time>2023-08-16T08:02:54Z</time>
      </trkpt>
      <trkpt lat="49.76254" lon="2.22014">
        <ele>142.6</ele>
        <time>2023-08-16T08:02:55Z</time>
      </trkpt>
      <trkpt lat="49.76254" lon="2.22018">
        <ele>142.5</ele>
        <time>2023-08-16T08:02:56Z</time>
      </trkpt>
      <trkpt lat="49.76254" lon="2.22019">
        <ele>142.5</ele>
        <time>2023-08-16T08:02:57Z</time>
      </trkpt>
      <trkpt lat="49.76254" lon="2.2202">
        <ele>142.5</ele>
        <time>2023-08-16T08:02:58Z</time>
      </trkpt>
      <trkpt lat="49.76253" lon="2.22023">
        <ele>142.5</ele>
        <time>2023-08-16T08:02:59Z</time>
      </trkpt>
      <trkpt lat="49.76253" lon="2.22025">
        <ele>142.5</ele>
        <time>2023-08-16T08:03:00Z</time>
      </trkpt>
      <trkpt lat="49.76253" lon="2.22028">
        <ele>142.5</ele>
        <time>2023-08-16T08:03:02Z</time>
      </trkpt>
      <trkpt lat="49.76253" lon="2.2203">
        <ele>142.5</ele>
        <time>2023-08-16T08:03:03Z</time>
      </trkpt>
      <trkpt lat="49.76253" lon="2.22032">
        <ele>142.5</ele>
        <time>2023-08-16T08:03:04Z</time>
      </trkpt>
      <trkpt lat="49.76252" lon="2.22034">
        <ele>142.5</ele>
        <time>2023-08-16T08:03:05Z</time>
      </trkpt>
      <trkpt lat="49.76252" lon="2.22036">
        <ele>142.5</ele>
        <time>2023-08-16T08:03:07Z</time>
      </trkpt>
      <trkpt lat="49.76252" lon="2.22039">
        <ele>142.5</ele>
        <time>2023-08-16T08:03:08Z</time>
      </trkpt>
      <trkpt lat="49.76252" lon="2.22041">
        <ele>142.5</ele>
        <time>2023-08-16T08:03:09Z</time>
      </trkpt>
      <trkpt lat="49.76252" lon="2.22043">
        <ele>142.5</ele>
        <time>2023-08-16T08:03:10Z</time>
      </trkpt>
      <trkpt lat="49.76252" lon="2.22045">
        <ele>142.5</ele>
        <time>2023-08-16T08:03:11Z</time>
      </trkpt>
      <trkpt lat="49.76252" lon="2.22049">
        <ele>142.5</ele>
        <time>2023-08-16T08:03:12Z</time>
      </trkpt>
      <trkpt lat="49.76252" lon="2.2205">
        <ele>142.5</ele>
        <time>2023-08-16T08:03:13Z</time>
      </trkpt>
      <trkpt lat="49.76252" lon="2.22051">
        <ele>142.5</ele>
        <time>2023-08-16T08:03:14Z</time>
      </trkpt>
      <trkpt lat="49.76252" lon="2.22053">
        <ele>142.5</ele>
        <time>2023-08-16T08:03:16Z</time>
      </trkpt>
      <trkpt lat="49.76252" lon="2.22056">
        <ele>142.5</ele>
        <time>2023-08-16T08:03:17Z</time>
      </trkpt>
      <trkpt lat="49.76252" lon="2.22058">
        <ele>142.5</ele>
        <time>2023-08-16T08:03:18Z</time>
      </trkpt>
      <trkpt lat="49.76252" lon="2.2206">
        <ele>142.5</ele>
        <time>2023-08-16T08:03:19Z</time>
      </trkpt>
      <trkpt lat="49.76252" lon="2.22062">
        <ele>142.5</ele>
        <time>2023-08-16T08:03:20Z</time>
      </trkpt>
      <trkpt lat="49.76252" lon="2.22063">
        <ele>142.5</ele>
        <time>2023-08-16T08:03:21Z</time>
      </trkpt>
      <trkpt lat="49.76251" lon="2.22065">
        <ele>142.5</ele>
        <time>2023-08-16T08:03:22Z</time>
      </trkpt>
      <trkpt lat="49.76251" lon="2.22068">
        <ele>142.5</ele>
        <time>2023-08-16T08:03:24Z</time>
      </trkpt>
      <trkpt lat="49.76251" lon="2.22069">
        <ele>142.5</ele>
        <time>2023-08-16T08:03:25Z</time>
      </trkpt>
      <trkpt lat="49.76251" lon="2.22071">
        <ele>142.5</ele>
        <time>2023-08-16T08:03:26Z</time>
      </trkpt>
      <trkpt lat="49.76251" lon="2.22072">
        <ele>142.5</ele>
        <time>2023-08-16T08:03:27Z</time>
      </trkpt>
      <trkpt lat="49.76251" lon="2.22074">
        <ele>142.5</ele>
        <time>2023-08-16T08:03:28Z</time>
      </trkpt>
      <trkpt lat="49.76251" lon="2.22076">
        <ele>142.5</ele>
        <time>2023-08-16T08:03:29Z</time>
      </trkpt>
      <trkpt lat="49.76251" lon="2.22079">
        <ele>142.5</ele>
        <time>2023-08-16T08:03:31Z</time>
      </trkpt>
      <trkpt lat="49.76251" lon="2.2208">
        <ele>142.6</ele>
        <time>2023-08-16T08:03:32Z</time>
      </trkpt>
      <trkpt lat="49.76251" lon="2.22081">
        <ele>142.6</ele>
        <time>2023-08-16T08:03:33Z</time>
      </trkpt>
      <trkpt lat="49.76252" lon="2.22085">
        <ele>142.6</ele>
        <time>2023-08-16T08:03:34Z</time>
      </trkpt>
      <trkpt lat="49.76252" lon="2.22086">
        <ele>142.6</ele>
        <time>2023-08-16T08:03:35Z</time>
      </trkpt>
      <trkpt lat="49.76252" lon="2.22087">
        <ele>142.6</ele>
        <time>2023-08-16T08:03:36Z</time>
      </trkpt>
      <trkpt lat="49.76252" lon="2.22089">
        <ele>142.6</ele>
        <time>2023-08-16T08:03:38Z</time>
      </trkpt>
      <trkpt lat="49.76251" lon="2.22091">
        <ele>142.6</ele>
        <time>2023-08-16T08:03:39Z</time>
      </trkpt>
      <trkpt lat="49.7625" lon="2.22093">
        <ele>142.6</ele>
        <time>2023-08-16T08:03:40Z</time>
      </trkpt>
      <trkpt lat="49.7625" lon="2.22095">
        <ele>142.6</ele>
        <time>2023-08-16T08:03:41Z</time>
      </trkpt>
      <trkpt lat="49.76249" lon="2.22097">
        <ele>142.6</ele>
        <time>2023-08-16T08:03:42Z</time>
      </trkpt>
      <trkpt lat="49.76249" lon="2.22099">
        <ele>142.6</ele>
        <time>2023-08-16T08:03:44Z</time>
      </trkpt>
      <trkpt lat="49.76249" lon="2.22101">
        <ele>142.6</ele>
        <time>2023-08-16T08:03:45Z</time>
      </trkpt>
      <trkpt lat="49.76249" lon="2.22104">
        <ele>142.6</ele>
        <time>2023-08-16T08:03:46Z</time>
      </trkpt>
      <trkpt lat="49.76249" lon="2.22106">
        <ele>142.6</ele>
        <time>2023-08-16T08:03:47Z</time>
      </trkpt>
      <trkpt lat="49.76249" lon="2.22108">
        <ele>142.6</ele>
        <time>2023-08-16T08:03:48Z</time>
      </trkpt>
      <trkpt lat="49.76249" lon="2.2211">
        <ele>142.6</ele>
        <time>2023-08-16T08:03:49Z</time>
      </trkpt>
      <trkpt lat="49.76249" lon="2.22111">
        <ele>142.6</ele>
        <time>2023-08-16T08:03:50Z</time>
      </trkpt>
      <trkpt lat="49.76249" lon="2.22113">
        <ele>142.6</ele>
        <time>2023-08-16T08:03:52Z</time>
      </trkpt>
      <trkpt lat="49.76249" lon="2.22115">
        <ele>142.6</ele>
        <time>2023-08-16T08:03:53Z</time>
      </trkpt>
      <trkpt lat="49.76249" lon="2.22117">
        <ele>142.6</ele>
        <time>2023-08-16T08:03:54Z</time>
      </trkpt>
      <trkpt lat="49.76249" lon="2.22119">
        <ele>142.6</ele>
        <time>2023-08-16T08:03:55Z</time>
      </trkpt>
      <trkpt lat="49.76248" lon="2.22121">
        <ele>142.6</ele>
        <time>2023-08-16T08:03:56Z</time>
      </trkpt>
      <trkpt lat="49.76248" lon="2.22123">
        <ele>142.6</ele>
        <time>2023-08-16T08:03:58Z</time>
      </trkpt>
      <trkpt lat="49.76248" lon="2.22124">
        <ele>142.6</ele>
        <time>2023-08-16T08:03:59Z</time>
      </trkpt>
      <trkpt lat="49.76248" lon="2.22127">
        <ele>142.6</ele>
        <time>2023-08-16T08:04:00Z</time>
      </trkpt>
      <trkpt lat="49.76247" lon="2.22129">
        <ele>142.6</ele>
        <time>2023-08-16T08:04:01Z</time>
      </trkpt>
      <trkpt lat="49.76247" lon="2.2213">
        <ele>142.6</ele>
        <time>2023-08-16T08:04:02Z</time>
      </trkpt>
      <trkpt lat="49.76248" lon="2.22132">
        <ele>142.5</ele>
        <time>2023-08-16T08:04:03Z</time>
      </trkpt>
      <trkpt lat="49.76248" lon="2.22134">
        <ele>142.5</ele>
        <time>2023-08-16T08:04:05Z</time>
      </trkpt>
      <trkpt lat="49.76247" lon="2.22135">
        <ele>142.5</ele>
        <time>2023-08-16T08:04:06Z</time>
      </trkpt>
      <trkpt lat="49.76247" lon="2.22137">
        <ele>142.5</ele>
        <time>2023-08-16T08:04:07Z</time>
      </trkpt>
      <trkpt lat="49.76247" lon="2.22139">
        <ele>142.5</ele>
        <time>2023-08-16T08:04:08Z</time>
      </trkpt>
      <trkpt lat="49.76247" lon="2.2214">
        <ele>142.5</ele>
        <time>2023-08-16T08:04:09Z</time>
      </trkpt>
      <trkpt lat="49.76247" lon="2.22142">
        <ele>142.5</ele>
        <time>2023-08-16T08:04:10Z</time>
      </trkpt>
      <trkpt lat="49.76247" lon="2.22144">
        <ele>142.5</ele>
        <time>2023-08-16T08:04:11Z</time>
      </trkpt>
      <trkpt lat="49.76247" lon="2.22145">
        <ele>142.5</ele>
        <time>2023-08-16T08:04:13Z</time>
      </trkpt>
      <trkpt lat="49.76246" lon="2.22147">
        <ele>142.5</ele>
        <time>2023-08-16T08:04:14Z</time>
      </trkpt>
      <trkpt lat="49.76246" lon="2.22149">
        <ele>142.5</ele>
        <time>2023-08-16T08:04:15Z</time>
      </trkpt>
      <trkpt lat="49.76246" lon="2.22151">
        <ele>142.4</ele>
        <time>2023-08-16T08:04:16Z</time>
      </trkpt>
      <trkpt lat="49.76246" lon="2.22152">
        <ele>142.4</ele>
        <time>2023-08-16T08:04:17Z</time>
      </trkpt>
      <trkpt lat="49.76246" lon="2.22154">
        <ele>142.4</ele>
        <time>2023-08-16T08:04:18Z</time>
      </trkpt>
      <trkpt lat="49.76246" lon="2.22156">
        <ele>142.4</ele>
        <time>2023-08-16T08:04:19Z</time>
      </trkpt>
      <trkpt lat="49.76246" lon="2.22158">
        <ele>142.4</ele>
        <time>2023-08-16T08:04:21Z</time>
      </trkpt>
      <trkpt lat="49.76246" lon="2.2216">
        <ele>142.4</ele>
        <time>2023-08-16T08:04:22Z</time>
      </trkpt>
      <trkpt lat="49.76245" lon="2.22163">
        <ele>142.4</ele>
        <time>2023-08-16T08:04:23Z</time>
      </trkpt>
      <trkpt lat="49.76245" lon="2.22165">
        <ele>142.4</ele>
        <time>2023-08-16T08:04:24Z</time>
      </trkpt>
      <trkpt lat="49.76245" lon="2.22166">
        <ele>142.4</ele>
        <time>2023-08-16T08:04:25Z</time>
      </trkpt>
      <trkpt lat="49.76245" lon="2.22169">
        <ele>142.4</ele>
        <time>2023-08-16T08:04:26Z</time>
      </trkpt>
      <trkpt lat="49.76245" lon="2.22171">
        <ele>142.3</ele>
        <time>2023-08-16T08:04:28Z</time>
      </trkpt>
      <trkpt lat="49.76245" lon="2.22172">
        <ele>142.3</ele>
        <time>2023-08-16T08:04:29Z</time>
      </trkpt>
      <trkpt lat="49.76244" lon="2.22175">
        <ele>142.3</ele>
        <time>2023-08-16T08:04:30Z</time>
      </trkpt>
      <trkpt lat="49.76244" lon="2.22177">
        <ele>142.3</ele>
        <time>2023-08-16T08:04:31Z</time>
      </trkpt>
      <trkpt lat="49.76244" lon="2.22179">
        <ele>142.3</ele>
        <time>2023-08-16T08:04:32Z</time>
      </trkpt>
      <trkpt lat="49.76244" lon="2.22181">
        <ele>142.3</ele>
        <time>2023-08-16T08:04:33Z</time>
      </trkpt>
      <trkpt lat="49.76243" lon="2.22184">
        <ele>142.3</ele>
        <time>2023-08-16T08:04:34Z</time>
      </trkpt>
      <trkpt lat="49.76243" lon="2.22186">
        <ele>142.3</ele>
        <time>2023-08-16T08:04:36Z</time>
      </trkpt>
      <trkpt lat="49.76243" lon="2.22188">
        <ele>142.3</ele>
        <time>2023-08-16T08:04:37Z</time>
      </trkpt>
      <trkpt lat="49.76243" lon="2.2219">
        <ele>142.3</ele>
        <time>2023-08-16T08:04:38Z</time>
      </trkpt>
      <trkpt lat="49.76243" lon="2.22191">
        <ele>142.3</ele>
        <time>2023-08-16T08:04:39Z</time>
      </trkpt>
      <trkpt lat="49.76242" lon="2.22193">
        <ele>142.3</ele>
        <time>2023-08-16T08:04:40Z</time>
      </trkpt>
      <trkpt lat="49.76242" lon="2.22195">
        <ele>142.3</ele>
        <time>2023-08-16T08:04:41Z</time>
      </trkpt>
      <trkpt lat="49.76242" lon="2.22197">
        <ele>142.3</ele>
        <time>2023-08-16T08:04:42Z</time>
      </trkpt>
      <trkpt lat="49.76242" lon="2.22199">
        <ele>142.3</ele>
        <time>2023-08-16T08:04:44Z</time>
      </trkpt>
      <trkpt lat="49.76241" lon="2.222">
        <ele>142.3</ele>
        <time>2023-08-16T08:04:45Z</time>
      </trkpt>
      <trkpt lat="49.76241" lon="2.22202">
        <ele>142.3</ele>
        <time>2023-08-16T08:04:46Z</time>
      </trkpt>
      <trkpt lat="49.76241" lon="2.22203">
        <ele>142.3</ele>
        <time>2023-08-16T08:04:47Z</time>
      </trkpt>
      <trkpt lat="49.76241" lon="2.22205">
        <ele>142.3</ele>
        <time>2023-08-16T08:04:48Z</time>
      </trkpt>
      <trkpt lat="49.76241" lon="2.22206">
        <ele>142.3</ele>
        <time>2023-08-16T08:04:49Z</time>
      </trkpt>
      <trkpt lat="49.76241" lon="2.22208">
        <ele>142.3</ele>
        <time>2023-08-16T08:04:51Z</time>
      </trkpt>
      <trkpt lat="49.76241" lon="2.2221">
        <ele>142.3</ele>
        <time>2023-08-16T08:04:52Z</time>
      </trkpt>
      <trkpt lat="49.76241" lon="2.22212">
        <ele>142.3</ele>
        <time>2023-08-16T08:04:53Z</time>
      </trkpt>
      <trkpt lat="49.76241" lon="2.22214">
        <ele>142.3</ele>
        <time>2023-08-16T08:04:54Z</time>
      </trkpt>
      <trkpt lat="49.76241" lon="2.22216">
        <ele>142.3</ele>
        <time>2023-08-16T08:04:55Z</time>
      </trkpt>
      <trkpt lat="49.76241" lon="2.22218">
        <ele>142.3</ele>
        <time>2023-08-16T08:04:56Z</time>
      </trkpt>
      <trkpt lat="49.76241" lon="2.2222">
        <ele>142.3</ele>
        <time>2023-08-16T08:04:57Z</time>
      </trkpt>
      <trkpt lat="49.76241" lon="2.22222">
        <ele>142.3</ele>
        <time>2023-08-16T08:04:59Z</time>
      </trkpt>
      <trkpt lat="49.76241" lon="2.22224">
        <ele>142.3</ele>
        <time>2023-08-16T08:05:00Z</time>
      </trkpt>
      <trkpt lat="49.76241" lon="2.22226">
        <ele>142.3</ele>
        <time>2023-08-16T08:05:01Z</time>
      </trkpt>
      <trkpt lat="49.76241" lon="2.22228">
        <ele>142.3</ele>
        <time>2023-08-16T08:05:02Z</time>
      </trkpt>
      <trkpt lat="49.76241" lon="2.22229">
        <ele>142.3</ele>
        <time>2023-08-16T08:05:03Z</time>
      </trkpt>
      <trkpt lat="49.76241" lon="2.22232">
        <ele>142.3</ele>
        <time>2023-08-16T08:05:04Z</time>
      </trkpt>
      <trkpt lat="49.76241" lon="2.22234">
        <ele>142.3</ele>
        <time>2023-08-16T08:05:06Z</time>
      </trkpt>
      <trkpt lat="49.76241" lon="2.22235">
        <ele>142.3</ele>
        <time>2023-08-16T08:05:07Z</time>
      </trkpt>
      <trkpt lat="49.76241" lon="2.22237">
        <ele>142.3</ele>
        <time>2023-08-16T08:05:08Z</time>
      </trkpt>
      <trkpt lat="49.76241" lon="2.22239">
        <ele>142.3</ele>
        <time>2023-08-16T08:05:09Z</time>
      </trkpt>
      <trkpt lat="49.76241" lon="2.22241">
        <ele>142.3</ele>
        <time>2023-08-16T08:05:10Z</time>
      </trkpt>
      <trkpt lat="49.76241" lon="2.22242">
        <ele>142.3</ele>
        <time>2023-08-16T08:05:11Z</time>
      </trkpt>
      <trkpt lat="49.76241" lon="2.22244">
        <ele>142.3</ele>
        <time>2023-08-16T08:05:12Z</time>
      </trkpt>
      <trkpt lat="49.76241" lon="2.22246">
        <ele>142.3</ele>
        <time>2023-08-16T08:05:14Z</time>
      </trkpt>
      <trkpt lat="49.76241" lon="2.22247">
        <ele>142.2</ele>
        <time>2023-08-16T08:05:15Z</time>
      </trkpt>
      <trkpt lat="49.76241" lon="2.22249">
        <ele>142.2</ele>
        <time>2023-08-16T08:05:16Z</time>
      </trkpt>
      <trkpt lat="49.76241" lon="2.22251">
        <ele>142.2</ele>
        <time>2023-08-16T08:05:17Z</time>
      </trkpt>
      <trkpt lat="49.76241" lon="2.22254">
        <ele>142.2</ele>
        <time>2023-08-16T08:05:18Z</time>
      </trkpt>
      <trkpt lat="49.76241" lon="2.22255">
        <ele>142.2</ele>
        <time>2023-08-16T08:05:19Z</time>
      </trkpt>
      <trkpt lat="49.76241" lon="2.22257">
        <ele>142.2</ele>
        <time>2023-08-16T08:05:20Z</time>
      </trkpt>
      <trkpt lat="49.76241" lon="2.22259">
        <ele>142.2</ele>
        <time>2023-08-16T08:05:22Z</time>
      </trkpt>
      <trkpt lat="49.76241" lon="2.22261">
        <ele>142.2</ele>
        <time>2023-08-16T08:05:23Z</time>
      </trkpt>
      <trkpt lat="49.76241" lon="2.22263">
        <ele>142.2</ele>
        <time>2023-08-16T08:05:24Z</time>
      </trkpt>
      <trkpt lat="49.76241" lon="2.22265">
        <ele>142.1</ele>
        <time>2023-08-16T08:05:25Z</time>
      </trkpt>
      <trkpt lat="49.7624" lon="2.22269">
        <ele>142.1</ele>
        <time>2023-08-16T08:05:26Z</time>
      </trkpt>
      <trkpt lat="49.7624" lon="2.2227">
        <ele>142.1</ele>
        <time>2023-08-16T08:05:27Z</time>
      </trkpt>
      <trkpt lat="49.7624" lon="2.22271">
        <ele>142.1</ele>
        <time>2023-08-16T08:05:28Z</time>
      </trkpt>
      <trkpt lat="49.7624" lon="2.22274">
        <ele>142.1</ele>
        <time>2023-08-16T08:05:29Z</time>
      </trkpt>
      <trkpt lat="49.7624" lon="2.22276">
        <ele>142.1</ele>
        <time>2023-08-16T08:05:31Z</time>
      </trkpt>
      <trkpt lat="49.76239" lon="2.22277">
        <ele>142.1</ele>
        <time>2023-08-16T08:05:32Z</time>
      </trkpt>
      <trkpt lat="49.76239" lon="2.2228">
        <ele>142.1</ele>
        <time>2023-08-16T08:05:33Z</time>
      </trkpt>
      <trkpt lat="49.76239" lon="2.22281">
        <ele>142.1</ele>
        <time>2023-08-16T08:05:34Z</time>
      </trkpt>
      <trkpt lat="49.76239" lon="2.22283">
        <ele>142.1</ele>
        <time>2023-08-16T08:05:35Z</time>
      </trkpt>
      <trkpt lat="49.76239" lon="2.22285">
        <ele>142</ele>
        <time>2023-08-16T08:05:36Z</time>
      </trkpt>
      <trkpt lat="49.76239" lon="2.22286">
        <ele>142</ele>
        <time>2023-08-16T08:05:37Z</time>
      </trkpt>
      <trkpt lat="49.76239" lon="2.22288">
        <ele>142</ele>
        <time>2023-08-16T08:05:39Z</time>
      </trkpt>
      <trkpt lat="49.76238" lon="2.22292">
        <ele>142</ele>
        <time>2023-08-16T08:05:40Z</time>
      </trkpt>
      <trkpt lat="49.76238" lon="2.22293">
        <ele>142</ele>
        <time>2023-08-16T08:05:41Z</time>
      </trkpt>
      <trkpt lat="49.76238" lon="2.22294">
        <ele>142</ele>
        <time>2023-08-16T08:05:42Z</time>
      </trkpt>
      <trkpt lat="49.76238" lon="2.22296">
        <ele>142</ele>
        <time>2023-08-16T08:05:43Z</time>
      </trkpt>
      <trkpt lat="49.76238" lon="2.22298">
        <ele>142</ele>
        <time>2023-08-16T08:05:44Z</time>
      </trkpt>
      <trkpt lat="49.76238" lon="2.223">
        <ele>142</ele>
        <time>2023-08-16T08:05:46Z</time>
      </trkpt>
      <trkpt lat="49.76238" lon="2.22302">
        <ele>141.9</ele>
        <time>2023-08-16T08:05:47Z</time>
      </trkpt>
      <trkpt lat="49.76238" lon="2.22304">
        <ele>141.9</ele>
        <time>2023-08-16T08:05:48Z</time>
      </trkpt>
      <trkpt lat="49.76238" lon="2.22306">
        <ele>141.9</ele>
        <time>2023-08-16T08:05:49Z</time>
      </trkpt>
      <trkpt lat="49.76238" lon="2.22309">
        <ele>141.9</ele>
        <time>2023-08-16T08:05:50Z</time>
      </trkpt>
      <trkpt lat="49.76238" lon="2.2231">
        <ele>141.9</ele>
        <time>2023-08-16T08:05:51Z</time>
      </trkpt>
      <trkpt lat="49.76238" lon="2.22311">
        <ele>141.9</ele>
        <time>2023-08-16T08:05:52Z</time>
      </trkpt>
      <trkpt lat="49.76238" lon="2.22314">
        <ele>141.9</ele>
        <time>2023-08-16T08:05:54Z</time>
      </trkpt>
      <trkpt lat="49.76238" lon="2.22316">
        <ele>141.9</ele>
        <time>2023-08-16T08:05:55Z</time>
      </trkpt>
      <trkpt lat="49.76238" lon="2.22319">
        <ele>141.9</ele>
        <time>2023-08-16T08:05:56Z</time>
      </trkpt>
      <trkpt lat="49.76238" lon="2.2232">
        <ele>141.9</ele>
        <time>2023-08-16T08:05:57Z</time>
      </trkpt>
      <trkpt lat="49.76238" lon="2.22321">
        <ele>141.9</ele>
        <time>2023-08-16T08:05:58Z</time>
      </trkpt>
      <trkpt lat="49.76237" lon="2.22323">
        <ele>141.9</ele>
        <time>2023-08-16T08:05:59Z</time>
      </trkpt>
      <trkpt lat="49.76237" lon="2.22326">
        <ele>141.9</ele>
        <time>2023-08-16T08:06:00Z</time>
      </trkpt>
      <trkpt lat="49.76237" lon="2.22329">
        <ele>141.9</ele>
        <time>2023-08-16T08:06:02Z</time>
      </trkpt>
      <trkpt lat="49.76237" lon="2.22332">
        <ele>141.9</ele>
        <time>2023-08-16T08:06:03Z</time>
      </trkpt>
      <trkpt lat="49.76237" lon="2.22334">
        <ele>141.9</ele>
        <time>2023-08-16T08:06:05Z</time>
      </trkpt>
      <trkpt lat="49.76237" lon="2.22336">
        <ele>141.9</ele>
        <time>2023-08-16T08:06:06Z</time>
      </trkpt>
      <trkpt lat="49.76237" lon="2.22337">
        <ele>141.9</ele>
        <time>2023-08-16T08:06:07Z</time>
      </trkpt>
      <trkpt lat="49.76237" lon="2.22339">
        <ele>141.9</ele>
        <time>2023-08-16T08:06:08Z</time>
      </trkpt>
      <trkpt lat="49.76237" lon="2.22341">
        <ele>141.9</ele>
        <time>2023-08-16T08:06:09Z</time>
      </trkpt>
      <trkpt lat="49.76237" lon="2.22342">
        <ele>141.9</ele>
        <time>2023-08-16T08:06:11Z</time>
      </trkpt>
      <trkpt lat="49.76237" lon="2.22344">
        <ele>141.9</ele>
        <time>2023-08-16T08:06:12Z</time>
      </trkpt>
      <trkpt lat="49.76237" lon="2.22346">
        <ele>141.9</ele>
        <time>2023-08-16T08:06:13Z</time>
      </trkpt>
      <trkpt lat="49.76237" lon="2.22348">
        <ele>141.9</ele>
        <time>2023-08-16T08:06:14Z</time>
      </trkpt>
      <trkpt lat="49.76237" lon="2.22349">
        <ele>141.9</ele>
        <time>2023-08-16T08:06:15Z</time>
      </trkpt>
      <trkpt lat="49.76236" lon="2.22353">
        <ele>141.9</ele>
        <time>2023-08-16T08:06:16Z</time>
      </trkpt>
      <trkpt lat="49.76236" lon="2.22354">
        <ele>141.9</ele>
        <time>2023-08-16T08:06:17Z</time>
      </trkpt>
      <trkpt lat="49.76236" lon="2.22355">
        <ele>141.9</ele>
        <time>2023-08-16T08:06:18Z</time>
      </trkpt>
      <trkpt lat="49.76236" lon="2.22357">
        <ele>141.9</ele>
        <time>2023-08-16T08:06:20Z</time>
      </trkpt>
      <trkpt lat="49.76236" lon="2.2236">
        <ele>141.9</ele>
        <time>2023-08-16T08:06:21Z</time>
      </trkpt>
      <trkpt lat="49.76236" lon="2.22361">
        <ele>141.9</ele>
        <time>2023-08-16T08:06:22Z</time>
      </trkpt>
      <trkpt lat="49.76236" lon="2.22363">
        <ele>141.9</ele>
        <time>2023-08-16T08:06:23Z</time>
      </trkpt>
      <trkpt lat="49.76236" lon="2.22365">
        <ele>141.9</ele>
        <time>2023-08-16T08:06:24Z</time>
      </trkpt>
      <trkpt lat="49.76236" lon="2.22367">
        <ele>141.9</ele>
        <time>2023-08-16T08:06:25Z</time>
      </trkpt>
      <trkpt lat="49.76236" lon="2.22368">
        <ele>141.9</ele>
        <time>2023-08-16T08:06:26Z</time>
      </trkpt>
      <trkpt lat="49.76236" lon="2.22371">
        <ele>141.9</ele>
        <time>2023-08-16T08:06:28Z</time>
      </trkpt>
      <trkpt lat="49.76235" lon="2.22372">
        <ele>141.9</ele>
        <time>2023-08-16T08:06:29Z</time>
      </trkpt>
      <trkpt lat="49.76235" lon="2.22375">
        <ele>141.8</ele>
        <time>2023-08-16T08:06:30Z</time>
      </trkpt>
      <trkpt lat="49.76235" lon="2.22376">
        <ele>141.8</ele>
        <time>2023-08-16T08:06:31Z</time>
      </trkpt>
      <trkpt lat="49.76235" lon="2.22378">
        <ele>141.8</ele>
        <time>2023-08-16T08:06:32Z</time>
      </trkpt>
      <trkpt lat="49.76236" lon="2.22379">
        <ele>141.8</ele>
        <time>2023-08-16T08:06:33Z</time>
      </trkpt>
      <trkpt lat="49.76236" lon="2.22381">
        <ele>141.8</ele>
        <time>2023-08-16T08:06:34Z</time>
      </trkpt>
      <trkpt lat="49.76235" lon="2.22383">
        <ele>141.8</ele>
        <time>2023-08-16T08:06:36Z</time>
      </trkpt>
      <trkpt lat="49.76235" lon="2.22385">
        <ele>141.8</ele>
        <time>2023-08-16T08:06:37Z</time>
      </trkpt>
      <trkpt lat="49.76235" lon="2.22386">
        <ele>141.8</ele>
        <time>2023-08-16T08:06:38Z</time>
      </trkpt>
      <trkpt lat="49.76235" lon="2.22388">
        <ele>141.8</ele>
        <time>2023-08-16T08:06:39Z</time>
      </trkpt>
      <trkpt lat="49.76235" lon="2.22389">
        <ele>141.8</ele>
        <time>2023-08-16T08:06:40Z</time>
      </trkpt>
      <trkpt lat="49.76235" lon="2.22391">
        <ele>141.8</ele>
        <time>2023-08-16T08:06:41Z</time>
      </trkpt>
      <trkpt lat="49.76235" lon="2.22394">
        <ele>141.8</ele>
        <time>2023-08-16T08:06:43Z</time>
      </trkpt>
      <trkpt lat="49.76235" lon="2.22395">
        <ele>141.8</ele>
        <time>2023-08-16T08:06:44Z</time>
      </trkpt>
      <trkpt lat="49.76235" lon="2.22396">
        <ele>141.8</ele>
        <time>2023-08-16T08:06:45Z</time>
      </trkpt>
      <trkpt lat="49.76235" lon="2.22398">
        <ele>141.7</ele>
        <time>2023-08-16T08:06:46Z</time>
      </trkpt>
      <trkpt lat="49.76235" lon="2.22399">
        <ele>141.7</ele>
        <time>2023-08-16T08:06:47Z</time>
      </trkpt>
      <trkpt lat="49.76235" lon="2.22401">
        <ele>141.7</ele>
        <time>2023-08-16T08:06:48Z</time>
      </trkpt>
      <trkpt lat="49.76235" lon="2.22403">
        <ele>141.7</ele>
        <time>2023-08-16T08:06:49Z</time>
      </trkpt>
      <trkpt lat="49.76235" lon="2.22405">
        <ele>141.7</ele>
        <time>2023-08-16T08:06:50Z</time>
      </trkpt>
      <trkpt lat="49.76235" lon="2.22407">
        <ele>141.7</ele>
        <time>2023-08-16T08:06:52Z</time>
      </trkpt>
      <trkpt lat="49.76235" lon="2.2241">
        <ele>141.7</ele>
        <time>2023-08-16T08:06:53Z</time>
      </trkpt>
      <trkpt lat="49.76234" lon="2.22411">
        <ele>141.7</ele>
        <time>2023-08-16T08:06:54Z</time>
      </trkpt>
      <trkpt lat="49.76234" lon="2.22413">
        <ele>141.6</ele>
        <time>2023-08-16T08:06:55Z</time>
      </trkpt>
      <trkpt lat="49.76234" lon="2.22416">
        <ele>141.6</ele>
        <time>2023-08-16T08:06:56Z</time>
      </trkpt>
      <trkpt lat="49.76234" lon="2.22417">
        <ele>141.6</ele>
        <time>2023-08-16T08:06:57Z</time>
      </trkpt>
      <trkpt lat="49.76234" lon="2.22418">
        <ele>141.6</ele>
        <time>2023-08-16T08:06:58Z</time>
      </trkpt>
      <trkpt lat="49.76234" lon="2.22421">
        <ele>141.6</ele>
        <time>2023-08-16T08:07:00Z</time>
      </trkpt>
      <trkpt lat="49.76234" lon="2.22423">
        <ele>141.6</ele>
        <time>2023-08-16T08:07:01Z</time>
      </trkpt>
      <trkpt lat="49.76234" lon="2.22426">
        <ele>141.6</ele>
        <time>2023-08-16T08:07:02Z</time>
      </trkpt>
      <trkpt lat="49.76234" lon="2.22428">
        <ele>141.5</ele>
        <time>2023-08-16T08:07:03Z</time>
      </trkpt>
      <trkpt lat="49.76234" lon="2.22431">
        <ele>141.5</ele>
        <time>2023-08-16T08:07:04Z</time>
      </trkpt>
      <trkpt lat="49.76234" lon="2.22432">
        <ele>141.5</ele>
        <time>2023-08-16T08:07:05Z</time>
      </trkpt>
      <trkpt lat="49.76234" lon="2.22434">
        <ele>141.5</ele>
        <time>2023-08-16T08:07:06Z</time>
      </trkpt>
      <trkpt lat="49.76234" lon="2.22436">
        <ele>141.5</ele>
        <time>2023-08-16T08:07:08Z</time>
      </trkpt>
      <trkpt lat="49.76234" lon="2.22438">
        <ele>141.4</ele>
        <time>2023-08-16T08:07:09Z</time>
      </trkpt>
      <trkpt lat="49.76234" lon="2.22442">
        <ele>141.4</ele>
        <time>2023-08-16T08:07:10Z</time>
      </trkpt>
      <trkpt lat="49.76234" lon="2.22443">
        <ele>141.4</ele>
        <time>2023-08-16T08:07:11Z</time>
      </trkpt>
      <trkpt lat="49.76234" lon="2.22444">
        <ele>141.4</ele>
        <time>2023-08-16T08:07:12Z</time>
      </trkpt>
      <trkpt lat="49.76234" lon="2.22448">
        <ele>141.4</ele>
        <time>2023-08-16T08:07:13Z</time>
      </trkpt>
      <trkpt lat="49.76234" lon="2.2245">
        <ele>141.3</ele>
        <time>2023-08-16T08:07:15Z</time>
      </trkpt>
      <trkpt lat="49.76234" lon="2.22451">
        <ele>141.3</ele>
        <time>2023-08-16T08:07:16Z</time>
      </trkpt>
      <trkpt lat="49.76234" lon="2.22453">
        <ele>141.3</ele>
        <time>2023-08-16T08:07:17Z</time>
      </trkpt>
      <trkpt lat="49.76234" lon="2.22455">
        <ele>141.3</ele>
        <time>2023-08-16T08:07:18Z</time>
      </trkpt>
      <trkpt lat="49.76234" lon="2.22456">
        <ele>141.3</ele>
        <time>2023-08-16T08:07:19Z</time>
      </trkpt>
      <trkpt lat="49.76234" lon="2.22458">
        <ele>141.3</ele>
        <time>2023-08-16T08:07:20Z</time>
      </trkpt>
      <trkpt lat="49.76234" lon="2.2246">
        <ele>141.3</ele>
        <time>2023-08-16T08:07:22Z</time>
      </trkpt>
      <trkpt lat="49.76233" lon="2.22462">
        <ele>141.2</ele>
        <time>2023-08-16T08:07:23Z</time>
      </trkpt>
      <trkpt lat="49.76233" lon="2.22464">
        <ele>141.2</ele>
        <time>2023-08-16T08:07:24Z</time>
      </trkpt>
      <trkpt lat="49.76233" lon="2.22465">
        <ele>141.2</ele>
        <time>2023-08-16T08:07:25Z</time>
      </trkpt>
      <trkpt lat="49.76233" lon="2.22467">
        <ele>141.2</ele>
        <time>2023-08-16T08:07:26Z</time>
      </trkpt>
      <trkpt lat="49.76233" lon="2.22469">
        <ele>141.2</ele>
        <time>2023-08-16T08:07:27Z</time>
      </trkpt>
      <trkpt lat="49.76233" lon="2.2247">
        <ele>141.2</ele>
        <time>2023-08-16T08:07:29Z</time>
      </trkpt>
      <trkpt lat="49.76233" lon="2.22472">
        <ele>141.2</ele>
        <time>2023-08-16T08:07:30Z</time>
      </trkpt>
      <trkpt lat="49.76233" lon="2.22474">
        <ele>141.2</ele>
        <time>2023-08-16T08:07:31Z</time>
      </trkpt>
      <trkpt lat="49.76233" lon="2.22476">
        <ele>141.2</ele>
        <time>2023-08-16T08:07:32Z</time>
      </trkpt>
      <trkpt lat="49.76233" lon="2.22478">
        <ele>141.2</ele>
        <time>2023-08-16T08:07:33Z</time>
      </trkpt>
      <trkpt lat="49.76233" lon="2.22479">
        <ele>141.1</ele>
        <time>2023-08-16T08:07:34Z</time>
      </trkpt>
      <trkpt lat="49.76233" lon="2.22481">
        <ele>141.1</ele>
        <time>2023-08-16T08:07:35Z</time>
      </trkpt>
      <trkpt lat="49.76233" lon="2.22483">
        <ele>141.1</ele>
        <time>2023-08-16T08:07:37Z</time>
      </trkpt>
      <trkpt lat="49.76233" lon="2.22485">
        <ele>141.1</ele>
        <time>2023-08-16T08:07:38Z</time>
      </trkpt>
      <trkpt lat="49.76233" lon="2.22489">
        <ele>141.1</ele>
        <time>2023-08-16T08:07:39Z</time>
      </trkpt>
      <trkpt lat="49.76233" lon="2.2249">
        <ele>141.1</ele>
        <time>2023-08-16T08:07:40Z</time>
      </trkpt>
      <trkpt lat="49.76233" lon="2.22491">
        <ele>141.1</ele>
        <time>2023-08-16T08:07:41Z</time>
      </trkpt>
      <trkpt lat="49.76232" lon="2.22493">
        <ele>141.1</ele>
        <time>2023-08-16T08:07:42Z</time>
      </trkpt>
      <trkpt lat="49.76232" lon="2.22495">
        <ele>141.1</ele>
        <time>2023-08-16T08:07:43Z</time>
      </trkpt>
      <trkpt lat="49.76232" lon="2.22497">
        <ele>141.1</ele>
        <time>2023-08-16T08:07:45Z</time>
      </trkpt>
      <trkpt lat="49.76232" lon="2.225">
        <ele>141.1</ele>
        <time>2023-08-16T08:07:46Z</time>
      </trkpt>
      <trkpt lat="49.76232" lon="2.22502">
        <ele>141.1</ele>
        <time>2023-08-16T08:07:47Z</time>
      </trkpt>
      <trkpt lat="49.76232" lon="2.22503">
        <ele>141.1</ele>
        <time>2023-08-16T08:07:48Z</time>
      </trkpt>
      <trkpt lat="49.76232" lon="2.22505">
        <ele>141.1</ele>
        <time>2023-08-16T08:07:49Z</time>
      </trkpt>
      <trkpt lat="49.76232" lon="2.22507">
        <ele>141.1</ele>
        <time>2023-08-16T08:07:50Z</time>
      </trkpt>
      <trkpt lat="49.76232" lon="2.22509">
        <ele>141</ele>
        <time>2023-08-16T08:07:52Z</time>
      </trkpt>
      <trkpt lat="49.76232" lon="2.22511">
        <ele>141</ele>
        <time>2023-08-16T08:07:53Z</time>
      </trkpt>
      <trkpt lat="49.76232" lon="2.22513">
        <ele>141</ele>
        <time>2023-08-16T08:07:54Z</time>
      </trkpt>
      <trkpt lat="49.76231" lon="2.22515">
        <ele>141</ele>
        <time>2023-08-16T08:07:55Z</time>
      </trkpt>
      <trkpt lat="49.76231" lon="2.22518">
        <ele>141</ele>
        <time>2023-08-16T08:07:56Z</time>
      </trkpt>
      <trkpt lat="49.76231" lon="2.22519">
        <ele>141</ele>
        <time>2023-08-16T08:07:57Z</time>
      </trkpt>
      <trkpt lat="49.76231" lon="2.22521">
        <ele>141</ele>
        <time>2023-08-16T08:07:58Z</time>
      </trkpt>
      <trkpt lat="49.7623" lon="2.22523">
        <ele>141</ele>
        <time>2023-08-16T08:08:00Z</time>
      </trkpt>
      <trkpt lat="49.7623" lon="2.22525">
        <ele>141</ele>
        <time>2023-08-16T08:08:01Z</time>
      </trkpt>
      <trkpt lat="49.7623" lon="2.22529">
        <ele>141</ele>
        <time>2023-08-16T08:08:02Z</time>
      </trkpt>
      <trkpt lat="49.7623" lon="2.2253">
        <ele>140.9</ele>
        <time>2023-08-16T08:08:03Z</time>
      </trkpt>
      <trkpt lat="49.7623" lon="2.22531">
        <ele>140.9</ele>
        <time>2023-08-16T08:08:04Z</time>
      </trkpt>
      <trkpt lat="49.7623" lon="2.22534">
        <ele>140.9</ele>
        <time>2023-08-16T08:08:05Z</time>
      </trkpt>
      <trkpt lat="49.7623" lon="2.22535">
        <ele>140.9</ele>
        <time>2023-08-16T08:08:07Z</time>
      </trkpt>
      <trkpt lat="49.7623" lon="2.22537">
        <ele>140.9</ele>
        <time>2023-08-16T08:08:08Z</time>
      </trkpt>
      <trkpt lat="49.7623" lon="2.22539">
        <ele>140.9</ele>
        <time>2023-08-16T08:08:09Z</time>
      </trkpt>
      <trkpt lat="49.7623" lon="2.2254">
        <ele>140.9</ele>
        <time>2023-08-16T08:08:10Z</time>
      </trkpt>
      <trkpt lat="49.76229" lon="2.22541">
        <ele>140.9</ele>
        <time>2023-08-16T08:08:11Z</time>
      </trkpt>
      <trkpt lat="49.76229" lon="2.2254">
        <ele>140.9</ele>
        <time>2023-08-16T08:08:12Z</time>
      </trkpt>
      <trkpt lat="49.76228" lon="2.22539">
        <ele>140.9</ele>
        <time>2023-08-16T08:08:13Z</time>
      </trkpt>
      <trkpt lat="49.76227" lon="2.22538">
        <ele>140.9</ele>
        <time>2023-08-16T08:08:15Z</time>
      </trkpt>
      <trkpt lat="49.76226" lon="2.22538">
        <ele>140.9</ele>
        <time>2023-08-16T08:08:16Z</time>
      </trkpt>
      <trkpt lat="49.76226" lon="2.22538">
        <ele>140.9</ele>
        <time>2023-08-16T08:08:17Z</time>
      </trkpt>
      <trkpt lat="49.76225" lon="2.22538">
        <ele>140.8</ele>
        <time>2023-08-16T08:08:19Z</time>
      </trkpt>
      <trkpt lat="49.76225" lon="2.22538">
        <ele>140.8</ele>
        <time>2023-08-16T08:08:20Z</time>
      </trkpt>
      <trkpt lat="49.76225" lon="2.22538">
        <ele>140.8</ele>
        <time>2023-08-16T08:08:22Z</time>
      </trkpt>
      <trkpt lat="49.76226" lon="2.22537">
        <ele>140.8</ele>
        <time>2023-08-16T08:08:23Z</time>
      </trkpt>
      <trkpt lat="49.76226" lon="2.22537">
        <ele>140.8</ele>
        <time>2023-08-16T08:08:25Z</time>
      </trkpt>
      <trkpt lat="49.76226" lon="2.22537">
        <ele>140.8</ele>
        <time>2023-08-16T08:08:26Z</time>
      </trkpt>
      <trkpt lat="49.76226" lon="2.22537">
        <ele>140.8</ele>
        <time>2023-08-16T08:08:28Z</time>
      </trkpt>
      <trkpt lat="49.76226" lon="2.22537">
        <ele>140.8</ele>
        <time>2023-08-16T08:08:29Z</time>
      </trkpt>
      <trkpt lat="49.76226" lon="2.22536">
        <ele>140.8</ele>
        <time>2023-08-16T08:08:31Z</time>
      </trkpt>
      <trkpt lat="49.76226" lon="2.22536">
        <ele>140.8</ele>
        <time>2023-08-16T08:08:32Z</time>
      </trkpt>
      <trkpt lat="49.76226" lon="2.22536">
        <ele>140.8</ele>
        <time>2023-08-16T08:08:33Z</time>
      </trkpt>
      <trkpt lat="49.76226" lon="2.22536">
        <ele>140.8</ele>
        <time>2023-08-16T08:08:34Z</time>
      </trkpt>
      <trkpt lat="49.76226" lon="2.22536">
        <ele>140.8</ele>
        <time>2023-08-16T08:08:35Z</time>
      </trkpt>
      <trkpt lat="49.76226" lon="2.22536">
        <ele>140.8</ele>
        <time>2023-08-16T08:08:36Z</time>
      </trkpt>
      <trkpt lat="49.76226" lon="2.22536">
        <ele>140.8</ele>
        <time>2023-08-16T08:08:37Z</time>
      </trkpt>
      <trkpt lat="49.76226" lon="2.22536">
        <ele>140.8</ele>
        <time>2023-08-16T08:08:38Z</time>
      </trkpt>
      <trkpt lat="49.76228" lon="2.22535">
        <ele>140.8</ele>
        <time>2023-08-16T08:08:39Z</time>
      </trkpt>
      <trkpt lat="49.76229" lon="2.22535">
        <ele>140.8</ele>
        <time>2023-08-16T08:08:40Z</time>
      </trkpt>
      <trkpt lat="49.76231" lon="2.22535">
        <ele>140.8</ele>
        <time>2023-08-16T08:08:41Z</time>
      </trkpt>
      <trkpt lat="49.76229" lon="2.22537">
        <ele>140.8</ele>
        <time>2023-08-16T08:08:42Z</time>
      </trkpt>
      <trkpt lat="49.7623" lon="2.22538">
        <ele>140.8</ele>
        <time>2023-08-16T08:08:43Z</time>
      </trkpt>
      <trkpt lat="49.76231" lon="2.22539">
        <ele>140.7</ele>
        <time>2023-08-16T08:08:44Z</time>
      </trkpt>
      <trkpt lat="49.76232" lon="2.22541">
        <ele>140.7</ele>
        <time>2023-08-16T08:08:46Z</time>
      </trkpt>
      <trkpt lat="49.76233" lon="2.22544">
        <ele>140.7</ele>
        <time>2023-08-16T08:08:47Z</time>
      </trkpt>
      <trkpt lat="49.76233" lon="2.22545">
        <ele>140.7</ele>
        <time>2023-08-16T08:08:48Z</time>
      </trkpt>
      <trkpt lat="49.76233" lon="2.22546">
        <ele>140.7</ele>
        <time>2023-08-16T08:08:49Z</time>
      </trkpt>
      <trkpt lat="49.76233" lon="2.22549">
        <ele>140.7</ele>
        <time>2023-08-16T08:08:50Z</time>
      </trkpt>
      <trkpt lat="49.76233" lon="2.22551">
        <ele>140.6</ele>
        <time>2023-08-16T08:08:51Z</time>
      </trkpt>
      <trkpt lat="49.76232" lon="2.22552">
        <ele>140.6</ele>
        <time>2023-08-16T08:08:52Z</time>
      </trkpt>
      <trkpt lat="49.76231" lon="2.22554">
        <ele>140.6</ele>
        <time>2023-08-16T08:08:54Z</time>
      </trkpt>
      <trkpt lat="49.76231" lon="2.22556">
        <ele>140.6</ele>
        <time>2023-08-16T08:08:55Z</time>
      </trkpt>
      <trkpt lat="49.7623" lon="2.22558">
        <ele>140.6</ele>
        <time>2023-08-16T08:08:56Z</time>
      </trkpt>
      <trkpt lat="49.7623" lon="2.2256">
        <ele>140.6</ele>
        <time>2023-08-16T08:08:57Z</time>
      </trkpt>
      <trkpt lat="49.7623" lon="2.22562">
        <ele>140.5</ele>
        <time>2023-08-16T08:08:58Z</time>
      </trkpt>
      <trkpt lat="49.7623" lon="2.22564">
        <ele>140.5</ele>
        <time>2023-08-16T08:08:59Z</time>
      </trkpt>
      <trkpt lat="49.76229" lon="2.22566">
        <ele>140.5</ele>
        <time>2023-08-16T08:09:01Z</time>
      </trkpt>
      <trkpt lat="49.76229" lon="2.22571">
        <ele>140.5</ele>
        <time>2023-08-16T08:09:02Z</time>
      </trkpt>
      <trkpt lat="49.76228" lon="2.22573">
        <ele>140.5</ele>
        <time>2023-08-16T08:09:04Z</time>
      </trkpt>
      <trkpt lat="49.76228" lon="2.22575">
        <ele>140.5</ele>
        <time>2023-08-16T08:09:05Z</time>
      </trkpt>
      <trkpt lat="49.76228" lon="2.22577">
        <ele>140.5</ele>
        <time>2023-08-16T08:09:06Z</time>
      </trkpt>
      <trkpt lat="49.76228" lon="2.22582">
        <ele>140.4</ele>
        <time>2023-08-16T08:09:07Z</time>
      </trkpt>
      <trkpt lat="49.76227" lon="2.22583">
        <ele>140.4</ele>
        <time>2023-08-16T08:09:08Z</time>
      </trkpt>
      <trkpt lat="49.76227" lon="2.22586">
        <ele>140.4</ele>
        <time>2023-08-16T08:09:09Z</time>
      </trkpt>
      <trkpt lat="49.76227" lon="2.22589">
        <ele>140.4</ele>
        <time>2023-08-16T08:09:10Z</time>
      </trkpt>
      <trkpt lat="49.76227" lon="2.22591">
        <ele>140.4</ele>
        <time>2023-08-16T08:09:12Z</time>
      </trkpt>
      <trkpt lat="49.76226" lon="2.22594">
        <ele>140.4</ele>
        <time>2023-08-16T08:09:13Z</time>
      </trkpt>
      <trkpt lat="49.76226" lon="2.22596">
        <ele>140.4</ele>
        <time>2023-08-16T08:09:14Z</time>
      </trkpt>
      <trkpt lat="49.76226" lon="2.22598">
        <ele>140.4</ele>
        <time>2023-08-16T08:09:15Z</time>
      </trkpt>
      <trkpt lat="49.76226" lon="2.22602">
        <ele>140.4</ele>
        <time>2023-08-16T08:09:16Z</time>
      </trkpt>
      <trkpt lat="49.76226" lon="2.22603">
        <ele>140.4</ele>
        <time>2023-08-16T08:09:17Z</time>
      </trkpt>
      <trkpt lat="49.76226" lon="2.22604">
        <ele>140.4</ele>
        <time>2023-08-16T08:09:18Z</time>
      </trkpt>
      <trkpt lat="49.76226" lon="2.22608">
        <ele>140.4</ele>
        <time>2023-08-16T08:09:19Z</time>
      </trkpt>
      <trkpt lat="49.76226" lon="2.22609">
        <ele>140.4</ele>
        <time>2023-08-16T08:09:21Z</time>
      </trkpt>
      <trkpt lat="49.76226" lon="2.2261">
        <ele>140.4</ele>
        <time>2023-08-16T08:09:22Z</time>
      </trkpt>
      <trkpt lat="49.76226" lon="2.22613">
        <ele>140.4</ele>
        <time>2023-08-16T08:09:23Z</time>
      </trkpt>
      <trkpt lat="49.76226" lon="2.22614">
        <ele>140.4</ele>
        <time>2023-08-16T08:09:24Z</time>
      </trkpt>
      <trkpt lat="49.76226" lon="2.22616">
        <ele>140.4</ele>
        <time>2023-08-16T08:09:25Z</time>
      </trkpt>
      <trkpt lat="49.76225" lon="2.22617">
        <ele>140.4</ele>
        <time>2023-08-16T08:09:26Z</time>
      </trkpt>
      <trkpt lat="49.76225" lon="2.22619">
        <ele>140.4</ele>
        <time>2023-08-16T08:09:27Z</time>
      </trkpt>
      <trkpt lat="49.76225" lon="2.2262">
        <ele>140.4</ele>
        <time>2023-08-16T08:09:28Z</time>
      </trkpt>
      <trkpt lat="49.76224" lon="2.22622">
        <ele>140.4</ele>
        <time>2023-08-16T08:09:29Z</time>
      </trkpt>
      <trkpt lat="49.76224" lon="2.22624">
        <ele>140.4</ele>
        <time>2023-08-16T08:09:31Z</time>
      </trkpt>
      <trkpt lat="49.76224" lon="2.22626">
        <ele>140.4</ele>
        <time>2023-08-16T08:09:32Z</time>
      </trkpt>
      <trkpt lat="49.76224" lon="2.22627">
        <ele>140.4</ele>
        <time>2023-08-16T08:09:33Z</time>
      </trkpt>
      <trkpt lat="49.76224" lon="2.22629">
        <ele>140.4</ele>
        <time>2023-08-16T08:09:34Z</time>
      </trkpt>
      <trkpt lat="49.76224" lon="2.2263">
        <ele>140.4</ele>
        <time>2023-08-16T08:09:35Z</time>
      </trkpt>
      <trkpt lat="49.76224" lon="2.22632">
        <ele>140.4</ele>
        <time>2023-08-16T08:09:36Z</time>
      </trkpt>
      <trkpt lat="49.76223" lon="2.22634">
        <ele>140.4</ele>
        <time>2023-08-16T08:09:37Z</time>
      </trkpt>
      <trkpt lat="49.76223" lon="2.22636">
        <ele>140.4</ele>
        <time>2023-08-16T08:09:38Z</time>
      </trkpt>
      <trkpt lat="49.76223" lon="2.22638">
        <ele>140.4</ele>
        <time>2023-08-16T08:09:40Z</time>
      </trkpt>
      <trkpt lat="49.76223" lon="2.2264">
        <ele>140.4</ele>
        <time>2023-08-16T08:09:41Z</time>
      </trkpt>
      <trkpt lat="49.76223" lon="2.22642">
        <ele>140.4</ele>
        <time>2023-08-16T08:09:42Z</time>
      </trkpt>
      <trkpt lat="49.76223" lon="2.22644">
        <ele>140.4</ele>
        <time>2023-08-16T08:09:43Z</time>
      </trkpt>
      <trkpt lat="49.76223" lon="2.22646">
        <ele>140.4</ele>
        <time>2023-08-16T08:09:44Z</time>
      </trkpt>
      <trkpt lat="49.76223" lon="2.22648">
        <ele>140.4</ele>
        <time>2023-08-16T08:09:45Z</time>
      </trkpt>
      <trkpt lat="49.76223" lon="2.2265">
        <ele>140.4</ele>
        <time>2023-08-16T08:09:46Z</time>
      </trkpt>
      <trkpt lat="49.76223" lon="2.22652">
        <ele>140.4</ele>
        <time>2023-08-16T08:09:47Z</time>
      </trkpt>
      <trkpt lat="49.76223" lon="2.22655">
        <ele>140.4</ele>
        <time>2023-08-16T08:09:49Z</time>
      </trkpt>
      <trkpt lat="49.76223" lon="2.22657">
        <ele>140.4</ele>
        <time>2023-08-16T08:09:50Z</time>
      </trkpt>
      <trkpt lat="49.76223" lon="2.22659">
        <ele>140.4</ele>
        <time>2023-08-16T08:09:51Z</time>
      </trkpt>
      <trkpt lat="49.76223" lon="2.22661">
        <ele>140.4</ele>
        <time>2023-08-16T08:09:52Z</time>
      </trkpt>
      <trkpt lat="49.76223" lon="2.22663">
        <ele>140.4</ele>
        <time>2023-08-16T08:09:53Z</time>
      </trkpt>
      <trkpt lat="49.76223" lon="2.22665">
        <ele>140.4</ele>
        <time>2023-08-16T08:09:54Z</time>
      </trkpt>
      <trkpt lat="49.76223" lon="2.22668">
        <ele>140.4</ele>
        <time>2023-08-16T08:09:55Z</time>
      </trkpt>
      <trkpt lat="49.76223" lon="2.2267">
        <ele>140.4</ele>
        <time>2023-08-16T08:09:57Z</time>
      </trkpt>
      <trkpt lat="49.76223" lon="2.22671">
        <ele>140.4</ele>
        <time>2023-08-16T08:09:58Z</time>
      </trkpt>
      <trkpt lat="49.76223" lon="2.22673">
        <ele>140.4</ele>
        <time>2023-08-16T08:09:59Z</time>
      </trkpt>
      <trkpt lat="49.76223" lon="2.22675">
        <ele>140.4</ele>
        <time>2023-08-16T08:10:00Z</time>
      </trkpt>
      <trkpt lat="49.76223" lon="2.22676">
        <ele>140.4</ele>
        <time>2023-08-16T08:10:01Z</time>
      </trkpt>
      <trkpt lat="49.76223" lon="2.2268">
        <ele>140.4</ele>
        <time>2023-08-16T08:10:03Z</time>
      </trkpt>
      <trkpt lat="49.76223" lon="2.22681">
        <ele>140.4</ele>
        <time>2023-08-16T08:10:04Z</time>
      </trkpt>
      <trkpt lat="49.76223" lon="2.22682">
        <ele>140.4</ele>
        <time>2023-08-16T08:10:05Z</time>
      </trkpt>
      <trkpt lat="49.76223" lon="2.22684">
        <ele>140.4</ele>
        <time>2023-08-16T08:10:06Z</time>
      </trkpt>
      <trkpt lat="49.76222" lon="2.22686">
        <ele>140.4</ele>
        <time>2023-08-16T08:10:07Z</time>
      </trkpt>
      <trkpt lat="49.76222" lon="2.22687">
        <ele>140.4</ele>
        <time>2023-08-16T08:10:09Z</time>
      </trkpt>
      <trkpt lat="49.76222" lon="2.2269">
        <ele>140.5</ele>
        <time>2023-08-16T08:10:10Z</time>
      </trkpt>
      <trkpt lat="49.76222" lon="2.22692">
        <ele>140.5</ele>
        <time>2023-08-16T08:10:11Z</time>
      </trkpt>
      <trkpt lat="49.76222" lon="2.22695">
        <ele>140.5</ele>
        <time>2023-08-16T08:10:13Z</time>
      </trkpt>
      <trkpt lat="49.76222" lon="2.22696">
        <ele>140.5</ele>
        <time>2023-08-16T08:10:14Z</time>
      </trkpt>
      <trkpt lat="49.76222" lon="2.22697">
        <ele>140.5</ele>
        <time>2023-08-16T08:10:15Z</time>
      </trkpt>
      <trkpt lat="49.76222" lon="2.22701">
        <ele>140.5</ele>
        <time>2023-08-16T08:10:16Z</time>
      </trkpt>
      <trkpt lat="49.76222" lon="2.22702">
        <ele>140.5</ele>
        <time>2023-08-16T08:10:17Z</time>
      </trkpt>
      <trkpt lat="49.76222" lon="2.22703">
        <ele>140.5</ele>
        <time>2023-08-16T08:10:18Z</time>
      </trkpt>
      <trkpt lat="49.76222" lon="2.22706">
        <ele>140.5</ele>
        <time>2023-08-16T08:10:19Z</time>
      </trkpt>
      <trkpt lat="49.76222" lon="2.22708">
        <ele>140.5</ele>
        <time>2023-08-16T08:10:21Z</time>
      </trkpt>
      <trkpt lat="49.76222" lon="2.22709">
        <ele>140.5</ele>
        <time>2023-08-16T08:10:22Z</time>
      </trkpt>
      <trkpt lat="49.76222" lon="2.22713">
        <ele>140.5</ele>
        <time>2023-08-16T08:10:23Z</time>
      </trkpt>
      <trkpt lat="49.76222" lon="2.22714">
        <ele>140.5</ele>
        <time>2023-08-16T08:10:24Z</time>
      </trkpt>
      <trkpt lat="49.76222" lon="2.22715">
        <ele>140.5</ele>
        <time>2023-08-16T08:10:25Z</time>
      </trkpt>
      <trkpt lat="49.76222" lon="2.22719">
        <ele>140.5</ele>
        <time>2023-08-16T08:10:26Z</time>
      </trkpt>
      <trkpt lat="49.76222" lon="2.2272">
        <ele>140.5</ele>
        <time>2023-08-16T08:10:27Z</time>
      </trkpt>
      <trkpt lat="49.76222" lon="2.22721">
        <ele>140.5</ele>
        <time>2023-08-16T08:10:28Z</time>
      </trkpt>
      <trkpt lat="49.76222" lon="2.22724">
        <ele>140.5</ele>
        <time>2023-08-16T08:10:30Z</time>
      </trkpt>
      <trkpt lat="49.76222" lon="2.22726">
        <ele>140.5</ele>
        <time>2023-08-16T08:10:31Z</time>
      </trkpt>
      <trkpt lat="49.76222" lon="2.22729">
        <ele>140.5</ele>
        <time>2023-08-16T08:10:32Z</time>
      </trkpt>
      <trkpt lat="49.76222" lon="2.22731">
        <ele>140.5</ele>
        <time>2023-08-16T08:10:33Z</time>
      </trkpt>
      <trkpt lat="49.76222" lon="2.22732">
        <ele>140.5</ele>
        <time>2023-08-16T08:10:34Z</time>
      </trkpt>
      <trkpt lat="49.76222" lon="2.22734">
        <ele>140.5</ele>
        <time>2023-08-16T08:10:35Z</time>
      </trkpt>
      <trkpt lat="49.76222" lon="2.22736">
        <ele>140.5</ele>
        <time>2023-08-16T08:10:37Z</time>
      </trkpt>
      <trkpt lat="49.76222" lon="2.22738">
        <ele>140.5</ele>
        <time>2023-08-16T08:10:38Z</time>
      </trkpt>
      <trkpt lat="49.76222" lon="2.22741">
        <ele>140.5</ele>
        <time>2023-08-16T08:10:39Z</time>
      </trkpt>
      <trkpt lat="49.76222" lon="2.22744">
        <ele>140.5</ele>
        <time>2023-08-16T08:10:40Z</time>
      </trkpt>
      <trkpt lat="49.76222" lon="2.22745">
        <ele>140.5</ele>
        <time>2023-08-16T08:10:41Z</time>
      </trkpt>
      <trkpt lat="49.76222" lon="2.22746">
        <ele>140.5</ele>
        <time>2023-08-16T08:10:42Z</time>
      </trkpt>
      <trkpt lat="49.76222" lon="2.2275">
        <ele>140.5</ele>
        <time>2023-08-16T08:10:43Z</time>
      </trkpt>
      <trkpt lat="49.76222" lon="2.22751">
        <ele>140.5</ele>
        <time>2023-08-16T08:10:45Z</time>
      </trkpt>
      <trkpt lat="49.76221" lon="2.22752">
        <ele>140.5</ele>
        <time>2023-08-16T08:10:46Z</time>
      </trkpt>
      <trkpt lat="49.76221" lon="2.22754">
        <ele>140.5</ele>
        <time>2023-08-16T08:10:47Z</time>
      </trkpt>
      <trkpt lat="49.76221" lon="2.22755">
        <ele>140.5</ele>
        <time>2023-08-16T08:10:48Z</time>
      </trkpt>
      <trkpt lat="49.76221" lon="2.22757">
        <ele>140.4</ele>
        <time>2023-08-16T08:10:49Z</time>
      </trkpt>
      <trkpt lat="49.76221" lon="2.22759">
        <ele>140.4</ele>
        <time>2023-08-16T08:10:50Z</time>
      </trkpt>
      <trkpt lat="49.7622" lon="2.2276">
        <ele>140.4</ele>
        <time>2023-08-16T08:10:51Z</time>
      </trkpt>
      <trkpt lat="49.7622" lon="2.22762">
        <ele>140.4</ele>
        <time>2023-08-16T08:10:53Z</time>
      </trkpt>
      <trkpt lat="49.7622" lon="2.22764">
        <ele>140.4</ele>
        <time>2023-08-16T08:10:54Z</time>
      </trkpt>
      <trkpt lat="49.7622" lon="2.22766">
        <ele>140.4</ele>
        <time>2023-08-16T08:10:55Z</time>
      </trkpt>
      <trkpt lat="49.7622" lon="2.22767">
        <ele>140.4</ele>
        <time>2023-08-16T08:10:56Z</time>
      </trkpt>
      <trkpt lat="49.76219" lon="2.22769">
        <ele>140.4</ele>
        <time>2023-08-16T08:10:57Z</time>
      </trkpt>
      <trkpt lat="49.76219" lon="2.2277">
        <ele>140.4</ele>
        <time>2023-08-16T08:10:58Z</time>
      </trkpt>
      <trkpt lat="49.76219" lon="2.22772">
        <ele>140.4</ele>
        <time>2023-08-16T08:10:59Z</time>
      </trkpt>
      <trkpt lat="49.76218" lon="2.22775">
        <ele>140.4</ele>
        <time>2023-08-16T08:11:01Z</time>
      </trkpt>
      <trkpt lat="49.76218" lon="2.22777">
        <ele>140.4</ele>
        <time>2023-08-16T08:11:02Z</time>
      </trkpt>
      <trkpt lat="49.76218" lon="2.22778">
        <ele>140.4</ele>
        <time>2023-08-16T08:11:03Z</time>
      </trkpt>
      <trkpt lat="49.76218" lon="2.22779">
        <ele>140.4</ele>
        <time>2023-08-16T08:11:04Z</time>
      </trkpt>
      <trkpt lat="49.76218" lon="2.22781">
        <ele>140.4</ele>
        <time>2023-08-16T08:11:05Z</time>
      </trkpt>
      <trkpt lat="49.76218" lon="2.22783">
        <ele>140.4</ele>
        <time>2023-08-16T08:11:06Z</time>
      </trkpt>
      <trkpt lat="49.76218" lon="2.22785">
        <ele>140.4</ele>
        <time>2023-08-16T08:11:08Z</time>
      </trkpt>
      <trkpt lat="49.76217" lon="2.22787">
        <ele>140.4</ele>
        <time>2023-08-16T08:11:09Z</time>
      </trkpt>
      <trkpt lat="49.76217" lon="2.2279">
        <ele>140.4</ele>
        <time>2023-08-16T08:11:10Z</time>
      </trkpt>
      <trkpt lat="49.76217" lon="2.22792">
        <ele>140.4</ele>
        <time>2023-08-16T08:11:11Z</time>
      </trkpt>
      <trkpt lat="49.76217" lon="2.22793">
        <ele>140.4</ele>
        <time>2023-08-16T08:11:12Z</time>
      </trkpt>
      <trkpt lat="49.76217" lon="2.22795">
        <ele>140.4</ele>
        <time>2023-08-16T08:11:13Z</time>
      </trkpt>
      <trkpt lat="49.76217" lon="2.22797">
        <ele>140.4</ele>
        <time>2023-08-16T08:11:15Z</time>
      </trkpt>
      <trkpt lat="49.76217" lon="2.22799">
        <ele>140.4</ele>
        <time>2023-08-16T08:11:16Z</time>
      </trkpt>
      <trkpt lat="49.76217" lon="2.22802">
        <ele>140.5</ele>
        <time>2023-08-16T08:11:17Z</time>
      </trkpt>
      <trkpt lat="49.76217" lon="2.22805">
        <ele>140.5</ele>
        <time>2023-08-16T08:11:18Z</time>
      </trkpt>
      <trkpt lat="49.76217" lon="2.22806">
        <ele>140.5</ele>
        <time>2023-08-16T08:11:19Z</time>
      </trkpt>
      <trkpt lat="49.76218" lon="2.22807">
        <ele>140.5</ele>
        <time>2023-08-16T08:11:20Z</time>
      </trkpt>
      <trkpt lat="49.76218" lon="2.22811">
        <ele>140.5</ele>
        <time>2023-08-16T08:11:22Z</time>
      </trkpt>
      <trkpt lat="49.76218" lon="2.22812">
        <ele>140.5</ele>
        <time>2023-08-16T08:11:23Z</time>
      </trkpt>
      <trkpt lat="49.76218" lon="2.22813">
        <ele>140.5</ele>
        <time>2023-08-16T08:11:24Z</time>
      </trkpt>
      <trkpt lat="49.76218" lon="2.22816">
        <ele>140.5</ele>
        <time>2023-08-16T08:11:25Z</time>
      </trkpt>
      <trkpt lat="49.76218" lon="2.22817">
        <ele>140.5</ele>
        <time>2023-08-16T08:11:26Z</time>
      </trkpt>
      <trkpt lat="49.76218" lon="2.22819">
        <ele>140.5</ele>
        <time>2023-08-16T08:11:27Z</time>
      </trkpt>
      <trkpt lat="49.76218" lon="2.22821">
        <ele>140.6</ele>
        <time>2023-08-16T08:11:29Z</time>
      </trkpt>
      <trkpt lat="49.76217" lon="2.22823">
        <ele>140.6</ele>
        <time>2023-08-16T08:11:30Z</time>
      </trkpt>
      <trkpt lat="49.76217" lon="2.22825">
        <ele>140.6</ele>
        <time>2023-08-16T08:11:31Z</time>
      </trkpt>
      <trkpt lat="49.76217" lon="2.22827">
        <ele>140.6</ele>
        <time>2023-08-16T08:11:32Z</time>
      </trkpt>
      <trkpt lat="49.76217" lon="2.22829">
        <ele>140.6</ele>
        <time>2023-08-16T08:11:33Z</time>
      </trkpt>
      <trkpt lat="49.76218" lon="2.22831">
        <ele>140.6</ele>
        <time>2023-08-16T08:11:35Z</time>
      </trkpt>
      <trkpt lat="49.76218" lon="2.22833">
        <ele>140.7</ele>
        <time>2023-08-16T08:11:36Z</time>
      </trkpt>
      <trkpt lat="49.76217" lon="2.22836">
        <ele>140.7</ele>
        <time>2023-08-16T08:11:37Z</time>
      </trkpt>
      <trkpt lat="49.76217" lon="2.22837">
        <ele>140.7</ele>
        <time>2023-08-16T08:11:38Z</time>
      </trkpt>
      <trkpt lat="49.76217" lon="2.22838">
        <ele>140.7</ele>
        <time>2023-08-16T08:11:39Z</time>
      </trkpt>
      <trkpt lat="49.76217" lon="2.2284">
        <ele>140.7</ele>
        <time>2023-08-16T08:11:40Z</time>
      </trkpt>
      <trkpt lat="49.76217" lon="2.22842">
        <ele>140.7</ele>
        <time>2023-08-16T08:11:41Z</time>
      </trkpt>
      <trkpt lat="49.76217" lon="2.22844">
        <ele>140.8</ele>
        <time>2023-08-16T08:11:43Z</time>
      </trkpt>
      <trkpt lat="49.76217" lon="2.22845">
        <ele>140.8</ele>
        <time>2023-08-16T08:11:44Z</time>
      </trkpt>
      <trkpt lat="49.76217" lon="2.22847">
        <ele>140.8</ele>
        <time>2023-08-16T08:11:45Z</time>
      </trkpt>
      <trkpt lat="49.76217" lon="2.22849">
        <ele>140.8</ele>
        <time>2023-08-16T08:11:46Z</time>
      </trkpt>
      <trkpt lat="49.76216" lon="2.22851">
        <ele>140.8</ele>
        <time>2023-08-16T08:11:47Z</time>
      </trkpt>
      <trkpt lat="49.76216" lon="2.22853">
        <ele>140.8</ele>
        <time>2023-08-16T08:11:48Z</time>
      </trkpt>
      <trkpt lat="49.76216" lon="2.22855">
        <ele>140.9</ele>
        <time>2023-08-16T08:11:50Z</time>
      </trkpt>
      <trkpt lat="49.76216" lon="2.22858">
        <ele>140.9</ele>
        <time>2023-08-16T08:11:51Z</time>
      </trkpt>
      <trkpt lat="49.76215" lon="2.22859">
        <ele>140.9</ele>
        <time>2023-08-16T08:11:52Z</time>
      </trkpt>
      <trkpt lat="49.76215" lon="2.22861">
        <ele>140.9</ele>
        <time>2023-08-16T08:11:53Z</time>
      </trkpt>
      <trkpt lat="49.76215" lon="2.22864">
        <ele>140.9</ele>
        <time>2023-08-16T08:11:54Z</time>
      </trkpt>
      <trkpt lat="49.76215" lon="2.22865">
        <ele>140.9</ele>
        <time>2023-08-16T08:11:56Z</time>
      </trkpt>
      <trkpt lat="49.76215" lon="2.22866">
        <ele>141</ele>
        <time>2023-08-16T08:11:57Z</time>
      </trkpt>
      <trkpt lat="49.76214" lon="2.2287">
        <ele>141</ele>
        <time>2023-08-16T08:11:58Z</time>
      </trkpt>
      <trkpt lat="49.76214" lon="2.22871">
        <ele>141</ele>
        <time>2023-08-16T08:11:59Z</time>
      </trkpt>
      <trkpt lat="49.76214" lon="2.22872">
        <ele>141</ele>
        <time>2023-08-16T08:12:00Z</time>
      </trkpt>
      <trkpt lat="49.76214" lon="2.22874">
        <ele>141</ele>
        <time>2023-08-16T08:12:01Z</time>
      </trkpt>
      <trkpt lat="49.76213" lon="2.22876">
        <ele>141</ele>
        <time>2023-08-16T08:12:03Z</time>
      </trkpt>
      <trkpt lat="49.76213" lon="2.22877">
        <ele>141.1</ele>
        <time>2023-08-16T08:12:04Z</time>
      </trkpt>
      <trkpt lat="49.76213" lon="2.22879">
        <ele>141.1</ele>
        <time>2023-08-16T08:12:05Z</time>
      </trkpt>
      <trkpt lat="49.76214" lon="2.2288">
        <ele>141.1</ele>
        <time>2023-08-16T08:12:06Z</time>
      </trkpt>
      <trkpt lat="49.76214" lon="2.22882">
        <ele>141.1</ele>
        <time>2023-08-16T08:12:07Z</time>
      </trkpt>
      <trkpt lat="49.76214" lon="2.22885">
        <ele>141.1</ele>
        <time>2023-08-16T08:12:08Z</time>
      </trkpt>
      <trkpt lat="49.76214" lon="2.22886">
        <ele>141.1</ele>
        <time>2023-08-16T08:12:10Z</time>
      </trkpt>
      <trkpt lat="49.76214" lon="2.22888">
        <ele>141.1</ele>
        <time>2023-08-16T08:12:11Z</time>
      </trkpt>
      <trkpt lat="49.76214" lon="2.2289">
        <ele>141.2</ele>
        <time>2023-08-16T08:12:12Z</time>
      </trkpt>
      <trkpt lat="49.76214" lon="2.22891">
        <ele>141.2</ele>
        <time>2023-08-16T08:12:13Z</time>
      </trkpt>
      <trkpt lat="49.76214" lon="2.22893">
        <ele>141.2</ele>
        <time>2023-08-16T08:12:14Z</time>
      </trkpt>
      <trkpt lat="49.76214" lon="2.22895">
        <ele>141.2</ele>
        <time>2023-08-16T08:12:16Z</time>
      </trkpt>
      <trkpt lat="49.76214" lon="2.22897">
        <ele>141.2</ele>
        <time>2023-08-16T08:12:17Z</time>
      </trkpt>
      <trkpt lat="49.76214" lon="2.22899">
        <ele>141.2</ele>
        <time>2023-08-16T08:12:18Z</time>
      </trkpt>
      <trkpt lat="49.76214" lon="2.229">
        <ele>141.2</ele>
        <time>2023-08-16T08:12:19Z</time>
      </trkpt>
      <trkpt lat="49.76214" lon="2.22902">
        <ele>141.3</ele>
        <time>2023-08-16T08:12:20Z</time>
      </trkpt>
      <trkpt lat="49.76214" lon="2.22904">
        <ele>141.3</ele>
        <time>2023-08-16T08:12:21Z</time>
      </trkpt>
      <trkpt lat="49.76214" lon="2.22905">
        <ele>141.3</ele>
        <time>2023-08-16T08:12:22Z</time>
      </trkpt>
      <trkpt lat="49.76213" lon="2.22908">
        <ele>141.3</ele>
        <time>2023-08-16T08:12:24Z</time>
      </trkpt>
      <trkpt lat="49.76213" lon="2.22909">
        <ele>141.3</ele>
        <time>2023-08-16T08:12:25Z</time>
      </trkpt>
      <trkpt lat="49.76213" lon="2.22911">
        <ele>141.3</ele>
        <time>2023-08-16T08:12:26Z</time>
      </trkpt>
      <trkpt lat="49.76213" lon="2.22913">
        <ele>141.3</ele>
        <time>2023-08-16T08:12:28Z</time>
      </trkpt>
      <trkpt lat="49.76213" lon="2.22915">
        <ele>141.4</ele>
        <time>2023-08-16T08:12:29Z</time>
      </trkpt>
      <trkpt lat="49.76213" lon="2.22917">
        <ele>141.4</ele>
        <time>2023-08-16T08:12:30Z</time>
      </trkpt>
      <trkpt lat="49.76213" lon="2.22918">
        <ele>141.4</ele>
        <time>2023-08-16T08:12:31Z</time>
      </trkpt>
      <trkpt lat="49.76213" lon="2.2292">
        <ele>141.4</ele>
        <time>2023-08-16T08:12:32Z</time>
      </trkpt>
      <trkpt lat="49.76213" lon="2.22923">
        <ele>141.4</ele>
        <time>2023-08-16T08:12:34Z</time>
      </trkpt>
      <trkpt lat="49.76213" lon="2.22924">
        <ele>141.4</ele>
        <time>2023-08-16T08:12:35Z</time>
      </trkpt>
      <trkpt lat="49.76213" lon="2.22925">
        <ele>141.4</ele>
        <time>2023-08-16T08:12:36Z</time>
      </trkpt>
      <trkpt lat="49.76213" lon="2.22927">
        <ele>141.4</ele>
        <time>2023-08-16T08:12:37Z</time>
      </trkpt>
      <trkpt lat="49.76213" lon="2.22929">
        <ele>141.4</ele>
        <time>2023-08-16T08:12:38Z</time>
      </trkpt>
      <trkpt lat="49.76213" lon="2.2293">
        <ele>141.5</ele>
        <time>2023-08-16T08:12:39Z</time>
      </trkpt>
      <trkpt lat="49.76212" lon="2.22934">
        <ele>141.5</ele>
        <time>2023-08-16T08:12:41Z</time>
      </trkpt>
      <trkpt lat="49.76212" lon="2.22935">
        <ele>141.5</ele>
        <time>2023-08-16T08:12:42Z</time>
      </trkpt>
      <trkpt lat="49.76212" lon="2.22936">
        <ele>141.5</ele>
        <time>2023-08-16T08:12:43Z</time>
      </trkpt>
      <trkpt lat="49.76212" lon="2.22938">
        <ele>141.5</ele>
        <time>2023-08-16T08:12:44Z</time>
      </trkpt>
      <trkpt lat="49.76212" lon="2.22939">
        <ele>141.5</ele>
        <time>2023-08-16T08:12:45Z</time>
      </trkpt>
      <trkpt lat="49.76212" lon="2.22941">
        <ele>141.5</ele>
        <time>2023-08-16T08:12:46Z</time>
      </trkpt>
      <trkpt lat="49.76212" lon="2.22943">
        <ele>141.5</ele>
        <time>2023-08-16T08:12:48Z</time>
      </trkpt>
      <trkpt lat="49.76212" lon="2.22945">
        <ele>141.5</ele>
        <time>2023-08-16T08:12:49Z</time>
      </trkpt>
      <trkpt lat="49.76212" lon="2.22949">
        <ele>141.5</ele>
        <time>2023-08-16T08:12:50Z</time>
      </trkpt>
      <trkpt lat="49.76212" lon="2.2295">
        <ele>141.5</ele>
        <time>2023-08-16T08:12:51Z</time>
      </trkpt>
      <trkpt lat="49.76212" lon="2.22951">
        <ele>141.5</ele>
        <time>2023-08-16T08:12:52Z</time>
      </trkpt>
      <trkpt lat="49.76212" lon="2.22953">
        <ele>141.5</ele>
        <time>2023-08-16T08:12:53Z</time>
      </trkpt>
      <trkpt lat="49.76212" lon="2.22955">
        <ele>141.5</ele>
        <time>2023-08-16T08:12:54Z</time>
      </trkpt>
      <trkpt lat="49.76212" lon="2.22958">
        <ele>141.5</ele>
        <time>2023-08-16T08:12:56Z</time>
      </trkpt>
      <trkpt lat="49.76212" lon="2.22961">
        <ele>141.5</ele>
        <time>2023-08-16T08:12:57Z</time>
      </trkpt>
      <trkpt lat="49.76212" lon="2.22963">
        <ele>141.5</ele>
        <time>2023-08-16T08:12:59Z</time>
      </trkpt>
      <trkpt lat="49.76212" lon="2.22964">
        <ele>141.5</ele>
        <time>2023-08-16T08:13:00Z</time>
      </trkpt>
      <trkpt lat="49.76212" lon="2.22967">
        <ele>141.5</ele>
        <time>2023-08-16T08:13:01Z</time>
      </trkpt>
      <trkpt lat="49.76212" lon="2.22969">
        <ele>141.5</ele>
        <time>2023-08-16T08:13:02Z</time>
      </trkpt>
      <trkpt lat="49.76211" lon="2.2297">
        <ele>141.5</ele>
        <time>2023-08-16T08:13:03Z</time>
      </trkpt>
      <trkpt lat="49.76211" lon="2.22973">
        <ele>141.5</ele>
        <time>2023-08-16T08:13:04Z</time>
      </trkpt>
      <trkpt lat="49.76211" lon="2.22974">
        <ele>141.5</ele>
        <time>2023-08-16T08:13:06Z</time>
      </trkpt>
      <trkpt lat="49.76211" lon="2.22976">
        <ele>141.5</ele>
        <time>2023-08-16T08:13:07Z</time>
      </trkpt>
      <trkpt lat="49.76211" lon="2.22978">
        <ele>141.5</ele>
        <time>2023-08-16T08:13:08Z</time>
      </trkpt>
      <trkpt lat="49.7621" lon="2.22979">
        <ele>141.5</ele>
        <time>2023-08-16T08:13:09Z</time>
      </trkpt>
      <trkpt lat="49.7621" lon="2.22981">
        <ele>141.5</ele>
        <time>2023-08-16T08:13:10Z</time>
      </trkpt>
      <trkpt lat="49.7621" lon="2.22983">
        <ele>141.5</ele>
        <time>2023-08-16T08:13:12Z</time>
      </trkpt>
      <trkpt lat="49.7621" lon="2.22984">
        <ele>141.5</ele>
        <time>2023-08-16T08:13:13Z</time>
      </trkpt>
      <trkpt lat="49.7621" lon="2.22986">
        <ele>141.5</ele>
        <time>2023-08-16T08:13:14Z</time>
      </trkpt>
      <trkpt lat="49.7621" lon="2.22987">
        <ele>141.5</ele>
        <time>2023-08-16T08:13:15Z</time>
      </trkpt>
      <trkpt lat="49.7621" lon="2.22989">
        <ele>141.5</ele>
        <time>2023-08-16T08:13:16Z</time>
      </trkpt>
      <trkpt lat="49.7621" lon="2.22991">
        <ele>141.5</ele>
        <time>2023-08-16T08:13:17Z</time>
      </trkpt>
      <trkpt lat="49.7621" lon="2.22993">
        <ele>141.6</ele>
        <time>2023-08-16T08:13:18Z</time>
      </trkpt>
      <trkpt lat="49.7621" lon="2.22994">
        <ele>141.6</ele>
        <time>2023-08-16T08:13:20Z</time>
      </trkpt>
      <trkpt lat="49.7621" lon="2.22997">
        <ele>141.6</ele>
        <time>2023-08-16T08:13:21Z</time>
      </trkpt>
      <trkpt lat="49.7621" lon="2.23">
        <ele>141.6</ele>
        <time>2023-08-16T08:13:22Z</time>
      </trkpt>
      <trkpt lat="49.7621" lon="2.23001">
        <ele>141.6</ele>
        <time>2023-08-16T08:13:23Z</time>
      </trkpt>
      <trkpt lat="49.7621" lon="2.23002">
        <ele>141.6</ele>
        <time>2023-08-16T08:13:24Z</time>
      </trkpt>
      <trkpt lat="49.7621" lon="2.23005">
        <ele>141.6</ele>
        <time>2023-08-16T08:13:25Z</time>
      </trkpt>
      <trkpt lat="49.7621" lon="2.23007">
        <ele>141.6</ele>
        <time>2023-08-16T08:13:27Z</time>
      </trkpt>
      <trkpt lat="49.7621" lon="2.23008">
        <ele>141.6</ele>
        <time>2023-08-16T08:13:28Z</time>
      </trkpt>
      <trkpt lat="49.76209" lon="2.2301">
        <ele>141.6</ele>
        <time>2023-08-16T08:13:29Z</time>
      </trkpt>
      <trkpt lat="49.76209" lon="2.23012">
        <ele>141.6</ele>
        <time>2023-08-16T08:13:30Z</time>
      </trkpt>
      <trkpt lat="49.76209" lon="2.23015">
        <ele>141.6</ele>
        <time>2023-08-16T08:13:32Z</time>
      </trkpt>
      <trkpt lat="49.76209" lon="2.23017">
        <ele>141.6</ele>
        <time>2023-08-16T08:13:33Z</time>
      </trkpt>
      <trkpt lat="49.76209" lon="2.23019">
        <ele>141.6</ele>
        <time>2023-08-16T08:13:34Z</time>
      </trkpt>
      <trkpt lat="49.76208" lon="2.2302">
        <ele>141.6</ele>
        <time>2023-08-16T08:13:35Z</time>
      </trkpt>
      <trkpt lat="49.76208" lon="2.23022">
        <ele>141.6</ele>
        <time>2023-08-16T08:13:36Z</time>
      </trkpt>
      <trkpt lat="49.76208" lon="2.23023">
        <ele>141.7</ele>
        <time>2023-08-16T08:13:37Z</time>
      </trkpt>
      <trkpt lat="49.76208" lon="2.23025">
        <ele>141.7</ele>
        <time>2023-08-16T08:13:39Z</time>
      </trkpt>
      <trkpt lat="49.76208" lon="2.23027">
        <ele>141.7</ele>
        <time>2023-08-16T08:13:40Z</time>
      </trkpt>
      <trkpt lat="49.76208" lon="2.23029">
        <ele>141.7</ele>
        <time>2023-08-16T08:13:42Z</time>
      </trkpt>
      <trkpt lat="49.76207" lon="2.23031">
        <ele>141.7</ele>
        <time>2023-08-16T08:13:43Z</time>
      </trkpt>
      <trkpt lat="49.76207" lon="2.23032">
        <ele>141.7</ele>
        <time>2023-08-16T08:13:44Z</time>
      </trkpt>
      <trkpt lat="49.76207" lon="2.23034">
        <ele>141.7</ele>
        <time>2023-08-16T08:13:45Z</time>
      </trkpt>
      <trkpt lat="49.76207" lon="2.23035">
        <ele>141.7</ele>
        <time>2023-08-16T08:13:46Z</time>
      </trkpt>
      <trkpt lat="49.76207" lon="2.23036">
        <ele>141.7</ele>
        <time>2023-08-16T08:13:47Z</time>
      </trkpt>
      <trkpt lat="49.76207" lon="2.23037">
        <ele>141.7</ele>
        <time>2023-08-16T08:13:48Z</time>
      </trkpt>
      <trkpt lat="49.76207" lon="2.23039">
        <ele>141.7</ele>
        <time>2023-08-16T08:13:50Z</time>
      </trkpt>
      <trkpt lat="49.76207" lon="2.23041">
        <ele>141.7</ele>
        <time>2023-08-16T08:13:51Z</time>
      </trkpt>
      <trkpt lat="49.76207" lon="2.23043">
        <ele>141.7</ele>
        <time>2023-08-16T08:13:52Z</time>
      </trkpt>
      <trkpt lat="49.76207" lon="2.23045">
        <ele>141.7</ele>
        <time>2023-08-16T08:13:53Z</time>
      </trkpt>
      <trkpt lat="49.76207" lon="2.23046">
        <ele>141.7</ele>
        <time>2023-08-16T08:13:54Z</time>
      </trkpt>
      <trkpt lat="49.76207" lon="2.23048">
        <ele>141.7</ele>
        <time>2023-08-16T08:13:55Z</time>
      </trkpt>
      <trkpt lat="49.76207" lon="2.23051">
        <ele>141.7</ele>
        <time>2023-08-16T08:13:57Z</time>
      </trkpt>
      <trkpt lat="49.76207" lon="2.23053">
        <ele>141.7</ele>
        <time>2023-08-16T08:13:58Z</time>
      </trkpt>
      <trkpt lat="49.76207" lon="2.23055">
        <ele>141.7</ele>
        <time>2023-08-16T08:14:00Z</time>
      </trkpt>
      <trkpt lat="49.76207" lon="2.23057">
        <ele>141.7</ele>
        <time>2023-08-16T08:14:01Z</time>
      </trkpt>
      <trkpt lat="49.76207" lon="2.2306">
        <ele>141.7</ele>
        <time>2023-08-16T08:14:02Z</time>
      </trkpt>
      <trkpt lat="49.76207" lon="2.23062">
        <ele>141.7</ele>
        <time>2023-08-16T08:14:04Z</time>
      </trkpt>
      <trkpt lat="49.76207" lon="2.23063">
        <ele>141.7</ele>
        <time>2023-08-16T08:14:05Z</time>
      </trkpt>
      <trkpt lat="49.76206" lon="2.23064">
        <ele>141.7</ele>
        <time>2023-08-16T08:14:06Z</time>
      </trkpt>
      <trkpt lat="49.76206" lon="2.23066">
        <ele>141.7</ele>
        <time>2023-08-16T08:14:08Z</time>
      </trkpt>
      <trkpt lat="49.76205" lon="2.23067">
        <ele>141.7</ele>
        <time>2023-08-16T08:14:09Z</time>
      </trkpt>
      <trkpt lat="49.76205" lon="2.23068">
        <ele>141.7</ele>
        <time>2023-08-16T08:14:10Z</time>
      </trkpt>
      <trkpt lat="49.76204" lon="2.23069">
        <ele>141.7</ele>
        <time>2023-08-16T08:14:12Z</time>
      </trkpt>
      <trkpt lat="49.76204" lon="2.23069">
        <ele>141.7</ele>
        <time>2023-08-16T08:14:13Z</time>
      </trkpt>
      <trkpt lat="49.76203" lon="2.2307">
        <ele>141.7</ele>
        <time>2023-08-16T08:14:15Z</time>
      </trkpt>
      <trkpt lat="49.76203" lon="2.2307">
        <ele>141.7</ele>
        <time>2023-08-16T08:14:16Z</time>
      </trkpt>
      <trkpt lat="49.76203" lon="2.2307">
        <ele>141.7</ele>
        <time>2023-08-16T08:14:17Z</time>
      </trkpt>
      <trkpt lat="49.76203" lon="2.2307">
        <ele>141.7</ele>
        <time>2023-08-16T08:14:18Z</time>
      </trkpt>
      <trkpt lat="49.76203" lon="2.2307">
        <ele>141.7</ele>
        <time>2023-08-16T08:14:20Z</time>
      </trkpt>
      <trkpt lat="49.76203" lon="2.2307">
        <ele>141.7</ele>
        <time>2023-08-16T08:14:21Z</time>
      </trkpt>
      <trkpt lat="49.76203" lon="2.2307">
        <ele>141.7</ele>
        <time>2023-08-16T08:14:23Z</time>
      </trkpt>
      <trkpt lat="49.76202" lon="2.23072">
        <ele>141.7</ele>
        <time>2023-08-16T08:14:24Z</time>
      </trkpt>
      <trkpt lat="49.76201" lon="2.23073">
        <ele>141.7</ele>
        <time>2023-08-16T08:14:25Z</time>
      </trkpt>
      <trkpt lat="49.762" lon="2.23074">
        <ele>141.7</ele>
        <time>2023-08-16T08:14:27Z</time>
      </trkpt>
      <trkpt lat="49.762" lon="2.23073">
        <ele>141.7</ele>
        <time>2023-08-16T08:14:28Z</time>
      </trkpt>
      <trkpt lat="49.762" lon="2.23073">
        <ele>141.7</ele>
        <time>2023-08-16T08:14:29Z</time>
      </trkpt>
      <trkpt lat="49.762" lon="2.23072">
        <ele>141.7</ele>
        <time>2023-08-16T08:14:31Z</time>
      </trkpt>
      <trkpt lat="49.76199" lon="2.23072">
        <ele>141.7</ele>
        <time>2023-08-16T08:14:32Z</time>
      </trkpt>
      <trkpt lat="49.76199" lon="2.23072">
        <ele>141.7</ele>
        <time>2023-08-16T08:14:33Z</time>
      </trkpt>
      <trkpt lat="49.76199" lon="2.23072">
        <ele>141.7</ele>
        <time>2023-08-16T08:14:35Z</time>
      </trkpt>
      <trkpt lat="49.76199" lon="2.23073">
        <ele>141.7</ele>
        <time>2023-08-16T08:14:36Z</time>
      </trkpt>
      <trkpt lat="49.76198" lon="2.23073">
        <ele>141.7</ele>
        <time>2023-08-16T08:14:37Z</time>
      </trkpt>
      <trkpt lat="49.76198" lon="2.23073">
        <ele>141.7</ele>
        <time>2023-08-16T08:14:39Z</time>
      </trkpt>
      <trkpt lat="49.76198" lon="2.23073">
        <ele>141.7</ele>
        <time>2023-08-16T08:14:40Z</time>
      </trkpt>
      <trkpt lat="49.76197" lon="2.23073">
        <ele>141.7</ele>
        <time>2023-08-16T08:14:42Z</time>
      </trkpt>
      <trkpt lat="49.76197" lon="2.23073">
        <ele>141.7</ele>
        <time>2023-08-16T08:14:43Z</time>
      </trkpt>
      <trkpt lat="49.76198" lon="2.23072">
        <ele>141.7</ele>
        <time>2023-08-16T08:14:45Z</time>
      </trkpt>
      <trkpt lat="49.76198" lon="2.23072">
        <ele>141.7</ele>
        <time>2023-08-16T08:14:46Z</time>
      </trkpt>
      <trkpt lat="49.76198" lon="2.23072">
        <ele>141.7</ele>
        <time>2023-08-16T08:14:48Z</time>
      </trkpt>
      <trkpt lat="49.76198" lon="2.23072">
        <ele>141.7</ele>
        <time>2023-08-16T08:14:49Z</time>
      </trkpt>
      <trkpt lat="49.76198" lon="2.23072">
        <ele>141.7</ele>
        <time>2023-08-16T08:14:50Z</time>
      </trkpt>
      <trkpt lat="49.76198" lon="2.23072">
        <ele>141.7</ele>
        <time>2023-08-16T08:14:52Z</time>
      </trkpt>
      <trkpt lat="49.76198" lon="2.23072">
        <ele>141.7</ele>
        <time>2023-08-16T08:14:53Z</time>
      </trkpt>
      <trkpt lat="49.76198" lon="2.23072">
        <ele>141.7</ele>
        <time>2023-08-16T08:14:54Z</time>
      </trkpt>
      <trkpt lat="49.76199" lon="2.23071">
        <ele>141.7</ele>
        <time>2023-08-16T08:14:55Z</time>
      </trkpt>
      <trkpt lat="49.76199" lon="2.23071">
        <ele>141.7</ele>
        <time>2023-08-16T08:14:56Z</time>
      </trkpt>
      <trkpt lat="49.76199" lon="2.23071">
        <ele>141.7</ele>
        <time>2023-08-16T08:14:57Z</time>
      </trkpt>
      <trkpt lat="49.76199" lon="2.23071">
        <ele>141.7</ele>
        <time>2023-08-16T08:14:58Z</time>
      </trkpt>
      <trkpt lat="49.76199" lon="2.23071">
        <ele>141.7</ele>
        <time>2023-08-16T08:14:59Z</time>
      </trkpt>
      <trkpt lat="49.76199" lon="2.23071">
        <ele>141.7</ele>
        <time>2023-08-16T08:15:00Z</time>
      </trkpt>
      <trkpt lat="49.76199" lon="2.23071">
        <ele>141.7</ele>
        <time>2023-08-16T08:15:01Z</time>
      </trkpt>
      <trkpt lat="49.76199" lon="2.23071">
        <ele>141.7</ele>
        <time>2023-08-16T08:15:02Z</time>
      </trkpt>
      <trkpt lat="49.76199" lon="2.23071">
        <ele>141.7</ele>
        <time>2023-08-16T08:15:03Z</time>
      </trkpt>
      <trkpt lat="49.76199" lon="2.23071">
        <ele>141.7</ele>
        <time>2023-08-16T08:15:04Z</time>
      </trkpt>
      <trkpt lat="49.76199" lon="2.23071">
        <ele>141.7</ele>
        <time>2023-08-16T08:15:05Z</time>
      </trkpt>
      <trkpt lat="49.762" lon="2.23069">
        <ele>141.7</ele>
        <time>2023-08-16T08:15:06Z</time>
      </trkpt>
      <trkpt lat="49.76202" lon="2.23067">
        <ele>141.7</ele>
        <time>2023-08-16T08:15:07Z</time>
      </trkpt>
      <trkpt lat="49.76199" lon="2.2307">
        <ele>141.7</ele>
        <time>2023-08-16T08:15:09Z</time>
      </trkpt>
      <trkpt lat="49.76199" lon="2.23069">
        <ele>141.7</ele>
        <time>2023-08-16T08:15:10Z</time>
      </trkpt>
      <trkpt lat="49.762" lon="2.23068">
        <ele>141.7</ele>
        <time>2023-08-16T08:15:11Z</time>
      </trkpt>
      <trkpt lat="49.76201" lon="2.23066">
        <ele>141.6</ele>
        <time>2023-08-16T08:15:12Z</time>
      </trkpt>
      <trkpt lat="49.76202" lon="2.23065">
        <ele>141.6</ele>
        <time>2023-08-16T08:15:13Z</time>
      </trkpt>
      <trkpt lat="49.76202" lon="2.23064">
        <ele>141.6</ele>
        <time>2023-08-16T08:15:14Z</time>
      </trkpt>
      <trkpt lat="49.76203" lon="2.23064">
        <ele>141.6</ele>
        <time>2023-08-16T08:15:16Z</time>
      </trkpt>
      <trkpt lat="49.76203" lon="2.23064">
        <ele>141.6</ele>
        <time>2023-08-16T08:15:17Z</time>
      </trkpt>
      <trkpt lat="49.76203" lon="2.23064">
        <ele>141.6</ele>
        <time>2023-08-16T08:15:18Z</time>
      </trkpt>
      <trkpt lat="49.76203" lon="2.23064">
        <ele>141.6</ele>
        <time>2023-08-16T08:15:20Z</time>
      </trkpt>
      <trkpt lat="49.76203" lon="2.23064">
        <ele>141.6</ele>
        <time>2023-08-16T08:15:21Z</time>
      </trkpt>
      <trkpt lat="49.76203" lon="2.23064">
        <ele>141.6</ele>
        <time>2023-08-16T08:15:23Z</time>
      </trkpt>
      <trkpt lat="49.76203" lon="2.23064">
        <ele>141.6</ele>
        <time>2023-08-16T08:15:24Z</time>
      </trkpt>
      <trkpt lat="49.76203" lon="2.23064">
        <ele>141.6</ele>
        <time>2023-08-16T08:15:26Z</time>
      </trkpt>
      <trkpt lat="49.76203" lon="2.23064">
        <ele>141.6</ele>
        <time>2023-08-16T08:15:27Z</time>
      </trkpt>
      <trkpt lat="49.76203" lon="2.23064">
        <ele>141.6</ele>
        <time>2023-08-16T08:15:28Z</time>
      </trkpt>
      <trkpt lat="49.76203" lon="2.23064">
        <ele>141.6</ele>
        <time>2023-08-16T08:15:30Z</time>
      </trkpt>
      <trkpt lat="49.76203" lon="2.23064">
        <ele>141.6</ele>
        <time>2023-08-16T08:15:31Z</time>
      </trkpt>
      <trkpt lat="49.76203" lon="2.23064">
        <ele>141.6</ele>
        <time>2023-08-16T08:15:32Z</time>
      </trkpt>
      <trkpt lat="49.76203" lon="2.23064">
        <ele>141.6</ele>
        <time>2023-08-16T08:15:33Z</time>
      </trkpt>
      <trkpt lat="49.76203" lon="2.23064">
        <ele>141.6</ele>
        <time>2023-08-16T08:15:34Z</time>
      </trkpt>
      <trkpt lat="49.76203" lon="2.23064">
        <ele>141.6</ele>
        <time>2023-08-16T08:15:35Z</time>
      </trkpt>
      <trkpt lat="49.76203" lon="2.23064">
        <ele>141.6</ele>
        <time>2023-08-16T08:15:36Z</time>
      </trkpt>
      <trkpt lat="49.76203" lon="2.23064">
        <ele>141.6</ele>
        <time>2023-08-16T08:15:37Z</time>
      </trkpt>
      <trkpt lat="49.76203" lon="2.23064">
        <ele>141.6</ele>
        <time>2023-08-16T08:15:38Z</time>
      </trkpt>
      <trkpt lat="49.76204" lon="2.23064">
        <ele>141.6</ele>
        <time>2023-08-16T08:15:39Z</time>
      </trkpt>
      <trkpt lat="49.76204" lon="2.23064">
        <ele>141.6</ele>
        <time>2023-08-16T08:15:40Z</time>
      </trkpt>
      <trkpt lat="49.76204" lon="2.23064">
        <ele>141.6</ele>
        <time>2023-08-16T08:15:41Z</time>
      </trkpt>
      <trkpt lat="49.76204" lon="2.23064">
        <ele>141.6</ele>
        <time>2023-08-16T08:15:42Z</time>
      </trkpt>
      <trkpt lat="49.76204" lon="2.23064">
        <ele>141.6</ele>
        <time>2023-08-16T08:15:43Z</time>
      </trkpt>
      <trkpt lat="49.76204" lon="2.23064">
        <ele>141.6</ele>
        <time>2023-08-16T08:15:44Z</time>
      </trkpt>
      <trkpt lat="49.76204" lon="2.23064">
        <ele>141.6</ele>
        <time>2023-08-16T08:15:45Z</time>
      </trkpt>
      <trkpt lat="49.76204" lon="2.23064">
        <ele>141.6</ele>
        <time>2023-08-16T08:15:46Z</time>
      </trkpt>
      <trkpt lat="49.76204" lon="2.23064">
        <ele>141.6</ele>
        <time>2023-08-16T08:15:47Z</time>
      </trkpt>
      <trkpt lat="49.76204" lon="2.23064">
        <ele>141.6</ele>
        <time>2023-08-16T08:15:48Z</time>
      </trkpt>
      <trkpt lat="49.76204" lon="2.23064">
        <ele>141.6</ele>
        <time>2023-08-16T08:15:49Z</time>
      </trkpt>
      <trkpt lat="49.76204" lon="2.23064">
        <ele>141.6</ele>
        <time>2023-08-16T08:15:50Z</time>
      </trkpt>
      <trkpt lat="49.76204" lon="2.23064">
        <ele>141.6</ele>
        <time>2023-08-16T08:15:51Z</time>
      </trkpt>
      <trkpt lat="49.76204" lon="2.23064">
        <ele>141.6</ele>
        <time>2023-08-16T08:15:52Z</time>
      </trkpt>
      <trkpt lat="49.76204" lon="2.23064">
        <ele>141.6</ele>
        <time>2023-08-16T08:15:53Z</time>
      </trkpt>
      <trkpt lat="49.76204" lon="2.23064">
        <ele>141.6</ele>
        <time>2023-08-16T08:15:54Z</time>
      </trkpt>
      <trkpt lat="49.76204" lon="2.23064">
        <ele>141.6</ele>
        <time>2023-08-16T08:15:55Z</time>
      </trkpt>
      <trkpt lat="49.76204" lon="2.23064">
        <ele>141.6</ele>
        <time>2023-08-16T08:15:56Z</time>
      </trkpt>
      <trkpt lat="49.76204" lon="2.23064">
        <ele>141.6</ele>
        <time>2023-08-16T08:15:57Z</time>
      </trkpt>
      <trkpt lat="49.76205" lon="2.23064">
        <ele>141.6</ele>
        <time>2023-08-16T08:15:58Z</time>
      </trkpt>
      <trkpt lat="49.76205" lon="2.23064">
        <ele>141.6</ele>
        <time>2023-08-16T08:15:59Z</time>
      </trkpt>
      <trkpt lat="49.76205" lon="2.23064">
        <ele>141.6</ele>
        <time>2023-08-16T08:16:00Z</time>
      </trkpt>
      <trkpt lat="49.76205" lon="2.23064">
        <ele>141.6</ele>
        <time>2023-08-16T08:16:01Z</time>
      </trkpt>
      <trkpt lat="49.76205" lon="2.23065">
        <ele>141.6</ele>
        <time>2023-08-16T08:16:02Z</time>
      </trkpt>
      <trkpt lat="49.76205" lon="2.23065">
        <ele>141.6</ele>
        <time>2023-08-16T08:16:03Z</time>
      </trkpt>
      <trkpt lat="49.76205" lon="2.23065">
        <ele>141.6</ele>
        <time>2023-08-16T08:16:04Z</time>
      </trkpt>
      <trkpt lat="49.76205" lon="2.23065">
        <ele>141.6</ele>
        <time>2023-08-16T08:16:05Z</time>
      </trkpt>
      <trkpt lat="49.76205" lon="2.23065">
        <ele>141.6</ele>
        <time>2023-08-16T08:16:06Z</time>
      </trkpt>
      <trkpt lat="49.76205" lon="2.23065">
        <ele>141.6</ele>
        <time>2023-08-16T08:16:07Z</time>
      </trkpt>
      <trkpt lat="49.76205" lon="2.23065">
        <ele>141.6</ele>
        <time>2023-08-16T08:16:08Z</time>
      </trkpt>
      <trkpt lat="49.76205" lon="2.23065">
        <ele>141.6</ele>
        <time>2023-08-16T08:16:09Z</time>
      </trkpt>
      <trkpt lat="49.76205" lon="2.23065">
        <ele>141.6</ele>
        <time>2023-08-16T08:16:10Z</time>
      </trkpt>
      <trkpt lat="49.76205" lon="2.23065">
        <ele>141.6</ele>
        <time>2023-08-16T08:16:11Z</time>
      </trkpt>
      <trkpt lat="49.76205" lon="2.23065">
        <ele>141.6</ele>
        <time>2023-08-16T08:16:12Z</time>
      </trkpt>
      <trkpt lat="49.76205" lon="2.23065">
        <ele>141.6</ele>
        <time>2023-08-16T08:16:13Z</time>
      </trkpt>
      <trkpt lat="49.76205" lon="2.23065">
        <ele>141.6</ele>
        <time>2023-08-16T08:16:14Z</time>
      </trkpt>
      <trkpt lat="49.76205" lon="2.23065">
        <ele>141.6</ele>
        <time>2023-08-16T08:16:15Z</time>
      </trkpt>
      <trkpt lat="49.76205" lon="2.23065">
        <ele>141.6</ele>
        <time>2023-08-16T08:16:16Z</time>
      </trkpt>
      <trkpt lat="49.76205" lon="2.23064">
        <ele>141.6</ele>
        <time>2023-08-16T08:16:17Z</time>
      </trkpt>
      <trkpt lat="49.76205" lon="2.23063">
        <ele>141.6</ele>
        <time>2023-08-16T08:16:18Z</time>
      </trkpt>
      <trkpt lat="49.76205" lon="2.23061">
        <ele>141.6</ele>
        <time>2023-08-16T08:16:19Z</time>
      </trkpt>
      <trkpt lat="49.76205" lon="2.2306">
        <ele>141.6</ele>
        <time>2023-08-16T08:16:20Z</time>
      </trkpt>
      <trkpt lat="49.76205" lon="2.2306">
        <ele>141.6</ele>
        <time>2023-08-16T08:16:21Z</time>
      </trkpt>
      <trkpt lat="49.76204" lon="2.23059">
        <ele>141.6</ele>
        <time>2023-08-16T08:16:22Z</time>
      </trkpt>
      <trkpt lat="49.76204" lon="2.23058">
        <ele>141.6</ele>
        <time>2023-08-16T08:16:23Z</time>
      </trkpt>
      <trkpt lat="49.76204" lon="2.23058">
        <ele>141.6</ele>
        <time>2023-08-16T08:16:24Z</time>
      </trkpt>
      <trkpt lat="49.76205" lon="2.23057">
        <ele>141.6</ele>
        <time>2023-08-16T08:16:26Z</time>
      </trkpt>
      <trkpt lat="49.76205" lon="2.23057">
        <ele>141.6</ele>
        <time>2023-08-16T08:16:27Z</time>
      </trkpt>
      <trkpt lat="49.76205" lon="2.23057">
        <ele>141.6</ele>
        <time>2023-08-16T08:16:28Z</time>
      </trkpt>
      <trkpt lat="49.76205" lon="2.23057">
        <ele>141.6</ele>
        <time>2023-08-16T08:16:30Z</time>
      </trkpt>
      <trkpt lat="49.76205" lon="2.23058">
        <ele>141.6</ele>
        <time>2023-08-16T08:16:31Z</time>
      </trkpt>
      <trkpt lat="49.76204" lon="2.23059">
        <ele>141.6</ele>
        <time>2023-08-16T08:16:32Z</time>
      </trkpt>
      <trkpt lat="49.76204" lon="2.2306">
        <ele>141.6</ele>
        <time>2023-08-16T08:16:34Z</time>
      </trkpt>
      <trkpt lat="49.76204" lon="2.2306">
        <ele>141.6</ele>
        <time>2023-08-16T08:16:35Z</time>
      </trkpt>
      <trkpt lat="49.76204" lon="2.23061">
        <ele>141.6</ele>
        <time>2023-08-16T08:16:36Z</time>
      </trkpt>
      <trkpt lat="49.76204" lon="2.23061">
        <ele>141.6</ele>
        <time>2023-08-16T08:16:37Z</time>
      </trkpt>
      <trkpt lat="49.76204" lon="2.23061">
        <ele>141.6</ele>
        <time>2023-08-16T08:16:38Z</time>
      </trkpt>
      <trkpt lat="49.76204" lon="2.23061">
        <ele>141.6</ele>
        <time>2023-08-16T08:16:40Z</time>
      </trkpt>
      <trkpt lat="49.76205" lon="2.23061">
        <ele>141.6</ele>
        <time>2023-08-16T08:16:41Z</time>
      </trkpt>
      <trkpt lat="49.76205" lon="2.23062">
        <ele>141.6</ele>
        <time>2023-08-16T08:16:43Z</time>
      </trkpt>
      <trkpt lat="49.76205" lon="2.23062">
        <ele>141.6</ele>
        <time>2023-08-16T08:16:44Z</time>
      </trkpt>
      <trkpt lat="49.76205" lon="2.23062">
        <ele>141.6</ele>
        <time>2023-08-16T08:16:46Z</time>
      </trkpt>
      <trkpt lat="49.76205" lon="2.23062">
        <ele>141.6</ele>
        <time>2023-08-16T08:16:47Z</time>
      </trkpt>
      <trkpt lat="49.76205" lon="2.23062">
        <ele>141.6</ele>
        <time>2023-08-16T08:16:48Z</time>
      </trkpt>
      <trkpt lat="49.76205" lon="2.23062">
        <ele>141.6</ele>
        <time>2023-08-16T08:16:50Z</time>
      </trkpt>
      <trkpt lat="49.76205" lon="2.23062">
        <ele>141.6</ele>
        <time>2023-08-16T08:16:51Z</time>
      </trkpt>
      <trkpt lat="49.76206" lon="2.23062">
        <ele>141.6</ele>
        <time>2023-08-16T08:16:53Z</time>
      </trkpt>
      <trkpt lat="49.76206" lon="2.23062">
        <ele>141.6</ele>
        <time>2023-08-16T08:16:54Z</time>
      </trkpt>
      <trkpt lat="49.76206" lon="2.23062">
        <ele>141.6</ele>
        <time>2023-08-16T08:16:55Z</time>
      </trkpt>
      <trkpt lat="49.76205" lon="2.23063">
        <ele>141.7</ele>
        <time>2023-08-16T08:16:57Z</time>
      </trkpt>
      <trkpt lat="49.76204" lon="2.23063">
        <ele>141.7</ele>
        <time>2023-08-16T08:16:58Z</time>
      </trkpt>
      <trkpt lat="49.76204" lon="2.23063">
        <ele>141.7</ele>
        <time>2023-08-16T08:16:59Z</time>
      </trkpt>
      <trkpt lat="49.76203" lon="2.23062">
        <ele>141.7</ele>
        <time>2023-08-16T08:17:01Z</time>
      </trkpt>
      <trkpt lat="49.76204" lon="2.23061">
        <ele>141.7</ele>
        <time>2023-08-16T08:17:02Z</time>
      </trkpt>
      <trkpt lat="49.76204" lon="2.23061">
        <ele>141.7</ele>
        <time>2023-08-16T08:17:03Z</time>
      </trkpt>
      <trkpt lat="49.76206" lon="2.23061">
        <ele>141.7</ele>
        <time>2023-08-16T08:17:05Z</time>
      </trkpt>
      <trkpt lat="49.76206" lon="2.23061">
        <ele>141.7</ele>
        <time>2023-08-16T08:17:06Z</time>
      </trkpt>
      <trkpt lat="49.76206" lon="2.23062">
        <ele>141.7</ele>
        <time>2023-08-16T08:17:08Z</time>
      </trkpt>
      <trkpt lat="49.76206" lon="2.23062">
        <ele>141.7</ele>
        <time>2023-08-16T08:17:09Z</time>
      </trkpt>
      <trkpt lat="49.76206" lon="2.23062">
        <ele>141.7</ele>
        <time>2023-08-16T08:17:11Z</time>
      </trkpt>
      <trkpt lat="49.76207" lon="2.23062">
        <ele>141.7</ele>
        <time>2023-08-16T08:17:12Z</time>
      </trkpt>
      <trkpt lat="49.76207" lon="2.23062">
        <ele>141.7</ele>
        <time>2023-08-16T08:17:14Z</time>
      </trkpt>
      <trkpt lat="49.76207" lon="2.23062">
        <ele>141.7</ele>
        <time>2023-08-16T08:17:15Z</time>
      </trkpt>
      <trkpt lat="49.76207" lon="2.23062">
        <ele>141.7</ele>
        <time>2023-08-16T08:17:16Z</time>
      </trkpt>
      <trkpt lat="49.76207" lon="2.23063">
        <ele>141.7</ele>
        <time>2023-08-16T08:17:18Z</time>
      </trkpt>
      <trkpt lat="49.76207" lon="2.23063">
        <ele>141.7</ele>
        <time>2023-08-16T08:17:19Z</time>
      </trkpt>
      <trkpt lat="49.76207" lon="2.23064">
        <ele>141.7</ele>
        <time>2023-08-16T08:17:20Z</time>
      </trkpt>
      <trkpt lat="49.76207" lon="2.23064">
        <ele>141.7</ele>
        <time>2023-08-16T08:17:21Z</time>
      </trkpt>
      <trkpt lat="49.76207" lon="2.23064">
        <ele>141.7</ele>
        <time>2023-08-16T08:17:22Z</time>
      </trkpt>
      <trkpt lat="49.76207" lon="2.23064">
        <ele>141.7</ele>
        <time>2023-08-16T08:17:23Z</time>
      </trkpt>
      <trkpt lat="49.76207" lon="2.23064">
        <ele>141.7</ele>
        <time>2023-08-16T08:17:24Z</time>
      </trkpt>
      <trkpt lat="49.76207" lon="2.23064">
        <ele>141.7</ele>
        <time>2023-08-16T08:17:25Z</time>
      </trkpt>
      <trkpt lat="49.76207" lon="2.23064">
        <ele>141.7</ele>
        <time>2023-08-16T08:17:26Z</time>
      </trkpt>
      <trkpt lat="49.76207" lon="2.23064">
        <ele>141.7</ele>
        <time>2023-08-16T08:17:27Z</time>
      </trkpt>
      <trkpt lat="49.76207" lon="2.23064">
        <ele>141.7</ele>
        <time>2023-08-16T08:17:28Z</time>
      </trkpt>
      <trkpt lat="49.76207" lon="2.23064">
        <ele>141.7</ele>
        <time>2023-08-16T08:17:29Z</time>
      </trkpt>
      <trkpt lat="49.76207" lon="2.23064">
        <ele>141.7</ele>
        <time>2023-08-16T08:17:30Z</time>
      </trkpt>
      <trkpt lat="49.76207" lon="2.23064">
        <ele>141.7</ele>
        <time>2023-08-16T08:17:31Z</time>
      </trkpt>
      <trkpt lat="49.76207" lon="2.23064">
        <ele>141.7</ele>
        <time>2023-08-16T08:17:32Z</time>
      </trkpt>
      <trkpt lat="49.76207" lon="2.23064">
        <ele>141.7</ele>
        <time>2023-08-16T08:17:33Z</time>
      </trkpt>
      <trkpt lat="49.76207" lon="2.23064">
        <ele>141.7</ele>
        <time>2023-08-16T08:17:34Z</time>
      </trkpt>
      <trkpt lat="49.76207" lon="2.23064">
        <ele>141.7</ele>
        <time>2023-08-16T08:17:35Z</time>
      </trkpt>
      <trkpt lat="49.76207" lon="2.23064">
        <ele>141.7</ele>
        <time>2023-08-16T08:17:36Z</time>
      </trkpt>
      <trkpt lat="49.76207" lon="2.23064">
        <ele>141.7</ele>
        <time>2023-08-16T08:17:37Z</time>
      </trkpt>
      <trkpt lat="49.76207" lon="2.23064">
        <ele>141.7</ele>
        <time>2023-08-16T08:17:38Z</time>
      </trkpt>
      <trkpt lat="49.76207" lon="2.23064">
        <ele>141.7</ele>
        <time>2023-08-16T08:17:39Z</time>
      </trkpt>
      <trkpt lat="49.76207" lon="2.23064">
        <ele>141.7</ele>
        <time>2023-08-16T08:17:40Z</time>
      </trkpt>
      <trkpt lat="49.76207" lon="2.23064">
        <ele>141.7</ele>
        <time>2023-08-16T08:17:41Z</time>
      </trkpt>
      <trkpt lat="49.76207" lon="2.23064">
        <ele>141.7</ele>
        <time>2023-08-16T08:17:42Z</time>
      </trkpt>
      <trkpt lat="49.76207" lon="2.23064">
        <ele>141.7</ele>
        <time>2023-08-16T08:17:43Z</time>
      </trkpt>
      <trkpt lat="49.76207" lon="2.23064">
        <ele>141.7</ele>
        <time>2023-08-16T08:17:44Z</time>
      </trkpt>
      <trkpt lat="49.76207" lon="2.23064">
        <ele>141.7</ele>
        <time>2023-08-16T08:17:45Z</time>
      </trkpt>
      <trkpt lat="49.76207" lon="2.23064">
        <ele>141.7</ele>
        <time>2023-08-16T08:17:46Z</time>
      </trkpt>
      <trkpt lat="49.76207" lon="2.23064">
        <ele>141.7</ele>
        <time>2023-08-16T08:17:47Z</time>
      </trkpt>
      <trkpt lat="49.76207" lon="2.23064">
        <ele>141.7</ele>
        <time>2023-08-16T08:17:48Z</time>
      </trkpt>
      <trkpt lat="49.76207" lon="2.23064">
        <ele>141.7</ele>
        <time>2023-08-16T08:17:49Z</time>
      </trkpt>
      <trkpt lat="49.76207" lon="2.23064">
        <ele>141.7</ele>
        <time>2023-08-16T08:17:50Z</time>
      </trkpt>
      <trkpt lat="49.76207" lon="2.23064">
        <ele>141.7</ele>
        <time>2023-08-16T08:17:51Z</time>
      </trkpt>
      <trkpt lat="49.76207" lon="2.23064">
        <ele>141.7</ele>
        <time>2023-08-16T08:17:52Z</time>
      </trkpt>
      <trkpt lat="49.76207" lon="2.23064">
        <ele>141.7</ele>
        <time>2023-08-16T08:17:53Z</time>
      </trkpt>
      <trkpt lat="49.76207" lon="2.23064">
        <ele>141.7</ele>
        <time>2023-08-16T08:17:54Z</time>
      </trkpt>
      <trkpt lat="49.76207" lon="2.23064">
        <ele>141.7</ele>
        <time>2023-08-16T08:17:55Z</time>
      </trkpt>
      <trkpt lat="49.76207" lon="2.23065">
        <ele>141.7</ele>
        <time>2023-08-16T08:17:56Z</time>
      </trkpt>
      <trkpt lat="49.76207" lon="2.23065">
        <ele>141.7</ele>
        <time>2023-08-16T08:17:57Z</time>
      </trkpt>
      <trkpt lat="49.76208" lon="2.23065">
        <ele>141.7</ele>
        <time>2023-08-16T08:17:58Z</time>
      </trkpt>
      <trkpt lat="49.76209" lon="2.23065">
        <ele>141.7</ele>
        <time>2023-08-16T08:17:59Z</time>
      </trkpt>
      <trkpt lat="49.7621" lon="2.23065">
        <ele>141.7</ele>
        <time>2023-08-16T08:18:01Z</time>
      </trkpt>
      <trkpt lat="49.76211" lon="2.23065">
        <ele>141.7</ele>
        <time>2023-08-16T08:18:02Z</time>
      </trkpt>
      <trkpt lat="49.76212" lon="2.23066">
        <ele>141.7</ele>
        <time>2023-08-16T08:18:03Z</time>
      </trkpt>
      <trkpt lat="49.76213" lon="2.23067">
        <ele>141.7</ele>
        <time>2023-08-16T08:18:04Z</time>
      </trkpt>
      <trkpt lat="49.76215" lon="2.23068">
        <ele>141.7</ele>
        <time>2023-08-16T08:18:05Z</time>
      </trkpt>
      <trkpt lat="49.76216" lon="2.23069">
        <ele>141.7</ele>
        <time>2023-08-16T08:18:06Z</time>
      </trkpt>
      <trkpt lat="49.76217" lon="2.23069">
        <ele>141.7</ele>
        <time>2023-08-16T08:18:07Z</time>
      </trkpt>
      <trkpt lat="49.76219" lon="2.2307">
        <ele>141.7</ele>
        <time>2023-08-16T08:18:08Z</time>
      </trkpt>
      <trkpt lat="49.76221" lon="2.2307">
        <ele>141.7</ele>
        <time>2023-08-16T08:18:09Z</time>
      </trkpt>
      <trkpt lat="49.76222" lon="2.23071">
        <ele>141.7</ele>
        <time>2023-08-16T08:18:11Z</time>
      </trkpt>
      <trkpt lat="49.76224" lon="2.23072">
        <ele>141.7</ele>
        <time>2023-08-16T08:18:12Z</time>
      </trkpt>
      <trkpt lat="49.76225" lon="2.23073">
        <ele>141.7</ele>
        <time>2023-08-16T08:18:13Z</time>
      </trkpt>
      <trkpt lat="49.76227" lon="2.23074">
        <ele>141.7</ele>
        <time>2023-08-16T08:18:14Z</time>
      </trkpt>
      <trkpt lat="49.76228" lon="2.23075">
        <ele>141.8</ele>
        <time>2023-08-16T08:18:15Z</time>
      </trkpt>
      <trkpt lat="49.76229" lon="2.23075">
        <ele>141.8</ele>
        <time>2023-08-16T08:18:16Z</time>
      </trkpt>
      <trkpt lat="49.76231" lon="2.23076">
        <ele>141.8</ele>
        <time>2023-08-16T08:18:17Z</time>
      </trkpt>
      <trkpt lat="49.76232" lon="2.23076">
        <ele>141.8</ele>
        <time>2023-08-16T08:18:19Z</time>
      </trkpt>
      <trkpt lat="49.76234" lon="2.23077">
        <ele>141.8</ele>
        <time>2023-08-16T08:18:20Z</time>
      </trkpt>
      <trkpt lat="49.76236" lon="2.23077">
        <ele>141.8</ele>
        <time>2023-08-16T08:18:21Z</time>
      </trkpt>
      <trkpt lat="49.76237" lon="2.23077">
        <ele>141.8</ele>
        <time>2023-08-16T08:18:22Z</time>
      </trkpt>
      <trkpt lat="49.76238" lon="2.23078">
        <ele>141.8</ele>
        <time>2023-08-16T08:18:23Z</time>
      </trkpt>
      <trkpt lat="49.7624" lon="2.23078">
        <ele>141.8</ele>
        <time>2023-08-16T08:18:24Z</time>
      </trkpt>
      <trkpt lat="49.76241" lon="2.23078">
        <ele>141.8</ele>
        <time>2023-08-16T08:18:25Z</time>
      </trkpt>
      <trkpt lat="49.76242" lon="2.23079">
        <ele>141.8</ele>
        <time>2023-08-16T08:18:26Z</time>
      </trkpt>
      <trkpt lat="49.76244" lon="2.23079">
        <ele>141.8</ele>
        <time>2023-08-16T08:18:28Z</time>
      </trkpt>
      <trkpt lat="49.76245" lon="2.2308">
        <ele>141.8</ele>
        <time>2023-08-16T08:18:29Z</time>
      </trkpt>
      <trkpt lat="49.76246" lon="2.2308">
        <ele>141.8</ele>
        <time>2023-08-16T08:18:30Z</time>
      </trkpt>
      <trkpt lat="49.76249" lon="2.2308">
        <ele>141.8</ele>
        <time>2023-08-16T08:18:31Z</time>
      </trkpt>
      <trkpt lat="49.76249" lon="2.2308">
        <ele>141.8</ele>
        <time>2023-08-16T08:18:32Z</time>
      </trkpt>
      <trkpt lat="49.7625" lon="2.23081">
        <ele>141.8</ele>
        <time>2023-08-16T08:18:33Z</time>
      </trkpt>
      <trkpt lat="49.76252" lon="2.23081">
        <ele>141.8</ele>
        <time>2023-08-16T08:18:34Z</time>
      </trkpt>
      <trkpt lat="49.76253" lon="2.23081">
        <ele>141.8</ele>
        <time>2023-08-16T08:18:35Z</time>
      </trkpt>
      <trkpt lat="49.76255" lon="2.23081">
        <ele>141.9</ele>
        <time>2023-08-16T08:18:37Z</time>
      </trkpt>
      <trkpt lat="49.76257" lon="2.23082">
        <ele>141.9</ele>
        <time>2023-08-16T08:18:38Z</time>
      </trkpt>
      <trkpt lat="49.76258" lon="2.23082">
        <ele>141.9</ele>
        <time>2023-08-16T08:18:39Z</time>
      </trkpt>
      <trkpt lat="49.7626" lon="2.23082">
        <ele>141.9</ele>
        <time>2023-08-16T08:18:40Z</time>
      </trkpt>
      <trkpt lat="49.76262" lon="2.23082">
        <ele>141.9</ele>
        <time>2023-08-16T08:18:41Z</time>
      </trkpt>
      <trkpt lat="49.76263" lon="2.23082">
        <ele>141.9</ele>
        <time>2023-08-16T08:18:42Z</time>
      </trkpt>
      <trkpt lat="49.76264" lon="2.23083">
        <ele>141.9</ele>
        <time>2023-08-16T08:18:43Z</time>
      </trkpt>
      <trkpt lat="49.76265" lon="2.23083">
        <ele>141.9</ele>
        <time>2023-08-16T08:18:44Z</time>
      </trkpt>
      <trkpt lat="49.76267" lon="2.23083">
        <ele>141.9</ele>
        <time>2023-08-16T08:18:46Z</time>
      </trkpt>
      <trkpt lat="49.76269" lon="2.23083">
        <ele>141.9</ele>
        <time>2023-08-16T08:18:47Z</time>
      </trkpt>
      <trkpt lat="49.7627" lon="2.23083">
        <ele>142</ele>
        <time>2023-08-16T08:18:48Z</time>
      </trkpt>
      <trkpt lat="49.76271" lon="2.23084">
        <ele>142</ele>
        <time>2023-08-16T08:18:49Z</time>
      </trkpt>
      <trkpt lat="49.76273" lon="2.23084">
        <ele>142</ele>
        <time>2023-08-16T08:18:50Z</time>
      </trkpt>
      <trkpt lat="49.76274" lon="2.23084">
        <ele>142</ele>
        <time>2023-08-16T08:18:51Z</time>
      </trkpt>
      <trkpt lat="49.76276" lon="2.23084">
        <ele>142</ele>
        <time>2023-08-16T08:18:52Z</time>
      </trkpt>
      <trkpt lat="49.76277" lon="2.23085">
        <ele>142</ele>
        <time>2023-08-16T08:18:53Z</time>
      </trkpt>
      <trkpt lat="49.76278" lon="2.23085">
        <ele>142</ele>
        <time>2023-08-16T08:18:54Z</time>
      </trkpt>
      <trkpt lat="49.76281" lon="2.23085">
        <ele>142</ele>
        <time>2023-08-16T08:18:55Z</time>
      </trkpt>
      <trkpt lat="49.76282" lon="2.23085">
        <ele>142</ele>
        <time>2023-08-16T08:18:57Z</time>
      </trkpt>
      <trkpt lat="49.76282" lon="2.23085">
        <ele>142.1</ele>
        <time>2023-08-16T08:18:58Z</time>
      </trkpt>
      <trkpt lat="49.76285" lon="2.23085">
        <ele>142.1</ele>
        <time>2023-08-16T08:18:59Z</time>
      </trkpt>
      <trkpt lat="49.76286" lon="2.23086">
        <ele>142.1</ele>
        <time>2023-08-16T08:19:00Z</time>
      </trkpt>
      <trkpt lat="49.76286" lon="2.23086">
        <ele>142.1</ele>
        <time>2023-08-16T08:19:01Z</time>
      </trkpt>
      <trkpt lat="49.76288" lon="2.23086">
        <ele>142.1</ele>
        <time>2023-08-16T08:19:02Z</time>
      </trkpt>
      <trkpt lat="49.76289" lon="2.23086">
        <ele>142.1</ele>
        <time>2023-08-16T08:19:03Z</time>
      </trkpt>
      <trkpt lat="49.76291" lon="2.23087">
        <ele>142.1</ele>
        <time>2023-08-16T08:19:04Z</time>
      </trkpt>
      <trkpt lat="49.76292" lon="2.23087">
        <ele>142.1</ele>
        <time>2023-08-16T08:19:05Z</time>
      </trkpt>
      <trkpt lat="49.76294" lon="2.23088">
        <ele>142.2</ele>
        <time>2023-08-16T08:19:07Z</time>
      </trkpt>
      <trkpt lat="49.76295" lon="2.23088">
        <ele>142.2</ele>
        <time>2023-08-16T08:19:08Z</time>
      </trkpt>
      <trkpt lat="49.76296" lon="2.23088">
        <ele>142.2</ele>
        <time>2023-08-16T08:19:09Z</time>
      </trkpt>
      <trkpt lat="49.76298" lon="2.23089">
        <ele>142.2</ele>
        <time>2023-08-16T08:19:10Z</time>
      </trkpt>
      <trkpt lat="49.76299" lon="2.23089">
        <ele>142.2</ele>
        <time>2023-08-16T08:19:11Z</time>
      </trkpt>
      <trkpt lat="49.763" lon="2.2309">
        <ele>142.2</ele>
        <time>2023-08-16T08:19:12Z</time>
      </trkpt>
      <trkpt lat="49.76301" lon="2.2309">
        <ele>142.2</ele>
        <time>2023-08-16T08:19:13Z</time>
      </trkpt>
      <trkpt lat="49.76302" lon="2.23091">
        <ele>142.2</ele>
        <time>2023-08-16T08:19:14Z</time>
      </trkpt>
      <trkpt lat="49.76303" lon="2.23091">
        <ele>142.2</ele>
        <time>2023-08-16T08:19:16Z</time>
      </trkpt>
      <trkpt lat="49.76305" lon="2.23092">
        <ele>142.2</ele>
        <time>2023-08-16T08:19:17Z</time>
      </trkpt>
      <trkpt lat="49.76306" lon="2.23092">
        <ele>142.3</ele>
        <time>2023-08-16T08:19:18Z</time>
      </trkpt>
      <trkpt lat="49.76307" lon="2.23092">
        <ele>142.3</ele>
        <time>2023-08-16T08:19:19Z</time>
      </trkpt>
      <trkpt lat="49.76309" lon="2.23093">
        <ele>142.3</ele>
        <time>2023-08-16T08:19:20Z</time>
      </trkpt>
      <trkpt lat="49.7631" lon="2.23093">
        <ele>142.3</ele>
        <time>2023-08-16T08:19:21Z</time>
      </trkpt>
      <trkpt lat="49.76311" lon="2.23094">
        <ele>142.3</ele>
        <time>2023-08-16T08:19:23Z</time>
      </trkpt>
      <trkpt lat="49.76312" lon="2.23094">
        <ele>142.3</ele>
        <time>2023-08-16T08:19:24Z</time>
      </trkpt>
      <trkpt lat="49.76313" lon="2.23094">
        <ele>142.3</ele>
        <time>2023-08-16T08:19:25Z</time>
      </trkpt>
      <trkpt lat="49.76314" lon="2.23095">
        <ele>142.3</ele>
        <time>2023-08-16T08:19:26Z</time>
      </trkpt>
      <trkpt lat="49.76315" lon="2.23095">
        <ele>142.3</ele>
        <time>2023-08-16T08:19:27Z</time>
      </trkpt>
      <trkpt lat="49.76316" lon="2.23095">
        <ele>142.3</ele>
        <time>2023-08-16T08:19:28Z</time>
      </trkpt>
      <trkpt lat="49.76318" lon="2.23095">
        <ele>142.3</ele>
        <time>2023-08-16T08:19:29Z</time>
      </trkpt>
      <trkpt lat="49.7632" lon="2.23096">
        <ele>142.3</ele>
        <time>2023-08-16T08:19:30Z</time>
      </trkpt>
      <trkpt lat="49.76321" lon="2.23096">
        <ele>142.3</ele>
        <time>2023-08-16T08:19:32Z</time>
      </trkpt>
      <trkpt lat="49.76321" lon="2.23096">
        <ele>142.3</ele>
        <time>2023-08-16T08:19:33Z</time>
      </trkpt>
      <trkpt lat="49.76323" lon="2.23096">
        <ele>142.3</ele>
        <time>2023-08-16T08:19:34Z</time>
      </trkpt>
      <trkpt lat="49.76324" lon="2.23097">
        <ele>142.4</ele>
        <time>2023-08-16T08:19:35Z</time>
      </trkpt>
      <trkpt lat="49.76325" lon="2.23097">
        <ele>142.4</ele>
        <time>2023-08-16T08:19:36Z</time>
      </trkpt>
      <trkpt lat="49.76327" lon="2.23097">
        <ele>142.4</ele>
        <time>2023-08-16T08:19:37Z</time>
      </trkpt>
      <trkpt lat="49.76328" lon="2.23098">
        <ele>142.4</ele>
        <time>2023-08-16T08:19:38Z</time>
      </trkpt>
      <trkpt lat="49.7633" lon="2.23099">
        <ele>142.4</ele>
        <time>2023-08-16T08:19:40Z</time>
      </trkpt>
      <trkpt lat="49.76332" lon="2.23099">
        <ele>142.4</ele>
        <time>2023-08-16T08:19:41Z</time>
      </trkpt>
      <trkpt lat="49.76333" lon="2.231">
        <ele>142.4</ele>
        <time>2023-08-16T08:19:42Z</time>
      </trkpt>
      <trkpt lat="49.76335" lon="2.231">
        <ele>142.4</ele>
        <time>2023-08-16T08:19:44Z</time>
      </trkpt>
      <trkpt lat="49.76336" lon="2.23101">
        <ele>142.4</ele>
        <time>2023-08-16T08:19:45Z</time>
      </trkpt>
      <trkpt lat="49.76337" lon="2.23101">
        <ele>142.4</ele>
        <time>2023-08-16T08:19:46Z</time>
      </trkpt>
      <trkpt lat="49.76339" lon="2.23101">
        <ele>142.4</ele>
        <time>2023-08-16T08:19:47Z</time>
      </trkpt>
      <trkpt lat="49.76341" lon="2.23101">
        <ele>142.4</ele>
        <time>2023-08-16T08:19:49Z</time>
      </trkpt>
      <trkpt lat="49.76342" lon="2.23101">
        <ele>142.4</ele>
        <time>2023-08-16T08:19:50Z</time>
      </trkpt>
      <trkpt lat="49.76343" lon="2.23101">
        <ele>142.4</ele>
        <time>2023-08-16T08:19:51Z</time>
      </trkpt>
      <trkpt lat="49.76345" lon="2.23102">
        <ele>142.4</ele>
        <time>2023-08-16T08:19:53Z</time>
      </trkpt>
      <trkpt lat="49.76347" lon="2.23102">
        <ele>142.4</ele>
        <time>2023-08-16T08:19:54Z</time>
      </trkpt>
      <trkpt lat="49.76348" lon="2.23102">
        <ele>142.4</ele>
        <time>2023-08-16T08:19:55Z</time>
      </trkpt>
      <trkpt lat="49.76349" lon="2.23102">
        <ele>142.4</ele>
        <time>2023-08-16T08:19:56Z</time>
      </trkpt>
      <trkpt lat="49.7635" lon="2.23103">
        <ele>142.4</ele>
        <time>2023-08-16T08:19:57Z</time>
      </trkpt>
      <trkpt lat="49.76351" lon="2.23103">
        <ele>142.4</ele>
        <time>2023-08-16T08:19:58Z</time>
      </trkpt>
      <trkpt lat="49.76353" lon="2.23104">
        <ele>142.4</ele>
        <time>2023-08-16T08:20:00Z</time>
      </trkpt>
      <trkpt lat="49.76355" lon="2.23105">
        <ele>142.4</ele>
        <time>2023-08-16T08:20:01Z</time>
      </trkpt>
      <trkpt lat="49.76355" lon="2.23105">
        <ele>142.4</ele>
        <time>2023-08-16T08:20:02Z</time>
      </trkpt>
      <trkpt lat="49.76356" lon="2.23105">
        <ele>142.4</ele>
        <time>2023-08-16T08:20:03Z</time>
      </trkpt>
      <trkpt lat="49.76359" lon="2.23106">
        <ele>142.5</ele>
        <time>2023-08-16T08:20:04Z</time>
      </trkpt>
      <trkpt lat="49.7636" lon="2.23106">
        <ele>142.5</ele>
        <time>2023-08-16T08:20:06Z</time>
      </trkpt>
      <trkpt lat="49.76361" lon="2.23106">
        <ele>142.5</ele>
        <time>2023-08-16T08:20:07Z</time>
      </trkpt>
      <trkpt lat="49.76362" lon="2.23107">
        <ele>142.5</ele>
        <time>2023-08-16T08:20:08Z</time>
      </trkpt>
      <trkpt lat="49.76363" lon="2.23107">
        <ele>142.5</ele>
        <time>2023-08-16T08:20:09Z</time>
      </trkpt>
      <trkpt lat="49.76365" lon="2.23107">
        <ele>142.5</ele>
        <time>2023-08-16T08:20:11Z</time>
      </trkpt>
      <trkpt lat="49.76366" lon="2.23107">
        <ele>142.5</ele>
        <time>2023-08-16T08:20:12Z</time>
      </trkpt>
      <trkpt lat="49.76367" lon="2.23107">
        <ele>142.5</ele>
        <time>2023-08-16T08:20:13Z</time>
      </trkpt>
      <trkpt lat="49.76369" lon="2.23107">
        <ele>142.5</ele>
        <time>2023-08-16T08:20:14Z</time>
      </trkpt>
      <trkpt lat="49.7637" lon="2.23107">
        <ele>142.5</ele>
        <time>2023-08-16T08:20:15Z</time>
      </trkpt>
      <trkpt lat="49.76371" lon="2.23107">
        <ele>142.5</ele>
        <time>2023-08-16T08:20:16Z</time>
      </trkpt>
      <trkpt lat="49.76372" lon="2.23108">
        <ele>142.5</ele>
        <time>2023-08-16T08:20:17Z</time>
      </trkpt>
      <trkpt lat="49.76373" lon="2.23108">
        <ele>142.5</ele>
        <time>2023-08-16T08:20:18Z</time>
      </trkpt>
      <trkpt lat="49.76375" lon="2.23108">
        <ele>142.5</ele>
        <time>2023-08-16T08:20:20Z</time>
      </trkpt>
      <trkpt lat="49.76376" lon="2.23108">
        <ele>142.5</ele>
        <time>2023-08-16T08:20:21Z</time>
      </trkpt>
      <trkpt lat="49.76378" lon="2.23109">
        <ele>142.5</ele>
        <time>2023-08-16T08:20:22Z</time>
      </trkpt>
      <trkpt lat="49.76379" lon="2.23109">
        <ele>142.5</ele>
        <time>2023-08-16T08:20:23Z</time>
      </trkpt>
      <trkpt lat="49.7638" lon="2.23109">
        <ele>142.5</ele>
        <time>2023-08-16T08:20:24Z</time>
      </trkpt>
      <trkpt lat="49.76382" lon="2.2311">
        <ele>142.5</ele>
        <time>2023-08-16T08:20:26Z</time>
      </trkpt>
      <trkpt lat="49.76383" lon="2.2311">
        <ele>142.5</ele>
        <time>2023-08-16T08:20:27Z</time>
      </trkpt>
      <trkpt lat="49.76385" lon="2.2311">
        <ele>142.5</ele>
        <time>2023-08-16T08:20:28Z</time>
      </trkpt>
      <trkpt lat="49.76386" lon="2.2311">
        <ele>142.5</ele>
        <time>2023-08-16T08:20:29Z</time>
      </trkpt>
      <trkpt lat="49.76388" lon="2.2311">
        <ele>142.5</ele>
        <time>2023-08-16T08:20:30Z</time>
      </trkpt>
      <trkpt lat="49.76389" lon="2.23111">
        <ele>142.6</ele>
        <time>2023-08-16T08:20:32Z</time>
      </trkpt>
      <trkpt lat="49.76391" lon="2.23111">
        <ele>142.6</ele>
        <time>2023-08-16T08:20:33Z</time>
      </trkpt>
      <trkpt lat="49.76392" lon="2.23111">
        <ele>142.6</ele>
        <time>2023-08-16T08:20:34Z</time>
      </trkpt>
      <trkpt lat="49.76393" lon="2.23112">
        <ele>142.6</ele>
        <time>2023-08-16T08:20:35Z</time>
      </trkpt>
      <trkpt lat="49.76395" lon="2.23112">
        <ele>142.6</ele>
        <time>2023-08-16T08:20:36Z</time>
      </trkpt>
      <trkpt lat="49.76396" lon="2.23113">
        <ele>142.6</ele>
        <time>2023-08-16T08:20:37Z</time>
      </trkpt>
      <trkpt lat="49.76397" lon="2.23114">
        <ele>142.6</ele>
        <time>2023-08-16T08:20:38Z</time>
      </trkpt>
      <trkpt lat="49.76399" lon="2.23114">
        <ele>142.6</ele>
        <time>2023-08-16T08:20:39Z</time>
      </trkpt>
      <trkpt lat="49.764" lon="2.23115">
        <ele>142.6</ele>
        <time>2023-08-16T08:20:40Z</time>
      </trkpt>
      <trkpt lat="49.76402" lon="2.23115">
        <ele>142.6</ele>
        <time>2023-08-16T08:20:41Z</time>
      </trkpt>
      <trkpt lat="49.76404" lon="2.23116">
        <ele>142.6</ele>
        <time>2023-08-16T08:20:43Z</time>
      </trkpt>
      <trkpt lat="49.76405" lon="2.23116">
        <ele>142.6</ele>
        <time>2023-08-16T08:20:44Z</time>
      </trkpt>
      <trkpt lat="49.76407" lon="2.23117">
        <ele>142.6</ele>
        <time>2023-08-16T08:20:46Z</time>
      </trkpt>
      <trkpt lat="49.76408" lon="2.23117">
        <ele>142.6</ele>
        <time>2023-08-16T08:20:47Z</time>
      </trkpt>
      <trkpt lat="49.76409" lon="2.23117">
        <ele>142.6</ele>
        <time>2023-08-16T08:20:48Z</time>
      </trkpt>
      <trkpt lat="49.76411" lon="2.23117">
        <ele>142.6</ele>
        <time>2023-08-16T08:20:50Z</time>
      </trkpt>
      <trkpt lat="49.76412" lon="2.23118">
        <ele>142.6</ele>
        <time>2023-08-16T08:20:51Z</time>
      </trkpt>
      <trkpt lat="49.76414" lon="2.23118">
        <ele>142.6</ele>
        <time>2023-08-16T08:20:52Z</time>
      </trkpt>
      <trkpt lat="49.76416" lon="2.23118">
        <ele>142.6</ele>
        <time>2023-08-16T08:20:53Z</time>
      </trkpt>
      <trkpt lat="49.76416" lon="2.23118">
        <ele>142.6</ele>
        <time>2023-08-16T08:20:54Z</time>
      </trkpt>
      <trkpt lat="49.76417" lon="2.23118">
        <ele>142.6</ele>
        <time>2023-08-16T08:20:55Z</time>
      </trkpt>
      <trkpt lat="49.76418" lon="2.23118">
        <ele>142.6</ele>
        <time>2023-08-16T08:20:56Z</time>
      </trkpt>
      <trkpt lat="49.7642" lon="2.23118">
        <ele>142.6</ele>
        <time>2023-08-16T08:20:57Z</time>
      </trkpt>
      <trkpt lat="49.76421" lon="2.23119">
        <ele>142.6</ele>
        <time>2023-08-16T08:20:59Z</time>
      </trkpt>
      <trkpt lat="49.76423" lon="2.23119">
        <ele>142.5</ele>
        <time>2023-08-16T08:21:00Z</time>
      </trkpt>
      <trkpt lat="49.76424" lon="2.23119">
        <ele>142.5</ele>
        <time>2023-08-16T08:21:01Z</time>
      </trkpt>
      <trkpt lat="49.76426" lon="2.2312">
        <ele>142.5</ele>
        <time>2023-08-16T08:21:03Z</time>
      </trkpt>
      <trkpt lat="49.76427" lon="2.2312">
        <ele>142.5</ele>
        <time>2023-08-16T08:21:04Z</time>
      </trkpt>
      <trkpt lat="49.76428" lon="2.2312">
        <ele>142.5</ele>
        <time>2023-08-16T08:21:05Z</time>
      </trkpt>
      <trkpt lat="49.76429" lon="2.23121">
        <ele>142.5</ele>
        <time>2023-08-16T08:21:06Z</time>
      </trkpt>
      <trkpt lat="49.76431" lon="2.23121">
        <ele>142.5</ele>
        <time>2023-08-16T08:21:07Z</time>
      </trkpt>
      <trkpt lat="49.76432" lon="2.23122">
        <ele>142.5</ele>
        <time>2023-08-16T08:21:08Z</time>
      </trkpt>
      <trkpt lat="49.76433" lon="2.23122">
        <ele>142.5</ele>
        <time>2023-08-16T08:21:10Z</time>
      </trkpt>
      <trkpt lat="49.76434" lon="2.23123">
        <ele>142.5</ele>
        <time>2023-08-16T08:21:11Z</time>
      </trkpt>
      <trkpt lat="49.76436" lon="2.23124">
        <ele>142.5</ele>
        <time>2023-08-16T08:21:12Z</time>
      </trkpt>
      <trkpt lat="49.76437" lon="2.23124">
        <ele>142.5</ele>
        <time>2023-08-16T08:21:13Z</time>
      </trkpt>
      <trkpt lat="49.76438" lon="2.23124">
        <ele>142.5</ele>
        <time>2023-08-16T08:21:14Z</time>
      </trkpt>
      <trkpt lat="49.76439" lon="2.23124">
        <ele>142.4</ele>
        <time>2023-08-16T08:21:15Z</time>
      </trkpt>
      <trkpt lat="49.7644" lon="2.23124">
        <ele>142.4</ele>
        <time>2023-08-16T08:21:16Z</time>
      </trkpt>
      <trkpt lat="49.76442" lon="2.23125">
        <ele>142.4</ele>
        <time>2023-08-16T08:21:18Z</time>
      </trkpt>
      <trkpt lat="49.76444" lon="2.23125">
        <ele>142.4</ele>
        <time>2023-08-16T08:21:19Z</time>
      </trkpt>
      <trkpt lat="49.76445" lon="2.23126">
        <ele>142.4</ele>
        <time>2023-08-16T08:21:20Z</time>
      </trkpt>
      <trkpt lat="49.76445" lon="2.23126">
        <ele>142.4</ele>
        <time>2023-08-16T08:21:21Z</time>
      </trkpt>
      <trkpt lat="49.76447" lon="2.23126">
        <ele>142.4</ele>
        <time>2023-08-16T08:21:22Z</time>
      </trkpt>
      <trkpt lat="49.76448" lon="2.23127">
        <ele>142.4</ele>
        <time>2023-08-16T08:21:23Z</time>
      </trkpt>
      <trkpt lat="49.76449" lon="2.23127">
        <ele>142.4</ele>
        <time>2023-08-16T08:21:24Z</time>
      </trkpt>
      <trkpt lat="49.7645" lon="2.23127">
        <ele>142.4</ele>
        <time>2023-08-16T08:21:25Z</time>
      </trkpt>
      <trkpt lat="49.76451" lon="2.23127">
        <ele>142.4</ele>
        <time>2023-08-16T08:21:26Z</time>
      </trkpt>
      <trkpt lat="49.76453" lon="2.23127">
        <ele>142.3</ele>
        <time>2023-08-16T08:21:28Z</time>
      </trkpt>
      <trkpt lat="49.76455" lon="2.23128">
        <ele>142.3</ele>
        <time>2023-08-16T08:21:29Z</time>
      </trkpt>
      <trkpt lat="49.76455" lon="2.23128">
        <ele>142.3</ele>
        <time>2023-08-16T08:21:30Z</time>
      </trkpt>
      <trkpt lat="49.76456" lon="2.23128">
        <ele>142.3</ele>
        <time>2023-08-16T08:21:31Z</time>
      </trkpt>
      <trkpt lat="49.76458" lon="2.23128">
        <ele>142.3</ele>
        <time>2023-08-16T08:21:33Z</time>
      </trkpt>
      <trkpt lat="49.76459" lon="2.23128">
        <ele>142.3</ele>
        <time>2023-08-16T08:21:34Z</time>
      </trkpt>
      <trkpt lat="49.7646" lon="2.23128">
        <ele>142.3</ele>
        <time>2023-08-16T08:21:35Z</time>
      </trkpt>
      <trkpt lat="49.76462" lon="2.23128">
        <ele>142.3</ele>
        <time>2023-08-16T08:21:36Z</time>
      </trkpt>
      <trkpt lat="49.76464" lon="2.23128">
        <ele>142.2</ele>
        <time>2023-08-16T08:21:37Z</time>
      </trkpt>
      <trkpt lat="49.76465" lon="2.23128">
        <ele>142.2</ele>
        <time>2023-08-16T08:21:38Z</time>
      </trkpt>
      <trkpt lat="49.76465" lon="2.23128">
        <ele>142.2</ele>
        <time>2023-08-16T08:21:39Z</time>
      </trkpt>
      <trkpt lat="49.76467" lon="2.23129">
        <ele>142.2</ele>
        <time>2023-08-16T08:21:40Z</time>
      </trkpt>
      <trkpt lat="49.76468" lon="2.2313">
        <ele>142.2</ele>
        <time>2023-08-16T08:21:41Z</time>
      </trkpt>
      <trkpt lat="49.76469" lon="2.2313">
        <ele>142.2</ele>
        <time>2023-08-16T08:21:43Z</time>
      </trkpt>
      <trkpt lat="49.7647" lon="2.23131">
        <ele>142.2</ele>
        <time>2023-08-16T08:21:44Z</time>
      </trkpt>
      <trkpt lat="49.76472" lon="2.23132">
        <ele>142.2</ele>
        <time>2023-08-16T08:21:45Z</time>
      </trkpt>
      <trkpt lat="49.76473" lon="2.23132">
        <ele>142.2</ele>
        <time>2023-08-16T08:21:46Z</time>
      </trkpt>
      <trkpt lat="49.76474" lon="2.23132">
        <ele>142.1</ele>
        <time>2023-08-16T08:21:47Z</time>
      </trkpt>
      <trkpt lat="49.76475" lon="2.23133">
        <ele>142.1</ele>
        <time>2023-08-16T08:21:49Z</time>
      </trkpt>
      <trkpt lat="49.76478" lon="2.23134">
        <ele>142.1</ele>
        <time>2023-08-16T08:21:50Z</time>
      </trkpt>
      <trkpt lat="49.76478" lon="2.23134">
        <ele>142.1</ele>
        <time>2023-08-16T08:21:51Z</time>
      </trkpt>
      <trkpt lat="49.76479" lon="2.23134">
        <ele>142.1</ele>
        <time>2023-08-16T08:21:52Z</time>
      </trkpt>
      <trkpt lat="49.76482" lon="2.23135">
        <ele>142.1</ele>
        <time>2023-08-16T08:21:53Z</time>
      </trkpt>
      <trkpt lat="49.76482" lon="2.23135">
        <ele>142.1</ele>
        <time>2023-08-16T08:21:54Z</time>
      </trkpt>
      <trkpt lat="49.76483" lon="2.23135">
        <ele>142.1</ele>
        <time>2023-08-16T08:21:55Z</time>
      </trkpt>
      <trkpt lat="49.76486" lon="2.23135">
        <ele>142.1</ele>
        <time>2023-08-16T08:21:56Z</time>
      </trkpt>
      <trkpt lat="49.76486" lon="2.23135">
        <ele>142</ele>
        <time>2023-08-16T08:21:58Z</time>
      </trkpt>
      <trkpt lat="49.76487" lon="2.23135">
        <ele>142</ele>
        <time>2023-08-16T08:21:59Z</time>
      </trkpt>
      <trkpt lat="49.76489" lon="2.23136">
        <ele>142</ele>
        <time>2023-08-16T08:22:00Z</time>
      </trkpt>
      <trkpt lat="49.7649" lon="2.23136">
        <ele>142</ele>
        <time>2023-08-16T08:22:01Z</time>
      </trkpt>
      <trkpt lat="49.76491" lon="2.23136">
        <ele>142</ele>
        <time>2023-08-16T08:22:02Z</time>
      </trkpt>
      <trkpt lat="49.76493" lon="2.23136">
        <ele>142</ele>
        <time>2023-08-16T08:22:03Z</time>
      </trkpt>
      <trkpt lat="49.76495" lon="2.23137">
        <ele>142</ele>
        <time>2023-08-16T08:22:05Z</time>
      </trkpt>
      <trkpt lat="49.76497" lon="2.23137">
        <ele>142</ele>
        <time>2023-08-16T08:22:06Z</time>
      </trkpt>
      <trkpt lat="49.76498" lon="2.23137">
        <ele>142</ele>
        <time>2023-08-16T08:22:07Z</time>
      </trkpt>
      <trkpt lat="49.76498" lon="2.23137">
        <ele>142</ele>
        <time>2023-08-16T08:22:08Z</time>
      </trkpt>
      <trkpt lat="49.76501" lon="2.23138">
        <ele>142</ele>
        <time>2023-08-16T08:22:09Z</time>
      </trkpt>
      <trkpt lat="49.76501" lon="2.23139">
        <ele>141.9</ele>
        <time>2023-08-16T08:22:11Z</time>
      </trkpt>
      <trkpt lat="49.76502" lon="2.23139">
        <ele>141.9</ele>
        <time>2023-08-16T08:22:12Z</time>
      </trkpt>
      <trkpt lat="49.76504" lon="2.23139">
        <ele>141.9</ele>
        <time>2023-08-16T08:22:13Z</time>
      </trkpt>
      <trkpt lat="49.76505" lon="2.2314">
        <ele>141.9</ele>
        <time>2023-08-16T08:22:14Z</time>
      </trkpt>
      <trkpt lat="49.76507" lon="2.2314">
        <ele>141.9</ele>
        <time>2023-08-16T08:22:15Z</time>
      </trkpt>
      <trkpt lat="49.76508" lon="2.2314">
        <ele>141.9</ele>
        <time>2023-08-16T08:22:17Z</time>
      </trkpt>
      <trkpt lat="49.76509" lon="2.23141">
        <ele>141.9</ele>
        <time>2023-08-16T08:22:18Z</time>
      </trkpt>
      <trkpt lat="49.76511" lon="2.23142">
        <ele>141.8</ele>
        <time>2023-08-16T08:22:19Z</time>
      </trkpt>
      <trkpt lat="49.76512" lon="2.23143">
        <ele>141.8</ele>
        <time>2023-08-16T08:22:21Z</time>
      </trkpt>
      <trkpt lat="49.76513" lon="2.23144">
        <ele>141.8</ele>
        <time>2023-08-16T08:22:22Z</time>
      </trkpt>
      <trkpt lat="49.76514" lon="2.23144">
        <ele>141.8</ele>
        <time>2023-08-16T08:22:23Z</time>
      </trkpt>
      <trkpt lat="49.76515" lon="2.23144">
        <ele>141.8</ele>
        <time>2023-08-16T08:22:24Z</time>
      </trkpt>
      <trkpt lat="49.76516" lon="2.23144">
        <ele>141.7</ele>
        <time>2023-08-16T08:22:25Z</time>
      </trkpt>
      <trkpt lat="49.76519" lon="2.23144">
        <ele>141.7</ele>
        <time>2023-08-16T08:22:26Z</time>
      </trkpt>
      <trkpt lat="49.7652" lon="2.23144">
        <ele>141.7</ele>
        <time>2023-08-16T08:22:28Z</time>
      </trkpt>
      <trkpt lat="49.76521" lon="2.23144">
        <ele>141.7</ele>
        <time>2023-08-16T08:22:29Z</time>
      </trkpt>
      <trkpt lat="49.76522" lon="2.23145">
        <ele>141.6</ele>
        <time>2023-08-16T08:22:31Z</time>
      </trkpt>
      <trkpt lat="49.76524" lon="2.23145">
        <ele>141.6</ele>
        <time>2023-08-16T08:22:32Z</time>
      </trkpt>
      <trkpt lat="49.76525" lon="2.23145">
        <ele>141.6</ele>
        <time>2023-08-16T08:22:33Z</time>
      </trkpt>
      <trkpt lat="49.76526" lon="2.23145">
        <ele>141.6</ele>
        <time>2023-08-16T08:22:34Z</time>
      </trkpt>
      <trkpt lat="49.76528" lon="2.23146">
        <ele>141.5</ele>
        <time>2023-08-16T08:22:35Z</time>
      </trkpt>
      <trkpt lat="49.76529" lon="2.23146">
        <ele>141.5</ele>
        <time>2023-08-16T08:22:36Z</time>
      </trkpt>
      <trkpt lat="49.7653" lon="2.23146">
        <ele>141.5</ele>
        <time>2023-08-16T08:22:37Z</time>
      </trkpt>
      <trkpt lat="49.76532" lon="2.23147">
        <ele>141.5</ele>
        <time>2023-08-16T08:22:39Z</time>
      </trkpt>
      <trkpt lat="49.76534" lon="2.23147">
        <ele>141.5</ele>
        <time>2023-08-16T08:22:40Z</time>
      </trkpt>
      <trkpt lat="49.76536" lon="2.23148">
        <ele>141.4</ele>
        <time>2023-08-16T08:22:41Z</time>
      </trkpt>
      <trkpt lat="49.76537" lon="2.23148">
        <ele>141.4</ele>
        <time>2023-08-16T08:22:43Z</time>
      </trkpt>
      <trkpt lat="49.76538" lon="2.23149">
        <ele>141.4</ele>
        <time>2023-08-16T08:22:44Z</time>
      </trkpt>
      <trkpt lat="49.76539" lon="2.23149">
        <ele>141.4</ele>
        <time>2023-08-16T08:22:45Z</time>
      </trkpt>
      <trkpt lat="49.7654" lon="2.23149">
        <ele>141.3</ele>
        <time>2023-08-16T08:22:46Z</time>
      </trkpt>
      <trkpt lat="49.76541" lon="2.2315">
        <ele>141.3</ele>
        <time>2023-08-16T08:22:47Z</time>
      </trkpt>
      <trkpt lat="49.76543" lon="2.2315">
        <ele>141.3</ele>
        <time>2023-08-16T08:22:49Z</time>
      </trkpt>
      <trkpt lat="49.76544" lon="2.23151">
        <ele>141.2</ele>
        <time>2023-08-16T08:22:50Z</time>
      </trkpt>
      <trkpt lat="49.76545" lon="2.23151">
        <ele>141.2</ele>
        <time>2023-08-16T08:22:51Z</time>
      </trkpt>
      <trkpt lat="49.76547" lon="2.23152">
        <ele>141.2</ele>
        <time>2023-08-16T08:22:53Z</time>
      </trkpt>
      <trkpt lat="49.76549" lon="2.23152">
        <ele>141.1</ele>
        <time>2023-08-16T08:22:54Z</time>
      </trkpt>
      <trkpt lat="49.7655" lon="2.23153">
        <ele>141.1</ele>
        <time>2023-08-16T08:22:55Z</time>
      </trkpt>
      <trkpt lat="49.76551" lon="2.23153">
        <ele>141.1</ele>
        <time>2023-08-16T08:22:56Z</time>
      </trkpt>
      <trkpt lat="49.76552" lon="2.23154">
        <ele>141</ele>
        <time>2023-08-16T08:22:57Z</time>
      </trkpt>
      <trkpt lat="49.76553" lon="2.23154">
        <ele>141</ele>
        <time>2023-08-16T08:22:58Z</time>
      </trkpt>
      <trkpt lat="49.76554" lon="2.23154">
        <ele>141</ele>
        <time>2023-08-16T08:22:59Z</time>
      </trkpt>
      <trkpt lat="49.76555" lon="2.23155">
        <ele>141</ele>
        <time>2023-08-16T08:23:00Z</time>
      </trkpt>
      <trkpt lat="49.76557" lon="2.23155">
        <ele>140.9</ele>
        <time>2023-08-16T08:23:02Z</time>
      </trkpt>
      <trkpt lat="49.76559" lon="2.23155">
        <ele>140.9</ele>
        <time>2023-08-16T08:23:03Z</time>
      </trkpt>
      <trkpt lat="49.7656" lon="2.23156">
        <ele>140.9</ele>
        <time>2023-08-16T08:23:05Z</time>
      </trkpt>
      <trkpt lat="49.76562" lon="2.23156">
        <ele>140.8</ele>
        <time>2023-08-16T08:23:06Z</time>
      </trkpt>
      <trkpt lat="49.76563" lon="2.23156">
        <ele>140.8</ele>
        <time>2023-08-16T08:23:07Z</time>
      </trkpt>
      <trkpt lat="49.76564" lon="2.23157">
        <ele>140.8</ele>
        <time>2023-08-16T08:23:08Z</time>
      </trkpt>
      <trkpt lat="49.76566" lon="2.23157">
        <ele>140.8</ele>
        <time>2023-08-16T08:23:09Z</time>
      </trkpt>
      <trkpt lat="49.76567" lon="2.23157">
        <ele>140.7</ele>
        <time>2023-08-16T08:23:10Z</time>
      </trkpt>
      <trkpt lat="49.7657" lon="2.23157">
        <ele>140.7</ele>
        <time>2023-08-16T08:23:12Z</time>
      </trkpt>
      <trkpt lat="49.76571" lon="2.23158">
        <ele>140.7</ele>
        <time>2023-08-16T08:23:13Z</time>
      </trkpt>
      <trkpt lat="49.76572" lon="2.23158">
        <ele>140.6</ele>
        <time>2023-08-16T08:23:14Z</time>
      </trkpt>
      <trkpt lat="49.76573" lon="2.23158">
        <ele>140.6</ele>
        <time>2023-08-16T08:23:15Z</time>
      </trkpt>
      <trkpt lat="49.76575" lon="2.23159">
        <ele>140.6</ele>
        <time>2023-08-16T08:23:17Z</time>
      </trkpt>
      <trkpt lat="49.76576" lon="2.23159">
        <ele>140.6</ele>
        <time>2023-08-16T08:23:18Z</time>
      </trkpt>
      <trkpt lat="49.76578" lon="2.23159">
        <ele>140.6</ele>
        <time>2023-08-16T08:23:19Z</time>
      </trkpt>
      <trkpt lat="49.76579" lon="2.2316">
        <ele>140.5</ele>
        <time>2023-08-16T08:23:20Z</time>
      </trkpt>
      <trkpt lat="49.76581" lon="2.2316">
        <ele>140.5</ele>
        <time>2023-08-16T08:23:21Z</time>
      </trkpt>
      <trkpt lat="49.76582" lon="2.2316">
        <ele>140.5</ele>
        <time>2023-08-16T08:23:22Z</time>
      </trkpt>
      <trkpt lat="49.76584" lon="2.23161">
        <ele>140.5</ele>
        <time>2023-08-16T08:23:24Z</time>
      </trkpt>
      <trkpt lat="49.76585" lon="2.23161">
        <ele>140.4</ele>
        <time>2023-08-16T08:23:25Z</time>
      </trkpt>
      <trkpt lat="49.76587" lon="2.23162">
        <ele>140.4</ele>
        <time>2023-08-16T08:23:26Z</time>
      </trkpt>
      <trkpt lat="49.76589" lon="2.23162">
        <ele>140.4</ele>
        <time>2023-08-16T08:23:27Z</time>
      </trkpt>
      <trkpt lat="49.7659" lon="2.23163">
        <ele>140.3</ele>
        <time>2023-08-16T08:23:28Z</time>
      </trkpt>
      <trkpt lat="49.76591" lon="2.23163">
        <ele>140.3</ele>
        <time>2023-08-16T08:23:29Z</time>
      </trkpt>
      <trkpt lat="49.76592" lon="2.23164">
        <ele>140.3</ele>
        <time>2023-08-16T08:23:31Z</time>
      </trkpt>
      <trkpt lat="49.76593" lon="2.23164">
        <ele>140.3</ele>
        <time>2023-08-16T08:23:32Z</time>
      </trkpt>
      <trkpt lat="49.76595" lon="2.23165">
        <ele>140.2</ele>
        <time>2023-08-16T08:23:33Z</time>
      </trkpt>
      <trkpt lat="49.76596" lon="2.23166">
        <ele>140.2</ele>
        <time>2023-08-16T08:23:34Z</time>
      </trkpt>
      <trkpt lat="49.76597" lon="2.23166">
        <ele>140.2</ele>
        <time>2023-08-16T08:23:35Z</time>
      </trkpt>
      <trkpt lat="49.76599" lon="2.23167">
        <ele>140.2</ele>
        <time>2023-08-16T08:23:37Z</time>
      </trkpt>
      <trkpt lat="49.766" lon="2.23167">
        <ele>140.1</ele>
        <time>2023-08-16T08:23:38Z</time>
      </trkpt>
      <trkpt lat="49.76602" lon="2.23168">
        <ele>140.1</ele>
        <time>2023-08-16T08:23:40Z</time>
      </trkpt>
      <trkpt lat="49.76603" lon="2.23168">
        <ele>140.1</ele>
        <time>2023-08-16T08:23:41Z</time>
      </trkpt>
      <trkpt lat="49.76604" lon="2.23169">
        <ele>140</ele>
        <time>2023-08-16T08:23:42Z</time>
      </trkpt>
      <trkpt lat="49.76605" lon="2.23169">
        <ele>140</ele>
        <time>2023-08-16T08:23:43Z</time>
      </trkpt>
      <trkpt lat="49.76606" lon="2.2317">
        <ele>140</ele>
        <time>2023-08-16T08:23:44Z</time>
      </trkpt>
      <trkpt lat="49.76607" lon="2.2317">
        <ele>139.9</ele>
        <time>2023-08-16T08:23:45Z</time>
      </trkpt>
      <trkpt lat="49.76608" lon="2.2317">
        <ele>139.9</ele>
        <time>2023-08-16T08:23:46Z</time>
      </trkpt>
      <trkpt lat="49.76609" lon="2.23171">
        <ele>139.9</ele>
        <time>2023-08-16T08:23:47Z</time>
      </trkpt>
      <trkpt lat="49.76611" lon="2.23172">
        <ele>139.8</ele>
        <time>2023-08-16T08:23:48Z</time>
      </trkpt>
      <trkpt lat="49.76612" lon="2.23172">
        <ele>139.8</ele>
        <time>2023-08-16T08:23:50Z</time>
      </trkpt>
      <trkpt lat="49.76613" lon="2.23172">
        <ele>139.8</ele>
        <time>2023-08-16T08:23:51Z</time>
      </trkpt>
      <trkpt lat="49.76616" lon="2.23173">
        <ele>139.7</ele>
        <time>2023-08-16T08:23:52Z</time>
      </trkpt>
      <trkpt lat="49.76617" lon="2.23173">
        <ele>139.7</ele>
        <time>2023-08-16T08:23:54Z</time>
      </trkpt>
      <trkpt lat="49.76618" lon="2.23173">
        <ele>139.6</ele>
        <time>2023-08-16T08:23:55Z</time>
      </trkpt>
      <trkpt lat="49.76619" lon="2.23173">
        <ele>139.6</ele>
        <time>2023-08-16T08:23:56Z</time>
      </trkpt>
      <trkpt lat="49.7662" lon="2.23173">
        <ele>139.6</ele>
        <time>2023-08-16T08:23:57Z</time>
      </trkpt>
      <trkpt lat="49.76622" lon="2.23174">
        <ele>139.5</ele>
        <time>2023-08-16T08:23:58Z</time>
      </trkpt>
      <trkpt lat="49.76623" lon="2.23174">
        <ele>139.5</ele>
        <time>2023-08-16T08:23:59Z</time>
      </trkpt>
      <trkpt lat="49.76624" lon="2.23174">
        <ele>139.5</ele>
        <time>2023-08-16T08:24:00Z</time>
      </trkpt>
      <trkpt lat="49.76626" lon="2.23174">
        <ele>139.4</ele>
        <time>2023-08-16T08:24:02Z</time>
      </trkpt>
      <trkpt lat="49.76627" lon="2.23174">
        <ele>139.4</ele>
        <time>2023-08-16T08:24:03Z</time>
      </trkpt>
      <trkpt lat="49.76629" lon="2.23174">
        <ele>139.3</ele>
        <time>2023-08-16T08:24:05Z</time>
      </trkpt>
      <trkpt lat="49.7663" lon="2.23175">
        <ele>139.3</ele>
        <time>2023-08-16T08:24:06Z</time>
      </trkpt>
      <trkpt lat="49.76632" lon="2.23175">
        <ele>139.3</ele>
        <time>2023-08-16T08:24:07Z</time>
      </trkpt>
      <trkpt lat="49.76633" lon="2.23175">
        <ele>139.2</ele>
        <time>2023-08-16T08:24:08Z</time>
      </trkpt>
      <trkpt lat="49.76635" lon="2.23175">
        <ele>139.2</ele>
        <time>2023-08-16T08:24:09Z</time>
      </trkpt>
      <trkpt lat="49.76636" lon="2.23174">
        <ele>139.2</ele>
        <time>2023-08-16T08:24:10Z</time>
      </trkpt>
      <trkpt lat="49.76638" lon="2.23174">
        <ele>139.1</ele>
        <time>2023-08-16T08:24:11Z</time>
      </trkpt>
      <trkpt lat="49.76639" lon="2.23174">
        <ele>139.1</ele>
        <time>2023-08-16T08:24:12Z</time>
      </trkpt>
      <trkpt lat="49.76641" lon="2.23173">
        <ele>139.1</ele>
        <time>2023-08-16T08:24:14Z</time>
      </trkpt>
      <trkpt lat="49.76642" lon="2.23173">
        <ele>139.1</ele>
        <time>2023-08-16T08:24:15Z</time>
      </trkpt>
      <trkpt lat="49.76644" lon="2.23172">
        <ele>139.1</ele>
        <time>2023-08-16T08:24:16Z</time>
      </trkpt>
      <trkpt lat="49.76645" lon="2.23171">
        <ele>139</ele>
        <time>2023-08-16T08:24:17Z</time>
      </trkpt>
      <trkpt lat="49.76646" lon="2.2317">
        <ele>139</ele>
        <time>2023-08-16T08:24:18Z</time>
      </trkpt>
      <trkpt lat="49.76648" lon="2.23169">
        <ele>139</ele>
        <time>2023-08-16T08:24:20Z</time>
      </trkpt>
      <trkpt lat="49.76649" lon="2.23168">
        <ele>139</ele>
        <time>2023-08-16T08:24:21Z</time>
      </trkpt>
      <trkpt lat="49.7665" lon="2.23166">
        <ele>139</ele>
        <time>2023-08-16T08:24:22Z</time>
      </trkpt>
      <trkpt lat="49.76651" lon="2.23164">
        <ele>139</ele>
        <time>2023-08-16T08:24:23Z</time>
      </trkpt>
      <trkpt lat="49.76652" lon="2.23163">
        <ele>138.9</ele>
        <time>2023-08-16T08:24:24Z</time>
      </trkpt>
      <trkpt lat="49.76653" lon="2.23162">
        <ele>138.9</ele>
        <time>2023-08-16T08:24:25Z</time>
      </trkpt>
      <trkpt lat="49.76654" lon="2.23158">
        <ele>138.9</ele>
        <time>2023-08-16T08:24:26Z</time>
      </trkpt>
      <trkpt lat="49.76654" lon="2.23157">
        <ele>138.9</ele>
        <time>2023-08-16T08:24:28Z</time>
      </trkpt>
      <trkpt lat="49.76655" lon="2.23155">
        <ele>138.9</ele>
        <time>2023-08-16T08:24:29Z</time>
      </trkpt>
      <trkpt lat="49.76655" lon="2.23154">
        <ele>138.9</ele>
        <time>2023-08-16T08:24:30Z</time>
      </trkpt>
      <trkpt lat="49.76656" lon="2.23152">
        <ele>138.9</ele>
        <time>2023-08-16T08:24:31Z</time>
      </trkpt>
      <trkpt lat="49.76656" lon="2.2315">
        <ele>138.9</ele>
        <time>2023-08-16T08:24:32Z</time>
      </trkpt>
      <trkpt lat="49.76656" lon="2.23148">
        <ele>138.9</ele>
        <time>2023-08-16T08:24:33Z</time>
      </trkpt>
      <trkpt lat="49.76656" lon="2.23146">
        <ele>138.9</ele>
        <time>2023-08-16T08:24:34Z</time>
      </trkpt>
      <trkpt lat="49.76656" lon="2.23144">
        <ele>138.9</ele>
        <time>2023-08-16T08:24:35Z</time>
      </trkpt>
      <trkpt lat="49.76657" lon="2.23142">
        <ele>138.9</ele>
        <time>2023-08-16T08:24:37Z</time>
      </trkpt>
      <trkpt lat="49.76657" lon="2.2314">
        <ele>138.9</ele>
        <time>2023-08-16T08:24:38Z</time>
      </trkpt>
      <trkpt lat="49.76657" lon="2.23137">
        <ele>138.9</ele>
        <time>2023-08-16T08:24:39Z</time>
      </trkpt>
      <trkpt lat="49.76657" lon="2.23136">
        <ele>138.9</ele>
        <time>2023-08-16T08:24:40Z</time>
      </trkpt>
      <trkpt lat="49.76657" lon="2.23134">
        <ele>138.9</ele>
        <time>2023-08-16T08:24:41Z</time>
      </trkpt>
      <trkpt lat="49.76657" lon="2.23132">
        <ele>138.9</ele>
        <time>2023-08-16T08:24:42Z</time>
      </trkpt>
      <trkpt lat="49.76657" lon="2.2313">
        <ele>138.9</ele>
        <time>2023-08-16T08:24:44Z</time>
      </trkpt>
      <trkpt lat="49.76657" lon="2.23127">
        <ele>138.9</ele>
        <time>2023-08-16T08:24:45Z</time>
      </trkpt>
      <trkpt lat="49.76657" lon="2.23125">
        <ele>138.9</ele>
        <time>2023-08-16T08:24:46Z</time>
      </trkpt>
      <trkpt lat="49.76657" lon="2.23124">
        <ele>138.9</ele>
        <time>2023-08-16T08:24:47Z</time>
      </trkpt>
      <trkpt lat="49.76658" lon="2.23121">
        <ele>138.9</ele>
        <time>2023-08-16T08:24:48Z</time>
      </trkpt>
      <trkpt lat="49.76658" lon="2.2312">
        <ele>138.9</ele>
        <time>2023-08-16T08:24:49Z</time>
      </trkpt>
      <trkpt lat="49.76658" lon="2.23118">
        <ele>138.9</ele>
        <time>2023-08-16T08:24:50Z</time>
      </trkpt>
      <trkpt lat="49.76658" lon="2.23115">
        <ele>138.9</ele>
        <time>2023-08-16T08:24:51Z</time>
      </trkpt>
      <trkpt lat="49.76659" lon="2.23114">
        <ele>138.9</ele>
        <time>2023-08-16T08:24:53Z</time>
      </trkpt>
      <trkpt lat="49.76659" lon="2.23112">
        <ele>138.9</ele>
        <time>2023-08-16T08:24:54Z</time>
      </trkpt>
      <trkpt lat="49.76659" lon="2.2311">
        <ele>138.9</ele>
        <time>2023-08-16T08:24:55Z</time>
      </trkpt>
      <trkpt lat="49.76659" lon="2.23108">
        <ele>138.9</ele>
        <time>2023-08-16T08:24:56Z</time>
      </trkpt>
      <trkpt lat="49.76659" lon="2.23105">
        <ele>138.9</ele>
        <time>2023-08-16T08:24:57Z</time>
      </trkpt>
      <trkpt lat="49.76659" lon="2.23103">
        <ele>138.9</ele>
        <time>2023-08-16T08:24:58Z</time>
      </trkpt>
      <trkpt lat="49.7666" lon="2.23102">
        <ele>138.9</ele>
        <time>2023-08-16T08:24:59Z</time>
      </trkpt>
      <trkpt lat="49.7666" lon="2.231">
        <ele>138.9</ele>
        <time>2023-08-16T08:25:01Z</time>
      </trkpt>
      <trkpt lat="49.7666" lon="2.23097">
        <ele>138.9</ele>
        <time>2023-08-16T08:25:02Z</time>
      </trkpt>
      <trkpt lat="49.76661" lon="2.23095">
        <ele>138.9</ele>
        <time>2023-08-16T08:25:03Z</time>
      </trkpt>
      <trkpt lat="49.76661" lon="2.23093">
        <ele>138.9</ele>
        <time>2023-08-16T08:25:05Z</time>
      </trkpt>
      <trkpt lat="49.76661" lon="2.2309">
        <ele>138.9</ele>
        <time>2023-08-16T08:25:06Z</time>
      </trkpt>
      <trkpt lat="49.76661" lon="2.23088">
        <ele>138.9</ele>
        <time>2023-08-16T08:25:07Z</time>
      </trkpt>
      <trkpt lat="49.76662" lon="2.23086">
        <ele>138.9</ele>
        <time>2023-08-16T08:25:08Z</time>
      </trkpt>
      <trkpt lat="49.76662" lon="2.23084">
        <ele>138.9</ele>
        <time>2023-08-16T08:25:09Z</time>
      </trkpt>
      <trkpt lat="49.76662" lon="2.23081">
        <ele>138.9</ele>
        <time>2023-08-16T08:25:11Z</time>
      </trkpt>
      <trkpt lat="49.76662" lon="2.23079">
        <ele>138.9</ele>
        <time>2023-08-16T08:25:12Z</time>
      </trkpt>
      <trkpt lat="49.76662" lon="2.23077">
        <ele>138.9</ele>
        <time>2023-08-16T08:25:13Z</time>
      </trkpt>
      <trkpt lat="49.76662" lon="2.23075">
        <ele>138.9</ele>
        <time>2023-08-16T08:25:14Z</time>
      </trkpt>
      <trkpt lat="49.76662" lon="2.23072">
        <ele>138.9</ele>
        <time>2023-08-16T08:25:15Z</time>
      </trkpt>
      <trkpt lat="49.76662" lon="2.2307">
        <ele>138.9</ele>
        <time>2023-08-16T08:25:16Z</time>
      </trkpt>
      <trkpt lat="49.76662" lon="2.23068">
        <ele>138.9</ele>
        <time>2023-08-16T08:25:17Z</time>
      </trkpt>
      <trkpt lat="49.76663" lon="2.23066">
        <ele>138.9</ele>
        <time>2023-08-16T08:25:19Z</time>
      </trkpt>
      <trkpt lat="49.76663" lon="2.23064">
        <ele>138.9</ele>
        <time>2023-08-16T08:25:20Z</time>
      </trkpt>
      <trkpt lat="49.76663" lon="2.23062">
        <ele>138.9</ele>
        <time>2023-08-16T08:25:21Z</time>
      </trkpt>
      <trkpt lat="49.76664" lon="2.23058">
        <ele>138.9</ele>
        <time>2023-08-16T08:25:22Z</time>
      </trkpt>
      <trkpt lat="49.76664" lon="2.23057">
        <ele>138.9</ele>
        <time>2023-08-16T08:25:23Z</time>
      </trkpt>
      <trkpt lat="49.76664" lon="2.23056">
        <ele>138.9</ele>
        <time>2023-08-16T08:25:24Z</time>
      </trkpt>
      <trkpt lat="49.76665" lon="2.23053">
        <ele>138.9</ele>
        <time>2023-08-16T08:25:25Z</time>
      </trkpt>
      <trkpt lat="49.76665" lon="2.23051">
        <ele>138.9</ele>
        <time>2023-08-16T08:25:26Z</time>
      </trkpt>
      <trkpt lat="49.76665" lon="2.2305">
        <ele>138.9</ele>
        <time>2023-08-16T08:25:27Z</time>
      </trkpt>
      <trkpt lat="49.76665" lon="2.23048">
        <ele>138.9</ele>
        <time>2023-08-16T08:25:29Z</time>
      </trkpt>
      <trkpt lat="49.76665" lon="2.23045">
        <ele>138.9</ele>
        <time>2023-08-16T08:25:30Z</time>
      </trkpt>
      <trkpt lat="49.76665" lon="2.23044">
        <ele>138.9</ele>
        <time>2023-08-16T08:25:31Z</time>
      </trkpt>
      <trkpt lat="49.76665" lon="2.23042">
        <ele>138.9</ele>
        <time>2023-08-16T08:25:32Z</time>
      </trkpt>
      <trkpt lat="49.76665" lon="2.2304">
        <ele>138.9</ele>
        <time>2023-08-16T08:25:34Z</time>
      </trkpt>
      <trkpt lat="49.76665" lon="2.23037">
        <ele>138.9</ele>
        <time>2023-08-16T08:25:35Z</time>
      </trkpt>
      <trkpt lat="49.76665" lon="2.23035">
        <ele>138.9</ele>
        <time>2023-08-16T08:25:36Z</time>
      </trkpt>
      <trkpt lat="49.76664" lon="2.23032">
        <ele>138.9</ele>
        <time>2023-08-16T08:25:37Z</time>
      </trkpt>
      <trkpt lat="49.76664" lon="2.2303">
        <ele>138.9</ele>
        <time>2023-08-16T08:25:38Z</time>
      </trkpt>
      <trkpt lat="49.76664" lon="2.23029">
        <ele>138.9</ele>
        <time>2023-08-16T08:25:39Z</time>
      </trkpt>
      <trkpt lat="49.76664" lon="2.23026">
        <ele>138.9</ele>
        <time>2023-08-16T08:25:41Z</time>
      </trkpt>
      <trkpt lat="49.76665" lon="2.23024">
        <ele>138.9</ele>
        <time>2023-08-16T08:25:42Z</time>
      </trkpt>
      <trkpt lat="49.76665" lon="2.23023">
        <ele>138.9</ele>
        <time>2023-08-16T08:25:43Z</time>
      </trkpt>
      <trkpt lat="49.76665" lon="2.23021">
        <ele>138.9</ele>
        <time>2023-08-16T08:25:44Z</time>
      </trkpt>
      <trkpt lat="49.76665" lon="2.23019">
        <ele>138.9</ele>
        <time>2023-08-16T08:25:45Z</time>
      </trkpt>
      <trkpt lat="49.76665" lon="2.23015">
        <ele>138.9</ele>
        <time>2023-08-16T08:25:47Z</time>
      </trkpt>
      <trkpt lat="49.76665" lon="2.23014">
        <ele>138.9</ele>
        <time>2023-08-16T08:25:48Z</time>
      </trkpt>
      <trkpt lat="49.76665" lon="2.23012">
        <ele>138.9</ele>
        <time>2023-08-16T08:25:49Z</time>
      </trkpt>
      <trkpt lat="49.76665" lon="2.23011">
        <ele>138.9</ele>
        <time>2023-08-16T08:25:50Z</time>
      </trkpt>
      <trkpt lat="49.76665" lon="2.23009">
        <ele>138.9</ele>
        <time>2023-08-16T08:25:51Z</time>
      </trkpt>
      <trkpt lat="49.76665" lon="2.23007">
        <ele>138.9</ele>
        <time>2023-08-16T08:25:52Z</time>
      </trkpt>
      <trkpt lat="49.76665" lon="2.23005">
        <ele>138.9</ele>
        <time>2023-08-16T08:25:54Z</time>
      </trkpt>
      <trkpt lat="49.76665" lon="2.23003">
        <ele>138.9</ele>
        <time>2023-08-16T08:25:55Z</time>
      </trkpt>
      <trkpt lat="49.76665" lon="2.23001">
        <ele>138.9</ele>
        <time>2023-08-16T08:25:56Z</time>
      </trkpt>
      <trkpt lat="49.76665" lon="2.22999">
        <ele>138.9</ele>
        <time>2023-08-16T08:25:57Z</time>
      </trkpt>
      <trkpt lat="49.76665" lon="2.22997">
        <ele>138.9</ele>
        <time>2023-08-16T08:25:58Z</time>
      </trkpt>
      <trkpt lat="49.76665" lon="2.22996">
        <ele>138.9</ele>
        <time>2023-08-16T08:25:59Z</time>
      </trkpt>
      <trkpt lat="49.76665" lon="2.22994">
        <ele>138.9</ele>
        <time>2023-08-16T08:26:01Z</time>
      </trkpt>
      <trkpt lat="49.76665" lon="2.22991">
        <ele>139</ele>
        <time>2023-08-16T08:26:02Z</time>
      </trkpt>
      <trkpt lat="49.76666" lon="2.22989">
        <ele>139</ele>
        <time>2023-08-16T08:26:04Z</time>
      </trkpt>
      <trkpt lat="49.76666" lon="2.22987">
        <ele>139</ele>
        <time>2023-08-16T08:26:05Z</time>
      </trkpt>
      <trkpt lat="49.76666" lon="2.22985">
        <ele>139</ele>
        <time>2023-08-16T08:26:06Z</time>
      </trkpt>
      <trkpt lat="49.76666" lon="2.22981">
        <ele>139</ele>
        <time>2023-08-16T08:26:07Z</time>
      </trkpt>
      <trkpt lat="49.76666" lon="2.2298">
        <ele>139</ele>
        <time>2023-08-16T08:26:08Z</time>
      </trkpt>
      <trkpt lat="49.76666" lon="2.22979">
        <ele>139</ele>
        <time>2023-08-16T08:26:09Z</time>
      </trkpt>
      <trkpt lat="49.76665" lon="2.22977">
        <ele>139</ele>
        <time>2023-08-16T08:26:10Z</time>
      </trkpt>
      <trkpt lat="49.76665" lon="2.22975">
        <ele>139</ele>
        <time>2023-08-16T08:26:11Z</time>
      </trkpt>
      <trkpt lat="49.76665" lon="2.22973">
        <ele>139</ele>
        <time>2023-08-16T08:26:12Z</time>
      </trkpt>
      <trkpt lat="49.76664" lon="2.22971">
        <ele>139</ele>
        <time>2023-08-16T08:26:14Z</time>
      </trkpt>
      <trkpt lat="49.76664" lon="2.22969">
        <ele>139</ele>
        <time>2023-08-16T08:26:15Z</time>
      </trkpt>
      <trkpt lat="49.76664" lon="2.22967">
        <ele>139</ele>
        <time>2023-08-16T08:26:16Z</time>
      </trkpt>
      <trkpt lat="49.76664" lon="2.22965">
        <ele>139.1</ele>
        <time>2023-08-16T08:26:17Z</time>
      </trkpt>
      <trkpt lat="49.76664" lon="2.22962">
        <ele>139.1</ele>
        <time>2023-08-16T08:26:18Z</time>
      </trkpt>
      <trkpt lat="49.76664" lon="2.2296">
        <ele>139.1</ele>
        <time>2023-08-16T08:26:19Z</time>
      </trkpt>
      <trkpt lat="49.76664" lon="2.22957">
        <ele>139.1</ele>
        <time>2023-08-16T08:26:20Z</time>
      </trkpt>
      <trkpt lat="49.76664" lon="2.22955">
        <ele>139.1</ele>
        <time>2023-08-16T08:26:21Z</time>
      </trkpt>
      <trkpt lat="49.76664" lon="2.22954">
        <ele>139.1</ele>
        <time>2023-08-16T08:26:22Z</time>
      </trkpt>
      <trkpt lat="49.76664" lon="2.22952">
        <ele>139.1</ele>
        <time>2023-08-16T08:26:24Z</time>
      </trkpt>
      <trkpt lat="49.76664" lon="2.2295">
        <ele>139.1</ele>
        <time>2023-08-16T08:26:25Z</time>
      </trkpt>
      <trkpt lat="49.76664" lon="2.22947">
        <ele>139.1</ele>
        <time>2023-08-16T08:26:26Z</time>
      </trkpt>
      <trkpt lat="49.76664" lon="2.22945">
        <ele>139.1</ele>
        <time>2023-08-16T08:26:27Z</time>
      </trkpt>
      <trkpt lat="49.76664" lon="2.22943">
        <ele>139.1</ele>
        <time>2023-08-16T08:26:28Z</time>
      </trkpt>
      <trkpt lat="49.76664" lon="2.22941">
        <ele>139.2</ele>
        <time>2023-08-16T08:26:29Z</time>
      </trkpt>
      <trkpt lat="49.76664" lon="2.22939">
        <ele>139.2</ele>
        <time>2023-08-16T08:26:30Z</time>
      </trkpt>
      <trkpt lat="49.76664" lon="2.22937">
        <ele>139.2</ele>
        <time>2023-08-16T08:26:31Z</time>
      </trkpt>
      <trkpt lat="49.76664" lon="2.22935">
        <ele>139.2</ele>
        <time>2023-08-16T08:26:33Z</time>
      </trkpt>
      <trkpt lat="49.76663" lon="2.22932">
        <ele>139.2</ele>
        <time>2023-08-16T08:26:34Z</time>
      </trkpt>
      <trkpt lat="49.76663" lon="2.2293">
        <ele>139.2</ele>
        <time>2023-08-16T08:26:35Z</time>
      </trkpt>
      <trkpt lat="49.76663" lon="2.22929">
        <ele>139.2</ele>
        <time>2023-08-16T08:26:36Z</time>
      </trkpt>
      <trkpt lat="49.76663" lon="2.22926">
        <ele>139.3</ele>
        <time>2023-08-16T08:26:37Z</time>
      </trkpt>
      <trkpt lat="49.76663" lon="2.22924">
        <ele>139.3</ele>
        <time>2023-08-16T08:26:38Z</time>
      </trkpt>
      <trkpt lat="49.76663" lon="2.22923">
        <ele>139.3</ele>
        <time>2023-08-16T08:26:39Z</time>
      </trkpt>
      <trkpt lat="49.76662" lon="2.2292">
        <ele>139.3</ele>
        <time>2023-08-16T08:26:40Z</time>
      </trkpt>
      <trkpt lat="49.76662" lon="2.22919">
        <ele>139.3</ele>
        <time>2023-08-16T08:26:42Z</time>
      </trkpt>
      <trkpt lat="49.76662" lon="2.22917">
        <ele>139.3</ele>
        <time>2023-08-16T08:26:43Z</time>
      </trkpt>
      <trkpt lat="49.76662" lon="2.22914">
        <ele>139.4</ele>
        <time>2023-08-16T08:26:44Z</time>
      </trkpt>
      <trkpt lat="49.76662" lon="2.22913">
        <ele>139.4</ele>
        <time>2023-08-16T08:26:45Z</time>
      </trkpt>
      <trkpt lat="49.76662" lon="2.22911">
        <ele>139.4</ele>
        <time>2023-08-16T08:26:46Z</time>
      </trkpt>
      <trkpt lat="49.76662" lon="2.2291">
        <ele>139.4</ele>
        <time>2023-08-16T08:26:47Z</time>
      </trkpt>
      <trkpt lat="49.76662" lon="2.22908">
        <ele>139.4</ele>
        <time>2023-08-16T08:26:49Z</time>
      </trkpt>
      <trkpt lat="49.76662" lon="2.22906">
        <ele>139.4</ele>
        <time>2023-08-16T08:26:50Z</time>
      </trkpt>
      <trkpt lat="49.76662" lon="2.22903">
        <ele>139.4</ele>
        <time>2023-08-16T08:26:51Z</time>
      </trkpt>
      <trkpt lat="49.76662" lon="2.22902">
        <ele>139.5</ele>
        <time>2023-08-16T08:26:52Z</time>
      </trkpt>
      <trkpt lat="49.76662" lon="2.22901">
        <ele>139.5</ele>
        <time>2023-08-16T08:26:53Z</time>
      </trkpt>
      <trkpt lat="49.76662" lon="2.22898">
        <ele>139.5</ele>
        <time>2023-08-16T08:26:55Z</time>
      </trkpt>
      <trkpt lat="49.76662" lon="2.22896">
        <ele>139.5</ele>
        <time>2023-08-16T08:26:56Z</time>
      </trkpt>
      <trkpt lat="49.76662" lon="2.22895">
        <ele>139.5</ele>
        <time>2023-08-16T08:26:57Z</time>
      </trkpt>
      <trkpt lat="49.76662" lon="2.22892">
        <ele>139.5</ele>
        <time>2023-08-16T08:26:59Z</time>
      </trkpt>
      <trkpt lat="49.76662" lon="2.22891">
        <ele>139.5</ele>
        <time>2023-08-16T08:27:00Z</time>
      </trkpt>
      <trkpt lat="49.76662" lon="2.22889">
        <ele>139.6</ele>
        <time>2023-08-16T08:27:01Z</time>
      </trkpt>
      <trkpt lat="49.76662" lon="2.22888">
        <ele>139.6</ele>
        <time>2023-08-16T08:27:02Z</time>
      </trkpt>
      <trkpt lat="49.76662" lon="2.22887">
        <ele>139.6</ele>
        <time>2023-08-16T08:27:03Z</time>
      </trkpt>
      <trkpt lat="49.76663" lon="2.22886">
        <ele>139.6</ele>
        <time>2023-08-16T08:27:04Z</time>
      </trkpt>
      <trkpt lat="49.76663" lon="2.22884">
        <ele>139.6</ele>
        <time>2023-08-16T08:27:05Z</time>
      </trkpt>
      <trkpt lat="49.76663" lon="2.22882">
        <ele>139.6</ele>
        <time>2023-08-16T08:27:07Z</time>
      </trkpt>
      <trkpt lat="49.76664" lon="2.22881">
        <ele>139.6</ele>
        <time>2023-08-16T08:27:08Z</time>
      </trkpt>
      <trkpt lat="49.76664" lon="2.2288">
        <ele>139.6</ele>
        <time>2023-08-16T08:27:09Z</time>
      </trkpt>
      <trkpt lat="49.76665" lon="2.22878">
        <ele>139.7</ele>
        <time>2023-08-16T08:27:10Z</time>
      </trkpt>
      <trkpt lat="49.76665" lon="2.22876">
        <ele>139.7</ele>
        <time>2023-08-16T08:27:11Z</time>
      </trkpt>
      <trkpt lat="49.76665" lon="2.22875">
        <ele>139.7</ele>
        <time>2023-08-16T08:27:12Z</time>
      </trkpt>
      <trkpt lat="49.76665" lon="2.22874">
        <ele>139.7</ele>
        <time>2023-08-16T08:27:13Z</time>
      </trkpt>
      <trkpt lat="49.76665" lon="2.22873">
        <ele>139.7</ele>
        <time>2023-08-16T08:27:15Z</time>
      </trkpt>
      <trkpt lat="49.76665" lon="2.22873">
        <ele>139.7</ele>
        <time>2023-08-16T08:27:16Z</time>
      </trkpt>
      <trkpt lat="49.76665" lon="2.22873">
        <ele>139.7</ele>
        <time>2023-08-16T08:27:18Z</time>
      </trkpt>
      <trkpt lat="49.76665" lon="2.22874">
        <ele>139.7</ele>
        <time>2023-08-16T08:27:19Z</time>
      </trkpt>
      <trkpt lat="49.76665" lon="2.22874">
        <ele>139.7</ele>
        <time>2023-08-16T08:27:20Z</time>
      </trkpt>
      <trkpt lat="49.76665" lon="2.22875">
        <ele>139.7</ele>
        <time>2023-08-16T08:27:22Z</time>
      </trkpt>
      <trkpt lat="49.76665" lon="2.22875">
        <ele>139.7</ele>
        <time>2023-08-16T08:27:23Z</time>
      </trkpt>
      <trkpt lat="49.76665" lon="2.22875">
        <ele>139.7</ele>
        <time>2023-08-16T08:27:25Z</time>
      </trkpt>
      <trkpt lat="49.76665" lon="2.22875">
        <ele>139.7</ele>
        <time>2023-08-16T08:27:26Z</time>
      </trkpt>
      <trkpt lat="49.76665" lon="2.22875">
        <ele>139.7</ele>
        <time>2023-08-16T08:27:28Z</time>
      </trkpt>
      <trkpt lat="49.76665" lon="2.22875">
        <ele>139.7</ele>
        <time>2023-08-16T08:27:29Z</time>
      </trkpt>
      <trkpt lat="49.76665" lon="2.22875">
        <ele>139.7</ele>
        <time>2023-08-16T08:27:30Z</time>
      </trkpt>
      <trkpt lat="49.76665" lon="2.2288">
        <ele>139.8</ele>
        <time>2023-08-16T08:27:31Z</time>
      </trkpt>
      <trkpt lat="49.76665" lon="2.22882">
        <ele>139.8</ele>
        <time>2023-08-16T08:27:32Z</time>
      </trkpt>
      <trkpt lat="49.76665" lon="2.22882">
        <ele>139.8</ele>
        <time>2023-08-16T08:27:33Z</time>
      </trkpt>
      <trkpt lat="49.76665" lon="2.22882">
        <ele>139.8</ele>
        <time>2023-08-16T08:27:34Z</time>
      </trkpt>
      <trkpt lat="49.76666" lon="2.22882">
        <ele>139.8</ele>
        <time>2023-08-16T08:27:35Z</time>
      </trkpt>
      <trkpt lat="49.76666" lon="2.22882">
        <ele>139.8</ele>
        <time>2023-08-16T08:27:36Z</time>
      </trkpt>
      <trkpt lat="49.76666" lon="2.22882">
        <ele>139.8</ele>
        <time>2023-08-16T08:27:37Z</time>
      </trkpt>
      <trkpt lat="49.76666" lon="2.22882">
        <ele>139.8</ele>
        <time>2023-08-16T08:27:38Z</time>
      </trkpt>
      <trkpt lat="49.76666" lon="2.22883">
        <ele>139.8</ele>
        <time>2023-08-16T08:27:39Z</time>
      </trkpt>
      <trkpt lat="49.76666" lon="2.22883">
        <ele>139.8</ele>
        <time>2023-08-16T08:27:40Z</time>
      </trkpt>
      <trkpt lat="49.76666" lon="2.22883">
        <ele>139.8</ele>
        <time>2023-08-16T08:27:41Z</time>
      </trkpt>
      <trkpt lat="49.76666" lon="2.22883">
        <ele>139.8</ele>
        <time>2023-08-16T08:27:42Z</time>
      </trkpt>
      <trkpt lat="49.76666" lon="2.22883">
        <ele>139.8</ele>
        <time>2023-08-16T08:27:43Z</time>
      </trkpt>
      <trkpt lat="49.76666" lon="2.22883">
        <ele>139.8</ele>
        <time>2023-08-16T08:27:44Z</time>
      </trkpt>
      <trkpt lat="49.76666" lon="2.22883">
        <ele>139.8</ele>
        <time>2023-08-16T08:27:45Z</time>
      </trkpt>
      <trkpt lat="49.76666" lon="2.22883">
        <ele>139.8</ele>
        <time>2023-08-16T08:27:46Z</time>
      </trkpt>
      <trkpt lat="49.76666" lon="2.22883">
        <ele>139.8</ele>
        <time>2023-08-16T08:27:47Z</time>
      </trkpt>
      <trkpt lat="49.76666" lon="2.22883">
        <ele>139.8</ele>
        <time>2023-08-16T08:27:48Z</time>
      </trkpt>
      <trkpt lat="49.76666" lon="2.22883">
        <ele>139.8</ele>
        <time>2023-08-16T08:27:49Z</time>
      </trkpt>
      <trkpt lat="49.76666" lon="2.22883">
        <ele>139.8</ele>
        <time>2023-08-16T08:27:50Z</time>
      </trkpt>
      <trkpt lat="49.76666" lon="2.22883">
        <ele>139.8</ele>
        <time>2023-08-16T08:27:51Z</time>
      </trkpt>
      <trkpt lat="49.76666" lon="2.22883">
        <ele>139.8</ele>
        <time>2023-08-16T08:27:52Z</time>
      </trkpt>
      <trkpt lat="49.76666" lon="2.22883">
        <ele>139.8</ele>
        <time>2023-08-16T08:27:53Z</time>
      </trkpt>
      <trkpt lat="49.76666" lon="2.22883">
        <ele>139.8</ele>
        <time>2023-08-16T08:27:54Z</time>
      </trkpt>
      <trkpt lat="49.76666" lon="2.22883">
        <ele>139.8</ele>
        <time>2023-08-16T08:27:55Z</time>
      </trkpt>
      <trkpt lat="49.76666" lon="2.22883">
        <ele>139.8</ele>
        <time>2023-08-16T08:27:56Z</time>
      </trkpt>
      <trkpt lat="49.76666" lon="2.22883">
        <ele>139.8</ele>
        <time>2023-08-16T08:27:57Z</time>
      </trkpt>
      <trkpt lat="49.76666" lon="2.22883">
        <ele>139.8</ele>
        <time>2023-08-16T08:27:58Z</time>
      </trkpt>
      <trkpt lat="49.76666" lon="2.22883">
        <ele>139.8</ele>
        <time>2023-08-16T08:27:59Z</time>
      </trkpt>
      <trkpt lat="49.76666" lon="2.22883">
        <ele>139.8</ele>
        <time>2023-08-16T08:28:00Z</time>
      </trkpt>
      <trkpt lat="49.76666" lon="2.22883">
        <ele>139.8</ele>
        <time>2023-08-16T08:28:01Z</time>
      </trkpt>
      <trkpt lat="49.76666" lon="2.22883">
        <ele>139.8</ele>
        <time>2023-08-16T08:28:02Z</time>
      </trkpt>
      <trkpt lat="49.76666" lon="2.22883">
        <ele>139.8</ele>
        <time>2023-08-16T08:28:03Z</time>
      </trkpt>
      <trkpt lat="49.76666" lon="2.22883">
        <ele>139.8</ele>
        <time>2023-08-16T08:28:04Z</time>
      </trkpt>
      <trkpt lat="49.76666" lon="2.22883">
        <ele>139.8</ele>
        <time>2023-08-16T08:28:05Z</time>
      </trkpt>
      <trkpt lat="49.76666" lon="2.22883">
        <ele>139.8</ele>
        <time>2023-08-16T08:28:06Z</time>
      </trkpt>
      <trkpt lat="49.76666" lon="2.22883">
        <ele>139.8</ele>
        <time>2023-08-16T08:28:07Z</time>
      </trkpt>
      <trkpt lat="49.76666" lon="2.22883">
        <ele>139.8</ele>
        <time>2023-08-16T08:28:08Z</time>
      </trkpt>
      <trkpt lat="49.76666" lon="2.22883">
        <ele>139.8</ele>
        <time>2023-08-16T08:28:09Z</time>
      </trkpt>
      <trkpt lat="49.76666" lon="2.22883">
        <ele>139.8</ele>
        <time>2023-08-16T08:28:10Z</time>
      </trkpt>
      <trkpt lat="49.76666" lon="2.22883">
        <ele>139.8</ele>
        <time>2023-08-16T08:28:11Z</time>
      </trkpt>
      <trkpt lat="49.76666" lon="2.22883">
        <ele>139.8</ele>
        <time>2023-08-16T08:28:12Z</time>
      </trkpt>
      <trkpt lat="49.76666" lon="2.22883">
        <ele>139.8</ele>
        <time>2023-08-16T08:28:13Z</time>
      </trkpt>
      <trkpt lat="49.76666" lon="2.22883">
        <ele>139.8</ele>
        <time>2023-08-16T08:28:14Z</time>
      </trkpt>
      <trkpt lat="49.76666" lon="2.22883">
        <ele>139.8</ele>
        <time>2023-08-16T08:28:15Z</time>
      </trkpt>
      <trkpt lat="49.76666" lon="2.22883">
        <ele>139.8</ele>
        <time>2023-08-16T08:28:16Z</time>
      </trkpt>
      <trkpt lat="49.76666" lon="2.22883">
        <ele>139.8</ele>
        <time>2023-08-16T08:28:17Z</time>
      </trkpt>
      <trkpt lat="49.76666" lon="2.22883">
        <ele>139.8</ele>
        <time>2023-08-16T08:28:18Z</time>
      </trkpt>
      <trkpt lat="49.76666" lon="2.22883">
        <ele>139.8</ele>
        <time>2023-08-16T08:28:19Z</time>
      </trkpt>
      <trkpt lat="49.76666" lon="2.22883">
        <ele>139.8</ele>
        <time>2023-08-16T08:28:20Z</time>
      </trkpt>
      <trkpt lat="49.76666" lon="2.22883">
        <ele>139.8</ele>
        <time>2023-08-16T08:28:21Z</time>
      </trkpt>
      <trkpt lat="49.76666" lon="2.22883">
        <ele>139.8</ele>
        <time>2023-08-16T08:28:22Z</time>
      </trkpt>
      <trkpt lat="49.76666" lon="2.22883">
        <ele>139.8</ele>
        <time>2023-08-16T08:28:23Z</time>
      </trkpt>
      <trkpt lat="49.76666" lon="2.22883">
        <ele>139.8</ele>
        <time>2023-08-16T08:28:24Z</time>
      </trkpt>
      <trkpt lat="49.76666" lon="2.22883">
        <ele>139.8</ele>
        <time>2023-08-16T08:28:25Z</time>
      </trkpt>
      <trkpt lat="49.76666" lon="2.22883">
        <ele>139.8</ele>
        <time>2023-08-16T08:28:26Z</time>
      </trkpt>
      <trkpt lat="49.76666" lon="2.22883">
        <ele>139.8</ele>
        <time>2023-08-16T08:28:27Z</time>
      </trkpt>
      <trkpt lat="49.76666" lon="2.22883">
        <ele>139.8</ele>
        <time>2023-08-16T08:28:28Z</time>
      </trkpt>
      <trkpt lat="49.76666" lon="2.22883">
        <ele>139.8</ele>
        <time>2023-08-16T08:28:29Z</time>
      </trkpt>
      <trkpt lat="49.76666" lon="2.22883">
        <ele>139.8</ele>
        <time>2023-08-16T08:28:30Z</time>
      </trkpt>
      <trkpt lat="49.76666" lon="2.22883">
        <ele>139.8</ele>
        <time>2023-08-16T08:28:31Z</time>
      </trkpt>
      <trkpt lat="49.76666" lon="2.22883">
        <ele>139.8</ele>
        <time>2023-08-16T08:28:32Z</time>
      </trkpt>
      <trkpt lat="49.76666" lon="2.22883">
        <ele>139.8</ele>
        <time>2023-08-16T08:28:33Z</time>
      </trkpt>
      <trkpt lat="49.76666" lon="2.22883">
        <ele>139.8</ele>
        <time>2023-08-16T08:28:34Z</time>
      </trkpt>
      <trkpt lat="49.76666" lon="2.22883">
        <ele>139.8</ele>
        <time>2023-08-16T08:28:35Z</time>
      </trkpt>
      <trkpt lat="49.76666" lon="2.22883">
        <ele>139.8</ele>
        <time>2023-08-16T08:28:36Z</time>
      </trkpt>
      <trkpt lat="49.76666" lon="2.22883">
        <ele>139.8</ele>
        <time>2023-08-16T08:28:37Z</time>
      </trkpt>
      <trkpt lat="49.76666" lon="2.22883">
        <ele>139.8</ele>
        <time>2023-08-16T08:28:38Z</time>
      </trkpt>
      <trkpt lat="49.76666" lon="2.22883">
        <ele>139.8</ele>
        <time>2023-08-16T08:28:39Z</time>
      </trkpt>
      <trkpt lat="49.76666" lon="2.22883">
        <ele>139.8</ele>
        <time>2023-08-16T08:28:40Z</time>
      </trkpt>
      <trkpt lat="49.76666" lon="2.22883">
        <ele>139.8</ele>
        <time>2023-08-16T08:28:41Z</time>
      </trkpt>
      <trkpt lat="49.76666" lon="2.22883">
        <ele>139.8</ele>
        <time>2023-08-16T08:28:42Z</time>
      </trkpt>
      <trkpt lat="49.76666" lon="2.22883">
        <ele>139.8</ele>
        <time>2023-08-16T08:28:43Z</time>
      </trkpt>
      <trkpt lat="49.76666" lon="2.22883">
        <ele>139.8</ele>
        <time>2023-08-16T08:28:44Z</time>
      </trkpt>
      <trkpt lat="49.76666" lon="2.22883">
        <ele>139.8</ele>
        <time>2023-08-16T08:28:45Z</time>
      </trkpt>
      <trkpt lat="49.76666" lon="2.22883">
        <ele>139.8</ele>
        <time>2023-08-16T08:28:46Z</time>
      </trkpt>
      <trkpt lat="49.76666" lon="2.22883">
        <ele>139.8</ele>
        <time>2023-08-16T08:28:47Z</time>
      </trkpt>
      <trkpt lat="49.76666" lon="2.22883">
        <ele>139.8</ele>
        <time>2023-08-16T08:28:48Z</time>
      </trkpt>
      <trkpt lat="49.76666" lon="2.22883">
        <ele>139.8</ele>
        <time>2023-08-16T08:28:49Z</time>
      </trkpt>
      <trkpt lat="49.76666" lon="2.22883">
        <ele>139.8</ele>
        <time>2023-08-16T08:28:50Z</time>
      </trkpt>
      <trkpt lat="49.76666" lon="2.22883">
        <ele>139.8</ele>
        <time>2023-08-16T08:28:51Z</time>
      </trkpt>
      <trkpt lat="49.76666" lon="2.22883">
        <ele>139.8</ele>
        <time>2023-08-16T08:28:52Z</time>
      </trkpt>
      <trkpt lat="49.76666" lon="2.22883">
        <ele>139.8</ele>
        <time>2023-08-16T08:28:53Z</time>
      </trkpt>
      <trkpt lat="49.76666" lon="2.22883">
        <ele>139.8</ele>
        <time>2023-08-16T08:28:54Z</time>
      </trkpt>
      <trkpt lat="49.76666" lon="2.22883">
        <ele>139.8</ele>
        <time>2023-08-16T08:28:55Z</time>
      </trkpt>
      <trkpt lat="49.76666" lon="2.22883">
        <ele>139.8</ele>
        <time>2023-08-16T08:28:56Z</time>
      </trkpt>
      <trkpt lat="49.76666" lon="2.22883">
        <ele>139.8</ele>
        <time>2023-08-16T08:28:57Z</time>
      </trkpt>
      <trkpt lat="49.76666" lon="2.22883">
        <ele>139.8</ele>
        <time>2023-08-16T08:28:58Z</time>
      </trkpt>
      <trkpt lat="49.76666" lon="2.22883">
        <ele>139.8</ele>
        <time>2023-08-16T08:28:59Z</time>
      </trkpt>
      <trkpt lat="49.76666" lon="2.22883">
        <ele>139.8</ele>
        <time>2023-08-16T08:29:00Z</time>
      </trkpt>
      <trkpt lat="49.76666" lon="2.22883">
        <ele>139.8</ele>
        <time>2023-08-16T08:29:01Z</time>
      </trkpt>
      <trkpt lat="49.76666" lon="2.22883">
        <ele>139.8</ele>
        <time>2023-08-16T08:29:02Z</time>
      </trkpt>
      <trkpt lat="49.76666" lon="2.22883">
        <ele>139.8</ele>
        <time>2023-08-16T08:29:03Z</time>
      </trkpt>
      <trkpt lat="49.76666" lon="2.22883">
        <ele>139.8</ele>
        <time>2023-08-16T08:29:04Z</time>
      </trkpt>
      <trkpt lat="49.76666" lon="2.22883">
        <ele>139.8</ele>
        <time>2023-08-16T08:29:05Z</time>
      </trkpt>
      <trkpt lat="49.76666" lon="2.22883">
        <ele>139.8</ele>
        <time>2023-08-16T08:29:06Z</time>
      </trkpt>
      <trkpt lat="49.76666" lon="2.22883">
        <ele>139.8</ele>
        <time>2023-08-16T08:29:07Z</time>
      </trkpt>
      <trkpt lat="49.76666" lon="2.22883">
        <ele>139.8</ele>
        <time>2023-08-16T08:29:08Z</time>
      </trkpt>
      <trkpt lat="49.76666" lon="2.22883">
        <ele>139.8</ele>
        <time>2023-08-16T08:29:09Z</time>
      </trkpt>
      <trkpt lat="49.76666" lon="2.22883">
        <ele>139.8</ele>
        <time>2023-08-16T08:29:10Z</time>
      </trkpt>
      <trkpt lat="49.76666" lon="2.22883">
        <ele>139.8</ele>
        <time>2023-08-16T08:29:11Z</time>
      </trkpt>
      <trkpt lat="49.76666" lon="2.22883">
        <ele>139.8</ele>
        <time>2023-08-16T08:29:12Z</time>
      </trkpt>
      <trkpt lat="49.76666" lon="2.22883">
        <ele>139.8</ele>
        <time>2023-08-16T08:29:13Z</time>
      </trkpt>
      <trkpt lat="49.76666" lon="2.22883">
        <ele>139.8</ele>
        <time>2023-08-16T08:29:14Z</time>
      </trkpt>
      <trkpt lat="49.76666" lon="2.22883">
        <ele>139.8</ele>
        <time>2023-08-16T08:29:15Z</time>
      </trkpt>
      <trkpt lat="49.76666" lon="2.22883">
        <ele>139.8</ele>
        <time>2023-08-16T08:29:16Z</time>
      </trkpt>
      <trkpt lat="49.76666" lon="2.22883">
        <ele>139.8</ele>
        <time>2023-08-16T08:29:17Z</time>
      </trkpt>
      <trkpt lat="49.76666" lon="2.22883">
        <ele>139.8</ele>
        <time>2023-08-16T08:29:18Z</time>
      </trkpt>
      <trkpt lat="49.76666" lon="2.22883">
        <ele>139.8</ele>
        <time>2023-08-16T08:29:19Z</time>
      </trkpt>
      <trkpt lat="49.76666" lon="2.22883">
        <ele>139.8</ele>
        <time>2023-08-16T08:29:20Z</time>
      </trkpt>
      <trkpt lat="49.76666" lon="2.22883">
        <ele>139.8</ele>
        <time>2023-08-16T08:29:21Z</time>
      </trkpt>
      <trkpt lat="49.76666" lon="2.22883">
        <ele>139.8</ele>
        <time>2023-08-16T08:29:22Z</time>
      </trkpt>
      <trkpt lat="49.76666" lon="2.22883">
        <ele>139.8</ele>
        <time>2023-08-16T08:29:23Z</time>
      </trkpt>
      <trkpt lat="49.76666" lon="2.22883">
        <ele>139.8</ele>
        <time>2023-08-16T08:29:24Z</time>
      </trkpt>
      <trkpt lat="49.76666" lon="2.22883">
        <ele>139.8</ele>
        <time>2023-08-16T08:29:25Z</time>
      </trkpt>
      <trkpt lat="49.76666" lon="2.22883">
        <ele>139.8</ele>
        <time>2023-08-16T08:29:26Z</time>
      </trkpt>
      <trkpt lat="49.76666" lon="2.22883">
        <ele>139.8</ele>
        <time>2023-08-16T08:29:27Z</time>
      </trkpt>
      <trkpt lat="49.76666" lon="2.22883">
        <ele>139.8</ele>
        <time>2023-08-16T08:29:28Z</time>
      </trkpt>
      <trkpt lat="49.76666" lon="2.22883">
        <ele>139.8</ele>
        <time>2023-08-16T08:29:29Z</time>
      </trkpt>
      <trkpt lat="49.76666" lon="2.22883">
        <ele>139.8</ele>
        <time>2023-08-16T08:29:30Z</time>
      </trkpt>
      <trkpt lat="49.76666" lon="2.22883">
        <ele>139.8</ele>
        <time>2023-08-16T08:29:31Z</time>
      </trkpt>
      <trkpt lat="49.76666" lon="2.22883">
        <ele>139.8</ele>
        <time>2023-08-16T08:29:32Z</time>
      </trkpt>
      <trkpt lat="49.76666" lon="2.22883">
        <ele>139.8</ele>
        <time>2023-08-16T08:29:33Z</time>
      </trkpt>
      <trkpt lat="49.76666" lon="2.22883">
        <ele>139.8</ele>
        <time>2023-08-16T08:29:34Z</time>
      </trkpt>
      <trkpt lat="49.76666" lon="2.22883">
        <ele>139.8</ele>
        <time>2023-08-16T08:29:35Z</time>
      </trkpt>
      <trkpt lat="49.76666" lon="2.22883">
        <ele>139.8</ele>
        <time>2023-08-16T08:29:36Z</time>
      </trkpt>
      <trkpt lat="49.76666" lon="2.22883">
        <ele>139.8</ele>
        <time>2023-08-16T08:29:37Z</time>
      </trkpt>
      <trkpt lat="49.76666" lon="2.22883">
        <ele>139.8</ele>
        <time>2023-08-16T08:29:38Z</time>
      </trkpt>
      <trkpt lat="49.76666" lon="2.22883">
        <ele>139.8</ele>
        <time>2023-08-16T08:29:39Z</time>
      </trkpt>
      <trkpt lat="49.76666" lon="2.22883">
        <ele>139.8</ele>
        <time>2023-08-16T08:29:40Z</time>
      </trkpt>
      <trkpt lat="49.76666" lon="2.22883">
        <ele>139.8</ele>
        <time>2023-08-16T08:29:41Z</time>
      </trkpt>
      <trkpt lat="49.76666" lon="2.22883">
        <ele>139.8</ele>
        <time>2023-08-16T08:29:42Z</time>
      </trkpt>
      <trkpt lat="49.76666" lon="2.22883">
        <ele>139.8</ele>
        <time>2023-08-16T08:29:43Z</time>
      </trkpt>
      <trkpt lat="49.76666" lon="2.22883">
        <ele>139.8</ele>
        <time>2023-08-16T08:29:44Z</time>
      </trkpt>
      <trkpt lat="49.76666" lon="2.22883">
        <ele>139.8</ele>
        <time>2023-08-16T08:29:45Z</time>
      </trkpt>
      <trkpt lat="49.76666" lon="2.22883">
        <ele>139.8</ele>
        <time>2023-08-16T08:29:46Z</time>
      </trkpt>
      <trkpt lat="49.76666" lon="2.22883">
        <ele>139.8</ele>
        <time>2023-08-16T08:29:47Z</time>
      </trkpt>
      <trkpt lat="49.76666" lon="2.22883">
        <ele>139.8</ele>
        <time>2023-08-16T08:29:48Z</time>
      </trkpt>
      <trkpt lat="49.76666" lon="2.22883">
        <ele>139.8</ele>
        <time>2023-08-16T08:29:49Z</time>
      </trkpt>
      <trkpt lat="49.76666" lon="2.22883">
        <ele>139.8</ele>
        <time>2023-08-16T08:29:50Z</time>
      </trkpt>
      <trkpt lat="49.76666" lon="2.22883">
        <ele>139.8</ele>
        <time>2023-08-16T08:29:51Z</time>
      </trkpt>
      <trkpt lat="49.76666" lon="2.22883">
        <ele>139.8</ele>
        <time>2023-08-16T08:29:52Z</time>
      </trkpt>
      <trkpt lat="49.76666" lon="2.22883">
        <ele>139.8</ele>
        <time>2023-08-16T08:29:53Z</time>
      </trkpt>
      <trkpt lat="49.76666" lon="2.22883">
        <ele>139.8</ele>
        <time>2023-08-16T08:29:54Z</time>
      </trkpt>
      <trkpt lat="49.76666" lon="2.22883">
        <ele>139.8</ele>
        <time>2023-08-16T08:29:55Z</time>
      </trkpt>
      <trkpt lat="49.76666" lon="2.22883">
        <ele>139.8</ele>
        <time>2023-08-16T08:29:56Z</time>
      </trkpt>
      <trkpt lat="49.76666" lon="2.22883">
        <ele>139.8</ele>
        <time>2023-08-16T08:29:57Z</time>
      </trkpt>
      <trkpt lat="49.76666" lon="2.22883">
        <ele>139.8</ele>
        <time>2023-08-16T08:29:58Z</time>
      </trkpt>
      <trkpt lat="49.76666" lon="2.22883">
        <ele>139.8</ele>
        <time>2023-08-16T08:29:59Z</time>
      </trkpt>
      <trkpt lat="49.76666" lon="2.22883">
        <ele>139.8</ele>
        <time>2023-08-16T08:30:00Z</time>
      </trkpt>
      <trkpt lat="49.76666" lon="2.22883">
        <ele>139.8</ele>
        <time>2023-08-16T08:30:01Z</time>
      </trkpt>
      <trkpt lat="49.76666" lon="2.22883">
        <ele>139.8</ele>
        <time>2023-08-16T08:30:02Z</time>
      </trkpt>
      <trkpt lat="49.76666" lon="2.22883">
        <ele>139.8</ele>
        <time>2023-08-16T08:30:03Z</time>
      </trkpt>
      <trkpt lat="49.76666" lon="2.22883">
        <ele>139.8</ele>
        <time>2023-08-16T08:30:04Z</time>
      </trkpt>
      <trkpt lat="49.76666" lon="2.22883">
        <ele>139.8</ele>
        <time>2023-08-16T08:30:05Z</time>
      </trkpt>
      <trkpt lat="49.76666" lon="2.22883">
        <ele>139.8</ele>
        <time>2023-08-16T08:30:06Z</time>
      </trkpt>
      <trkpt lat="49.76666" lon="2.22883">
        <ele>139.8</ele>
        <time>2023-08-16T08:30:07Z</time>
      </trkpt>
      <trkpt lat="49.76666" lon="2.22883">
        <ele>139.8</ele>
        <time>2023-08-16T08:30:08Z</time>
      </trkpt>
      <trkpt lat="49.76666" lon="2.22883">
        <ele>139.8</ele>
        <time>2023-08-16T08:30:09Z</time>
      </trkpt>
      <trkpt lat="49.76666" lon="2.22883">
        <ele>139.8</ele>
        <time>2023-08-16T08:30:10Z</time>
      </trkpt>
      <trkpt lat="49.76666" lon="2.22883">
        <ele>139.8</ele>
        <time>2023-08-16T08:30:11Z</time>
      </trkpt>
      <trkpt lat="49.76666" lon="2.22883">
        <ele>139.8</ele>
        <time>2023-08-16T08:30:12Z</time>
      </trkpt>
      <trkpt lat="49.76666" lon="2.22883">
        <ele>139.8</ele>
        <time>2023-08-16T08:30:13Z</time>
      </trkpt>
      <trkpt lat="49.76666" lon="2.22883">
        <ele>139.8</ele>
        <time>2023-08-16T08:30:14Z</time>
      </trkpt>
      <trkpt lat="49.76666" lon="2.22883">
        <ele>139.8</ele>
        <time>2023-08-16T08:30:15Z</time>
      </trkpt>
      <trkpt lat="49.76666" lon="2.22883">
        <ele>139.8</ele>
        <time>2023-08-16T08:30:16Z</time>
      </trkpt>
      <trkpt lat="49.76666" lon="2.22883">
        <ele>139.8</ele>
        <time>2023-08-16T08:30:17Z</time>
      </trkpt>
      <trkpt lat="49.76666" lon="2.22883">
        <ele>139.8</ele>
        <time>2023-08-16T08:30:18Z</time>
      </trkpt>
      <trkpt lat="49.76666" lon="2.22883">
        <ele>139.8</ele>
        <time>2023-08-16T08:30:19Z</time>
      </trkpt>
      <trkpt lat="49.76666" lon="2.22883">
        <ele>139.8</ele>
        <time>2023-08-16T08:30:20Z</time>
      </trkpt>
      <trkpt lat="49.76666" lon="2.22883">
        <ele>139.8</ele>
        <time>2023-08-16T08:30:21Z</time>
      </trkpt>
      <trkpt lat="49.76666" lon="2.22883">
        <ele>139.8</ele>
        <time>2023-08-16T08:30:22Z</time>
      </trkpt>
      <trkpt lat="49.76666" lon="2.22883">
        <ele>139.8</ele>
        <time>2023-08-16T08:30:23Z</time>
      </trkpt>
      <trkpt lat="49.76666" lon="2.22883">
        <ele>139.8</ele>
        <time>2023-08-16T08:30:24Z</time>
      </trkpt>
      <trkpt lat="49.76666" lon="2.22883">
        <ele>139.8</ele>
        <time>2023-08-16T08:30:25Z</time>
      </trkpt>
      <trkpt lat="49.76666" lon="2.22883">
        <ele>139.8</ele>
        <time>2023-08-16T08:30:26Z</time>
      </trkpt>
      <trkpt lat="49.76666" lon="2.22883">
        <ele>139.8</ele>
        <time>2023-08-16T08:30:27Z</time>
      </trkpt>
      <trkpt lat="49.76666" lon="2.22883">
        <ele>139.8</ele>
        <time>2023-08-16T08:30:28Z</time>
      </trkpt>
      <trkpt lat="49.76666" lon="2.22883">
        <ele>139.8</ele>
        <time>2023-08-16T08:30:29Z</time>
      </trkpt>
      <trkpt lat="49.76666" lon="2.22883">
        <ele>139.8</ele>
        <time>2023-08-16T08:30:30Z</time>
      </trkpt>
      <trkpt lat="49.76666" lon="2.22883">
        <ele>139.8</ele>
        <time>2023-08-16T08:30:31Z</time>
      </trkpt>
      <trkpt lat="49.76666" lon="2.22883">
        <ele>139.8</ele>
        <time>2023-08-16T08:30:32Z</time>
      </trkpt>
      <trkpt lat="49.76666" lon="2.22883">
        <ele>139.8</ele>
        <time>2023-08-16T08:30:33Z</time>
      </trkpt>
      <trkpt lat="49.76666" lon="2.22883">
        <ele>139.8</ele>
        <time>2023-08-16T08:30:34Z</time>
      </trkpt>
      <trkpt lat="49.76666" lon="2.22883">
        <ele>139.8</ele>
        <time>2023-08-16T08:30:35Z</time>
      </trkpt>
      <trkpt lat="49.76666" lon="2.22883">
        <ele>139.8</ele>
        <time>2023-08-16T08:30:36Z</time>
      </trkpt>
      <trkpt lat="49.76665" lon="2.22883">
        <ele>139.8</ele>
        <time>2023-08-16T08:30:37Z</time>
      </trkpt>
      <trkpt lat="49.76665" lon="2.22883">
        <ele>139.8</ele>
        <time>2023-08-16T08:30:38Z</time>
      </trkpt>
      <trkpt lat="49.76665" lon="2.22881">
        <ele>139.8</ele>
        <time>2023-08-16T08:30:39Z</time>
      </trkpt>
      <trkpt lat="49.76665" lon="2.2288">
        <ele>139.8</ele>
        <time>2023-08-16T08:30:40Z</time>
      </trkpt>
      <trkpt lat="49.76666" lon="2.22878">
        <ele>139.9</ele>
        <time>2023-08-16T08:30:41Z</time>
      </trkpt>
      <trkpt lat="49.76666" lon="2.22877">
        <ele>139.9</ele>
        <time>2023-08-16T08:30:42Z</time>
      </trkpt>
      <trkpt lat="49.76666" lon="2.22875">
        <ele>139.9</ele>
        <time>2023-08-16T08:30:44Z</time>
      </trkpt>
      <trkpt lat="49.76666" lon="2.22875">
        <ele>139.9</ele>
        <time>2023-08-16T08:30:45Z</time>
      </trkpt>
      <trkpt lat="49.76667" lon="2.22874">
        <ele>139.9</ele>
        <time>2023-08-16T08:30:46Z</time>
      </trkpt>
      <trkpt lat="49.76667" lon="2.22872">
        <ele>139.9</ele>
        <time>2023-08-16T08:30:48Z</time>
      </trkpt>
      <trkpt lat="49.76668" lon="2.22871">
        <ele>139.9</ele>
        <time>2023-08-16T08:30:49Z</time>
      </trkpt>
      <trkpt lat="49.76668" lon="2.2287">
        <ele>139.9</ele>
        <time>2023-08-16T08:30:50Z</time>
      </trkpt>
      <trkpt lat="49.76669" lon="2.22869">
        <ele>139.9</ele>
        <time>2023-08-16T08:30:51Z</time>
      </trkpt>
      <trkpt lat="49.7667" lon="2.22869">
        <ele>140</ele>
        <time>2023-08-16T08:30:53Z</time>
      </trkpt>
      <trkpt lat="49.76671" lon="2.2287">
        <ele>140</ele>
        <time>2023-08-16T08:30:54Z</time>
      </trkpt>
      <trkpt lat="49.76672" lon="2.22871">
        <ele>140</ele>
        <time>2023-08-16T08:30:55Z</time>
      </trkpt>
      <trkpt lat="49.76673" lon="2.22871">
        <ele>140</ele>
        <time>2023-08-16T08:30:57Z</time>
      </trkpt>
      <trkpt lat="49.76674" lon="2.22872">
        <ele>140</ele>
        <time>2023-08-16T08:30:58Z</time>
      </trkpt>
      <trkpt lat="49.76674" lon="2.22872">
        <ele>140</ele>
        <time>2023-08-16T08:30:59Z</time>
      </trkpt>
      <trkpt lat="49.76675" lon="2.22871">
        <ele>140</ele>
        <time>2023-08-16T08:31:00Z</time>
      </trkpt>
      <trkpt lat="49.76675" lon="2.2287">
        <ele>140</ele>
        <time>2023-08-16T08:31:01Z</time>
      </trkpt>
      <trkpt lat="49.76676" lon="2.22869">
        <ele>140</ele>
        <time>2023-08-16T08:31:03Z</time>
      </trkpt>
      <trkpt lat="49.76676" lon="2.22868">
        <ele>140.1</ele>
        <time>2023-08-16T08:31:04Z</time>
      </trkpt>
      <trkpt lat="49.76676" lon="2.22866">
        <ele>140.1</ele>
        <time>2023-08-16T08:31:05Z</time>
      </trkpt>
      <trkpt lat="49.76676" lon="2.22865">
        <ele>140.1</ele>
        <time>2023-08-16T08:31:06Z</time>
      </trkpt>
      <trkpt lat="49.76676" lon="2.22864">
        <ele>140.1</ele>
        <time>2023-08-16T08:31:07Z</time>
      </trkpt>
      <trkpt lat="49.76677" lon="2.22862">
        <ele>140.1</ele>
        <time>2023-08-16T08:31:08Z</time>
      </trkpt>
      <trkpt lat="49.76676" lon="2.22861">
        <ele>140.1</ele>
        <time>2023-08-16T08:31:10Z</time>
      </trkpt>
      <trkpt lat="49.76676" lon="2.22859">
        <ele>140.1</ele>
        <time>2023-08-16T08:31:11Z</time>
      </trkpt>
      <trkpt lat="49.76676" lon="2.22858">
        <ele>140.1</ele>
        <time>2023-08-16T08:31:12Z</time>
      </trkpt>
      <trkpt lat="49.76675" lon="2.22855">
        <ele>140.1</ele>
        <time>2023-08-16T08:31:13Z</time>
      </trkpt>
      <trkpt lat="49.76675" lon="2.22853">
        <ele>140.1</ele>
        <time>2023-08-16T08:31:14Z</time>
      </trkpt>
      <trkpt lat="49.76675" lon="2.22852">
        <ele>140.1</ele>
        <time>2023-08-16T08:31:15Z</time>
      </trkpt>
      <trkpt lat="49.76674" lon="2.22849">
        <ele>140.2</ele>
        <time>2023-08-16T08:31:17Z</time>
      </trkpt>
      <trkpt lat="49.76674" lon="2.22848">
        <ele>140.2</ele>
        <time>2023-08-16T08:31:18Z</time>
      </trkpt>
      <trkpt lat="49.76674" lon="2.22847">
        <ele>140.2</ele>
        <time>2023-08-16T08:31:19Z</time>
      </trkpt>
      <trkpt lat="49.76673" lon="2.22845">
        <ele>140.2</ele>
        <time>2023-08-16T08:31:21Z</time>
      </trkpt>
      <trkpt lat="49.76673" lon="2.22844">
        <ele>140.2</ele>
        <time>2023-08-16T08:31:22Z</time>
      </trkpt>
      <trkpt lat="49.76673" lon="2.22842">
        <ele>140.2</ele>
        <time>2023-08-16T08:31:23Z</time>
      </trkpt>
      <trkpt lat="49.76673" lon="2.22841">
        <ele>140.2</ele>
        <time>2023-08-16T08:31:24Z</time>
      </trkpt>
      <trkpt lat="49.76673" lon="2.22839">
        <ele>140.2</ele>
        <time>2023-08-16T08:31:25Z</time>
      </trkpt>
      <trkpt lat="49.76673" lon="2.22838">
        <ele>140.2</ele>
        <time>2023-08-16T08:31:26Z</time>
      </trkpt>
      <trkpt lat="49.76673" lon="2.22836">
        <ele>140.2</ele>
        <time>2023-08-16T08:31:27Z</time>
      </trkpt>
      <trkpt lat="49.76673" lon="2.22834">
        <ele>140.2</ele>
        <time>2023-08-16T08:31:29Z</time>
      </trkpt>
      <trkpt lat="49.76673" lon="2.22832">
        <ele>140.2</ele>
        <time>2023-08-16T08:31:30Z</time>
      </trkpt>
      <trkpt lat="49.76672" lon="2.2283">
        <ele>140.2</ele>
        <time>2023-08-16T08:31:31Z</time>
      </trkpt>
      <trkpt lat="49.76672" lon="2.22827">
        <ele>140.2</ele>
        <time>2023-08-16T08:31:32Z</time>
      </trkpt>
      <trkpt lat="49.76672" lon="2.22826">
        <ele>140.2</ele>
        <time>2023-08-16T08:31:33Z</time>
      </trkpt>
      <trkpt lat="49.76671" lon="2.22824">
        <ele>140.2</ele>
        <time>2023-08-16T08:31:34Z</time>
      </trkpt>
      <trkpt lat="49.76671" lon="2.22822">
        <ele>140.2</ele>
        <time>2023-08-16T08:31:36Z</time>
      </trkpt>
      <trkpt lat="49.76671" lon="2.22819">
        <ele>140.3</ele>
        <time>2023-08-16T08:31:37Z</time>
      </trkpt>
      <trkpt lat="49.76671" lon="2.22817">
        <ele>140.3</ele>
        <time>2023-08-16T08:31:38Z</time>
      </trkpt>
      <trkpt lat="49.7667" lon="2.22814">
        <ele>140.3</ele>
        <time>2023-08-16T08:31:39Z</time>
      </trkpt>
      <trkpt lat="49.7667" lon="2.22812">
        <ele>140.3</ele>
        <time>2023-08-16T08:31:40Z</time>
      </trkpt>
      <trkpt lat="49.7667" lon="2.22811">
        <ele>140.3</ele>
        <time>2023-08-16T08:31:41Z</time>
      </trkpt>
      <trkpt lat="49.7667" lon="2.22808">
        <ele>140.3</ele>
        <time>2023-08-16T08:31:43Z</time>
      </trkpt>
      <trkpt lat="49.76669" lon="2.22806">
        <ele>140.3</ele>
        <time>2023-08-16T08:31:44Z</time>
      </trkpt>
      <trkpt lat="49.76669" lon="2.22804">
        <ele>140.3</ele>
        <time>2023-08-16T08:31:45Z</time>
      </trkpt>
      <trkpt lat="49.76669" lon="2.22802">
        <ele>140.3</ele>
        <time>2023-08-16T08:31:46Z</time>
      </trkpt>
      <trkpt lat="49.76669" lon="2.22799">
        <ele>140.3</ele>
        <time>2023-08-16T08:31:47Z</time>
      </trkpt>
      <trkpt lat="49.76668" lon="2.22797">
        <ele>140.3</ele>
        <time>2023-08-16T08:31:48Z</time>
      </trkpt>
      <trkpt lat="49.76668" lon="2.22795">
        <ele>140.3</ele>
        <time>2023-08-16T08:31:49Z</time>
      </trkpt>
      <trkpt lat="49.76667" lon="2.22792">
        <ele>140.3</ele>
        <time>2023-08-16T08:31:51Z</time>
      </trkpt>
      <trkpt lat="49.76667" lon="2.2279">
        <ele>140.3</ele>
        <time>2023-08-16T08:31:52Z</time>
      </trkpt>
      <trkpt lat="49.76667" lon="2.22787">
        <ele>140.3</ele>
        <time>2023-08-16T08:31:53Z</time>
      </trkpt>
      <trkpt lat="49.76666" lon="2.22786">
        <ele>140.3</ele>
        <time>2023-08-16T08:31:54Z</time>
      </trkpt>
      <trkpt lat="49.76666" lon="2.22784">
        <ele>140.3</ele>
        <time>2023-08-16T08:31:55Z</time>
      </trkpt>
      <trkpt lat="49.76666" lon="2.22782">
        <ele>140.3</ele>
        <time>2023-08-16T08:31:57Z</time>
      </trkpt>
      <trkpt lat="49.76666" lon="2.2278">
        <ele>140.3</ele>
        <time>2023-08-16T08:31:58Z</time>
      </trkpt>
      <trkpt lat="49.76666" lon="2.22778">
        <ele>140.3</ele>
        <time>2023-08-16T08:31:59Z</time>
      </trkpt>
      <trkpt lat="49.76665" lon="2.22776">
        <ele>140.3</ele>
        <time>2023-08-16T08:32:00Z</time>
      </trkpt>
      <trkpt lat="49.76665" lon="2.22774">
        <ele>140.3</ele>
        <time>2023-08-16T08:32:01Z</time>
      </trkpt>
      <trkpt lat="49.76665" lon="2.22772">
        <ele>140.3</ele>
        <time>2023-08-16T08:32:02Z</time>
      </trkpt>
      <trkpt lat="49.76665" lon="2.2277">
        <ele>140.4</ele>
        <time>2023-08-16T08:32:04Z</time>
      </trkpt>
      <trkpt lat="49.76665" lon="2.22767">
        <ele>140.4</ele>
        <time>2023-08-16T08:32:05Z</time>
      </trkpt>
      <trkpt lat="49.76664" lon="2.22764">
        <ele>140.4</ele>
        <time>2023-08-16T08:32:06Z</time>
      </trkpt>
      <trkpt lat="49.76664" lon="2.22762">
        <ele>140.4</ele>
        <time>2023-08-16T08:32:07Z</time>
      </trkpt>
      <trkpt lat="49.76664" lon="2.22761">
        <ele>140.4</ele>
        <time>2023-08-16T08:32:08Z</time>
      </trkpt>
      <trkpt lat="49.76664" lon="2.22759">
        <ele>140.4</ele>
        <time>2023-08-16T08:32:09Z</time>
      </trkpt>
      <trkpt lat="49.76664" lon="2.22757">
        <ele>140.4</ele>
        <time>2023-08-16T08:32:11Z</time>
      </trkpt>
      <trkpt lat="49.76664" lon="2.22755">
        <ele>140.4</ele>
        <time>2023-08-16T08:32:12Z</time>
      </trkpt>
      <trkpt lat="49.76664" lon="2.22752">
        <ele>140.4</ele>
        <time>2023-08-16T08:32:13Z</time>
      </trkpt>
      <trkpt lat="49.76664" lon="2.22751">
        <ele>140.4</ele>
        <time>2023-08-16T08:32:14Z</time>
      </trkpt>
      <trkpt lat="49.76664" lon="2.2275">
        <ele>140.4</ele>
        <time>2023-08-16T08:32:15Z</time>
      </trkpt>
      <trkpt lat="49.76664" lon="2.22748">
        <ele>140.4</ele>
        <time>2023-08-16T08:32:16Z</time>
      </trkpt>
      <trkpt lat="49.76664" lon="2.22746">
        <ele>140.4</ele>
        <time>2023-08-16T08:32:17Z</time>
      </trkpt>
      <trkpt lat="49.76664" lon="2.22743">
        <ele>140.5</ele>
        <time>2023-08-16T08:32:19Z</time>
      </trkpt>
      <trkpt lat="49.76664" lon="2.22741">
        <ele>140.5</ele>
        <time>2023-08-16T08:32:20Z</time>
      </trkpt>
      <trkpt lat="49.76664" lon="2.22739">
        <ele>140.5</ele>
        <time>2023-08-16T08:32:21Z</time>
      </trkpt>
      <trkpt lat="49.76664" lon="2.22735">
        <ele>140.5</ele>
        <time>2023-08-16T08:32:22Z</time>
      </trkpt>
      <trkpt lat="49.76664" lon="2.22734">
        <ele>140.5</ele>
        <time>2023-08-16T08:32:23Z</time>
      </trkpt>
      <trkpt lat="49.76663" lon="2.22732">
        <ele>140.5</ele>
        <time>2023-08-16T08:32:24Z</time>
      </trkpt>
      <trkpt lat="49.76663" lon="2.2273">
        <ele>140.5</ele>
        <time>2023-08-16T08:32:25Z</time>
      </trkpt>
      <trkpt lat="49.76663" lon="2.22729">
        <ele>140.5</ele>
        <time>2023-08-16T08:32:26Z</time>
      </trkpt>
      <trkpt lat="49.76663" lon="2.22726">
        <ele>140.6</ele>
        <time>2023-08-16T08:32:28Z</time>
      </trkpt>
      <trkpt lat="49.76663" lon="2.22724">
        <ele>140.6</ele>
        <time>2023-08-16T08:32:29Z</time>
      </trkpt>
      <trkpt lat="49.76663" lon="2.22722">
        <ele>140.6</ele>
        <time>2023-08-16T08:32:30Z</time>
      </trkpt>
      <trkpt lat="49.76662" lon="2.22719">
        <ele>140.6</ele>
        <time>2023-08-16T08:32:31Z</time>
      </trkpt>
      <trkpt lat="49.76662" lon="2.22717">
        <ele>140.6</ele>
        <time>2023-08-16T08:32:32Z</time>
      </trkpt>
      <trkpt lat="49.76662" lon="2.22716">
        <ele>140.6</ele>
        <time>2023-08-16T08:32:33Z</time>
      </trkpt>
      <trkpt lat="49.76661" lon="2.22714">
        <ele>140.6</ele>
        <time>2023-08-16T08:32:34Z</time>
      </trkpt>
      <trkpt lat="49.76661" lon="2.22712">
        <ele>140.6</ele>
        <time>2023-08-16T08:32:35Z</time>
      </trkpt>
      <trkpt lat="49.76661" lon="2.2271">
        <ele>140.7</ele>
        <time>2023-08-16T08:32:36Z</time>
      </trkpt>
      <trkpt lat="49.7666" lon="2.22707">
        <ele>140.7</ele>
        <time>2023-08-16T08:32:38Z</time>
      </trkpt>
      <trkpt lat="49.7666" lon="2.22705">
        <ele>140.7</ele>
        <time>2023-08-16T08:32:39Z</time>
      </trkpt>
      <trkpt lat="49.7666" lon="2.22703">
        <ele>140.7</ele>
        <time>2023-08-16T08:32:40Z</time>
      </trkpt>
      <trkpt lat="49.7666" lon="2.227">
        <ele>140.7</ele>
        <time>2023-08-16T08:32:41Z</time>
      </trkpt>
      <trkpt lat="49.7666" lon="2.22698">
        <ele>140.7</ele>
        <time>2023-08-16T08:32:42Z</time>
      </trkpt>
      <trkpt lat="49.7666" lon="2.22695">
        <ele>140.7</ele>
        <time>2023-08-16T08:32:43Z</time>
      </trkpt>
      <trkpt lat="49.7666" lon="2.22693">
        <ele>140.7</ele>
        <time>2023-08-16T08:32:44Z</time>
      </trkpt>
      <trkpt lat="49.7666" lon="2.22692">
        <ele>140.8</ele>
        <time>2023-08-16T08:32:45Z</time>
      </trkpt>
      <trkpt lat="49.76659" lon="2.2269">
        <ele>140.8</ele>
        <time>2023-08-16T08:32:46Z</time>
      </trkpt>
      <trkpt lat="49.76659" lon="2.22688">
        <ele>140.8</ele>
        <time>2023-08-16T08:32:48Z</time>
      </trkpt>
      <trkpt lat="49.76659" lon="2.22686">
        <ele>140.8</ele>
        <time>2023-08-16T08:32:49Z</time>
      </trkpt>
      <trkpt lat="49.76659" lon="2.22684">
        <ele>140.8</ele>
        <time>2023-08-16T08:32:50Z</time>
      </trkpt>
      <trkpt lat="49.76659" lon="2.2268">
        <ele>140.8</ele>
        <time>2023-08-16T08:32:51Z</time>
      </trkpt>
      <trkpt lat="49.76659" lon="2.22679">
        <ele>140.8</ele>
        <time>2023-08-16T08:32:52Z</time>
      </trkpt>
      <trkpt lat="49.76659" lon="2.22678">
        <ele>140.8</ele>
        <time>2023-08-16T08:32:53Z</time>
      </trkpt>
      <trkpt lat="49.76659" lon="2.22676">
        <ele>140.9</ele>
        <time>2023-08-16T08:32:54Z</time>
      </trkpt>
      <trkpt lat="49.76659" lon="2.22674">
        <ele>140.9</ele>
        <time>2023-08-16T08:32:55Z</time>
      </trkpt>
      <trkpt lat="49.76659" lon="2.22672">
        <ele>140.9</ele>
        <time>2023-08-16T08:32:57Z</time>
      </trkpt>
      <trkpt lat="49.76659" lon="2.2267">
        <ele>140.9</ele>
        <time>2023-08-16T08:32:58Z</time>
      </trkpt>
      <trkpt lat="49.76659" lon="2.22667">
        <ele>140.9</ele>
        <time>2023-08-16T08:32:59Z</time>
      </trkpt>
      <trkpt lat="49.76659" lon="2.22665">
        <ele>141</ele>
        <time>2023-08-16T08:33:00Z</time>
      </trkpt>
      <trkpt lat="49.76659" lon="2.22663">
        <ele>141</ele>
        <time>2023-08-16T08:33:01Z</time>
      </trkpt>
      <trkpt lat="49.76659" lon="2.22661">
        <ele>141</ele>
        <time>2023-08-16T08:33:03Z</time>
      </trkpt>
      <trkpt lat="49.76658" lon="2.22659">
        <ele>141</ele>
        <time>2023-08-16T08:33:04Z</time>
      </trkpt>
      <trkpt lat="49.76658" lon="2.22656">
        <ele>141</ele>
        <time>2023-08-16T08:33:05Z</time>
      </trkpt>
      <trkpt lat="49.76658" lon="2.22654">
        <ele>141</ele>
        <time>2023-08-16T08:33:06Z</time>
      </trkpt>
      <trkpt lat="49.76658" lon="2.22653">
        <ele>141.1</ele>
        <time>2023-08-16T08:33:07Z</time>
      </trkpt>
      <trkpt lat="49.76658" lon="2.22651">
        <ele>141.1</ele>
        <time>2023-08-16T08:33:08Z</time>
      </trkpt>
      <trkpt lat="49.76658" lon="2.22649">
        <ele>141.1</ele>
        <time>2023-08-16T08:33:09Z</time>
      </trkpt>
      <trkpt lat="49.76657" lon="2.22647">
        <ele>141.1</ele>
        <time>2023-08-16T08:33:10Z</time>
      </trkpt>
      <trkpt lat="49.76657" lon="2.22645">
        <ele>141.1</ele>
        <time>2023-08-16T08:33:11Z</time>
      </trkpt>
      <trkpt lat="49.76657" lon="2.22642">
        <ele>141.1</ele>
        <time>2023-08-16T08:33:13Z</time>
      </trkpt>
      <trkpt lat="49.76657" lon="2.2264">
        <ele>141.2</ele>
        <time>2023-08-16T08:33:14Z</time>
      </trkpt>
      <trkpt lat="49.76657" lon="2.22638">
        <ele>141.2</ele>
        <time>2023-08-16T08:33:15Z</time>
      </trkpt>
      <trkpt lat="49.76656" lon="2.22636">
        <ele>141.2</ele>
        <time>2023-08-16T08:33:16Z</time>
      </trkpt>
      <trkpt lat="49.76656" lon="2.22633">
        <ele>141.2</ele>
        <time>2023-08-16T08:33:17Z</time>
      </trkpt>
      <trkpt lat="49.76656" lon="2.22631">
        <ele>141.2</ele>
        <time>2023-08-16T08:33:18Z</time>
      </trkpt>
      <trkpt lat="49.76656" lon="2.22629">
        <ele>141.3</ele>
        <time>2023-08-16T08:33:19Z</time>
      </trkpt>
      <trkpt lat="49.76656" lon="2.22626">
        <ele>141.3</ele>
        <time>2023-08-16T08:33:21Z</time>
      </trkpt>
      <trkpt lat="49.76656" lon="2.22624">
        <ele>141.3</ele>
        <time>2023-08-16T08:33:22Z</time>
      </trkpt>
      <trkpt lat="49.76655" lon="2.22621">
        <ele>141.3</ele>
        <time>2023-08-16T08:33:23Z</time>
      </trkpt>
      <trkpt lat="49.76655" lon="2.2262">
        <ele>141.3</ele>
        <time>2023-08-16T08:33:24Z</time>
      </trkpt>
      <trkpt lat="49.76655" lon="2.22619">
        <ele>141.4</ele>
        <time>2023-08-16T08:33:25Z</time>
      </trkpt>
      <trkpt lat="49.76654" lon="2.22615">
        <ele>141.4</ele>
        <time>2023-08-16T08:33:26Z</time>
      </trkpt>
      <trkpt lat="49.76654" lon="2.22613">
        <ele>141.4</ele>
        <time>2023-08-16T08:33:28Z</time>
      </trkpt>
      <trkpt lat="49.76654" lon="2.22612">
        <ele>141.4</ele>
        <time>2023-08-16T08:33:29Z</time>
      </trkpt>
      <trkpt lat="49.76653" lon="2.2261">
        <ele>141.4</ele>
        <time>2023-08-16T08:33:30Z</time>
      </trkpt>
      <trkpt lat="49.76653" lon="2.22607">
        <ele>141.4</ele>
        <time>2023-08-16T08:33:31Z</time>
      </trkpt>
      <trkpt lat="49.76653" lon="2.22605">
        <ele>141.5</ele>
        <time>2023-08-16T08:33:32Z</time>
      </trkpt>
      <trkpt lat="49.76653" lon="2.22603">
        <ele>141.5</ele>
        <time>2023-08-16T08:33:34Z</time>
      </trkpt>
      <trkpt lat="49.76652" lon="2.226">
        <ele>141.5</ele>
        <time>2023-08-16T08:33:35Z</time>
      </trkpt>
      <trkpt lat="49.76652" lon="2.22598">
        <ele>141.5</ele>
        <time>2023-08-16T08:33:36Z</time>
      </trkpt>
      <trkpt lat="49.76653" lon="2.22596">
        <ele>141.5</ele>
        <time>2023-08-16T08:33:37Z</time>
      </trkpt>
      <trkpt lat="49.76653" lon="2.22594">
        <ele>141.6</ele>
        <time>2023-08-16T08:33:38Z</time>
      </trkpt>
      <trkpt lat="49.76653" lon="2.22591">
        <ele>141.6</ele>
        <time>2023-08-16T08:33:39Z</time>
      </trkpt>
      <trkpt lat="49.76653" lon="2.22589">
        <ele>141.6</ele>
        <time>2023-08-16T08:33:41Z</time>
      </trkpt>
      <trkpt lat="49.76653" lon="2.22587">
        <ele>141.6</ele>
        <time>2023-08-16T08:33:42Z</time>
      </trkpt>
      <trkpt lat="49.76652" lon="2.22585">
        <ele>141.6</ele>
        <time>2023-08-16T08:33:43Z</time>
      </trkpt>
      <trkpt lat="49.76652" lon="2.22583">
        <ele>141.6</ele>
        <time>2023-08-16T08:33:44Z</time>
      </trkpt>
      <trkpt lat="49.76652" lon="2.2258">
        <ele>141.7</ele>
        <time>2023-08-16T08:33:46Z</time>
      </trkpt>
      <trkpt lat="49.76651" lon="2.22579">
        <ele>141.7</ele>
        <time>2023-08-16T08:33:47Z</time>
      </trkpt>
      <trkpt lat="49.76651" lon="2.22578">
        <ele>141.7</ele>
        <time>2023-08-16T08:33:48Z</time>
      </trkpt>
      <trkpt lat="49.76651" lon="2.22575">
        <ele>141.7</ele>
        <time>2023-08-16T08:33:49Z</time>
      </trkpt>
      <trkpt lat="49.76651" lon="2.22573">
        <ele>141.7</ele>
        <time>2023-08-16T08:33:50Z</time>
      </trkpt>
      <trkpt lat="49.7665" lon="2.22571">
        <ele>141.7</ele>
        <time>2023-08-16T08:33:51Z</time>
      </trkpt>
      <trkpt lat="49.7665" lon="2.22569">
        <ele>141.8</ele>
        <time>2023-08-16T08:33:53Z</time>
      </trkpt>
      <trkpt lat="49.7665" lon="2.22566">
        <ele>141.8</ele>
        <time>2023-08-16T08:33:54Z</time>
      </trkpt>
      <trkpt lat="49.7665" lon="2.22563">
        <ele>141.8</ele>
        <time>2023-08-16T08:33:55Z</time>
      </trkpt>
      <trkpt lat="49.7665" lon="2.22561">
        <ele>141.8</ele>
        <time>2023-08-16T08:33:56Z</time>
      </trkpt>
      <trkpt lat="49.7665" lon="2.22559">
        <ele>141.9</ele>
        <time>2023-08-16T08:33:57Z</time>
      </trkpt>
      <trkpt lat="49.7665" lon="2.22556">
        <ele>141.9</ele>
        <time>2023-08-16T08:33:59Z</time>
      </trkpt>
      <trkpt lat="49.7665" lon="2.22554">
        <ele>141.9</ele>
        <time>2023-08-16T08:34:00Z</time>
      </trkpt>
      <trkpt lat="49.7665" lon="2.22552">
        <ele>141.9</ele>
        <time>2023-08-16T08:34:01Z</time>
      </trkpt>
      <trkpt lat="49.7665" lon="2.2255">
        <ele>142</ele>
        <time>2023-08-16T08:34:02Z</time>
      </trkpt>
      <trkpt lat="49.7665" lon="2.22547">
        <ele>142</ele>
        <time>2023-08-16T08:34:03Z</time>
      </trkpt>
      <trkpt lat="49.7665" lon="2.22546">
        <ele>142</ele>
        <time>2023-08-16T08:34:04Z</time>
      </trkpt>
      <trkpt lat="49.7665" lon="2.22544">
        <ele>142</ele>
        <time>2023-08-16T08:34:06Z</time>
      </trkpt>
      <trkpt lat="49.7665" lon="2.22541">
        <ele>142.1</ele>
        <time>2023-08-16T08:34:07Z</time>
      </trkpt>
      <trkpt lat="49.7665" lon="2.22539">
        <ele>142.1</ele>
        <time>2023-08-16T08:34:08Z</time>
      </trkpt>
      <trkpt lat="49.7665" lon="2.22538">
        <ele>142.1</ele>
        <time>2023-08-16T08:34:09Z</time>
      </trkpt>
      <trkpt lat="49.7665" lon="2.22536">
        <ele>142.1</ele>
        <time>2023-08-16T08:34:10Z</time>
      </trkpt>
      <trkpt lat="49.7665" lon="2.22534">
        <ele>142.1</ele>
        <time>2023-08-16T08:34:11Z</time>
      </trkpt>
      <trkpt lat="49.7665" lon="2.22532">
        <ele>142.2</ele>
        <time>2023-08-16T08:34:12Z</time>
      </trkpt>
      <trkpt lat="49.7665" lon="2.2253">
        <ele>142.2</ele>
        <time>2023-08-16T08:34:13Z</time>
      </trkpt>
      <trkpt lat="49.7665" lon="2.22527">
        <ele>142.2</ele>
        <time>2023-08-16T08:34:15Z</time>
      </trkpt>
      <trkpt lat="49.76651" lon="2.22525">
        <ele>142.2</ele>
        <time>2023-08-16T08:34:16Z</time>
      </trkpt>
      <trkpt lat="49.76651" lon="2.22523">
        <ele>142.3</ele>
        <time>2023-08-16T08:34:17Z</time>
      </trkpt>
      <trkpt lat="49.76651" lon="2.22521">
        <ele>142.3</ele>
        <time>2023-08-16T08:34:18Z</time>
      </trkpt>
      <trkpt lat="49.76651" lon="2.22519">
        <ele>142.3</ele>
        <time>2023-08-16T08:34:19Z</time>
      </trkpt>
      <trkpt lat="49.76651" lon="2.22517">
        <ele>142.4</ele>
        <time>2023-08-16T08:34:20Z</time>
      </trkpt>
      <trkpt lat="49.76651" lon="2.22515">
        <ele>142.4</ele>
        <time>2023-08-16T08:34:21Z</time>
      </trkpt>
      <trkpt lat="49.76651" lon="2.22513">
        <ele>142.4</ele>
        <time>2023-08-16T08:34:23Z</time>
      </trkpt>
      <trkpt lat="49.7665" lon="2.2251">
        <ele>142.5</ele>
        <time>2023-08-16T08:34:24Z</time>
      </trkpt>
      <trkpt lat="49.7665" lon="2.22508">
        <ele>142.5</ele>
        <time>2023-08-16T08:34:25Z</time>
      </trkpt>
      <trkpt lat="49.7665" lon="2.22507">
        <ele>142.5</ele>
        <time>2023-08-16T08:34:26Z</time>
      </trkpt>
      <trkpt lat="49.7665" lon="2.22505">
        <ele>142.5</ele>
        <time>2023-08-16T08:34:27Z</time>
      </trkpt>
      <trkpt lat="49.7665" lon="2.22503">
        <ele>142.6</ele>
        <time>2023-08-16T08:34:28Z</time>
      </trkpt>
      <trkpt lat="49.76649" lon="2.225">
        <ele>142.6</ele>
        <time>2023-08-16T08:34:29Z</time>
      </trkpt>
      <trkpt lat="49.76649" lon="2.22498">
        <ele>142.6</ele>
        <time>2023-08-16T08:34:30Z</time>
      </trkpt>
      <trkpt lat="49.76649" lon="2.22497">
        <ele>142.6</ele>
        <time>2023-08-16T08:34:31Z</time>
      </trkpt>
      <trkpt lat="49.76649" lon="2.22494">
        <ele>142.7</ele>
        <time>2023-08-16T08:34:32Z</time>
      </trkpt>
      <trkpt lat="49.76649" lon="2.22493">
        <ele>142.7</ele>
        <time>2023-08-16T08:34:33Z</time>
      </trkpt>
      <trkpt lat="49.76649" lon="2.22492">
        <ele>142.7</ele>
        <time>2023-08-16T08:34:34Z</time>
      </trkpt>
      <trkpt lat="49.76648" lon="2.22489">
        <ele>142.7</ele>
        <time>2023-08-16T08:34:36Z</time>
      </trkpt>
      <trkpt lat="49.76648" lon="2.22487">
        <ele>142.8</ele>
        <time>2023-08-16T08:34:37Z</time>
      </trkpt>
      <trkpt lat="49.76648" lon="2.22485">
        <ele>142.8</ele>
        <time>2023-08-16T08:34:38Z</time>
      </trkpt>
      <trkpt lat="49.76648" lon="2.22482">
        <ele>142.8</ele>
        <time>2023-08-16T08:34:40Z</time>
      </trkpt>
      <trkpt lat="49.76647" lon="2.2248">
        <ele>142.8</ele>
        <time>2023-08-16T08:34:41Z</time>
      </trkpt>
      <trkpt lat="49.76647" lon="2.22478">
        <ele>142.9</ele>
        <time>2023-08-16T08:34:42Z</time>
      </trkpt>
      <trkpt lat="49.76647" lon="2.22475">
        <ele>142.9</ele>
        <time>2023-08-16T08:34:44Z</time>
      </trkpt>
      <trkpt lat="49.76647" lon="2.22473">
        <ele>142.9</ele>
        <time>2023-08-16T08:34:45Z</time>
      </trkpt>
      <trkpt lat="49.76646" lon="2.22471">
        <ele>143</ele>
        <time>2023-08-16T08:34:46Z</time>
      </trkpt>
      <trkpt lat="49.76646" lon="2.22469">
        <ele>143</ele>
        <time>2023-08-16T08:34:47Z</time>
      </trkpt>
      <trkpt lat="49.76646" lon="2.22466">
        <ele>143</ele>
        <time>2023-08-16T08:34:48Z</time>
      </trkpt>
      <trkpt lat="49.76646" lon="2.22464">
        <ele>143</ele>
        <time>2023-08-16T08:34:49Z</time>
      </trkpt>
      <trkpt lat="49.76646" lon="2.22463">
        <ele>143.1</ele>
        <time>2023-08-16T08:34:50Z</time>
      </trkpt>
      <trkpt lat="49.76646" lon="2.22459">
        <ele>143.1</ele>
        <time>2023-08-16T08:34:51Z</time>
      </trkpt>
      <trkpt lat="49.76646" lon="2.22457">
        <ele>143.1</ele>
        <time>2023-08-16T08:34:53Z</time>
      </trkpt>
      <trkpt lat="49.76646" lon="2.22456">
        <ele>143.1</ele>
        <time>2023-08-16T08:34:54Z</time>
      </trkpt>
      <trkpt lat="49.76646" lon="2.22454">
        <ele>143.2</ele>
        <time>2023-08-16T08:34:55Z</time>
      </trkpt>
      <trkpt lat="49.76646" lon="2.22451">
        <ele>143.2</ele>
        <time>2023-08-16T08:34:56Z</time>
      </trkpt>
      <trkpt lat="49.76646" lon="2.22448">
        <ele>143.2</ele>
        <time>2023-08-16T08:34:58Z</time>
      </trkpt>
      <trkpt lat="49.76646" lon="2.22446">
        <ele>143.3</ele>
        <time>2023-08-16T08:34:59Z</time>
      </trkpt>
      <trkpt lat="49.76646" lon="2.22444">
        <ele>143.3</ele>
        <time>2023-08-16T08:35:00Z</time>
      </trkpt>
      <trkpt lat="49.76646" lon="2.22442">
        <ele>143.3</ele>
        <time>2023-08-16T08:35:01Z</time>
      </trkpt>
      <trkpt lat="49.76646" lon="2.22439">
        <ele>143.3</ele>
        <time>2023-08-16T08:35:03Z</time>
      </trkpt>
      <trkpt lat="49.76646" lon="2.22437">
        <ele>143.4</ele>
        <time>2023-08-16T08:35:04Z</time>
      </trkpt>
      <trkpt lat="49.76646" lon="2.22435">
        <ele>143.4</ele>
        <time>2023-08-16T08:35:05Z</time>
      </trkpt>
      <trkpt lat="49.76646" lon="2.22433">
        <ele>143.4</ele>
        <time>2023-08-16T08:35:06Z</time>
      </trkpt>
      <trkpt lat="49.76646" lon="2.22431">
        <ele>143.4</ele>
        <time>2023-08-16T08:35:07Z</time>
      </trkpt>
      <trkpt lat="49.76646" lon="2.22429">
        <ele>143.4</ele>
        <time>2023-08-16T08:35:08Z</time>
      </trkpt>
      <trkpt lat="49.76646" lon="2.22427">
        <ele>143.5</ele>
        <time>2023-08-16T08:35:09Z</time>
      </trkpt>
      <trkpt lat="49.76646" lon="2.22423">
        <ele>143.5</ele>
        <time>2023-08-16T08:35:10Z</time>
      </trkpt>
      <trkpt lat="49.76646" lon="2.22422">
        <ele>143.5</ele>
        <time>2023-08-16T08:35:12Z</time>
      </trkpt>
      <trkpt lat="49.76646" lon="2.2242">
        <ele>143.5</ele>
        <time>2023-08-16T08:35:13Z</time>
      </trkpt>
      <trkpt lat="49.76646" lon="2.22418">
        <ele>143.6</ele>
        <time>2023-08-16T08:35:14Z</time>
      </trkpt>
      <trkpt lat="49.76646" lon="2.22417">
        <ele>143.6</ele>
        <time>2023-08-16T08:35:15Z</time>
      </trkpt>
      <trkpt lat="49.76646" lon="2.22414">
        <ele>143.6</ele>
        <time>2023-08-16T08:35:16Z</time>
      </trkpt>
      <trkpt lat="49.76647" lon="2.22412">
        <ele>143.6</ele>
        <time>2023-08-16T08:35:17Z</time>
      </trkpt>
      <trkpt lat="49.76647" lon="2.2241">
        <ele>143.7</ele>
        <time>2023-08-16T08:35:19Z</time>
      </trkpt>
      <trkpt lat="49.76646" lon="2.22408">
        <ele>143.7</ele>
        <time>2023-08-16T08:35:20Z</time>
      </trkpt>
      <trkpt lat="49.76646" lon="2.22404">
        <ele>143.7</ele>
        <time>2023-08-16T08:35:21Z</time>
      </trkpt>
      <trkpt lat="49.76646" lon="2.22403">
        <ele>143.7</ele>
        <time>2023-08-16T08:35:22Z</time>
      </trkpt>
      <trkpt lat="49.76646" lon="2.22402">
        <ele>143.7</ele>
        <time>2023-08-16T08:35:23Z</time>
      </trkpt>
      <trkpt lat="49.76645" lon="2.22401">
        <ele>143.8</ele>
        <time>2023-08-16T08:35:24Z</time>
      </trkpt>
      <trkpt lat="49.76645" lon="2.22399">
        <ele>143.8</ele>
        <time>2023-08-16T08:35:25Z</time>
      </trkpt>
      <trkpt lat="49.76644" lon="2.22397">
        <ele>143.8</ele>
        <time>2023-08-16T08:35:26Z</time>
      </trkpt>
      <trkpt lat="49.76644" lon="2.22394">
        <ele>143.8</ele>
        <time>2023-08-16T08:35:27Z</time>
      </trkpt>
      <trkpt lat="49.76644" lon="2.22392">
        <ele>143.8</ele>
        <time>2023-08-16T08:35:29Z</time>
      </trkpt>
      <trkpt lat="49.76644" lon="2.2239">
        <ele>143.8</ele>
        <time>2023-08-16T08:35:30Z</time>
      </trkpt>
      <trkpt lat="49.76644" lon="2.22389">
        <ele>143.9</ele>
        <time>2023-08-16T08:35:31Z</time>
      </trkpt>
      <trkpt lat="49.76644" lon="2.22387">
        <ele>143.9</ele>
        <time>2023-08-16T08:35:32Z</time>
      </trkpt>
      <trkpt lat="49.76644" lon="2.22384">
        <ele>143.9</ele>
        <time>2023-08-16T08:35:33Z</time>
      </trkpt>
      <trkpt lat="49.76645" lon="2.22383">
        <ele>143.9</ele>
        <time>2023-08-16T08:35:35Z</time>
      </trkpt>
      <trkpt lat="49.76645" lon="2.22381">
        <ele>143.9</ele>
        <time>2023-08-16T08:35:36Z</time>
      </trkpt>
      <trkpt lat="49.76645" lon="2.2238">
        <ele>143.9</ele>
        <time>2023-08-16T08:35:37Z</time>
      </trkpt>
      <trkpt lat="49.76645" lon="2.22378">
        <ele>143.9</ele>
        <time>2023-08-16T08:35:38Z</time>
      </trkpt>
      <trkpt lat="49.76645" lon="2.22376">
        <ele>143.9</ele>
        <time>2023-08-16T08:35:39Z</time>
      </trkpt>
      <trkpt lat="49.76646" lon="2.22375">
        <ele>143.9</ele>
        <time>2023-08-16T08:35:40Z</time>
      </trkpt>
      <trkpt lat="49.76647" lon="2.22373">
        <ele>143.9</ele>
        <time>2023-08-16T08:35:42Z</time>
      </trkpt>
      <trkpt lat="49.76648" lon="2.22372">
        <ele>143.9</ele>
        <time>2023-08-16T08:35:43Z</time>
      </trkpt>
      <trkpt lat="49.76649" lon="2.22371">
        <ele>143.9</ele>
        <time>2023-08-16T08:35:44Z</time>
      </trkpt>
      <trkpt lat="49.7665" lon="2.22371">
        <ele>143.9</ele>
        <time>2023-08-16T08:35:45Z</time>
      </trkpt>
      <trkpt lat="49.76651" lon="2.2237">
        <ele>143.9</ele>
        <time>2023-08-16T08:35:46Z</time>
      </trkpt>
      <trkpt lat="49.76652" lon="2.2237">
        <ele>143.9</ele>
        <time>2023-08-16T08:35:47Z</time>
      </trkpt>
      <trkpt lat="49.76654" lon="2.22371">
        <ele>143.9</ele>
        <time>2023-08-16T08:35:49Z</time>
      </trkpt>
      <trkpt lat="49.76655" lon="2.22372">
        <ele>143.9</ele>
        <time>2023-08-16T08:35:50Z</time>
      </trkpt>
      <trkpt lat="49.76656" lon="2.22376">
        <ele>143.9</ele>
        <time>2023-08-16T08:35:52Z</time>
      </trkpt>
      <trkpt lat="49.76656" lon="2.22379">
        <ele>143.9</ele>
        <time>2023-08-16T08:35:53Z</time>
      </trkpt>
      <trkpt lat="49.76655" lon="2.22383">
        <ele>143.9</ele>
        <time>2023-08-16T08:35:55Z</time>
      </trkpt>
      <trkpt lat="49.76655" lon="2.22385">
        <ele>143.9</ele>
        <time>2023-08-16T08:35:56Z</time>
      </trkpt>
      <trkpt lat="49.76655" lon="2.22384">
        <ele>143.9</ele>
        <time>2023-08-16T08:35:58Z</time>
      </trkpt>
      <trkpt lat="49.76655" lon="2.22384">
        <ele>143.9</ele>
        <time>2023-08-16T08:35:59Z</time>
      </trkpt>
      <trkpt lat="49.76655" lon="2.22384">
        <ele>143.9</ele>
        <time>2023-08-16T08:36:00Z</time>
      </trkpt>
      <trkpt lat="49.76655" lon="2.22384">
        <ele>143.9</ele>
        <time>2023-08-16T08:36:02Z</time>
      </trkpt>
      <trkpt lat="49.76655" lon="2.22384">
        <ele>143.9</ele>
        <time>2023-08-16T08:36:03Z</time>
      </trkpt>
      <trkpt lat="49.76655" lon="2.22384">
        <ele>143.9</ele>
        <time>2023-08-16T08:36:05Z</time>
      </trkpt>
      <trkpt lat="49.76655" lon="2.22384">
        <ele>143.9</ele>
        <time>2023-08-16T08:36:06Z</time>
      </trkpt>
      <trkpt lat="49.76655" lon="2.22383">
        <ele>143.9</ele>
        <time>2023-08-16T08:36:08Z</time>
      </trkpt>
      <trkpt lat="49.76655" lon="2.22383">
        <ele>143.9</ele>
        <time>2023-08-16T08:36:09Z</time>
      </trkpt>
      <trkpt lat="49.76655" lon="2.22383">
        <ele>143.9</ele>
        <time>2023-08-16T08:36:10Z</time>
      </trkpt>
      <trkpt lat="49.76654" lon="2.22383">
        <ele>143.9</ele>
        <time>2023-08-16T08:36:11Z</time>
      </trkpt>
      <trkpt lat="49.76654" lon="2.22383">
        <ele>143.9</ele>
        <time>2023-08-16T08:36:12Z</time>
      </trkpt>
      <trkpt lat="49.76654" lon="2.22383">
        <ele>143.9</ele>
        <time>2023-08-16T08:36:13Z</time>
      </trkpt>
      <trkpt lat="49.76654" lon="2.22383">
        <ele>143.9</ele>
        <time>2023-08-16T08:36:14Z</time>
      </trkpt>
      <trkpt lat="49.76654" lon="2.22383">
        <ele>143.9</ele>
        <time>2023-08-16T08:36:15Z</time>
      </trkpt>
      <trkpt lat="49.76654" lon="2.22382">
        <ele>143.9</ele>
        <time>2023-08-16T08:36:16Z</time>
      </trkpt>
      <trkpt lat="49.76654" lon="2.22382">
        <ele>143.9</ele>
        <time>2023-08-16T08:36:17Z</time>
      </trkpt>
      <trkpt lat="49.76654" lon="2.22382">
        <ele>143.9</ele>
        <time>2023-08-16T08:36:18Z</time>
      </trkpt>
      <trkpt lat="49.76654" lon="2.22382">
        <ele>143.9</ele>
        <time>2023-08-16T08:36:19Z</time>
      </trkpt>
      <trkpt lat="49.76654" lon="2.22382">
        <ele>143.9</ele>
        <time>2023-08-16T08:36:20Z</time>
      </trkpt>
      <trkpt lat="49.76654" lon="2.22382">
        <ele>143.9</ele>
        <time>2023-08-16T08:36:21Z</time>
      </trkpt>
      <trkpt lat="49.76654" lon="2.22382">
        <ele>143.9</ele>
        <time>2023-08-16T08:36:22Z</time>
      </trkpt>
      <trkpt lat="49.76654" lon="2.22381">
        <ele>143.9</ele>
        <time>2023-08-16T08:36:23Z</time>
      </trkpt>
      <trkpt lat="49.76654" lon="2.22381">
        <ele>143.9</ele>
        <time>2023-08-16T08:36:24Z</time>
      </trkpt>
      <trkpt lat="49.76654" lon="2.22381">
        <ele>143.9</ele>
        <time>2023-08-16T08:36:25Z</time>
      </trkpt>
      <trkpt lat="49.76654" lon="2.22381">
        <ele>143.9</ele>
        <time>2023-08-16T08:36:26Z</time>
      </trkpt>
      <trkpt lat="49.76654" lon="2.22381">
        <ele>143.9</ele>
        <time>2023-08-16T08:36:27Z</time>
      </trkpt>
      <trkpt lat="49.76654" lon="2.22381">
        <ele>143.9</ele>
        <time>2023-08-16T08:36:28Z</time>
      </trkpt>
      <trkpt lat="49.76654" lon="2.22381">
        <ele>143.9</ele>
        <time>2023-08-16T08:36:29Z</time>
      </trkpt>
      <trkpt lat="49.76654" lon="2.22381">
        <ele>143.9</ele>
        <time>2023-08-16T08:36:30Z</time>
      </trkpt>
      <trkpt lat="49.76654" lon="2.2238">
        <ele>143.9</ele>
        <time>2023-08-16T08:36:31Z</time>
      </trkpt>
      <trkpt lat="49.76654" lon="2.2238">
        <ele>143.9</ele>
        <time>2023-08-16T08:36:32Z</time>
      </trkpt>
      <trkpt lat="49.76654" lon="2.2238">
        <ele>143.9</ele>
        <time>2023-08-16T08:36:33Z</time>
      </trkpt>
      <trkpt lat="49.76653" lon="2.2238">
        <ele>143.9</ele>
        <time>2023-08-16T08:36:34Z</time>
      </trkpt>
      <trkpt lat="49.76653" lon="2.2238">
        <ele>143.9</ele>
        <time>2023-08-16T08:36:35Z</time>
      </trkpt>
      <trkpt lat="49.76653" lon="2.2238">
        <ele>143.9</ele>
        <time>2023-08-16T08:36:36Z</time>
      </trkpt>
      <trkpt lat="49.76653" lon="2.2238">
        <ele>143.9</ele>
        <time>2023-08-16T08:36:37Z</time>
      </trkpt>
      <trkpt lat="49.76653" lon="2.22379">
        <ele>143.9</ele>
        <time>2023-08-16T08:36:38Z</time>
      </trkpt>
      <trkpt lat="49.76653" lon="2.22379">
        <ele>143.9</ele>
        <time>2023-08-16T08:36:39Z</time>
      </trkpt>
      <trkpt lat="49.76653" lon="2.22379">
        <ele>143.9</ele>
        <time>2023-08-16T08:36:40Z</time>
      </trkpt>
      <trkpt lat="49.76653" lon="2.22379">
        <ele>143.9</ele>
        <time>2023-08-16T08:36:41Z</time>
      </trkpt>
      <trkpt lat="49.76653" lon="2.22379">
        <ele>143.9</ele>
        <time>2023-08-16T08:36:42Z</time>
      </trkpt>
      <trkpt lat="49.76653" lon="2.22379">
        <ele>143.9</ele>
        <time>2023-08-16T08:36:43Z</time>
      </trkpt>
      <trkpt lat="49.76653" lon="2.22379">
        <ele>143.9</ele>
        <time>2023-08-16T08:36:44Z</time>
      </trkpt>
      <trkpt lat="49.76653" lon="2.22379">
        <ele>143.9</ele>
        <time>2023-08-16T08:36:45Z</time>
      </trkpt>
      <trkpt lat="49.76653" lon="2.22378">
        <ele>143.9</ele>
        <time>2023-08-16T08:36:46Z</time>
      </trkpt>
      <trkpt lat="49.76653" lon="2.22378">
        <ele>143.9</ele>
        <time>2023-08-16T08:36:47Z</time>
      </trkpt>
      <trkpt lat="49.76653" lon="2.22378">
        <ele>143.9</ele>
        <time>2023-08-16T08:36:48Z</time>
      </trkpt>
      <trkpt lat="49.76653" lon="2.22378">
        <ele>143.9</ele>
        <time>2023-08-16T08:36:49Z</time>
      </trkpt>
      <trkpt lat="49.76653" lon="2.22378">
        <ele>143.9</ele>
        <time>2023-08-16T08:36:50Z</time>
      </trkpt>
      <trkpt lat="49.76653" lon="2.22378">
        <ele>143.9</ele>
        <time>2023-08-16T08:36:51Z</time>
      </trkpt>
      <trkpt lat="49.76653" lon="2.22378">
        <ele>143.9</ele>
        <time>2023-08-16T08:36:52Z</time>
      </trkpt>
      <trkpt lat="49.76653" lon="2.22377">
        <ele>143.9</ele>
        <time>2023-08-16T08:36:53Z</time>
      </trkpt>
      <trkpt lat="49.76653" lon="2.22377">
        <ele>143.9</ele>
        <time>2023-08-16T08:36:54Z</time>
      </trkpt>
      <trkpt lat="49.76653" lon="2.22377">
        <ele>143.9</ele>
        <time>2023-08-16T08:36:55Z</time>
      </trkpt>
      <trkpt lat="49.76653" lon="2.22377">
        <ele>143.9</ele>
        <time>2023-08-16T08:36:56Z</time>
      </trkpt>
      <trkpt lat="49.76654" lon="2.22377">
        <ele>143.9</ele>
        <time>2023-08-16T08:36:57Z</time>
      </trkpt>
      <trkpt lat="49.76655" lon="2.22378">
        <ele>143.9</ele>
        <time>2023-08-16T08:36:58Z</time>
      </trkpt>
      <trkpt lat="49.76656" lon="2.22378">
        <ele>143.9</ele>
        <time>2023-08-16T08:36:59Z</time>
      </trkpt>
      <trkpt lat="49.76657" lon="2.22379">
        <ele>143.9</ele>
        <time>2023-08-16T08:37:01Z</time>
      </trkpt>
      <trkpt lat="49.76658" lon="2.2238">
        <ele>143.9</ele>
        <time>2023-08-16T08:37:02Z</time>
      </trkpt>
      <trkpt lat="49.76659" lon="2.2238">
        <ele>143.9</ele>
        <time>2023-08-16T08:37:03Z</time>
      </trkpt>
      <trkpt lat="49.76661" lon="2.22381">
        <ele>143.9</ele>
        <time>2023-08-16T08:37:04Z</time>
      </trkpt>
      <trkpt lat="49.76662" lon="2.22383">
        <ele>143.9</ele>
        <time>2023-08-16T08:37:05Z</time>
      </trkpt>
      <trkpt lat="49.76665" lon="2.22384">
        <ele>143.9</ele>
        <time>2023-08-16T08:37:06Z</time>
      </trkpt>
      <trkpt lat="49.76666" lon="2.22385">
        <ele>143.9</ele>
        <time>2023-08-16T08:37:07Z</time>
      </trkpt>
      <trkpt lat="49.76668" lon="2.22385">
        <ele>144</ele>
        <time>2023-08-16T08:37:09Z</time>
      </trkpt>
      <trkpt lat="49.7667" lon="2.22386">
        <ele>144</ele>
        <time>2023-08-16T08:37:10Z</time>
      </trkpt>
      <trkpt lat="49.76672" lon="2.22386">
        <ele>144</ele>
        <time>2023-08-16T08:37:11Z</time>
      </trkpt>
      <trkpt lat="49.76673" lon="2.22386">
        <ele>144</ele>
        <time>2023-08-16T08:37:12Z</time>
      </trkpt>
      <trkpt lat="49.76674" lon="2.22387">
        <ele>144</ele>
        <time>2023-08-16T08:37:13Z</time>
      </trkpt>
      <trkpt lat="49.76676" lon="2.22387">
        <ele>144</ele>
        <time>2023-08-16T08:37:14Z</time>
      </trkpt>
      <trkpt lat="49.76677" lon="2.22387">
        <ele>144.1</ele>
        <time>2023-08-16T08:37:16Z</time>
      </trkpt>
      <trkpt lat="49.76679" lon="2.22387">
        <ele>144.1</ele>
        <time>2023-08-16T08:37:17Z</time>
      </trkpt>
      <trkpt lat="49.7668" lon="2.22387">
        <ele>144.1</ele>
        <time>2023-08-16T08:37:18Z</time>
      </trkpt>
      <trkpt lat="49.76682" lon="2.22387">
        <ele>144.1</ele>
        <time>2023-08-16T08:37:19Z</time>
      </trkpt>
      <trkpt lat="49.76683" lon="2.22388">
        <ele>144.1</ele>
        <time>2023-08-16T08:37:20Z</time>
      </trkpt>
      <trkpt lat="49.76684" lon="2.22388">
        <ele>144.2</ele>
        <time>2023-08-16T08:37:21Z</time>
      </trkpt>
      <trkpt lat="49.76686" lon="2.22389">
        <ele>144.2</ele>
        <time>2023-08-16T08:37:22Z</time>
      </trkpt>
      <trkpt lat="49.76687" lon="2.22389">
        <ele>144.2</ele>
        <time>2023-08-16T08:37:23Z</time>
      </trkpt>
      <trkpt lat="49.76688" lon="2.22389">
        <ele>144.2</ele>
        <time>2023-08-16T08:37:24Z</time>
      </trkpt>
      <trkpt lat="49.76689" lon="2.2239">
        <ele>144.2</ele>
        <time>2023-08-16T08:37:25Z</time>
      </trkpt>
      <trkpt lat="49.76691" lon="2.2239">
        <ele>144.3</ele>
        <time>2023-08-16T08:37:27Z</time>
      </trkpt>
      <trkpt lat="49.76693" lon="2.22391">
        <ele>144.3</ele>
        <time>2023-08-16T08:37:28Z</time>
      </trkpt>
      <trkpt lat="49.76694" lon="2.22391">
        <ele>144.3</ele>
        <time>2023-08-16T08:37:29Z</time>
      </trkpt>
      <trkpt lat="49.76696" lon="2.22392">
        <ele>144.3</ele>
        <time>2023-08-16T08:37:31Z</time>
      </trkpt>
      <trkpt lat="49.76698" lon="2.22392">
        <ele>144.3</ele>
        <time>2023-08-16T08:37:32Z</time>
      </trkpt>
      <trkpt lat="49.76699" lon="2.22393">
        <ele>144.4</ele>
        <time>2023-08-16T08:37:33Z</time>
      </trkpt>
      <trkpt lat="49.767" lon="2.22393">
        <ele>144.4</ele>
        <time>2023-08-16T08:37:34Z</time>
      </trkpt>
      <trkpt lat="49.76702" lon="2.22394">
        <ele>144.4</ele>
        <time>2023-08-16T08:37:35Z</time>
      </trkpt>
      <trkpt lat="49.76703" lon="2.22394">
        <ele>144.4</ele>
        <time>2023-08-16T08:37:36Z</time>
      </trkpt>
      <trkpt lat="49.76704" lon="2.22394">
        <ele>144.4</ele>
        <time>2023-08-16T08:37:37Z</time>
      </trkpt>
      <trkpt lat="49.76706" lon="2.22395">
        <ele>144.4</ele>
        <time>2023-08-16T08:37:39Z</time>
      </trkpt>
      <trkpt lat="49.76707" lon="2.22396">
        <ele>144.4</ele>
        <time>2023-08-16T08:37:40Z</time>
      </trkpt>
      <trkpt lat="49.76708" lon="2.22397">
        <ele>144.4</ele>
        <time>2023-08-16T08:37:41Z</time>
      </trkpt>
      <trkpt lat="49.7671" lon="2.22398">
        <ele>144.4</ele>
        <time>2023-08-16T08:37:42Z</time>
      </trkpt>
      <trkpt lat="49.76711" lon="2.22398">
        <ele>144.5</ele>
        <time>2023-08-16T08:37:44Z</time>
      </trkpt>
      <trkpt lat="49.76712" lon="2.22398">
        <ele>144.5</ele>
        <time>2023-08-16T08:37:45Z</time>
      </trkpt>
      <trkpt lat="49.76714" lon="2.22399">
        <ele>144.5</ele>
        <time>2023-08-16T08:37:46Z</time>
      </trkpt>
      <trkpt lat="49.76715" lon="2.22399">
        <ele>144.5</ele>
        <time>2023-08-16T08:37:47Z</time>
      </trkpt>
      <trkpt lat="49.76716" lon="2.224">
        <ele>144.5</ele>
        <time>2023-08-16T08:37:48Z</time>
      </trkpt>
      <trkpt lat="49.76717" lon="2.224">
        <ele>144.5</ele>
        <time>2023-08-16T08:37:49Z</time>
      </trkpt>
      <trkpt lat="49.76719" lon="2.224">
        <ele>144.5</ele>
        <time>2023-08-16T08:37:50Z</time>
      </trkpt>
      <trkpt lat="49.7672" lon="2.22401">
        <ele>144.5</ele>
        <time>2023-08-16T08:37:51Z</time>
      </trkpt>
      <trkpt lat="49.76721" lon="2.22401">
        <ele>144.5</ele>
        <time>2023-08-16T08:37:52Z</time>
      </trkpt>
      <trkpt lat="49.76723" lon="2.22401">
        <ele>144.5</ele>
        <time>2023-08-16T08:37:53Z</time>
      </trkpt>
      <trkpt lat="49.76724" lon="2.22401">
        <ele>144.5</ele>
        <time>2023-08-16T08:37:54Z</time>
      </trkpt>
      <trkpt lat="49.76725" lon="2.22401">
        <ele>144.5</ele>
        <time>2023-08-16T08:37:55Z</time>
      </trkpt>
      <trkpt lat="49.76727" lon="2.22402">
        <ele>144.5</ele>
        <time>2023-08-16T08:37:57Z</time>
      </trkpt>
      <trkpt lat="49.76728" lon="2.22402">
        <ele>144.5</ele>
        <time>2023-08-16T08:37:58Z</time>
      </trkpt>
      <trkpt lat="49.7673" lon="2.22403">
        <ele>144.5</ele>
        <time>2023-08-16T08:37:59Z</time>
      </trkpt>
      <trkpt lat="49.76731" lon="2.22403">
        <ele>144.5</ele>
        <time>2023-08-16T08:38:00Z</time>
      </trkpt>
      <trkpt lat="49.76732" lon="2.22404">
        <ele>144.5</ele>
        <time>2023-08-16T08:38:01Z</time>
      </trkpt>
      <trkpt lat="49.76733" lon="2.22404">
        <ele>144.5</ele>
        <time>2023-08-16T08:38:02Z</time>
      </trkpt>
      <trkpt lat="49.76734" lon="2.22404">
        <ele>144.5</ele>
        <time>2023-08-16T08:38:03Z</time>
      </trkpt>
      <trkpt lat="49.76736" lon="2.22404">
        <ele>144.5</ele>
        <time>2023-08-16T08:38:05Z</time>
      </trkpt>
      <trkpt lat="49.76738" lon="2.22405">
        <ele>144.5</ele>
        <time>2023-08-16T08:38:06Z</time>
      </trkpt>
      <trkpt lat="49.76739" lon="2.22405">
        <ele>144.5</ele>
        <time>2023-08-16T08:38:07Z</time>
      </trkpt>
      <trkpt lat="49.76741" lon="2.22405">
        <ele>144.5</ele>
        <time>2023-08-16T08:38:09Z</time>
      </trkpt>
      <trkpt lat="49.76742" lon="2.22405">
        <ele>144.5</ele>
        <time>2023-08-16T08:38:10Z</time>
      </trkpt>
      <trkpt lat="49.76744" lon="2.22406">
        <ele>144.5</ele>
        <time>2023-08-16T08:38:11Z</time>
      </trkpt>
      <trkpt lat="49.76745" lon="2.22406">
        <ele>144.5</ele>
        <time>2023-08-16T08:38:12Z</time>
      </trkpt>
      <trkpt lat="49.76746" lon="2.22406">
        <ele>144.5</ele>
        <time>2023-08-16T08:38:13Z</time>
      </trkpt>
      <trkpt lat="49.76747" lon="2.22406">
        <ele>144.5</ele>
        <time>2023-08-16T08:38:14Z</time>
      </trkpt>
      <trkpt lat="49.76749" lon="2.22406">
        <ele>144.5</ele>
        <time>2023-08-16T08:38:16Z</time>
      </trkpt>
      <trkpt lat="49.7675" lon="2.22407">
        <ele>144.5</ele>
        <time>2023-08-16T08:38:17Z</time>
      </trkpt>
      <trkpt lat="49.76752" lon="2.22408">
        <ele>144.5</ele>
        <time>2023-08-16T08:38:18Z</time>
      </trkpt>
      <trkpt lat="49.76753" lon="2.22408">
        <ele>144.5</ele>
        <time>2023-08-16T08:38:19Z</time>
      </trkpt>
      <trkpt lat="49.76754" lon="2.22408">
        <ele>144.5</ele>
        <time>2023-08-16T08:38:20Z</time>
      </trkpt>
      <trkpt lat="49.76756" lon="2.22409">
        <ele>144.5</ele>
        <time>2023-08-16T08:38:22Z</time>
      </trkpt>
      <trkpt lat="49.76758" lon="2.22409">
        <ele>144.5</ele>
        <time>2023-08-16T08:38:23Z</time>
      </trkpt>
      <trkpt lat="49.76759" lon="2.22409">
        <ele>144.5</ele>
        <time>2023-08-16T08:38:24Z</time>
      </trkpt>
      <trkpt lat="49.76761" lon="2.22409">
        <ele>144.5</ele>
        <time>2023-08-16T08:38:25Z</time>
      </trkpt>
      <trkpt lat="49.76762" lon="2.22409">
        <ele>144.5</ele>
        <time>2023-08-16T08:38:26Z</time>
      </trkpt>
      <trkpt lat="49.76763" lon="2.2241">
        <ele>144.5</ele>
        <time>2023-08-16T08:38:27Z</time>
      </trkpt>
      <trkpt lat="49.76766" lon="2.2241">
        <ele>144.5</ele>
        <time>2023-08-16T08:38:28Z</time>
      </trkpt>
      <trkpt lat="49.76767" lon="2.22411">
        <ele>144.5</ele>
        <time>2023-08-16T08:38:30Z</time>
      </trkpt>
      <trkpt lat="49.76768" lon="2.22411">
        <ele>144.5</ele>
        <time>2023-08-16T08:38:31Z</time>
      </trkpt>
      <trkpt lat="49.76769" lon="2.22411">
        <ele>144.5</ele>
        <time>2023-08-16T08:38:32Z</time>
      </trkpt>
      <trkpt lat="49.7677" lon="2.22412">
        <ele>144.5</ele>
        <time>2023-08-16T08:38:33Z</time>
      </trkpt>
      <trkpt lat="49.76772" lon="2.22412">
        <ele>144.5</ele>
        <time>2023-08-16T08:38:34Z</time>
      </trkpt>
      <trkpt lat="49.76773" lon="2.22413">
        <ele>144.5</ele>
        <time>2023-08-16T08:38:35Z</time>
      </trkpt>
      <trkpt lat="49.76774" lon="2.22413">
        <ele>144.5</ele>
        <time>2023-08-16T08:38:36Z</time>
      </trkpt>
      <trkpt lat="49.76776" lon="2.22414">
        <ele>144.5</ele>
        <time>2023-08-16T08:38:37Z</time>
      </trkpt>
      <trkpt lat="49.76777" lon="2.22414">
        <ele>144.5</ele>
        <time>2023-08-16T08:38:39Z</time>
      </trkpt>
      <trkpt lat="49.76778" lon="2.22414">
        <ele>144.5</ele>
        <time>2023-08-16T08:38:40Z</time>
      </trkpt>
      <trkpt lat="49.7678" lon="2.22415">
        <ele>144.5</ele>
        <time>2023-08-16T08:38:41Z</time>
      </trkpt>
      <trkpt lat="49.76781" lon="2.22415">
        <ele>144.5</ele>
        <time>2023-08-16T08:38:42Z</time>
      </trkpt>
      <trkpt lat="49.76782" lon="2.22416">
        <ele>144.5</ele>
        <time>2023-08-16T08:38:43Z</time>
      </trkpt>
      <trkpt lat="49.76784" lon="2.22416">
        <ele>144.5</ele>
        <time>2023-08-16T08:38:45Z</time>
      </trkpt>
      <trkpt lat="49.76786" lon="2.22417">
        <ele>144.5</ele>
        <time>2023-08-16T08:38:46Z</time>
      </trkpt>
      <trkpt lat="49.76787" lon="2.22417">
        <ele>144.5</ele>
        <time>2023-08-16T08:38:47Z</time>
      </trkpt>
      <trkpt lat="49.76789" lon="2.22418">
        <ele>144.5</ele>
        <time>2023-08-16T08:38:48Z</time>
      </trkpt>
      <trkpt lat="49.7679" lon="2.22418">
        <ele>144.4</ele>
        <time>2023-08-16T08:38:50Z</time>
      </trkpt>
      <trkpt lat="49.76791" lon="2.22419">
        <ele>144.4</ele>
        <time>2023-08-16T08:38:51Z</time>
      </trkpt>
      <trkpt lat="49.76793" lon="2.22419">
        <ele>144.4</ele>
        <time>2023-08-16T08:38:52Z</time>
      </trkpt>
      <trkpt lat="49.76794" lon="2.2242">
        <ele>144.4</ele>
        <time>2023-08-16T08:38:53Z</time>
      </trkpt>
      <trkpt lat="49.76795" lon="2.2242">
        <ele>144.4</ele>
        <time>2023-08-16T08:38:54Z</time>
      </trkpt>
      <trkpt lat="49.76796" lon="2.2242">
        <ele>144.4</ele>
        <time>2023-08-16T08:38:55Z</time>
      </trkpt>
      <trkpt lat="49.76797" lon="2.22421">
        <ele>144.4</ele>
        <time>2023-08-16T08:38:56Z</time>
      </trkpt>
      <trkpt lat="49.76798" lon="2.22421">
        <ele>144.4</ele>
        <time>2023-08-16T08:38:57Z</time>
      </trkpt>
      <trkpt lat="49.768" lon="2.22421">
        <ele>144.4</ele>
        <time>2023-08-16T08:38:58Z</time>
      </trkpt>
      <trkpt lat="49.76801" lon="2.22422">
        <ele>144.4</ele>
        <time>2023-08-16T08:39:00Z</time>
      </trkpt>
      <trkpt lat="49.76802" lon="2.22422">
        <ele>144.4</ele>
        <time>2023-08-16T08:39:01Z</time>
      </trkpt>
      <trkpt lat="49.76804" lon="2.22423">
        <ele>144.4</ele>
        <time>2023-08-16T08:39:02Z</time>
      </trkpt>
      <trkpt lat="49.76805" lon="2.22423">
        <ele>144.4</ele>
        <time>2023-08-16T08:39:03Z</time>
      </trkpt>
      <trkpt lat="49.76807" lon="2.22424">
        <ele>144.4</ele>
        <time>2023-08-16T08:39:05Z</time>
      </trkpt>
      <trkpt lat="49.76808" lon="2.22424">
        <ele>144.4</ele>
        <time>2023-08-16T08:39:06Z</time>
      </trkpt>
      <trkpt lat="49.76809" lon="2.22425">
        <ele>144.4</ele>
        <time>2023-08-16T08:39:07Z</time>
      </trkpt>
      <trkpt lat="49.76811" lon="2.22425">
        <ele>144.4</ele>
        <time>2023-08-16T08:39:08Z</time>
      </trkpt>
      <trkpt lat="49.76812" lon="2.22425">
        <ele>144.4</ele>
        <time>2023-08-16T08:39:10Z</time>
      </trkpt>
      <trkpt lat="49.76813" lon="2.22426">
        <ele>144.4</ele>
        <time>2023-08-16T08:39:11Z</time>
      </trkpt>
      <trkpt lat="49.76815" lon="2.22426">
        <ele>144.4</ele>
        <time>2023-08-16T08:39:12Z</time>
      </trkpt>
      <trkpt lat="49.76816" lon="2.22426">
        <ele>144.4</ele>
        <time>2023-08-16T08:39:13Z</time>
      </trkpt>
      <trkpt lat="49.76818" lon="2.22426">
        <ele>144.4</ele>
        <time>2023-08-16T08:39:14Z</time>
      </trkpt>
      <trkpt lat="49.76819" lon="2.22426">
        <ele>144.4</ele>
        <time>2023-08-16T08:39:15Z</time>
      </trkpt>
      <trkpt lat="49.76819" lon="2.22427">
        <ele>144.4</ele>
        <time>2023-08-16T08:39:16Z</time>
      </trkpt>
      <trkpt lat="49.76821" lon="2.22427">
        <ele>144.4</ele>
        <time>2023-08-16T08:39:18Z</time>
      </trkpt>
      <trkpt lat="49.76823" lon="2.22428">
        <ele>144.4</ele>
        <time>2023-08-16T08:39:19Z</time>
      </trkpt>
      <trkpt lat="49.76824" lon="2.22428">
        <ele>144.4</ele>
        <time>2023-08-16T08:39:20Z</time>
      </trkpt>
      <trkpt lat="49.76825" lon="2.22428">
        <ele>144.4</ele>
        <time>2023-08-16T08:39:21Z</time>
      </trkpt>
      <trkpt lat="49.76826" lon="2.22428">
        <ele>144.4</ele>
        <time>2023-08-16T08:39:22Z</time>
      </trkpt>
      <trkpt lat="49.76827" lon="2.22429">
        <ele>144.4</ele>
        <time>2023-08-16T08:39:24Z</time>
      </trkpt>
      <trkpt lat="49.76829" lon="2.22429">
        <ele>144.4</ele>
        <time>2023-08-16T08:39:25Z</time>
      </trkpt>
      <trkpt lat="49.76829" lon="2.2243">
        <ele>144.4</ele>
        <time>2023-08-16T08:39:26Z</time>
      </trkpt>
      <trkpt lat="49.76831" lon="2.22431">
        <ele>144.4</ele>
        <time>2023-08-16T08:39:27Z</time>
      </trkpt>
      <trkpt lat="49.76832" lon="2.22431">
        <ele>144.4</ele>
        <time>2023-08-16T08:39:28Z</time>
      </trkpt>
      <trkpt lat="49.76834" lon="2.22432">
        <ele>144.5</ele>
        <time>2023-08-16T08:39:29Z</time>
      </trkpt>
      <trkpt lat="49.76835" lon="2.22432">
        <ele>144.5</ele>
        <time>2023-08-16T08:39:31Z</time>
      </trkpt>
      <trkpt lat="49.76837" lon="2.22432">
        <ele>144.5</ele>
        <time>2023-08-16T08:39:33Z</time>
      </trkpt>
      <trkpt lat="49.76838" lon="2.22432">
        <ele>144.5</ele>
        <time>2023-08-16T08:39:34Z</time>
      </trkpt>
      <trkpt lat="49.76839" lon="2.22433">
        <ele>144.5</ele>
        <time>2023-08-16T08:39:35Z</time>
      </trkpt>
      <trkpt lat="49.76841" lon="2.22433">
        <ele>144.5</ele>
        <time>2023-08-16T08:39:36Z</time>
      </trkpt>
      <trkpt lat="49.76842" lon="2.22433">
        <ele>144.5</ele>
        <time>2023-08-16T08:39:37Z</time>
      </trkpt>
      <trkpt lat="49.76843" lon="2.22434">
        <ele>144.5</ele>
        <time>2023-08-16T08:39:38Z</time>
      </trkpt>
      <trkpt lat="49.76845" lon="2.22434">
        <ele>144.5</ele>
        <time>2023-08-16T08:39:39Z</time>
      </trkpt>
      <trkpt lat="49.76846" lon="2.22435">
        <ele>144.5</ele>
        <time>2023-08-16T08:39:41Z</time>
      </trkpt>
      <trkpt lat="49.76847" lon="2.22435">
        <ele>144.5</ele>
        <time>2023-08-16T08:39:42Z</time>
      </trkpt>
      <trkpt lat="49.76848" lon="2.22435">
        <ele>144.5</ele>
        <time>2023-08-16T08:39:43Z</time>
      </trkpt>
      <trkpt lat="49.76849" lon="2.22436">
        <ele>144.5</ele>
        <time>2023-08-16T08:39:44Z</time>
      </trkpt>
      <trkpt lat="49.7685" lon="2.22436">
        <ele>144.5</ele>
        <time>2023-08-16T08:39:45Z</time>
      </trkpt>
      <trkpt lat="49.76851" lon="2.22436">
        <ele>144.5</ele>
        <time>2023-08-16T08:39:46Z</time>
      </trkpt>
      <trkpt lat="49.76853" lon="2.22437">
        <ele>144.5</ele>
        <time>2023-08-16T08:39:48Z</time>
      </trkpt>
      <trkpt lat="49.76854" lon="2.22437">
        <ele>144.5</ele>
        <time>2023-08-16T08:39:49Z</time>
      </trkpt>
      <trkpt lat="49.76856" lon="2.22437">
        <ele>144.5</ele>
        <time>2023-08-16T08:39:50Z</time>
      </trkpt>
      <trkpt lat="49.76858" lon="2.22438">
        <ele>144.5</ele>
        <time>2023-08-16T08:39:52Z</time>
      </trkpt>
      <trkpt lat="49.76859" lon="2.22439">
        <ele>144.5</ele>
        <time>2023-08-16T08:39:53Z</time>
      </trkpt>
      <trkpt lat="49.7686" lon="2.22439">
        <ele>144.5</ele>
        <time>2023-08-16T08:39:54Z</time>
      </trkpt>
      <trkpt lat="49.7686" lon="2.2244">
        <ele>144.6</ele>
        <time>2023-08-16T08:39:55Z</time>
      </trkpt>
      <trkpt lat="49.76861" lon="2.2244">
        <ele>144.6</ele>
        <time>2023-08-16T08:39:56Z</time>
      </trkpt>
      <trkpt lat="49.76863" lon="2.22441">
        <ele>144.6</ele>
        <time>2023-08-16T08:39:57Z</time>
      </trkpt>
      <trkpt lat="49.76864" lon="2.22441">
        <ele>144.6</ele>
        <time>2023-08-16T08:39:58Z</time>
      </trkpt>
      <trkpt lat="49.76864" lon="2.22441">
        <ele>144.6</ele>
        <time>2023-08-16T08:39:59Z</time>
      </trkpt>
      <trkpt lat="49.76866" lon="2.22441">
        <ele>144.6</ele>
        <time>2023-08-16T08:40:01Z</time>
      </trkpt>
      <trkpt lat="49.76867" lon="2.22442">
        <ele>144.6</ele>
        <time>2023-08-16T08:40:02Z</time>
      </trkpt>
      <trkpt lat="49.76868" lon="2.22442">
        <ele>144.6</ele>
        <time>2023-08-16T08:40:03Z</time>
      </trkpt>
      <trkpt lat="49.76869" lon="2.22442">
        <ele>144.6</ele>
        <time>2023-08-16T08:40:04Z</time>
      </trkpt>
      <trkpt lat="49.7687" lon="2.22443">
        <ele>144.6</ele>
        <time>2023-08-16T08:40:05Z</time>
      </trkpt>
      <trkpt lat="49.76871" lon="2.22443">
        <ele>144.6</ele>
        <time>2023-08-16T08:40:06Z</time>
      </trkpt>
      <trkpt lat="49.76872" lon="2.22443">
        <ele>144.6</ele>
        <time>2023-08-16T08:40:08Z</time>
      </trkpt>
      <trkpt lat="49.76874" lon="2.22444">
        <ele>144.6</ele>
        <time>2023-08-16T08:40:09Z</time>
      </trkpt>
      <trkpt lat="49.76875" lon="2.22444">
        <ele>144.6</ele>
        <time>2023-08-16T08:40:10Z</time>
      </trkpt>
      <trkpt lat="49.76876" lon="2.22444">
        <ele>144.6</ele>
        <time>2023-08-16T08:40:11Z</time>
      </trkpt>
      <trkpt lat="49.76877" lon="2.22444">
        <ele>144.6</ele>
        <time>2023-08-16T08:40:12Z</time>
      </trkpt>
      <trkpt lat="49.76878" lon="2.22445">
        <ele>144.6</ele>
        <time>2023-08-16T08:40:13Z</time>
      </trkpt>
      <trkpt lat="49.76879" lon="2.22445">
        <ele>144.6</ele>
        <time>2023-08-16T08:40:14Z</time>
      </trkpt>
      <trkpt lat="49.7688" lon="2.22446">
        <ele>144.6</ele>
        <time>2023-08-16T08:40:16Z</time>
      </trkpt>
      <trkpt lat="49.76881" lon="2.22446">
        <ele>144.6</ele>
        <time>2023-08-16T08:40:17Z</time>
      </trkpt>
      <trkpt lat="49.76882" lon="2.22446">
        <ele>144.6</ele>
        <time>2023-08-16T08:40:18Z</time>
      </trkpt>
      <trkpt lat="49.76883" lon="2.22446">
        <ele>144.6</ele>
        <time>2023-08-16T08:40:19Z</time>
      </trkpt>
      <trkpt lat="49.76884" lon="2.22446">
        <ele>144.6</ele>
        <time>2023-08-16T08:40:20Z</time>
      </trkpt>
      <trkpt lat="49.76886" lon="2.22446">
        <ele>144.5</ele>
        <time>2023-08-16T08:40:22Z</time>
      </trkpt>
      <trkpt lat="49.76887" lon="2.22446">
        <ele>144.5</ele>
        <time>2023-08-16T08:40:23Z</time>
      </trkpt>
      <trkpt lat="49.76888" lon="2.22446">
        <ele>144.5</ele>
        <time>2023-08-16T08:40:24Z</time>
      </trkpt>
      <trkpt lat="49.76889" lon="2.22446">
        <ele>144.5</ele>
        <time>2023-08-16T08:40:26Z</time>
      </trkpt>
      <trkpt lat="49.76891" lon="2.22446">
        <ele>144.5</ele>
        <time>2023-08-16T08:40:27Z</time>
      </trkpt>
      <trkpt lat="49.76892" lon="2.22446">
        <ele>144.5</ele>
        <time>2023-08-16T08:40:28Z</time>
      </trkpt>
      <trkpt lat="49.76893" lon="2.22446">
        <ele>144.5</ele>
        <time>2023-08-16T08:40:29Z</time>
      </trkpt>
      <trkpt lat="49.76894" lon="2.22446">
        <ele>144.5</ele>
        <time>2023-08-16T08:40:31Z</time>
      </trkpt>
      <trkpt lat="49.76895" lon="2.22446">
        <ele>144.5</ele>
        <time>2023-08-16T08:40:32Z</time>
      </trkpt>
      <trkpt lat="49.76896" lon="2.22447">
        <ele>144.5</ele>
        <time>2023-08-16T08:40:33Z</time>
      </trkpt>
      <trkpt lat="49.76897" lon="2.22447">
        <ele>144.4</ele>
        <time>2023-08-16T08:40:34Z</time>
      </trkpt>
      <trkpt lat="49.76898" lon="2.22447">
        <ele>144.4</ele>
        <time>2023-08-16T08:40:35Z</time>
      </trkpt>
      <trkpt lat="49.76899" lon="2.22447">
        <ele>144.4</ele>
        <time>2023-08-16T08:40:37Z</time>
      </trkpt>
      <trkpt lat="49.769" lon="2.22447">
        <ele>144.4</ele>
        <time>2023-08-16T08:40:38Z</time>
      </trkpt>
      <trkpt lat="49.76901" lon="2.22447">
        <ele>144.4</ele>
        <time>2023-08-16T08:40:40Z</time>
      </trkpt>
      <trkpt lat="49.76902" lon="2.22447">
        <ele>144.4</ele>
        <time>2023-08-16T08:40:41Z</time>
      </trkpt>
      <trkpt lat="49.76902" lon="2.22447">
        <ele>144.4</ele>
        <time>2023-08-16T08:40:43Z</time>
      </trkpt>
      <trkpt lat="49.76902" lon="2.22447">
        <ele>144.4</ele>
        <time>2023-08-16T08:40:44Z</time>
      </trkpt>
      <trkpt lat="49.76902" lon="2.22447">
        <ele>144.4</ele>
        <time>2023-08-16T08:40:46Z</time>
      </trkpt>
      <trkpt lat="49.76902" lon="2.22447">
        <ele>144.4</ele>
        <time>2023-08-16T08:40:47Z</time>
      </trkpt>
      <trkpt lat="49.76902" lon="2.22447">
        <ele>144.4</ele>
        <time>2023-08-16T08:40:49Z</time>
      </trkpt>
      <trkpt lat="49.76902" lon="2.22447">
        <ele>144.4</ele>
        <time>2023-08-16T08:40:50Z</time>
      </trkpt>
      <trkpt lat="49.76902" lon="2.22447">
        <ele>144.4</ele>
        <time>2023-08-16T08:40:51Z</time>
      </trkpt>
      <trkpt lat="49.76902" lon="2.22447">
        <ele>144.4</ele>
        <time>2023-08-16T08:40:53Z</time>
      </trkpt>
      <trkpt lat="49.76902" lon="2.22447">
        <ele>144.4</ele>
        <time>2023-08-16T08:40:54Z</time>
      </trkpt>
      <trkpt lat="49.76902" lon="2.22448">
        <ele>144.4</ele>
        <time>2023-08-16T08:40:56Z</time>
      </trkpt>
      <trkpt lat="49.76901" lon="2.22447">
        <ele>144.4</ele>
        <time>2023-08-16T08:40:57Z</time>
      </trkpt>
      <trkpt lat="49.76901" lon="2.22447">
        <ele>144.4</ele>
        <time>2023-08-16T08:40:58Z</time>
      </trkpt>
      <trkpt lat="49.76901" lon="2.22447">
        <ele>144.4</ele>
        <time>2023-08-16T08:40:59Z</time>
      </trkpt>
      <trkpt lat="49.76901" lon="2.22447">
        <ele>144.4</ele>
        <time>2023-08-16T08:41:00Z</time>
      </trkpt>
      <trkpt lat="49.76901" lon="2.22447">
        <ele>144.4</ele>
        <time>2023-08-16T08:41:01Z</time>
      </trkpt>
      <trkpt lat="49.76901" lon="2.22447">
        <ele>144.4</ele>
        <time>2023-08-16T08:41:02Z</time>
      </trkpt>
      <trkpt lat="49.76901" lon="2.22447">
        <ele>144.4</ele>
        <time>2023-08-16T08:41:03Z</time>
      </trkpt>
      <trkpt lat="49.76901" lon="2.22447">
        <ele>144.4</ele>
        <time>2023-08-16T08:41:04Z</time>
      </trkpt>
      <trkpt lat="49.76901" lon="2.22447">
        <ele>144.4</ele>
        <time>2023-08-16T08:41:05Z</time>
      </trkpt>
      <trkpt lat="49.76901" lon="2.22447">
        <ele>144.4</ele>
        <time>2023-08-16T08:41:06Z</time>
      </trkpt>
      <trkpt lat="49.76901" lon="2.22447">
        <ele>144.4</ele>
        <time>2023-08-16T08:41:07Z</time>
      </trkpt>
      <trkpt lat="49.76901" lon="2.22447">
        <ele>144.4</ele>
        <time>2023-08-16T08:41:08Z</time>
      </trkpt>
      <trkpt lat="49.76901" lon="2.22447">
        <ele>144.4</ele>
        <time>2023-08-16T08:41:09Z</time>
      </trkpt>
      <trkpt lat="49.76901" lon="2.22447">
        <ele>144.4</ele>
        <time>2023-08-16T08:41:10Z</time>
      </trkpt>
      <trkpt lat="49.76901" lon="2.22447">
        <ele>144.4</ele>
        <time>2023-08-16T08:41:11Z</time>
      </trkpt>
      <trkpt lat="49.76901" lon="2.22447">
        <ele>144.4</ele>
        <time>2023-08-16T08:41:12Z</time>
      </trkpt>
      <trkpt lat="49.76901" lon="2.22447">
        <ele>144.4</ele>
        <time>2023-08-16T08:41:13Z</time>
      </trkpt>
      <trkpt lat="49.76901" lon="2.22447">
        <ele>144.4</ele>
        <time>2023-08-16T08:41:14Z</time>
      </trkpt>
      <trkpt lat="49.76901" lon="2.22447">
        <ele>144.4</ele>
        <time>2023-08-16T08:41:15Z</time>
      </trkpt>
      <trkpt lat="49.76901" lon="2.22447">
        <ele>144.4</ele>
        <time>2023-08-16T08:41:16Z</time>
      </trkpt>
      <trkpt lat="49.76901" lon="2.22447">
        <ele>144.4</ele>
        <time>2023-08-16T08:41:17Z</time>
      </trkpt>
      <trkpt lat="49.76901" lon="2.22447">
        <ele>144.4</ele>
        <time>2023-08-16T08:41:18Z</time>
      </trkpt>
      <trkpt lat="49.76901" lon="2.22447">
        <ele>144.4</ele>
        <time>2023-08-16T08:41:19Z</time>
      </trkpt>
      <trkpt lat="49.769" lon="2.22447">
        <ele>144.4</ele>
        <time>2023-08-16T08:41:20Z</time>
      </trkpt>
      <trkpt lat="49.76899" lon="2.22447">
        <ele>144.4</ele>
        <time>2023-08-16T08:41:21Z</time>
      </trkpt>
      <trkpt lat="49.76899" lon="2.22447">
        <ele>144.4</ele>
        <time>2023-08-16T08:41:22Z</time>
      </trkpt>
      <trkpt lat="49.769" lon="2.22447">
        <ele>144.4</ele>
        <time>2023-08-16T08:41:23Z</time>
      </trkpt>
      <trkpt lat="49.76901" lon="2.22447">
        <ele>144.4</ele>
        <time>2023-08-16T08:41:24Z</time>
      </trkpt>
      <trkpt lat="49.76901" lon="2.22447">
        <ele>144.4</ele>
        <time>2023-08-16T08:41:26Z</time>
      </trkpt>
      <trkpt lat="49.76902" lon="2.22448">
        <ele>144.4</ele>
        <time>2023-08-16T08:41:27Z</time>
      </trkpt>
      <trkpt lat="49.76904" lon="2.22448">
        <ele>144.4</ele>
        <time>2023-08-16T08:41:28Z</time>
      </trkpt>
      <trkpt lat="49.76905" lon="2.22448">
        <ele>144.4</ele>
        <time>2023-08-16T08:41:29Z</time>
      </trkpt>
      <trkpt lat="49.76906" lon="2.22448">
        <ele>144.4</ele>
        <time>2023-08-16T08:41:30Z</time>
      </trkpt>
      <trkpt lat="49.76907" lon="2.22447">
        <ele>144.4</ele>
        <time>2023-08-16T08:41:31Z</time>
      </trkpt>
      <trkpt lat="49.76909" lon="2.22447">
        <ele>144.4</ele>
        <time>2023-08-16T08:41:33Z</time>
      </trkpt>
      <trkpt lat="49.7691" lon="2.22446">
        <ele>144.4</ele>
        <time>2023-08-16T08:41:34Z</time>
      </trkpt>
      <trkpt lat="49.76911" lon="2.22446">
        <ele>144.4</ele>
        <time>2023-08-16T08:41:35Z</time>
      </trkpt>
      <trkpt lat="49.76912" lon="2.22446">
        <ele>144.4</ele>
        <time>2023-08-16T08:41:36Z</time>
      </trkpt>
      <trkpt lat="49.76913" lon="2.22446">
        <ele>144.4</ele>
        <time>2023-08-16T08:41:37Z</time>
      </trkpt>
      <trkpt lat="49.76914" lon="2.22446">
        <ele>144.4</ele>
        <time>2023-08-16T08:41:39Z</time>
      </trkpt>
      <trkpt lat="49.76914" lon="2.22446">
        <ele>144.4</ele>
        <time>2023-08-16T08:41:40Z</time>
      </trkpt>
      <trkpt lat="49.76914" lon="2.22446">
        <ele>144.4</ele>
        <time>2023-08-16T08:41:41Z</time>
      </trkpt>
      <trkpt lat="49.76914" lon="2.22447">
        <ele>144.4</ele>
        <time>2023-08-16T08:41:42Z</time>
      </trkpt>
      <trkpt lat="49.76915" lon="2.22447">
        <ele>144.4</ele>
        <time>2023-08-16T08:41:44Z</time>
      </trkpt>
      <trkpt lat="49.76916" lon="2.22448">
        <ele>144.4</ele>
        <time>2023-08-16T08:41:45Z</time>
      </trkpt>
      <trkpt lat="49.76916" lon="2.22448">
        <ele>144.4</ele>
        <time>2023-08-16T08:41:46Z</time>
      </trkpt>
      <trkpt lat="49.76917" lon="2.22449">
        <ele>144.4</ele>
        <time>2023-08-16T08:41:47Z</time>
      </trkpt>
      <trkpt lat="49.76918" lon="2.22449">
        <ele>144.4</ele>
        <time>2023-08-16T08:41:48Z</time>
      </trkpt>
      <trkpt lat="49.76919" lon="2.2245">
        <ele>144.4</ele>
        <time>2023-08-16T08:41:50Z</time>
      </trkpt>
      <trkpt lat="49.7692" lon="2.22451">
        <ele>144.4</ele>
        <time>2023-08-16T08:41:51Z</time>
      </trkpt>
      <trkpt lat="49.76921" lon="2.22451">
        <ele>144.4</ele>
        <time>2023-08-16T08:41:52Z</time>
      </trkpt>
      <trkpt lat="49.76922" lon="2.22451">
        <ele>144.4</ele>
        <time>2023-08-16T08:41:53Z</time>
      </trkpt>
      <trkpt lat="49.76923" lon="2.22452">
        <ele>144.4</ele>
        <time>2023-08-16T08:41:54Z</time>
      </trkpt>
      <trkpt lat="49.76924" lon="2.22453">
        <ele>144.4</ele>
        <time>2023-08-16T08:41:55Z</time>
      </trkpt>
      <trkpt lat="49.76925" lon="2.22453">
        <ele>144.4</ele>
        <time>2023-08-16T08:41:56Z</time>
      </trkpt>
      <trkpt lat="49.76927" lon="2.22454">
        <ele>144.4</ele>
        <time>2023-08-16T08:41:57Z</time>
      </trkpt>
      <trkpt lat="49.76928" lon="2.22454">
        <ele>144.4</ele>
        <time>2023-08-16T08:41:59Z</time>
      </trkpt>
      <trkpt lat="49.7693" lon="2.22454">
        <ele>144.4</ele>
        <time>2023-08-16T08:42:00Z</time>
      </trkpt>
      <trkpt lat="49.76931" lon="2.22454">
        <ele>144.4</ele>
        <time>2023-08-16T08:42:01Z</time>
      </trkpt>
      <trkpt lat="49.76932" lon="2.22455">
        <ele>144.4</ele>
        <time>2023-08-16T08:42:02Z</time>
      </trkpt>
      <trkpt lat="49.76933" lon="2.22456">
        <ele>144.4</ele>
        <time>2023-08-16T08:42:03Z</time>
      </trkpt>
      <trkpt lat="49.76934" lon="2.22456">
        <ele>144.3</ele>
        <time>2023-08-16T08:42:04Z</time>
      </trkpt>
      <trkpt lat="49.76935" lon="2.22457">
        <ele>144.3</ele>
        <time>2023-08-16T08:42:05Z</time>
      </trkpt>
      <trkpt lat="49.76937" lon="2.22458">
        <ele>144.3</ele>
        <time>2023-08-16T08:42:07Z</time>
      </trkpt>
      <trkpt lat="49.76938" lon="2.22459">
        <ele>144.3</ele>
        <time>2023-08-16T08:42:08Z</time>
      </trkpt>
      <trkpt lat="49.7694" lon="2.22459">
        <ele>144.3</ele>
        <time>2023-08-16T08:42:10Z</time>
      </trkpt>
      <trkpt lat="49.76941" lon="2.2246">
        <ele>144.3</ele>
        <time>2023-08-16T08:42:11Z</time>
      </trkpt>
      <trkpt lat="49.76942" lon="2.2246">
        <ele>144.3</ele>
        <time>2023-08-16T08:42:12Z</time>
      </trkpt>
      <trkpt lat="49.76944" lon="2.2246">
        <ele>144.2</ele>
        <time>2023-08-16T08:42:13Z</time>
      </trkpt>
      <trkpt lat="49.76945" lon="2.22461">
        <ele>144.2</ele>
        <time>2023-08-16T08:42:14Z</time>
      </trkpt>
      <trkpt lat="49.76946" lon="2.22461">
        <ele>144.2</ele>
        <time>2023-08-16T08:42:15Z</time>
      </trkpt>
      <trkpt lat="49.76947" lon="2.22461">
        <ele>144.2</ele>
        <time>2023-08-16T08:42:16Z</time>
      </trkpt>
      <trkpt lat="49.76948" lon="2.22461">
        <ele>144.2</ele>
        <time>2023-08-16T08:42:18Z</time>
      </trkpt>
      <trkpt lat="49.76949" lon="2.22461">
        <ele>144.2</ele>
        <time>2023-08-16T08:42:19Z</time>
      </trkpt>
      <trkpt lat="49.7695" lon="2.22461">
        <ele>144.2</ele>
        <time>2023-08-16T08:42:20Z</time>
      </trkpt>
      <trkpt lat="49.76951" lon="2.22462">
        <ele>144.1</ele>
        <time>2023-08-16T08:42:21Z</time>
      </trkpt>
      <trkpt lat="49.76952" lon="2.22462">
        <ele>144.1</ele>
        <time>2023-08-16T08:42:22Z</time>
      </trkpt>
      <trkpt lat="49.76953" lon="2.22462">
        <ele>144.1</ele>
        <time>2023-08-16T08:42:23Z</time>
      </trkpt>
      <trkpt lat="49.76955" lon="2.22462">
        <ele>144.1</ele>
        <time>2023-08-16T08:42:25Z</time>
      </trkpt>
      <trkpt lat="49.76956" lon="2.22463">
        <ele>144.1</ele>
        <time>2023-08-16T08:42:26Z</time>
      </trkpt>
      <trkpt lat="49.76958" lon="2.22463">
        <ele>144</ele>
        <time>2023-08-16T08:42:28Z</time>
      </trkpt>
      <trkpt lat="49.76959" lon="2.22463">
        <ele>144</ele>
        <time>2023-08-16T08:42:29Z</time>
      </trkpt>
      <trkpt lat="49.7696" lon="2.22463">
        <ele>144</ele>
        <time>2023-08-16T08:42:30Z</time>
      </trkpt>
      <trkpt lat="49.76961" lon="2.22463">
        <ele>144</ele>
        <time>2023-08-16T08:42:31Z</time>
      </trkpt>
      <trkpt lat="49.76963" lon="2.22464">
        <ele>144</ele>
        <time>2023-08-16T08:42:32Z</time>
      </trkpt>
      <trkpt lat="49.76964" lon="2.22464">
        <ele>144</ele>
        <time>2023-08-16T08:42:33Z</time>
      </trkpt>
      <trkpt lat="49.76965" lon="2.22464">
        <ele>144</ele>
        <time>2023-08-16T08:42:34Z</time>
      </trkpt>
      <trkpt lat="49.76967" lon="2.22465">
        <ele>143.9</ele>
        <time>2023-08-16T08:42:35Z</time>
      </trkpt>
      <trkpt lat="49.76968" lon="2.22465">
        <ele>143.9</ele>
        <time>2023-08-16T08:42:37Z</time>
      </trkpt>
      <trkpt lat="49.76969" lon="2.22465">
        <ele>143.9</ele>
        <time>2023-08-16T08:42:38Z</time>
      </trkpt>
      <trkpt lat="49.76971" lon="2.22465">
        <ele>143.8</ele>
        <time>2023-08-16T08:42:39Z</time>
      </trkpt>
      <trkpt lat="49.76972" lon="2.22466">
        <ele>143.8</ele>
        <time>2023-08-16T08:42:40Z</time>
      </trkpt>
      <trkpt lat="49.76972" lon="2.22466">
        <ele>143.8</ele>
        <time>2023-08-16T08:42:41Z</time>
      </trkpt>
      <trkpt lat="49.76974" lon="2.22466">
        <ele>143.8</ele>
        <time>2023-08-16T08:42:42Z</time>
      </trkpt>
      <trkpt lat="49.76975" lon="2.22466">
        <ele>143.7</ele>
        <time>2023-08-16T08:42:43Z</time>
      </trkpt>
      <trkpt lat="49.76978" lon="2.22467">
        <ele>143.7</ele>
        <time>2023-08-16T08:42:44Z</time>
      </trkpt>
      <trkpt lat="49.76979" lon="2.22467">
        <ele>143.7</ele>
        <time>2023-08-16T08:42:46Z</time>
      </trkpt>
      <trkpt lat="49.7698" lon="2.22468">
        <ele>143.6</ele>
        <time>2023-08-16T08:42:47Z</time>
      </trkpt>
      <trkpt lat="49.76981" lon="2.22468">
        <ele>143.6</ele>
        <time>2023-08-16T08:42:48Z</time>
      </trkpt>
      <trkpt lat="49.76982" lon="2.22468">
        <ele>143.6</ele>
        <time>2023-08-16T08:42:49Z</time>
      </trkpt>
      <trkpt lat="49.76984" lon="2.22468">
        <ele>143.6</ele>
        <time>2023-08-16T08:42:50Z</time>
      </trkpt>
      <trkpt lat="49.76985" lon="2.22469">
        <ele>143.5</ele>
        <time>2023-08-16T08:42:52Z</time>
      </trkpt>
      <trkpt lat="49.76986" lon="2.22469">
        <ele>143.5</ele>
        <time>2023-08-16T08:42:53Z</time>
      </trkpt>
      <trkpt lat="49.76988" lon="2.22469">
        <ele>143.5</ele>
        <time>2023-08-16T08:42:54Z</time>
      </trkpt>
      <trkpt lat="49.76989" lon="2.22469">
        <ele>143.5</ele>
        <time>2023-08-16T08:42:55Z</time>
      </trkpt>
      <trkpt lat="49.7699" lon="2.22469">
        <ele>143.5</ele>
        <time>2023-08-16T08:42:56Z</time>
      </trkpt>
      <trkpt lat="49.76991" lon="2.2247">
        <ele>143.4</ele>
        <time>2023-08-16T08:42:58Z</time>
      </trkpt>
      <trkpt lat="49.76993" lon="2.2247">
        <ele>143.4</ele>
        <time>2023-08-16T08:42:59Z</time>
      </trkpt>
      <trkpt lat="49.76995" lon="2.2247">
        <ele>143.4</ele>
        <time>2023-08-16T08:43:00Z</time>
      </trkpt>
      <trkpt lat="49.76996" lon="2.22471">
        <ele>143.4</ele>
        <time>2023-08-16T08:43:01Z</time>
      </trkpt>
      <trkpt lat="49.76996" lon="2.22471">
        <ele>143.4</ele>
        <time>2023-08-16T08:43:02Z</time>
      </trkpt>
      <trkpt lat="49.76999" lon="2.22471">
        <ele>143.3</ele>
        <time>2023-08-16T08:43:03Z</time>
      </trkpt>
      <trkpt lat="49.77" lon="2.22471">
        <ele>143.3</ele>
        <time>2023-08-16T08:43:05Z</time>
      </trkpt>
      <trkpt lat="49.77001" lon="2.22472">
        <ele>143.3</ele>
        <time>2023-08-16T08:43:06Z</time>
      </trkpt>
      <trkpt lat="49.77002" lon="2.22472">
        <ele>143.3</ele>
        <time>2023-08-16T08:43:08Z</time>
      </trkpt>
      <trkpt lat="49.77004" lon="2.22473">
        <ele>143.3</ele>
        <time>2023-08-16T08:43:09Z</time>
      </trkpt>
      <trkpt lat="49.77005" lon="2.22473">
        <ele>143.3</ele>
        <time>2023-08-16T08:43:10Z</time>
      </trkpt>
      <trkpt lat="49.77006" lon="2.22473">
        <ele>143.3</ele>
        <time>2023-08-16T08:43:11Z</time>
      </trkpt>
      <trkpt lat="49.77007" lon="2.22474">
        <ele>143.2</ele>
        <time>2023-08-16T08:43:12Z</time>
      </trkpt>
      <trkpt lat="49.77009" lon="2.22474">
        <ele>143.2</ele>
        <time>2023-08-16T08:43:13Z</time>
      </trkpt>
      <trkpt lat="49.7701" lon="2.22475">
        <ele>143.2</ele>
        <time>2023-08-16T08:43:14Z</time>
      </trkpt>
      <trkpt lat="49.77011" lon="2.22476">
        <ele>143.2</ele>
        <time>2023-08-16T08:43:15Z</time>
      </trkpt>
      <trkpt lat="49.77013" lon="2.22477">
        <ele>143.2</ele>
        <time>2023-08-16T08:43:17Z</time>
      </trkpt>
      <trkpt lat="49.77014" lon="2.22477">
        <ele>143.2</ele>
        <time>2023-08-16T08:43:18Z</time>
      </trkpt>
      <trkpt lat="49.77016" lon="2.22478">
        <ele>143.2</ele>
        <time>2023-08-16T08:43:20Z</time>
      </trkpt>
      <trkpt lat="49.77017" lon="2.22478">
        <ele>143.2</ele>
        <time>2023-08-16T08:43:21Z</time>
      </trkpt>
      <trkpt lat="49.77018" lon="2.22479">
        <ele>143.1</ele>
        <time>2023-08-16T08:43:22Z</time>
      </trkpt>
      <trkpt lat="49.77019" lon="2.22479">
        <ele>143.1</ele>
        <time>2023-08-16T08:43:23Z</time>
      </trkpt>
      <trkpt lat="49.77021" lon="2.2248">
        <ele>143.1</ele>
        <time>2023-08-16T08:43:24Z</time>
      </trkpt>
      <trkpt lat="49.77022" lon="2.2248">
        <ele>143.1</ele>
        <time>2023-08-16T08:43:25Z</time>
      </trkpt>
      <trkpt lat="49.77023" lon="2.22481">
        <ele>143.1</ele>
        <time>2023-08-16T08:43:26Z</time>
      </trkpt>
      <trkpt lat="49.77025" lon="2.22481">
        <ele>143.1</ele>
        <time>2023-08-16T08:43:28Z</time>
      </trkpt>
      <trkpt lat="49.77026" lon="2.22481">
        <ele>143.1</ele>
        <time>2023-08-16T08:43:29Z</time>
      </trkpt>
      <trkpt lat="49.77026" lon="2.22481">
        <ele>143</ele>
        <time>2023-08-16T08:43:30Z</time>
      </trkpt>
      <trkpt lat="49.77028" lon="2.22481">
        <ele>143</ele>
        <time>2023-08-16T08:43:31Z</time>
      </trkpt>
      <trkpt lat="49.77029" lon="2.22482">
        <ele>143</ele>
        <time>2023-08-16T08:43:33Z</time>
      </trkpt>
      <trkpt lat="49.7703" lon="2.22482">
        <ele>143</ele>
        <time>2023-08-16T08:43:34Z</time>
      </trkpt>
      <trkpt lat="49.77033" lon="2.22482">
        <ele>143</ele>
        <time>2023-08-16T08:43:35Z</time>
      </trkpt>
      <trkpt lat="49.77033" lon="2.22482">
        <ele>143</ele>
        <time>2023-08-16T08:43:36Z</time>
      </trkpt>
      <trkpt lat="49.77034" lon="2.22482">
        <ele>143</ele>
        <time>2023-08-16T08:43:37Z</time>
      </trkpt>
      <trkpt lat="49.77036" lon="2.22483">
        <ele>142.9</ele>
        <time>2023-08-16T08:43:38Z</time>
      </trkpt>
      <trkpt lat="49.77037" lon="2.22483">
        <ele>142.9</ele>
        <time>2023-08-16T08:43:39Z</time>
      </trkpt>
      <trkpt lat="49.77038" lon="2.22483">
        <ele>142.9</ele>
        <time>2023-08-16T08:43:40Z</time>
      </trkpt>
      <trkpt lat="49.7704" lon="2.22484">
        <ele>142.9</ele>
        <time>2023-08-16T08:43:42Z</time>
      </trkpt>
      <trkpt lat="49.77041" lon="2.22484">
        <ele>142.9</ele>
        <time>2023-08-16T08:43:43Z</time>
      </trkpt>
      <trkpt lat="49.77042" lon="2.22485">
        <ele>142.9</ele>
        <time>2023-08-16T08:43:45Z</time>
      </trkpt>
      <trkpt lat="49.77044" lon="2.22486">
        <ele>142.9</ele>
        <time>2023-08-16T08:43:46Z</time>
      </trkpt>
      <trkpt lat="49.77045" lon="2.22486">
        <ele>142.9</ele>
        <time>2023-08-16T08:43:47Z</time>
      </trkpt>
      <trkpt lat="49.77046" lon="2.22487">
        <ele>142.9</ele>
        <time>2023-08-16T08:43:49Z</time>
      </trkpt>
      <trkpt lat="49.77047" lon="2.22487">
        <ele>142.9</ele>
        <time>2023-08-16T08:43:50Z</time>
      </trkpt>
      <trkpt lat="49.77048" lon="2.22486">
        <ele>142.9</ele>
        <time>2023-08-16T08:43:51Z</time>
      </trkpt>
      <trkpt lat="49.77048" lon="2.22486">
        <ele>142.9</ele>
        <time>2023-08-16T08:43:52Z</time>
      </trkpt>
      <trkpt lat="49.77049" lon="2.22485">
        <ele>142.9</ele>
        <time>2023-08-16T08:43:54Z</time>
      </trkpt>
      <trkpt lat="49.77049" lon="2.22484">
        <ele>142.9</ele>
        <time>2023-08-16T08:43:55Z</time>
      </trkpt>
      <trkpt lat="49.7705" lon="2.22483">
        <ele>142.9</ele>
        <time>2023-08-16T08:43:56Z</time>
      </trkpt>
      <trkpt lat="49.77049" lon="2.22483">
        <ele>142.9</ele>
        <time>2023-08-16T08:43:57Z</time>
      </trkpt>
      <trkpt lat="49.77049" lon="2.22483">
        <ele>142.9</ele>
        <time>2023-08-16T08:43:59Z</time>
      </trkpt>
      <trkpt lat="49.77049" lon="2.22483">
        <ele>142.9</ele>
        <time>2023-08-16T08:44:00Z</time>
      </trkpt>
      <trkpt lat="49.77049" lon="2.22483">
        <ele>142.9</ele>
        <time>2023-08-16T08:44:01Z</time>
      </trkpt>
      <trkpt lat="49.77048" lon="2.22483">
        <ele>142.9</ele>
        <time>2023-08-16T08:44:03Z</time>
      </trkpt>
      <trkpt lat="49.77048" lon="2.22483">
        <ele>142.9</ele>
        <time>2023-08-16T08:44:04Z</time>
      </trkpt>
      <trkpt lat="49.77048" lon="2.22483">
        <ele>142.9</ele>
        <time>2023-08-16T08:44:06Z</time>
      </trkpt>
      <trkpt lat="49.77048" lon="2.22482">
        <ele>142.9</ele>
        <time>2023-08-16T08:44:07Z</time>
      </trkpt>
      <trkpt lat="49.77047" lon="2.22482">
        <ele>142.9</ele>
        <time>2023-08-16T08:44:09Z</time>
      </trkpt>
      <trkpt lat="49.77047" lon="2.22482">
        <ele>142.9</ele>
        <time>2023-08-16T08:44:10Z</time>
      </trkpt>
      <trkpt lat="49.77047" lon="2.22482">
        <ele>142.9</ele>
        <time>2023-08-16T08:44:11Z</time>
      </trkpt>
      <trkpt lat="49.77047" lon="2.22482">
        <ele>142.9</ele>
        <time>2023-08-16T08:44:13Z</time>
      </trkpt>
      <trkpt lat="49.77046" lon="2.22482">
        <ele>142.9</ele>
        <time>2023-08-16T08:44:14Z</time>
      </trkpt>
      <trkpt lat="49.77046" lon="2.22482">
        <ele>142.9</ele>
        <time>2023-08-16T08:44:15Z</time>
      </trkpt>
      <trkpt lat="49.77046" lon="2.22482">
        <ele>142.9</ele>
        <time>2023-08-16T08:44:16Z</time>
      </trkpt>
      <trkpt lat="49.77046" lon="2.22482">
        <ele>142.9</ele>
        <time>2023-08-16T08:44:17Z</time>
      </trkpt>
      <trkpt lat="49.77045" lon="2.22482">
        <ele>142.9</ele>
        <time>2023-08-16T08:44:18Z</time>
      </trkpt>
      <trkpt lat="49.77045" lon="2.22482">
        <ele>142.9</ele>
        <time>2023-08-16T08:44:19Z</time>
      </trkpt>
      <trkpt lat="49.77045" lon="2.22482">
        <ele>142.9</ele>
        <time>2023-08-16T08:44:20Z</time>
      </trkpt>
      <trkpt lat="49.77045" lon="2.22483">
        <ele>142.9</ele>
        <time>2023-08-16T08:44:21Z</time>
      </trkpt>
      <trkpt lat="49.77045" lon="2.22483">
        <ele>142.9</ele>
        <time>2023-08-16T08:44:22Z</time>
      </trkpt>
      <trkpt lat="49.77045" lon="2.22483">
        <ele>142.9</ele>
        <time>2023-08-16T08:44:23Z</time>
      </trkpt>
      <trkpt lat="49.77045" lon="2.22483">
        <ele>142.9</ele>
        <time>2023-08-16T08:44:24Z</time>
      </trkpt>
      <trkpt lat="49.77045" lon="2.22483">
        <ele>142.9</ele>
        <time>2023-08-16T08:44:25Z</time>
      </trkpt>
      <trkpt lat="49.77045" lon="2.22483">
        <ele>142.9</ele>
        <time>2023-08-16T08:44:26Z</time>
      </trkpt>
      <trkpt lat="49.77045" lon="2.22483">
        <ele>142.9</ele>
        <time>2023-08-16T08:44:27Z</time>
      </trkpt>
      <trkpt lat="49.77045" lon="2.22483">
        <ele>142.9</ele>
        <time>2023-08-16T08:44:28Z</time>
      </trkpt>
      <trkpt lat="49.77045" lon="2.22483">
        <ele>142.9</ele>
        <time>2023-08-16T08:44:29Z</time>
      </trkpt>
      <trkpt lat="49.77045" lon="2.22483">
        <ele>142.9</ele>
        <time>2023-08-16T08:44:30Z</time>
      </trkpt>
      <trkpt lat="49.77045" lon="2.22483">
        <ele>142.9</ele>
        <time>2023-08-16T08:44:31Z</time>
      </trkpt>
      <trkpt lat="49.77045" lon="2.22483">
        <ele>142.9</ele>
        <time>2023-08-16T08:44:32Z</time>
      </trkpt>
      <trkpt lat="49.77045" lon="2.22483">
        <ele>142.9</ele>
        <time>2023-08-16T08:44:33Z</time>
      </trkpt>
      <trkpt lat="49.77045" lon="2.22483">
        <ele>142.9</ele>
        <time>2023-08-16T08:44:34Z</time>
      </trkpt>
      <trkpt lat="49.77045" lon="2.22483">
        <ele>142.9</ele>
        <time>2023-08-16T08:44:35Z</time>
      </trkpt>
      <trkpt lat="49.77045" lon="2.22483">
        <ele>142.9</ele>
        <time>2023-08-16T08:44:36Z</time>
      </trkpt>
      <trkpt lat="49.77045" lon="2.22483">
        <ele>142.9</ele>
        <time>2023-08-16T08:44:37Z</time>
      </trkpt>
      <trkpt lat="49.77045" lon="2.22483">
        <ele>142.9</ele>
        <time>2023-08-16T08:44:38Z</time>
      </trkpt>
      <trkpt lat="49.77045" lon="2.22483">
        <ele>142.9</ele>
        <time>2023-08-16T08:44:39Z</time>
      </trkpt>
      <trkpt lat="49.77045" lon="2.22483">
        <ele>142.9</ele>
        <time>2023-08-16T08:44:40Z</time>
      </trkpt>
      <trkpt lat="49.77045" lon="2.22483">
        <ele>142.9</ele>
        <time>2023-08-16T08:44:41Z</time>
      </trkpt>
      <trkpt lat="49.77045" lon="2.22483">
        <ele>142.9</ele>
        <time>2023-08-16T08:44:42Z</time>
      </trkpt>
      <trkpt lat="49.77045" lon="2.22483">
        <ele>142.9</ele>
        <time>2023-08-16T08:44:43Z</time>
      </trkpt>
      <trkpt lat="49.77045" lon="2.22483">
        <ele>142.9</ele>
        <time>2023-08-16T08:44:44Z</time>
      </trkpt>
      <trkpt lat="49.77045" lon="2.22483">
        <ele>142.9</ele>
        <time>2023-08-16T08:44:45Z</time>
      </trkpt>
      <trkpt lat="49.77045" lon="2.22483">
        <ele>142.9</ele>
        <time>2023-08-16T08:44:46Z</time>
      </trkpt>
      <trkpt lat="49.77045" lon="2.22483">
        <ele>142.9</ele>
        <time>2023-08-16T08:44:47Z</time>
      </trkpt>
      <trkpt lat="49.77045" lon="2.22483">
        <ele>142.9</ele>
        <time>2023-08-16T08:44:48Z</time>
      </trkpt>
      <trkpt lat="49.77045" lon="2.22483">
        <ele>142.9</ele>
        <time>2023-08-16T08:44:49Z</time>
      </trkpt>
      <trkpt lat="49.77045" lon="2.22483">
        <ele>142.9</ele>
        <time>2023-08-16T08:44:50Z</time>
      </trkpt>
      <trkpt lat="49.77045" lon="2.22483">
        <ele>142.9</ele>
        <time>2023-08-16T08:44:51Z</time>
      </trkpt>
      <trkpt lat="49.77045" lon="2.22483">
        <ele>142.9</ele>
        <time>2023-08-16T08:44:52Z</time>
      </trkpt>
      <trkpt lat="49.77044" lon="2.22483">
        <ele>142.9</ele>
        <time>2023-08-16T08:44:53Z</time>
      </trkpt>
      <trkpt lat="49.77043" lon="2.22484">
        <ele>142.9</ele>
        <time>2023-08-16T08:44:54Z</time>
      </trkpt>
      <trkpt lat="49.77043" lon="2.22484">
        <ele>142.9</ele>
        <time>2023-08-16T08:44:55Z</time>
      </trkpt>
      <trkpt lat="49.77043" lon="2.22485">
        <ele>142.9</ele>
        <time>2023-08-16T08:44:56Z</time>
      </trkpt>
      <trkpt lat="49.77043" lon="2.22486">
        <ele>142.9</ele>
        <time>2023-08-16T08:44:57Z</time>
      </trkpt>
      <trkpt lat="49.77043" lon="2.22486">
        <ele>142.9</ele>
        <time>2023-08-16T08:44:58Z</time>
      </trkpt>
      <trkpt lat="49.77044" lon="2.22486">
        <ele>142.9</ele>
        <time>2023-08-16T08:44:59Z</time>
      </trkpt>
      <trkpt lat="49.77044" lon="2.22486">
        <ele>142.9</ele>
        <time>2023-08-16T08:45:00Z</time>
      </trkpt>
      <trkpt lat="49.77044" lon="2.22485">
        <ele>142.9</ele>
        <time>2023-08-16T08:45:01Z</time>
      </trkpt>
      <trkpt lat="49.77045" lon="2.22485">
        <ele>142.9</ele>
        <time>2023-08-16T08:45:03Z</time>
      </trkpt>
      <trkpt lat="49.77045" lon="2.22484">
        <ele>142.9</ele>
        <time>2023-08-16T08:45:04Z</time>
      </trkpt>
      <trkpt lat="49.77046" lon="2.22482">
        <ele>142.8</ele>
        <time>2023-08-16T08:45:05Z</time>
      </trkpt>
      <trkpt lat="49.77046" lon="2.2248">
        <ele>142.8</ele>
        <time>2023-08-16T08:45:06Z</time>
      </trkpt>
      <trkpt lat="49.77046" lon="2.22478">
        <ele>142.8</ele>
        <time>2023-08-16T08:45:07Z</time>
      </trkpt>
      <trkpt lat="49.77046" lon="2.22475">
        <ele>142.8</ele>
        <time>2023-08-16T08:45:09Z</time>
      </trkpt>
      <trkpt lat="49.77047" lon="2.22473">
        <ele>142.8</ele>
        <time>2023-08-16T08:45:10Z</time>
      </trkpt>
      <trkpt lat="49.77047" lon="2.2247">
        <ele>142.8</ele>
        <time>2023-08-16T08:45:11Z</time>
      </trkpt>
      <trkpt lat="49.77047" lon="2.22468">
        <ele>142.8</ele>
        <time>2023-08-16T08:45:12Z</time>
      </trkpt>
      <trkpt lat="49.77048" lon="2.22466">
        <ele>142.8</ele>
        <time>2023-08-16T08:45:13Z</time>
      </trkpt>
      <trkpt lat="49.77048" lon="2.22464">
        <ele>142.8</ele>
        <time>2023-08-16T08:45:15Z</time>
      </trkpt>
      <trkpt lat="49.77048" lon="2.22462">
        <ele>142.8</ele>
        <time>2023-08-16T08:45:16Z</time>
      </trkpt>
      <trkpt lat="49.77049" lon="2.2246">
        <ele>142.8</ele>
        <time>2023-08-16T08:45:17Z</time>
      </trkpt>
      <trkpt lat="49.77049" lon="2.22457">
        <ele>142.7</ele>
        <time>2023-08-16T08:45:18Z</time>
      </trkpt>
      <trkpt lat="49.7705" lon="2.22455">
        <ele>142.7</ele>
        <time>2023-08-16T08:45:20Z</time>
      </trkpt>
      <trkpt lat="49.7705" lon="2.22453">
        <ele>142.7</ele>
        <time>2023-08-16T08:45:21Z</time>
      </trkpt>
      <trkpt lat="49.7705" lon="2.22451">
        <ele>142.7</ele>
        <time>2023-08-16T08:45:22Z</time>
      </trkpt>
      <trkpt lat="49.77051" lon="2.22448">
        <ele>142.7</ele>
        <time>2023-08-16T08:45:23Z</time>
      </trkpt>
      <trkpt lat="49.77052" lon="2.22447">
        <ele>142.7</ele>
        <time>2023-08-16T08:45:25Z</time>
      </trkpt>
      <trkpt lat="49.77052" lon="2.22446">
        <ele>142.7</ele>
        <time>2023-08-16T08:45:26Z</time>
      </trkpt>
      <trkpt lat="49.77052" lon="2.22444">
        <ele>142.7</ele>
        <time>2023-08-16T08:45:27Z</time>
      </trkpt>
      <trkpt lat="49.77053" lon="2.22443">
        <ele>142.7</ele>
        <time>2023-08-16T08:45:28Z</time>
      </trkpt>
      <trkpt lat="49.77053" lon="2.22441">
        <ele>142.7</ele>
        <time>2023-08-16T08:45:29Z</time>
      </trkpt>
      <trkpt lat="49.77054" lon="2.22438">
        <ele>142.8</ele>
        <time>2023-08-16T08:45:30Z</time>
      </trkpt>
      <trkpt lat="49.77054" lon="2.22436">
        <ele>142.8</ele>
        <time>2023-08-16T08:45:31Z</time>
      </trkpt>
      <trkpt lat="49.77055" lon="2.22435">
        <ele>142.8</ele>
        <time>2023-08-16T08:45:33Z</time>
      </trkpt>
      <trkpt lat="49.77055" lon="2.22433">
        <ele>142.8</ele>
        <time>2023-08-16T08:45:34Z</time>
      </trkpt>
      <trkpt lat="49.77055" lon="2.22432">
        <ele>142.8</ele>
        <time>2023-08-16T08:45:35Z</time>
      </trkpt>
      <trkpt lat="49.77056" lon="2.2243">
        <ele>142.8</ele>
        <time>2023-08-16T08:45:36Z</time>
      </trkpt>
      <trkpt lat="49.77056" lon="2.22428">
        <ele>142.8</ele>
        <time>2023-08-16T08:45:37Z</time>
      </trkpt>
      <trkpt lat="49.77057" lon="2.22427">
        <ele>142.8</ele>
        <time>2023-08-16T08:45:38Z</time>
      </trkpt>
      <trkpt lat="49.77058" lon="2.22425">
        <ele>142.8</ele>
        <time>2023-08-16T08:45:40Z</time>
      </trkpt>
      <trkpt lat="49.77058" lon="2.22423">
        <ele>142.8</ele>
        <time>2023-08-16T08:45:41Z</time>
      </trkpt>
      <trkpt lat="49.77059" lon="2.22421">
        <ele>142.9</ele>
        <time>2023-08-16T08:45:42Z</time>
      </trkpt>
      <trkpt lat="49.7706" lon="2.22419">
        <ele>142.9</ele>
        <time>2023-08-16T08:45:44Z</time>
      </trkpt>
      <trkpt lat="49.7706" lon="2.22418">
        <ele>142.9</ele>
        <time>2023-08-16T08:45:45Z</time>
      </trkpt>
      <trkpt lat="49.77061" lon="2.22417">
        <ele>142.9</ele>
        <time>2023-08-16T08:45:46Z</time>
      </trkpt>
      <trkpt lat="49.77062" lon="2.22415">
        <ele>142.9</ele>
        <time>2023-08-16T08:45:47Z</time>
      </trkpt>
      <trkpt lat="49.77062" lon="2.22414">
        <ele>142.9</ele>
        <time>2023-08-16T08:45:48Z</time>
      </trkpt>
      <trkpt lat="49.77063" lon="2.22412">
        <ele>142.9</ele>
        <time>2023-08-16T08:45:49Z</time>
      </trkpt>
      <trkpt lat="49.77064" lon="2.22412">
        <ele>142.9</ele>
        <time>2023-08-16T08:45:50Z</time>
      </trkpt>
      <trkpt lat="49.77064" lon="2.22411">
        <ele>142.9</ele>
        <time>2023-08-16T08:45:51Z</time>
      </trkpt>
      <trkpt lat="49.77065" lon="2.2241">
        <ele>142.9</ele>
        <time>2023-08-16T08:45:53Z</time>
      </trkpt>
      <trkpt lat="49.77066" lon="2.22409">
        <ele>142.9</ele>
        <time>2023-08-16T08:45:54Z</time>
      </trkpt>
      <trkpt lat="49.77067" lon="2.22408">
        <ele>143</ele>
        <time>2023-08-16T08:45:55Z</time>
      </trkpt>
      <trkpt lat="49.77068" lon="2.22407">
        <ele>143</ele>
        <time>2023-08-16T08:45:56Z</time>
      </trkpt>
      <trkpt lat="49.77069" lon="2.22404">
        <ele>143</ele>
        <time>2023-08-16T08:45:57Z</time>
      </trkpt>
      <trkpt lat="49.77069" lon="2.22403">
        <ele>143</ele>
        <time>2023-08-16T08:45:59Z</time>
      </trkpt>
      <trkpt lat="49.77069" lon="2.22402">
        <ele>143</ele>
        <time>2023-08-16T08:46:00Z</time>
      </trkpt>
      <trkpt lat="49.7707" lon="2.224">
        <ele>143</ele>
        <time>2023-08-16T08:46:01Z</time>
      </trkpt>
      <trkpt lat="49.7707" lon="2.22398">
        <ele>143</ele>
        <time>2023-08-16T08:46:02Z</time>
      </trkpt>
      <trkpt lat="49.7707" lon="2.22397">
        <ele>143</ele>
        <time>2023-08-16T08:46:03Z</time>
      </trkpt>
      <trkpt lat="49.77071" lon="2.22394">
        <ele>142.9</ele>
        <time>2023-08-16T08:46:05Z</time>
      </trkpt>
      <trkpt lat="49.77071" lon="2.22392">
        <ele>142.9</ele>
        <time>2023-08-16T08:46:06Z</time>
      </trkpt>
      <trkpt lat="49.77072" lon="2.22391">
        <ele>142.9</ele>
        <time>2023-08-16T08:46:07Z</time>
      </trkpt>
      <trkpt lat="49.77072" lon="2.22389">
        <ele>142.9</ele>
        <time>2023-08-16T08:46:08Z</time>
      </trkpt>
      <trkpt lat="49.77073" lon="2.22388">
        <ele>142.9</ele>
        <time>2023-08-16T08:46:09Z</time>
      </trkpt>
      <trkpt lat="49.77073" lon="2.22386">
        <ele>142.9</ele>
        <time>2023-08-16T08:46:10Z</time>
      </trkpt>
      <trkpt lat="49.77073" lon="2.22385">
        <ele>142.9</ele>
        <time>2023-08-16T08:46:11Z</time>
      </trkpt>
      <trkpt lat="49.77073" lon="2.22384">
        <ele>142.9</ele>
        <time>2023-08-16T08:46:13Z</time>
      </trkpt>
      <trkpt lat="49.77074" lon="2.22382">
        <ele>142.8</ele>
        <time>2023-08-16T08:46:14Z</time>
      </trkpt>
      <trkpt lat="49.77074" lon="2.22381">
        <ele>142.8</ele>
        <time>2023-08-16T08:46:15Z</time>
      </trkpt>
      <trkpt lat="49.77074" lon="2.22379">
        <ele>142.8</ele>
        <time>2023-08-16T08:46:16Z</time>
      </trkpt>
      <trkpt lat="49.77075" lon="2.22376">
        <ele>142.8</ele>
        <time>2023-08-16T08:46:17Z</time>
      </trkpt>
      <trkpt lat="49.77075" lon="2.22374">
        <ele>142.8</ele>
        <time>2023-08-16T08:46:18Z</time>
      </trkpt>
      <trkpt lat="49.77075" lon="2.22373">
        <ele>142.8</ele>
        <time>2023-08-16T08:46:20Z</time>
      </trkpt>
      <trkpt lat="49.77075" lon="2.22371">
        <ele>142.7</ele>
        <time>2023-08-16T08:46:21Z</time>
      </trkpt>
      <trkpt lat="49.77075" lon="2.22369">
        <ele>142.7</ele>
        <time>2023-08-16T08:46:22Z</time>
      </trkpt>
      <trkpt lat="49.77076" lon="2.22368">
        <ele>142.7</ele>
        <time>2023-08-16T08:46:23Z</time>
      </trkpt>
      <trkpt lat="49.77076" lon="2.22365">
        <ele>142.7</ele>
        <time>2023-08-16T08:46:24Z</time>
      </trkpt>
      <trkpt lat="49.77076" lon="2.22363">
        <ele>142.7</ele>
        <time>2023-08-16T08:46:26Z</time>
      </trkpt>
      <trkpt lat="49.77076" lon="2.22362">
        <ele>142.7</ele>
        <time>2023-08-16T08:46:27Z</time>
      </trkpt>
      <trkpt lat="49.77077" lon="2.22361">
        <ele>142.7</ele>
        <time>2023-08-16T08:46:28Z</time>
      </trkpt>
      <trkpt lat="49.77077" lon="2.22359">
        <ele>142.6</ele>
        <time>2023-08-16T08:46:29Z</time>
      </trkpt>
      <trkpt lat="49.77077" lon="2.22357">
        <ele>142.6</ele>
        <time>2023-08-16T08:46:30Z</time>
      </trkpt>
      <trkpt lat="49.77077" lon="2.22355">
        <ele>142.6</ele>
        <time>2023-08-16T08:46:31Z</time>
      </trkpt>
      <trkpt lat="49.77078" lon="2.22354">
        <ele>142.6</ele>
        <time>2023-08-16T08:46:33Z</time>
      </trkpt>
      <trkpt lat="49.77079" lon="2.22352">
        <ele>142.6</ele>
        <time>2023-08-16T08:46:34Z</time>
      </trkpt>
      <trkpt lat="49.77079" lon="2.22349">
        <ele>142.6</ele>
        <time>2023-08-16T08:46:35Z</time>
      </trkpt>
      <trkpt lat="49.7708" lon="2.22348">
        <ele>142.6</ele>
        <time>2023-08-16T08:46:36Z</time>
      </trkpt>
      <trkpt lat="49.7708" lon="2.22347">
        <ele>142.6</ele>
        <time>2023-08-16T08:46:37Z</time>
      </trkpt>
      <trkpt lat="49.7708" lon="2.22345">
        <ele>142.6</ele>
        <time>2023-08-16T08:46:38Z</time>
      </trkpt>
      <trkpt lat="49.77081" lon="2.22342">
        <ele>142.6</ele>
        <time>2023-08-16T08:46:40Z</time>
      </trkpt>
      <trkpt lat="49.77082" lon="2.22341">
        <ele>142.6</ele>
        <time>2023-08-16T08:46:41Z</time>
      </trkpt>
      <trkpt lat="49.77082" lon="2.22339">
        <ele>142.6</ele>
        <time>2023-08-16T08:46:42Z</time>
      </trkpt>
      <trkpt lat="49.77083" lon="2.22337">
        <ele>142.6</ele>
        <time>2023-08-16T08:46:44Z</time>
      </trkpt>
      <trkpt lat="49.77083" lon="2.22334">
        <ele>142.6</ele>
        <time>2023-08-16T08:46:45Z</time>
      </trkpt>
      <trkpt lat="49.77084" lon="2.22332">
        <ele>142.6</ele>
        <time>2023-08-16T08:46:46Z</time>
      </trkpt>
      <trkpt lat="49.77085" lon="2.2233">
        <ele>142.6</ele>
        <time>2023-08-16T08:46:47Z</time>
      </trkpt>
      <trkpt lat="49.77085" lon="2.22329">
        <ele>142.6</ele>
        <time>2023-08-16T08:46:48Z</time>
      </trkpt>
      <trkpt lat="49.77086" lon="2.22327">
        <ele>142.6</ele>
        <time>2023-08-16T08:46:49Z</time>
      </trkpt>
      <trkpt lat="49.77086" lon="2.22325">
        <ele>142.5</ele>
        <time>2023-08-16T08:46:50Z</time>
      </trkpt>
      <trkpt lat="49.77087" lon="2.22323">
        <ele>142.5</ele>
        <time>2023-08-16T08:46:52Z</time>
      </trkpt>
      <trkpt lat="49.77087" lon="2.22321">
        <ele>142.5</ele>
        <time>2023-08-16T08:46:53Z</time>
      </trkpt>
      <trkpt lat="49.77088" lon="2.22319">
        <ele>142.5</ele>
        <time>2023-08-16T08:46:54Z</time>
      </trkpt>
      <trkpt lat="49.77088" lon="2.22317">
        <ele>142.5</ele>
        <time>2023-08-16T08:46:55Z</time>
      </trkpt>
      <trkpt lat="49.77088" lon="2.22316">
        <ele>142.5</ele>
        <time>2023-08-16T08:46:56Z</time>
      </trkpt>
      <trkpt lat="49.77089" lon="2.22314">
        <ele>142.5</ele>
        <time>2023-08-16T08:46:57Z</time>
      </trkpt>
      <trkpt lat="49.7709" lon="2.22312">
        <ele>142.5</ele>
        <time>2023-08-16T08:46:58Z</time>
      </trkpt>
      <trkpt lat="49.7709" lon="2.2231">
        <ele>142.5</ele>
        <time>2023-08-16T08:47:00Z</time>
      </trkpt>
      <trkpt lat="49.7709" lon="2.22309">
        <ele>142.5</ele>
        <time>2023-08-16T08:47:01Z</time>
      </trkpt>
      <trkpt lat="49.77091" lon="2.22307">
        <ele>142.4</ele>
        <time>2023-08-16T08:47:02Z</time>
      </trkpt>
      <trkpt lat="49.77092" lon="2.22306">
        <ele>142.4</ele>
        <time>2023-08-16T08:47:03Z</time>
      </trkpt>
      <trkpt lat="49.77092" lon="2.22304">
        <ele>142.4</ele>
        <time>2023-08-16T08:47:04Z</time>
      </trkpt>
      <trkpt lat="49.77092" lon="2.22302">
        <ele>142.4</ele>
        <time>2023-08-16T08:47:06Z</time>
      </trkpt>
      <trkpt lat="49.77092" lon="2.223">
        <ele>142.4</ele>
        <time>2023-08-16T08:47:07Z</time>
      </trkpt>
      <trkpt lat="49.77092" lon="2.22299">
        <ele>142.4</ele>
        <time>2023-08-16T08:47:08Z</time>
      </trkpt>
      <trkpt lat="49.77092" lon="2.22297">
        <ele>142.4</ele>
        <time>2023-08-16T08:47:09Z</time>
      </trkpt>
      <trkpt lat="49.77093" lon="2.22295">
        <ele>142.4</ele>
        <time>2023-08-16T08:47:10Z</time>
      </trkpt>
      <trkpt lat="49.77093" lon="2.22294">
        <ele>142.4</ele>
        <time>2023-08-16T08:47:11Z</time>
      </trkpt>
      <trkpt lat="49.77094" lon="2.22291">
        <ele>142.4</ele>
        <time>2023-08-16T08:47:13Z</time>
      </trkpt>
      <trkpt lat="49.77094" lon="2.22289">
        <ele>142.3</ele>
        <time>2023-08-16T08:47:14Z</time>
      </trkpt>
      <trkpt lat="49.77095" lon="2.22288">
        <ele>142.3</ele>
        <time>2023-08-16T08:47:15Z</time>
      </trkpt>
      <trkpt lat="49.77095" lon="2.22287">
        <ele>142.3</ele>
        <time>2023-08-16T08:47:16Z</time>
      </trkpt>
      <trkpt lat="49.77096" lon="2.22285">
        <ele>142.3</ele>
        <time>2023-08-16T08:47:17Z</time>
      </trkpt>
      <trkpt lat="49.77096" lon="2.22284">
        <ele>142.3</ele>
        <time>2023-08-16T08:47:18Z</time>
      </trkpt>
      <trkpt lat="49.77097" lon="2.22281">
        <ele>142.3</ele>
        <time>2023-08-16T08:47:20Z</time>
      </trkpt>
      <trkpt lat="49.77097" lon="2.22279">
        <ele>142.3</ele>
        <time>2023-08-16T08:47:21Z</time>
      </trkpt>
      <trkpt lat="49.77097" lon="2.22278">
        <ele>142.3</ele>
        <time>2023-08-16T08:47:22Z</time>
      </trkpt>
      <trkpt lat="49.77098" lon="2.22275">
        <ele>142.3</ele>
        <time>2023-08-16T08:47:23Z</time>
      </trkpt>
      <trkpt lat="49.77098" lon="2.22274">
        <ele>142.3</ele>
        <time>2023-08-16T08:47:24Z</time>
      </trkpt>
      <trkpt lat="49.77099" lon="2.22272">
        <ele>142.3</ele>
        <time>2023-08-16T08:47:25Z</time>
      </trkpt>
      <trkpt lat="49.77099" lon="2.22269">
        <ele>142.3</ele>
        <time>2023-08-16T08:47:26Z</time>
      </trkpt>
      <trkpt lat="49.771" lon="2.22268">
        <ele>142.3</ele>
        <time>2023-08-16T08:47:28Z</time>
      </trkpt>
      <trkpt lat="49.771" lon="2.22267">
        <ele>142.3</ele>
        <time>2023-08-16T08:47:29Z</time>
      </trkpt>
      <trkpt lat="49.77101" lon="2.22265">
        <ele>142.3</ele>
        <time>2023-08-16T08:47:30Z</time>
      </trkpt>
      <trkpt lat="49.77102" lon="2.22263">
        <ele>142.3</ele>
        <time>2023-08-16T08:47:31Z</time>
      </trkpt>
      <trkpt lat="49.77102" lon="2.2226">
        <ele>142.3</ele>
        <time>2023-08-16T08:47:32Z</time>
      </trkpt>
      <trkpt lat="49.77103" lon="2.22259">
        <ele>142.3</ele>
        <time>2023-08-16T08:47:33Z</time>
      </trkpt>
      <trkpt lat="49.77104" lon="2.22257">
        <ele>142.3</ele>
        <time>2023-08-16T08:47:35Z</time>
      </trkpt>
      <trkpt lat="49.77105" lon="2.22255">
        <ele>142.3</ele>
        <time>2023-08-16T08:47:36Z</time>
      </trkpt>
      <trkpt lat="49.77105" lon="2.22254">
        <ele>142.2</ele>
        <time>2023-08-16T08:47:37Z</time>
      </trkpt>
      <trkpt lat="49.77106" lon="2.22253">
        <ele>142.2</ele>
        <time>2023-08-16T08:47:38Z</time>
      </trkpt>
      <trkpt lat="49.77107" lon="2.22251">
        <ele>142.2</ele>
        <time>2023-08-16T08:47:39Z</time>
      </trkpt>
      <trkpt lat="49.77108" lon="2.22247">
        <ele>142.2</ele>
        <time>2023-08-16T08:47:40Z</time>
      </trkpt>
      <trkpt lat="49.77108" lon="2.22246">
        <ele>142.2</ele>
        <time>2023-08-16T08:47:42Z</time>
      </trkpt>
      <trkpt lat="49.77108" lon="2.22244">
        <ele>142.2</ele>
        <time>2023-08-16T08:47:43Z</time>
      </trkpt>
      <trkpt lat="49.77109" lon="2.22242">
        <ele>142.2</ele>
        <time>2023-08-16T08:47:44Z</time>
      </trkpt>
      <trkpt lat="49.77109" lon="2.22241">
        <ele>142.2</ele>
        <time>2023-08-16T08:47:45Z</time>
      </trkpt>
      <trkpt lat="49.77109" lon="2.22239">
        <ele>142.2</ele>
        <time>2023-08-16T08:47:46Z</time>
      </trkpt>
      <trkpt lat="49.7711" lon="2.22238">
        <ele>142.2</ele>
        <time>2023-08-16T08:47:47Z</time>
      </trkpt>
      <trkpt lat="49.7711" lon="2.22236">
        <ele>142.1</ele>
        <time>2023-08-16T08:47:49Z</time>
      </trkpt>
      <trkpt lat="49.7711" lon="2.22234">
        <ele>142.1</ele>
        <time>2023-08-16T08:47:50Z</time>
      </trkpt>
      <trkpt lat="49.77111" lon="2.22233">
        <ele>142.1</ele>
        <time>2023-08-16T08:47:51Z</time>
      </trkpt>
      <trkpt lat="49.77111" lon="2.22231">
        <ele>142.1</ele>
        <time>2023-08-16T08:47:52Z</time>
      </trkpt>
      <trkpt lat="49.77111" lon="2.2223">
        <ele>142.1</ele>
        <time>2023-08-16T08:47:53Z</time>
      </trkpt>
      <trkpt lat="49.77112" lon="2.22229">
        <ele>142.1</ele>
        <time>2023-08-16T08:47:54Z</time>
      </trkpt>
      <trkpt lat="49.77112" lon="2.22227">
        <ele>142.1</ele>
        <time>2023-08-16T08:47:56Z</time>
      </trkpt>
      <trkpt lat="49.77112" lon="2.22225">
        <ele>142.1</ele>
        <time>2023-08-16T08:47:57Z</time>
      </trkpt>
      <trkpt lat="49.77113" lon="2.22224">
        <ele>142.1</ele>
        <time>2023-08-16T08:47:58Z</time>
      </trkpt>
      <trkpt lat="49.77113" lon="2.22222">
        <ele>142.1</ele>
        <time>2023-08-16T08:47:59Z</time>
      </trkpt>
      <trkpt lat="49.77114" lon="2.2222">
        <ele>142.1</ele>
        <time>2023-08-16T08:48:00Z</time>
      </trkpt>
      <trkpt lat="49.77114" lon="2.22219">
        <ele>142.1</ele>
        <time>2023-08-16T08:48:01Z</time>
      </trkpt>
      <trkpt lat="49.77115" lon="2.22217">
        <ele>142</ele>
        <time>2023-08-16T08:48:03Z</time>
      </trkpt>
      <trkpt lat="49.77115" lon="2.22214">
        <ele>142</ele>
        <time>2023-08-16T08:48:04Z</time>
      </trkpt>
      <trkpt lat="49.77116" lon="2.22212">
        <ele>142</ele>
        <time>2023-08-16T08:48:05Z</time>
      </trkpt>
      <trkpt lat="49.77116" lon="2.22211">
        <ele>142</ele>
        <time>2023-08-16T08:48:06Z</time>
      </trkpt>
      <trkpt lat="49.77116" lon="2.22209">
        <ele>142</ele>
        <time>2023-08-16T08:48:07Z</time>
      </trkpt>
      <trkpt lat="49.77116" lon="2.22207">
        <ele>142</ele>
        <time>2023-08-16T08:48:08Z</time>
      </trkpt>
      <trkpt lat="49.77117" lon="2.22205">
        <ele>142</ele>
        <time>2023-08-16T08:48:10Z</time>
      </trkpt>
      <trkpt lat="49.77117" lon="2.22202">
        <ele>141.9</ele>
        <time>2023-08-16T08:48:11Z</time>
      </trkpt>
      <trkpt lat="49.77117" lon="2.22201">
        <ele>141.9</ele>
        <time>2023-08-16T08:48:12Z</time>
      </trkpt>
      <trkpt lat="49.77118" lon="2.222">
        <ele>141.9</ele>
        <time>2023-08-16T08:48:13Z</time>
      </trkpt>
      <trkpt lat="49.77118" lon="2.22198">
        <ele>141.9</ele>
        <time>2023-08-16T08:48:14Z</time>
      </trkpt>
      <trkpt lat="49.77119" lon="2.22196">
        <ele>141.9</ele>
        <time>2023-08-16T08:48:16Z</time>
      </trkpt>
      <trkpt lat="49.77119" lon="2.22195">
        <ele>141.9</ele>
        <time>2023-08-16T08:48:17Z</time>
      </trkpt>
      <trkpt lat="49.7712" lon="2.22193">
        <ele>141.9</ele>
        <time>2023-08-16T08:48:18Z</time>
      </trkpt>
      <trkpt lat="49.7712" lon="2.22191">
        <ele>141.9</ele>
        <time>2023-08-16T08:48:19Z</time>
      </trkpt>
      <trkpt lat="49.77121" lon="2.2219">
        <ele>141.9</ele>
        <time>2023-08-16T08:48:20Z</time>
      </trkpt>
      <trkpt lat="49.77121" lon="2.22189">
        <ele>141.8</ele>
        <time>2023-08-16T08:48:22Z</time>
      </trkpt>
      <trkpt lat="49.77122" lon="2.22187">
        <ele>141.8</ele>
        <time>2023-08-16T08:48:23Z</time>
      </trkpt>
      <trkpt lat="49.77123" lon="2.22185">
        <ele>141.8</ele>
        <time>2023-08-16T08:48:24Z</time>
      </trkpt>
      <trkpt lat="49.77123" lon="2.22184">
        <ele>141.8</ele>
        <time>2023-08-16T08:48:25Z</time>
      </trkpt>
      <trkpt lat="49.77124" lon="2.22182">
        <ele>141.8</ele>
        <time>2023-08-16T08:48:26Z</time>
      </trkpt>
      <trkpt lat="49.77124" lon="2.22181">
        <ele>141.8</ele>
        <time>2023-08-16T08:48:27Z</time>
      </trkpt>
      <trkpt lat="49.77125" lon="2.22178">
        <ele>141.8</ele>
        <time>2023-08-16T08:48:28Z</time>
      </trkpt>
      <trkpt lat="49.77126" lon="2.22177">
        <ele>141.7</ele>
        <time>2023-08-16T08:48:29Z</time>
      </trkpt>
      <trkpt lat="49.77126" lon="2.22175">
        <ele>141.7</ele>
        <time>2023-08-16T08:48:30Z</time>
      </trkpt>
      <trkpt lat="49.77127" lon="2.22173">
        <ele>141.7</ele>
        <time>2023-08-16T08:48:32Z</time>
      </trkpt>
      <trkpt lat="49.77128" lon="2.22171">
        <ele>141.7</ele>
        <time>2023-08-16T08:48:33Z</time>
      </trkpt>
      <trkpt lat="49.77128" lon="2.22169">
        <ele>141.7</ele>
        <time>2023-08-16T08:48:34Z</time>
      </trkpt>
      <trkpt lat="49.77129" lon="2.22167">
        <ele>141.7</ele>
        <time>2023-08-16T08:48:35Z</time>
      </trkpt>
      <trkpt lat="49.77129" lon="2.22165">
        <ele>141.7</ele>
        <time>2023-08-16T08:48:36Z</time>
      </trkpt>
      <trkpt lat="49.7713" lon="2.22164">
        <ele>141.7</ele>
        <time>2023-08-16T08:48:37Z</time>
      </trkpt>
      <trkpt lat="49.7713" lon="2.22162">
        <ele>141.7</ele>
        <time>2023-08-16T08:48:39Z</time>
      </trkpt>
      <trkpt lat="49.7713" lon="2.2216">
        <ele>141.6</ele>
        <time>2023-08-16T08:48:40Z</time>
      </trkpt>
      <trkpt lat="49.77131" lon="2.22158">
        <ele>141.6</ele>
        <time>2023-08-16T08:48:41Z</time>
      </trkpt>
      <trkpt lat="49.77131" lon="2.22156">
        <ele>141.6</ele>
        <time>2023-08-16T08:48:42Z</time>
      </trkpt>
      <trkpt lat="49.77132" lon="2.22154">
        <ele>141.6</ele>
        <time>2023-08-16T08:48:43Z</time>
      </trkpt>
      <trkpt lat="49.77132" lon="2.22152">
        <ele>141.6</ele>
        <time>2023-08-16T08:48:45Z</time>
      </trkpt>
      <trkpt lat="49.77132" lon="2.22149">
        <ele>141.6</ele>
        <time>2023-08-16T08:48:46Z</time>
      </trkpt>
      <trkpt lat="49.77133" lon="2.22148">
        <ele>141.6</ele>
        <time>2023-08-16T08:48:47Z</time>
      </trkpt>
      <trkpt lat="49.77133" lon="2.22144">
        <ele>141.6</ele>
        <time>2023-08-16T08:48:49Z</time>
      </trkpt>
      <trkpt lat="49.77134" lon="2.22143">
        <ele>141.6</ele>
        <time>2023-08-16T08:48:50Z</time>
      </trkpt>
      <trkpt lat="49.77134" lon="2.22142">
        <ele>141.5</ele>
        <time>2023-08-16T08:48:51Z</time>
      </trkpt>
      <trkpt lat="49.77135" lon="2.22139">
        <ele>141.5</ele>
        <time>2023-08-16T08:48:52Z</time>
      </trkpt>
      <trkpt lat="49.77135" lon="2.22138">
        <ele>141.5</ele>
        <time>2023-08-16T08:48:53Z</time>
      </trkpt>
      <trkpt lat="49.77136" lon="2.22137">
        <ele>141.5</ele>
        <time>2023-08-16T08:48:54Z</time>
      </trkpt>
      <trkpt lat="49.77137" lon="2.22134">
        <ele>141.5</ele>
        <time>2023-08-16T08:48:56Z</time>
      </trkpt>
      <trkpt lat="49.77137" lon="2.22133">
        <ele>141.5</ele>
        <time>2023-08-16T08:48:57Z</time>
      </trkpt>
      <trkpt lat="49.77137" lon="2.22132">
        <ele>141.5</ele>
        <time>2023-08-16T08:48:58Z</time>
      </trkpt>
      <trkpt lat="49.77138" lon="2.2213">
        <ele>141.5</ele>
        <time>2023-08-16T08:48:59Z</time>
      </trkpt>
      <trkpt lat="49.77138" lon="2.22129">
        <ele>141.5</ele>
        <time>2023-08-16T08:49:00Z</time>
      </trkpt>
      <trkpt lat="49.77139" lon="2.22127">
        <ele>141.4</ele>
        <time>2023-08-16T08:49:01Z</time>
      </trkpt>
      <trkpt lat="49.7714" lon="2.22125">
        <ele>141.4</ele>
        <time>2023-08-16T08:49:03Z</time>
      </trkpt>
      <trkpt lat="49.7714" lon="2.22123">
        <ele>141.4</ele>
        <time>2023-08-16T08:49:04Z</time>
      </trkpt>
      <trkpt lat="49.77141" lon="2.2212">
        <ele>141.4</ele>
        <time>2023-08-16T08:49:05Z</time>
      </trkpt>
      <trkpt lat="49.77141" lon="2.22119">
        <ele>141.4</ele>
        <time>2023-08-16T08:49:06Z</time>
      </trkpt>
      <trkpt lat="49.77142" lon="2.22118">
        <ele>141.4</ele>
        <time>2023-08-16T08:49:07Z</time>
      </trkpt>
      <trkpt lat="49.77142" lon="2.22115">
        <ele>141.4</ele>
        <time>2023-08-16T08:49:08Z</time>
      </trkpt>
      <trkpt lat="49.77143" lon="2.22114">
        <ele>141.4</ele>
        <time>2023-08-16T08:49:10Z</time>
      </trkpt>
      <trkpt lat="49.77143" lon="2.22112">
        <ele>141.4</ele>
        <time>2023-08-16T08:49:11Z</time>
      </trkpt>
      <trkpt lat="49.77144" lon="2.22109">
        <ele>141.4</ele>
        <time>2023-08-16T08:49:12Z</time>
      </trkpt>
      <trkpt lat="49.77144" lon="2.22108">
        <ele>141.4</ele>
        <time>2023-08-16T08:49:13Z</time>
      </trkpt>
      <trkpt lat="49.77144" lon="2.22107">
        <ele>141.4</ele>
        <time>2023-08-16T08:49:14Z</time>
      </trkpt>
      <trkpt lat="49.77145" lon="2.22105">
        <ele>141.4</ele>
        <time>2023-08-16T08:49:15Z</time>
      </trkpt>
      <trkpt lat="49.77145" lon="2.22104">
        <ele>141.4</ele>
        <time>2023-08-16T08:49:16Z</time>
      </trkpt>
      <trkpt lat="49.77146" lon="2.22102">
        <ele>141.3</ele>
        <time>2023-08-16T08:49:18Z</time>
      </trkpt>
      <trkpt lat="49.77147" lon="2.22099">
        <ele>141.3</ele>
        <time>2023-08-16T08:49:19Z</time>
      </trkpt>
      <trkpt lat="49.77147" lon="2.22098">
        <ele>141.3</ele>
        <time>2023-08-16T08:49:20Z</time>
      </trkpt>
      <trkpt lat="49.77147" lon="2.22097">
        <ele>141.3</ele>
        <time>2023-08-16T08:49:21Z</time>
      </trkpt>
      <trkpt lat="49.77148" lon="2.22096">
        <ele>141.3</ele>
        <time>2023-08-16T08:49:22Z</time>
      </trkpt>
      <trkpt lat="49.77149" lon="2.22094">
        <ele>141.4</ele>
        <time>2023-08-16T08:49:23Z</time>
      </trkpt>
      <trkpt lat="49.77149" lon="2.22093">
        <ele>141.4</ele>
        <time>2023-08-16T08:49:25Z</time>
      </trkpt>
      <trkpt lat="49.7715" lon="2.22091">
        <ele>141.4</ele>
        <time>2023-08-16T08:49:26Z</time>
      </trkpt>
      <trkpt lat="49.7715" lon="2.2209">
        <ele>141.4</ele>
        <time>2023-08-16T08:49:27Z</time>
      </trkpt>
      <trkpt lat="49.77151" lon="2.22088">
        <ele>141.4</ele>
        <time>2023-08-16T08:49:28Z</time>
      </trkpt>
      <trkpt lat="49.77151" lon="2.22087">
        <ele>141.4</ele>
        <time>2023-08-16T08:49:29Z</time>
      </trkpt>
      <trkpt lat="49.77152" lon="2.22085">
        <ele>141.4</ele>
        <time>2023-08-16T08:49:30Z</time>
      </trkpt>
      <trkpt lat="49.77152" lon="2.22083">
        <ele>141.4</ele>
        <time>2023-08-16T08:49:32Z</time>
      </trkpt>
      <trkpt lat="49.77153" lon="2.22081">
        <ele>141.4</ele>
        <time>2023-08-16T08:49:33Z</time>
      </trkpt>
      <trkpt lat="49.77153" lon="2.22079">
        <ele>141.4</ele>
        <time>2023-08-16T08:49:34Z</time>
      </trkpt>
      <trkpt lat="49.77154" lon="2.22077">
        <ele>141.4</ele>
        <time>2023-08-16T08:49:36Z</time>
      </trkpt>
      <trkpt lat="49.77154" lon="2.22075">
        <ele>141.4</ele>
        <time>2023-08-16T08:49:37Z</time>
      </trkpt>
      <trkpt lat="49.77155" lon="2.22074">
        <ele>141.4</ele>
        <time>2023-08-16T08:49:38Z</time>
      </trkpt>
      <trkpt lat="49.77155" lon="2.22072">
        <ele>141.4</ele>
        <time>2023-08-16T08:49:39Z</time>
      </trkpt>
      <trkpt lat="49.77156" lon="2.22071">
        <ele>141.4</ele>
        <time>2023-08-16T08:49:40Z</time>
      </trkpt>
      <trkpt lat="49.77157" lon="2.22069">
        <ele>141.4</ele>
        <time>2023-08-16T08:49:41Z</time>
      </trkpt>
      <trkpt lat="49.77157" lon="2.22066">
        <ele>141.4</ele>
        <time>2023-08-16T08:49:43Z</time>
      </trkpt>
      <trkpt lat="49.77158" lon="2.22064">
        <ele>141.4</ele>
        <time>2023-08-16T08:49:44Z</time>
      </trkpt>
      <trkpt lat="49.77159" lon="2.22061">
        <ele>141.4</ele>
        <time>2023-08-16T08:49:45Z</time>
      </trkpt>
      <trkpt lat="49.77159" lon="2.2206">
        <ele>141.4</ele>
        <time>2023-08-16T08:49:46Z</time>
      </trkpt>
      <trkpt lat="49.7716" lon="2.22059">
        <ele>141.4</ele>
        <time>2023-08-16T08:49:47Z</time>
      </trkpt>
      <trkpt lat="49.7716" lon="2.22056">
        <ele>141.4</ele>
        <time>2023-08-16T08:49:48Z</time>
      </trkpt>
      <trkpt lat="49.77161" lon="2.22054">
        <ele>141.4</ele>
        <time>2023-08-16T08:49:50Z</time>
      </trkpt>
      <trkpt lat="49.77161" lon="2.22053">
        <ele>141.4</ele>
        <time>2023-08-16T08:49:51Z</time>
      </trkpt>
      <trkpt lat="49.77161" lon="2.2205">
        <ele>141.4</ele>
        <time>2023-08-16T08:49:52Z</time>
      </trkpt>
      <trkpt lat="49.77162" lon="2.22049">
        <ele>141.4</ele>
        <time>2023-08-16T08:49:53Z</time>
      </trkpt>
      <trkpt lat="49.77162" lon="2.22048">
        <ele>141.4</ele>
        <time>2023-08-16T08:49:54Z</time>
      </trkpt>
      <trkpt lat="49.77162" lon="2.22045">
        <ele>141.4</ele>
        <time>2023-08-16T08:49:56Z</time>
      </trkpt>
      <trkpt lat="49.77162" lon="2.22043">
        <ele>141.4</ele>
        <time>2023-08-16T08:49:57Z</time>
      </trkpt>
      <trkpt lat="49.77162" lon="2.22041">
        <ele>141.4</ele>
        <time>2023-08-16T08:49:58Z</time>
      </trkpt>
      <trkpt lat="49.77163" lon="2.22039">
        <ele>141.4</ele>
        <time>2023-08-16T08:49:59Z</time>
      </trkpt>
      <trkpt lat="49.77163" lon="2.22038">
        <ele>141.5</ele>
        <time>2023-08-16T08:50:00Z</time>
      </trkpt>
      <trkpt lat="49.77164" lon="2.22035">
        <ele>141.5</ele>
        <time>2023-08-16T08:50:01Z</time>
      </trkpt>
      <trkpt lat="49.77164" lon="2.22033">
        <ele>141.5</ele>
        <time>2023-08-16T08:50:03Z</time>
      </trkpt>
      <trkpt lat="49.77164" lon="2.22031">
        <ele>141.5</ele>
        <time>2023-08-16T08:50:04Z</time>
      </trkpt>
      <trkpt lat="49.77165" lon="2.2203">
        <ele>141.5</ele>
        <time>2023-08-16T08:50:05Z</time>
      </trkpt>
      <trkpt lat="49.77165" lon="2.22028">
        <ele>141.5</ele>
        <time>2023-08-16T08:50:06Z</time>
      </trkpt>
      <trkpt lat="49.77167" lon="2.22026">
        <ele>141.5</ele>
        <time>2023-08-16T08:50:08Z</time>
      </trkpt>
      <trkpt lat="49.77168" lon="2.22024">
        <ele>141.5</ele>
        <time>2023-08-16T08:50:09Z</time>
      </trkpt>
      <trkpt lat="49.77168" lon="2.22023">
        <ele>141.5</ele>
        <time>2023-08-16T08:50:11Z</time>
      </trkpt>
      <trkpt lat="49.77169" lon="2.22021">
        <ele>141.6</ele>
        <time>2023-08-16T08:50:12Z</time>
      </trkpt>
      <trkpt lat="49.7717" lon="2.22018">
        <ele>141.6</ele>
        <time>2023-08-16T08:50:13Z</time>
      </trkpt>
      <trkpt lat="49.77171" lon="2.22017">
        <ele>141.6</ele>
        <time>2023-08-16T08:50:14Z</time>
      </trkpt>
      <trkpt lat="49.77171" lon="2.22016">
        <ele>141.6</ele>
        <time>2023-08-16T08:50:15Z</time>
      </trkpt>
      <trkpt lat="49.77171" lon="2.22014">
        <ele>141.6</ele>
        <time>2023-08-16T08:50:16Z</time>
      </trkpt>
      <trkpt lat="49.77172" lon="2.22013">
        <ele>141.6</ele>
        <time>2023-08-16T08:50:18Z</time>
      </trkpt>
      <trkpt lat="49.77172" lon="2.22012">
        <ele>141.6</ele>
        <time>2023-08-16T08:50:19Z</time>
      </trkpt>
      <trkpt lat="49.77173" lon="2.22008">
        <ele>141.7</ele>
        <time>2023-08-16T08:50:20Z</time>
      </trkpt>
      <trkpt lat="49.77173" lon="2.22007">
        <ele>141.7</ele>
        <time>2023-08-16T08:50:21Z</time>
      </trkpt>
      <trkpt lat="49.77173" lon="2.22006">
        <ele>141.7</ele>
        <time>2023-08-16T08:50:22Z</time>
      </trkpt>
      <trkpt lat="49.77174" lon="2.22004">
        <ele>141.7</ele>
        <time>2023-08-16T08:50:23Z</time>
      </trkpt>
      <trkpt lat="49.77174" lon="2.22002">
        <ele>141.7</ele>
        <time>2023-08-16T08:50:24Z</time>
      </trkpt>
      <trkpt lat="49.77174" lon="2.22">
        <ele>141.7</ele>
        <time>2023-08-16T08:50:25Z</time>
      </trkpt>
      <trkpt lat="49.77175" lon="2.21998">
        <ele>141.7</ele>
        <time>2023-08-16T08:50:27Z</time>
      </trkpt>
      <trkpt lat="49.77175" lon="2.21996">
        <ele>141.7</ele>
        <time>2023-08-16T08:50:28Z</time>
      </trkpt>
      <trkpt lat="49.77176" lon="2.21993">
        <ele>141.7</ele>
        <time>2023-08-16T08:50:29Z</time>
      </trkpt>
      <trkpt lat="49.77176" lon="2.21992">
        <ele>141.8</ele>
        <time>2023-08-16T08:50:30Z</time>
      </trkpt>
      <trkpt lat="49.77176" lon="2.2199">
        <ele>141.8</ele>
        <time>2023-08-16T08:50:31Z</time>
      </trkpt>
      <trkpt lat="49.77177" lon="2.21987">
        <ele>141.8</ele>
        <time>2023-08-16T08:50:33Z</time>
      </trkpt>
      <trkpt lat="49.77177" lon="2.21986">
        <ele>141.8</ele>
        <time>2023-08-16T08:50:34Z</time>
      </trkpt>
      <trkpt lat="49.77177" lon="2.21984">
        <ele>141.8</ele>
        <time>2023-08-16T08:50:35Z</time>
      </trkpt>
      <trkpt lat="49.77177" lon="2.21983">
        <ele>141.8</ele>
        <time>2023-08-16T08:50:36Z</time>
      </trkpt>
      <trkpt lat="49.77177" lon="2.21981">
        <ele>141.8</ele>
        <time>2023-08-16T08:50:37Z</time>
      </trkpt>
      <trkpt lat="49.77178" lon="2.2198">
        <ele>141.8</ele>
        <time>2023-08-16T08:50:39Z</time>
      </trkpt>
      <trkpt lat="49.77178" lon="2.21979">
        <ele>141.8</ele>
        <time>2023-08-16T08:50:40Z</time>
      </trkpt>
      <trkpt lat="49.77178" lon="2.21978">
        <ele>141.8</ele>
        <time>2023-08-16T08:50:41Z</time>
      </trkpt>
      <trkpt lat="49.77178" lon="2.21976">
        <ele>141.9</ele>
        <time>2023-08-16T08:50:42Z</time>
      </trkpt>
      <trkpt lat="49.77179" lon="2.21975">
        <ele>141.9</ele>
        <time>2023-08-16T08:50:43Z</time>
      </trkpt>
      <trkpt lat="49.77179" lon="2.21972">
        <ele>141.9</ele>
        <time>2023-08-16T08:50:44Z</time>
      </trkpt>
      <trkpt lat="49.7718" lon="2.2197">
        <ele>141.9</ele>
        <time>2023-08-16T08:50:46Z</time>
      </trkpt>
      <trkpt lat="49.7718" lon="2.21969">
        <ele>141.9</ele>
        <time>2023-08-16T08:50:47Z</time>
      </trkpt>
      <trkpt lat="49.77181" lon="2.21966">
        <ele>142</ele>
        <time>2023-08-16T08:50:48Z</time>
      </trkpt>
      <trkpt lat="49.77181" lon="2.21965">
        <ele>142</ele>
        <time>2023-08-16T08:50:49Z</time>
      </trkpt>
      <trkpt lat="49.77181" lon="2.21963">
        <ele>142</ele>
        <time>2023-08-16T08:50:50Z</time>
      </trkpt>
      <trkpt lat="49.77182" lon="2.21962">
        <ele>142</ele>
        <time>2023-08-16T08:50:51Z</time>
      </trkpt>
      <trkpt lat="49.77183" lon="2.21959">
        <ele>142.1</ele>
        <time>2023-08-16T08:50:53Z</time>
      </trkpt>
      <trkpt lat="49.77183" lon="2.21958">
        <ele>142.1</ele>
        <time>2023-08-16T08:50:54Z</time>
      </trkpt>
      <trkpt lat="49.77183" lon="2.21956">
        <ele>142.1</ele>
        <time>2023-08-16T08:50:56Z</time>
      </trkpt>
      <trkpt lat="49.77184" lon="2.21954">
        <ele>142.1</ele>
        <time>2023-08-16T08:50:57Z</time>
      </trkpt>
      <trkpt lat="49.77184" lon="2.21952">
        <ele>142.1</ele>
        <time>2023-08-16T08:50:58Z</time>
      </trkpt>
      <trkpt lat="49.77185" lon="2.21951">
        <ele>142.1</ele>
        <time>2023-08-16T08:50:59Z</time>
      </trkpt>
      <trkpt lat="49.77185" lon="2.2195">
        <ele>142.2</ele>
        <time>2023-08-16T08:51:00Z</time>
      </trkpt>
      <trkpt lat="49.77186" lon="2.21948">
        <ele>142.2</ele>
        <time>2023-08-16T08:51:01Z</time>
      </trkpt>
      <trkpt lat="49.77186" lon="2.21947">
        <ele>142.2</ele>
        <time>2023-08-16T08:51:02Z</time>
      </trkpt>
      <trkpt lat="49.77187" lon="2.21945">
        <ele>142.2</ele>
        <time>2023-08-16T08:51:04Z</time>
      </trkpt>
      <trkpt lat="49.77187" lon="2.21943">
        <ele>142.2</ele>
        <time>2023-08-16T08:51:05Z</time>
      </trkpt>
      <trkpt lat="49.77188" lon="2.21941">
        <ele>142.3</ele>
        <time>2023-08-16T08:51:06Z</time>
      </trkpt>
      <trkpt lat="49.77188" lon="2.2194">
        <ele>142.3</ele>
        <time>2023-08-16T08:51:07Z</time>
      </trkpt>
      <trkpt lat="49.77188" lon="2.21939">
        <ele>142.3</ele>
        <time>2023-08-16T08:51:08Z</time>
      </trkpt>
      <trkpt lat="49.77189" lon="2.21938">
        <ele>142.3</ele>
        <time>2023-08-16T08:51:10Z</time>
      </trkpt>
      <trkpt lat="49.77189" lon="2.21936">
        <ele>142.4</ele>
        <time>2023-08-16T08:51:11Z</time>
      </trkpt>
      <trkpt lat="49.7719" lon="2.21934">
        <ele>142.4</ele>
        <time>2023-08-16T08:51:12Z</time>
      </trkpt>
      <trkpt lat="49.7719" lon="2.21933">
        <ele>142.4</ele>
        <time>2023-08-16T08:51:13Z</time>
      </trkpt>
      <trkpt lat="49.77191" lon="2.21931">
        <ele>142.5</ele>
        <time>2023-08-16T08:51:14Z</time>
      </trkpt>
      <trkpt lat="49.77191" lon="2.2193">
        <ele>142.5</ele>
        <time>2023-08-16T08:51:16Z</time>
      </trkpt>
      <trkpt lat="49.77192" lon="2.21927">
        <ele>142.5</ele>
        <time>2023-08-16T08:51:17Z</time>
      </trkpt>
      <trkpt lat="49.77192" lon="2.21926">
        <ele>142.6</ele>
        <time>2023-08-16T08:51:19Z</time>
      </trkpt>
      <trkpt lat="49.77193" lon="2.21924">
        <ele>142.6</ele>
        <time>2023-08-16T08:51:20Z</time>
      </trkpt>
      <trkpt lat="49.77193" lon="2.21923">
        <ele>142.6</ele>
        <time>2023-08-16T08:51:21Z</time>
      </trkpt>
      <trkpt lat="49.77194" lon="2.21921">
        <ele>142.7</ele>
        <time>2023-08-16T08:51:22Z</time>
      </trkpt>
      <trkpt lat="49.77194" lon="2.2192">
        <ele>142.7</ele>
        <time>2023-08-16T08:51:23Z</time>
      </trkpt>
      <trkpt lat="49.77194" lon="2.21918">
        <ele>142.7</ele>
        <time>2023-08-16T08:51:24Z</time>
      </trkpt>
      <trkpt lat="49.77195" lon="2.21917">
        <ele>142.7</ele>
        <time>2023-08-16T08:51:25Z</time>
      </trkpt>
      <trkpt lat="49.77195" lon="2.21915">
        <ele>142.8</ele>
        <time>2023-08-16T08:51:27Z</time>
      </trkpt>
      <trkpt lat="49.77196" lon="2.21913">
        <ele>142.8</ele>
        <time>2023-08-16T08:51:28Z</time>
      </trkpt>
      <trkpt lat="49.77197" lon="2.21912">
        <ele>142.8</ele>
        <time>2023-08-16T08:51:29Z</time>
      </trkpt>
      <trkpt lat="49.77197" lon="2.2191">
        <ele>142.9</ele>
        <time>2023-08-16T08:51:30Z</time>
      </trkpt>
      <trkpt lat="49.77197" lon="2.21909">
        <ele>142.9</ele>
        <time>2023-08-16T08:51:31Z</time>
      </trkpt>
      <trkpt lat="49.77198" lon="2.21908">
        <ele>142.9</ele>
        <time>2023-08-16T08:51:32Z</time>
      </trkpt>
      <trkpt lat="49.77198" lon="2.21905">
        <ele>142.9</ele>
        <time>2023-08-16T08:51:34Z</time>
      </trkpt>
      <trkpt lat="49.77199" lon="2.21904">
        <ele>143</ele>
        <time>2023-08-16T08:51:35Z</time>
      </trkpt>
      <trkpt lat="49.77199" lon="2.21901">
        <ele>143</ele>
        <time>2023-08-16T08:51:36Z</time>
      </trkpt>
      <trkpt lat="49.772" lon="2.219">
        <ele>143</ele>
        <time>2023-08-16T08:51:37Z</time>
      </trkpt>
      <trkpt lat="49.772" lon="2.21899">
        <ele>143</ele>
        <time>2023-08-16T08:51:38Z</time>
      </trkpt>
      <trkpt lat="49.77201" lon="2.21896">
        <ele>143</ele>
        <time>2023-08-16T08:51:39Z</time>
      </trkpt>
      <trkpt lat="49.77202" lon="2.21895">
        <ele>143.1</ele>
        <time>2023-08-16T08:51:41Z</time>
      </trkpt>
      <trkpt lat="49.77202" lon="2.21894">
        <ele>143.1</ele>
        <time>2023-08-16T08:51:42Z</time>
      </trkpt>
      <trkpt lat="49.77203" lon="2.21893">
        <ele>143.1</ele>
        <time>2023-08-16T08:51:43Z</time>
      </trkpt>
      <trkpt lat="49.77203" lon="2.21891">
        <ele>143.1</ele>
        <time>2023-08-16T08:51:45Z</time>
      </trkpt>
      <trkpt lat="49.77204" lon="2.2189">
        <ele>143.1</ele>
        <time>2023-08-16T08:51:46Z</time>
      </trkpt>
      <trkpt lat="49.77204" lon="2.21889">
        <ele>143.1</ele>
        <time>2023-08-16T08:51:47Z</time>
      </trkpt>
      <trkpt lat="49.77205" lon="2.21888">
        <ele>143.1</ele>
        <time>2023-08-16T08:51:48Z</time>
      </trkpt>
      <trkpt lat="49.77205" lon="2.21886">
        <ele>143.1</ele>
        <time>2023-08-16T08:51:49Z</time>
      </trkpt>
      <trkpt lat="49.77206" lon="2.21882">
        <ele>143.2</ele>
        <time>2023-08-16T08:51:50Z</time>
      </trkpt>
      <trkpt lat="49.77207" lon="2.21881">
        <ele>143.2</ele>
        <time>2023-08-16T08:51:52Z</time>
      </trkpt>
      <trkpt lat="49.77207" lon="2.21879">
        <ele>143.2</ele>
        <time>2023-08-16T08:51:53Z</time>
      </trkpt>
      <trkpt lat="49.77207" lon="2.21878">
        <ele>143.2</ele>
        <time>2023-08-16T08:51:54Z</time>
      </trkpt>
      <trkpt lat="49.77208" lon="2.21876">
        <ele>143.2</ele>
        <time>2023-08-16T08:51:55Z</time>
      </trkpt>
      <trkpt lat="49.77208" lon="2.21875">
        <ele>143.2</ele>
        <time>2023-08-16T08:51:56Z</time>
      </trkpt>
      <trkpt lat="49.77208" lon="2.21874">
        <ele>143.2</ele>
        <time>2023-08-16T08:51:57Z</time>
      </trkpt>
      <trkpt lat="49.77209" lon="2.21872">
        <ele>143.3</ele>
        <time>2023-08-16T08:51:58Z</time>
      </trkpt>
      <trkpt lat="49.7721" lon="2.21869">
        <ele>143.3</ele>
        <time>2023-08-16T08:52:00Z</time>
      </trkpt>
      <trkpt lat="49.7721" lon="2.21867">
        <ele>143.3</ele>
        <time>2023-08-16T08:52:01Z</time>
      </trkpt>
      <trkpt lat="49.7721" lon="2.21866">
        <ele>143.3</ele>
        <time>2023-08-16T08:52:02Z</time>
      </trkpt>
      <trkpt lat="49.77211" lon="2.21864">
        <ele>143.3</ele>
        <time>2023-08-16T08:52:04Z</time>
      </trkpt>
      <trkpt lat="49.77211" lon="2.21863">
        <ele>143.4</ele>
        <time>2023-08-16T08:52:05Z</time>
      </trkpt>
      <trkpt lat="49.77212" lon="2.2186">
        <ele>143.4</ele>
        <time>2023-08-16T08:52:06Z</time>
      </trkpt>
      <trkpt lat="49.77212" lon="2.21859">
        <ele>143.4</ele>
        <time>2023-08-16T08:52:07Z</time>
      </trkpt>
      <trkpt lat="49.77212" lon="2.21857">
        <ele>143.4</ele>
        <time>2023-08-16T08:52:08Z</time>
      </trkpt>
      <trkpt lat="49.77212" lon="2.21856">
        <ele>143.4</ele>
        <time>2023-08-16T08:52:10Z</time>
      </trkpt>
      <trkpt lat="49.77213" lon="2.21855">
        <ele>143.5</ele>
        <time>2023-08-16T08:52:11Z</time>
      </trkpt>
      <trkpt lat="49.77213" lon="2.21854">
        <ele>143.5</ele>
        <time>2023-08-16T08:52:12Z</time>
      </trkpt>
      <trkpt lat="49.77213" lon="2.21853">
        <ele>143.5</ele>
        <time>2023-08-16T08:52:13Z</time>
      </trkpt>
      <trkpt lat="49.77213" lon="2.21851">
        <ele>143.5</ele>
        <time>2023-08-16T08:52:14Z</time>
      </trkpt>
      <trkpt lat="49.77213" lon="2.2185">
        <ele>143.5</ele>
        <time>2023-08-16T08:52:15Z</time>
      </trkpt>
      <trkpt lat="49.77214" lon="2.21849">
        <ele>143.5</ele>
        <time>2023-08-16T08:52:16Z</time>
      </trkpt>
      <trkpt lat="49.77214" lon="2.21847">
        <ele>143.5</ele>
        <time>2023-08-16T08:52:18Z</time>
      </trkpt>
      <trkpt lat="49.77215" lon="2.21847">
        <ele>143.6</ele>
        <time>2023-08-16T08:52:19Z</time>
      </trkpt>
      <trkpt lat="49.77216" lon="2.21846">
        <ele>143.6</ele>
        <time>2023-08-16T08:52:20Z</time>
      </trkpt>
      <trkpt lat="49.77217" lon="2.21844">
        <ele>143.6</ele>
        <time>2023-08-16T08:52:22Z</time>
      </trkpt>
      <trkpt lat="49.77217" lon="2.21843">
        <ele>143.6</ele>
        <time>2023-08-16T08:52:23Z</time>
      </trkpt>
      <trkpt lat="49.77218" lon="2.21842">
        <ele>143.6</ele>
        <time>2023-08-16T08:52:24Z</time>
      </trkpt>
      <trkpt lat="49.77219" lon="2.21842">
        <ele>143.6</ele>
        <time>2023-08-16T08:52:25Z</time>
      </trkpt>
      <trkpt lat="49.77219" lon="2.21841">
        <ele>143.6</ele>
        <time>2023-08-16T08:52:27Z</time>
      </trkpt>
      <trkpt lat="49.77219" lon="2.21841">
        <ele>143.6</ele>
        <time>2023-08-16T08:52:28Z</time>
      </trkpt>
      <trkpt lat="49.7722" lon="2.2184">
        <ele>143.6</ele>
        <time>2023-08-16T08:52:29Z</time>
      </trkpt>
      <trkpt lat="49.7722" lon="2.2184">
        <ele>143.7</ele>
        <time>2023-08-16T08:52:30Z</time>
      </trkpt>
      <trkpt lat="49.77221" lon="2.2184">
        <ele>143.7</ele>
        <time>2023-08-16T08:52:31Z</time>
      </trkpt>
      <trkpt lat="49.77221" lon="2.21839">
        <ele>143.7</ele>
        <time>2023-08-16T08:52:32Z</time>
      </trkpt>
      <trkpt lat="49.77221" lon="2.21838">
        <ele>143.7</ele>
        <time>2023-08-16T08:52:33Z</time>
      </trkpt>
      <trkpt lat="49.77221" lon="2.21837">
        <ele>143.7</ele>
        <time>2023-08-16T08:52:35Z</time>
      </trkpt>
      <trkpt lat="49.77221" lon="2.21835">
        <ele>143.7</ele>
        <time>2023-08-16T08:52:36Z</time>
      </trkpt>
      <trkpt lat="49.77221" lon="2.21834">
        <ele>143.7</ele>
        <time>2023-08-16T08:52:37Z</time>
      </trkpt>
      <trkpt lat="49.77222" lon="2.21833">
        <ele>143.7</ele>
        <time>2023-08-16T08:52:38Z</time>
      </trkpt>
      <trkpt lat="49.77222" lon="2.21831">
        <ele>143.7</ele>
        <time>2023-08-16T08:52:39Z</time>
      </trkpt>
      <trkpt lat="49.77222" lon="2.2183">
        <ele>143.8</ele>
        <time>2023-08-16T08:52:40Z</time>
      </trkpt>
      <trkpt lat="49.77223" lon="2.21828">
        <ele>143.8</ele>
        <time>2023-08-16T08:52:42Z</time>
      </trkpt>
      <trkpt lat="49.77223" lon="2.21827">
        <ele>143.8</ele>
        <time>2023-08-16T08:52:43Z</time>
      </trkpt>
      <trkpt lat="49.77223" lon="2.21825">
        <ele>143.8</ele>
        <time>2023-08-16T08:52:44Z</time>
      </trkpt>
      <trkpt lat="49.77224" lon="2.21824">
        <ele>143.8</ele>
        <time>2023-08-16T08:52:45Z</time>
      </trkpt>
      <trkpt lat="49.77224" lon="2.21822">
        <ele>143.9</ele>
        <time>2023-08-16T08:52:46Z</time>
      </trkpt>
      <trkpt lat="49.77225" lon="2.2182">
        <ele>143.9</ele>
        <time>2023-08-16T08:52:48Z</time>
      </trkpt>
      <trkpt lat="49.77225" lon="2.21819">
        <ele>143.9</ele>
        <time>2023-08-16T08:52:49Z</time>
      </trkpt>
      <trkpt lat="49.77226" lon="2.21817">
        <ele>143.9</ele>
        <time>2023-08-16T08:52:50Z</time>
      </trkpt>
      <trkpt lat="49.77226" lon="2.21816">
        <ele>143.9</ele>
        <time>2023-08-16T08:52:51Z</time>
      </trkpt>
      <trkpt lat="49.77227" lon="2.21814">
        <ele>144</ele>
        <time>2023-08-16T08:52:52Z</time>
      </trkpt>
      <trkpt lat="49.77227" lon="2.21813">
        <ele>144</ele>
        <time>2023-08-16T08:52:53Z</time>
      </trkpt>
      <trkpt lat="49.77227" lon="2.21811">
        <ele>144</ele>
        <time>2023-08-16T08:52:54Z</time>
      </trkpt>
      <trkpt lat="49.77228" lon="2.21809">
        <ele>144</ele>
        <time>2023-08-16T08:52:56Z</time>
      </trkpt>
      <trkpt lat="49.77228" lon="2.21808">
        <ele>144.1</ele>
        <time>2023-08-16T08:52:57Z</time>
      </trkpt>
      <trkpt lat="49.77228" lon="2.21806">
        <ele>144.1</ele>
        <time>2023-08-16T08:52:58Z</time>
      </trkpt>
      <trkpt lat="49.77229" lon="2.21804">
        <ele>144.1</ele>
        <time>2023-08-16T08:52:59Z</time>
      </trkpt>
      <trkpt lat="49.77229" lon="2.21803">
        <ele>144.1</ele>
        <time>2023-08-16T08:53:00Z</time>
      </trkpt>
      <trkpt lat="49.77229" lon="2.21801">
        <ele>144.2</ele>
        <time>2023-08-16T08:53:01Z</time>
      </trkpt>
      <trkpt lat="49.77229" lon="2.218">
        <ele>144.2</ele>
        <time>2023-08-16T08:53:02Z</time>
      </trkpt>
      <trkpt lat="49.77229" lon="2.21798">
        <ele>144.2</ele>
        <time>2023-08-16T08:53:04Z</time>
      </trkpt>
      <trkpt lat="49.77229" lon="2.21797">
        <ele>144.2</ele>
        <time>2023-08-16T08:53:05Z</time>
      </trkpt>
      <trkpt lat="49.7723" lon="2.21795">
        <ele>144.2</ele>
        <time>2023-08-16T08:53:06Z</time>
      </trkpt>
      <trkpt lat="49.7723" lon="2.21794">
        <ele>144.3</ele>
        <time>2023-08-16T08:53:07Z</time>
      </trkpt>
      <trkpt lat="49.7723" lon="2.21792">
        <ele>144.3</ele>
        <time>2023-08-16T08:53:09Z</time>
      </trkpt>
      <trkpt lat="49.77231" lon="2.2179">
        <ele>144.3</ele>
        <time>2023-08-16T08:53:10Z</time>
      </trkpt>
      <trkpt lat="49.77231" lon="2.21788">
        <ele>144.4</ele>
        <time>2023-08-16T08:53:11Z</time>
      </trkpt>
      <trkpt lat="49.77231" lon="2.21787">
        <ele>144.4</ele>
        <time>2023-08-16T08:53:12Z</time>
      </trkpt>
      <trkpt lat="49.77232" lon="2.21785">
        <ele>144.4</ele>
        <time>2023-08-16T08:53:13Z</time>
      </trkpt>
      <trkpt lat="49.77232" lon="2.21783">
        <ele>144.5</ele>
        <time>2023-08-16T08:53:15Z</time>
      </trkpt>
      <trkpt lat="49.77232" lon="2.21782">
        <ele>144.5</ele>
        <time>2023-08-16T08:53:16Z</time>
      </trkpt>
      <trkpt lat="49.77232" lon="2.2178">
        <ele>144.6</ele>
        <time>2023-08-16T08:53:17Z</time>
      </trkpt>
      <trkpt lat="49.77233" lon="2.21778">
        <ele>144.6</ele>
        <time>2023-08-16T08:53:18Z</time>
      </trkpt>
      <trkpt lat="49.77233" lon="2.21777">
        <ele>144.6</ele>
        <time>2023-08-16T08:53:19Z</time>
      </trkpt>
      <trkpt lat="49.77233" lon="2.21775">
        <ele>144.7</ele>
        <time>2023-08-16T08:53:20Z</time>
      </trkpt>
      <trkpt lat="49.77234" lon="2.21774">
        <ele>144.7</ele>
        <time>2023-08-16T08:53:21Z</time>
      </trkpt>
      <trkpt lat="49.77234" lon="2.21771">
        <ele>144.7</ele>
        <time>2023-08-16T08:53:23Z</time>
      </trkpt>
      <trkpt lat="49.77235" lon="2.21769">
        <ele>144.8</ele>
        <time>2023-08-16T08:53:24Z</time>
      </trkpt>
      <trkpt lat="49.77235" lon="2.21767">
        <ele>144.8</ele>
        <time>2023-08-16T08:53:26Z</time>
      </trkpt>
      <trkpt lat="49.77236" lon="2.21765">
        <ele>144.9</ele>
        <time>2023-08-16T08:53:27Z</time>
      </trkpt>
      <trkpt lat="49.77236" lon="2.21763">
        <ele>144.9</ele>
        <time>2023-08-16T08:53:28Z</time>
      </trkpt>
      <trkpt lat="49.77237" lon="2.21762">
        <ele>145</ele>
        <time>2023-08-16T08:53:29Z</time>
      </trkpt>
      <trkpt lat="49.77237" lon="2.2176">
        <ele>145</ele>
        <time>2023-08-16T08:53:30Z</time>
      </trkpt>
      <trkpt lat="49.77237" lon="2.21758">
        <ele>145.1</ele>
        <time>2023-08-16T08:53:31Z</time>
      </trkpt>
      <trkpt lat="49.77238" lon="2.21756">
        <ele>145.1</ele>
        <time>2023-08-16T08:53:32Z</time>
      </trkpt>
      <trkpt lat="49.77239" lon="2.21755">
        <ele>145.2</ele>
        <time>2023-08-16T08:53:33Z</time>
      </trkpt>
      <trkpt lat="49.7724" lon="2.21752">
        <ele>145.2</ele>
        <time>2023-08-16T08:53:35Z</time>
      </trkpt>
      <trkpt lat="49.77241" lon="2.21748">
        <ele>145.4</ele>
        <time>2023-08-16T08:53:36Z</time>
      </trkpt>
      <trkpt lat="49.77241" lon="2.21747">
        <ele>145.4</ele>
        <time>2023-08-16T08:53:38Z</time>
      </trkpt>
      <trkpt lat="49.77242" lon="2.21745">
        <ele>145.4</ele>
        <time>2023-08-16T08:53:39Z</time>
      </trkpt>
      <trkpt lat="49.77242" lon="2.21744">
        <ele>145.5</ele>
        <time>2023-08-16T08:53:40Z</time>
      </trkpt>
      <trkpt lat="49.77243" lon="2.21742">
        <ele>145.5</ele>
        <time>2023-08-16T08:53:41Z</time>
      </trkpt>
      <trkpt lat="49.77243" lon="2.2174">
        <ele>145.6</ele>
        <time>2023-08-16T08:53:42Z</time>
      </trkpt>
      <trkpt lat="49.77244" lon="2.21739">
        <ele>145.6</ele>
        <time>2023-08-16T08:53:43Z</time>
      </trkpt>
      <trkpt lat="49.77244" lon="2.21738">
        <ele>145.6</ele>
        <time>2023-08-16T08:53:44Z</time>
      </trkpt>
      <trkpt lat="49.77245" lon="2.21736">
        <ele>145.7</ele>
        <time>2023-08-16T08:53:46Z</time>
      </trkpt>
      <trkpt lat="49.77245" lon="2.21735">
        <ele>145.7</ele>
        <time>2023-08-16T08:53:47Z</time>
      </trkpt>
      <trkpt lat="49.77246" lon="2.21733">
        <ele>145.8</ele>
        <time>2023-08-16T08:53:48Z</time>
      </trkpt>
      <trkpt lat="49.77246" lon="2.21732">
        <ele>145.8</ele>
        <time>2023-08-16T08:53:49Z</time>
      </trkpt>
      <trkpt lat="49.77247" lon="2.2173">
        <ele>145.8</ele>
        <time>2023-08-16T08:53:50Z</time>
      </trkpt>
      <trkpt lat="49.77247" lon="2.21729">
        <ele>145.9</ele>
        <time>2023-08-16T08:53:52Z</time>
      </trkpt>
      <trkpt lat="49.77248" lon="2.21726">
        <ele>145.9</ele>
        <time>2023-08-16T08:53:53Z</time>
      </trkpt>
      <trkpt lat="49.77248" lon="2.21724">
        <ele>145.9</ele>
        <time>2023-08-16T08:53:55Z</time>
      </trkpt>
      <trkpt lat="49.77248" lon="2.21722">
        <ele>145.9</ele>
        <time>2023-08-16T08:53:56Z</time>
      </trkpt>
      <trkpt lat="49.77248" lon="2.21721">
        <ele>146</ele>
        <time>2023-08-16T08:53:57Z</time>
      </trkpt>
      <trkpt lat="49.77249" lon="2.21719">
        <ele>146</ele>
        <time>2023-08-16T08:53:58Z</time>
      </trkpt>
      <trkpt lat="49.77249" lon="2.21717">
        <ele>146</ele>
        <time>2023-08-16T08:53:59Z</time>
      </trkpt>
      <trkpt lat="49.77249" lon="2.21715">
        <ele>146</ele>
        <time>2023-08-16T08:54:01Z</time>
      </trkpt>
      <trkpt lat="49.7725" lon="2.21713">
        <ele>146</ele>
        <time>2023-08-16T08:54:02Z</time>
      </trkpt>
      <trkpt lat="49.7725" lon="2.21712">
        <ele>146.1</ele>
        <time>2023-08-16T08:54:03Z</time>
      </trkpt>
      <trkpt lat="49.7725" lon="2.21712">
        <ele>146.1</ele>
        <time>2023-08-16T08:54:04Z</time>
      </trkpt>
      <trkpt lat="49.77251" lon="2.2171">
        <ele>146.1</ele>
        <time>2023-08-16T08:54:05Z</time>
      </trkpt>
      <trkpt lat="49.77252" lon="2.21707">
        <ele>146.1</ele>
        <time>2023-08-16T08:54:06Z</time>
      </trkpt>
      <trkpt lat="49.77252" lon="2.21706">
        <ele>146.1</ele>
        <time>2023-08-16T08:54:08Z</time>
      </trkpt>
      <trkpt lat="49.77253" lon="2.21705">
        <ele>146.1</ele>
        <time>2023-08-16T08:54:09Z</time>
      </trkpt>
      <trkpt lat="49.77253" lon="2.21703">
        <ele>146.1</ele>
        <time>2023-08-16T08:54:10Z</time>
      </trkpt>
      <trkpt lat="49.77253" lon="2.21702">
        <ele>146.2</ele>
        <time>2023-08-16T08:54:11Z</time>
      </trkpt>
      <trkpt lat="49.77253" lon="2.21701">
        <ele>146.2</ele>
        <time>2023-08-16T08:54:12Z</time>
      </trkpt>
      <trkpt lat="49.77254" lon="2.21699">
        <ele>146.2</ele>
        <time>2023-08-16T08:54:14Z</time>
      </trkpt>
      <trkpt lat="49.77254" lon="2.21698">
        <ele>146.2</ele>
        <time>2023-08-16T08:54:15Z</time>
      </trkpt>
      <trkpt lat="49.77255" lon="2.21696">
        <ele>146.2</ele>
        <time>2023-08-16T08:54:16Z</time>
      </trkpt>
      <trkpt lat="49.77255" lon="2.21695">
        <ele>146.2</ele>
        <time>2023-08-16T08:54:17Z</time>
      </trkpt>
      <trkpt lat="49.77256" lon="2.21694">
        <ele>146.2</ele>
        <time>2023-08-16T08:54:19Z</time>
      </trkpt>
      <trkpt lat="49.77256" lon="2.21693">
        <ele>146.2</ele>
        <time>2023-08-16T08:54:20Z</time>
      </trkpt>
      <trkpt lat="49.77256" lon="2.21692">
        <ele>146.2</ele>
        <time>2023-08-16T08:54:21Z</time>
      </trkpt>
      <trkpt lat="49.77257" lon="2.2169">
        <ele>146.3</ele>
        <time>2023-08-16T08:54:23Z</time>
      </trkpt>
      <trkpt lat="49.77257" lon="2.21688">
        <ele>146.3</ele>
        <time>2023-08-16T08:54:24Z</time>
      </trkpt>
      <trkpt lat="49.77257" lon="2.21687">
        <ele>146.3</ele>
        <time>2023-08-16T08:54:26Z</time>
      </trkpt>
      <trkpt lat="49.77257" lon="2.21685">
        <ele>146.3</ele>
        <time>2023-08-16T08:54:27Z</time>
      </trkpt>
      <trkpt lat="49.77258" lon="2.21683">
        <ele>146.3</ele>
        <time>2023-08-16T08:54:28Z</time>
      </trkpt>
      <trkpt lat="49.77258" lon="2.21682">
        <ele>146.4</ele>
        <time>2023-08-16T08:54:29Z</time>
      </trkpt>
      <trkpt lat="49.77258" lon="2.21681">
        <ele>146.4</ele>
        <time>2023-08-16T08:54:30Z</time>
      </trkpt>
      <trkpt lat="49.77258" lon="2.2168">
        <ele>146.4</ele>
        <time>2023-08-16T08:54:31Z</time>
      </trkpt>
      <trkpt lat="49.77259" lon="2.21677">
        <ele>146.4</ele>
        <time>2023-08-16T08:54:32Z</time>
      </trkpt>
      <trkpt lat="49.77259" lon="2.21675">
        <ele>146.4</ele>
        <time>2023-08-16T08:54:34Z</time>
      </trkpt>
      <trkpt lat="49.7726" lon="2.21674">
        <ele>146.4</ele>
        <time>2023-08-16T08:54:35Z</time>
      </trkpt>
      <trkpt lat="49.7726" lon="2.21672">
        <ele>146.5</ele>
        <time>2023-08-16T08:54:36Z</time>
      </trkpt>
      <trkpt lat="49.77261" lon="2.2167">
        <ele>146.5</ele>
        <time>2023-08-16T08:54:37Z</time>
      </trkpt>
      <trkpt lat="49.77261" lon="2.21668">
        <ele>146.5</ele>
        <time>2023-08-16T08:54:39Z</time>
      </trkpt>
      <trkpt lat="49.77262" lon="2.21665">
        <ele>146.6</ele>
        <time>2023-08-16T08:54:40Z</time>
      </trkpt>
      <trkpt lat="49.77263" lon="2.21664">
        <ele>146.6</ele>
        <time>2023-08-16T08:54:41Z</time>
      </trkpt>
      <trkpt lat="49.77264" lon="2.21662">
        <ele>146.6</ele>
        <time>2023-08-16T08:54:42Z</time>
      </trkpt>
      <trkpt lat="49.77265" lon="2.2166">
        <ele>146.6</ele>
        <time>2023-08-16T08:54:44Z</time>
      </trkpt>
      <trkpt lat="49.77266" lon="2.21658">
        <ele>146.7</ele>
        <time>2023-08-16T08:54:45Z</time>
      </trkpt>
      <trkpt lat="49.77267" lon="2.21656">
        <ele>146.7</ele>
        <time>2023-08-16T08:54:46Z</time>
      </trkpt>
      <trkpt lat="49.77267" lon="2.21654">
        <ele>146.8</ele>
        <time>2023-08-16T08:54:47Z</time>
      </trkpt>
      <trkpt lat="49.77268" lon="2.21653">
        <ele>146.8</ele>
        <time>2023-08-16T08:54:48Z</time>
      </trkpt>
      <trkpt lat="49.77268" lon="2.21652">
        <ele>146.8</ele>
        <time>2023-08-16T08:54:49Z</time>
      </trkpt>
      <trkpt lat="49.77268" lon="2.21651">
        <ele>146.8</ele>
        <time>2023-08-16T08:54:50Z</time>
      </trkpt>
      <trkpt lat="49.77269" lon="2.21649">
        <ele>146.8</ele>
        <time>2023-08-16T08:54:52Z</time>
      </trkpt>
      <trkpt lat="49.77269" lon="2.21647">
        <ele>146.9</ele>
        <time>2023-08-16T08:54:53Z</time>
      </trkpt>
      <trkpt lat="49.7727" lon="2.21646">
        <ele>146.9</ele>
        <time>2023-08-16T08:54:54Z</time>
      </trkpt>
      <trkpt lat="49.7727" lon="2.21645">
        <ele>146.9</ele>
        <time>2023-08-16T08:54:55Z</time>
      </trkpt>
      <trkpt lat="49.77271" lon="2.21644">
        <ele>146.9</ele>
        <time>2023-08-16T08:54:56Z</time>
      </trkpt>
      <trkpt lat="49.77271" lon="2.21643">
        <ele>146.9</ele>
        <time>2023-08-16T08:54:57Z</time>
      </trkpt>
      <trkpt lat="49.77272" lon="2.21641">
        <ele>146.9</ele>
        <time>2023-08-16T08:54:59Z</time>
      </trkpt>
      <trkpt lat="49.77272" lon="2.2164">
        <ele>146.9</ele>
        <time>2023-08-16T08:55:00Z</time>
      </trkpt>
      <trkpt lat="49.77272" lon="2.21638">
        <ele>147</ele>
        <time>2023-08-16T08:55:01Z</time>
      </trkpt>
      <trkpt lat="49.77273" lon="2.21637">
        <ele>147</ele>
        <time>2023-08-16T08:55:03Z</time>
      </trkpt>
      <trkpt lat="49.77273" lon="2.21636">
        <ele>147</ele>
        <time>2023-08-16T08:55:04Z</time>
      </trkpt>
      <trkpt lat="49.77274" lon="2.21635">
        <ele>147</ele>
        <time>2023-08-16T08:55:05Z</time>
      </trkpt>
      <trkpt lat="49.77274" lon="2.21633">
        <ele>147</ele>
        <time>2023-08-16T08:55:06Z</time>
      </trkpt>
      <trkpt lat="49.77275" lon="2.2163">
        <ele>147.1</ele>
        <time>2023-08-16T08:55:07Z</time>
      </trkpt>
      <trkpt lat="49.77275" lon="2.21629">
        <ele>147.1</ele>
        <time>2023-08-16T08:55:09Z</time>
      </trkpt>
      <trkpt lat="49.77275" lon="2.21627">
        <ele>147.1</ele>
        <time>2023-08-16T08:55:10Z</time>
      </trkpt>
      <trkpt lat="49.77276" lon="2.21626">
        <ele>147.1</ele>
        <time>2023-08-16T08:55:12Z</time>
      </trkpt>
      <trkpt lat="49.77277" lon="2.21623">
        <ele>147.1</ele>
        <time>2023-08-16T08:55:13Z</time>
      </trkpt>
      <trkpt lat="49.77277" lon="2.21622">
        <ele>147.2</ele>
        <time>2023-08-16T08:55:14Z</time>
      </trkpt>
      <trkpt lat="49.77277" lon="2.21621">
        <ele>147.2</ele>
        <time>2023-08-16T08:55:16Z</time>
      </trkpt>
      <trkpt lat="49.77278" lon="2.21619">
        <ele>147.2</ele>
        <time>2023-08-16T08:55:17Z</time>
      </trkpt>
      <trkpt lat="49.77278" lon="2.21618">
        <ele>147.2</ele>
        <time>2023-08-16T08:55:18Z</time>
      </trkpt>
      <trkpt lat="49.77278" lon="2.21616">
        <ele>147.2</ele>
        <time>2023-08-16T08:55:20Z</time>
      </trkpt>
      <trkpt lat="49.77279" lon="2.21615">
        <ele>147.2</ele>
        <time>2023-08-16T08:55:21Z</time>
      </trkpt>
      <trkpt lat="49.77279" lon="2.21613">
        <ele>147.2</ele>
        <time>2023-08-16T08:55:22Z</time>
      </trkpt>
      <trkpt lat="49.77279" lon="2.21612">
        <ele>147.2</ele>
        <time>2023-08-16T08:55:23Z</time>
      </trkpt>
      <trkpt lat="49.77279" lon="2.2161">
        <ele>147.3</ele>
        <time>2023-08-16T08:55:24Z</time>
      </trkpt>
      <trkpt lat="49.7728" lon="2.21609">
        <ele>147.3</ele>
        <time>2023-08-16T08:55:25Z</time>
      </trkpt>
      <trkpt lat="49.77281" lon="2.21608">
        <ele>147.3</ele>
        <time>2023-08-16T08:55:26Z</time>
      </trkpt>
      <trkpt lat="49.77282" lon="2.21606">
        <ele>147.3</ele>
        <time>2023-08-16T08:55:28Z</time>
      </trkpt>
      <trkpt lat="49.77282" lon="2.21605">
        <ele>147.3</ele>
        <time>2023-08-16T08:55:29Z</time>
      </trkpt>
      <trkpt lat="49.77282" lon="2.21604">
        <ele>147.3</ele>
        <time>2023-08-16T08:55:30Z</time>
      </trkpt>
      <trkpt lat="49.77283" lon="2.21602">
        <ele>147.3</ele>
        <time>2023-08-16T08:55:32Z</time>
      </trkpt>
      <trkpt lat="49.77283" lon="2.21601">
        <ele>147.3</ele>
        <time>2023-08-16T08:55:33Z</time>
      </trkpt>
      <trkpt lat="49.77284" lon="2.21599">
        <ele>147.3</ele>
        <time>2023-08-16T08:55:34Z</time>
      </trkpt>
      <trkpt lat="49.77284" lon="2.21598">
        <ele>147.4</ele>
        <time>2023-08-16T08:55:35Z</time>
      </trkpt>
      <trkpt lat="49.77285" lon="2.21596">
        <ele>147.4</ele>
        <time>2023-08-16T08:55:36Z</time>
      </trkpt>
      <trkpt lat="49.77285" lon="2.21595">
        <ele>147.4</ele>
        <time>2023-08-16T08:55:37Z</time>
      </trkpt>
      <trkpt lat="49.77285" lon="2.21593">
        <ele>147.4</ele>
        <time>2023-08-16T08:55:39Z</time>
      </trkpt>
      <trkpt lat="49.77285" lon="2.21591">
        <ele>147.4</ele>
        <time>2023-08-16T08:55:40Z</time>
      </trkpt>
      <trkpt lat="49.77286" lon="2.2159">
        <ele>147.4</ele>
        <time>2023-08-16T08:55:41Z</time>
      </trkpt>
      <trkpt lat="49.77286" lon="2.21588">
        <ele>147.4</ele>
        <time>2023-08-16T08:55:42Z</time>
      </trkpt>
      <trkpt lat="49.77286" lon="2.21587">
        <ele>147.4</ele>
        <time>2023-08-16T08:55:43Z</time>
      </trkpt>
      <trkpt lat="49.77287" lon="2.21584">
        <ele>147.4</ele>
        <time>2023-08-16T08:55:45Z</time>
      </trkpt>
      <trkpt lat="49.77287" lon="2.21582">
        <ele>147.5</ele>
        <time>2023-08-16T08:55:46Z</time>
      </trkpt>
      <trkpt lat="49.77287" lon="2.21581">
        <ele>147.5</ele>
        <time>2023-08-16T08:55:47Z</time>
      </trkpt>
      <trkpt lat="49.77288" lon="2.21579">
        <ele>147.5</ele>
        <time>2023-08-16T08:55:49Z</time>
      </trkpt>
      <trkpt lat="49.77289" lon="2.21577">
        <ele>147.5</ele>
        <time>2023-08-16T08:55:50Z</time>
      </trkpt>
      <trkpt lat="49.77289" lon="2.21576">
        <ele>147.5</ele>
        <time>2023-08-16T08:55:51Z</time>
      </trkpt>
      <trkpt lat="49.7729" lon="2.21574">
        <ele>147.5</ele>
        <time>2023-08-16T08:55:52Z</time>
      </trkpt>
      <trkpt lat="49.7729" lon="2.21572">
        <ele>147.5</ele>
        <time>2023-08-16T08:55:53Z</time>
      </trkpt>
      <trkpt lat="49.77291" lon="2.21569">
        <ele>147.6</ele>
        <time>2023-08-16T08:55:54Z</time>
      </trkpt>
      <trkpt lat="49.77291" lon="2.21567">
        <ele>147.6</ele>
        <time>2023-08-16T08:55:56Z</time>
      </trkpt>
      <trkpt lat="49.77292" lon="2.21566">
        <ele>147.6</ele>
        <time>2023-08-16T08:55:57Z</time>
      </trkpt>
      <trkpt lat="49.77292" lon="2.21564">
        <ele>147.6</ele>
        <time>2023-08-16T08:55:58Z</time>
      </trkpt>
      <trkpt lat="49.77293" lon="2.21562">
        <ele>147.6</ele>
        <time>2023-08-16T08:56:00Z</time>
      </trkpt>
      <trkpt lat="49.77293" lon="2.21561">
        <ele>147.7</ele>
        <time>2023-08-16T08:56:01Z</time>
      </trkpt>
      <trkpt lat="49.77294" lon="2.21559">
        <ele>147.7</ele>
        <time>2023-08-16T08:56:02Z</time>
      </trkpt>
      <trkpt lat="49.77294" lon="2.21557">
        <ele>147.7</ele>
        <time>2023-08-16T08:56:03Z</time>
      </trkpt>
      <trkpt lat="49.77295" lon="2.21555">
        <ele>147.7</ele>
        <time>2023-08-16T08:56:05Z</time>
      </trkpt>
      <trkpt lat="49.77295" lon="2.21553">
        <ele>147.7</ele>
        <time>2023-08-16T08:56:06Z</time>
      </trkpt>
      <trkpt lat="49.77296" lon="2.21552">
        <ele>147.8</ele>
        <time>2023-08-16T08:56:07Z</time>
      </trkpt>
      <trkpt lat="49.77296" lon="2.2155">
        <ele>147.8</ele>
        <time>2023-08-16T08:56:08Z</time>
      </trkpt>
      <trkpt lat="49.77297" lon="2.21549">
        <ele>147.8</ele>
        <time>2023-08-16T08:56:09Z</time>
      </trkpt>
      <trkpt lat="49.77297" lon="2.21548">
        <ele>147.8</ele>
        <time>2023-08-16T08:56:10Z</time>
      </trkpt>
      <trkpt lat="49.77298" lon="2.21544">
        <ele>147.8</ele>
        <time>2023-08-16T08:56:12Z</time>
      </trkpt>
      <trkpt lat="49.77298" lon="2.21543">
        <ele>147.8</ele>
        <time>2023-08-16T08:56:13Z</time>
      </trkpt>
      <trkpt lat="49.77298" lon="2.21542">
        <ele>147.8</ele>
        <time>2023-08-16T08:56:14Z</time>
      </trkpt>
      <trkpt lat="49.77299" lon="2.21541">
        <ele>147.8</ele>
        <time>2023-08-16T08:56:15Z</time>
      </trkpt>
      <trkpt lat="49.77299" lon="2.21539">
        <ele>147.8</ele>
        <time>2023-08-16T08:56:16Z</time>
      </trkpt>
      <trkpt lat="49.773" lon="2.21538">
        <ele>147.8</ele>
        <time>2023-08-16T08:56:17Z</time>
      </trkpt>
      <trkpt lat="49.773" lon="2.21535">
        <ele>147.9</ele>
        <time>2023-08-16T08:56:19Z</time>
      </trkpt>
      <trkpt lat="49.77301" lon="2.21533">
        <ele>147.9</ele>
        <time>2023-08-16T08:56:20Z</time>
      </trkpt>
      <trkpt lat="49.77301" lon="2.21532">
        <ele>147.9</ele>
        <time>2023-08-16T08:56:21Z</time>
      </trkpt>
      <trkpt lat="49.77301" lon="2.21531">
        <ele>147.9</ele>
        <time>2023-08-16T08:56:22Z</time>
      </trkpt>
      <trkpt lat="49.77302" lon="2.21529">
        <ele>147.9</ele>
        <time>2023-08-16T08:56:24Z</time>
      </trkpt>
      <trkpt lat="49.77302" lon="2.21527">
        <ele>147.9</ele>
        <time>2023-08-16T08:56:25Z</time>
      </trkpt>
      <trkpt lat="49.77302" lon="2.21526">
        <ele>147.9</ele>
        <time>2023-08-16T08:56:26Z</time>
      </trkpt>
      <trkpt lat="49.77302" lon="2.21524">
        <ele>147.9</ele>
        <time>2023-08-16T08:56:27Z</time>
      </trkpt>
      <trkpt lat="49.77303" lon="2.21522">
        <ele>147.9</ele>
        <time>2023-08-16T08:56:28Z</time>
      </trkpt>
      <trkpt lat="49.77303" lon="2.2152">
        <ele>147.9</ele>
        <time>2023-08-16T08:56:29Z</time>
      </trkpt>
      <trkpt lat="49.77303" lon="2.21518">
        <ele>147.9</ele>
        <time>2023-08-16T08:56:31Z</time>
      </trkpt>
      <trkpt lat="49.77304" lon="2.21517">
        <ele>147.9</ele>
        <time>2023-08-16T08:56:32Z</time>
      </trkpt>
      <trkpt lat="49.77304" lon="2.21514">
        <ele>147.9</ele>
        <time>2023-08-16T08:56:33Z</time>
      </trkpt>
      <trkpt lat="49.77304" lon="2.21512">
        <ele>147.9</ele>
        <time>2023-08-16T08:56:35Z</time>
      </trkpt>
      <trkpt lat="49.77304" lon="2.21511">
        <ele>147.9</ele>
        <time>2023-08-16T08:56:36Z</time>
      </trkpt>
      <trkpt lat="49.77305" lon="2.21509">
        <ele>147.9</ele>
        <time>2023-08-16T08:56:37Z</time>
      </trkpt>
      <trkpt lat="49.77305" lon="2.21508">
        <ele>148</ele>
        <time>2023-08-16T08:56:39Z</time>
      </trkpt>
      <trkpt lat="49.77305" lon="2.21506">
        <ele>148</ele>
        <time>2023-08-16T08:56:40Z</time>
      </trkpt>
      <trkpt lat="49.77306" lon="2.21504">
        <ele>148</ele>
        <time>2023-08-16T08:56:41Z</time>
      </trkpt>
      <trkpt lat="49.77306" lon="2.21502">
        <ele>148</ele>
        <time>2023-08-16T08:56:42Z</time>
      </trkpt>
      <trkpt lat="49.77307" lon="2.21501">
        <ele>148</ele>
        <time>2023-08-16T08:56:43Z</time>
      </trkpt>
      <trkpt lat="49.77307" lon="2.21499">
        <ele>148</ele>
        <time>2023-08-16T08:56:44Z</time>
      </trkpt>
      <trkpt lat="49.77308" lon="2.21498">
        <ele>148</ele>
        <time>2023-08-16T08:56:45Z</time>
      </trkpt>
      <trkpt lat="49.77309" lon="2.21496">
        <ele>148</ele>
        <time>2023-08-16T08:56:47Z</time>
      </trkpt>
      <trkpt lat="49.77309" lon="2.21494">
        <ele>148</ele>
        <time>2023-08-16T08:56:48Z</time>
      </trkpt>
      <trkpt lat="49.7731" lon="2.21492">
        <ele>148</ele>
        <time>2023-08-16T08:56:49Z</time>
      </trkpt>
      <trkpt lat="49.7731" lon="2.21491">
        <ele>148</ele>
        <time>2023-08-16T08:56:50Z</time>
      </trkpt>
      <trkpt lat="49.77311" lon="2.2149">
        <ele>148</ele>
        <time>2023-08-16T08:56:51Z</time>
      </trkpt>
      <trkpt lat="49.77312" lon="2.21488">
        <ele>148</ele>
        <time>2023-08-16T08:56:52Z</time>
      </trkpt>
      <trkpt lat="49.77313" lon="2.21486">
        <ele>148</ele>
        <time>2023-08-16T08:56:54Z</time>
      </trkpt>
      <trkpt lat="49.77313" lon="2.21485">
        <ele>148</ele>
        <time>2023-08-16T08:56:55Z</time>
      </trkpt>
      <trkpt lat="49.77314" lon="2.21483">
        <ele>148</ele>
        <time>2023-08-16T08:56:56Z</time>
      </trkpt>
      <trkpt lat="49.77315" lon="2.21481">
        <ele>148</ele>
        <time>2023-08-16T08:56:57Z</time>
      </trkpt>
      <trkpt lat="49.77316" lon="2.2148">
        <ele>148</ele>
        <time>2023-08-16T08:56:58Z</time>
      </trkpt>
      <trkpt lat="49.77317" lon="2.21478">
        <ele>147.9</ele>
        <time>2023-08-16T08:56:59Z</time>
      </trkpt>
      <trkpt lat="49.77318" lon="2.21476">
        <ele>147.9</ele>
        <time>2023-08-16T08:57:01Z</time>
      </trkpt>
      <trkpt lat="49.77318" lon="2.21474">
        <ele>147.9</ele>
        <time>2023-08-16T08:57:02Z</time>
      </trkpt>
      <trkpt lat="49.77318" lon="2.21473">
        <ele>147.9</ele>
        <time>2023-08-16T08:57:03Z</time>
      </trkpt>
      <trkpt lat="49.77318" lon="2.21472">
        <ele>147.9</ele>
        <time>2023-08-16T08:57:04Z</time>
      </trkpt>
      <trkpt lat="49.77319" lon="2.21472">
        <ele>147.9</ele>
        <time>2023-08-16T08:57:05Z</time>
      </trkpt>
      <trkpt lat="49.77319" lon="2.21472">
        <ele>147.9</ele>
        <time>2023-08-16T08:57:06Z</time>
      </trkpt>
      <trkpt lat="49.77319" lon="2.21471">
        <ele>147.9</ele>
        <time>2023-08-16T08:57:07Z</time>
      </trkpt>
      <trkpt lat="49.7732" lon="2.2147">
        <ele>147.9</ele>
        <time>2023-08-16T08:57:08Z</time>
      </trkpt>
      <trkpt lat="49.7732" lon="2.21469">
        <ele>147.9</ele>
        <time>2023-08-16T08:57:10Z</time>
      </trkpt>
      <trkpt lat="49.7732" lon="2.21468">
        <ele>147.9</ele>
        <time>2023-08-16T08:57:11Z</time>
      </trkpt>
      <trkpt lat="49.77321" lon="2.21467">
        <ele>147.9</ele>
        <time>2023-08-16T08:57:12Z</time>
      </trkpt>
      <trkpt lat="49.77321" lon="2.21466">
        <ele>147.9</ele>
        <time>2023-08-16T08:57:14Z</time>
      </trkpt>
      <trkpt lat="49.77321" lon="2.21465">
        <ele>147.9</ele>
        <time>2023-08-16T08:57:15Z</time>
      </trkpt>
      <trkpt lat="49.77321" lon="2.21464">
        <ele>147.9</ele>
        <time>2023-08-16T08:57:16Z</time>
      </trkpt>
      <trkpt lat="49.77322" lon="2.21461">
        <ele>147.9</ele>
        <time>2023-08-16T08:57:18Z</time>
      </trkpt>
      <trkpt lat="49.77322" lon="2.2146">
        <ele>147.9</ele>
        <time>2023-08-16T08:57:19Z</time>
      </trkpt>
      <trkpt lat="49.77323" lon="2.21458">
        <ele>147.9</ele>
        <time>2023-08-16T08:57:21Z</time>
      </trkpt>
      <trkpt lat="49.77323" lon="2.21456">
        <ele>147.9</ele>
        <time>2023-08-16T08:57:22Z</time>
      </trkpt>
      <trkpt lat="49.77323" lon="2.21455">
        <ele>147.9</ele>
        <time>2023-08-16T08:57:23Z</time>
      </trkpt>
      <trkpt lat="49.77324" lon="2.21454">
        <ele>147.9</ele>
        <time>2023-08-16T08:57:24Z</time>
      </trkpt>
      <trkpt lat="49.77324" lon="2.21453">
        <ele>147.9</ele>
        <time>2023-08-16T08:57:25Z</time>
      </trkpt>
      <trkpt lat="49.77324" lon="2.21451">
        <ele>147.9</ele>
        <time>2023-08-16T08:57:26Z</time>
      </trkpt>
      <trkpt lat="49.77324" lon="2.2145">
        <ele>147.9</ele>
        <time>2023-08-16T08:57:27Z</time>
      </trkpt>
      <trkpt lat="49.77325" lon="2.21449">
        <ele>147.9</ele>
        <time>2023-08-16T08:57:29Z</time>
      </trkpt>
      <trkpt lat="49.77325" lon="2.21447">
        <ele>147.9</ele>
        <time>2023-08-16T08:57:30Z</time>
      </trkpt>
      <trkpt lat="49.77325" lon="2.21446">
        <ele>147.9</ele>
        <time>2023-08-16T08:57:31Z</time>
      </trkpt>
      <trkpt lat="49.77326" lon="2.21444">
        <ele>147.9</ele>
        <time>2023-08-16T08:57:32Z</time>
      </trkpt>
      <trkpt lat="49.77326" lon="2.21442">
        <ele>147.9</ele>
        <time>2023-08-16T08:57:33Z</time>
      </trkpt>
      <trkpt lat="49.77326" lon="2.21441">
        <ele>147.9</ele>
        <time>2023-08-16T08:57:34Z</time>
      </trkpt>
      <trkpt lat="49.77326" lon="2.21438">
        <ele>147.9</ele>
        <time>2023-08-16T08:57:36Z</time>
      </trkpt>
      <trkpt lat="49.77327" lon="2.21437">
        <ele>147.9</ele>
        <time>2023-08-16T08:57:37Z</time>
      </trkpt>
      <trkpt lat="49.77327" lon="2.21436">
        <ele>147.9</ele>
        <time>2023-08-16T08:57:38Z</time>
      </trkpt>
      <trkpt lat="49.77328" lon="2.21434">
        <ele>147.9</ele>
        <time>2023-08-16T08:57:40Z</time>
      </trkpt>
      <trkpt lat="49.77328" lon="2.21433">
        <ele>147.9</ele>
        <time>2023-08-16T08:57:41Z</time>
      </trkpt>
      <trkpt lat="49.77328" lon="2.21431">
        <ele>147.9</ele>
        <time>2023-08-16T08:57:42Z</time>
      </trkpt>
      <trkpt lat="49.77329" lon="2.21429">
        <ele>147.9</ele>
        <time>2023-08-16T08:57:43Z</time>
      </trkpt>
      <trkpt lat="49.77329" lon="2.21427">
        <ele>147.9</ele>
        <time>2023-08-16T08:57:44Z</time>
      </trkpt>
      <trkpt lat="49.7733" lon="2.21426">
        <ele>147.9</ele>
        <time>2023-08-16T08:57:45Z</time>
      </trkpt>
      <trkpt lat="49.7733" lon="2.21424">
        <ele>147.9</ele>
        <time>2023-08-16T08:57:47Z</time>
      </trkpt>
      <trkpt lat="49.7733" lon="2.21423">
        <ele>147.9</ele>
        <time>2023-08-16T08:57:48Z</time>
      </trkpt>
      <trkpt lat="49.77331" lon="2.21421">
        <ele>147.9</ele>
        <time>2023-08-16T08:57:49Z</time>
      </trkpt>
      <trkpt lat="49.77331" lon="2.21419">
        <ele>147.9</ele>
        <time>2023-08-16T08:57:50Z</time>
      </trkpt>
      <trkpt lat="49.77332" lon="2.21418">
        <ele>147.9</ele>
        <time>2023-08-16T08:57:51Z</time>
      </trkpt>
      <trkpt lat="49.77332" lon="2.21416">
        <ele>147.9</ele>
        <time>2023-08-16T08:57:52Z</time>
      </trkpt>
      <trkpt lat="49.77333" lon="2.21414">
        <ele>147.8</ele>
        <time>2023-08-16T08:57:54Z</time>
      </trkpt>
      <trkpt lat="49.77333" lon="2.21413">
        <ele>147.8</ele>
        <time>2023-08-16T08:57:55Z</time>
      </trkpt>
      <trkpt lat="49.77334" lon="2.21411">
        <ele>147.8</ele>
        <time>2023-08-16T08:57:56Z</time>
      </trkpt>
      <trkpt lat="49.77334" lon="2.2141">
        <ele>147.8</ele>
        <time>2023-08-16T08:57:57Z</time>
      </trkpt>
      <trkpt lat="49.77335" lon="2.21408">
        <ele>147.8</ele>
        <time>2023-08-16T08:57:58Z</time>
      </trkpt>
      <trkpt lat="49.77335" lon="2.21406">
        <ele>147.8</ele>
        <time>2023-08-16T08:57:59Z</time>
      </trkpt>
      <trkpt lat="49.77334" lon="2.21406">
        <ele>147.8</ele>
        <time>2023-08-16T08:58:00Z</time>
      </trkpt>
      <trkpt lat="49.77334" lon="2.21405">
        <ele>147.8</ele>
        <time>2023-08-16T08:58:02Z</time>
      </trkpt>
      <trkpt lat="49.77334" lon="2.21406">
        <ele>147.8</ele>
        <time>2023-08-16T08:58:03Z</time>
      </trkpt>
      <trkpt lat="49.77334" lon="2.21406">
        <ele>147.8</ele>
        <time>2023-08-16T08:58:04Z</time>
      </trkpt>
      <trkpt lat="49.77334" lon="2.21405">
        <ele>147.8</ele>
        <time>2023-08-16T08:58:06Z</time>
      </trkpt>
      <trkpt lat="49.77335" lon="2.21404">
        <ele>147.7</ele>
        <time>2023-08-16T08:58:07Z</time>
      </trkpt>
      <trkpt lat="49.77335" lon="2.21402">
        <ele>147.7</ele>
        <time>2023-08-16T08:58:08Z</time>
      </trkpt>
      <trkpt lat="49.77335" lon="2.21401">
        <ele>147.7</ele>
        <time>2023-08-16T08:58:10Z</time>
      </trkpt>
      <trkpt lat="49.77335" lon="2.21399">
        <ele>147.7</ele>
        <time>2023-08-16T08:58:11Z</time>
      </trkpt>
      <trkpt lat="49.77335" lon="2.21397">
        <ele>147.7</ele>
        <time>2023-08-16T08:58:12Z</time>
      </trkpt>
      <trkpt lat="49.77335" lon="2.21395">
        <ele>147.7</ele>
        <time>2023-08-16T08:58:14Z</time>
      </trkpt>
      <trkpt lat="49.77334" lon="2.21393">
        <ele>147.7</ele>
        <time>2023-08-16T08:58:15Z</time>
      </trkpt>
      <trkpt lat="49.77334" lon="2.21392">
        <ele>147.7</ele>
        <time>2023-08-16T08:58:17Z</time>
      </trkpt>
      <trkpt lat="49.77334" lon="2.2139">
        <ele>147.7</ele>
        <time>2023-08-16T08:58:18Z</time>
      </trkpt>
      <trkpt lat="49.77335" lon="2.21389">
        <ele>147.6</ele>
        <time>2023-08-16T08:58:19Z</time>
      </trkpt>
      <trkpt lat="49.77335" lon="2.21388">
        <ele>147.6</ele>
        <time>2023-08-16T08:58:21Z</time>
      </trkpt>
      <trkpt lat="49.77336" lon="2.21387">
        <ele>147.6</ele>
        <time>2023-08-16T08:58:22Z</time>
      </trkpt>
      <trkpt lat="49.77336" lon="2.21387">
        <ele>147.6</ele>
        <time>2023-08-16T08:58:23Z</time>
      </trkpt>
      <trkpt lat="49.77337" lon="2.21386">
        <ele>147.6</ele>
        <time>2023-08-16T08:58:24Z</time>
      </trkpt>
      <trkpt lat="49.77337" lon="2.21385">
        <ele>147.6</ele>
        <time>2023-08-16T08:58:26Z</time>
      </trkpt>
      <trkpt lat="49.77338" lon="2.21383">
        <ele>147.6</ele>
        <time>2023-08-16T08:58:27Z</time>
      </trkpt>
      <trkpt lat="49.77339" lon="2.21382">
        <ele>147.6</ele>
        <time>2023-08-16T08:58:28Z</time>
      </trkpt>
      <trkpt lat="49.77339" lon="2.21382">
        <ele>147.6</ele>
        <time>2023-08-16T08:58:29Z</time>
      </trkpt>
      <trkpt lat="49.7734" lon="2.21381">
        <ele>147.6</ele>
        <time>2023-08-16T08:58:30Z</time>
      </trkpt>
      <trkpt lat="49.7734" lon="2.2138">
        <ele>147.6</ele>
        <time>2023-08-16T08:58:31Z</time>
      </trkpt>
      <trkpt lat="49.77341" lon="2.2138">
        <ele>147.6</ele>
        <time>2023-08-16T08:58:33Z</time>
      </trkpt>
      <trkpt lat="49.77341" lon="2.21379">
        <ele>147.6</ele>
        <time>2023-08-16T08:58:34Z</time>
      </trkpt>
      <trkpt lat="49.77341" lon="2.21378">
        <ele>147.6</ele>
        <time>2023-08-16T08:58:35Z</time>
      </trkpt>
      <trkpt lat="49.77342" lon="2.21376">
        <ele>147.5</ele>
        <time>2023-08-16T08:58:36Z</time>
      </trkpt>
      <trkpt lat="49.77342" lon="2.21375">
        <ele>147.5</ele>
        <time>2023-08-16T08:58:37Z</time>
      </trkpt>
      <trkpt lat="49.77342" lon="2.21373">
        <ele>147.5</ele>
        <time>2023-08-16T08:58:38Z</time>
      </trkpt>
      <trkpt lat="49.77343" lon="2.21372">
        <ele>147.5</ele>
        <time>2023-08-16T08:58:39Z</time>
      </trkpt>
      <trkpt lat="49.77343" lon="2.2137">
        <ele>147.5</ele>
        <time>2023-08-16T08:58:41Z</time>
      </trkpt>
      <trkpt lat="49.77344" lon="2.21369">
        <ele>147.5</ele>
        <time>2023-08-16T08:58:42Z</time>
      </trkpt>
      <trkpt lat="49.77344" lon="2.21367">
        <ele>147.5</ele>
        <time>2023-08-16T08:58:43Z</time>
      </trkpt>
      <trkpt lat="49.77345" lon="2.21366">
        <ele>147.5</ele>
        <time>2023-08-16T08:58:44Z</time>
      </trkpt>
      <trkpt lat="49.77345" lon="2.21364">
        <ele>147.5</ele>
        <time>2023-08-16T08:58:45Z</time>
      </trkpt>
      <trkpt lat="49.77345" lon="2.21363">
        <ele>147.5</ele>
        <time>2023-08-16T08:58:46Z</time>
      </trkpt>
      <trkpt lat="49.77346" lon="2.21362">
        <ele>147.5</ele>
        <time>2023-08-16T08:58:47Z</time>
      </trkpt>
      <trkpt lat="49.77346" lon="2.21361">
        <ele>147.5</ele>
        <time>2023-08-16T08:58:49Z</time>
      </trkpt>
      <trkpt lat="49.77346" lon="2.2136">
        <ele>147.4</ele>
        <time>2023-08-16T08:58:50Z</time>
      </trkpt>
      <trkpt lat="49.77346" lon="2.21359">
        <ele>147.4</ele>
        <time>2023-08-16T08:58:51Z</time>
      </trkpt>
      <trkpt lat="49.77345" lon="2.21358">
        <ele>147.4</ele>
        <time>2023-08-16T08:58:52Z</time>
      </trkpt>
      <trkpt lat="49.77345" lon="2.21357">
        <ele>147.4</ele>
        <time>2023-08-16T08:58:53Z</time>
      </trkpt>
      <trkpt lat="49.77345" lon="2.21357">
        <ele>147.4</ele>
        <time>2023-08-16T08:58:55Z</time>
      </trkpt>
      <trkpt lat="49.77346" lon="2.21355">
        <ele>147.4</ele>
        <time>2023-08-16T08:58:56Z</time>
      </trkpt>
      <trkpt lat="49.77346" lon="2.21354">
        <ele>147.4</ele>
        <time>2023-08-16T08:58:57Z</time>
      </trkpt>
      <trkpt lat="49.77347" lon="2.21351">
        <ele>147.4</ele>
        <time>2023-08-16T08:58:58Z</time>
      </trkpt>
      <trkpt lat="49.77347" lon="2.2135">
        <ele>147.4</ele>
        <time>2023-08-16T08:58:59Z</time>
      </trkpt>
      <trkpt lat="49.77347" lon="2.21349">
        <ele>147.4</ele>
        <time>2023-08-16T08:59:00Z</time>
      </trkpt>
      <trkpt lat="49.77348" lon="2.21347">
        <ele>147.4</ele>
        <time>2023-08-16T08:59:01Z</time>
      </trkpt>
      <trkpt lat="49.77348" lon="2.21345">
        <ele>147.4</ele>
        <time>2023-08-16T08:59:02Z</time>
      </trkpt>
      <trkpt lat="49.77349" lon="2.21344">
        <ele>147.4</ele>
        <time>2023-08-16T08:59:04Z</time>
      </trkpt>
      <trkpt lat="49.7735" lon="2.21343">
        <ele>147.4</ele>
        <time>2023-08-16T08:59:05Z</time>
      </trkpt>
      <trkpt lat="49.77351" lon="2.21343">
        <ele>147.4</ele>
        <time>2023-08-16T08:59:06Z</time>
      </trkpt>
      <trkpt lat="49.77352" lon="2.21341">
        <ele>147.4</ele>
        <time>2023-08-16T08:59:08Z</time>
      </trkpt>
      <trkpt lat="49.77352" lon="2.2134">
        <ele>147.3</ele>
        <time>2023-08-16T08:59:09Z</time>
      </trkpt>
      <trkpt lat="49.77352" lon="2.21339">
        <ele>147.3</ele>
        <time>2023-08-16T08:59:10Z</time>
      </trkpt>
      <trkpt lat="49.77352" lon="2.21337">
        <ele>147.3</ele>
        <time>2023-08-16T08:59:11Z</time>
      </trkpt>
      <trkpt lat="49.77352" lon="2.21337">
        <ele>147.3</ele>
        <time>2023-08-16T08:59:12Z</time>
      </trkpt>
      <trkpt lat="49.77353" lon="2.21335">
        <ele>147.3</ele>
        <time>2023-08-16T08:59:14Z</time>
      </trkpt>
      <trkpt lat="49.77353" lon="2.21334">
        <ele>147.3</ele>
        <time>2023-08-16T08:59:15Z</time>
      </trkpt>
      <trkpt lat="49.77353" lon="2.21332">
        <ele>147.3</ele>
        <time>2023-08-16T08:59:16Z</time>
      </trkpt>
      <trkpt lat="49.77354" lon="2.2133">
        <ele>147.3</ele>
        <time>2023-08-16T08:59:17Z</time>
      </trkpt>
      <trkpt lat="49.77354" lon="2.21329">
        <ele>147.3</ele>
        <time>2023-08-16T08:59:18Z</time>
      </trkpt>
      <trkpt lat="49.77354" lon="2.21327">
        <ele>147.3</ele>
        <time>2023-08-16T08:59:19Z</time>
      </trkpt>
      <trkpt lat="49.77355" lon="2.21325">
        <ele>147.3</ele>
        <time>2023-08-16T08:59:21Z</time>
      </trkpt>
      <trkpt lat="49.77355" lon="2.21324">
        <ele>147.3</ele>
        <time>2023-08-16T08:59:22Z</time>
      </trkpt>
      <trkpt lat="49.77355" lon="2.21322">
        <ele>147.3</ele>
        <time>2023-08-16T08:59:23Z</time>
      </trkpt>
      <trkpt lat="49.77356" lon="2.21321">
        <ele>147.3</ele>
        <time>2023-08-16T08:59:24Z</time>
      </trkpt>
      <trkpt lat="49.77356" lon="2.21319">
        <ele>147.2</ele>
        <time>2023-08-16T08:59:25Z</time>
      </trkpt>
      <trkpt lat="49.77357" lon="2.21318">
        <ele>147.2</ele>
        <time>2023-08-16T08:59:26Z</time>
      </trkpt>
      <trkpt lat="49.77358" lon="2.21316">
        <ele>147.2</ele>
        <time>2023-08-16T08:59:28Z</time>
      </trkpt>
      <trkpt lat="49.77358" lon="2.21315">
        <ele>147.2</ele>
        <time>2023-08-16T08:59:29Z</time>
      </trkpt>
      <trkpt lat="49.77359" lon="2.21313">
        <ele>147.2</ele>
        <time>2023-08-16T08:59:30Z</time>
      </trkpt>
      <trkpt lat="49.77359" lon="2.21312">
        <ele>147.2</ele>
        <time>2023-08-16T08:59:31Z</time>
      </trkpt>
      <trkpt lat="49.7736" lon="2.2131">
        <ele>147.2</ele>
        <time>2023-08-16T08:59:32Z</time>
      </trkpt>
      <trkpt lat="49.77361" lon="2.21308">
        <ele>147.2</ele>
        <time>2023-08-16T08:59:34Z</time>
      </trkpt>
      <trkpt lat="49.77362" lon="2.21307">
        <ele>147.2</ele>
        <time>2023-08-16T08:59:35Z</time>
      </trkpt>
      <trkpt lat="49.77362" lon="2.21306">
        <ele>147.1</ele>
        <time>2023-08-16T08:59:36Z</time>
      </trkpt>
      <trkpt lat="49.77363" lon="2.21304">
        <ele>147.1</ele>
        <time>2023-08-16T08:59:37Z</time>
      </trkpt>
      <trkpt lat="49.77364" lon="2.21301">
        <ele>147.1</ele>
        <time>2023-08-16T08:59:39Z</time>
      </trkpt>
      <trkpt lat="49.77364" lon="2.213">
        <ele>147.1</ele>
        <time>2023-08-16T08:59:40Z</time>
      </trkpt>
      <trkpt lat="49.77364" lon="2.21299">
        <ele>147.1</ele>
        <time>2023-08-16T08:59:41Z</time>
      </trkpt>
      <trkpt lat="49.77365" lon="2.21297">
        <ele>147.1</ele>
        <time>2023-08-16T08:59:42Z</time>
      </trkpt>
      <trkpt lat="49.77365" lon="2.21295">
        <ele>147</ele>
        <time>2023-08-16T08:59:43Z</time>
      </trkpt>
      <trkpt lat="49.77366" lon="2.21294">
        <ele>147</ele>
        <time>2023-08-16T08:59:45Z</time>
      </trkpt>
      <trkpt lat="49.77366" lon="2.21292">
        <ele>147</ele>
        <time>2023-08-16T08:59:46Z</time>
      </trkpt>
      <trkpt lat="49.77367" lon="2.2129">
        <ele>147</ele>
        <time>2023-08-16T08:59:47Z</time>
      </trkpt>
      <trkpt lat="49.77368" lon="2.21287">
        <ele>147</ele>
        <time>2023-08-16T08:59:48Z</time>
      </trkpt>
      <trkpt lat="49.77368" lon="2.21286">
        <ele>146.9</ele>
        <time>2023-08-16T08:59:49Z</time>
      </trkpt>
      <trkpt lat="49.77368" lon="2.21285">
        <ele>146.9</ele>
        <time>2023-08-16T08:59:50Z</time>
      </trkpt>
      <trkpt lat="49.77369" lon="2.21283">
        <ele>146.9</ele>
        <time>2023-08-16T08:59:52Z</time>
      </trkpt>
      <trkpt lat="49.7737" lon="2.2128">
        <ele>146.9</ele>
        <time>2023-08-16T08:59:53Z</time>
      </trkpt>
      <trkpt lat="49.7737" lon="2.21279">
        <ele>146.9</ele>
        <time>2023-08-16T08:59:54Z</time>
      </trkpt>
      <trkpt lat="49.77371" lon="2.21277">
        <ele>146.8</ele>
        <time>2023-08-16T08:59:55Z</time>
      </trkpt>
      <trkpt lat="49.77371" lon="2.21276">
        <ele>146.8</ele>
        <time>2023-08-16T08:59:56Z</time>
      </trkpt>
      <trkpt lat="49.77372" lon="2.21273">
        <ele>146.8</ele>
        <time>2023-08-16T08:59:58Z</time>
      </trkpt>
      <trkpt lat="49.77373" lon="2.21272">
        <ele>146.8</ele>
        <time>2023-08-16T08:59:59Z</time>
      </trkpt>
      <trkpt lat="49.77373" lon="2.21271">
        <ele>146.8</ele>
        <time>2023-08-16T09:00:00Z</time>
      </trkpt>
      <trkpt lat="49.77374" lon="2.21269">
        <ele>146.7</ele>
        <time>2023-08-16T09:00:01Z</time>
      </trkpt>
      <trkpt lat="49.77374" lon="2.21268">
        <ele>146.7</ele>
        <time>2023-08-16T09:00:02Z</time>
      </trkpt>
      <trkpt lat="49.77375" lon="2.21266">
        <ele>146.7</ele>
        <time>2023-08-16T09:00:03Z</time>
      </trkpt>
      <trkpt lat="49.77375" lon="2.21263">
        <ele>146.7</ele>
        <time>2023-08-16T09:00:05Z</time>
      </trkpt>
      <trkpt lat="49.77376" lon="2.21262">
        <ele>146.7</ele>
        <time>2023-08-16T09:00:06Z</time>
      </trkpt>
      <trkpt lat="49.77376" lon="2.2126">
        <ele>146.6</ele>
        <time>2023-08-16T09:00:07Z</time>
      </trkpt>
      <trkpt lat="49.77376" lon="2.21259">
        <ele>146.6</ele>
        <time>2023-08-16T09:00:08Z</time>
      </trkpt>
      <trkpt lat="49.77377" lon="2.21257">
        <ele>146.6</ele>
        <time>2023-08-16T09:00:09Z</time>
      </trkpt>
      <trkpt lat="49.77377" lon="2.21255">
        <ele>146.6</ele>
        <time>2023-08-16T09:00:10Z</time>
      </trkpt>
      <trkpt lat="49.77377" lon="2.21254">
        <ele>146.6</ele>
        <time>2023-08-16T09:00:11Z</time>
      </trkpt>
      <trkpt lat="49.77377" lon="2.21252">
        <ele>146.5</ele>
        <time>2023-08-16T09:00:12Z</time>
      </trkpt>
      <trkpt lat="49.77378" lon="2.2125">
        <ele>146.5</ele>
        <time>2023-08-16T09:00:14Z</time>
      </trkpt>
      <trkpt lat="49.77378" lon="2.21248">
        <ele>146.5</ele>
        <time>2023-08-16T09:00:15Z</time>
      </trkpt>
      <trkpt lat="49.77379" lon="2.21246">
        <ele>146.5</ele>
        <time>2023-08-16T09:00:16Z</time>
      </trkpt>
      <trkpt lat="49.77379" lon="2.21244">
        <ele>146.5</ele>
        <time>2023-08-16T09:00:17Z</time>
      </trkpt>
      <trkpt lat="49.7738" lon="2.21242">
        <ele>146.5</ele>
        <time>2023-08-16T09:00:18Z</time>
      </trkpt>
      <trkpt lat="49.7738" lon="2.2124">
        <ele>146.4</ele>
        <time>2023-08-16T09:00:20Z</time>
      </trkpt>
      <trkpt lat="49.77381" lon="2.21237">
        <ele>146.4</ele>
        <time>2023-08-16T09:00:21Z</time>
      </trkpt>
      <trkpt lat="49.77382" lon="2.21236">
        <ele>146.4</ele>
        <time>2023-08-16T09:00:22Z</time>
      </trkpt>
      <trkpt lat="49.77382" lon="2.21235">
        <ele>146.4</ele>
        <time>2023-08-16T09:00:23Z</time>
      </trkpt>
      <trkpt lat="49.77382" lon="2.21233">
        <ele>146.4</ele>
        <time>2023-08-16T09:00:24Z</time>
      </trkpt>
      <trkpt lat="49.77383" lon="2.21232">
        <ele>146.4</ele>
        <time>2023-08-16T09:00:25Z</time>
      </trkpt>
      <trkpt lat="49.77383" lon="2.21231">
        <ele>146.4</ele>
        <time>2023-08-16T09:00:27Z</time>
      </trkpt>
      <trkpt lat="49.77384" lon="2.21229">
        <ele>146.4</ele>
        <time>2023-08-16T09:00:28Z</time>
      </trkpt>
      <trkpt lat="49.77384" lon="2.21227">
        <ele>146.4</ele>
        <time>2023-08-16T09:00:29Z</time>
      </trkpt>
      <trkpt lat="49.77385" lon="2.21226">
        <ele>146.3</ele>
        <time>2023-08-16T09:00:30Z</time>
      </trkpt>
      <trkpt lat="49.77385" lon="2.21224">
        <ele>146.3</ele>
        <time>2023-08-16T09:00:31Z</time>
      </trkpt>
      <trkpt lat="49.77385" lon="2.21223">
        <ele>146.3</ele>
        <time>2023-08-16T09:00:33Z</time>
      </trkpt>
      <trkpt lat="49.77385" lon="2.21221">
        <ele>146.3</ele>
        <time>2023-08-16T09:00:34Z</time>
      </trkpt>
      <trkpt lat="49.77386" lon="2.21219">
        <ele>146.3</ele>
        <time>2023-08-16T09:00:35Z</time>
      </trkpt>
      <trkpt lat="49.77386" lon="2.21217">
        <ele>146.3</ele>
        <time>2023-08-16T09:00:36Z</time>
      </trkpt>
      <trkpt lat="49.77386" lon="2.21215">
        <ele>146.2</ele>
        <time>2023-08-16T09:00:37Z</time>
      </trkpt>
      <trkpt lat="49.77387" lon="2.21213">
        <ele>146.2</ele>
        <time>2023-08-16T09:00:38Z</time>
      </trkpt>
      <trkpt lat="49.77387" lon="2.21211">
        <ele>146.2</ele>
        <time>2023-08-16T09:00:40Z</time>
      </trkpt>
      <trkpt lat="49.77387" lon="2.21209">
        <ele>146.2</ele>
        <time>2023-08-16T09:00:41Z</time>
      </trkpt>
      <trkpt lat="49.77387" lon="2.21207">
        <ele>146.2</ele>
        <time>2023-08-16T09:00:42Z</time>
      </trkpt>
      <trkpt lat="49.77388" lon="2.21205">
        <ele>146.1</ele>
        <time>2023-08-16T09:00:43Z</time>
      </trkpt>
      <trkpt lat="49.77388" lon="2.21203">
        <ele>146.1</ele>
        <time>2023-08-16T09:00:44Z</time>
      </trkpt>
      <trkpt lat="49.77388" lon="2.21201">
        <ele>146.1</ele>
        <time>2023-08-16T09:00:46Z</time>
      </trkpt>
      <trkpt lat="49.77388" lon="2.212">
        <ele>146</ele>
        <time>2023-08-16T09:00:47Z</time>
      </trkpt>
      <trkpt lat="49.77388" lon="2.21198">
        <ele>146</ele>
        <time>2023-08-16T09:00:48Z</time>
      </trkpt>
      <trkpt lat="49.77388" lon="2.21196">
        <ele>145.9</ele>
        <time>2023-08-16T09:00:49Z</time>
      </trkpt>
      <trkpt lat="49.77388" lon="2.21194">
        <ele>145.9</ele>
        <time>2023-08-16T09:00:50Z</time>
      </trkpt>
      <trkpt lat="49.77388" lon="2.21193">
        <ele>145.9</ele>
        <time>2023-08-16T09:00:51Z</time>
      </trkpt>
      <trkpt lat="49.77388" lon="2.21191">
        <ele>145.8</ele>
        <time>2023-08-16T09:00:53Z</time>
      </trkpt>
      <trkpt lat="49.77388" lon="2.21189">
        <ele>145.8</ele>
        <time>2023-08-16T09:00:54Z</time>
      </trkpt>
      <trkpt lat="49.77388" lon="2.21188">
        <ele>145.8</ele>
        <time>2023-08-16T09:00:55Z</time>
      </trkpt>
      <trkpt lat="49.77388" lon="2.21186">
        <ele>145.7</ele>
        <time>2023-08-16T09:00:56Z</time>
      </trkpt>
      <trkpt lat="49.77389" lon="2.21183">
        <ele>145.7</ele>
        <time>2023-08-16T09:00:57Z</time>
      </trkpt>
      <trkpt lat="49.77389" lon="2.21181">
        <ele>145.6</ele>
        <time>2023-08-16T09:00:58Z</time>
      </trkpt>
      <trkpt lat="49.77389" lon="2.2118">
        <ele>145.6</ele>
        <time>2023-08-16T09:01:00Z</time>
      </trkpt>
      <trkpt lat="49.77389" lon="2.21178">
        <ele>145.6</ele>
        <time>2023-08-16T09:01:01Z</time>
      </trkpt>
      <trkpt lat="49.77389" lon="2.21177">
        <ele>145.5</ele>
        <time>2023-08-16T09:01:02Z</time>
      </trkpt>
      <trkpt lat="49.77389" lon="2.21175">
        <ele>145.5</ele>
        <time>2023-08-16T09:01:03Z</time>
      </trkpt>
      <trkpt lat="49.7739" lon="2.21173">
        <ele>145.5</ele>
        <time>2023-08-16T09:01:04Z</time>
      </trkpt>
      <trkpt lat="49.7739" lon="2.21172">
        <ele>145.5</ele>
        <time>2023-08-16T09:01:05Z</time>
      </trkpt>
      <trkpt lat="49.7739" lon="2.2117">
        <ele>145.4</ele>
        <time>2023-08-16T09:01:06Z</time>
      </trkpt>
      <trkpt lat="49.7739" lon="2.21167">
        <ele>145.4</ele>
        <time>2023-08-16T09:01:08Z</time>
      </trkpt>
      <trkpt lat="49.7739" lon="2.21166">
        <ele>145.4</ele>
        <time>2023-08-16T09:01:09Z</time>
      </trkpt>
      <trkpt lat="49.7739" lon="2.21164">
        <ele>145.4</ele>
        <time>2023-08-16T09:01:10Z</time>
      </trkpt>
      <trkpt lat="49.77389" lon="2.21161">
        <ele>145.3</ele>
        <time>2023-08-16T09:01:11Z</time>
      </trkpt>
      <trkpt lat="49.77389" lon="2.2116">
        <ele>145.3</ele>
        <time>2023-08-16T09:01:12Z</time>
      </trkpt>
      <trkpt lat="49.77389" lon="2.21158">
        <ele>145.3</ele>
        <time>2023-08-16T09:01:14Z</time>
      </trkpt>
      <trkpt lat="49.77389" lon="2.21157">
        <ele>145.2</ele>
        <time>2023-08-16T09:01:15Z</time>
      </trkpt>
      <trkpt lat="49.77389" lon="2.21155">
        <ele>145.2</ele>
        <time>2023-08-16T09:01:16Z</time>
      </trkpt>
      <trkpt lat="49.77389" lon="2.21153">
        <ele>145.2</ele>
        <time>2023-08-16T09:01:17Z</time>
      </trkpt>
      <trkpt lat="49.77389" lon="2.21151">
        <ele>145.2</ele>
        <time>2023-08-16T09:01:18Z</time>
      </trkpt>
      <trkpt lat="49.77389" lon="2.2115">
        <ele>145.1</ele>
        <time>2023-08-16T09:01:19Z</time>
      </trkpt>
      <trkpt lat="49.77389" lon="2.21148">
        <ele>145.1</ele>
        <time>2023-08-16T09:01:20Z</time>
      </trkpt>
      <trkpt lat="49.77388" lon="2.21145">
        <ele>145.1</ele>
        <time>2023-08-16T09:01:22Z</time>
      </trkpt>
      <trkpt lat="49.77388" lon="2.21144">
        <ele>145</ele>
        <time>2023-08-16T09:01:23Z</time>
      </trkpt>
      <trkpt lat="49.77388" lon="2.21142">
        <ele>145</ele>
        <time>2023-08-16T09:01:24Z</time>
      </trkpt>
      <trkpt lat="49.77388" lon="2.2114">
        <ele>145</ele>
        <time>2023-08-16T09:01:25Z</time>
      </trkpt>
      <trkpt lat="49.77388" lon="2.21139">
        <ele>145</ele>
        <time>2023-08-16T09:01:26Z</time>
      </trkpt>
      <trkpt lat="49.77388" lon="2.21137">
        <ele>144.9</ele>
        <time>2023-08-16T09:01:27Z</time>
      </trkpt>
      <trkpt lat="49.77388" lon="2.21135">
        <ele>144.9</ele>
        <time>2023-08-16T09:01:29Z</time>
      </trkpt>
      <trkpt lat="49.77388" lon="2.21134">
        <ele>144.9</ele>
        <time>2023-08-16T09:01:30Z</time>
      </trkpt>
      <trkpt lat="49.77389" lon="2.21132">
        <ele>144.9</ele>
        <time>2023-08-16T09:01:31Z</time>
      </trkpt>
      <trkpt lat="49.77389" lon="2.21131">
        <ele>144.9</ele>
        <time>2023-08-16T09:01:32Z</time>
      </trkpt>
      <trkpt lat="49.77389" lon="2.21129">
        <ele>144.8</ele>
        <time>2023-08-16T09:01:33Z</time>
      </trkpt>
      <trkpt lat="49.77389" lon="2.21128">
        <ele>144.8</ele>
        <time>2023-08-16T09:01:34Z</time>
      </trkpt>
      <trkpt lat="49.77389" lon="2.21126">
        <ele>144.8</ele>
        <time>2023-08-16T09:01:36Z</time>
      </trkpt>
      <trkpt lat="49.77389" lon="2.21123">
        <ele>144.8</ele>
        <time>2023-08-16T09:01:37Z</time>
      </trkpt>
      <trkpt lat="49.77389" lon="2.21121">
        <ele>144.7</ele>
        <time>2023-08-16T09:01:38Z</time>
      </trkpt>
      <trkpt lat="49.77389" lon="2.21119">
        <ele>144.7</ele>
        <time>2023-08-16T09:01:39Z</time>
      </trkpt>
      <trkpt lat="49.77389" lon="2.21117">
        <ele>144.7</ele>
        <time>2023-08-16T09:01:40Z</time>
      </trkpt>
      <trkpt lat="49.77389" lon="2.21115">
        <ele>144.7</ele>
        <time>2023-08-16T09:01:41Z</time>
      </trkpt>
      <trkpt lat="49.77389" lon="2.21113">
        <ele>144.6</ele>
        <time>2023-08-16T09:01:43Z</time>
      </trkpt>
      <trkpt lat="49.7739" lon="2.2111">
        <ele>144.6</ele>
        <time>2023-08-16T09:01:44Z</time>
      </trkpt>
      <trkpt lat="49.7739" lon="2.21109">
        <ele>144.6</ele>
        <time>2023-08-16T09:01:45Z</time>
      </trkpt>
      <trkpt lat="49.7739" lon="2.21108">
        <ele>144.6</ele>
        <time>2023-08-16T09:01:46Z</time>
      </trkpt>
      <trkpt lat="49.7739" lon="2.21106">
        <ele>144.6</ele>
        <time>2023-08-16T09:01:47Z</time>
      </trkpt>
      <trkpt lat="49.7739" lon="2.21104">
        <ele>144.5</ele>
        <time>2023-08-16T09:01:48Z</time>
      </trkpt>
      <trkpt lat="49.7739" lon="2.21103">
        <ele>144.5</ele>
        <time>2023-08-16T09:01:50Z</time>
      </trkpt>
      <trkpt lat="49.7739" lon="2.21101">
        <ele>144.5</ele>
        <time>2023-08-16T09:01:51Z</time>
      </trkpt>
      <trkpt lat="49.7739" lon="2.21099">
        <ele>144.5</ele>
        <time>2023-08-16T09:01:52Z</time>
      </trkpt>
      <trkpt lat="49.77391" lon="2.21097">
        <ele>144.5</ele>
        <time>2023-08-16T09:01:53Z</time>
      </trkpt>
      <trkpt lat="49.77391" lon="2.21094">
        <ele>144.4</ele>
        <time>2023-08-16T09:01:54Z</time>
      </trkpt>
      <trkpt lat="49.77391" lon="2.21092">
        <ele>144.4</ele>
        <time>2023-08-16T09:01:56Z</time>
      </trkpt>
      <trkpt lat="49.77391" lon="2.2109">
        <ele>144.4</ele>
        <time>2023-08-16T09:01:57Z</time>
      </trkpt>
      <trkpt lat="49.77391" lon="2.21089">
        <ele>144.4</ele>
        <time>2023-08-16T09:01:59Z</time>
      </trkpt>
      <trkpt lat="49.7739" lon="2.21087">
        <ele>144.4</ele>
        <time>2023-08-16T09:02:00Z</time>
      </trkpt>
      <trkpt lat="49.7739" lon="2.21085">
        <ele>144.4</ele>
        <time>2023-08-16T09:02:01Z</time>
      </trkpt>
      <trkpt lat="49.7739" lon="2.21083">
        <ele>144.4</ele>
        <time>2023-08-16T09:02:02Z</time>
      </trkpt>
      <trkpt lat="49.7739" lon="2.21082">
        <ele>144.4</ele>
        <time>2023-08-16T09:02:03Z</time>
      </trkpt>
      <trkpt lat="49.7739" lon="2.21079">
        <ele>144.3</ele>
        <time>2023-08-16T09:02:04Z</time>
      </trkpt>
      <trkpt lat="49.7739" lon="2.21077">
        <ele>144.3</ele>
        <time>2023-08-16T09:02:06Z</time>
      </trkpt>
      <trkpt lat="49.7739" lon="2.21076">
        <ele>144.3</ele>
        <time>2023-08-16T09:02:07Z</time>
      </trkpt>
      <trkpt lat="49.7739" lon="2.21074">
        <ele>144.3</ele>
        <time>2023-08-16T09:02:08Z</time>
      </trkpt>
      <trkpt lat="49.7739" lon="2.21072">
        <ele>144.3</ele>
        <time>2023-08-16T09:02:09Z</time>
      </trkpt>
      <trkpt lat="49.7739" lon="2.21071">
        <ele>144.3</ele>
        <time>2023-08-16T09:02:10Z</time>
      </trkpt>
      <trkpt lat="49.7739" lon="2.21069">
        <ele>144.3</ele>
        <time>2023-08-16T09:02:11Z</time>
      </trkpt>
      <trkpt lat="49.7739" lon="2.21067">
        <ele>144.3</ele>
        <time>2023-08-16T09:02:12Z</time>
      </trkpt>
      <trkpt lat="49.7739" lon="2.21065">
        <ele>144.3</ele>
        <time>2023-08-16T09:02:14Z</time>
      </trkpt>
      <trkpt lat="49.7739" lon="2.21062">
        <ele>144.2</ele>
        <time>2023-08-16T09:02:15Z</time>
      </trkpt>
      <trkpt lat="49.7739" lon="2.21061">
        <ele>144.2</ele>
        <time>2023-08-16T09:02:16Z</time>
      </trkpt>
      <trkpt lat="49.7739" lon="2.2106">
        <ele>144.2</ele>
        <time>2023-08-16T09:02:17Z</time>
      </trkpt>
      <trkpt lat="49.7739" lon="2.21058">
        <ele>144.2</ele>
        <time>2023-08-16T09:02:18Z</time>
      </trkpt>
      <trkpt lat="49.7739" lon="2.21056">
        <ele>144.2</ele>
        <time>2023-08-16T09:02:19Z</time>
      </trkpt>
      <trkpt lat="49.7739" lon="2.21054">
        <ele>144.2</ele>
        <time>2023-08-16T09:02:20Z</time>
      </trkpt>
      <trkpt lat="49.7739" lon="2.21052">
        <ele>144.2</ele>
        <time>2023-08-16T09:02:22Z</time>
      </trkpt>
      <trkpt lat="49.7739" lon="2.2105">
        <ele>144.2</ele>
        <time>2023-08-16T09:02:23Z</time>
      </trkpt>
      <trkpt lat="49.7739" lon="2.21048">
        <ele>144.1</ele>
        <time>2023-08-16T09:02:24Z</time>
      </trkpt>
      <trkpt lat="49.7739" lon="2.21046">
        <ele>144.1</ele>
        <time>2023-08-16T09:02:25Z</time>
      </trkpt>
      <trkpt lat="49.77391" lon="2.21044">
        <ele>144.1</ele>
        <time>2023-08-16T09:02:26Z</time>
      </trkpt>
      <trkpt lat="49.77391" lon="2.21041">
        <ele>144.1</ele>
        <time>2023-08-16T09:02:27Z</time>
      </trkpt>
      <trkpt lat="49.77391" lon="2.2104">
        <ele>144.1</ele>
        <time>2023-08-16T09:02:28Z</time>
      </trkpt>
      <trkpt lat="49.77391" lon="2.21039">
        <ele>144</ele>
        <time>2023-08-16T09:02:29Z</time>
      </trkpt>
      <trkpt lat="49.77391" lon="2.21037">
        <ele>144</ele>
        <time>2023-08-16T09:02:31Z</time>
      </trkpt>
      <trkpt lat="49.77391" lon="2.21035">
        <ele>144</ele>
        <time>2023-08-16T09:02:32Z</time>
      </trkpt>
      <trkpt lat="49.77391" lon="2.21034">
        <ele>144</ele>
        <time>2023-08-16T09:02:33Z</time>
      </trkpt>
      <trkpt lat="49.77391" lon="2.21032">
        <ele>144</ele>
        <time>2023-08-16T09:02:34Z</time>
      </trkpt>
      <trkpt lat="49.77391" lon="2.2103">
        <ele>144</ele>
        <time>2023-08-16T09:02:35Z</time>
      </trkpt>
      <trkpt lat="49.77391" lon="2.21029">
        <ele>143.9</ele>
        <time>2023-08-16T09:02:36Z</time>
      </trkpt>
      <trkpt lat="49.7739" lon="2.21028">
        <ele>143.9</ele>
        <time>2023-08-16T09:02:38Z</time>
      </trkpt>
      <trkpt lat="49.77391" lon="2.21028">
        <ele>143.9</ele>
        <time>2023-08-16T09:02:39Z</time>
      </trkpt>
      <trkpt lat="49.77391" lon="2.21027">
        <ele>143.9</ele>
        <time>2023-08-16T09:02:40Z</time>
      </trkpt>
      <trkpt lat="49.77391" lon="2.21027">
        <ele>143.9</ele>
        <time>2023-08-16T09:02:42Z</time>
      </trkpt>
      <trkpt lat="49.77391" lon="2.21026">
        <ele>143.9</ele>
        <time>2023-08-16T09:02:43Z</time>
      </trkpt>
      <trkpt lat="49.77391" lon="2.21026">
        <ele>143.9</ele>
        <time>2023-08-16T09:02:45Z</time>
      </trkpt>
      <trkpt lat="49.77391" lon="2.21025">
        <ele>143.9</ele>
        <time>2023-08-16T09:02:46Z</time>
      </trkpt>
      <trkpt lat="49.77391" lon="2.21025">
        <ele>143.9</ele>
        <time>2023-08-16T09:02:47Z</time>
      </trkpt>
      <trkpt lat="49.77391" lon="2.21024">
        <ele>143.9</ele>
        <time>2023-08-16T09:02:49Z</time>
      </trkpt>
      <trkpt lat="49.77391" lon="2.21024">
        <ele>143.9</ele>
        <time>2023-08-16T09:02:50Z</time>
      </trkpt>
      <trkpt lat="49.77391" lon="2.21023">
        <ele>143.9</ele>
        <time>2023-08-16T09:02:51Z</time>
      </trkpt>
      <trkpt lat="49.77391" lon="2.21023">
        <ele>143.9</ele>
        <time>2023-08-16T09:02:52Z</time>
      </trkpt>
      <trkpt lat="49.77391" lon="2.21022">
        <ele>143.9</ele>
        <time>2023-08-16T09:02:53Z</time>
      </trkpt>
      <trkpt lat="49.77391" lon="2.21022">
        <ele>143.9</ele>
        <time>2023-08-16T09:02:55Z</time>
      </trkpt>
      <trkpt lat="49.77391" lon="2.21021">
        <ele>143.9</ele>
        <time>2023-08-16T09:02:56Z</time>
      </trkpt>
      <trkpt lat="49.77391" lon="2.21021">
        <ele>143.8</ele>
        <time>2023-08-16T09:02:57Z</time>
      </trkpt>
      <trkpt lat="49.77391" lon="2.2102">
        <ele>143.8</ele>
        <time>2023-08-16T09:02:58Z</time>
      </trkpt>
      <trkpt lat="49.77391" lon="2.2102">
        <ele>143.8</ele>
        <time>2023-08-16T09:02:59Z</time>
      </trkpt>
      <trkpt lat="49.77391" lon="2.21019">
        <ele>143.8</ele>
        <time>2023-08-16T09:03:00Z</time>
      </trkpt>
      <trkpt lat="49.7739" lon="2.21018">
        <ele>143.8</ele>
        <time>2023-08-16T09:03:01Z</time>
      </trkpt>
      <trkpt lat="49.7739" lon="2.21016">
        <ele>143.8</ele>
        <time>2023-08-16T09:03:03Z</time>
      </trkpt>
      <trkpt lat="49.7739" lon="2.21014">
        <ele>143.8</ele>
        <time>2023-08-16T09:03:04Z</time>
      </trkpt>
      <trkpt lat="49.7739" lon="2.21013">
        <ele>143.8</ele>
        <time>2023-08-16T09:03:05Z</time>
      </trkpt>
      <trkpt lat="49.77389" lon="2.21011">
        <ele>143.7</ele>
        <time>2023-08-16T09:03:06Z</time>
      </trkpt>
      <trkpt lat="49.77389" lon="2.21009">
        <ele>143.7</ele>
        <time>2023-08-16T09:03:07Z</time>
      </trkpt>
      <trkpt lat="49.77388" lon="2.21008">
        <ele>143.7</ele>
        <time>2023-08-16T09:03:08Z</time>
      </trkpt>
      <trkpt lat="49.77388" lon="2.21006">
        <ele>143.7</ele>
        <time>2023-08-16T09:03:10Z</time>
      </trkpt>
      <trkpt lat="49.77388" lon="2.21004">
        <ele>143.7</ele>
        <time>2023-08-16T09:03:11Z</time>
      </trkpt>
      <trkpt lat="49.77388" lon="2.21002">
        <ele>143.7</ele>
        <time>2023-08-16T09:03:12Z</time>
      </trkpt>
      <trkpt lat="49.77388" lon="2.21">
        <ele>143.6</ele>
        <time>2023-08-16T09:03:13Z</time>
      </trkpt>
      <trkpt lat="49.77388" lon="2.20998">
        <ele>143.6</ele>
        <time>2023-08-16T09:03:14Z</time>
      </trkpt>
      <trkpt lat="49.77388" lon="2.20996">
        <ele>143.6</ele>
        <time>2023-08-16T09:03:15Z</time>
      </trkpt>
      <trkpt lat="49.77388" lon="2.20995">
        <ele>143.6</ele>
        <time>2023-08-16T09:03:17Z</time>
      </trkpt>
      <trkpt lat="49.77388" lon="2.20992">
        <ele>143.6</ele>
        <time>2023-08-16T09:03:18Z</time>
      </trkpt>
      <trkpt lat="49.77388" lon="2.2099">
        <ele>143.5</ele>
        <time>2023-08-16T09:03:19Z</time>
      </trkpt>
      <trkpt lat="49.77388" lon="2.20987">
        <ele>143.5</ele>
        <time>2023-08-16T09:03:20Z</time>
      </trkpt>
      <trkpt lat="49.77388" lon="2.20985">
        <ele>143.5</ele>
        <time>2023-08-16T09:03:21Z</time>
      </trkpt>
      <trkpt lat="49.77388" lon="2.20983">
        <ele>143.5</ele>
        <time>2023-08-16T09:03:22Z</time>
      </trkpt>
      <trkpt lat="49.77388" lon="2.2098">
        <ele>143.5</ele>
        <time>2023-08-16T09:03:24Z</time>
      </trkpt>
      <trkpt lat="49.77388" lon="2.20978">
        <ele>143.5</ele>
        <time>2023-08-16T09:03:25Z</time>
      </trkpt>
      <trkpt lat="49.77388" lon="2.20976">
        <ele>143.4</ele>
        <time>2023-08-16T09:03:26Z</time>
      </trkpt>
      <trkpt lat="49.77388" lon="2.20973">
        <ele>143.4</ele>
        <time>2023-08-16T09:03:27Z</time>
      </trkpt>
      <trkpt lat="49.77388" lon="2.20971">
        <ele>143.4</ele>
        <time>2023-08-16T09:03:28Z</time>
      </trkpt>
      <trkpt lat="49.77388" lon="2.20969">
        <ele>143.4</ele>
        <time>2023-08-16T09:03:29Z</time>
      </trkpt>
      <trkpt lat="49.77389" lon="2.20967">
        <ele>143.4</ele>
        <time>2023-08-16T09:03:30Z</time>
      </trkpt>
      <trkpt lat="49.77389" lon="2.20964">
        <ele>143.4</ele>
        <time>2023-08-16T09:03:31Z</time>
      </trkpt>
      <trkpt lat="49.77389" lon="2.20962">
        <ele>143.4</ele>
        <time>2023-08-16T09:03:33Z</time>
      </trkpt>
      <trkpt lat="49.77389" lon="2.20961">
        <ele>143.4</ele>
        <time>2023-08-16T09:03:34Z</time>
      </trkpt>
      <trkpt lat="49.77389" lon="2.20959">
        <ele>143.4</ele>
        <time>2023-08-16T09:03:35Z</time>
      </trkpt>
      <trkpt lat="49.77389" lon="2.20957">
        <ele>143.4</ele>
        <time>2023-08-16T09:03:36Z</time>
      </trkpt>
      <trkpt lat="49.77389" lon="2.20955">
        <ele>143.4</ele>
        <time>2023-08-16T09:03:37Z</time>
      </trkpt>
      <trkpt lat="49.77389" lon="2.20953">
        <ele>143.4</ele>
        <time>2023-08-16T09:03:38Z</time>
      </trkpt>
      <trkpt lat="49.77389" lon="2.20951">
        <ele>143.4</ele>
        <time>2023-08-16T09:03:40Z</time>
      </trkpt>
      <trkpt lat="49.77389" lon="2.20948">
        <ele>143.4</ele>
        <time>2023-08-16T09:03:41Z</time>
      </trkpt>
      <trkpt lat="49.77389" lon="2.20946">
        <ele>143.4</ele>
        <time>2023-08-16T09:03:42Z</time>
      </trkpt>
      <trkpt lat="49.77389" lon="2.20945">
        <ele>143.4</ele>
        <time>2023-08-16T09:03:43Z</time>
      </trkpt>
      <trkpt lat="49.77389" lon="2.20942">
        <ele>143.3</ele>
        <time>2023-08-16T09:03:44Z</time>
      </trkpt>
      <trkpt lat="49.77389" lon="2.20941">
        <ele>143.3</ele>
        <time>2023-08-16T09:03:45Z</time>
      </trkpt>
      <trkpt lat="49.7739" lon="2.20939">
        <ele>143.3</ele>
        <time>2023-08-16T09:03:46Z</time>
      </trkpt>
      <trkpt lat="49.7739" lon="2.20936">
        <ele>143.3</ele>
        <time>2023-08-16T09:03:48Z</time>
      </trkpt>
      <trkpt lat="49.7739" lon="2.20935">
        <ele>143.3</ele>
        <time>2023-08-16T09:03:49Z</time>
      </trkpt>
      <trkpt lat="49.7739" lon="2.20934">
        <ele>143.3</ele>
        <time>2023-08-16T09:03:50Z</time>
      </trkpt>
      <trkpt lat="49.7739" lon="2.20932">
        <ele>143.3</ele>
        <time>2023-08-16T09:03:51Z</time>
      </trkpt>
      <trkpt lat="49.77389" lon="2.2093">
        <ele>143.3</ele>
        <time>2023-08-16T09:03:52Z</time>
      </trkpt>
      <trkpt lat="49.77389" lon="2.20928">
        <ele>143.3</ele>
        <time>2023-08-16T09:03:53Z</time>
      </trkpt>
      <trkpt lat="49.77389" lon="2.20925">
        <ele>143.3</ele>
        <time>2023-08-16T09:03:54Z</time>
      </trkpt>
      <trkpt lat="49.77389" lon="2.20923">
        <ele>143.3</ele>
        <time>2023-08-16T09:03:56Z</time>
      </trkpt>
      <trkpt lat="49.77389" lon="2.20922">
        <ele>143.3</ele>
        <time>2023-08-16T09:03:57Z</time>
      </trkpt>
      <trkpt lat="49.77388" lon="2.2092">
        <ele>143.3</ele>
        <time>2023-08-16T09:03:58Z</time>
      </trkpt>
      <trkpt lat="49.77388" lon="2.20918">
        <ele>143.3</ele>
        <time>2023-08-16T09:03:59Z</time>
      </trkpt>
      <trkpt lat="49.77388" lon="2.20915">
        <ele>143.3</ele>
        <time>2023-08-16T09:04:01Z</time>
      </trkpt>
      <trkpt lat="49.77388" lon="2.20913">
        <ele>143.2</ele>
        <time>2023-08-16T09:04:02Z</time>
      </trkpt>
      <trkpt lat="49.77387" lon="2.20912">
        <ele>143.2</ele>
        <time>2023-08-16T09:04:03Z</time>
      </trkpt>
      <trkpt lat="49.77387" lon="2.2091">
        <ele>143.2</ele>
        <time>2023-08-16T09:04:04Z</time>
      </trkpt>
      <trkpt lat="49.77387" lon="2.20907">
        <ele>143.2</ele>
        <time>2023-08-16T09:04:05Z</time>
      </trkpt>
      <trkpt lat="49.77387" lon="2.20905">
        <ele>143.2</ele>
        <time>2023-08-16T09:04:06Z</time>
      </trkpt>
      <trkpt lat="49.77387" lon="2.20904">
        <ele>143.2</ele>
        <time>2023-08-16T09:04:07Z</time>
      </trkpt>
      <trkpt lat="49.77387" lon="2.20902">
        <ele>143.2</ele>
        <time>2023-08-16T09:04:09Z</time>
      </trkpt>
      <trkpt lat="49.77387" lon="2.209">
        <ele>143.2</ele>
        <time>2023-08-16T09:04:10Z</time>
      </trkpt>
      <trkpt lat="49.77387" lon="2.20898">
        <ele>143.2</ele>
        <time>2023-08-16T09:04:11Z</time>
      </trkpt>
      <trkpt lat="49.77387" lon="2.20895">
        <ele>143.1</ele>
        <time>2023-08-16T09:04:12Z</time>
      </trkpt>
      <trkpt lat="49.77387" lon="2.20894">
        <ele>143.1</ele>
        <time>2023-08-16T09:04:13Z</time>
      </trkpt>
      <trkpt lat="49.77387" lon="2.20893">
        <ele>143.1</ele>
        <time>2023-08-16T09:04:14Z</time>
      </trkpt>
      <trkpt lat="49.77387" lon="2.20891">
        <ele>143.1</ele>
        <time>2023-08-16T09:04:16Z</time>
      </trkpt>
      <trkpt lat="49.77388" lon="2.20888">
        <ele>143.1</ele>
        <time>2023-08-16T09:04:17Z</time>
      </trkpt>
      <trkpt lat="49.77387" lon="2.20887">
        <ele>143.1</ele>
        <time>2023-08-16T09:04:18Z</time>
      </trkpt>
      <trkpt lat="49.77388" lon="2.20885">
        <ele>143</ele>
        <time>2023-08-16T09:04:19Z</time>
      </trkpt>
      <trkpt lat="49.77388" lon="2.20884">
        <ele>143</ele>
        <time>2023-08-16T09:04:20Z</time>
      </trkpt>
      <trkpt lat="49.77388" lon="2.20882">
        <ele>143</ele>
        <time>2023-08-16T09:04:21Z</time>
      </trkpt>
      <trkpt lat="49.77388" lon="2.20879">
        <ele>143</ele>
        <time>2023-08-16T09:04:23Z</time>
      </trkpt>
      <trkpt lat="49.77388" lon="2.20877">
        <ele>143</ele>
        <time>2023-08-16T09:04:24Z</time>
      </trkpt>
      <trkpt lat="49.77389" lon="2.20876">
        <ele>143</ele>
        <time>2023-08-16T09:04:25Z</time>
      </trkpt>
      <trkpt lat="49.77389" lon="2.20874">
        <ele>142.9</ele>
        <time>2023-08-16T09:04:26Z</time>
      </trkpt>
      <trkpt lat="49.77389" lon="2.20873">
        <ele>142.9</ele>
        <time>2023-08-16T09:04:27Z</time>
      </trkpt>
      <trkpt lat="49.77389" lon="2.20871">
        <ele>142.9</ele>
        <time>2023-08-16T09:04:29Z</time>
      </trkpt>
      <trkpt lat="49.77389" lon="2.20869">
        <ele>142.9</ele>
        <time>2023-08-16T09:04:30Z</time>
      </trkpt>
      <trkpt lat="49.77388" lon="2.20867">
        <ele>142.9</ele>
        <time>2023-08-16T09:04:31Z</time>
      </trkpt>
      <trkpt lat="49.77388" lon="2.20866">
        <ele>142.9</ele>
        <time>2023-08-16T09:04:32Z</time>
      </trkpt>
      <trkpt lat="49.77388" lon="2.20864">
        <ele>142.9</ele>
        <time>2023-08-16T09:04:33Z</time>
      </trkpt>
      <trkpt lat="49.77388" lon="2.20863">
        <ele>142.9</ele>
        <time>2023-08-16T09:04:34Z</time>
      </trkpt>
      <trkpt lat="49.77388" lon="2.2086">
        <ele>142.8</ele>
        <time>2023-08-16T09:04:36Z</time>
      </trkpt>
      <trkpt lat="49.77388" lon="2.20858">
        <ele>142.8</ele>
        <time>2023-08-16T09:04:37Z</time>
      </trkpt>
      <trkpt lat="49.77388" lon="2.20857">
        <ele>142.8</ele>
        <time>2023-08-16T09:04:38Z</time>
      </trkpt>
      <trkpt lat="49.77388" lon="2.20855">
        <ele>142.8</ele>
        <time>2023-08-16T09:04:39Z</time>
      </trkpt>
      <trkpt lat="49.77388" lon="2.20853">
        <ele>142.8</ele>
        <time>2023-08-16T09:04:40Z</time>
      </trkpt>
      <trkpt lat="49.77388" lon="2.20852">
        <ele>142.8</ele>
        <time>2023-08-16T09:04:41Z</time>
      </trkpt>
      <trkpt lat="49.77388" lon="2.20849">
        <ele>142.8</ele>
        <time>2023-08-16T09:04:43Z</time>
      </trkpt>
      <trkpt lat="49.77388" lon="2.20846">
        <ele>142.8</ele>
        <time>2023-08-16T09:04:44Z</time>
      </trkpt>
      <trkpt lat="49.77388" lon="2.20845">
        <ele>142.8</ele>
        <time>2023-08-16T09:04:45Z</time>
      </trkpt>
      <trkpt lat="49.77388" lon="2.20844">
        <ele>142.8</ele>
        <time>2023-08-16T09:04:46Z</time>
      </trkpt>
      <trkpt lat="49.77388" lon="2.20842">
        <ele>142.8</ele>
        <time>2023-08-16T09:04:47Z</time>
      </trkpt>
      <trkpt lat="49.77388" lon="2.20841">
        <ele>142.8</ele>
        <time>2023-08-16T09:04:48Z</time>
      </trkpt>
      <trkpt lat="49.77388" lon="2.20839">
        <ele>142.7</ele>
        <time>2023-08-16T09:04:50Z</time>
      </trkpt>
      <trkpt lat="49.77388" lon="2.20837">
        <ele>142.7</ele>
        <time>2023-08-16T09:04:51Z</time>
      </trkpt>
      <trkpt lat="49.77388" lon="2.20836">
        <ele>142.7</ele>
        <time>2023-08-16T09:04:52Z</time>
      </trkpt>
      <trkpt lat="49.77388" lon="2.20834">
        <ele>142.7</ele>
        <time>2023-08-16T09:04:53Z</time>
      </trkpt>
      <trkpt lat="49.77388" lon="2.20832">
        <ele>142.7</ele>
        <time>2023-08-16T09:04:54Z</time>
      </trkpt>
      <trkpt lat="49.77388" lon="2.2083">
        <ele>142.7</ele>
        <time>2023-08-16T09:04:56Z</time>
      </trkpt>
      <trkpt lat="49.77388" lon="2.20829">
        <ele>142.7</ele>
        <time>2023-08-16T09:04:57Z</time>
      </trkpt>
      <trkpt lat="49.77388" lon="2.20827">
        <ele>142.7</ele>
        <time>2023-08-16T09:04:58Z</time>
      </trkpt>
      <trkpt lat="49.77388" lon="2.20825">
        <ele>142.7</ele>
        <time>2023-08-16T09:04:59Z</time>
      </trkpt>
      <trkpt lat="49.77388" lon="2.20823">
        <ele>142.7</ele>
        <time>2023-08-16T09:05:00Z</time>
      </trkpt>
      <trkpt lat="49.77388" lon="2.2082">
        <ele>142.7</ele>
        <time>2023-08-16T09:05:01Z</time>
      </trkpt>
      <trkpt lat="49.77388" lon="2.20819">
        <ele>142.7</ele>
        <time>2023-08-16T09:05:03Z</time>
      </trkpt>
      <trkpt lat="49.77388" lon="2.20817">
        <ele>142.6</ele>
        <time>2023-08-16T09:05:04Z</time>
      </trkpt>
      <trkpt lat="49.77388" lon="2.20816">
        <ele>142.6</ele>
        <time>2023-08-16T09:05:05Z</time>
      </trkpt>
      <trkpt lat="49.77388" lon="2.20814">
        <ele>142.6</ele>
        <time>2023-08-16T09:05:06Z</time>
      </trkpt>
      <trkpt lat="49.77388" lon="2.20812">
        <ele>142.6</ele>
        <time>2023-08-16T09:05:07Z</time>
      </trkpt>
      <trkpt lat="49.77388" lon="2.20809">
        <ele>142.6</ele>
        <time>2023-08-16T09:05:09Z</time>
      </trkpt>
      <trkpt lat="49.77388" lon="2.20808">
        <ele>142.6</ele>
        <time>2023-08-16T09:05:10Z</time>
      </trkpt>
      <trkpt lat="49.77388" lon="2.20806">
        <ele>142.6</ele>
        <time>2023-08-16T09:05:11Z</time>
      </trkpt>
      <trkpt lat="49.77388" lon="2.20805">
        <ele>142.6</ele>
        <time>2023-08-16T09:05:12Z</time>
      </trkpt>
      <trkpt lat="49.77388" lon="2.20803">
        <ele>142.6</ele>
        <time>2023-08-16T09:05:13Z</time>
      </trkpt>
      <trkpt lat="49.77388" lon="2.20801">
        <ele>142.6</ele>
        <time>2023-08-16T09:05:14Z</time>
      </trkpt>
      <trkpt lat="49.77388" lon="2.20798">
        <ele>142.6</ele>
        <time>2023-08-16T09:05:15Z</time>
      </trkpt>
      <trkpt lat="49.77388" lon="2.20797">
        <ele>142.6</ele>
        <time>2023-08-16T09:05:17Z</time>
      </trkpt>
      <trkpt lat="49.77388" lon="2.20795">
        <ele>142.5</ele>
        <time>2023-08-16T09:05:18Z</time>
      </trkpt>
      <trkpt lat="49.77388" lon="2.20794">
        <ele>142.5</ele>
        <time>2023-08-16T09:05:19Z</time>
      </trkpt>
      <trkpt lat="49.77388" lon="2.20792">
        <ele>142.5</ele>
        <time>2023-08-16T09:05:20Z</time>
      </trkpt>
      <trkpt lat="49.77388" lon="2.20791">
        <ele>142.5</ele>
        <time>2023-08-16T09:05:21Z</time>
      </trkpt>
      <trkpt lat="49.77388" lon="2.20789">
        <ele>142.5</ele>
        <time>2023-08-16T09:05:22Z</time>
      </trkpt>
      <trkpt lat="49.77388" lon="2.20787">
        <ele>142.5</ele>
        <time>2023-08-16T09:05:24Z</time>
      </trkpt>
      <trkpt lat="49.77388" lon="2.20785">
        <ele>142.5</ele>
        <time>2023-08-16T09:05:25Z</time>
      </trkpt>
      <trkpt lat="49.77388" lon="2.20784">
        <ele>142.5</ele>
        <time>2023-08-16T09:05:26Z</time>
      </trkpt>
      <trkpt lat="49.77388" lon="2.20783">
        <ele>142.5</ele>
        <time>2023-08-16T09:05:27Z</time>
      </trkpt>
      <trkpt lat="49.77388" lon="2.20781">
        <ele>142.5</ele>
        <time>2023-08-16T09:05:28Z</time>
      </trkpt>
      <trkpt lat="49.77388" lon="2.2078">
        <ele>142.5</ele>
        <time>2023-08-16T09:05:29Z</time>
      </trkpt>
      <trkpt lat="49.77388" lon="2.20778">
        <ele>142.4</ele>
        <time>2023-08-16T09:05:31Z</time>
      </trkpt>
      <trkpt lat="49.77388" lon="2.20776">
        <ele>142.4</ele>
        <time>2023-08-16T09:05:32Z</time>
      </trkpt>
      <trkpt lat="49.77389" lon="2.20773">
        <ele>142.4</ele>
        <time>2023-08-16T09:05:33Z</time>
      </trkpt>
      <trkpt lat="49.77389" lon="2.20772">
        <ele>142.4</ele>
        <time>2023-08-16T09:05:34Z</time>
      </trkpt>
      <trkpt lat="49.77389" lon="2.20771">
        <ele>142.4</ele>
        <time>2023-08-16T09:05:35Z</time>
      </trkpt>
      <trkpt lat="49.77389" lon="2.20767">
        <ele>142.4</ele>
        <time>2023-08-16T09:05:37Z</time>
      </trkpt>
      <trkpt lat="49.77389" lon="2.20766">
        <ele>142.4</ele>
        <time>2023-08-16T09:05:38Z</time>
      </trkpt>
      <trkpt lat="49.77389" lon="2.20764">
        <ele>142.4</ele>
        <time>2023-08-16T09:05:39Z</time>
      </trkpt>
      <trkpt lat="49.77388" lon="2.20763">
        <ele>142.5</ele>
        <time>2023-08-16T09:05:40Z</time>
      </trkpt>
      <trkpt lat="49.77388" lon="2.20761">
        <ele>142.5</ele>
        <time>2023-08-16T09:05:42Z</time>
      </trkpt>
      <trkpt lat="49.77388" lon="2.20759">
        <ele>142.5</ele>
        <time>2023-08-16T09:05:43Z</time>
      </trkpt>
      <trkpt lat="49.77388" lon="2.20758">
        <ele>142.5</ele>
        <time>2023-08-16T09:05:44Z</time>
      </trkpt>
      <trkpt lat="49.77388" lon="2.20756">
        <ele>142.5</ele>
        <time>2023-08-16T09:05:45Z</time>
      </trkpt>
      <trkpt lat="49.77388" lon="2.20754">
        <ele>142.5</ele>
        <time>2023-08-16T09:05:46Z</time>
      </trkpt>
      <trkpt lat="49.77388" lon="2.20753">
        <ele>142.5</ele>
        <time>2023-08-16T09:05:47Z</time>
      </trkpt>
      <trkpt lat="49.77388" lon="2.20752">
        <ele>142.4</ele>
        <time>2023-08-16T09:05:48Z</time>
      </trkpt>
      <trkpt lat="49.77388" lon="2.2075">
        <ele>142.4</ele>
        <time>2023-08-16T09:05:50Z</time>
      </trkpt>
      <trkpt lat="49.77388" lon="2.20748">
        <ele>142.4</ele>
        <time>2023-08-16T09:05:51Z</time>
      </trkpt>
      <trkpt lat="49.77389" lon="2.20747">
        <ele>142.4</ele>
        <time>2023-08-16T09:05:52Z</time>
      </trkpt>
      <trkpt lat="49.77389" lon="2.20746">
        <ele>142.4</ele>
        <time>2023-08-16T09:05:53Z</time>
      </trkpt>
      <trkpt lat="49.77389" lon="2.20745">
        <ele>142.4</ele>
        <time>2023-08-16T09:05:54Z</time>
      </trkpt>
      <trkpt lat="49.77389" lon="2.20743">
        <ele>142.4</ele>
        <time>2023-08-16T09:05:56Z</time>
      </trkpt>
      <trkpt lat="49.77389" lon="2.20742">
        <ele>142.4</ele>
        <time>2023-08-16T09:05:57Z</time>
      </trkpt>
      <trkpt lat="49.7739" lon="2.20741">
        <ele>142.3</ele>
        <time>2023-08-16T09:05:58Z</time>
      </trkpt>
      <trkpt lat="49.7739" lon="2.2074">
        <ele>142.3</ele>
        <time>2023-08-16T09:05:59Z</time>
      </trkpt>
      <trkpt lat="49.7739" lon="2.20739">
        <ele>142.3</ele>
        <time>2023-08-16T09:06:00Z</time>
      </trkpt>
      <trkpt lat="49.77391" lon="2.20739">
        <ele>142.3</ele>
        <time>2023-08-16T09:06:02Z</time>
      </trkpt>
      <trkpt lat="49.77391" lon="2.20739">
        <ele>142.3</ele>
        <time>2023-08-16T09:06:03Z</time>
      </trkpt>
      <trkpt lat="49.77391" lon="2.2074">
        <ele>142.3</ele>
        <time>2023-08-16T09:06:05Z</time>
      </trkpt>
      <trkpt lat="49.77391" lon="2.2074">
        <ele>142.3</ele>
        <time>2023-08-16T09:06:06Z</time>
      </trkpt>
      <trkpt lat="49.77391" lon="2.20741">
        <ele>142.3</ele>
        <time>2023-08-16T09:06:07Z</time>
      </trkpt>
      <trkpt lat="49.77391" lon="2.20741">
        <ele>142.3</ele>
        <time>2023-08-16T09:06:09Z</time>
      </trkpt>
      <trkpt lat="49.77391" lon="2.20742">
        <ele>142.3</ele>
        <time>2023-08-16T09:06:10Z</time>
      </trkpt>
      <trkpt lat="49.77391" lon="2.20742">
        <ele>142.3</ele>
        <time>2023-08-16T09:06:12Z</time>
      </trkpt>
      <trkpt lat="49.77391" lon="2.20742">
        <ele>142.3</ele>
        <time>2023-08-16T09:06:13Z</time>
      </trkpt>
      <trkpt lat="49.77391" lon="2.20743">
        <ele>142.3</ele>
        <time>2023-08-16T09:06:15Z</time>
      </trkpt>
      <trkpt lat="49.77392" lon="2.20744">
        <ele>142.3</ele>
        <time>2023-08-16T09:06:16Z</time>
      </trkpt>
      <trkpt lat="49.77392" lon="2.20745">
        <ele>142.2</ele>
        <time>2023-08-16T09:06:17Z</time>
      </trkpt>
      <trkpt lat="49.77391" lon="2.20747">
        <ele>142.2</ele>
        <time>2023-08-16T09:06:19Z</time>
      </trkpt>
      <trkpt lat="49.77391" lon="2.20747">
        <ele>142.2</ele>
        <time>2023-08-16T09:06:20Z</time>
      </trkpt>
      <trkpt lat="49.7739" lon="2.20748">
        <ele>142.2</ele>
        <time>2023-08-16T09:06:21Z</time>
      </trkpt>
      <trkpt lat="49.7739" lon="2.20748">
        <ele>142.2</ele>
        <time>2023-08-16T09:06:22Z</time>
      </trkpt>
      <trkpt lat="49.7739" lon="2.20748">
        <ele>142.2</ele>
        <time>2023-08-16T09:06:23Z</time>
      </trkpt>
      <trkpt lat="49.7739" lon="2.20748">
        <ele>142.2</ele>
        <time>2023-08-16T09:06:24Z</time>
      </trkpt>
      <trkpt lat="49.7739" lon="2.20748">
        <ele>142.2</ele>
        <time>2023-08-16T09:06:25Z</time>
      </trkpt>
      <trkpt lat="49.7739" lon="2.20748">
        <ele>142.2</ele>
        <time>2023-08-16T09:06:26Z</time>
      </trkpt>
      <trkpt lat="49.7739" lon="2.20748">
        <ele>142.2</ele>
        <time>2023-08-16T09:06:27Z</time>
      </trkpt>
      <trkpt lat="49.7739" lon="2.20748">
        <ele>142.2</ele>
        <time>2023-08-16T09:06:28Z</time>
      </trkpt>
      <trkpt lat="49.7739" lon="2.20748">
        <ele>142.2</ele>
        <time>2023-08-16T09:06:29Z</time>
      </trkpt>
      <trkpt lat="49.7739" lon="2.20748">
        <ele>142.2</ele>
        <time>2023-08-16T09:06:30Z</time>
      </trkpt>
      <trkpt lat="49.7739" lon="2.20748">
        <ele>142.2</ele>
        <time>2023-08-16T09:06:31Z</time>
      </trkpt>
      <trkpt lat="49.7739" lon="2.20748">
        <ele>142.2</ele>
        <time>2023-08-16T09:06:32Z</time>
      </trkpt>
      <trkpt lat="49.7739" lon="2.20748">
        <ele>142.2</ele>
        <time>2023-08-16T09:06:33Z</time>
      </trkpt>
      <trkpt lat="49.7739" lon="2.20748">
        <ele>142.2</ele>
        <time>2023-08-16T09:06:34Z</time>
      </trkpt>
      <trkpt lat="49.7739" lon="2.20748">
        <ele>142.2</ele>
        <time>2023-08-16T09:06:35Z</time>
      </trkpt>
      <trkpt lat="49.7739" lon="2.20748">
        <ele>142.2</ele>
        <time>2023-08-16T09:06:36Z</time>
      </trkpt>
      <trkpt lat="49.7739" lon="2.20748">
        <ele>142.2</ele>
        <time>2023-08-16T09:06:37Z</time>
      </trkpt>
      <trkpt lat="49.7739" lon="2.20748">
        <ele>142.2</ele>
        <time>2023-08-16T09:06:38Z</time>
      </trkpt>
      <trkpt lat="49.7739" lon="2.20748">
        <ele>142.2</ele>
        <time>2023-08-16T09:06:39Z</time>
      </trkpt>
      <trkpt lat="49.7739" lon="2.20748">
        <ele>142.2</ele>
        <time>2023-08-16T09:06:40Z</time>
      </trkpt>
      <trkpt lat="49.7739" lon="2.20748">
        <ele>142.2</ele>
        <time>2023-08-16T09:06:41Z</time>
      </trkpt>
      <trkpt lat="49.7739" lon="2.20748">
        <ele>142.2</ele>
        <time>2023-08-16T09:06:42Z</time>
      </trkpt>
      <trkpt lat="49.7739" lon="2.20748">
        <ele>142.2</ele>
        <time>2023-08-16T09:06:43Z</time>
      </trkpt>
      <trkpt lat="49.7739" lon="2.20748">
        <ele>142.2</ele>
        <time>2023-08-16T09:06:44Z</time>
      </trkpt>
      <trkpt lat="49.7739" lon="2.20748">
        <ele>142.2</ele>
        <time>2023-08-16T09:06:45Z</time>
      </trkpt>
      <trkpt lat="49.7739" lon="2.20748">
        <ele>142.2</ele>
        <time>2023-08-16T09:06:46Z</time>
      </trkpt>
      <trkpt lat="49.7739" lon="2.20748">
        <ele>142.2</ele>
        <time>2023-08-16T09:06:47Z</time>
      </trkpt>
      <trkpt lat="49.7739" lon="2.20748">
        <ele>142.2</ele>
        <time>2023-08-16T09:06:48Z</time>
      </trkpt>
      <trkpt lat="49.7739" lon="2.20748">
        <ele>142.2</ele>
        <time>2023-08-16T09:06:49Z</time>
      </trkpt>
      <trkpt lat="49.7739" lon="2.20748">
        <ele>142.2</ele>
        <time>2023-08-16T09:06:50Z</time>
      </trkpt>
      <trkpt lat="49.7739" lon="2.20748">
        <ele>142.2</ele>
        <time>2023-08-16T09:06:51Z</time>
      </trkpt>
      <trkpt lat="49.7739" lon="2.20748">
        <ele>142.2</ele>
        <time>2023-08-16T09:06:52Z</time>
      </trkpt>
      <trkpt lat="49.7739" lon="2.20748">
        <ele>142.2</ele>
        <time>2023-08-16T09:06:53Z</time>
      </trkpt>
      <trkpt lat="49.7739" lon="2.20748">
        <ele>142.2</ele>
        <time>2023-08-16T09:06:54Z</time>
      </trkpt>
      <trkpt lat="49.7739" lon="2.20748">
        <ele>142.2</ele>
        <time>2023-08-16T09:06:55Z</time>
      </trkpt>
      <trkpt lat="49.7739" lon="2.20748">
        <ele>142.2</ele>
        <time>2023-08-16T09:06:56Z</time>
      </trkpt>
      <trkpt lat="49.7739" lon="2.20748">
        <ele>142.2</ele>
        <time>2023-08-16T09:06:57Z</time>
      </trkpt>
      <trkpt lat="49.7739" lon="2.20748">
        <ele>142.2</ele>
        <time>2023-08-16T09:06:58Z</time>
      </trkpt>
      <trkpt lat="49.77389" lon="2.20749">
        <ele>142.2</ele>
        <time>2023-08-16T09:06:59Z</time>
      </trkpt>
      <trkpt lat="49.77389" lon="2.20749">
        <ele>142.2</ele>
        <time>2023-08-16T09:07:00Z</time>
      </trkpt>
      <trkpt lat="49.77389" lon="2.20749">
        <ele>142.2</ele>
        <time>2023-08-16T09:07:01Z</time>
      </trkpt>
      <trkpt lat="49.77389" lon="2.20749">
        <ele>142.2</ele>
        <time>2023-08-16T09:07:02Z</time>
      </trkpt>
      <trkpt lat="49.77389" lon="2.20749">
        <ele>142.2</ele>
        <time>2023-08-16T09:07:03Z</time>
      </trkpt>
      <trkpt lat="49.77389" lon="2.20749">
        <ele>142.2</ele>
        <time>2023-08-16T09:07:04Z</time>
      </trkpt>
      <trkpt lat="49.77389" lon="2.20749">
        <ele>142.2</ele>
        <time>2023-08-16T09:07:05Z</time>
      </trkpt>
      <trkpt lat="49.77389" lon="2.20749">
        <ele>142.2</ele>
        <time>2023-08-16T09:07:06Z</time>
      </trkpt>
      <trkpt lat="49.77389" lon="2.20749">
        <ele>142.2</ele>
        <time>2023-08-16T09:07:07Z</time>
      </trkpt>
      <trkpt lat="49.77389" lon="2.20749">
        <ele>142.2</ele>
        <time>2023-08-16T09:07:08Z</time>
      </trkpt>
      <trkpt lat="49.77389" lon="2.20749">
        <ele>142.2</ele>
        <time>2023-08-16T09:07:09Z</time>
      </trkpt>
      <trkpt lat="49.77389" lon="2.20749">
        <ele>142.2</ele>
        <time>2023-08-16T09:07:10Z</time>
      </trkpt>
      <trkpt lat="49.77389" lon="2.20749">
        <ele>142.2</ele>
        <time>2023-08-16T09:07:11Z</time>
      </trkpt>
      <trkpt lat="49.77389" lon="2.20749">
        <ele>142.2</ele>
        <time>2023-08-16T09:07:12Z</time>
      </trkpt>
      <trkpt lat="49.77389" lon="2.20749">
        <ele>142.2</ele>
        <time>2023-08-16T09:07:13Z</time>
      </trkpt>
      <trkpt lat="49.77389" lon="2.20749">
        <ele>142.2</ele>
        <time>2023-08-16T09:07:14Z</time>
      </trkpt>
      <trkpt lat="49.77389" lon="2.20749">
        <ele>142.2</ele>
        <time>2023-08-16T09:07:15Z</time>
      </trkpt>
      <trkpt lat="49.77389" lon="2.20749">
        <ele>142.2</ele>
        <time>2023-08-16T09:07:16Z</time>
      </trkpt>
      <trkpt lat="49.77389" lon="2.20749">
        <ele>142.2</ele>
        <time>2023-08-16T09:07:17Z</time>
      </trkpt>
      <trkpt lat="49.77389" lon="2.20749">
        <ele>142.2</ele>
        <time>2023-08-16T09:07:18Z</time>
      </trkpt>
      <trkpt lat="49.77389" lon="2.20749">
        <ele>142.2</ele>
        <time>2023-08-16T09:07:19Z</time>
      </trkpt>
      <trkpt lat="49.77389" lon="2.20749">
        <ele>142.2</ele>
        <time>2023-08-16T09:07:20Z</time>
      </trkpt>
      <trkpt lat="49.77389" lon="2.20749">
        <ele>142.2</ele>
        <time>2023-08-16T09:07:21Z</time>
      </trkpt>
      <trkpt lat="49.77389" lon="2.20749">
        <ele>142.2</ele>
        <time>2023-08-16T09:07:22Z</time>
      </trkpt>
      <trkpt lat="49.77389" lon="2.20749">
        <ele>142.2</ele>
        <time>2023-08-16T09:07:23Z</time>
      </trkpt>
      <trkpt lat="49.77389" lon="2.20749">
        <ele>142.2</ele>
        <time>2023-08-16T09:07:24Z</time>
      </trkpt>
      <trkpt lat="49.77389" lon="2.20749">
        <ele>142.2</ele>
        <time>2023-08-16T09:07:25Z</time>
      </trkpt>
      <trkpt lat="49.77389" lon="2.20749">
        <ele>142.2</ele>
        <time>2023-08-16T09:07:26Z</time>
      </trkpt>
      <trkpt lat="49.77389" lon="2.20749">
        <ele>142.2</ele>
        <time>2023-08-16T09:07:27Z</time>
      </trkpt>
      <trkpt lat="49.77389" lon="2.20749">
        <ele>142.2</ele>
        <time>2023-08-16T09:07:28Z</time>
      </trkpt>
      <trkpt lat="49.77389" lon="2.20749">
        <ele>142.2</ele>
        <time>2023-08-16T09:07:29Z</time>
      </trkpt>
      <trkpt lat="49.77389" lon="2.20749">
        <ele>142.2</ele>
        <time>2023-08-16T09:07:30Z</time>
      </trkpt>
      <trkpt lat="49.77389" lon="2.20749">
        <ele>142.2</ele>
        <time>2023-08-16T09:07:31Z</time>
      </trkpt>
      <trkpt lat="49.77389" lon="2.20749">
        <ele>142.2</ele>
        <time>2023-08-16T09:07:32Z</time>
      </trkpt>
      <trkpt lat="49.77389" lon="2.20749">
        <ele>142.2</ele>
        <time>2023-08-16T09:07:33Z</time>
      </trkpt>
      <trkpt lat="49.77389" lon="2.20749">
        <ele>142.2</ele>
        <time>2023-08-16T09:07:34Z</time>
      </trkpt>
      <trkpt lat="49.77389" lon="2.20749">
        <ele>142.2</ele>
        <time>2023-08-16T09:07:35Z</time>
      </trkpt>
      <trkpt lat="49.77389" lon="2.20749">
        <ele>142.2</ele>
        <time>2023-08-16T09:07:36Z</time>
      </trkpt>
      <trkpt lat="49.77389" lon="2.20749">
        <ele>142.2</ele>
        <time>2023-08-16T09:07:37Z</time>
      </trkpt>
      <trkpt lat="49.77389" lon="2.20749">
        <ele>142.2</ele>
        <time>2023-08-16T09:07:38Z</time>
      </trkpt>
      <trkpt lat="49.77389" lon="2.20749">
        <ele>142.2</ele>
        <time>2023-08-16T09:07:39Z</time>
      </trkpt>
      <trkpt lat="49.77389" lon="2.20749">
        <ele>142.2</ele>
        <time>2023-08-16T09:07:40Z</time>
      </trkpt>
      <trkpt lat="49.77389" lon="2.20749">
        <ele>142.2</ele>
        <time>2023-08-16T09:07:41Z</time>
      </trkpt>
      <trkpt lat="49.77389" lon="2.20749">
        <ele>142.2</ele>
        <time>2023-08-16T09:07:42Z</time>
      </trkpt>
      <trkpt lat="49.77389" lon="2.20749">
        <ele>142.2</ele>
        <time>2023-08-16T09:07:43Z</time>
      </trkpt>
      <trkpt lat="49.77389" lon="2.20749">
        <ele>142.2</ele>
        <time>2023-08-16T09:07:44Z</time>
      </trkpt>
      <trkpt lat="49.77389" lon="2.20749">
        <ele>142.2</ele>
        <time>2023-08-16T09:07:45Z</time>
      </trkpt>
      <trkpt lat="49.77389" lon="2.20749">
        <ele>142.2</ele>
        <time>2023-08-16T09:07:46Z</time>
      </trkpt>
      <trkpt lat="49.77389" lon="2.20749">
        <ele>142.2</ele>
        <time>2023-08-16T09:07:47Z</time>
      </trkpt>
      <trkpt lat="49.77389" lon="2.20749">
        <ele>142.2</ele>
        <time>2023-08-16T09:07:48Z</time>
      </trkpt>
      <trkpt lat="49.77389" lon="2.20749">
        <ele>142.2</ele>
        <time>2023-08-16T09:07:49Z</time>
      </trkpt>
      <trkpt lat="49.77389" lon="2.20749">
        <ele>142.2</ele>
        <time>2023-08-16T09:07:50Z</time>
      </trkpt>
      <trkpt lat="49.77389" lon="2.20749">
        <ele>142.2</ele>
        <time>2023-08-16T09:07:51Z</time>
      </trkpt>
      <trkpt lat="49.77389" lon="2.20749">
        <ele>142.2</ele>
        <time>2023-08-16T09:07:52Z</time>
      </trkpt>
      <trkpt lat="49.77389" lon="2.20749">
        <ele>142.2</ele>
        <time>2023-08-16T09:07:53Z</time>
      </trkpt>
      <trkpt lat="49.77389" lon="2.20749">
        <ele>142.2</ele>
        <time>2023-08-16T09:07:54Z</time>
      </trkpt>
      <trkpt lat="49.77389" lon="2.20749">
        <ele>142.2</ele>
        <time>2023-08-16T09:07:55Z</time>
      </trkpt>
      <trkpt lat="49.77389" lon="2.20749">
        <ele>142.2</ele>
        <time>2023-08-16T09:07:56Z</time>
      </trkpt>
      <trkpt lat="49.77389" lon="2.20749">
        <ele>142.2</ele>
        <time>2023-08-16T09:07:57Z</time>
      </trkpt>
      <trkpt lat="49.77389" lon="2.20749">
        <ele>142.2</ele>
        <time>2023-08-16T09:07:58Z</time>
      </trkpt>
      <trkpt lat="49.77389" lon="2.20749">
        <ele>142.2</ele>
        <time>2023-08-16T09:07:59Z</time>
      </trkpt>
      <trkpt lat="49.77389" lon="2.20749">
        <ele>142.2</ele>
        <time>2023-08-16T09:08:00Z</time>
      </trkpt>
      <trkpt lat="49.77389" lon="2.20749">
        <ele>142.2</ele>
        <time>2023-08-16T09:08:01Z</time>
      </trkpt>
      <trkpt lat="49.77389" lon="2.20749">
        <ele>142.2</ele>
        <time>2023-08-16T09:08:02Z</time>
      </trkpt>
      <trkpt lat="49.77389" lon="2.20749">
        <ele>142.2</ele>
        <time>2023-08-16T09:08:03Z</time>
      </trkpt>
      <trkpt lat="49.77389" lon="2.20749">
        <ele>142.2</ele>
        <time>2023-08-16T09:08:04Z</time>
      </trkpt>
      <trkpt lat="49.77389" lon="2.20749">
        <ele>142.2</ele>
        <time>2023-08-16T09:08:05Z</time>
      </trkpt>
      <trkpt lat="49.77389" lon="2.20749">
        <ele>142.2</ele>
        <time>2023-08-16T09:08:06Z</time>
      </trkpt>
      <trkpt lat="49.77389" lon="2.20749">
        <ele>142.2</ele>
        <time>2023-08-16T09:08:07Z</time>
      </trkpt>
      <trkpt lat="49.77389" lon="2.20749">
        <ele>142.2</ele>
        <time>2023-08-16T09:08:08Z</time>
      </trkpt>
      <trkpt lat="49.77389" lon="2.20749">
        <ele>142.2</ele>
        <time>2023-08-16T09:08:09Z</time>
      </trkpt>
      <trkpt lat="49.77389" lon="2.20749">
        <ele>142.2</ele>
        <time>2023-08-16T09:08:10Z</time>
      </trkpt>
      <trkpt lat="49.77389" lon="2.20749">
        <ele>142.2</ele>
        <time>2023-08-16T09:08:11Z</time>
      </trkpt>
      <trkpt lat="49.77389" lon="2.20749">
        <ele>142.2</ele>
        <time>2023-08-16T09:08:12Z</time>
      </trkpt>
      <trkpt lat="49.77389" lon="2.20749">
        <ele>142.2</ele>
        <time>2023-08-16T09:08:13Z</time>
      </trkpt>
      <trkpt lat="49.77389" lon="2.20749">
        <ele>142.2</ele>
        <time>2023-08-16T09:08:14Z</time>
      </trkpt>
      <trkpt lat="49.77389" lon="2.20749">
        <ele>142.2</ele>
        <time>2023-08-16T09:08:15Z</time>
      </trkpt>
      <trkpt lat="49.77388" lon="2.20749">
        <ele>142.2</ele>
        <time>2023-08-16T09:08:16Z</time>
      </trkpt>
      <trkpt lat="49.77388" lon="2.20749">
        <ele>142.2</ele>
        <time>2023-08-16T09:08:17Z</time>
      </trkpt>
      <trkpt lat="49.77389" lon="2.20748">
        <ele>142.2</ele>
        <time>2023-08-16T09:08:18Z</time>
      </trkpt>
      <trkpt lat="49.77389" lon="2.20748">
        <ele>142.2</ele>
        <time>2023-08-16T09:08:19Z</time>
      </trkpt>
      <trkpt lat="49.77389" lon="2.20747">
        <ele>142.1</ele>
        <time>2023-08-16T09:08:21Z</time>
      </trkpt>
      <trkpt lat="49.77389" lon="2.20747">
        <ele>142.1</ele>
        <time>2023-08-16T09:08:22Z</time>
      </trkpt>
      <trkpt lat="49.77388" lon="2.20746">
        <ele>142.1</ele>
        <time>2023-08-16T09:08:23Z</time>
      </trkpt>
      <trkpt lat="49.77388" lon="2.20744">
        <ele>142.1</ele>
        <time>2023-08-16T09:08:24Z</time>
      </trkpt>
      <trkpt lat="49.77388" lon="2.20743">
        <ele>142.1</ele>
        <time>2023-08-16T09:08:25Z</time>
      </trkpt>
      <trkpt lat="49.77388" lon="2.20741">
        <ele>142.1</ele>
        <time>2023-08-16T09:08:26Z</time>
      </trkpt>
      <trkpt lat="49.77388" lon="2.20739">
        <ele>142.1</ele>
        <time>2023-08-16T09:08:27Z</time>
      </trkpt>
      <trkpt lat="49.77388" lon="2.20736">
        <ele>142</ele>
        <time>2023-08-16T09:08:28Z</time>
      </trkpt>
      <trkpt lat="49.77388" lon="2.20734">
        <ele>142</ele>
        <time>2023-08-16T09:08:29Z</time>
      </trkpt>
      <trkpt lat="49.77388" lon="2.20731">
        <ele>142</ele>
        <time>2023-08-16T09:08:31Z</time>
      </trkpt>
      <trkpt lat="49.77388" lon="2.20729">
        <ele>141.9</ele>
        <time>2023-08-16T09:08:32Z</time>
      </trkpt>
      <trkpt lat="49.77388" lon="2.20728">
        <ele>141.9</ele>
        <time>2023-08-16T09:08:33Z</time>
      </trkpt>
      <trkpt lat="49.77388" lon="2.20726">
        <ele>141.9</ele>
        <time>2023-08-16T09:08:34Z</time>
      </trkpt>
      <trkpt lat="49.77388" lon="2.20725">
        <ele>141.9</ele>
        <time>2023-08-16T09:08:35Z</time>
      </trkpt>
      <trkpt lat="49.77389" lon="2.20724">
        <ele>141.9</ele>
        <time>2023-08-16T09:08:36Z</time>
      </trkpt>
      <trkpt lat="49.77389" lon="2.20722">
        <ele>141.9</ele>
        <time>2023-08-16T09:08:38Z</time>
      </trkpt>
      <trkpt lat="49.77389" lon="2.2072">
        <ele>141.8</ele>
        <time>2023-08-16T09:08:39Z</time>
      </trkpt>
      <trkpt lat="49.77389" lon="2.20717">
        <ele>141.8</ele>
        <time>2023-08-16T09:08:40Z</time>
      </trkpt>
      <trkpt lat="49.77389" lon="2.20716">
        <ele>141.8</ele>
        <time>2023-08-16T09:08:41Z</time>
      </trkpt>
      <trkpt lat="49.77389" lon="2.20715">
        <ele>141.8</ele>
        <time>2023-08-16T09:08:42Z</time>
      </trkpt>
      <trkpt lat="49.77391" lon="2.20712">
        <ele>141.8</ele>
        <time>2023-08-16T09:08:44Z</time>
      </trkpt>
      <trkpt lat="49.77391" lon="2.20711">
        <ele>141.7</ele>
        <time>2023-08-16T09:08:45Z</time>
      </trkpt>
      <trkpt lat="49.77392" lon="2.2071">
        <ele>141.7</ele>
        <time>2023-08-16T09:08:46Z</time>
      </trkpt>
      <trkpt lat="49.77392" lon="2.20709">
        <ele>141.7</ele>
        <time>2023-08-16T09:08:48Z</time>
      </trkpt>
      <trkpt lat="49.77392" lon="2.20708">
        <ele>141.7</ele>
        <time>2023-08-16T09:08:49Z</time>
      </trkpt>
      <trkpt lat="49.77392" lon="2.20707">
        <ele>141.7</ele>
        <time>2023-08-16T09:08:50Z</time>
      </trkpt>
      <trkpt lat="49.77392" lon="2.20706">
        <ele>141.7</ele>
        <time>2023-08-16T09:08:51Z</time>
      </trkpt>
      <trkpt lat="49.77393" lon="2.20705">
        <ele>141.7</ele>
        <time>2023-08-16T09:08:52Z</time>
      </trkpt>
      <trkpt lat="49.77394" lon="2.20704">
        <ele>141.7</ele>
        <time>2023-08-16T09:08:54Z</time>
      </trkpt>
      <trkpt lat="49.77394" lon="2.20704">
        <ele>141.7</ele>
        <time>2023-08-16T09:08:55Z</time>
      </trkpt>
      <trkpt lat="49.77394" lon="2.20704">
        <ele>141.7</ele>
        <time>2023-08-16T09:08:56Z</time>
      </trkpt>
      <trkpt lat="49.77393" lon="2.20705">
        <ele>141.7</ele>
        <time>2023-08-16T09:08:58Z</time>
      </trkpt>
      <trkpt lat="49.77393" lon="2.20705">
        <ele>141.7</ele>
        <time>2023-08-16T09:08:59Z</time>
      </trkpt>
      <trkpt lat="49.77393" lon="2.20705">
        <ele>141.7</ele>
        <time>2023-08-16T09:09:01Z</time>
      </trkpt>
      <trkpt lat="49.77393" lon="2.20705">
        <ele>141.7</ele>
        <time>2023-08-16T09:09:02Z</time>
      </trkpt>
      <trkpt lat="49.77394" lon="2.20705">
        <ele>141.7</ele>
        <time>2023-08-16T09:09:04Z</time>
      </trkpt>
      <trkpt lat="49.77394" lon="2.20705">
        <ele>141.7</ele>
        <time>2023-08-16T09:09:05Z</time>
      </trkpt>
      <trkpt lat="49.77394" lon="2.20705">
        <ele>141.7</ele>
        <time>2023-08-16T09:09:06Z</time>
      </trkpt>
      <trkpt lat="49.77394" lon="2.20704">
        <ele>141.7</ele>
        <time>2023-08-16T09:09:08Z</time>
      </trkpt>
      <trkpt lat="49.77394" lon="2.20704">
        <ele>141.7</ele>
        <time>2023-08-16T09:09:09Z</time>
      </trkpt>
      <trkpt lat="49.77393" lon="2.20705">
        <ele>141.7</ele>
        <time>2023-08-16T09:09:11Z</time>
      </trkpt>
      <trkpt lat="49.77393" lon="2.20705">
        <ele>141.7</ele>
        <time>2023-08-16T09:09:12Z</time>
      </trkpt>
      <trkpt lat="49.77393" lon="2.20705">
        <ele>141.7</ele>
        <time>2023-08-16T09:09:13Z</time>
      </trkpt>
      <trkpt lat="49.77394" lon="2.20703">
        <ele>141.7</ele>
        <time>2023-08-16T09:09:14Z</time>
      </trkpt>
      <trkpt lat="49.77394" lon="2.20701">
        <ele>141.6</ele>
        <time>2023-08-16T09:09:15Z</time>
      </trkpt>
      <trkpt lat="49.77394" lon="2.20701">
        <ele>141.6</ele>
        <time>2023-08-16T09:09:16Z</time>
      </trkpt>
      <trkpt lat="49.77394" lon="2.20699">
        <ele>141.6</ele>
        <time>2023-08-16T09:09:18Z</time>
      </trkpt>
      <trkpt lat="49.77394" lon="2.20698">
        <ele>141.6</ele>
        <time>2023-08-16T09:09:19Z</time>
      </trkpt>
      <trkpt lat="49.77394" lon="2.20697">
        <ele>141.6</ele>
        <time>2023-08-16T09:09:20Z</time>
      </trkpt>
      <trkpt lat="49.77394" lon="2.20695">
        <ele>141.6</ele>
        <time>2023-08-16T09:09:21Z</time>
      </trkpt>
      <trkpt lat="49.77393" lon="2.20692">
        <ele>141.6</ele>
        <time>2023-08-16T09:09:22Z</time>
      </trkpt>
      <trkpt lat="49.77393" lon="2.20691">
        <ele>141.6</ele>
        <time>2023-08-16T09:09:23Z</time>
      </trkpt>
      <trkpt lat="49.77392" lon="2.2069">
        <ele>141.6</ele>
        <time>2023-08-16T09:09:24Z</time>
      </trkpt>
      <trkpt lat="49.77392" lon="2.20688">
        <ele>141.6</ele>
        <time>2023-08-16T09:09:26Z</time>
      </trkpt>
      <trkpt lat="49.77391" lon="2.20688">
        <ele>141.6</ele>
        <time>2023-08-16T09:09:27Z</time>
      </trkpt>
      <trkpt lat="49.77391" lon="2.20688">
        <ele>141.6</ele>
        <time>2023-08-16T09:09:28Z</time>
      </trkpt>
      <trkpt lat="49.77391" lon="2.20687">
        <ele>141.5</ele>
        <time>2023-08-16T09:09:29Z</time>
      </trkpt>
      <trkpt lat="49.77391" lon="2.20685">
        <ele>141.5</ele>
        <time>2023-08-16T09:09:30Z</time>
      </trkpt>
      <trkpt lat="49.77391" lon="2.20682">
        <ele>141.5</ele>
        <time>2023-08-16T09:09:31Z</time>
      </trkpt>
      <trkpt lat="49.77391" lon="2.2068">
        <ele>141.5</ele>
        <time>2023-08-16T09:09:33Z</time>
      </trkpt>
      <trkpt lat="49.77391" lon="2.20679">
        <ele>141.5</ele>
        <time>2023-08-16T09:09:34Z</time>
      </trkpt>
      <trkpt lat="49.77391" lon="2.20677">
        <ele>141.5</ele>
        <time>2023-08-16T09:09:35Z</time>
      </trkpt>
      <trkpt lat="49.77391" lon="2.20675">
        <ele>141.5</ele>
        <time>2023-08-16T09:09:36Z</time>
      </trkpt>
      <trkpt lat="49.77392" lon="2.20673">
        <ele>141.4</ele>
        <time>2023-08-16T09:09:37Z</time>
      </trkpt>
      <trkpt lat="49.77392" lon="2.20671">
        <ele>141.4</ele>
        <time>2023-08-16T09:09:38Z</time>
      </trkpt>
      <trkpt lat="49.77393" lon="2.20668">
        <ele>141.4</ele>
        <time>2023-08-16T09:09:40Z</time>
      </trkpt>
      <trkpt lat="49.77394" lon="2.20667">
        <ele>141.4</ele>
        <time>2023-08-16T09:09:42Z</time>
      </trkpt>
      <trkpt lat="49.77395" lon="2.20667">
        <ele>141.4</ele>
        <time>2023-08-16T09:09:43Z</time>
      </trkpt>
      <trkpt lat="49.77395" lon="2.20665">
        <ele>141.3</ele>
        <time>2023-08-16T09:09:44Z</time>
      </trkpt>
      <trkpt lat="49.77395" lon="2.20662">
        <ele>141.3</ele>
        <time>2023-08-16T09:09:45Z</time>
      </trkpt>
      <trkpt lat="49.77395" lon="2.2066">
        <ele>141.3</ele>
        <time>2023-08-16T09:09:46Z</time>
      </trkpt>
      <trkpt lat="49.77395" lon="2.20657">
        <ele>141.2</ele>
        <time>2023-08-16T09:09:47Z</time>
      </trkpt>
      <trkpt lat="49.77397" lon="2.20652">
        <ele>141.2</ele>
        <time>2023-08-16T09:09:49Z</time>
      </trkpt>
      <trkpt lat="49.77397" lon="2.2065">
        <ele>141.1</ele>
        <time>2023-08-16T09:09:50Z</time>
      </trkpt>
      <trkpt lat="49.77398" lon="2.20646">
        <ele>141.1</ele>
        <time>2023-08-16T09:09:51Z</time>
      </trkpt>
      <trkpt lat="49.77398" lon="2.20645">
        <ele>141.1</ele>
        <time>2023-08-16T09:09:52Z</time>
      </trkpt>
      <trkpt lat="49.77399" lon="2.20643">
        <ele>141</ele>
        <time>2023-08-16T09:09:53Z</time>
      </trkpt>
      <trkpt lat="49.77399" lon="2.2064">
        <ele>141</ele>
        <time>2023-08-16T09:09:54Z</time>
      </trkpt>
      <trkpt lat="49.77399" lon="2.20638">
        <ele>141</ele>
        <time>2023-08-16T09:09:55Z</time>
      </trkpt>
      <trkpt lat="49.774" lon="2.20636">
        <ele>141</ele>
        <time>2023-08-16T09:09:56Z</time>
      </trkpt>
      <trkpt lat="49.774" lon="2.20634">
        <ele>140.9</ele>
        <time>2023-08-16T09:09:58Z</time>
      </trkpt>
      <trkpt lat="49.77401" lon="2.20631">
        <ele>140.9</ele>
        <time>2023-08-16T09:09:59Z</time>
      </trkpt>
      <trkpt lat="49.77401" lon="2.20628">
        <ele>140.9</ele>
        <time>2023-08-16T09:10:00Z</time>
      </trkpt>
      <trkpt lat="49.77401" lon="2.20627">
        <ele>140.9</ele>
        <time>2023-08-16T09:10:01Z</time>
      </trkpt>
      <trkpt lat="49.77402" lon="2.20626">
        <ele>140.8</ele>
        <time>2023-08-16T09:10:02Z</time>
      </trkpt>
      <trkpt lat="49.77402" lon="2.20624">
        <ele>140.8</ele>
        <time>2023-08-16T09:10:03Z</time>
      </trkpt>
      <trkpt lat="49.77402" lon="2.20621">
        <ele>140.8</ele>
        <time>2023-08-16T09:10:04Z</time>
      </trkpt>
      <trkpt lat="49.77403" lon="2.20619">
        <ele>140.8</ele>
        <time>2023-08-16T09:10:05Z</time>
      </trkpt>
      <trkpt lat="49.77403" lon="2.20617">
        <ele>140.7</ele>
        <time>2023-08-16T09:10:07Z</time>
      </trkpt>
      <trkpt lat="49.77403" lon="2.20616">
        <ele>140.7</ele>
        <time>2023-08-16T09:10:08Z</time>
      </trkpt>
      <trkpt lat="49.77404" lon="2.20613">
        <ele>140.7</ele>
        <time>2023-08-16T09:10:09Z</time>
      </trkpt>
      <trkpt lat="49.77404" lon="2.20611">
        <ele>140.7</ele>
        <time>2023-08-16T09:10:10Z</time>
      </trkpt>
      <trkpt lat="49.77404" lon="2.2061">
        <ele>140.7</ele>
        <time>2023-08-16T09:10:11Z</time>
      </trkpt>
      <trkpt lat="49.77404" lon="2.20607">
        <ele>140.6</ele>
        <time>2023-08-16T09:10:12Z</time>
      </trkpt>
      <trkpt lat="49.77404" lon="2.20605">
        <ele>140.6</ele>
        <time>2023-08-16T09:10:13Z</time>
      </trkpt>
      <trkpt lat="49.77404" lon="2.20604">
        <ele>140.6</ele>
        <time>2023-08-16T09:10:14Z</time>
      </trkpt>
      <trkpt lat="49.77403" lon="2.20601">
        <ele>140.5</ele>
        <time>2023-08-16T09:10:16Z</time>
      </trkpt>
      <trkpt lat="49.77403" lon="2.20599">
        <ele>140.5</ele>
        <time>2023-08-16T09:10:17Z</time>
      </trkpt>
      <trkpt lat="49.77403" lon="2.20597">
        <ele>140.4</ele>
        <time>2023-08-16T09:10:18Z</time>
      </trkpt>
      <trkpt lat="49.77403" lon="2.20595">
        <ele>140.4</ele>
        <time>2023-08-16T09:10:19Z</time>
      </trkpt>
      <trkpt lat="49.77403" lon="2.20593">
        <ele>140.4</ele>
        <time>2023-08-16T09:10:20Z</time>
      </trkpt>
      <trkpt lat="49.77402" lon="2.2059">
        <ele>140.3</ele>
        <time>2023-08-16T09:10:21Z</time>
      </trkpt>
      <trkpt lat="49.77402" lon="2.20589">
        <ele>140.3</ele>
        <time>2023-08-16T09:10:22Z</time>
      </trkpt>
      <trkpt lat="49.77402" lon="2.20588">
        <ele>140.3</ele>
        <time>2023-08-16T09:10:23Z</time>
      </trkpt>
      <trkpt lat="49.77402" lon="2.20585">
        <ele>140.2</ele>
        <time>2023-08-16T09:10:25Z</time>
      </trkpt>
      <trkpt lat="49.77402" lon="2.20583">
        <ele>140.2</ele>
        <time>2023-08-16T09:10:27Z</time>
      </trkpt>
      <trkpt lat="49.77402" lon="2.20581">
        <ele>140.2</ele>
        <time>2023-08-16T09:10:28Z</time>
      </trkpt>
      <trkpt lat="49.77402" lon="2.20579">
        <ele>140.2</ele>
        <time>2023-08-16T09:10:29Z</time>
      </trkpt>
      <trkpt lat="49.77402" lon="2.20578">
        <ele>140.2</ele>
        <time>2023-08-16T09:10:30Z</time>
      </trkpt>
      <trkpt lat="49.77402" lon="2.20576">
        <ele>140.1</ele>
        <time>2023-08-16T09:10:31Z</time>
      </trkpt>
      <trkpt lat="49.77402" lon="2.20574">
        <ele>140.1</ele>
        <time>2023-08-16T09:10:32Z</time>
      </trkpt>
      <trkpt lat="49.77403" lon="2.20573">
        <ele>140.1</ele>
        <time>2023-08-16T09:10:33Z</time>
      </trkpt>
      <trkpt lat="49.77403" lon="2.20571">
        <ele>140.1</ele>
        <time>2023-08-16T09:10:35Z</time>
      </trkpt>
      <trkpt lat="49.77403" lon="2.20569">
        <ele>140.1</ele>
        <time>2023-08-16T09:10:36Z</time>
      </trkpt>
      <trkpt lat="49.77403" lon="2.20568">
        <ele>140.1</ele>
        <time>2023-08-16T09:10:37Z</time>
      </trkpt>
      <trkpt lat="49.77403" lon="2.20566">
        <ele>140</ele>
        <time>2023-08-16T09:10:38Z</time>
      </trkpt>
      <trkpt lat="49.77403" lon="2.20565">
        <ele>140</ele>
        <time>2023-08-16T09:10:39Z</time>
      </trkpt>
      <trkpt lat="49.77403" lon="2.20563">
        <ele>140</ele>
        <time>2023-08-16T09:10:40Z</time>
      </trkpt>
      <trkpt lat="49.77403" lon="2.20559">
        <ele>140</ele>
        <time>2023-08-16T09:10:42Z</time>
      </trkpt>
      <trkpt lat="49.77403" lon="2.20558">
        <ele>140</ele>
        <time>2023-08-16T09:10:43Z</time>
      </trkpt>
      <trkpt lat="49.77403" lon="2.20557">
        <ele>140</ele>
        <time>2023-08-16T09:10:44Z</time>
      </trkpt>
      <trkpt lat="49.77403" lon="2.20555">
        <ele>139.9</ele>
        <time>2023-08-16T09:10:45Z</time>
      </trkpt>
      <trkpt lat="49.77403" lon="2.20554">
        <ele>139.9</ele>
        <time>2023-08-16T09:10:46Z</time>
      </trkpt>
      <trkpt lat="49.77403" lon="2.20552">
        <ele>139.9</ele>
        <time>2023-08-16T09:10:47Z</time>
      </trkpt>
      <trkpt lat="49.77403" lon="2.20549">
        <ele>139.9</ele>
        <time>2023-08-16T09:10:49Z</time>
      </trkpt>
      <trkpt lat="49.77403" lon="2.20547">
        <ele>139.9</ele>
        <time>2023-08-16T09:10:50Z</time>
      </trkpt>
      <trkpt lat="49.77403" lon="2.20546">
        <ele>139.9</ele>
        <time>2023-08-16T09:10:51Z</time>
      </trkpt>
      <trkpt lat="49.77403" lon="2.20544">
        <ele>139.8</ele>
        <time>2023-08-16T09:10:52Z</time>
      </trkpt>
      <trkpt lat="49.77403" lon="2.20543">
        <ele>139.8</ele>
        <time>2023-08-16T09:10:53Z</time>
      </trkpt>
      <trkpt lat="49.77403" lon="2.2054">
        <ele>139.8</ele>
        <time>2023-08-16T09:10:55Z</time>
      </trkpt>
      <trkpt lat="49.77403" lon="2.20538">
        <ele>139.8</ele>
        <time>2023-08-16T09:10:56Z</time>
      </trkpt>
      <trkpt lat="49.77403" lon="2.20536">
        <ele>139.7</ele>
        <time>2023-08-16T09:10:57Z</time>
      </trkpt>
      <trkpt lat="49.77403" lon="2.20534">
        <ele>139.7</ele>
        <time>2023-08-16T09:10:58Z</time>
      </trkpt>
      <trkpt lat="49.77403" lon="2.20533">
        <ele>139.7</ele>
        <time>2023-08-16T09:10:59Z</time>
      </trkpt>
      <trkpt lat="49.77403" lon="2.20531">
        <ele>139.7</ele>
        <time>2023-08-16T09:11:00Z</time>
      </trkpt>
      <trkpt lat="49.77403" lon="2.20528">
        <ele>139.6</ele>
        <time>2023-08-16T09:11:02Z</time>
      </trkpt>
      <trkpt lat="49.77403" lon="2.20526">
        <ele>139.6</ele>
        <time>2023-08-16T09:11:03Z</time>
      </trkpt>
      <trkpt lat="49.77403" lon="2.20525">
        <ele>139.6</ele>
        <time>2023-08-16T09:11:04Z</time>
      </trkpt>
      <trkpt lat="49.77404" lon="2.20523">
        <ele>139.6</ele>
        <time>2023-08-16T09:11:05Z</time>
      </trkpt>
      <trkpt lat="49.77404" lon="2.20521">
        <ele>139.6</ele>
        <time>2023-08-16T09:11:06Z</time>
      </trkpt>
      <trkpt lat="49.77405" lon="2.20519">
        <ele>139.5</ele>
        <time>2023-08-16T09:11:07Z</time>
      </trkpt>
      <trkpt lat="49.77406" lon="2.20518">
        <ele>139.5</ele>
        <time>2023-08-16T09:11:08Z</time>
      </trkpt>
      <trkpt lat="49.77406" lon="2.20516">
        <ele>139.5</ele>
        <time>2023-08-16T09:11:10Z</time>
      </trkpt>
      <trkpt lat="49.77407" lon="2.20513">
        <ele>139.4</ele>
        <time>2023-08-16T09:11:11Z</time>
      </trkpt>
      <trkpt lat="49.77407" lon="2.20511">
        <ele>139.4</ele>
        <time>2023-08-16T09:11:12Z</time>
      </trkpt>
      <trkpt lat="49.77408" lon="2.2051">
        <ele>139.4</ele>
        <time>2023-08-16T09:11:13Z</time>
      </trkpt>
      <trkpt lat="49.77408" lon="2.20508">
        <ele>139.3</ele>
        <time>2023-08-16T09:11:14Z</time>
      </trkpt>
      <trkpt lat="49.77408" lon="2.20506">
        <ele>139.3</ele>
        <time>2023-08-16T09:11:16Z</time>
      </trkpt>
      <trkpt lat="49.77409" lon="2.20504">
        <ele>139.3</ele>
        <time>2023-08-16T09:11:17Z</time>
      </trkpt>
      <trkpt lat="49.77409" lon="2.20502">
        <ele>139.2</ele>
        <time>2023-08-16T09:11:18Z</time>
      </trkpt>
      <trkpt lat="49.7741" lon="2.20501">
        <ele>139.2</ele>
        <time>2023-08-16T09:11:19Z</time>
      </trkpt>
      <trkpt lat="49.7741" lon="2.20499">
        <ele>139.2</ele>
        <time>2023-08-16T09:11:20Z</time>
      </trkpt>
      <trkpt lat="49.7741" lon="2.20497">
        <ele>139.1</ele>
        <time>2023-08-16T09:11:21Z</time>
      </trkpt>
      <trkpt lat="49.7741" lon="2.20495">
        <ele>139.1</ele>
        <time>2023-08-16T09:11:22Z</time>
      </trkpt>
      <trkpt lat="49.77411" lon="2.20492">
        <ele>139.1</ele>
        <time>2023-08-16T09:11:23Z</time>
      </trkpt>
      <trkpt lat="49.77411" lon="2.2049">
        <ele>139</ele>
        <time>2023-08-16T09:11:25Z</time>
      </trkpt>
      <trkpt lat="49.77411" lon="2.20489">
        <ele>139</ele>
        <time>2023-08-16T09:11:26Z</time>
      </trkpt>
      <trkpt lat="49.77411" lon="2.20486">
        <ele>138.9</ele>
        <time>2023-08-16T09:11:27Z</time>
      </trkpt>
      <trkpt lat="49.77411" lon="2.20484">
        <ele>138.9</ele>
        <time>2023-08-16T09:11:29Z</time>
      </trkpt>
      <trkpt lat="49.77411" lon="2.20483">
        <ele>138.9</ele>
        <time>2023-08-16T09:11:30Z</time>
      </trkpt>
      <trkpt lat="49.77411" lon="2.20481">
        <ele>138.8</ele>
        <time>2023-08-16T09:11:31Z</time>
      </trkpt>
      <trkpt lat="49.77411" lon="2.20479">
        <ele>138.8</ele>
        <time>2023-08-16T09:11:32Z</time>
      </trkpt>
      <trkpt lat="49.77411" lon="2.20476">
        <ele>138.8</ele>
        <time>2023-08-16T09:11:33Z</time>
      </trkpt>
      <trkpt lat="49.77412" lon="2.20474">
        <ele>138.7</ele>
        <time>2023-08-16T09:11:34Z</time>
      </trkpt>
      <trkpt lat="49.77412" lon="2.20471">
        <ele>138.7</ele>
        <time>2023-08-16T09:11:36Z</time>
      </trkpt>
      <trkpt lat="49.77412" lon="2.20469">
        <ele>138.6</ele>
        <time>2023-08-16T09:11:37Z</time>
      </trkpt>
      <trkpt lat="49.77412" lon="2.20468">
        <ele>138.6</ele>
        <time>2023-08-16T09:11:38Z</time>
      </trkpt>
      <trkpt lat="49.77412" lon="2.20465">
        <ele>138.5</ele>
        <time>2023-08-16T09:11:39Z</time>
      </trkpt>
      <trkpt lat="49.77412" lon="2.20464">
        <ele>138.5</ele>
        <time>2023-08-16T09:11:40Z</time>
      </trkpt>
      <trkpt lat="49.77413" lon="2.20462">
        <ele>138.5</ele>
        <time>2023-08-16T09:11:41Z</time>
      </trkpt>
      <trkpt lat="49.77413" lon="2.2046">
        <ele>138.4</ele>
        <time>2023-08-16T09:11:42Z</time>
      </trkpt>
      <trkpt lat="49.77413" lon="2.20458">
        <ele>138.4</ele>
        <time>2023-08-16T09:11:43Z</time>
      </trkpt>
      <trkpt lat="49.77413" lon="2.20456">
        <ele>138.3</ele>
        <time>2023-08-16T09:11:45Z</time>
      </trkpt>
      <trkpt lat="49.77413" lon="2.20453">
        <ele>138.3</ele>
        <time>2023-08-16T09:11:46Z</time>
      </trkpt>
      <trkpt lat="49.77414" lon="2.20452">
        <ele>138.2</ele>
        <time>2023-08-16T09:11:47Z</time>
      </trkpt>
      <trkpt lat="49.77414" lon="2.2045">
        <ele>138.2</ele>
        <time>2023-08-16T09:11:48Z</time>
      </trkpt>
      <trkpt lat="49.77414" lon="2.20447">
        <ele>138.1</ele>
        <time>2023-08-16T09:11:49Z</time>
      </trkpt>
      <trkpt lat="49.77414" lon="2.20446">
        <ele>138.1</ele>
        <time>2023-08-16T09:11:50Z</time>
      </trkpt>
      <trkpt lat="49.77414" lon="2.20445">
        <ele>138.1</ele>
        <time>2023-08-16T09:11:51Z</time>
      </trkpt>
      <trkpt lat="49.77414" lon="2.20443">
        <ele>138</ele>
        <time>2023-08-16T09:11:52Z</time>
      </trkpt>
      <trkpt lat="49.77414" lon="2.20439">
        <ele>137.9</ele>
        <time>2023-08-16T09:11:54Z</time>
      </trkpt>
      <trkpt lat="49.77415" lon="2.20438">
        <ele>137.9</ele>
        <time>2023-08-16T09:11:55Z</time>
      </trkpt>
      <trkpt lat="49.77415" lon="2.20436">
        <ele>137.9</ele>
        <time>2023-08-16T09:11:57Z</time>
      </trkpt>
      <trkpt lat="49.77415" lon="2.20434">
        <ele>137.8</ele>
        <time>2023-08-16T09:11:58Z</time>
      </trkpt>
      <trkpt lat="49.77415" lon="2.20431">
        <ele>137.7</ele>
        <time>2023-08-16T09:11:59Z</time>
      </trkpt>
      <trkpt lat="49.77415" lon="2.2043">
        <ele>137.7</ele>
        <time>2023-08-16T09:12:00Z</time>
      </trkpt>
      <trkpt lat="49.77416" lon="2.20428">
        <ele>137.7</ele>
        <time>2023-08-16T09:12:01Z</time>
      </trkpt>
      <trkpt lat="49.77416" lon="2.20426">
        <ele>137.6</ele>
        <time>2023-08-16T09:12:02Z</time>
      </trkpt>
      <trkpt lat="49.77416" lon="2.20424">
        <ele>137.5</ele>
        <time>2023-08-16T09:12:03Z</time>
      </trkpt>
      <trkpt lat="49.77416" lon="2.20422">
        <ele>137.5</ele>
        <time>2023-08-16T09:12:05Z</time>
      </trkpt>
      <trkpt lat="49.77416" lon="2.2042">
        <ele>137.4</ele>
        <time>2023-08-16T09:12:06Z</time>
      </trkpt>
      <trkpt lat="49.77417" lon="2.20418">
        <ele>137.3</ele>
        <time>2023-08-16T09:12:07Z</time>
      </trkpt>
      <trkpt lat="49.77417" lon="2.20416">
        <ele>137.3</ele>
        <time>2023-08-16T09:12:08Z</time>
      </trkpt>
      <trkpt lat="49.77417" lon="2.20413">
        <ele>137.2</ele>
        <time>2023-08-16T09:12:09Z</time>
      </trkpt>
      <trkpt lat="49.77417" lon="2.2041">
        <ele>137.1</ele>
        <time>2023-08-16T09:12:10Z</time>
      </trkpt>
      <trkpt lat="49.77417" lon="2.20408">
        <ele>137.1</ele>
        <time>2023-08-16T09:12:12Z</time>
      </trkpt>
      <trkpt lat="49.77417" lon="2.20407">
        <ele>137</ele>
        <time>2023-08-16T09:12:13Z</time>
      </trkpt>
      <trkpt lat="49.77418" lon="2.20405">
        <ele>137</ele>
        <time>2023-08-16T09:12:14Z</time>
      </trkpt>
      <trkpt lat="49.77418" lon="2.20403">
        <ele>136.9</ele>
        <time>2023-08-16T09:12:15Z</time>
      </trkpt>
      <trkpt lat="49.77418" lon="2.20401">
        <ele>136.9</ele>
        <time>2023-08-16T09:12:16Z</time>
      </trkpt>
      <trkpt lat="49.77418" lon="2.204">
        <ele>136.8</ele>
        <time>2023-08-16T09:12:17Z</time>
      </trkpt>
      <trkpt lat="49.77419" lon="2.20398">
        <ele>136.7</ele>
        <time>2023-08-16T09:12:18Z</time>
      </trkpt>
      <trkpt lat="49.77419" lon="2.20397">
        <ele>136.7</ele>
        <time>2023-08-16T09:12:19Z</time>
      </trkpt>
      <trkpt lat="49.7742" lon="2.20395">
        <ele>136.6</ele>
        <time>2023-08-16T09:12:21Z</time>
      </trkpt>
      <trkpt lat="49.7742" lon="2.20393">
        <ele>136.6</ele>
        <time>2023-08-16T09:12:22Z</time>
      </trkpt>
      <trkpt lat="49.7742" lon="2.20392">
        <ele>136.6</ele>
        <time>2023-08-16T09:12:23Z</time>
      </trkpt>
      <trkpt lat="49.7742" lon="2.20391">
        <ele>136.5</ele>
        <time>2023-08-16T09:12:24Z</time>
      </trkpt>
      <trkpt lat="49.7742" lon="2.20389">
        <ele>136.5</ele>
        <time>2023-08-16T09:12:25Z</time>
      </trkpt>
      <trkpt lat="49.77421" lon="2.20388">
        <ele>136.4</ele>
        <time>2023-08-16T09:12:26Z</time>
      </trkpt>
      <trkpt lat="49.77421" lon="2.20386">
        <ele>136.4</ele>
        <time>2023-08-16T09:12:27Z</time>
      </trkpt>
      <trkpt lat="49.77422" lon="2.20385">
        <ele>136.3</ele>
        <time>2023-08-16T09:12:28Z</time>
      </trkpt>
      <trkpt lat="49.77422" lon="2.20383">
        <ele>136.3</ele>
        <time>2023-08-16T09:12:30Z</time>
      </trkpt>
      <trkpt lat="49.77422" lon="2.20381">
        <ele>136.2</ele>
        <time>2023-08-16T09:12:31Z</time>
      </trkpt>
      <trkpt lat="49.77423" lon="2.2038">
        <ele>136.1</ele>
        <time>2023-08-16T09:12:32Z</time>
      </trkpt>
      <trkpt lat="49.77423" lon="2.20378">
        <ele>136.1</ele>
        <time>2023-08-16T09:12:33Z</time>
      </trkpt>
      <trkpt lat="49.77424" lon="2.20377">
        <ele>136</ele>
        <time>2023-08-16T09:12:34Z</time>
      </trkpt>
      <trkpt lat="49.77425" lon="2.20375">
        <ele>136</ele>
        <time>2023-08-16T09:12:35Z</time>
      </trkpt>
      <trkpt lat="49.77425" lon="2.20374">
        <ele>135.9</ele>
        <time>2023-08-16T09:12:37Z</time>
      </trkpt>
      <trkpt lat="49.77426" lon="2.20372">
        <ele>135.9</ele>
        <time>2023-08-16T09:12:38Z</time>
      </trkpt>
      <trkpt lat="49.77426" lon="2.20371">
        <ele>135.8</ele>
        <time>2023-08-16T09:12:39Z</time>
      </trkpt>
      <trkpt lat="49.77426" lon="2.2037">
        <ele>135.8</ele>
        <time>2023-08-16T09:12:40Z</time>
      </trkpt>
      <trkpt lat="49.77426" lon="2.20369">
        <ele>135.8</ele>
        <time>2023-08-16T09:12:41Z</time>
      </trkpt>
      <trkpt lat="49.77426" lon="2.20368">
        <ele>135.7</ele>
        <time>2023-08-16T09:12:42Z</time>
      </trkpt>
      <trkpt lat="49.77426" lon="2.20367">
        <ele>135.7</ele>
        <time>2023-08-16T09:12:44Z</time>
      </trkpt>
      <trkpt lat="49.77426" lon="2.20367">
        <ele>135.7</ele>
        <time>2023-08-16T09:12:45Z</time>
      </trkpt>
      <trkpt lat="49.77426" lon="2.20367">
        <ele>135.7</ele>
        <time>2023-08-16T09:12:46Z</time>
      </trkpt>
      <trkpt lat="49.77426" lon="2.20365">
        <ele>135.7</ele>
        <time>2023-08-16T09:12:48Z</time>
      </trkpt>
      <trkpt lat="49.77427" lon="2.20364">
        <ele>135.6</ele>
        <time>2023-08-16T09:12:49Z</time>
      </trkpt>
      <trkpt lat="49.77427" lon="2.20363">
        <ele>135.6</ele>
        <time>2023-08-16T09:12:50Z</time>
      </trkpt>
      <trkpt lat="49.77428" lon="2.20362">
        <ele>135.5</ele>
        <time>2023-08-16T09:12:52Z</time>
      </trkpt>
      <trkpt lat="49.77428" lon="2.20361">
        <ele>135.5</ele>
        <time>2023-08-16T09:12:53Z</time>
      </trkpt>
      <trkpt lat="49.77429" lon="2.20359">
        <ele>135.4</ele>
        <time>2023-08-16T09:12:54Z</time>
      </trkpt>
      <trkpt lat="49.77429" lon="2.20358">
        <ele>135.4</ele>
        <time>2023-08-16T09:12:55Z</time>
      </trkpt>
      <trkpt lat="49.7743" lon="2.20357">
        <ele>135.3</ele>
        <time>2023-08-16T09:12:56Z</time>
      </trkpt>
      <trkpt lat="49.7743" lon="2.20355">
        <ele>135.3</ele>
        <time>2023-08-16T09:12:57Z</time>
      </trkpt>
      <trkpt lat="49.77431" lon="2.20353">
        <ele>135.2</ele>
        <time>2023-08-16T09:12:59Z</time>
      </trkpt>
      <trkpt lat="49.77432" lon="2.20351">
        <ele>135.1</ele>
        <time>2023-08-16T09:13:00Z</time>
      </trkpt>
      <trkpt lat="49.77433" lon="2.20348">
        <ele>135</ele>
        <time>2023-08-16T09:13:01Z</time>
      </trkpt>
      <trkpt lat="49.77433" lon="2.20347">
        <ele>135</ele>
        <time>2023-08-16T09:13:02Z</time>
      </trkpt>
      <trkpt lat="49.77434" lon="2.20346">
        <ele>134.9</ele>
        <time>2023-08-16T09:13:03Z</time>
      </trkpt>
      <trkpt lat="49.77435" lon="2.20344">
        <ele>134.8</ele>
        <time>2023-08-16T09:13:04Z</time>
      </trkpt>
      <trkpt lat="49.77436" lon="2.20343">
        <ele>134.7</ele>
        <time>2023-08-16T09:13:06Z</time>
      </trkpt>
      <trkpt lat="49.77436" lon="2.20342">
        <ele>134.7</ele>
        <time>2023-08-16T09:13:07Z</time>
      </trkpt>
      <trkpt lat="49.77437" lon="2.20339">
        <ele>134.6</ele>
        <time>2023-08-16T09:13:08Z</time>
      </trkpt>
      <trkpt lat="49.77438" lon="2.20338">
        <ele>134.5</ele>
        <time>2023-08-16T09:13:09Z</time>
      </trkpt>
      <trkpt lat="49.77438" lon="2.20337">
        <ele>134.5</ele>
        <time>2023-08-16T09:13:10Z</time>
      </trkpt>
      <trkpt lat="49.77439" lon="2.20335">
        <ele>134.4</ele>
        <time>2023-08-16T09:13:11Z</time>
      </trkpt>
      <trkpt lat="49.7744" lon="2.20334">
        <ele>134.3</ele>
        <time>2023-08-16T09:13:12Z</time>
      </trkpt>
      <trkpt lat="49.7744" lon="2.20332">
        <ele>134.3</ele>
        <time>2023-08-16T09:13:14Z</time>
      </trkpt>
      <trkpt lat="49.77441" lon="2.2033">
        <ele>134.2</ele>
        <time>2023-08-16T09:13:15Z</time>
      </trkpt>
      <trkpt lat="49.77441" lon="2.20329">
        <ele>134.1</ele>
        <time>2023-08-16T09:13:16Z</time>
      </trkpt>
      <trkpt lat="49.77442" lon="2.20327">
        <ele>134.1</ele>
        <time>2023-08-16T09:13:17Z</time>
      </trkpt>
      <trkpt lat="49.77442" lon="2.20326">
        <ele>134</ele>
        <time>2023-08-16T09:13:18Z</time>
      </trkpt>
      <trkpt lat="49.77442" lon="2.20325">
        <ele>134</ele>
        <time>2023-08-16T09:13:19Z</time>
      </trkpt>
      <trkpt lat="49.77444" lon="2.20324">
        <ele>133.9</ele>
        <time>2023-08-16T09:13:21Z</time>
      </trkpt>
      <trkpt lat="49.77445" lon="2.20324">
        <ele>133.8</ele>
        <time>2023-08-16T09:13:22Z</time>
      </trkpt>
      <trkpt lat="49.77446" lon="2.20325">
        <ele>133.7</ele>
        <time>2023-08-16T09:13:24Z</time>
      </trkpt>
      <trkpt lat="49.77447" lon="2.20325">
        <ele>133.7</ele>
        <time>2023-08-16T09:13:25Z</time>
      </trkpt>
      <trkpt lat="49.77447" lon="2.20326">
        <ele>133.6</ele>
        <time>2023-08-16T09:13:27Z</time>
      </trkpt>
      <trkpt lat="49.77447" lon="2.20326">
        <ele>133.6</ele>
        <time>2023-08-16T09:13:28Z</time>
      </trkpt>
      <trkpt lat="49.77447" lon="2.20327">
        <ele>133.6</ele>
        <time>2023-08-16T09:13:29Z</time>
      </trkpt>
      <trkpt lat="49.77447" lon="2.20327">
        <ele>133.6</ele>
        <time>2023-08-16T09:13:31Z</time>
      </trkpt>
      <trkpt lat="49.77447" lon="2.20327">
        <ele>133.6</ele>
        <time>2023-08-16T09:13:32Z</time>
      </trkpt>
      <trkpt lat="49.77447" lon="2.20326">
        <ele>133.5</ele>
        <time>2023-08-16T09:13:33Z</time>
      </trkpt>
      <trkpt lat="49.77447" lon="2.20325">
        <ele>133.5</ele>
        <time>2023-08-16T09:13:34Z</time>
      </trkpt>
      <trkpt lat="49.77448" lon="2.20324">
        <ele>133.5</ele>
        <time>2023-08-16T09:13:35Z</time>
      </trkpt>
      <trkpt lat="49.77448" lon="2.20323">
        <ele>133.4</ele>
        <time>2023-08-16T09:13:36Z</time>
      </trkpt>
      <trkpt lat="49.77448" lon="2.20321">
        <ele>133.3</ele>
        <time>2023-08-16T09:13:38Z</time>
      </trkpt>
      <trkpt lat="49.77448" lon="2.20319">
        <ele>133.2</ele>
        <time>2023-08-16T09:13:39Z</time>
      </trkpt>
      <trkpt lat="49.77449" lon="2.20316">
        <ele>133.1</ele>
        <time>2023-08-16T09:13:40Z</time>
      </trkpt>
      <trkpt lat="49.77449" lon="2.20314">
        <ele>133.1</ele>
        <time>2023-08-16T09:13:41Z</time>
      </trkpt>
      <trkpt lat="49.7745" lon="2.20313">
        <ele>133</ele>
        <time>2023-08-16T09:13:42Z</time>
      </trkpt>
      <trkpt lat="49.7745" lon="2.20312">
        <ele>133</ele>
        <time>2023-08-16T09:13:43Z</time>
      </trkpt>
      <trkpt lat="49.7745" lon="2.2031">
        <ele>132.9</ele>
        <time>2023-08-16T09:13:44Z</time>
      </trkpt>
      <trkpt lat="49.77451" lon="2.20308">
        <ele>132.8</ele>
        <time>2023-08-16T09:13:45Z</time>
      </trkpt>
      <trkpt lat="49.77451" lon="2.20306">
        <ele>132.7</ele>
        <time>2023-08-16T09:13:47Z</time>
      </trkpt>
      <trkpt lat="49.77451" lon="2.20305">
        <ele>132.7</ele>
        <time>2023-08-16T09:13:48Z</time>
      </trkpt>
      <trkpt lat="49.77452" lon="2.20303">
        <ele>132.6</ele>
        <time>2023-08-16T09:13:49Z</time>
      </trkpt>
      <trkpt lat="49.77452" lon="2.20302">
        <ele>132.5</ele>
        <time>2023-08-16T09:13:50Z</time>
      </trkpt>
      <trkpt lat="49.77452" lon="2.203">
        <ele>132.5</ele>
        <time>2023-08-16T09:13:51Z</time>
      </trkpt>
      <trkpt lat="49.77453" lon="2.20299">
        <ele>132.4</ele>
        <time>2023-08-16T09:13:52Z</time>
      </trkpt>
      <trkpt lat="49.77453" lon="2.20298">
        <ele>132.4</ele>
        <time>2023-08-16T09:13:54Z</time>
      </trkpt>
      <trkpt lat="49.77453" lon="2.20296">
        <ele>132.3</ele>
        <time>2023-08-16T09:13:55Z</time>
      </trkpt>
      <trkpt lat="49.77453" lon="2.20294">
        <ele>132.2</ele>
        <time>2023-08-16T09:13:56Z</time>
      </trkpt>
      <trkpt lat="49.77453" lon="2.20292">
        <ele>132.2</ele>
        <time>2023-08-16T09:13:57Z</time>
      </trkpt>
      <trkpt lat="49.77454" lon="2.2029">
        <ele>132.1</ele>
        <time>2023-08-16T09:13:58Z</time>
      </trkpt>
      <trkpt lat="49.77454" lon="2.20289">
        <ele>132</ele>
        <time>2023-08-16T09:14:00Z</time>
      </trkpt>
      <trkpt lat="49.77455" lon="2.20287">
        <ele>132</ele>
        <time>2023-08-16T09:14:01Z</time>
      </trkpt>
      <trkpt lat="49.77455" lon="2.20286">
        <ele>131.9</ele>
        <time>2023-08-16T09:14:02Z</time>
      </trkpt>
      <trkpt lat="49.77456" lon="2.20284">
        <ele>131.8</ele>
        <time>2023-08-16T09:14:03Z</time>
      </trkpt>
      <trkpt lat="49.77456" lon="2.20283">
        <ele>131.8</ele>
        <time>2023-08-16T09:14:04Z</time>
      </trkpt>
      <trkpt lat="49.77457" lon="2.20281">
        <ele>131.7</ele>
        <time>2023-08-16T09:14:05Z</time>
      </trkpt>
      <trkpt lat="49.77458" lon="2.2028">
        <ele>131.6</ele>
        <time>2023-08-16T09:14:06Z</time>
      </trkpt>
      <trkpt lat="49.77458" lon="2.20279">
        <ele>131.6</ele>
        <time>2023-08-16T09:14:07Z</time>
      </trkpt>
      <trkpt lat="49.77459" lon="2.20278">
        <ele>131.5</ele>
        <time>2023-08-16T09:14:09Z</time>
      </trkpt>
      <trkpt lat="49.7746" lon="2.20276">
        <ele>131.4</ele>
        <time>2023-08-16T09:14:10Z</time>
      </trkpt>
      <trkpt lat="49.77461" lon="2.20275">
        <ele>131.4</ele>
        <time>2023-08-16T09:14:11Z</time>
      </trkpt>
      <trkpt lat="49.77462" lon="2.20272">
        <ele>131.2</ele>
        <time>2023-08-16T09:14:12Z</time>
      </trkpt>
      <trkpt lat="49.77463" lon="2.20271">
        <ele>131.2</ele>
        <time>2023-08-16T09:14:13Z</time>
      </trkpt>
      <trkpt lat="49.77463" lon="2.2027">
        <ele>131.2</ele>
        <time>2023-08-16T09:14:14Z</time>
      </trkpt>
      <trkpt lat="49.77464" lon="2.20268">
        <ele>131.1</ele>
        <time>2023-08-16T09:14:15Z</time>
      </trkpt>
      <trkpt lat="49.77464" lon="2.20267">
        <ele>131</ele>
        <time>2023-08-16T09:14:16Z</time>
      </trkpt>
      <trkpt lat="49.77465" lon="2.20265">
        <ele>131</ele>
        <time>2023-08-16T09:14:17Z</time>
      </trkpt>
      <trkpt lat="49.77466" lon="2.20262">
        <ele>130.8</ele>
        <time>2023-08-16T09:14:19Z</time>
      </trkpt>
      <trkpt lat="49.77466" lon="2.20261">
        <ele>130.8</ele>
        <time>2023-08-16T09:14:20Z</time>
      </trkpt>
      <trkpt lat="49.77466" lon="2.2026">
        <ele>130.7</ele>
        <time>2023-08-16T09:14:21Z</time>
      </trkpt>
      <trkpt lat="49.77467" lon="2.20258">
        <ele>130.7</ele>
        <time>2023-08-16T09:14:22Z</time>
      </trkpt>
      <trkpt lat="49.77467" lon="2.20257">
        <ele>130.6</ele>
        <time>2023-08-16T09:14:23Z</time>
      </trkpt>
      <trkpt lat="49.77467" lon="2.20255">
        <ele>130.5</ele>
        <time>2023-08-16T09:14:24Z</time>
      </trkpt>
      <trkpt lat="49.77468" lon="2.20254">
        <ele>130.5</ele>
        <time>2023-08-16T09:14:25Z</time>
      </trkpt>
      <trkpt lat="49.77468" lon="2.20252">
        <ele>130.4</ele>
        <time>2023-08-16T09:14:27Z</time>
      </trkpt>
      <trkpt lat="49.77468" lon="2.2025">
        <ele>130.4</ele>
        <time>2023-08-16T09:14:28Z</time>
      </trkpt>
      <trkpt lat="49.77468" lon="2.20249">
        <ele>130.3</ele>
        <time>2023-08-16T09:14:29Z</time>
      </trkpt>
      <trkpt lat="49.77469" lon="2.20247">
        <ele>130.3</ele>
        <time>2023-08-16T09:14:30Z</time>
      </trkpt>
      <trkpt lat="49.77469" lon="2.20246">
        <ele>130.2</ele>
        <time>2023-08-16T09:14:31Z</time>
      </trkpt>
      <trkpt lat="49.7747" lon="2.20244">
        <ele>130.1</ele>
        <time>2023-08-16T09:14:32Z</time>
      </trkpt>
      <trkpt lat="49.7747" lon="2.20242">
        <ele>130</ele>
        <time>2023-08-16T09:14:34Z</time>
      </trkpt>
      <trkpt lat="49.77471" lon="2.2024">
        <ele>129.9</ele>
        <time>2023-08-16T09:14:35Z</time>
      </trkpt>
      <trkpt lat="49.77472" lon="2.20238">
        <ele>129.9</ele>
        <time>2023-08-16T09:14:36Z</time>
      </trkpt>
      <trkpt lat="49.77472" lon="2.20236">
        <ele>129.8</ele>
        <time>2023-08-16T09:14:37Z</time>
      </trkpt>
      <trkpt lat="49.77473" lon="2.20235">
        <ele>129.7</ele>
        <time>2023-08-16T09:14:38Z</time>
      </trkpt>
      <trkpt lat="49.77473" lon="2.20233">
        <ele>129.6</ele>
        <time>2023-08-16T09:14:39Z</time>
      </trkpt>
      <trkpt lat="49.77473" lon="2.20232">
        <ele>129.6</ele>
        <time>2023-08-16T09:14:40Z</time>
      </trkpt>
      <trkpt lat="49.77474" lon="2.2023">
        <ele>129.5</ele>
        <time>2023-08-16T09:14:41Z</time>
      </trkpt>
      <trkpt lat="49.77474" lon="2.20227">
        <ele>129.4</ele>
        <time>2023-08-16T09:14:43Z</time>
      </trkpt>
      <trkpt lat="49.77475" lon="2.20226">
        <ele>129.3</ele>
        <time>2023-08-16T09:14:44Z</time>
      </trkpt>
      <trkpt lat="49.77475" lon="2.20224">
        <ele>129.2</ele>
        <time>2023-08-16T09:14:45Z</time>
      </trkpt>
      <trkpt lat="49.77475" lon="2.20222">
        <ele>129.1</ele>
        <time>2023-08-16T09:14:47Z</time>
      </trkpt>
      <trkpt lat="49.77475" lon="2.2022">
        <ele>129</ele>
        <time>2023-08-16T09:14:48Z</time>
      </trkpt>
      <trkpt lat="49.77476" lon="2.20219">
        <ele>129</ele>
        <time>2023-08-16T09:14:49Z</time>
      </trkpt>
      <trkpt lat="49.77476" lon="2.20217">
        <ele>128.9</ele>
        <time>2023-08-16T09:14:50Z</time>
      </trkpt>
      <trkpt lat="49.77476" lon="2.20216">
        <ele>128.9</ele>
        <time>2023-08-16T09:14:51Z</time>
      </trkpt>
      <trkpt lat="49.77477" lon="2.20214">
        <ele>128.8</ele>
        <time>2023-08-16T09:14:52Z</time>
      </trkpt>
      <trkpt lat="49.77477" lon="2.20212">
        <ele>128.7</ele>
        <time>2023-08-16T09:14:53Z</time>
      </trkpt>
      <trkpt lat="49.77477" lon="2.20209">
        <ele>128.5</ele>
        <time>2023-08-16T09:14:55Z</time>
      </trkpt>
      <trkpt lat="49.77478" lon="2.20208">
        <ele>128.5</ele>
        <time>2023-08-16T09:14:56Z</time>
      </trkpt>
      <trkpt lat="49.77478" lon="2.20206">
        <ele>128.4</ele>
        <time>2023-08-16T09:14:57Z</time>
      </trkpt>
      <trkpt lat="49.77478" lon="2.20203">
        <ele>128.3</ele>
        <time>2023-08-16T09:14:58Z</time>
      </trkpt>
      <trkpt lat="49.77479" lon="2.20202">
        <ele>128.2</ele>
        <time>2023-08-16T09:14:59Z</time>
      </trkpt>
      <trkpt lat="49.77479" lon="2.20201">
        <ele>128.2</ele>
        <time>2023-08-16T09:15:00Z</time>
      </trkpt>
      <trkpt lat="49.77479" lon="2.20199">
        <ele>128.1</ele>
        <time>2023-08-16T09:15:01Z</time>
      </trkpt>
      <trkpt lat="49.77479" lon="2.20198">
        <ele>128</ele>
        <time>2023-08-16T09:15:02Z</time>
      </trkpt>
      <trkpt lat="49.77479" lon="2.20196">
        <ele>128</ele>
        <time>2023-08-16T09:15:04Z</time>
      </trkpt>
      <trkpt lat="49.77479" lon="2.20194">
        <ele>127.9</ele>
        <time>2023-08-16T09:15:05Z</time>
      </trkpt>
      <trkpt lat="49.77479" lon="2.20193">
        <ele>127.8</ele>
        <time>2023-08-16T09:15:06Z</time>
      </trkpt>
      <trkpt lat="49.77479" lon="2.20191">
        <ele>127.7</ele>
        <time>2023-08-16T09:15:07Z</time>
      </trkpt>
      <trkpt lat="49.77479" lon="2.20189">
        <ele>127.6</ele>
        <time>2023-08-16T09:15:08Z</time>
      </trkpt>
      <trkpt lat="49.77479" lon="2.20187">
        <ele>127.6</ele>
        <time>2023-08-16T09:15:09Z</time>
      </trkpt>
      <trkpt lat="49.77479" lon="2.20186">
        <ele>127.5</ele>
        <time>2023-08-16T09:15:10Z</time>
      </trkpt>
      <trkpt lat="49.77479" lon="2.20183">
        <ele>127.3</ele>
        <time>2023-08-16T09:15:12Z</time>
      </trkpt>
      <trkpt lat="49.77479" lon="2.20181">
        <ele>127.3</ele>
        <time>2023-08-16T09:15:13Z</time>
      </trkpt>
      <trkpt lat="49.77479" lon="2.2018">
        <ele>127.2</ele>
        <time>2023-08-16T09:15:14Z</time>
      </trkpt>
      <trkpt lat="49.77479" lon="2.20177">
        <ele>127.1</ele>
        <time>2023-08-16T09:15:15Z</time>
      </trkpt>
      <trkpt lat="49.77479" lon="2.20176">
        <ele>127</ele>
        <time>2023-08-16T09:15:16Z</time>
      </trkpt>
      <trkpt lat="49.77479" lon="2.20174">
        <ele>127</ele>
        <time>2023-08-16T09:15:17Z</time>
      </trkpt>
      <trkpt lat="49.77479" lon="2.20172">
        <ele>126.9</ele>
        <time>2023-08-16T09:15:18Z</time>
      </trkpt>
      <trkpt lat="49.77479" lon="2.2017">
        <ele>126.8</ele>
        <time>2023-08-16T09:15:19Z</time>
      </trkpt>
      <trkpt lat="49.77479" lon="2.20168">
        <ele>126.7</ele>
        <time>2023-08-16T09:15:20Z</time>
      </trkpt>
      <trkpt lat="49.77479" lon="2.20166">
        <ele>126.6</ele>
        <time>2023-08-16T09:15:22Z</time>
      </trkpt>
      <trkpt lat="49.77479" lon="2.20164">
        <ele>126.5</ele>
        <time>2023-08-16T09:15:23Z</time>
      </trkpt>
      <trkpt lat="49.77479" lon="2.20162">
        <ele>126.4</ele>
        <time>2023-08-16T09:15:24Z</time>
      </trkpt>
      <trkpt lat="49.77479" lon="2.20161">
        <ele>126.3</ele>
        <time>2023-08-16T09:15:25Z</time>
      </trkpt>
      <trkpt lat="49.77479" lon="2.20157">
        <ele>126.2</ele>
        <time>2023-08-16T09:15:26Z</time>
      </trkpt>
      <trkpt lat="49.7748" lon="2.20156">
        <ele>126.1</ele>
        <time>2023-08-16T09:15:27Z</time>
      </trkpt>
      <trkpt lat="49.7748" lon="2.20155">
        <ele>126.1</ele>
        <time>2023-08-16T09:15:28Z</time>
      </trkpt>
      <trkpt lat="49.7748" lon="2.20152">
        <ele>125.9</ele>
        <time>2023-08-16T09:15:29Z</time>
      </trkpt>
      <trkpt lat="49.7748" lon="2.2015">
        <ele>125.9</ele>
        <time>2023-08-16T09:15:31Z</time>
      </trkpt>
      <trkpt lat="49.7748" lon="2.20149">
        <ele>125.8</ele>
        <time>2023-08-16T09:15:32Z</time>
      </trkpt>
      <trkpt lat="49.7748" lon="2.20148">
        <ele>125.7</ele>
        <time>2023-08-16T09:15:33Z</time>
      </trkpt>
      <trkpt lat="49.7748" lon="2.20146">
        <ele>125.7</ele>
        <time>2023-08-16T09:15:34Z</time>
      </trkpt>
      <trkpt lat="49.7748" lon="2.20144">
        <ele>125.6</ele>
        <time>2023-08-16T09:15:35Z</time>
      </trkpt>
      <trkpt lat="49.7748" lon="2.20142">
        <ele>125.5</ele>
        <time>2023-08-16T09:15:36Z</time>
      </trkpt>
      <trkpt lat="49.7748" lon="2.2014">
        <ele>125.4</ele>
        <time>2023-08-16T09:15:37Z</time>
      </trkpt>
      <trkpt lat="49.7748" lon="2.20137">
        <ele>125.2</ele>
        <time>2023-08-16T09:15:39Z</time>
      </trkpt>
      <trkpt lat="49.7748" lon="2.20133">
        <ele>125.1</ele>
        <time>2023-08-16T09:15:40Z</time>
      </trkpt>
      <trkpt lat="49.7748" lon="2.20132">
        <ele>125</ele>
        <time>2023-08-16T09:15:42Z</time>
      </trkpt>
      <trkpt lat="49.7748" lon="2.20131">
        <ele>124.9</ele>
        <time>2023-08-16T09:15:43Z</time>
      </trkpt>
      <trkpt lat="49.7748" lon="2.20128">
        <ele>124.7</ele>
        <time>2023-08-16T09:15:44Z</time>
      </trkpt>
      <trkpt lat="49.7748" lon="2.20126">
        <ele>124.7</ele>
        <time>2023-08-16T09:15:45Z</time>
      </trkpt>
      <trkpt lat="49.7748" lon="2.20125">
        <ele>124.6</ele>
        <time>2023-08-16T09:15:46Z</time>
      </trkpt>
      <trkpt lat="49.77481" lon="2.20122">
        <ele>124.4</ele>
        <time>2023-08-16T09:15:47Z</time>
      </trkpt>
      <trkpt lat="49.77481" lon="2.2012">
        <ele>124.4</ele>
        <time>2023-08-16T09:15:48Z</time>
      </trkpt>
      <trkpt lat="49.77481" lon="2.20119">
        <ele>124.3</ele>
        <time>2023-08-16T09:15:49Z</time>
      </trkpt>
      <trkpt lat="49.77481" lon="2.20117">
        <ele>124.2</ele>
        <time>2023-08-16T09:15:51Z</time>
      </trkpt>
      <trkpt lat="49.77481" lon="2.20115">
        <ele>124.1</ele>
        <time>2023-08-16T09:15:52Z</time>
      </trkpt>
      <trkpt lat="49.77481" lon="2.20114">
        <ele>124</ele>
        <time>2023-08-16T09:15:53Z</time>
      </trkpt>
      <trkpt lat="49.77481" lon="2.20112">
        <ele>123.9</ele>
        <time>2023-08-16T09:15:54Z</time>
      </trkpt>
      <trkpt lat="49.77481" lon="2.2011">
        <ele>123.8</ele>
        <time>2023-08-16T09:15:55Z</time>
      </trkpt>
      <trkpt lat="49.77481" lon="2.20108">
        <ele>123.7</ele>
        <time>2023-08-16T09:15:56Z</time>
      </trkpt>
      <trkpt lat="49.77481" lon="2.20107">
        <ele>123.6</ele>
        <time>2023-08-16T09:15:57Z</time>
      </trkpt>
      <trkpt lat="49.77481" lon="2.20105">
        <ele>123.6</ele>
        <time>2023-08-16T09:15:59Z</time>
      </trkpt>
      <trkpt lat="49.7748" lon="2.20103">
        <ele>123.5</ele>
        <time>2023-08-16T09:16:00Z</time>
      </trkpt>
      <trkpt lat="49.7748" lon="2.20101">
        <ele>123.3</ele>
        <time>2023-08-16T09:16:01Z</time>
      </trkpt>
      <trkpt lat="49.7748" lon="2.20099">
        <ele>123.3</ele>
        <time>2023-08-16T09:16:02Z</time>
      </trkpt>
      <trkpt lat="49.77479" lon="2.20098">
        <ele>123.2</ele>
        <time>2023-08-16T09:16:03Z</time>
      </trkpt>
      <trkpt lat="49.77479" lon="2.20095">
        <ele>123</ele>
        <time>2023-08-16T09:16:04Z</time>
      </trkpt>
      <trkpt lat="49.7748" lon="2.20093">
        <ele>122.9</ele>
        <time>2023-08-16T09:16:05Z</time>
      </trkpt>
      <trkpt lat="49.7748" lon="2.20092">
        <ele>122.9</ele>
        <time>2023-08-16T09:16:07Z</time>
      </trkpt>
      <trkpt lat="49.7748" lon="2.2009">
        <ele>122.8</ele>
        <time>2023-08-16T09:16:08Z</time>
      </trkpt>
      <trkpt lat="49.7748" lon="2.20088">
        <ele>122.7</ele>
        <time>2023-08-16T09:16:09Z</time>
      </trkpt>
      <trkpt lat="49.7748" lon="2.20087">
        <ele>122.6</ele>
        <time>2023-08-16T09:16:10Z</time>
      </trkpt>
      <trkpt lat="49.77481" lon="2.20085">
        <ele>122.5</ele>
        <time>2023-08-16T09:16:11Z</time>
      </trkpt>
      <trkpt lat="49.77481" lon="2.20083">
        <ele>122.4</ele>
        <time>2023-08-16T09:16:12Z</time>
      </trkpt>
      <trkpt lat="49.77481" lon="2.20081">
        <ele>122.3</ele>
        <time>2023-08-16T09:16:14Z</time>
      </trkpt>
      <trkpt lat="49.77481" lon="2.20079">
        <ele>122.2</ele>
        <time>2023-08-16T09:16:15Z</time>
      </trkpt>
      <trkpt lat="49.77482" lon="2.20077">
        <ele>122.2</ele>
        <time>2023-08-16T09:16:16Z</time>
      </trkpt>
      <trkpt lat="49.77482" lon="2.20075">
        <ele>122.1</ele>
        <time>2023-08-16T09:16:17Z</time>
      </trkpt>
      <trkpt lat="49.77482" lon="2.20073">
        <ele>122</ele>
        <time>2023-08-16T09:16:18Z</time>
      </trkpt>
      <trkpt lat="49.77483" lon="2.2007">
        <ele>121.8</ele>
        <time>2023-08-16T09:16:19Z</time>
      </trkpt>
      <trkpt lat="49.77483" lon="2.20065">
        <ele>121.6</ele>
        <time>2023-08-16T09:16:21Z</time>
      </trkpt>
      <trkpt lat="49.77483" lon="2.20064">
        <ele>121.5</ele>
        <time>2023-08-16T09:16:22Z</time>
      </trkpt>
      <trkpt lat="49.77483" lon="2.20062">
        <ele>121.4</ele>
        <time>2023-08-16T09:16:23Z</time>
      </trkpt>
      <trkpt lat="49.77483" lon="2.20061">
        <ele>121.3</ele>
        <time>2023-08-16T09:16:24Z</time>
      </trkpt>
      <trkpt lat="49.77483" lon="2.2006">
        <ele>121.3</ele>
        <time>2023-08-16T09:16:25Z</time>
      </trkpt>
      <trkpt lat="49.77483" lon="2.20056">
        <ele>121.1</ele>
        <time>2023-08-16T09:16:26Z</time>
      </trkpt>
      <trkpt lat="49.77483" lon="2.20054">
        <ele>121</ele>
        <time>2023-08-16T09:16:28Z</time>
      </trkpt>
      <trkpt lat="49.77483" lon="2.20053">
        <ele>120.9</ele>
        <time>2023-08-16T09:16:29Z</time>
      </trkpt>
      <trkpt lat="49.77483" lon="2.20051">
        <ele>120.8</ele>
        <time>2023-08-16T09:16:30Z</time>
      </trkpt>
      <trkpt lat="49.77483" lon="2.20049">
        <ele>120.7</ele>
        <time>2023-08-16T09:16:31Z</time>
      </trkpt>
      <trkpt lat="49.77483" lon="2.20046">
        <ele>120.6</ele>
        <time>2023-08-16T09:16:32Z</time>
      </trkpt>
      <trkpt lat="49.77483" lon="2.20045">
        <ele>120.5</ele>
        <time>2023-08-16T09:16:34Z</time>
      </trkpt>
      <trkpt lat="49.77483" lon="2.20044">
        <ele>120.4</ele>
        <time>2023-08-16T09:16:35Z</time>
      </trkpt>
      <trkpt lat="49.77483" lon="2.20042">
        <ele>120.4</ele>
        <time>2023-08-16T09:16:36Z</time>
      </trkpt>
      <trkpt lat="49.77483" lon="2.20041">
        <ele>120.3</ele>
        <time>2023-08-16T09:16:37Z</time>
      </trkpt>
      <trkpt lat="49.77483" lon="2.20039">
        <ele>120.2</ele>
        <time>2023-08-16T09:16:38Z</time>
      </trkpt>
      <trkpt lat="49.77483" lon="2.20038">
        <ele>120.2</ele>
        <time>2023-08-16T09:16:39Z</time>
      </trkpt>
      <trkpt lat="49.77483" lon="2.20036">
        <ele>120.1</ele>
        <time>2023-08-16T09:16:40Z</time>
      </trkpt>
      <trkpt lat="49.77483" lon="2.20034">
        <ele>120</ele>
        <time>2023-08-16T09:16:42Z</time>
      </trkpt>
      <trkpt lat="49.77483" lon="2.20032">
        <ele>120</ele>
        <time>2023-08-16T09:16:43Z</time>
      </trkpt>
      <trkpt lat="49.77483" lon="2.20031">
        <ele>119.9</ele>
        <time>2023-08-16T09:16:44Z</time>
      </trkpt>
      <trkpt lat="49.77482" lon="2.20029">
        <ele>119.8</ele>
        <time>2023-08-16T09:16:45Z</time>
      </trkpt>
      <trkpt lat="49.77482" lon="2.20026">
        <ele>119.7</ele>
        <time>2023-08-16T09:16:46Z</time>
      </trkpt>
      <trkpt lat="49.77482" lon="2.20025">
        <ele>119.7</ele>
        <time>2023-08-16T09:16:47Z</time>
      </trkpt>
      <trkpt lat="49.77481" lon="2.20024">
        <ele>119.6</ele>
        <time>2023-08-16T09:16:48Z</time>
      </trkpt>
      <trkpt lat="49.77481" lon="2.20021">
        <ele>119.5</ele>
        <time>2023-08-16T09:16:50Z</time>
      </trkpt>
      <trkpt lat="49.7748" lon="2.20019">
        <ele>119.4</ele>
        <time>2023-08-16T09:16:51Z</time>
      </trkpt>
      <trkpt lat="49.7748" lon="2.20018">
        <ele>119.4</ele>
        <time>2023-08-16T09:16:52Z</time>
      </trkpt>
      <trkpt lat="49.7748" lon="2.20016">
        <ele>119.3</ele>
        <time>2023-08-16T09:16:53Z</time>
      </trkpt>
      <trkpt lat="49.77479" lon="2.20015">
        <ele>119.3</ele>
        <time>2023-08-16T09:16:54Z</time>
      </trkpt>
      <trkpt lat="49.77479" lon="2.20013">
        <ele>119.2</ele>
        <time>2023-08-16T09:16:55Z</time>
      </trkpt>
      <trkpt lat="49.77479" lon="2.20012">
        <ele>119.2</ele>
        <time>2023-08-16T09:16:56Z</time>
      </trkpt>
      <trkpt lat="49.77479" lon="2.2001">
        <ele>119.1</ele>
        <time>2023-08-16T09:16:57Z</time>
      </trkpt>
      <trkpt lat="49.77479" lon="2.20009">
        <ele>119</ele>
        <time>2023-08-16T09:16:58Z</time>
      </trkpt>
      <trkpt lat="49.77478" lon="2.20006">
        <ele>118.9</ele>
        <time>2023-08-16T09:17:00Z</time>
      </trkpt>
      <trkpt lat="49.77478" lon="2.20004">
        <ele>118.9</ele>
        <time>2023-08-16T09:17:01Z</time>
      </trkpt>
      <trkpt lat="49.77478" lon="2.20001">
        <ele>118.8</ele>
        <time>2023-08-16T09:17:03Z</time>
      </trkpt>
      <trkpt lat="49.77478" lon="2.19999">
        <ele>118.7</ele>
        <time>2023-08-16T09:17:04Z</time>
      </trkpt>
      <trkpt lat="49.77478" lon="2.19998">
        <ele>118.7</ele>
        <time>2023-08-16T09:17:05Z</time>
      </trkpt>
      <trkpt lat="49.77478" lon="2.19995">
        <ele>118.5</ele>
        <time>2023-08-16T09:17:06Z</time>
      </trkpt>
      <trkpt lat="49.77478" lon="2.19993">
        <ele>118.5</ele>
        <time>2023-08-16T09:17:07Z</time>
      </trkpt>
      <trkpt lat="49.77478" lon="2.19992">
        <ele>118.4</ele>
        <time>2023-08-16T09:17:08Z</time>
      </trkpt>
      <trkpt lat="49.77478" lon="2.1999">
        <ele>118.4</ele>
        <time>2023-08-16T09:17:10Z</time>
      </trkpt>
      <trkpt lat="49.77478" lon="2.19988">
        <ele>118.3</ele>
        <time>2023-08-16T09:17:11Z</time>
      </trkpt>
      <trkpt lat="49.77478" lon="2.19986">
        <ele>118.2</ele>
        <time>2023-08-16T09:17:12Z</time>
      </trkpt>
      <trkpt lat="49.77479" lon="2.19984">
        <ele>118.2</ele>
        <time>2023-08-16T09:17:13Z</time>
      </trkpt>
      <trkpt lat="49.77479" lon="2.19982">
        <ele>118.1</ele>
        <time>2023-08-16T09:17:14Z</time>
      </trkpt>
      <trkpt lat="49.77478" lon="2.19979">
        <ele>118</ele>
        <time>2023-08-16T09:17:15Z</time>
      </trkpt>
      <trkpt lat="49.77478" lon="2.19978">
        <ele>118</ele>
        <time>2023-08-16T09:17:16Z</time>
      </trkpt>
      <trkpt lat="49.77478" lon="2.19976">
        <ele>118</ele>
        <time>2023-08-16T09:17:17Z</time>
      </trkpt>
      <trkpt lat="49.77478" lon="2.19973">
        <ele>117.8</ele>
        <time>2023-08-16T09:17:18Z</time>
      </trkpt>
      <trkpt lat="49.77478" lon="2.19972">
        <ele>117.8</ele>
        <time>2023-08-16T09:17:20Z</time>
      </trkpt>
      <trkpt lat="49.77478" lon="2.1997">
        <ele>117.8</ele>
        <time>2023-08-16T09:17:21Z</time>
      </trkpt>
      <trkpt lat="49.77478" lon="2.19967">
        <ele>117.7</ele>
        <time>2023-08-16T09:17:22Z</time>
      </trkpt>
      <trkpt lat="49.77478" lon="2.19966">
        <ele>117.6</ele>
        <time>2023-08-16T09:17:23Z</time>
      </trkpt>
      <trkpt lat="49.77478" lon="2.19965">
        <ele>117.6</ele>
        <time>2023-08-16T09:17:24Z</time>
      </trkpt>
      <trkpt lat="49.77478" lon="2.19963">
        <ele>117.6</ele>
        <time>2023-08-16T09:17:25Z</time>
      </trkpt>
      <trkpt lat="49.77477" lon="2.19961">
        <ele>117.5</ele>
        <time>2023-08-16T09:17:26Z</time>
      </trkpt>
      <trkpt lat="49.77477" lon="2.19958">
        <ele>117.4</ele>
        <time>2023-08-16T09:17:28Z</time>
      </trkpt>
      <trkpt lat="49.77477" lon="2.19955">
        <ele>117.3</ele>
        <time>2023-08-16T09:17:29Z</time>
      </trkpt>
      <trkpt lat="49.77477" lon="2.19953">
        <ele>117.3</ele>
        <time>2023-08-16T09:17:30Z</time>
      </trkpt>
      <trkpt lat="49.77476" lon="2.19952">
        <ele>117.2</ele>
        <time>2023-08-16T09:17:31Z</time>
      </trkpt>
      <trkpt lat="49.77476" lon="2.1995">
        <ele>117.2</ele>
        <time>2023-08-16T09:17:32Z</time>
      </trkpt>
      <trkpt lat="49.77476" lon="2.19948">
        <ele>117.1</ele>
        <time>2023-08-16T09:17:33Z</time>
      </trkpt>
      <trkpt lat="49.77476" lon="2.19946">
        <ele>117.1</ele>
        <time>2023-08-16T09:17:35Z</time>
      </trkpt>
      <trkpt lat="49.77475" lon="2.19944">
        <ele>117</ele>
        <time>2023-08-16T09:17:36Z</time>
      </trkpt>
      <trkpt lat="49.77475" lon="2.19942">
        <ele>117</ele>
        <time>2023-08-16T09:17:37Z</time>
      </trkpt>
      <trkpt lat="49.77475" lon="2.1994">
        <ele>116.9</ele>
        <time>2023-08-16T09:17:38Z</time>
      </trkpt>
      <trkpt lat="49.77474" lon="2.19938">
        <ele>116.9</ele>
        <time>2023-08-16T09:17:39Z</time>
      </trkpt>
      <trkpt lat="49.77474" lon="2.19936">
        <ele>116.8</ele>
        <time>2023-08-16T09:17:40Z</time>
      </trkpt>
      <trkpt lat="49.77474" lon="2.19933">
        <ele>116.8</ele>
        <time>2023-08-16T09:17:41Z</time>
      </trkpt>
      <trkpt lat="49.77474" lon="2.19931">
        <ele>116.7</ele>
        <time>2023-08-16T09:17:42Z</time>
      </trkpt>
      <trkpt lat="49.77474" lon="2.19929">
        <ele>116.7</ele>
        <time>2023-08-16T09:17:43Z</time>
      </trkpt>
      <trkpt lat="49.77474" lon="2.19927">
        <ele>116.6</ele>
        <time>2023-08-16T09:17:45Z</time>
      </trkpt>
      <trkpt lat="49.77474" lon="2.19924">
        <ele>116.5</ele>
        <time>2023-08-16T09:17:46Z</time>
      </trkpt>
      <trkpt lat="49.77474" lon="2.19923">
        <ele>116.5</ele>
        <time>2023-08-16T09:17:47Z</time>
      </trkpt>
      <trkpt lat="49.77474" lon="2.19921">
        <ele>116.5</ele>
        <time>2023-08-16T09:17:48Z</time>
      </trkpt>
      <trkpt lat="49.77474" lon="2.19919">
        <ele>116.4</ele>
        <time>2023-08-16T09:17:49Z</time>
      </trkpt>
      <trkpt lat="49.77474" lon="2.19917">
        <ele>116.4</ele>
        <time>2023-08-16T09:17:50Z</time>
      </trkpt>
      <trkpt lat="49.77475" lon="2.19915">
        <ele>116.3</ele>
        <time>2023-08-16T09:17:52Z</time>
      </trkpt>
      <trkpt lat="49.77475" lon="2.19913">
        <ele>116.3</ele>
        <time>2023-08-16T09:17:53Z</time>
      </trkpt>
      <trkpt lat="49.77475" lon="2.1991">
        <ele>116.2</ele>
        <time>2023-08-16T09:17:54Z</time>
      </trkpt>
      <trkpt lat="49.77475" lon="2.19908">
        <ele>116.1</ele>
        <time>2023-08-16T09:17:55Z</time>
      </trkpt>
      <trkpt lat="49.77476" lon="2.19907">
        <ele>116.1</ele>
        <time>2023-08-16T09:17:56Z</time>
      </trkpt>
      <trkpt lat="49.77476" lon="2.19905">
        <ele>116.1</ele>
        <time>2023-08-16T09:17:57Z</time>
      </trkpt>
      <trkpt lat="49.77476" lon="2.19903">
        <ele>116</ele>
        <time>2023-08-16T09:17:58Z</time>
      </trkpt>
      <trkpt lat="49.77476" lon="2.19902">
        <ele>116</ele>
        <time>2023-08-16T09:17:59Z</time>
      </trkpt>
      <trkpt lat="49.77477" lon="2.19898">
        <ele>115.9</ele>
        <time>2023-08-16T09:18:01Z</time>
      </trkpt>
      <trkpt lat="49.77477" lon="2.19897">
        <ele>115.8</ele>
        <time>2023-08-16T09:18:02Z</time>
      </trkpt>
      <trkpt lat="49.77477" lon="2.19896">
        <ele>115.8</ele>
        <time>2023-08-16T09:18:03Z</time>
      </trkpt>
      <trkpt lat="49.77478" lon="2.19894">
        <ele>115.8</ele>
        <time>2023-08-16T09:18:04Z</time>
      </trkpt>
      <trkpt lat="49.77478" lon="2.19893">
        <ele>115.7</ele>
        <time>2023-08-16T09:18:05Z</time>
      </trkpt>
      <trkpt lat="49.77478" lon="2.19891">
        <ele>115.7</ele>
        <time>2023-08-16T09:18:06Z</time>
      </trkpt>
      <trkpt lat="49.77478" lon="2.19888">
        <ele>115.6</ele>
        <time>2023-08-16T09:18:07Z</time>
      </trkpt>
      <trkpt lat="49.77478" lon="2.19886">
        <ele>115.5</ele>
        <time>2023-08-16T09:18:08Z</time>
      </trkpt>
      <trkpt lat="49.77478" lon="2.19885">
        <ele>115.5</ele>
        <time>2023-08-16T09:18:09Z</time>
      </trkpt>
      <trkpt lat="49.77479" lon="2.19883">
        <ele>115.4</ele>
        <time>2023-08-16T09:18:11Z</time>
      </trkpt>
      <trkpt lat="49.77479" lon="2.19881">
        <ele>115.4</ele>
        <time>2023-08-16T09:18:12Z</time>
      </trkpt>
      <trkpt lat="49.77479" lon="2.19879">
        <ele>115.3</ele>
        <time>2023-08-16T09:18:13Z</time>
      </trkpt>
      <trkpt lat="49.7748" lon="2.19878">
        <ele>115.3</ele>
        <time>2023-08-16T09:18:14Z</time>
      </trkpt>
      <trkpt lat="49.7748" lon="2.19876">
        <ele>115.2</ele>
        <time>2023-08-16T09:18:15Z</time>
      </trkpt>
      <trkpt lat="49.7748" lon="2.19874">
        <ele>115.2</ele>
        <time>2023-08-16T09:18:16Z</time>
      </trkpt>
      <trkpt lat="49.77481" lon="2.19873">
        <ele>115.1</ele>
        <time>2023-08-16T09:18:17Z</time>
      </trkpt>
      <trkpt lat="49.77481" lon="2.19871">
        <ele>115.1</ele>
        <time>2023-08-16T09:18:19Z</time>
      </trkpt>
      <trkpt lat="49.77481" lon="2.19869">
        <ele>115</ele>
        <time>2023-08-16T09:18:20Z</time>
      </trkpt>
      <trkpt lat="49.77482" lon="2.19868">
        <ele>115</ele>
        <time>2023-08-16T09:18:21Z</time>
      </trkpt>
      <trkpt lat="49.77482" lon="2.19866">
        <ele>114.9</ele>
        <time>2023-08-16T09:18:23Z</time>
      </trkpt>
      <trkpt lat="49.77482" lon="2.19865">
        <ele>114.9</ele>
        <time>2023-08-16T09:18:24Z</time>
      </trkpt>
      <trkpt lat="49.77483" lon="2.19863">
        <ele>114.8</ele>
        <time>2023-08-16T09:18:25Z</time>
      </trkpt>
      <trkpt lat="49.77483" lon="2.19861">
        <ele>114.8</ele>
        <time>2023-08-16T09:18:26Z</time>
      </trkpt>
      <trkpt lat="49.77483" lon="2.19858">
        <ele>114.7</ele>
        <time>2023-08-16T09:18:27Z</time>
      </trkpt>
      <trkpt lat="49.77483" lon="2.19857">
        <ele>114.6</ele>
        <time>2023-08-16T09:18:28Z</time>
      </trkpt>
      <trkpt lat="49.77484" lon="2.19855">
        <ele>114.6</ele>
        <time>2023-08-16T09:18:29Z</time>
      </trkpt>
      <trkpt lat="49.77484" lon="2.19853">
        <ele>114.5</ele>
        <time>2023-08-16T09:18:31Z</time>
      </trkpt>
      <trkpt lat="49.77484" lon="2.19852">
        <ele>114.5</ele>
        <time>2023-08-16T09:18:32Z</time>
      </trkpt>
      <trkpt lat="49.77485" lon="2.1985">
        <ele>114.4</ele>
        <time>2023-08-16T09:18:33Z</time>
      </trkpt>
      <trkpt lat="49.77485" lon="2.19847">
        <ele>114.3</ele>
        <time>2023-08-16T09:18:34Z</time>
      </trkpt>
      <trkpt lat="49.77485" lon="2.19846">
        <ele>114.3</ele>
        <time>2023-08-16T09:18:35Z</time>
      </trkpt>
      <trkpt lat="49.77486" lon="2.19842">
        <ele>114.1</ele>
        <time>2023-08-16T09:18:36Z</time>
      </trkpt>
      <trkpt lat="49.77486" lon="2.19841">
        <ele>114.1</ele>
        <time>2023-08-16T09:18:38Z</time>
      </trkpt>
      <trkpt lat="49.77487" lon="2.19839">
        <ele>114</ele>
        <time>2023-08-16T09:18:39Z</time>
      </trkpt>
      <trkpt lat="49.77487" lon="2.19837">
        <ele>114</ele>
        <time>2023-08-16T09:18:40Z</time>
      </trkpt>
      <trkpt lat="49.77487" lon="2.19836">
        <ele>113.9</ele>
        <time>2023-08-16T09:18:41Z</time>
      </trkpt>
      <trkpt lat="49.77488" lon="2.19834">
        <ele>113.8</ele>
        <time>2023-08-16T09:18:42Z</time>
      </trkpt>
      <trkpt lat="49.77488" lon="2.19832">
        <ele>113.7</ele>
        <time>2023-08-16T09:18:43Z</time>
      </trkpt>
      <trkpt lat="49.77488" lon="2.19829">
        <ele>113.6</ele>
        <time>2023-08-16T09:18:45Z</time>
      </trkpt>
      <trkpt lat="49.77489" lon="2.19827">
        <ele>113.6</ele>
        <time>2023-08-16T09:18:46Z</time>
      </trkpt>
      <trkpt lat="49.77489" lon="2.19825">
        <ele>113.5</ele>
        <time>2023-08-16T09:18:47Z</time>
      </trkpt>
      <trkpt lat="49.77489" lon="2.19823">
        <ele>113.4</ele>
        <time>2023-08-16T09:18:48Z</time>
      </trkpt>
      <trkpt lat="49.7749" lon="2.19821">
        <ele>113.3</ele>
        <time>2023-08-16T09:18:49Z</time>
      </trkpt>
      <trkpt lat="49.7749" lon="2.1982">
        <ele>113.2</ele>
        <time>2023-08-16T09:18:50Z</time>
      </trkpt>
      <trkpt lat="49.7749" lon="2.19818">
        <ele>113.2</ele>
        <time>2023-08-16T09:18:51Z</time>
      </trkpt>
      <trkpt lat="49.7749" lon="2.19815">
        <ele>113</ele>
        <time>2023-08-16T09:18:53Z</time>
      </trkpt>
      <trkpt lat="49.7749" lon="2.19813">
        <ele>113</ele>
        <time>2023-08-16T09:18:54Z</time>
      </trkpt>
      <trkpt lat="49.7749" lon="2.19812">
        <ele>112.9</ele>
        <time>2023-08-16T09:18:55Z</time>
      </trkpt>
      <trkpt lat="49.77491" lon="2.1981">
        <ele>112.8</ele>
        <time>2023-08-16T09:18:56Z</time>
      </trkpt>
      <trkpt lat="49.77491" lon="2.19808">
        <ele>112.7</ele>
        <time>2023-08-16T09:18:57Z</time>
      </trkpt>
      <trkpt lat="49.77491" lon="2.19806">
        <ele>112.6</ele>
        <time>2023-08-16T09:18:58Z</time>
      </trkpt>
      <trkpt lat="49.77491" lon="2.19803">
        <ele>112.5</ele>
        <time>2023-08-16T09:18:59Z</time>
      </trkpt>
      <trkpt lat="49.77491" lon="2.19801">
        <ele>112.4</ele>
        <time>2023-08-16T09:19:01Z</time>
      </trkpt>
      <trkpt lat="49.77491" lon="2.19799">
        <ele>112.3</ele>
        <time>2023-08-16T09:19:02Z</time>
      </trkpt>
      <trkpt lat="49.77491" lon="2.19797">
        <ele>112.3</ele>
        <time>2023-08-16T09:19:03Z</time>
      </trkpt>
      <trkpt lat="49.77491" lon="2.19796">
        <ele>112.2</ele>
        <time>2023-08-16T09:19:04Z</time>
      </trkpt>
      <trkpt lat="49.77491" lon="2.19794">
        <ele>112.1</ele>
        <time>2023-08-16T09:19:05Z</time>
      </trkpt>
      <trkpt lat="49.77491" lon="2.19791">
        <ele>112</ele>
        <time>2023-08-16T09:19:07Z</time>
      </trkpt>
      <trkpt lat="49.77492" lon="2.19789">
        <ele>111.9</ele>
        <time>2023-08-16T09:19:08Z</time>
      </trkpt>
      <trkpt lat="49.77492" lon="2.19786">
        <ele>111.8</ele>
        <time>2023-08-16T09:19:09Z</time>
      </trkpt>
      <trkpt lat="49.77492" lon="2.19785">
        <ele>111.7</ele>
        <time>2023-08-16T09:19:11Z</time>
      </trkpt>
      <trkpt lat="49.77492" lon="2.19783">
        <ele>111.6</ele>
        <time>2023-08-16T09:19:12Z</time>
      </trkpt>
      <trkpt lat="49.77493" lon="2.19781">
        <ele>111.6</ele>
        <time>2023-08-16T09:19:13Z</time>
      </trkpt>
      <trkpt lat="49.77493" lon="2.1978">
        <ele>111.5</ele>
        <time>2023-08-16T09:19:14Z</time>
      </trkpt>
      <trkpt lat="49.77493" lon="2.19778">
        <ele>111.4</ele>
        <time>2023-08-16T09:19:15Z</time>
      </trkpt>
      <trkpt lat="49.77493" lon="2.19775">
        <ele>111.3</ele>
        <time>2023-08-16T09:19:16Z</time>
      </trkpt>
      <trkpt lat="49.77493" lon="2.19773">
        <ele>111.2</ele>
        <time>2023-08-16T09:19:17Z</time>
      </trkpt>
      <trkpt lat="49.77493" lon="2.19772">
        <ele>111.2</ele>
        <time>2023-08-16T09:19:18Z</time>
      </trkpt>
      <trkpt lat="49.77493" lon="2.1977">
        <ele>111.1</ele>
        <time>2023-08-16T09:19:19Z</time>
      </trkpt>
      <trkpt lat="49.77493" lon="2.19767">
        <ele>111</ele>
        <time>2023-08-16T09:19:21Z</time>
      </trkpt>
      <trkpt lat="49.77493" lon="2.19765">
        <ele>110.9</ele>
        <time>2023-08-16T09:19:22Z</time>
      </trkpt>
      <trkpt lat="49.77493" lon="2.19763">
        <ele>110.8</ele>
        <time>2023-08-16T09:19:23Z</time>
      </trkpt>
      <trkpt lat="49.77493" lon="2.19761">
        <ele>110.8</ele>
        <time>2023-08-16T09:19:24Z</time>
      </trkpt>
      <trkpt lat="49.77493" lon="2.19758">
        <ele>110.7</ele>
        <time>2023-08-16T09:19:26Z</time>
      </trkpt>
      <trkpt lat="49.77493" lon="2.19757">
        <ele>110.6</ele>
        <time>2023-08-16T09:19:27Z</time>
      </trkpt>
      <trkpt lat="49.77493" lon="2.19755">
        <ele>110.6</ele>
        <time>2023-08-16T09:19:28Z</time>
      </trkpt>
      <trkpt lat="49.77493" lon="2.19754">
        <ele>110.5</ele>
        <time>2023-08-16T09:19:29Z</time>
      </trkpt>
      <trkpt lat="49.77493" lon="2.19752">
        <ele>110.4</ele>
        <time>2023-08-16T09:19:30Z</time>
      </trkpt>
      <trkpt lat="49.77493" lon="2.1975">
        <ele>110.4</ele>
        <time>2023-08-16T09:19:31Z</time>
      </trkpt>
      <trkpt lat="49.77493" lon="2.19748">
        <ele>110.3</ele>
        <time>2023-08-16T09:19:32Z</time>
      </trkpt>
      <trkpt lat="49.77492" lon="2.19746">
        <ele>110.2</ele>
        <time>2023-08-16T09:19:33Z</time>
      </trkpt>
      <trkpt lat="49.77492" lon="2.19744">
        <ele>110.1</ele>
        <time>2023-08-16T09:19:34Z</time>
      </trkpt>
      <trkpt lat="49.77492" lon="2.19742">
        <ele>110.1</ele>
        <time>2023-08-16T09:19:35Z</time>
      </trkpt>
      <trkpt lat="49.77492" lon="2.19739">
        <ele>110</ele>
        <time>2023-08-16T09:19:37Z</time>
      </trkpt>
      <trkpt lat="49.77492" lon="2.19736">
        <ele>109.9</ele>
        <time>2023-08-16T09:19:38Z</time>
      </trkpt>
      <trkpt lat="49.77492" lon="2.19735">
        <ele>109.8</ele>
        <time>2023-08-16T09:19:39Z</time>
      </trkpt>
      <trkpt lat="49.77492" lon="2.19733">
        <ele>109.8</ele>
        <time>2023-08-16T09:19:40Z</time>
      </trkpt>
      <trkpt lat="49.77492" lon="2.19731">
        <ele>109.7</ele>
        <time>2023-08-16T09:19:41Z</time>
      </trkpt>
      <trkpt lat="49.77493" lon="2.19729">
        <ele>109.6</ele>
        <time>2023-08-16T09:19:42Z</time>
      </trkpt>
      <trkpt lat="49.77493" lon="2.19727">
        <ele>109.5</ele>
        <time>2023-08-16T09:19:43Z</time>
      </trkpt>
      <trkpt lat="49.77493" lon="2.19723">
        <ele>109.4</ele>
        <time>2023-08-16T09:19:45Z</time>
      </trkpt>
      <trkpt lat="49.77494" lon="2.19722">
        <ele>109.4</ele>
        <time>2023-08-16T09:19:46Z</time>
      </trkpt>
      <trkpt lat="49.77494" lon="2.19719">
        <ele>109.3</ele>
        <time>2023-08-16T09:19:47Z</time>
      </trkpt>
      <trkpt lat="49.77494" lon="2.19718">
        <ele>109.2</ele>
        <time>2023-08-16T09:19:49Z</time>
      </trkpt>
      <trkpt lat="49.77494" lon="2.19716">
        <ele>109.2</ele>
        <time>2023-08-16T09:19:50Z</time>
      </trkpt>
      <trkpt lat="49.77493" lon="2.19714">
        <ele>109.1</ele>
        <time>2023-08-16T09:19:51Z</time>
      </trkpt>
      <trkpt lat="49.77493" lon="2.19713">
        <ele>109.1</ele>
        <time>2023-08-16T09:19:52Z</time>
      </trkpt>
      <trkpt lat="49.77492" lon="2.19712">
        <ele>109</ele>
        <time>2023-08-16T09:19:53Z</time>
      </trkpt>
      <trkpt lat="49.77492" lon="2.19711">
        <ele>109</ele>
        <time>2023-08-16T09:19:54Z</time>
      </trkpt>
      <trkpt lat="49.77491" lon="2.19711">
        <ele>108.9</ele>
        <time>2023-08-16T09:19:56Z</time>
      </trkpt>
      <trkpt lat="49.77491" lon="2.1971">
        <ele>108.9</ele>
        <time>2023-08-16T09:19:57Z</time>
      </trkpt>
      <trkpt lat="49.77491" lon="2.1971">
        <ele>108.9</ele>
        <time>2023-08-16T09:19:59Z</time>
      </trkpt>
      <trkpt lat="49.77491" lon="2.1971">
        <ele>108.9</ele>
        <time>2023-08-16T09:20:00Z</time>
      </trkpt>
      <trkpt lat="49.77491" lon="2.1971">
        <ele>108.9</ele>
        <time>2023-08-16T09:20:01Z</time>
      </trkpt>
      <trkpt lat="49.77491" lon="2.1971">
        <ele>108.9</ele>
        <time>2023-08-16T09:20:03Z</time>
      </trkpt>
      <trkpt lat="49.77491" lon="2.1971">
        <ele>108.9</ele>
        <time>2023-08-16T09:20:04Z</time>
      </trkpt>
      <trkpt lat="49.77491" lon="2.1971">
        <ele>108.9</ele>
        <time>2023-08-16T09:20:06Z</time>
      </trkpt>
      <trkpt lat="49.77491" lon="2.1971">
        <ele>108.9</ele>
        <time>2023-08-16T09:20:07Z</time>
      </trkpt>
      <trkpt lat="49.77491" lon="2.1971">
        <ele>108.9</ele>
        <time>2023-08-16T09:20:09Z</time>
      </trkpt>
      <trkpt lat="49.77491" lon="2.19709">
        <ele>108.9</ele>
        <time>2023-08-16T09:20:10Z</time>
      </trkpt>
      <trkpt lat="49.77491" lon="2.19709">
        <ele>108.8</ele>
        <time>2023-08-16T09:20:12Z</time>
      </trkpt>
      <trkpt lat="49.77491" lon="2.19708">
        <ele>108.8</ele>
        <time>2023-08-16T09:20:13Z</time>
      </trkpt>
      <trkpt lat="49.77491" lon="2.19708">
        <ele>108.8</ele>
        <time>2023-08-16T09:20:14Z</time>
      </trkpt>
      <trkpt lat="49.77491" lon="2.19708">
        <ele>108.8</ele>
        <time>2023-08-16T09:20:16Z</time>
      </trkpt>
      <trkpt lat="49.77491" lon="2.19708">
        <ele>108.8</ele>
        <time>2023-08-16T09:20:17Z</time>
      </trkpt>
      <trkpt lat="49.77491" lon="2.19708">
        <ele>108.8</ele>
        <time>2023-08-16T09:20:19Z</time>
      </trkpt>
      <trkpt lat="49.77491" lon="2.19708">
        <ele>108.8</ele>
        <time>2023-08-16T09:20:20Z</time>
      </trkpt>
      <trkpt lat="49.77491" lon="2.19709">
        <ele>108.8</ele>
        <time>2023-08-16T09:20:22Z</time>
      </trkpt>
      <trkpt lat="49.77491" lon="2.19709">
        <ele>108.8</ele>
        <time>2023-08-16T09:20:23Z</time>
      </trkpt>
      <trkpt lat="49.77491" lon="2.19709">
        <ele>108.8</ele>
        <time>2023-08-16T09:20:24Z</time>
      </trkpt>
      <trkpt lat="49.77491" lon="2.19709">
        <ele>108.8</ele>
        <time>2023-08-16T09:20:26Z</time>
      </trkpt>
      <trkpt lat="49.77491" lon="2.19709">
        <ele>108.7</ele>
        <time>2023-08-16T09:20:27Z</time>
      </trkpt>
      <trkpt lat="49.77491" lon="2.1971">
        <ele>108.7</ele>
        <time>2023-08-16T09:20:29Z</time>
      </trkpt>
      <trkpt lat="49.77491" lon="2.1971">
        <ele>108.7</ele>
        <time>2023-08-16T09:20:30Z</time>
      </trkpt>
      <trkpt lat="49.77491" lon="2.1971">
        <ele>108.7</ele>
        <time>2023-08-16T09:20:31Z</time>
      </trkpt>
      <trkpt lat="49.77491" lon="2.1971">
        <ele>108.7</ele>
        <time>2023-08-16T09:20:32Z</time>
      </trkpt>
      <trkpt lat="49.77491" lon="2.1971">
        <ele>108.7</ele>
        <time>2023-08-16T09:20:33Z</time>
      </trkpt>
      <trkpt lat="49.77491" lon="2.1971">
        <ele>108.7</ele>
        <time>2023-08-16T09:20:34Z</time>
      </trkpt>
      <trkpt lat="49.77491" lon="2.1971">
        <ele>108.7</ele>
        <time>2023-08-16T09:20:35Z</time>
      </trkpt>
      <trkpt lat="49.77491" lon="2.1971">
        <ele>108.7</ele>
        <time>2023-08-16T09:20:36Z</time>
      </trkpt>
      <trkpt lat="49.77491" lon="2.1971">
        <ele>108.7</ele>
        <time>2023-08-16T09:20:37Z</time>
      </trkpt>
      <trkpt lat="49.77491" lon="2.1971">
        <ele>108.7</ele>
        <time>2023-08-16T09:20:38Z</time>
      </trkpt>
      <trkpt lat="49.77491" lon="2.1971">
        <ele>108.7</ele>
        <time>2023-08-16T09:20:39Z</time>
      </trkpt>
      <trkpt lat="49.77491" lon="2.1971">
        <ele>108.7</ele>
        <time>2023-08-16T09:20:40Z</time>
      </trkpt>
      <trkpt lat="49.77491" lon="2.1971">
        <ele>108.7</ele>
        <time>2023-08-16T09:20:41Z</time>
      </trkpt>
      <trkpt lat="49.77491" lon="2.1971">
        <ele>108.7</ele>
        <time>2023-08-16T09:20:42Z</time>
      </trkpt>
      <trkpt lat="49.77491" lon="2.1971">
        <ele>108.7</ele>
        <time>2023-08-16T09:20:43Z</time>
      </trkpt>
      <trkpt lat="49.77491" lon="2.1971">
        <ele>108.7</ele>
        <time>2023-08-16T09:20:44Z</time>
      </trkpt>
      <trkpt lat="49.77491" lon="2.1971">
        <ele>108.7</ele>
        <time>2023-08-16T09:20:45Z</time>
      </trkpt>
      <trkpt lat="49.77491" lon="2.1971">
        <ele>108.7</ele>
        <time>2023-08-16T09:20:46Z</time>
      </trkpt>
      <trkpt lat="49.77491" lon="2.19709">
        <ele>108.6</ele>
        <time>2023-08-16T09:20:47Z</time>
      </trkpt>
      <trkpt lat="49.77491" lon="2.19709">
        <ele>108.6</ele>
        <time>2023-08-16T09:20:49Z</time>
      </trkpt>
      <trkpt lat="49.77492" lon="2.19708">
        <ele>108.6</ele>
        <time>2023-08-16T09:20:50Z</time>
      </trkpt>
      <trkpt lat="49.77493" lon="2.19708">
        <ele>108.5</ele>
        <time>2023-08-16T09:20:51Z</time>
      </trkpt>
      <trkpt lat="49.77493" lon="2.19706">
        <ele>108.5</ele>
        <time>2023-08-16T09:20:53Z</time>
      </trkpt>
      <trkpt lat="49.77494" lon="2.19704">
        <ele>108.4</ele>
        <time>2023-08-16T09:20:54Z</time>
      </trkpt>
      <trkpt lat="49.77495" lon="2.19702">
        <ele>108.3</ele>
        <time>2023-08-16T09:20:55Z</time>
      </trkpt>
      <trkpt lat="49.77496" lon="2.19699">
        <ele>108.2</ele>
        <time>2023-08-16T09:20:57Z</time>
      </trkpt>
      <trkpt lat="49.77496" lon="2.19697">
        <ele>108.1</ele>
        <time>2023-08-16T09:20:58Z</time>
      </trkpt>
      <trkpt lat="49.77496" lon="2.19695">
        <ele>108</ele>
        <time>2023-08-16T09:20:59Z</time>
      </trkpt>
      <trkpt lat="49.77496" lon="2.19693">
        <ele>108</ele>
        <time>2023-08-16T09:21:00Z</time>
      </trkpt>
      <trkpt lat="49.77496" lon="2.19691">
        <ele>107.9</ele>
        <time>2023-08-16T09:21:02Z</time>
      </trkpt>
      <trkpt lat="49.77496" lon="2.19689">
        <ele>107.8</ele>
        <time>2023-08-16T09:21:03Z</time>
      </trkpt>
      <trkpt lat="49.77497" lon="2.19687">
        <ele>107.7</ele>
        <time>2023-08-16T09:21:04Z</time>
      </trkpt>
      <trkpt lat="49.77496" lon="2.19685">
        <ele>107.7</ele>
        <time>2023-08-16T09:21:05Z</time>
      </trkpt>
      <trkpt lat="49.77497" lon="2.19684">
        <ele>107.6</ele>
        <time>2023-08-16T09:21:06Z</time>
      </trkpt>
      <trkpt lat="49.77497" lon="2.19682">
        <ele>107.6</ele>
        <time>2023-08-16T09:21:07Z</time>
      </trkpt>
      <trkpt lat="49.77497" lon="2.19677">
        <ele>107.4</ele>
        <time>2023-08-16T09:21:09Z</time>
      </trkpt>
      <trkpt lat="49.77498" lon="2.19676">
        <ele>107.4</ele>
        <time>2023-08-16T09:21:10Z</time>
      </trkpt>
      <trkpt lat="49.77498" lon="2.19674">
        <ele>107.3</ele>
        <time>2023-08-16T09:21:11Z</time>
      </trkpt>
      <trkpt lat="49.77498" lon="2.19672">
        <ele>107.2</ele>
        <time>2023-08-16T09:21:12Z</time>
      </trkpt>
      <trkpt lat="49.77499" lon="2.19669">
        <ele>107.1</ele>
        <time>2023-08-16T09:21:14Z</time>
      </trkpt>
      <trkpt lat="49.77499" lon="2.19666">
        <ele>107</ele>
        <time>2023-08-16T09:21:15Z</time>
      </trkpt>
      <trkpt lat="49.77499" lon="2.19664">
        <ele>106.9</ele>
        <time>2023-08-16T09:21:16Z</time>
      </trkpt>
      <trkpt lat="49.77499" lon="2.19662">
        <ele>106.9</ele>
        <time>2023-08-16T09:21:17Z</time>
      </trkpt>
      <trkpt lat="49.77499" lon="2.19659">
        <ele>106.8</ele>
        <time>2023-08-16T09:21:18Z</time>
      </trkpt>
      <trkpt lat="49.77499" lon="2.19658">
        <ele>106.7</ele>
        <time>2023-08-16T09:21:20Z</time>
      </trkpt>
      <trkpt lat="49.77499" lon="2.19656">
        <ele>106.7</ele>
        <time>2023-08-16T09:21:21Z</time>
      </trkpt>
      <trkpt lat="49.77499" lon="2.19653">
        <ele>106.6</ele>
        <time>2023-08-16T09:21:22Z</time>
      </trkpt>
      <trkpt lat="49.77499" lon="2.19652">
        <ele>106.6</ele>
        <time>2023-08-16T09:21:23Z</time>
      </trkpt>
      <trkpt lat="49.77499" lon="2.19651">
        <ele>106.5</ele>
        <time>2023-08-16T09:21:24Z</time>
      </trkpt>
      <trkpt lat="49.775" lon="2.19648">
        <ele>106.5</ele>
        <time>2023-08-16T09:21:25Z</time>
      </trkpt>
      <trkpt lat="49.775" lon="2.19647">
        <ele>106.4</ele>
        <time>2023-08-16T09:21:26Z</time>
      </trkpt>
      <trkpt lat="49.775" lon="2.19645">
        <ele>106.4</ele>
        <time>2023-08-16T09:21:28Z</time>
      </trkpt>
      <trkpt lat="49.775" lon="2.19643">
        <ele>106.3</ele>
        <time>2023-08-16T09:21:29Z</time>
      </trkpt>
      <trkpt lat="49.775" lon="2.19641">
        <ele>106.2</ele>
        <time>2023-08-16T09:21:30Z</time>
      </trkpt>
      <trkpt lat="49.775" lon="2.19639">
        <ele>106.2</ele>
        <time>2023-08-16T09:21:31Z</time>
      </trkpt>
      <trkpt lat="49.775" lon="2.19637">
        <ele>106.1</ele>
        <time>2023-08-16T09:21:32Z</time>
      </trkpt>
      <trkpt lat="49.775" lon="2.19635">
        <ele>106.1</ele>
        <time>2023-08-16T09:21:33Z</time>
      </trkpt>
      <trkpt lat="49.775" lon="2.19633">
        <ele>106</ele>
        <time>2023-08-16T09:21:35Z</time>
      </trkpt>
      <trkpt lat="49.77499" lon="2.19632">
        <ele>106</ele>
        <time>2023-08-16T09:21:36Z</time>
      </trkpt>
      <trkpt lat="49.77499" lon="2.1963">
        <ele>105.9</ele>
        <time>2023-08-16T09:21:37Z</time>
      </trkpt>
      <trkpt lat="49.77499" lon="2.19628">
        <ele>105.9</ele>
        <time>2023-08-16T09:21:38Z</time>
      </trkpt>
      <trkpt lat="49.77498" lon="2.19627">
        <ele>105.9</ele>
        <time>2023-08-16T09:21:39Z</time>
      </trkpt>
      <trkpt lat="49.77498" lon="2.19626">
        <ele>105.8</ele>
        <time>2023-08-16T09:21:40Z</time>
      </trkpt>
      <trkpt lat="49.77498" lon="2.19623">
        <ele>105.8</ele>
        <time>2023-08-16T09:21:42Z</time>
      </trkpt>
      <trkpt lat="49.77497" lon="2.19622">
        <ele>105.7</ele>
        <time>2023-08-16T09:21:43Z</time>
      </trkpt>
      <trkpt lat="49.77497" lon="2.19621">
        <ele>105.7</ele>
        <time>2023-08-16T09:21:44Z</time>
      </trkpt>
      <trkpt lat="49.77497" lon="2.1962">
        <ele>105.7</ele>
        <time>2023-08-16T09:21:46Z</time>
      </trkpt>
      <trkpt lat="49.77497" lon="2.19618">
        <ele>105.7</ele>
        <time>2023-08-16T09:21:47Z</time>
      </trkpt>
      <trkpt lat="49.77497" lon="2.19617">
        <ele>105.7</ele>
        <time>2023-08-16T09:21:48Z</time>
      </trkpt>
      <trkpt lat="49.77497" lon="2.19616">
        <ele>105.6</ele>
        <time>2023-08-16T09:21:49Z</time>
      </trkpt>
      <trkpt lat="49.77497" lon="2.19615">
        <ele>105.6</ele>
        <time>2023-08-16T09:21:50Z</time>
      </trkpt>
      <trkpt lat="49.77496" lon="2.19614">
        <ele>105.6</ele>
        <time>2023-08-16T09:21:51Z</time>
      </trkpt>
      <trkpt lat="49.77496" lon="2.19612">
        <ele>105.5</ele>
        <time>2023-08-16T09:21:52Z</time>
      </trkpt>
      <trkpt lat="49.77496" lon="2.19609">
        <ele>105.5</ele>
        <time>2023-08-16T09:21:54Z</time>
      </trkpt>
      <trkpt lat="49.77496" lon="2.19607">
        <ele>105.4</ele>
        <time>2023-08-16T09:21:55Z</time>
      </trkpt>
      <trkpt lat="49.77496" lon="2.19605">
        <ele>105.4</ele>
        <time>2023-08-16T09:21:56Z</time>
      </trkpt>
      <trkpt lat="49.77496" lon="2.19602">
        <ele>105.3</ele>
        <time>2023-08-16T09:21:57Z</time>
      </trkpt>
      <trkpt lat="49.77496" lon="2.196">
        <ele>105.3</ele>
        <time>2023-08-16T09:21:58Z</time>
      </trkpt>
      <trkpt lat="49.77496" lon="2.19599">
        <ele>105.3</ele>
        <time>2023-08-16T09:21:59Z</time>
      </trkpt>
      <trkpt lat="49.77496" lon="2.19597">
        <ele>105.2</ele>
        <time>2023-08-16T09:22:01Z</time>
      </trkpt>
      <trkpt lat="49.77496" lon="2.19594">
        <ele>105.2</ele>
        <time>2023-08-16T09:22:02Z</time>
      </trkpt>
      <trkpt lat="49.77496" lon="2.19591">
        <ele>105.1</ele>
        <time>2023-08-16T09:22:03Z</time>
      </trkpt>
      <trkpt lat="49.77496" lon="2.1959">
        <ele>105.1</ele>
        <time>2023-08-16T09:22:04Z</time>
      </trkpt>
      <trkpt lat="49.77496" lon="2.19589">
        <ele>105.1</ele>
        <time>2023-08-16T09:22:05Z</time>
      </trkpt>
      <trkpt lat="49.77496" lon="2.19587">
        <ele>105</ele>
        <time>2023-08-16T09:22:06Z</time>
      </trkpt>
      <trkpt lat="49.77495" lon="2.19585">
        <ele>105</ele>
        <time>2023-08-16T09:22:07Z</time>
      </trkpt>
      <trkpt lat="49.77495" lon="2.19583">
        <ele>104.9</ele>
        <time>2023-08-16T09:22:09Z</time>
      </trkpt>
      <trkpt lat="49.77495" lon="2.19581">
        <ele>104.9</ele>
        <time>2023-08-16T09:22:10Z</time>
      </trkpt>
      <trkpt lat="49.77495" lon="2.1958">
        <ele>104.9</ele>
        <time>2023-08-16T09:22:11Z</time>
      </trkpt>
      <trkpt lat="49.77495" lon="2.19578">
        <ele>104.8</ele>
        <time>2023-08-16T09:22:12Z</time>
      </trkpt>
      <trkpt lat="49.77495" lon="2.19577">
        <ele>104.8</ele>
        <time>2023-08-16T09:22:13Z</time>
      </trkpt>
      <trkpt lat="49.77495" lon="2.19575">
        <ele>104.8</ele>
        <time>2023-08-16T09:22:15Z</time>
      </trkpt>
      <trkpt lat="49.77495" lon="2.19573">
        <ele>104.7</ele>
        <time>2023-08-16T09:22:16Z</time>
      </trkpt>
      <trkpt lat="49.77494" lon="2.19571">
        <ele>104.7</ele>
        <time>2023-08-16T09:22:17Z</time>
      </trkpt>
      <trkpt lat="49.77494" lon="2.1957">
        <ele>104.7</ele>
        <time>2023-08-16T09:22:18Z</time>
      </trkpt>
      <trkpt lat="49.77494" lon="2.19569">
        <ele>104.6</ele>
        <time>2023-08-16T09:22:19Z</time>
      </trkpt>
      <trkpt lat="49.77494" lon="2.19567">
        <ele>104.6</ele>
        <time>2023-08-16T09:22:20Z</time>
      </trkpt>
      <trkpt lat="49.77494" lon="2.19566">
        <ele>104.6</ele>
        <time>2023-08-16T09:22:21Z</time>
      </trkpt>
      <trkpt lat="49.77493" lon="2.19564">
        <ele>104.5</ele>
        <time>2023-08-16T09:22:23Z</time>
      </trkpt>
      <trkpt lat="49.77493" lon="2.19562">
        <ele>104.5</ele>
        <time>2023-08-16T09:22:24Z</time>
      </trkpt>
      <trkpt lat="49.77493" lon="2.19561">
        <ele>104.5</ele>
        <time>2023-08-16T09:22:25Z</time>
      </trkpt>
      <trkpt lat="49.77493" lon="2.19559">
        <ele>104.4</ele>
        <time>2023-08-16T09:22:27Z</time>
      </trkpt>
      <trkpt lat="49.77493" lon="2.19557">
        <ele>104.4</ele>
        <time>2023-08-16T09:22:28Z</time>
      </trkpt>
      <trkpt lat="49.77493" lon="2.19556">
        <ele>104.4</ele>
        <time>2023-08-16T09:22:29Z</time>
      </trkpt>
      <trkpt lat="49.77493" lon="2.19554">
        <ele>104.4</ele>
        <time>2023-08-16T09:22:30Z</time>
      </trkpt>
      <trkpt lat="49.77494" lon="2.19552">
        <ele>104.3</ele>
        <time>2023-08-16T09:22:32Z</time>
      </trkpt>
      <trkpt lat="49.77494" lon="2.19551">
        <ele>104.3</ele>
        <time>2023-08-16T09:22:33Z</time>
      </trkpt>
      <trkpt lat="49.77495" lon="2.19549">
        <ele>104.2</ele>
        <time>2023-08-16T09:22:34Z</time>
      </trkpt>
      <trkpt lat="49.77495" lon="2.19548">
        <ele>104.2</ele>
        <time>2023-08-16T09:22:35Z</time>
      </trkpt>
      <trkpt lat="49.77495" lon="2.19546">
        <ele>104.1</ele>
        <time>2023-08-16T09:22:37Z</time>
      </trkpt>
      <trkpt lat="49.77496" lon="2.19545">
        <ele>104.1</ele>
        <time>2023-08-16T09:22:38Z</time>
      </trkpt>
      <trkpt lat="49.77497" lon="2.19545">
        <ele>104</ele>
        <time>2023-08-16T09:22:40Z</time>
      </trkpt>
      <trkpt lat="49.77497" lon="2.19544">
        <ele>104</ele>
        <time>2023-08-16T09:22:41Z</time>
      </trkpt>
      <trkpt lat="49.77497" lon="2.19545">
        <ele>104</ele>
        <time>2023-08-16T09:22:43Z</time>
      </trkpt>
      <trkpt lat="49.77497" lon="2.19545">
        <ele>104</ele>
        <time>2023-08-16T09:22:44Z</time>
      </trkpt>
      <trkpt lat="49.77497" lon="2.19546">
        <ele>104</ele>
        <time>2023-08-16T09:22:46Z</time>
      </trkpt>
      <trkpt lat="49.77497" lon="2.19546">
        <ele>103.9</ele>
        <time>2023-08-16T09:22:47Z</time>
      </trkpt>
      <trkpt lat="49.77497" lon="2.19546">
        <ele>103.9</ele>
        <time>2023-08-16T09:22:48Z</time>
      </trkpt>
      <trkpt lat="49.77497" lon="2.19546">
        <ele>103.9</ele>
        <time>2023-08-16T09:22:50Z</time>
      </trkpt>
      <trkpt lat="49.77497" lon="2.19546">
        <ele>103.9</ele>
        <time>2023-08-16T09:22:51Z</time>
      </trkpt>
      <trkpt lat="49.77497" lon="2.19546">
        <ele>103.9</ele>
        <time>2023-08-16T09:22:52Z</time>
      </trkpt>
      <trkpt lat="49.77497" lon="2.19546">
        <ele>103.9</ele>
        <time>2023-08-16T09:22:54Z</time>
      </trkpt>
      <trkpt lat="49.77497" lon="2.19546">
        <ele>103.9</ele>
        <time>2023-08-16T09:22:55Z</time>
      </trkpt>
      <trkpt lat="49.77497" lon="2.19546">
        <ele>103.9</ele>
        <time>2023-08-16T09:22:56Z</time>
      </trkpt>
      <trkpt lat="49.77496" lon="2.1955">
        <ele>103.7</ele>
        <time>2023-08-16T09:22:57Z</time>
      </trkpt>
      <trkpt lat="49.77497" lon="2.19551">
        <ele>103.7</ele>
        <time>2023-08-16T09:22:58Z</time>
      </trkpt>
      <trkpt lat="49.77497" lon="2.1955">
        <ele>103.6</ele>
        <time>2023-08-16T09:22:59Z</time>
      </trkpt>
      <trkpt lat="49.77497" lon="2.1955">
        <ele>103.6</ele>
        <time>2023-08-16T09:23:00Z</time>
      </trkpt>
      <trkpt lat="49.77497" lon="2.19546">
        <ele>103.4</ele>
        <time>2023-08-16T09:23:02Z</time>
      </trkpt>
      <trkpt lat="49.77497" lon="2.19547">
        <ele>103.4</ele>
        <time>2023-08-16T09:23:03Z</time>
      </trkpt>
      <trkpt lat="49.77496" lon="2.19547">
        <ele>103.4</ele>
        <time>2023-08-16T09:23:04Z</time>
      </trkpt>
      <trkpt lat="49.77496" lon="2.19547">
        <ele>103.4</ele>
        <time>2023-08-16T09:23:06Z</time>
      </trkpt>
      <trkpt lat="49.77496" lon="2.19548">
        <ele>103.4</ele>
        <time>2023-08-16T09:23:07Z</time>
      </trkpt>
      <trkpt lat="49.77496" lon="2.19548">
        <ele>103.3</ele>
        <time>2023-08-16T09:23:09Z</time>
      </trkpt>
      <trkpt lat="49.77496" lon="2.19548">
        <ele>103.3</ele>
        <time>2023-08-16T09:23:10Z</time>
      </trkpt>
      <trkpt lat="49.77496" lon="2.19549">
        <ele>103.3</ele>
        <time>2023-08-16T09:23:11Z</time>
      </trkpt>
      <trkpt lat="49.77496" lon="2.1955">
        <ele>103.3</ele>
        <time>2023-08-16T09:23:12Z</time>
      </trkpt>
      <trkpt lat="49.77496" lon="2.1955">
        <ele>103.2</ele>
        <time>2023-08-16T09:23:13Z</time>
      </trkpt>
      <trkpt lat="49.77496" lon="2.1955">
        <ele>103.2</ele>
        <time>2023-08-16T09:23:14Z</time>
      </trkpt>
      <trkpt lat="49.77496" lon="2.1955">
        <ele>103.2</ele>
        <time>2023-08-16T09:23:15Z</time>
      </trkpt>
      <trkpt lat="49.77496" lon="2.1955">
        <ele>103.2</ele>
        <time>2023-08-16T09:23:16Z</time>
      </trkpt>
      <trkpt lat="49.77496" lon="2.1955">
        <ele>103.2</ele>
        <time>2023-08-16T09:23:17Z</time>
      </trkpt>
      <trkpt lat="49.77496" lon="2.1955">
        <ele>103.2</ele>
        <time>2023-08-16T09:23:18Z</time>
      </trkpt>
      <trkpt lat="49.77496" lon="2.1955">
        <ele>103.2</ele>
        <time>2023-08-16T09:23:19Z</time>
      </trkpt>
      <trkpt lat="49.77496" lon="2.1955">
        <ele>103.2</ele>
        <time>2023-08-16T09:23:20Z</time>
      </trkpt>
      <trkpt lat="49.77496" lon="2.19549">
        <ele>103.2</ele>
        <time>2023-08-16T09:23:21Z</time>
      </trkpt>
      <trkpt lat="49.77496" lon="2.19549">
        <ele>103.1</ele>
        <time>2023-08-16T09:23:22Z</time>
      </trkpt>
      <trkpt lat="49.77495" lon="2.19549">
        <ele>103.1</ele>
        <time>2023-08-16T09:23:24Z</time>
      </trkpt>
      <trkpt lat="49.77494" lon="2.19549">
        <ele>103</ele>
        <time>2023-08-16T09:23:25Z</time>
      </trkpt>
      <trkpt lat="49.77493" lon="2.19548">
        <ele>102.9</ele>
        <time>2023-08-16T09:23:27Z</time>
      </trkpt>
      <trkpt lat="49.77493" lon="2.19547">
        <ele>102.9</ele>
        <time>2023-08-16T09:23:28Z</time>
      </trkpt>
      <trkpt lat="49.77492" lon="2.19545">
        <ele>102.8</ele>
        <time>2023-08-16T09:23:29Z</time>
      </trkpt>
      <trkpt lat="49.77492" lon="2.19543">
        <ele>102.7</ele>
        <time>2023-08-16T09:23:30Z</time>
      </trkpt>
      <trkpt lat="49.77492" lon="2.1954">
        <ele>102.5</ele>
        <time>2023-08-16T09:23:31Z</time>
      </trkpt>
      <trkpt lat="49.77492" lon="2.19538">
        <ele>102.4</ele>
        <time>2023-08-16T09:23:32Z</time>
      </trkpt>
      <trkpt lat="49.77492" lon="2.19537">
        <ele>102.4</ele>
        <time>2023-08-16T09:23:33Z</time>
      </trkpt>
      <trkpt lat="49.77492" lon="2.19534">
        <ele>102.2</ele>
        <time>2023-08-16T09:23:34Z</time>
      </trkpt>
      <trkpt lat="49.77493" lon="2.19532">
        <ele>102.1</ele>
        <time>2023-08-16T09:23:35Z</time>
      </trkpt>
      <trkpt lat="49.77493" lon="2.19529">
        <ele>102</ele>
        <time>2023-08-16T09:23:37Z</time>
      </trkpt>
      <trkpt lat="49.77493" lon="2.19527">
        <ele>101.9</ele>
        <time>2023-08-16T09:23:38Z</time>
      </trkpt>
      <trkpt lat="49.77493" lon="2.19524">
        <ele>101.8</ele>
        <time>2023-08-16T09:23:39Z</time>
      </trkpt>
      <trkpt lat="49.77493" lon="2.19523">
        <ele>101.8</ele>
        <time>2023-08-16T09:23:40Z</time>
      </trkpt>
      <trkpt lat="49.77494" lon="2.19521">
        <ele>101.7</ele>
        <time>2023-08-16T09:23:41Z</time>
      </trkpt>
      <trkpt lat="49.77494" lon="2.19518">
        <ele>101.6</ele>
        <time>2023-08-16T09:23:42Z</time>
      </trkpt>
      <trkpt lat="49.77495" lon="2.19517">
        <ele>101.6</ele>
        <time>2023-08-16T09:23:44Z</time>
      </trkpt>
      <trkpt lat="49.77495" lon="2.19516">
        <ele>101.5</ele>
        <time>2023-08-16T09:23:45Z</time>
      </trkpt>
      <trkpt lat="49.77495" lon="2.19513">
        <ele>101.4</ele>
        <time>2023-08-16T09:23:46Z</time>
      </trkpt>
      <trkpt lat="49.77496" lon="2.19512">
        <ele>101.4</ele>
        <time>2023-08-16T09:23:47Z</time>
      </trkpt>
      <trkpt lat="49.77496" lon="2.19511">
        <ele>101.3</ele>
        <time>2023-08-16T09:23:48Z</time>
      </trkpt>
      <trkpt lat="49.77496" lon="2.19508">
        <ele>101.2</ele>
        <time>2023-08-16T09:23:49Z</time>
      </trkpt>
      <trkpt lat="49.77496" lon="2.19506">
        <ele>101.2</ele>
        <time>2023-08-16T09:23:51Z</time>
      </trkpt>
      <trkpt lat="49.77496" lon="2.19505">
        <ele>101.1</ele>
        <time>2023-08-16T09:23:52Z</time>
      </trkpt>
      <trkpt lat="49.77496" lon="2.19503">
        <ele>101.1</ele>
        <time>2023-08-16T09:23:53Z</time>
      </trkpt>
      <trkpt lat="49.77497" lon="2.19501">
        <ele>101</ele>
        <time>2023-08-16T09:23:54Z</time>
      </trkpt>
      <trkpt lat="49.77497" lon="2.19499">
        <ele>100.9</ele>
        <time>2023-08-16T09:23:55Z</time>
      </trkpt>
      <trkpt lat="49.77497" lon="2.19496">
        <ele>100.8</ele>
        <time>2023-08-16T09:23:56Z</time>
      </trkpt>
      <trkpt lat="49.77497" lon="2.19495">
        <ele>100.8</ele>
        <time>2023-08-16T09:23:58Z</time>
      </trkpt>
      <trkpt lat="49.77497" lon="2.19493">
        <ele>100.8</ele>
        <time>2023-08-16T09:23:59Z</time>
      </trkpt>
      <trkpt lat="49.77496" lon="2.1949">
        <ele>100.7</ele>
        <time>2023-08-16T09:24:00Z</time>
      </trkpt>
      <trkpt lat="49.77496" lon="2.19489">
        <ele>100.6</ele>
        <time>2023-08-16T09:24:01Z</time>
      </trkpt>
      <trkpt lat="49.77496" lon="2.19488">
        <ele>100.6</ele>
        <time>2023-08-16T09:24:02Z</time>
      </trkpt>
      <trkpt lat="49.77496" lon="2.19486">
        <ele>100.5</ele>
        <time>2023-08-16T09:24:03Z</time>
      </trkpt>
      <trkpt lat="49.77496" lon="2.19484">
        <ele>100.5</ele>
        <time>2023-08-16T09:24:05Z</time>
      </trkpt>
      <trkpt lat="49.77496" lon="2.19482">
        <ele>100.4</ele>
        <time>2023-08-16T09:24:06Z</time>
      </trkpt>
      <trkpt lat="49.77497" lon="2.1948">
        <ele>100.4</ele>
        <time>2023-08-16T09:24:07Z</time>
      </trkpt>
      <trkpt lat="49.77497" lon="2.19479">
        <ele>100.3</ele>
        <time>2023-08-16T09:24:08Z</time>
      </trkpt>
      <trkpt lat="49.77497" lon="2.19477">
        <ele>100.3</ele>
        <time>2023-08-16T09:24:09Z</time>
      </trkpt>
      <trkpt lat="49.77497" lon="2.19475">
        <ele>100.2</ele>
        <time>2023-08-16T09:24:10Z</time>
      </trkpt>
      <trkpt lat="49.77497" lon="2.19473">
        <ele>100.2</ele>
        <time>2023-08-16T09:24:12Z</time>
      </trkpt>
      <trkpt lat="49.77497" lon="2.19472">
        <ele>100.1</ele>
        <time>2023-08-16T09:24:13Z</time>
      </trkpt>
      <trkpt lat="49.77497" lon="2.19468">
        <ele>100</ele>
        <time>2023-08-16T09:24:14Z</time>
      </trkpt>
      <trkpt lat="49.77497" lon="2.19467">
        <ele>100</ele>
        <time>2023-08-16T09:24:15Z</time>
      </trkpt>
      <trkpt lat="49.77497" lon="2.19466">
        <ele>100</ele>
        <time>2023-08-16T09:24:16Z</time>
      </trkpt>
      <trkpt lat="49.77497" lon="2.19464">
        <ele>99.9</ele>
        <time>2023-08-16T09:24:17Z</time>
      </trkpt>
      <trkpt lat="49.77497" lon="2.19461">
        <ele>99.9</ele>
        <time>2023-08-16T09:24:18Z</time>
      </trkpt>
      <trkpt lat="49.77497" lon="2.19459">
        <ele>99.8</ele>
        <time>2023-08-16T09:24:20Z</time>
      </trkpt>
      <trkpt lat="49.77497" lon="2.19457">
        <ele>99.7</ele>
        <time>2023-08-16T09:24:21Z</time>
      </trkpt>
      <trkpt lat="49.77497" lon="2.19456">
        <ele>99.7</ele>
        <time>2023-08-16T09:24:22Z</time>
      </trkpt>
      <trkpt lat="49.77497" lon="2.19454">
        <ele>99.7</ele>
        <time>2023-08-16T09:24:23Z</time>
      </trkpt>
      <trkpt lat="49.77497" lon="2.19451">
        <ele>99.6</ele>
        <time>2023-08-16T09:24:24Z</time>
      </trkpt>
      <trkpt lat="49.77497" lon="2.19449">
        <ele>99.5</ele>
        <time>2023-08-16T09:24:25Z</time>
      </trkpt>
      <trkpt lat="49.77497" lon="2.19448">
        <ele>99.5</ele>
        <time>2023-08-16T09:24:26Z</time>
      </trkpt>
      <trkpt lat="49.77497" lon="2.19446">
        <ele>99.5</ele>
        <time>2023-08-16T09:24:28Z</time>
      </trkpt>
      <trkpt lat="49.77497" lon="2.19444">
        <ele>99.4</ele>
        <time>2023-08-16T09:24:29Z</time>
      </trkpt>
      <trkpt lat="49.77497" lon="2.19443">
        <ele>99.4</ele>
        <time>2023-08-16T09:24:30Z</time>
      </trkpt>
      <trkpt lat="49.77497" lon="2.19441">
        <ele>99.3</ele>
        <time>2023-08-16T09:24:31Z</time>
      </trkpt>
      <trkpt lat="49.77497" lon="2.19439">
        <ele>99.3</ele>
        <time>2023-08-16T09:24:32Z</time>
      </trkpt>
      <trkpt lat="49.77497" lon="2.19437">
        <ele>99.2</ele>
        <time>2023-08-16T09:24:34Z</time>
      </trkpt>
      <trkpt lat="49.77497" lon="2.19435">
        <ele>99.2</ele>
        <time>2023-08-16T09:24:35Z</time>
      </trkpt>
      <trkpt lat="49.77497" lon="2.19434">
        <ele>99.1</ele>
        <time>2023-08-16T09:24:36Z</time>
      </trkpt>
      <trkpt lat="49.77497" lon="2.19432">
        <ele>99.1</ele>
        <time>2023-08-16T09:24:37Z</time>
      </trkpt>
      <trkpt lat="49.77497" lon="2.19429">
        <ele>99</ele>
        <time>2023-08-16T09:24:38Z</time>
      </trkpt>
      <trkpt lat="49.77497" lon="2.19427">
        <ele>99</ele>
        <time>2023-08-16T09:24:39Z</time>
      </trkpt>
      <trkpt lat="49.77497" lon="2.19426">
        <ele>99</ele>
        <time>2023-08-16T09:24:40Z</time>
      </trkpt>
      <trkpt lat="49.77497" lon="2.19423">
        <ele>98.9</ele>
        <time>2023-08-16T09:24:42Z</time>
      </trkpt>
      <trkpt lat="49.77497" lon="2.19422">
        <ele>98.9</ele>
        <time>2023-08-16T09:24:43Z</time>
      </trkpt>
      <trkpt lat="49.77497" lon="2.1942">
        <ele>98.8</ele>
        <time>2023-08-16T09:24:44Z</time>
      </trkpt>
      <trkpt lat="49.77497" lon="2.19417">
        <ele>98.7</ele>
        <time>2023-08-16T09:24:45Z</time>
      </trkpt>
      <trkpt lat="49.77497" lon="2.19416">
        <ele>98.7</ele>
        <time>2023-08-16T09:24:46Z</time>
      </trkpt>
      <trkpt lat="49.77497" lon="2.19415">
        <ele>98.7</ele>
        <time>2023-08-16T09:24:47Z</time>
      </trkpt>
      <trkpt lat="49.77497" lon="2.19412">
        <ele>98.6</ele>
        <time>2023-08-16T09:24:49Z</time>
      </trkpt>
      <trkpt lat="49.77497" lon="2.1941">
        <ele>98.6</ele>
        <time>2023-08-16T09:24:50Z</time>
      </trkpt>
      <trkpt lat="49.77497" lon="2.19408">
        <ele>98.5</ele>
        <time>2023-08-16T09:24:51Z</time>
      </trkpt>
      <trkpt lat="49.77498" lon="2.19406">
        <ele>98.5</ele>
        <time>2023-08-16T09:24:52Z</time>
      </trkpt>
      <trkpt lat="49.77498" lon="2.19405">
        <ele>98.4</ele>
        <time>2023-08-16T09:24:53Z</time>
      </trkpt>
      <trkpt lat="49.77498" lon="2.19401">
        <ele>98.3</ele>
        <time>2023-08-16T09:24:55Z</time>
      </trkpt>
      <trkpt lat="49.77498" lon="2.194">
        <ele>98.3</ele>
        <time>2023-08-16T09:24:56Z</time>
      </trkpt>
      <trkpt lat="49.77498" lon="2.19399">
        <ele>98.2</ele>
        <time>2023-08-16T09:24:57Z</time>
      </trkpt>
      <trkpt lat="49.77498" lon="2.19397">
        <ele>98.1</ele>
        <time>2023-08-16T09:24:58Z</time>
      </trkpt>
      <trkpt lat="49.77498" lon="2.19395">
        <ele>98.1</ele>
        <time>2023-08-16T09:24:59Z</time>
      </trkpt>
      <trkpt lat="49.77498" lon="2.19393">
        <ele>98</ele>
        <time>2023-08-16T09:25:00Z</time>
      </trkpt>
      <trkpt lat="49.77498" lon="2.19391">
        <ele>97.9</ele>
        <time>2023-08-16T09:25:02Z</time>
      </trkpt>
      <trkpt lat="49.77498" lon="2.1939">
        <ele>97.9</ele>
        <time>2023-08-16T09:25:03Z</time>
      </trkpt>
      <trkpt lat="49.77498" lon="2.19388">
        <ele>97.8</ele>
        <time>2023-08-16T09:25:04Z</time>
      </trkpt>
      <trkpt lat="49.77498" lon="2.19387">
        <ele>97.8</ele>
        <time>2023-08-16T09:25:05Z</time>
      </trkpt>
      <trkpt lat="49.77498" lon="2.19385">
        <ele>97.7</ele>
        <time>2023-08-16T09:25:06Z</time>
      </trkpt>
      <trkpt lat="49.77498" lon="2.19384">
        <ele>97.6</ele>
        <time>2023-08-16T09:25:07Z</time>
      </trkpt>
      <trkpt lat="49.77498" lon="2.19382">
        <ele>97.6</ele>
        <time>2023-08-16T09:25:08Z</time>
      </trkpt>
      <trkpt lat="49.77498" lon="2.1938">
        <ele>97.5</ele>
        <time>2023-08-16T09:25:10Z</time>
      </trkpt>
      <trkpt lat="49.77498" lon="2.19378">
        <ele>97.4</ele>
        <time>2023-08-16T09:25:11Z</time>
      </trkpt>
      <trkpt lat="49.77497" lon="2.19377">
        <ele>97.4</ele>
        <time>2023-08-16T09:25:12Z</time>
      </trkpt>
      <trkpt lat="49.77497" lon="2.19375">
        <ele>97.3</ele>
        <time>2023-08-16T09:25:13Z</time>
      </trkpt>
      <trkpt lat="49.77497" lon="2.19373">
        <ele>97.3</ele>
        <time>2023-08-16T09:25:14Z</time>
      </trkpt>
      <trkpt lat="49.77496" lon="2.1937">
        <ele>97.2</ele>
        <time>2023-08-16T09:25:15Z</time>
      </trkpt>
      <trkpt lat="49.77496" lon="2.19369">
        <ele>97.1</ele>
        <time>2023-08-16T09:25:17Z</time>
      </trkpt>
      <trkpt lat="49.77495" lon="2.19368">
        <ele>97.1</ele>
        <time>2023-08-16T09:25:18Z</time>
      </trkpt>
      <trkpt lat="49.77495" lon="2.19365">
        <ele>97</ele>
        <time>2023-08-16T09:25:19Z</time>
      </trkpt>
      <trkpt lat="49.77495" lon="2.19364">
        <ele>97</ele>
        <time>2023-08-16T09:25:20Z</time>
      </trkpt>
      <trkpt lat="49.77494" lon="2.19362">
        <ele>96.9</ele>
        <time>2023-08-16T09:25:21Z</time>
      </trkpt>
      <trkpt lat="49.77494" lon="2.1936">
        <ele>96.9</ele>
        <time>2023-08-16T09:25:22Z</time>
      </trkpt>
      <trkpt lat="49.77493" lon="2.19358">
        <ele>96.8</ele>
        <time>2023-08-16T09:25:24Z</time>
      </trkpt>
      <trkpt lat="49.77493" lon="2.19354">
        <ele>96.8</ele>
        <time>2023-08-16T09:25:25Z</time>
      </trkpt>
      <trkpt lat="49.77492" lon="2.19353">
        <ele>96.7</ele>
        <time>2023-08-16T09:25:26Z</time>
      </trkpt>
      <trkpt lat="49.77492" lon="2.19352">
        <ele>96.7</ele>
        <time>2023-08-16T09:25:27Z</time>
      </trkpt>
      <trkpt lat="49.77492" lon="2.1935">
        <ele>96.7</ele>
        <time>2023-08-16T09:25:28Z</time>
      </trkpt>
      <trkpt lat="49.77491" lon="2.19348">
        <ele>96.6</ele>
        <time>2023-08-16T09:25:29Z</time>
      </trkpt>
      <trkpt lat="49.77491" lon="2.19345">
        <ele>96.6</ele>
        <time>2023-08-16T09:25:31Z</time>
      </trkpt>
      <trkpt lat="49.77491" lon="2.19343">
        <ele>96.5</ele>
        <time>2023-08-16T09:25:32Z</time>
      </trkpt>
      <trkpt lat="49.77491" lon="2.19342">
        <ele>96.5</ele>
        <time>2023-08-16T09:25:33Z</time>
      </trkpt>
      <trkpt lat="49.7749" lon="2.1934">
        <ele>96.5</ele>
        <time>2023-08-16T09:25:34Z</time>
      </trkpt>
      <trkpt lat="49.7749" lon="2.19339">
        <ele>96.4</ele>
        <time>2023-08-16T09:25:35Z</time>
      </trkpt>
      <trkpt lat="49.7749" lon="2.19335">
        <ele>96.4</ele>
        <time>2023-08-16T09:25:36Z</time>
      </trkpt>
      <trkpt lat="49.77489" lon="2.19334">
        <ele>96.3</ele>
        <time>2023-08-16T09:25:38Z</time>
      </trkpt>
      <trkpt lat="49.77489" lon="2.19333">
        <ele>96.3</ele>
        <time>2023-08-16T09:25:39Z</time>
      </trkpt>
      <trkpt lat="49.77489" lon="2.19331">
        <ele>96.3</ele>
        <time>2023-08-16T09:25:40Z</time>
      </trkpt>
      <trkpt lat="49.77489" lon="2.1933">
        <ele>96.2</ele>
        <time>2023-08-16T09:25:41Z</time>
      </trkpt>
      <trkpt lat="49.77488" lon="2.19328">
        <ele>96.2</ele>
        <time>2023-08-16T09:25:42Z</time>
      </trkpt>
      <trkpt lat="49.77488" lon="2.19326">
        <ele>96.2</ele>
        <time>2023-08-16T09:25:43Z</time>
      </trkpt>
      <trkpt lat="49.77488" lon="2.19325">
        <ele>96.1</ele>
        <time>2023-08-16T09:25:44Z</time>
      </trkpt>
      <trkpt lat="49.77488" lon="2.19323">
        <ele>96.1</ele>
        <time>2023-08-16T09:25:45Z</time>
      </trkpt>
      <trkpt lat="49.77487" lon="2.1932">
        <ele>96</ele>
        <time>2023-08-16T09:25:47Z</time>
      </trkpt>
      <trkpt lat="49.77487" lon="2.19318">
        <ele>95.9</ele>
        <time>2023-08-16T09:25:48Z</time>
      </trkpt>
      <trkpt lat="49.77487" lon="2.19317">
        <ele>95.9</ele>
        <time>2023-08-16T09:25:49Z</time>
      </trkpt>
      <trkpt lat="49.77486" lon="2.19314">
        <ele>95.8</ele>
        <time>2023-08-16T09:25:50Z</time>
      </trkpt>
      <trkpt lat="49.77486" lon="2.19313">
        <ele>95.8</ele>
        <time>2023-08-16T09:25:51Z</time>
      </trkpt>
      <trkpt lat="49.77486" lon="2.19311">
        <ele>95.7</ele>
        <time>2023-08-16T09:25:52Z</time>
      </trkpt>
      <trkpt lat="49.77485" lon="2.19309">
        <ele>95.7</ele>
        <time>2023-08-16T09:25:54Z</time>
      </trkpt>
      <trkpt lat="49.77485" lon="2.19307">
        <ele>95.6</ele>
        <time>2023-08-16T09:25:55Z</time>
      </trkpt>
      <trkpt lat="49.77485" lon="2.19304">
        <ele>95.5</ele>
        <time>2023-08-16T09:25:56Z</time>
      </trkpt>
      <trkpt lat="49.77484" lon="2.19302">
        <ele>95.5</ele>
        <time>2023-08-16T09:25:57Z</time>
      </trkpt>
      <trkpt lat="49.77484" lon="2.19301">
        <ele>95.5</ele>
        <time>2023-08-16T09:25:58Z</time>
      </trkpt>
      <trkpt lat="49.77484" lon="2.19299">
        <ele>95.4</ele>
        <time>2023-08-16T09:25:59Z</time>
      </trkpt>
      <trkpt lat="49.77483" lon="2.19297">
        <ele>95.3</ele>
        <time>2023-08-16T09:26:01Z</time>
      </trkpt>
      <trkpt lat="49.77483" lon="2.19295">
        <ele>95.3</ele>
        <time>2023-08-16T09:26:02Z</time>
      </trkpt>
      <trkpt lat="49.77483" lon="2.19293">
        <ele>95.2</ele>
        <time>2023-08-16T09:26:03Z</time>
      </trkpt>
      <trkpt lat="49.77482" lon="2.19291">
        <ele>95.2</ele>
        <time>2023-08-16T09:26:04Z</time>
      </trkpt>
      <trkpt lat="49.77482" lon="2.19289">
        <ele>95.1</ele>
        <time>2023-08-16T09:26:05Z</time>
      </trkpt>
      <trkpt lat="49.77482" lon="2.19288">
        <ele>95.1</ele>
        <time>2023-08-16T09:26:06Z</time>
      </trkpt>
      <trkpt lat="49.77481" lon="2.19284">
        <ele>95</ele>
        <time>2023-08-16T09:26:08Z</time>
      </trkpt>
      <trkpt lat="49.77481" lon="2.19283">
        <ele>94.9</ele>
        <time>2023-08-16T09:26:09Z</time>
      </trkpt>
      <trkpt lat="49.77481" lon="2.19282">
        <ele>94.9</ele>
        <time>2023-08-16T09:26:10Z</time>
      </trkpt>
      <trkpt lat="49.77481" lon="2.19279">
        <ele>94.8</ele>
        <time>2023-08-16T09:26:11Z</time>
      </trkpt>
      <trkpt lat="49.77481" lon="2.19277">
        <ele>94.8</ele>
        <time>2023-08-16T09:26:12Z</time>
      </trkpt>
      <trkpt lat="49.7748" lon="2.19276">
        <ele>94.7</ele>
        <time>2023-08-16T09:26:13Z</time>
      </trkpt>
      <trkpt lat="49.7748" lon="2.19273">
        <ele>94.6</ele>
        <time>2023-08-16T09:26:14Z</time>
      </trkpt>
      <trkpt lat="49.77479" lon="2.19272">
        <ele>94.6</ele>
        <time>2023-08-16T09:26:15Z</time>
      </trkpt>
      <trkpt lat="49.77479" lon="2.19271">
        <ele>94.6</ele>
        <time>2023-08-16T09:26:16Z</time>
      </trkpt>
      <trkpt lat="49.77478" lon="2.19269">
        <ele>94.5</ele>
        <time>2023-08-16T09:26:18Z</time>
      </trkpt>
      <trkpt lat="49.77478" lon="2.19267">
        <ele>94.4</ele>
        <time>2023-08-16T09:26:19Z</time>
      </trkpt>
      <trkpt lat="49.77477" lon="2.19264">
        <ele>94.3</ele>
        <time>2023-08-16T09:26:20Z</time>
      </trkpt>
      <trkpt lat="49.77476" lon="2.19263">
        <ele>94.3</ele>
        <time>2023-08-16T09:26:21Z</time>
      </trkpt>
      <trkpt lat="49.77476" lon="2.19262">
        <ele>94.3</ele>
        <time>2023-08-16T09:26:22Z</time>
      </trkpt>
      <trkpt lat="49.77476" lon="2.1926">
        <ele>94.2</ele>
        <time>2023-08-16T09:26:23Z</time>
      </trkpt>
      <trkpt lat="49.77475" lon="2.19258">
        <ele>94.2</ele>
        <time>2023-08-16T09:26:24Z</time>
      </trkpt>
      <trkpt lat="49.77475" lon="2.19257">
        <ele>94.1</ele>
        <time>2023-08-16T09:26:25Z</time>
      </trkpt>
      <trkpt lat="49.77475" lon="2.19255">
        <ele>94.1</ele>
        <time>2023-08-16T09:26:27Z</time>
      </trkpt>
      <trkpt lat="49.77474" lon="2.19253">
        <ele>94</ele>
        <time>2023-08-16T09:26:28Z</time>
      </trkpt>
      <trkpt lat="49.77474" lon="2.19251">
        <ele>94</ele>
        <time>2023-08-16T09:26:29Z</time>
      </trkpt>
      <trkpt lat="49.77474" lon="2.19248">
        <ele>93.9</ele>
        <time>2023-08-16T09:26:30Z</time>
      </trkpt>
      <trkpt lat="49.77474" lon="2.19247">
        <ele>93.9</ele>
        <time>2023-08-16T09:26:31Z</time>
      </trkpt>
      <trkpt lat="49.77474" lon="2.19245">
        <ele>93.8</ele>
        <time>2023-08-16T09:26:32Z</time>
      </trkpt>
      <trkpt lat="49.77473" lon="2.19244">
        <ele>93.8</ele>
        <time>2023-08-16T09:26:33Z</time>
      </trkpt>
      <trkpt lat="49.77473" lon="2.19242">
        <ele>93.8</ele>
        <time>2023-08-16T09:26:34Z</time>
      </trkpt>
      <trkpt lat="49.77473" lon="2.1924">
        <ele>93.7</ele>
        <time>2023-08-16T09:26:36Z</time>
      </trkpt>
      <trkpt lat="49.77472" lon="2.19239">
        <ele>93.7</ele>
        <time>2023-08-16T09:26:37Z</time>
      </trkpt>
      <trkpt lat="49.77472" lon="2.19237">
        <ele>93.6</ele>
        <time>2023-08-16T09:26:38Z</time>
      </trkpt>
      <trkpt lat="49.77472" lon="2.19235">
        <ele>93.6</ele>
        <time>2023-08-16T09:26:39Z</time>
      </trkpt>
      <trkpt lat="49.77471" lon="2.19233">
        <ele>93.5</ele>
        <time>2023-08-16T09:26:40Z</time>
      </trkpt>
      <trkpt lat="49.77471" lon="2.19231">
        <ele>93.5</ele>
        <time>2023-08-16T09:26:41Z</time>
      </trkpt>
      <trkpt lat="49.7747" lon="2.19229">
        <ele>93.4</ele>
        <time>2023-08-16T09:26:42Z</time>
      </trkpt>
      <trkpt lat="49.7747" lon="2.19228">
        <ele>93.4</ele>
        <time>2023-08-16T09:26:43Z</time>
      </trkpt>
      <trkpt lat="49.7747" lon="2.19226">
        <ele>93.4</ele>
        <time>2023-08-16T09:26:45Z</time>
      </trkpt>
      <trkpt lat="49.77469" lon="2.19224">
        <ele>93.3</ele>
        <time>2023-08-16T09:26:46Z</time>
      </trkpt>
      <trkpt lat="49.77469" lon="2.19223">
        <ele>93.3</ele>
        <time>2023-08-16T09:26:47Z</time>
      </trkpt>
      <trkpt lat="49.77469" lon="2.19222">
        <ele>93.3</ele>
        <time>2023-08-16T09:26:48Z</time>
      </trkpt>
      <trkpt lat="49.77468" lon="2.1922">
        <ele>93.2</ele>
        <time>2023-08-16T09:26:49Z</time>
      </trkpt>
      <trkpt lat="49.77468" lon="2.19218">
        <ele>93.2</ele>
        <time>2023-08-16T09:26:50Z</time>
      </trkpt>
      <trkpt lat="49.77468" lon="2.19217">
        <ele>93.2</ele>
        <time>2023-08-16T09:26:51Z</time>
      </trkpt>
      <trkpt lat="49.77467" lon="2.19216">
        <ele>93.1</ele>
        <time>2023-08-16T09:26:53Z</time>
      </trkpt>
      <trkpt lat="49.77467" lon="2.19214">
        <ele>93.1</ele>
        <time>2023-08-16T09:26:54Z</time>
      </trkpt>
      <trkpt lat="49.77467" lon="2.19212">
        <ele>93.1</ele>
        <time>2023-08-16T09:26:55Z</time>
      </trkpt>
      <trkpt lat="49.77467" lon="2.1921">
        <ele>93</ele>
        <time>2023-08-16T09:26:56Z</time>
      </trkpt>
      <trkpt lat="49.77467" lon="2.19208">
        <ele>93</ele>
        <time>2023-08-16T09:26:57Z</time>
      </trkpt>
      <trkpt lat="49.77467" lon="2.19206">
        <ele>92.9</ele>
        <time>2023-08-16T09:26:59Z</time>
      </trkpt>
      <trkpt lat="49.77467" lon="2.19203">
        <ele>92.9</ele>
        <time>2023-08-16T09:27:00Z</time>
      </trkpt>
      <trkpt lat="49.77467" lon="2.19202">
        <ele>92.8</ele>
        <time>2023-08-16T09:27:01Z</time>
      </trkpt>
      <trkpt lat="49.77467" lon="2.19201">
        <ele>92.8</ele>
        <time>2023-08-16T09:27:02Z</time>
      </trkpt>
      <trkpt lat="49.77466" lon="2.19199">
        <ele>92.8</ele>
        <time>2023-08-16T09:27:03Z</time>
      </trkpt>
      <trkpt lat="49.77466" lon="2.19198">
        <ele>92.8</ele>
        <time>2023-08-16T09:27:04Z</time>
      </trkpt>
      <trkpt lat="49.77465" lon="2.19196">
        <ele>92.7</ele>
        <time>2023-08-16T09:27:05Z</time>
      </trkpt>
      <trkpt lat="49.77464" lon="2.19194">
        <ele>92.7</ele>
        <time>2023-08-16T09:27:06Z</time>
      </trkpt>
      <trkpt lat="49.77464" lon="2.19192">
        <ele>92.6</ele>
        <time>2023-08-16T09:27:08Z</time>
      </trkpt>
      <trkpt lat="49.77463" lon="2.19191">
        <ele>92.6</ele>
        <time>2023-08-16T09:27:09Z</time>
      </trkpt>
      <trkpt lat="49.77463" lon="2.19188">
        <ele>92.5</ele>
        <time>2023-08-16T09:27:10Z</time>
      </trkpt>
      <trkpt lat="49.77463" lon="2.19187">
        <ele>92.5</ele>
        <time>2023-08-16T09:27:11Z</time>
      </trkpt>
      <trkpt lat="49.77462" lon="2.19185">
        <ele>92.5</ele>
        <time>2023-08-16T09:27:12Z</time>
      </trkpt>
      <trkpt lat="49.77462" lon="2.19182">
        <ele>92.4</ele>
        <time>2023-08-16T09:27:14Z</time>
      </trkpt>
      <trkpt lat="49.77462" lon="2.19181">
        <ele>92.4</ele>
        <time>2023-08-16T09:27:15Z</time>
      </trkpt>
      <trkpt lat="49.77461" lon="2.19178">
        <ele>92.3</ele>
        <time>2023-08-16T09:27:17Z</time>
      </trkpt>
      <trkpt lat="49.77461" lon="2.19177">
        <ele>92.3</ele>
        <time>2023-08-16T09:27:18Z</time>
      </trkpt>
      <trkpt lat="49.7746" lon="2.19175">
        <ele>92.2</ele>
        <time>2023-08-16T09:27:19Z</time>
      </trkpt>
      <trkpt lat="49.7746" lon="2.19174">
        <ele>92.2</ele>
        <time>2023-08-16T09:27:20Z</time>
      </trkpt>
      <trkpt lat="49.77459" lon="2.19172">
        <ele>92.1</ele>
        <time>2023-08-16T09:27:21Z</time>
      </trkpt>
      <trkpt lat="49.77458" lon="2.19171">
        <ele>92.1</ele>
        <time>2023-08-16T09:27:22Z</time>
      </trkpt>
      <trkpt lat="49.77458" lon="2.19168">
        <ele>92</ele>
        <time>2023-08-16T09:27:24Z</time>
      </trkpt>
      <trkpt lat="49.77457" lon="2.19166">
        <ele>92</ele>
        <time>2023-08-16T09:27:25Z</time>
      </trkpt>
      <trkpt lat="49.77457" lon="2.19165">
        <ele>92</ele>
        <time>2023-08-16T09:27:26Z</time>
      </trkpt>
      <trkpt lat="49.77457" lon="2.19164">
        <ele>91.9</ele>
        <time>2023-08-16T09:27:27Z</time>
      </trkpt>
      <trkpt lat="49.77456" lon="2.19162">
        <ele>91.9</ele>
        <time>2023-08-16T09:27:28Z</time>
      </trkpt>
      <trkpt lat="49.77456" lon="2.19161">
        <ele>91.8</ele>
        <time>2023-08-16T09:27:29Z</time>
      </trkpt>
      <trkpt lat="49.77455" lon="2.19158">
        <ele>91.7</ele>
        <time>2023-08-16T09:27:31Z</time>
      </trkpt>
      <trkpt lat="49.77455" lon="2.19156">
        <ele>91.7</ele>
        <time>2023-08-16T09:27:32Z</time>
      </trkpt>
      <trkpt lat="49.77455" lon="2.19155">
        <ele>91.7</ele>
        <time>2023-08-16T09:27:33Z</time>
      </trkpt>
      <trkpt lat="49.77454" lon="2.19154">
        <ele>91.6</ele>
        <time>2023-08-16T09:27:34Z</time>
      </trkpt>
      <trkpt lat="49.77454" lon="2.19152">
        <ele>91.6</ele>
        <time>2023-08-16T09:27:35Z</time>
      </trkpt>
      <trkpt lat="49.77454" lon="2.1915">
        <ele>91.5</ele>
        <time>2023-08-16T09:27:36Z</time>
      </trkpt>
      <trkpt lat="49.77454" lon="2.19149">
        <ele>91.5</ele>
        <time>2023-08-16T09:27:38Z</time>
      </trkpt>
      <trkpt lat="49.77454" lon="2.19147">
        <ele>91.4</ele>
        <time>2023-08-16T09:27:39Z</time>
      </trkpt>
      <trkpt lat="49.77453" lon="2.19145">
        <ele>91.3</ele>
        <time>2023-08-16T09:27:40Z</time>
      </trkpt>
      <trkpt lat="49.77453" lon="2.19143">
        <ele>91.3</ele>
        <time>2023-08-16T09:27:41Z</time>
      </trkpt>
      <trkpt lat="49.77453" lon="2.19142">
        <ele>91.2</ele>
        <time>2023-08-16T09:27:42Z</time>
      </trkpt>
      <trkpt lat="49.77452" lon="2.1914">
        <ele>91.2</ele>
        <time>2023-08-16T09:27:43Z</time>
      </trkpt>
      <trkpt lat="49.77452" lon="2.19138">
        <ele>91.1</ele>
        <time>2023-08-16T09:27:44Z</time>
      </trkpt>
      <trkpt lat="49.77452" lon="2.19137">
        <ele>91.1</ele>
        <time>2023-08-16T09:27:45Z</time>
      </trkpt>
      <trkpt lat="49.77452" lon="2.19135">
        <ele>91</ele>
        <time>2023-08-16T09:27:46Z</time>
      </trkpt>
      <trkpt lat="49.77452" lon="2.19133">
        <ele>91</ele>
        <time>2023-08-16T09:27:48Z</time>
      </trkpt>
      <trkpt lat="49.77452" lon="2.19131">
        <ele>90.9</ele>
        <time>2023-08-16T09:27:49Z</time>
      </trkpt>
      <trkpt lat="49.77452" lon="2.1913">
        <ele>90.8</ele>
        <time>2023-08-16T09:27:50Z</time>
      </trkpt>
      <trkpt lat="49.77452" lon="2.19126">
        <ele>90.7</ele>
        <time>2023-08-16T09:27:51Z</time>
      </trkpt>
      <trkpt lat="49.77452" lon="2.19125">
        <ele>90.7</ele>
        <time>2023-08-16T09:27:52Z</time>
      </trkpt>
      <trkpt lat="49.77452" lon="2.19124">
        <ele>90.7</ele>
        <time>2023-08-16T09:27:53Z</time>
      </trkpt>
      <trkpt lat="49.77451" lon="2.19121">
        <ele>90.6</ele>
        <time>2023-08-16T09:27:55Z</time>
      </trkpt>
      <trkpt lat="49.77451" lon="2.1912">
        <ele>90.5</ele>
        <time>2023-08-16T09:27:56Z</time>
      </trkpt>
      <trkpt lat="49.77451" lon="2.19118">
        <ele>90.5</ele>
        <time>2023-08-16T09:27:57Z</time>
      </trkpt>
      <trkpt lat="49.77451" lon="2.19116">
        <ele>90.4</ele>
        <time>2023-08-16T09:27:58Z</time>
      </trkpt>
      <trkpt lat="49.77451" lon="2.19114">
        <ele>90.4</ele>
        <time>2023-08-16T09:27:59Z</time>
      </trkpt>
      <trkpt lat="49.77451" lon="2.1911">
        <ele>90.3</ele>
        <time>2023-08-16T09:28:00Z</time>
      </trkpt>
      <trkpt lat="49.77451" lon="2.19109">
        <ele>90.2</ele>
        <time>2023-08-16T09:28:01Z</time>
      </trkpt>
      <trkpt lat="49.77451" lon="2.19107">
        <ele>90.2</ele>
        <time>2023-08-16T09:28:03Z</time>
      </trkpt>
      <trkpt lat="49.77451" lon="2.19106">
        <ele>90.2</ele>
        <time>2023-08-16T09:28:04Z</time>
      </trkpt>
      <trkpt lat="49.77451" lon="2.19104">
        <ele>90.1</ele>
        <time>2023-08-16T09:28:05Z</time>
      </trkpt>
      <trkpt lat="49.77451" lon="2.19103">
        <ele>90.1</ele>
        <time>2023-08-16T09:28:06Z</time>
      </trkpt>
      <trkpt lat="49.7745" lon="2.191">
        <ele>90</ele>
        <time>2023-08-16T09:28:07Z</time>
      </trkpt>
      <trkpt lat="49.7745" lon="2.19098">
        <ele>90</ele>
        <time>2023-08-16T09:28:08Z</time>
      </trkpt>
      <trkpt lat="49.7745" lon="2.19097">
        <ele>90</ele>
        <time>2023-08-16T09:28:09Z</time>
      </trkpt>
      <trkpt lat="49.7745" lon="2.19095">
        <ele>89.9</ele>
        <time>2023-08-16T09:28:11Z</time>
      </trkpt>
      <trkpt lat="49.7745" lon="2.19092">
        <ele>89.9</ele>
        <time>2023-08-16T09:28:12Z</time>
      </trkpt>
      <trkpt lat="49.7745" lon="2.19089">
        <ele>89.8</ele>
        <time>2023-08-16T09:28:13Z</time>
      </trkpt>
      <trkpt lat="49.7745" lon="2.19088">
        <ele>89.8</ele>
        <time>2023-08-16T09:28:14Z</time>
      </trkpt>
      <trkpt lat="49.7745" lon="2.19087">
        <ele>89.8</ele>
        <time>2023-08-16T09:28:15Z</time>
      </trkpt>
      <trkpt lat="49.7745" lon="2.19085">
        <ele>89.7</ele>
        <time>2023-08-16T09:28:16Z</time>
      </trkpt>
      <trkpt lat="49.7745" lon="2.19084">
        <ele>89.7</ele>
        <time>2023-08-16T09:28:18Z</time>
      </trkpt>
      <trkpt lat="49.7745" lon="2.19082">
        <ele>89.7</ele>
        <time>2023-08-16T09:28:19Z</time>
      </trkpt>
      <trkpt lat="49.7745" lon="2.1908">
        <ele>89.6</ele>
        <time>2023-08-16T09:28:20Z</time>
      </trkpt>
      <trkpt lat="49.7745" lon="2.19078">
        <ele>89.6</ele>
        <time>2023-08-16T09:28:21Z</time>
      </trkpt>
      <trkpt lat="49.7745" lon="2.19076">
        <ele>89.6</ele>
        <time>2023-08-16T09:28:22Z</time>
      </trkpt>
      <trkpt lat="49.7745" lon="2.19075">
        <ele>89.5</ele>
        <time>2023-08-16T09:28:23Z</time>
      </trkpt>
      <trkpt lat="49.7745" lon="2.19073">
        <ele>89.5</ele>
        <time>2023-08-16T09:28:25Z</time>
      </trkpt>
      <trkpt lat="49.7745" lon="2.19071">
        <ele>89.4</ele>
        <time>2023-08-16T09:28:26Z</time>
      </trkpt>
      <trkpt lat="49.77449" lon="2.1907">
        <ele>89.4</ele>
        <time>2023-08-16T09:28:27Z</time>
      </trkpt>
      <trkpt lat="49.77449" lon="2.19068">
        <ele>89.4</ele>
        <time>2023-08-16T09:28:28Z</time>
      </trkpt>
      <trkpt lat="49.77449" lon="2.19066">
        <ele>89.3</ele>
        <time>2023-08-16T09:28:29Z</time>
      </trkpt>
      <trkpt lat="49.77449" lon="2.19065">
        <ele>89.3</ele>
        <time>2023-08-16T09:28:30Z</time>
      </trkpt>
      <trkpt lat="49.77449" lon="2.19063">
        <ele>89.2</ele>
        <time>2023-08-16T09:28:32Z</time>
      </trkpt>
      <trkpt lat="49.77449" lon="2.19061">
        <ele>89.2</ele>
        <time>2023-08-16T09:28:33Z</time>
      </trkpt>
      <trkpt lat="49.77448" lon="2.19058">
        <ele>89.1</ele>
        <time>2023-08-16T09:28:34Z</time>
      </trkpt>
      <trkpt lat="49.77448" lon="2.19057">
        <ele>89.1</ele>
        <time>2023-08-16T09:28:35Z</time>
      </trkpt>
      <trkpt lat="49.77448" lon="2.19055">
        <ele>89.1</ele>
        <time>2023-08-16T09:28:36Z</time>
      </trkpt>
      <trkpt lat="49.77448" lon="2.19054">
        <ele>89</ele>
        <time>2023-08-16T09:28:37Z</time>
      </trkpt>
      <trkpt lat="49.77448" lon="2.19052">
        <ele>89</ele>
        <time>2023-08-16T09:28:39Z</time>
      </trkpt>
      <trkpt lat="49.77448" lon="2.1905">
        <ele>89</ele>
        <time>2023-08-16T09:28:40Z</time>
      </trkpt>
      <trkpt lat="49.77447" lon="2.19047">
        <ele>88.9</ele>
        <time>2023-08-16T09:28:41Z</time>
      </trkpt>
      <trkpt lat="49.77447" lon="2.19045">
        <ele>88.9</ele>
        <time>2023-08-16T09:28:43Z</time>
      </trkpt>
      <trkpt lat="49.77447" lon="2.19043">
        <ele>88.8</ele>
        <time>2023-08-16T09:28:44Z</time>
      </trkpt>
      <trkpt lat="49.77447" lon="2.19041">
        <ele>88.8</ele>
        <time>2023-08-16T09:28:45Z</time>
      </trkpt>
      <trkpt lat="49.77447" lon="2.1904">
        <ele>88.7</ele>
        <time>2023-08-16T09:28:46Z</time>
      </trkpt>
      <trkpt lat="49.77447" lon="2.19039">
        <ele>88.7</ele>
        <time>2023-08-16T09:28:47Z</time>
      </trkpt>
      <trkpt lat="49.77447" lon="2.19037">
        <ele>88.7</ele>
        <time>2023-08-16T09:28:48Z</time>
      </trkpt>
      <trkpt lat="49.77447" lon="2.19035">
        <ele>88.6</ele>
        <time>2023-08-16T09:28:50Z</time>
      </trkpt>
      <trkpt lat="49.77447" lon="2.19034">
        <ele>88.6</ele>
        <time>2023-08-16T09:28:51Z</time>
      </trkpt>
      <trkpt lat="49.77447" lon="2.19032">
        <ele>88.6</ele>
        <time>2023-08-16T09:28:52Z</time>
      </trkpt>
      <trkpt lat="49.77447" lon="2.19031">
        <ele>88.5</ele>
        <time>2023-08-16T09:28:53Z</time>
      </trkpt>
      <trkpt lat="49.77447" lon="2.19029">
        <ele>88.5</ele>
        <time>2023-08-16T09:28:54Z</time>
      </trkpt>
      <trkpt lat="49.77447" lon="2.19028">
        <ele>88.5</ele>
        <time>2023-08-16T09:28:55Z</time>
      </trkpt>
      <trkpt lat="49.77447" lon="2.19026">
        <ele>88.4</ele>
        <time>2023-08-16T09:28:57Z</time>
      </trkpt>
      <trkpt lat="49.77447" lon="2.19024">
        <ele>88.4</ele>
        <time>2023-08-16T09:28:58Z</time>
      </trkpt>
      <trkpt lat="49.77447" lon="2.19022">
        <ele>88.3</ele>
        <time>2023-08-16T09:28:59Z</time>
      </trkpt>
      <trkpt lat="49.77447" lon="2.19021">
        <ele>88.3</ele>
        <time>2023-08-16T09:29:00Z</time>
      </trkpt>
      <trkpt lat="49.77448" lon="2.19019">
        <ele>88.3</ele>
        <time>2023-08-16T09:29:01Z</time>
      </trkpt>
      <trkpt lat="49.77448" lon="2.19018">
        <ele>88.2</ele>
        <time>2023-08-16T09:29:02Z</time>
      </trkpt>
      <trkpt lat="49.77448" lon="2.19015">
        <ele>88.1</ele>
        <time>2023-08-16T09:29:04Z</time>
      </trkpt>
      <trkpt lat="49.77447" lon="2.19013">
        <ele>88.1</ele>
        <time>2023-08-16T09:29:06Z</time>
      </trkpt>
      <trkpt lat="49.77447" lon="2.19011">
        <ele>88</ele>
        <time>2023-08-16T09:29:07Z</time>
      </trkpt>
      <trkpt lat="49.77447" lon="2.19009">
        <ele>88</ele>
        <time>2023-08-16T09:29:08Z</time>
      </trkpt>
      <trkpt lat="49.77446" lon="2.19007">
        <ele>87.9</ele>
        <time>2023-08-16T09:29:09Z</time>
      </trkpt>
      <trkpt lat="49.77446" lon="2.19006">
        <ele>87.9</ele>
        <time>2023-08-16T09:29:10Z</time>
      </trkpt>
      <trkpt lat="49.77446" lon="2.19004">
        <ele>87.8</ele>
        <time>2023-08-16T09:29:12Z</time>
      </trkpt>
      <trkpt lat="49.77446" lon="2.19002">
        <ele>87.8</ele>
        <time>2023-08-16T09:29:13Z</time>
      </trkpt>
      <trkpt lat="49.77445" lon="2.19">
        <ele>87.8</ele>
        <time>2023-08-16T09:29:14Z</time>
      </trkpt>
      <trkpt lat="49.77445" lon="2.18997">
        <ele>87.7</ele>
        <time>2023-08-16T09:29:15Z</time>
      </trkpt>
      <trkpt lat="49.77445" lon="2.18996">
        <ele>87.7</ele>
        <time>2023-08-16T09:29:16Z</time>
      </trkpt>
      <trkpt lat="49.77445" lon="2.18995">
        <ele>87.6</ele>
        <time>2023-08-16T09:29:17Z</time>
      </trkpt>
      <trkpt lat="49.77445" lon="2.18992">
        <ele>87.6</ele>
        <time>2023-08-16T09:29:18Z</time>
      </trkpt>
      <trkpt lat="49.77445" lon="2.1899">
        <ele>87.5</ele>
        <time>2023-08-16T09:29:20Z</time>
      </trkpt>
      <trkpt lat="49.77445" lon="2.18989">
        <ele>87.5</ele>
        <time>2023-08-16T09:29:21Z</time>
      </trkpt>
      <trkpt lat="49.77444" lon="2.18987">
        <ele>87.5</ele>
        <time>2023-08-16T09:29:22Z</time>
      </trkpt>
      <trkpt lat="49.77444" lon="2.18985">
        <ele>87.4</ele>
        <time>2023-08-16T09:29:23Z</time>
      </trkpt>
      <trkpt lat="49.77443" lon="2.18983">
        <ele>87.4</ele>
        <time>2023-08-16T09:29:24Z</time>
      </trkpt>
      <trkpt lat="49.77443" lon="2.18981">
        <ele>87.4</ele>
        <time>2023-08-16T09:29:25Z</time>
      </trkpt>
      <trkpt lat="49.77443" lon="2.18979">
        <ele>87.4</ele>
        <time>2023-08-16T09:29:27Z</time>
      </trkpt>
      <trkpt lat="49.77442" lon="2.18977">
        <ele>87.3</ele>
        <time>2023-08-16T09:29:28Z</time>
      </trkpt>
      <trkpt lat="49.77442" lon="2.18975">
        <ele>87.3</ele>
        <time>2023-08-16T09:29:29Z</time>
      </trkpt>
      <trkpt lat="49.77441" lon="2.18974">
        <ele>87.3</ele>
        <time>2023-08-16T09:29:30Z</time>
      </trkpt>
      <trkpt lat="49.7744" lon="2.18971">
        <ele>87.2</ele>
        <time>2023-08-16T09:29:31Z</time>
      </trkpt>
      <trkpt lat="49.7744" lon="2.1897">
        <ele>87.2</ele>
        <time>2023-08-16T09:29:32Z</time>
      </trkpt>
      <trkpt lat="49.7744" lon="2.18968">
        <ele>87.2</ele>
        <time>2023-08-16T09:29:34Z</time>
      </trkpt>
      <trkpt lat="49.77439" lon="2.18967">
        <ele>87.2</ele>
        <time>2023-08-16T09:29:35Z</time>
      </trkpt>
      <trkpt lat="49.77439" lon="2.18965">
        <ele>87.1</ele>
        <time>2023-08-16T09:29:36Z</time>
      </trkpt>
      <trkpt lat="49.77438" lon="2.18964">
        <ele>87.1</ele>
        <time>2023-08-16T09:29:37Z</time>
      </trkpt>
      <trkpt lat="49.77438" lon="2.18962">
        <ele>87.1</ele>
        <time>2023-08-16T09:29:38Z</time>
      </trkpt>
      <trkpt lat="49.77438" lon="2.18961">
        <ele>87.1</ele>
        <time>2023-08-16T09:29:39Z</time>
      </trkpt>
      <trkpt lat="49.77437" lon="2.18959">
        <ele>87</ele>
        <time>2023-08-16T09:29:41Z</time>
      </trkpt>
      <trkpt lat="49.77437" lon="2.18957">
        <ele>87</ele>
        <time>2023-08-16T09:29:42Z</time>
      </trkpt>
      <trkpt lat="49.77436" lon="2.18955">
        <ele>87</ele>
        <time>2023-08-16T09:29:43Z</time>
      </trkpt>
      <trkpt lat="49.77436" lon="2.18954">
        <ele>86.9</ele>
        <time>2023-08-16T09:29:44Z</time>
      </trkpt>
      <trkpt lat="49.77435" lon="2.18952">
        <ele>86.9</ele>
        <time>2023-08-16T09:29:45Z</time>
      </trkpt>
      <trkpt lat="49.77435" lon="2.18951">
        <ele>86.9</ele>
        <time>2023-08-16T09:29:46Z</time>
      </trkpt>
      <trkpt lat="49.77435" lon="2.18949">
        <ele>86.9</ele>
        <time>2023-08-16T09:29:48Z</time>
      </trkpt>
      <trkpt lat="49.77434" lon="2.18947">
        <ele>86.8</ele>
        <time>2023-08-16T09:29:49Z</time>
      </trkpt>
      <trkpt lat="49.77434" lon="2.18945">
        <ele>86.8</ele>
        <time>2023-08-16T09:29:50Z</time>
      </trkpt>
      <trkpt lat="49.77433" lon="2.18944">
        <ele>86.8</ele>
        <time>2023-08-16T09:29:51Z</time>
      </trkpt>
      <trkpt lat="49.77433" lon="2.18942">
        <ele>86.7</ele>
        <time>2023-08-16T09:29:52Z</time>
      </trkpt>
      <trkpt lat="49.77433" lon="2.18941">
        <ele>86.7</ele>
        <time>2023-08-16T09:29:54Z</time>
      </trkpt>
      <trkpt lat="49.77432" lon="2.18939">
        <ele>86.7</ele>
        <time>2023-08-16T09:29:55Z</time>
      </trkpt>
      <trkpt lat="49.77432" lon="2.18937">
        <ele>86.6</ele>
        <time>2023-08-16T09:29:56Z</time>
      </trkpt>
      <trkpt lat="49.77432" lon="2.18936">
        <ele>86.6</ele>
        <time>2023-08-16T09:29:57Z</time>
      </trkpt>
      <trkpt lat="49.77432" lon="2.18934">
        <ele>86.6</ele>
        <time>2023-08-16T09:29:59Z</time>
      </trkpt>
      <trkpt lat="49.77431" lon="2.18932">
        <ele>86.5</ele>
        <time>2023-08-16T09:30:00Z</time>
      </trkpt>
      <trkpt lat="49.77431" lon="2.1893">
        <ele>86.5</ele>
        <time>2023-08-16T09:30:01Z</time>
      </trkpt>
      <trkpt lat="49.77431" lon="2.18929">
        <ele>86.5</ele>
        <time>2023-08-16T09:30:02Z</time>
      </trkpt>
      <trkpt lat="49.7743" lon="2.18927">
        <ele>86.4</ele>
        <time>2023-08-16T09:30:04Z</time>
      </trkpt>
      <trkpt lat="49.7743" lon="2.18926">
        <ele>86.4</ele>
        <time>2023-08-16T09:30:05Z</time>
      </trkpt>
      <trkpt lat="49.77429" lon="2.18924">
        <ele>86.4</ele>
        <time>2023-08-16T09:30:06Z</time>
      </trkpt>
      <trkpt lat="49.77429" lon="2.1892">
        <ele>86.3</ele>
        <time>2023-08-16T09:30:07Z</time>
      </trkpt>
      <trkpt lat="49.77428" lon="2.18919">
        <ele>86.3</ele>
        <time>2023-08-16T09:30:08Z</time>
      </trkpt>
      <trkpt lat="49.77428" lon="2.18917">
        <ele>86.2</ele>
        <time>2023-08-16T09:30:10Z</time>
      </trkpt>
      <trkpt lat="49.77428" lon="2.18916">
        <ele>86.2</ele>
        <time>2023-08-16T09:30:11Z</time>
      </trkpt>
      <trkpt lat="49.77427" lon="2.18915">
        <ele>86.2</ele>
        <time>2023-08-16T09:30:12Z</time>
      </trkpt>
      <trkpt lat="49.77427" lon="2.18913">
        <ele>86.1</ele>
        <time>2023-08-16T09:30:13Z</time>
      </trkpt>
      <trkpt lat="49.77427" lon="2.18911">
        <ele>86.1</ele>
        <time>2023-08-16T09:30:14Z</time>
      </trkpt>
      <trkpt lat="49.77426" lon="2.1891">
        <ele>86.1</ele>
        <time>2023-08-16T09:30:16Z</time>
      </trkpt>
      <trkpt lat="49.77426" lon="2.18908">
        <ele>86</ele>
        <time>2023-08-16T09:30:17Z</time>
      </trkpt>
      <trkpt lat="49.77426" lon="2.18906">
        <ele>86</ele>
        <time>2023-08-16T09:30:18Z</time>
      </trkpt>
      <trkpt lat="49.77425" lon="2.18905">
        <ele>86</ele>
        <time>2023-08-16T09:30:19Z</time>
      </trkpt>
      <trkpt lat="49.77425" lon="2.18903">
        <ele>85.9</ele>
        <time>2023-08-16T09:30:20Z</time>
      </trkpt>
      <trkpt lat="49.77425" lon="2.18902">
        <ele>85.9</ele>
        <time>2023-08-16T09:30:21Z</time>
      </trkpt>
      <trkpt lat="49.77424" lon="2.189">
        <ele>85.9</ele>
        <time>2023-08-16T09:30:23Z</time>
      </trkpt>
      <trkpt lat="49.77424" lon="2.18898">
        <ele>85.8</ele>
        <time>2023-08-16T09:30:24Z</time>
      </trkpt>
      <trkpt lat="49.77423" lon="2.18896">
        <ele>85.8</ele>
        <time>2023-08-16T09:30:25Z</time>
      </trkpt>
      <trkpt lat="49.77423" lon="2.18894">
        <ele>85.7</ele>
        <time>2023-08-16T09:30:26Z</time>
      </trkpt>
      <trkpt lat="49.77422" lon="2.18892">
        <ele>85.7</ele>
        <time>2023-08-16T09:30:27Z</time>
      </trkpt>
      <trkpt lat="49.77422" lon="2.1889">
        <ele>85.7</ele>
        <time>2023-08-16T09:30:29Z</time>
      </trkpt>
      <trkpt lat="49.77422" lon="2.18889">
        <ele>85.6</ele>
        <time>2023-08-16T09:30:30Z</time>
      </trkpt>
      <trkpt lat="49.77421" lon="2.18887">
        <ele>85.6</ele>
        <time>2023-08-16T09:30:31Z</time>
      </trkpt>
      <trkpt lat="49.77421" lon="2.18886">
        <ele>85.6</ele>
        <time>2023-08-16T09:30:32Z</time>
      </trkpt>
      <trkpt lat="49.7742" lon="2.18884">
        <ele>85.6</ele>
        <time>2023-08-16T09:30:33Z</time>
      </trkpt>
      <trkpt lat="49.7742" lon="2.18883">
        <ele>85.5</ele>
        <time>2023-08-16T09:30:34Z</time>
      </trkpt>
      <trkpt lat="49.7742" lon="2.18881">
        <ele>85.5</ele>
        <time>2023-08-16T09:30:35Z</time>
      </trkpt>
      <trkpt lat="49.7742" lon="2.18879">
        <ele>85.5</ele>
        <time>2023-08-16T09:30:37Z</time>
      </trkpt>
      <trkpt lat="49.7742" lon="2.18877">
        <ele>85.4</ele>
        <time>2023-08-16T09:30:38Z</time>
      </trkpt>
      <trkpt lat="49.77419" lon="2.18876">
        <ele>85.4</ele>
        <time>2023-08-16T09:30:39Z</time>
      </trkpt>
      <trkpt lat="49.77419" lon="2.18873">
        <ele>85.4</ele>
        <time>2023-08-16T09:30:41Z</time>
      </trkpt>
      <trkpt lat="49.77419" lon="2.18872">
        <ele>85.4</ele>
        <time>2023-08-16T09:30:42Z</time>
      </trkpt>
      <trkpt lat="49.77419" lon="2.1887">
        <ele>85.3</ele>
        <time>2023-08-16T09:30:43Z</time>
      </trkpt>
      <trkpt lat="49.77419" lon="2.18868">
        <ele>85.3</ele>
        <time>2023-08-16T09:30:44Z</time>
      </trkpt>
      <trkpt lat="49.77419" lon="2.18866">
        <ele>85.3</ele>
        <time>2023-08-16T09:30:45Z</time>
      </trkpt>
      <trkpt lat="49.77418" lon="2.18864">
        <ele>85.3</ele>
        <time>2023-08-16T09:30:46Z</time>
      </trkpt>
      <trkpt lat="49.77418" lon="2.18862">
        <ele>85.3</ele>
        <time>2023-08-16T09:30:48Z</time>
      </trkpt>
      <trkpt lat="49.77417" lon="2.1886">
        <ele>85.2</ele>
        <time>2023-08-16T09:30:49Z</time>
      </trkpt>
      <trkpt lat="49.77417" lon="2.18858">
        <ele>85.2</ele>
        <time>2023-08-16T09:30:50Z</time>
      </trkpt>
      <trkpt lat="49.77416" lon="2.18857">
        <ele>85.2</ele>
        <time>2023-08-16T09:30:51Z</time>
      </trkpt>
      <trkpt lat="49.77416" lon="2.18855">
        <ele>85.2</ele>
        <time>2023-08-16T09:30:52Z</time>
      </trkpt>
      <trkpt lat="49.77415" lon="2.18853">
        <ele>85.2</ele>
        <time>2023-08-16T09:30:53Z</time>
      </trkpt>
      <trkpt lat="49.77415" lon="2.18851">
        <ele>85.2</ele>
        <time>2023-08-16T09:30:54Z</time>
      </trkpt>
      <trkpt lat="49.77414" lon="2.18849">
        <ele>85.1</ele>
        <time>2023-08-16T09:30:56Z</time>
      </trkpt>
      <trkpt lat="49.77414" lon="2.18847">
        <ele>85.1</ele>
        <time>2023-08-16T09:30:57Z</time>
      </trkpt>
      <trkpt lat="49.77413" lon="2.18845">
        <ele>85.1</ele>
        <time>2023-08-16T09:30:58Z</time>
      </trkpt>
      <trkpt lat="49.77413" lon="2.18843">
        <ele>85.1</ele>
        <time>2023-08-16T09:30:59Z</time>
      </trkpt>
      <trkpt lat="49.77413" lon="2.18842">
        <ele>85.1</ele>
        <time>2023-08-16T09:31:00Z</time>
      </trkpt>
      <trkpt lat="49.77413" lon="2.1884">
        <ele>85.1</ele>
        <time>2023-08-16T09:31:02Z</time>
      </trkpt>
      <trkpt lat="49.77413" lon="2.18838">
        <ele>85.1</ele>
        <time>2023-08-16T09:31:03Z</time>
      </trkpt>
      <trkpt lat="49.77412" lon="2.18836">
        <ele>85.1</ele>
        <time>2023-08-16T09:31:04Z</time>
      </trkpt>
      <trkpt lat="49.77412" lon="2.18834">
        <ele>85.1</ele>
        <time>2023-08-16T09:31:05Z</time>
      </trkpt>
      <trkpt lat="49.77412" lon="2.18833">
        <ele>85</ele>
        <time>2023-08-16T09:31:06Z</time>
      </trkpt>
      <trkpt lat="49.77412" lon="2.18831">
        <ele>85</ele>
        <time>2023-08-16T09:31:07Z</time>
      </trkpt>
      <trkpt lat="49.77412" lon="2.18829">
        <ele>85</ele>
        <time>2023-08-16T09:31:09Z</time>
      </trkpt>
      <trkpt lat="49.77412" lon="2.18827">
        <ele>85</ele>
        <time>2023-08-16T09:31:10Z</time>
      </trkpt>
      <trkpt lat="49.77412" lon="2.18824">
        <ele>85</ele>
        <time>2023-08-16T09:31:11Z</time>
      </trkpt>
      <trkpt lat="49.77412" lon="2.18822">
        <ele>85</ele>
        <time>2023-08-16T09:31:12Z</time>
      </trkpt>
      <trkpt lat="49.77412" lon="2.1882">
        <ele>85</ele>
        <time>2023-08-16T09:31:13Z</time>
      </trkpt>
      <trkpt lat="49.77412" lon="2.18819">
        <ele>85</ele>
        <time>2023-08-16T09:31:14Z</time>
      </trkpt>
      <trkpt lat="49.77412" lon="2.18817">
        <ele>85</ele>
        <time>2023-08-16T09:31:16Z</time>
      </trkpt>
      <trkpt lat="49.77412" lon="2.18816">
        <ele>85</ele>
        <time>2023-08-16T09:31:17Z</time>
      </trkpt>
      <trkpt lat="49.77412" lon="2.18814">
        <ele>85</ele>
        <time>2023-08-16T09:31:18Z</time>
      </trkpt>
      <trkpt lat="49.77412" lon="2.18812">
        <ele>85</ele>
        <time>2023-08-16T09:31:19Z</time>
      </trkpt>
      <trkpt lat="49.77411" lon="2.18811">
        <ele>85</ele>
        <time>2023-08-16T09:31:20Z</time>
      </trkpt>
      <trkpt lat="49.77411" lon="2.18809">
        <ele>85</ele>
        <time>2023-08-16T09:31:21Z</time>
      </trkpt>
      <trkpt lat="49.77411" lon="2.18807">
        <ele>85</ele>
        <time>2023-08-16T09:31:23Z</time>
      </trkpt>
      <trkpt lat="49.77411" lon="2.18806">
        <ele>85</ele>
        <time>2023-08-16T09:31:24Z</time>
      </trkpt>
      <trkpt lat="49.77411" lon="2.18804">
        <ele>85</ele>
        <time>2023-08-16T09:31:25Z</time>
      </trkpt>
      <trkpt lat="49.7741" lon="2.18801">
        <ele>85</ele>
        <time>2023-08-16T09:31:26Z</time>
      </trkpt>
      <trkpt lat="49.7741" lon="2.188">
        <ele>85</ele>
        <time>2023-08-16T09:31:27Z</time>
      </trkpt>
      <trkpt lat="49.7741" lon="2.18798">
        <ele>85</ele>
        <time>2023-08-16T09:31:29Z</time>
      </trkpt>
      <trkpt lat="49.77409" lon="2.18797">
        <ele>85</ele>
        <time>2023-08-16T09:31:30Z</time>
      </trkpt>
      <trkpt lat="49.77409" lon="2.18795">
        <ele>85</ele>
        <time>2023-08-16T09:31:31Z</time>
      </trkpt>
      <trkpt lat="49.77409" lon="2.18794">
        <ele>85</ele>
        <time>2023-08-16T09:31:32Z</time>
      </trkpt>
      <trkpt lat="49.77409" lon="2.1879">
        <ele>85</ele>
        <time>2023-08-16T09:31:33Z</time>
      </trkpt>
      <trkpt lat="49.77409" lon="2.18789">
        <ele>85</ele>
        <time>2023-08-16T09:31:34Z</time>
      </trkpt>
      <trkpt lat="49.77409" lon="2.18787">
        <ele>85</ele>
        <time>2023-08-16T09:31:36Z</time>
      </trkpt>
      <trkpt lat="49.77408" lon="2.18786">
        <ele>85</ele>
        <time>2023-08-16T09:31:37Z</time>
      </trkpt>
      <trkpt lat="49.77408" lon="2.18784">
        <ele>85</ele>
        <time>2023-08-16T09:31:38Z</time>
      </trkpt>
      <trkpt lat="49.77408" lon="2.18783">
        <ele>85</ele>
        <time>2023-08-16T09:31:39Z</time>
      </trkpt>
      <trkpt lat="49.77408" lon="2.18781">
        <ele>85</ele>
        <time>2023-08-16T09:31:40Z</time>
      </trkpt>
      <trkpt lat="49.77408" lon="2.18779">
        <ele>85</ele>
        <time>2023-08-16T09:31:42Z</time>
      </trkpt>
      <trkpt lat="49.77408" lon="2.18777">
        <ele>85</ele>
        <time>2023-08-16T09:31:43Z</time>
      </trkpt>
      <trkpt lat="49.77408" lon="2.18775">
        <ele>85</ele>
        <time>2023-08-16T09:31:44Z</time>
      </trkpt>
      <trkpt lat="49.77408" lon="2.18774">
        <ele>85</ele>
        <time>2023-08-16T09:31:45Z</time>
      </trkpt>
      <trkpt lat="49.77408" lon="2.18772">
        <ele>85</ele>
        <time>2023-08-16T09:31:46Z</time>
      </trkpt>
      <trkpt lat="49.77408" lon="2.1877">
        <ele>85</ele>
        <time>2023-08-16T09:31:47Z</time>
      </trkpt>
      <trkpt lat="49.77408" lon="2.18768">
        <ele>85</ele>
        <time>2023-08-16T09:31:49Z</time>
      </trkpt>
      <trkpt lat="49.77408" lon="2.18767">
        <ele>85</ele>
        <time>2023-08-16T09:31:50Z</time>
      </trkpt>
      <trkpt lat="49.77407" lon="2.18765">
        <ele>85</ele>
        <time>2023-08-16T09:31:51Z</time>
      </trkpt>
      <trkpt lat="49.77407" lon="2.18763">
        <ele>85</ele>
        <time>2023-08-16T09:31:52Z</time>
      </trkpt>
      <trkpt lat="49.77407" lon="2.18761">
        <ele>85</ele>
        <time>2023-08-16T09:31:53Z</time>
      </trkpt>
      <trkpt lat="49.77407" lon="2.18758">
        <ele>85</ele>
        <time>2023-08-16T09:31:55Z</time>
      </trkpt>
      <trkpt lat="49.77407" lon="2.18757">
        <ele>85</ele>
        <time>2023-08-16T09:31:56Z</time>
      </trkpt>
      <trkpt lat="49.77407" lon="2.18755">
        <ele>85</ele>
        <time>2023-08-16T09:31:57Z</time>
      </trkpt>
      <trkpt lat="49.77407" lon="2.18753">
        <ele>85</ele>
        <time>2023-08-16T09:31:58Z</time>
      </trkpt>
      <trkpt lat="49.77407" lon="2.18752">
        <ele>85</ele>
        <time>2023-08-16T09:31:59Z</time>
      </trkpt>
      <trkpt lat="49.77406" lon="2.1875">
        <ele>85</ele>
        <time>2023-08-16T09:32:00Z</time>
      </trkpt>
      <trkpt lat="49.77406" lon="2.18748">
        <ele>85</ele>
        <time>2023-08-16T09:32:01Z</time>
      </trkpt>
      <trkpt lat="49.77406" lon="2.18746">
        <ele>85</ele>
        <time>2023-08-16T09:32:02Z</time>
      </trkpt>
      <trkpt lat="49.77406" lon="2.18744">
        <ele>85</ele>
        <time>2023-08-16T09:32:04Z</time>
      </trkpt>
      <trkpt lat="49.77405" lon="2.18741">
        <ele>85</ele>
        <time>2023-08-16T09:32:05Z</time>
      </trkpt>
      <trkpt lat="49.77405" lon="2.1874">
        <ele>85</ele>
        <time>2023-08-16T09:32:06Z</time>
      </trkpt>
      <trkpt lat="49.77405" lon="2.18738">
        <ele>85</ele>
        <time>2023-08-16T09:32:07Z</time>
      </trkpt>
      <trkpt lat="49.77405" lon="2.18736">
        <ele>85</ele>
        <time>2023-08-16T09:32:08Z</time>
      </trkpt>
      <trkpt lat="49.77405" lon="2.18734">
        <ele>85</ele>
        <time>2023-08-16T09:32:09Z</time>
      </trkpt>
      <trkpt lat="49.77404" lon="2.18733">
        <ele>85</ele>
        <time>2023-08-16T09:32:11Z</time>
      </trkpt>
      <trkpt lat="49.77404" lon="2.1873">
        <ele>85</ele>
        <time>2023-08-16T09:32:12Z</time>
      </trkpt>
      <trkpt lat="49.77403" lon="2.18728">
        <ele>85</ele>
        <time>2023-08-16T09:32:13Z</time>
      </trkpt>
      <trkpt lat="49.77403" lon="2.18727">
        <ele>85</ele>
        <time>2023-08-16T09:32:14Z</time>
      </trkpt>
      <trkpt lat="49.77403" lon="2.18725">
        <ele>85</ele>
        <time>2023-08-16T09:32:15Z</time>
      </trkpt>
      <trkpt lat="49.77403" lon="2.18722">
        <ele>85</ele>
        <time>2023-08-16T09:32:17Z</time>
      </trkpt>
      <trkpt lat="49.77403" lon="2.1872">
        <ele>85</ele>
        <time>2023-08-16T09:32:18Z</time>
      </trkpt>
      <trkpt lat="49.77402" lon="2.18718">
        <ele>85</ele>
        <time>2023-08-16T09:32:20Z</time>
      </trkpt>
      <trkpt lat="49.77402" lon="2.18716">
        <ele>85</ele>
        <time>2023-08-16T09:32:21Z</time>
      </trkpt>
      <trkpt lat="49.77402" lon="2.18714">
        <ele>85</ele>
        <time>2023-08-16T09:32:22Z</time>
      </trkpt>
      <trkpt lat="49.77401" lon="2.18713">
        <ele>85</ele>
        <time>2023-08-16T09:32:23Z</time>
      </trkpt>
      <trkpt lat="49.77401" lon="2.18711">
        <ele>85</ele>
        <time>2023-08-16T09:32:24Z</time>
      </trkpt>
      <trkpt lat="49.77401" lon="2.1871">
        <ele>85</ele>
        <time>2023-08-16T09:32:25Z</time>
      </trkpt>
      <trkpt lat="49.77401" lon="2.18707">
        <ele>85</ele>
        <time>2023-08-16T09:32:27Z</time>
      </trkpt>
      <trkpt lat="49.77401" lon="2.18706">
        <ele>85</ele>
        <time>2023-08-16T09:32:28Z</time>
      </trkpt>
      <trkpt lat="49.77401" lon="2.18704">
        <ele>85</ele>
        <time>2023-08-16T09:32:29Z</time>
      </trkpt>
      <trkpt lat="49.77401" lon="2.18702">
        <ele>85</ele>
        <time>2023-08-16T09:32:30Z</time>
      </trkpt>
      <trkpt lat="49.77401" lon="2.18699">
        <ele>85</ele>
        <time>2023-08-16T09:32:31Z</time>
      </trkpt>
      <trkpt lat="49.77401" lon="2.18697">
        <ele>85</ele>
        <time>2023-08-16T09:32:32Z</time>
      </trkpt>
      <trkpt lat="49.77401" lon="2.18696">
        <ele>85</ele>
        <time>2023-08-16T09:32:33Z</time>
      </trkpt>
      <trkpt lat="49.774" lon="2.18694">
        <ele>85</ele>
        <time>2023-08-16T09:32:35Z</time>
      </trkpt>
      <trkpt lat="49.774" lon="2.18693">
        <ele>85</ele>
        <time>2023-08-16T09:32:36Z</time>
      </trkpt>
      <trkpt lat="49.774" lon="2.18691">
        <ele>85.1</ele>
        <time>2023-08-16T09:32:37Z</time>
      </trkpt>
      <trkpt lat="49.77399" lon="2.18688">
        <ele>85.1</ele>
        <time>2023-08-16T09:32:38Z</time>
      </trkpt>
      <trkpt lat="49.77399" lon="2.18686">
        <ele>85.1</ele>
        <time>2023-08-16T09:32:39Z</time>
      </trkpt>
      <trkpt lat="49.77399" lon="2.18685">
        <ele>85.1</ele>
        <time>2023-08-16T09:32:41Z</time>
      </trkpt>
      <trkpt lat="49.77398" lon="2.18683">
        <ele>85.1</ele>
        <time>2023-08-16T09:32:42Z</time>
      </trkpt>
      <trkpt lat="49.77398" lon="2.18682">
        <ele>85.1</ele>
        <time>2023-08-16T09:32:43Z</time>
      </trkpt>
      <trkpt lat="49.77398" lon="2.1868">
        <ele>85.1</ele>
        <time>2023-08-16T09:32:44Z</time>
      </trkpt>
      <trkpt lat="49.77398" lon="2.18678">
        <ele>85.2</ele>
        <time>2023-08-16T09:32:45Z</time>
      </trkpt>
      <trkpt lat="49.77398" lon="2.18676">
        <ele>85.2</ele>
        <time>2023-08-16T09:32:46Z</time>
      </trkpt>
      <trkpt lat="49.77397" lon="2.18674">
        <ele>85.2</ele>
        <time>2023-08-16T09:32:48Z</time>
      </trkpt>
      <trkpt lat="49.77397" lon="2.18671">
        <ele>85.2</ele>
        <time>2023-08-16T09:32:49Z</time>
      </trkpt>
      <trkpt lat="49.77397" lon="2.18669">
        <ele>85.2</ele>
        <time>2023-08-16T09:32:51Z</time>
      </trkpt>
      <trkpt lat="49.77397" lon="2.18668">
        <ele>85.3</ele>
        <time>2023-08-16T09:32:52Z</time>
      </trkpt>
      <trkpt lat="49.77397" lon="2.18666">
        <ele>85.3</ele>
        <time>2023-08-16T09:32:53Z</time>
      </trkpt>
      <trkpt lat="49.77397" lon="2.18664">
        <ele>85.3</ele>
        <time>2023-08-16T09:32:54Z</time>
      </trkpt>
      <trkpt lat="49.77397" lon="2.18663">
        <ele>85.3</ele>
        <time>2023-08-16T09:32:55Z</time>
      </trkpt>
      <trkpt lat="49.77397" lon="2.18661">
        <ele>85.3</ele>
        <time>2023-08-16T09:32:56Z</time>
      </trkpt>
      <trkpt lat="49.77396" lon="2.18659">
        <ele>85.4</ele>
        <time>2023-08-16T09:32:57Z</time>
      </trkpt>
      <trkpt lat="49.77396" lon="2.18657">
        <ele>85.4</ele>
        <time>2023-08-16T09:32:59Z</time>
      </trkpt>
      <trkpt lat="49.77396" lon="2.18655">
        <ele>85.4</ele>
        <time>2023-08-16T09:33:00Z</time>
      </trkpt>
      <trkpt lat="49.77397" lon="2.18654">
        <ele>85.4</ele>
        <time>2023-08-16T09:33:01Z</time>
      </trkpt>
      <trkpt lat="49.77397" lon="2.18652">
        <ele>85.4</ele>
        <time>2023-08-16T09:33:02Z</time>
      </trkpt>
      <trkpt lat="49.77397" lon="2.18651">
        <ele>85.4</ele>
        <time>2023-08-16T09:33:03Z</time>
      </trkpt>
      <trkpt lat="49.77397" lon="2.1865">
        <ele>85.4</ele>
        <time>2023-08-16T09:33:04Z</time>
      </trkpt>
      <trkpt lat="49.77396" lon="2.18648">
        <ele>85.5</ele>
        <time>2023-08-16T09:33:06Z</time>
      </trkpt>
      <trkpt lat="49.77396" lon="2.18646">
        <ele>85.5</ele>
        <time>2023-08-16T09:33:07Z</time>
      </trkpt>
      <trkpt lat="49.77396" lon="2.18645">
        <ele>85.5</ele>
        <time>2023-08-16T09:33:08Z</time>
      </trkpt>
      <trkpt lat="49.77396" lon="2.18643">
        <ele>85.5</ele>
        <time>2023-08-16T09:33:09Z</time>
      </trkpt>
      <trkpt lat="49.77396" lon="2.18642">
        <ele>85.5</ele>
        <time>2023-08-16T09:33:11Z</time>
      </trkpt>
      <trkpt lat="49.77396" lon="2.1864">
        <ele>85.5</ele>
        <time>2023-08-16T09:33:12Z</time>
      </trkpt>
      <trkpt lat="49.77397" lon="2.18639">
        <ele>85.5</ele>
        <time>2023-08-16T09:33:13Z</time>
      </trkpt>
      <trkpt lat="49.77397" lon="2.18637">
        <ele>85.5</ele>
        <time>2023-08-16T09:33:14Z</time>
      </trkpt>
      <trkpt lat="49.77397" lon="2.18636">
        <ele>85.6</ele>
        <time>2023-08-16T09:33:15Z</time>
      </trkpt>
      <trkpt lat="49.77397" lon="2.18634">
        <ele>85.6</ele>
        <time>2023-08-16T09:33:16Z</time>
      </trkpt>
      <trkpt lat="49.77396" lon="2.18631">
        <ele>85.6</ele>
        <time>2023-08-16T09:33:18Z</time>
      </trkpt>
      <trkpt lat="49.77396" lon="2.1863">
        <ele>85.6</ele>
        <time>2023-08-16T09:33:19Z</time>
      </trkpt>
      <trkpt lat="49.77396" lon="2.18629">
        <ele>85.6</ele>
        <time>2023-08-16T09:33:20Z</time>
      </trkpt>
      <trkpt lat="49.77396" lon="2.18627">
        <ele>85.6</ele>
        <time>2023-08-16T09:33:21Z</time>
      </trkpt>
      <trkpt lat="49.77396" lon="2.18626">
        <ele>85.6</ele>
        <time>2023-08-16T09:33:22Z</time>
      </trkpt>
      <trkpt lat="49.77395" lon="2.18624">
        <ele>85.6</ele>
        <time>2023-08-16T09:33:24Z</time>
      </trkpt>
      <trkpt lat="49.77395" lon="2.18623">
        <ele>85.7</ele>
        <time>2023-08-16T09:33:25Z</time>
      </trkpt>
      <trkpt lat="49.77395" lon="2.18621">
        <ele>85.7</ele>
        <time>2023-08-16T09:33:26Z</time>
      </trkpt>
      <trkpt lat="49.77395" lon="2.18619">
        <ele>85.7</ele>
        <time>2023-08-16T09:33:27Z</time>
      </trkpt>
      <trkpt lat="49.77395" lon="2.18618">
        <ele>85.7</ele>
        <time>2023-08-16T09:33:28Z</time>
      </trkpt>
      <trkpt lat="49.77395" lon="2.18616">
        <ele>85.7</ele>
        <time>2023-08-16T09:33:29Z</time>
      </trkpt>
      <trkpt lat="49.77395" lon="2.18614">
        <ele>85.7</ele>
        <time>2023-08-16T09:33:31Z</time>
      </trkpt>
      <trkpt lat="49.77395" lon="2.18613">
        <ele>85.7</ele>
        <time>2023-08-16T09:33:32Z</time>
      </trkpt>
      <trkpt lat="49.77395" lon="2.18611">
        <ele>85.7</ele>
        <time>2023-08-16T09:33:33Z</time>
      </trkpt>
      <trkpt lat="49.77395" lon="2.18609">
        <ele>85.8</ele>
        <time>2023-08-16T09:33:34Z</time>
      </trkpt>
      <trkpt lat="49.77395" lon="2.18608">
        <ele>85.8</ele>
        <time>2023-08-16T09:33:35Z</time>
      </trkpt>
      <trkpt lat="49.77395" lon="2.18606">
        <ele>85.8</ele>
        <time>2023-08-16T09:33:36Z</time>
      </trkpt>
      <trkpt lat="49.77395" lon="2.18605">
        <ele>85.8</ele>
        <time>2023-08-16T09:33:37Z</time>
      </trkpt>
      <trkpt lat="49.77395" lon="2.18603">
        <ele>85.8</ele>
        <time>2023-08-16T09:33:38Z</time>
      </trkpt>
      <trkpt lat="49.77394" lon="2.18601">
        <ele>85.8</ele>
        <time>2023-08-16T09:33:40Z</time>
      </trkpt>
      <trkpt lat="49.77394" lon="2.186">
        <ele>85.8</ele>
        <time>2023-08-16T09:33:41Z</time>
      </trkpt>
      <trkpt lat="49.77394" lon="2.18598">
        <ele>85.9</ele>
        <time>2023-08-16T09:33:42Z</time>
      </trkpt>
      <trkpt lat="49.77394" lon="2.18596">
        <ele>85.9</ele>
        <time>2023-08-16T09:33:43Z</time>
      </trkpt>
      <trkpt lat="49.77393" lon="2.18595">
        <ele>85.9</ele>
        <time>2023-08-16T09:33:44Z</time>
      </trkpt>
      <trkpt lat="49.77393" lon="2.18592">
        <ele>85.9</ele>
        <time>2023-08-16T09:33:46Z</time>
      </trkpt>
      <trkpt lat="49.77393" lon="2.18591">
        <ele>85.9</ele>
        <time>2023-08-16T09:33:47Z</time>
      </trkpt>
      <trkpt lat="49.77392" lon="2.18589">
        <ele>85.9</ele>
        <time>2023-08-16T09:33:48Z</time>
      </trkpt>
      <trkpt lat="49.77392" lon="2.18588">
        <ele>85.9</ele>
        <time>2023-08-16T09:33:49Z</time>
      </trkpt>
      <trkpt lat="49.77392" lon="2.18586">
        <ele>86</ele>
        <time>2023-08-16T09:33:50Z</time>
      </trkpt>
      <trkpt lat="49.77392" lon="2.18584">
        <ele>86</ele>
        <time>2023-08-16T09:33:51Z</time>
      </trkpt>
      <trkpt lat="49.77391" lon="2.18581">
        <ele>86</ele>
        <time>2023-08-16T09:33:53Z</time>
      </trkpt>
      <trkpt lat="49.77391" lon="2.1858">
        <ele>86</ele>
        <time>2023-08-16T09:33:54Z</time>
      </trkpt>
      <trkpt lat="49.77391" lon="2.18578">
        <ele>86</ele>
        <time>2023-08-16T09:33:55Z</time>
      </trkpt>
      <trkpt lat="49.77391" lon="2.18577">
        <ele>86</ele>
        <time>2023-08-16T09:33:56Z</time>
      </trkpt>
      <trkpt lat="49.7739" lon="2.18575">
        <ele>86</ele>
        <time>2023-08-16T09:33:57Z</time>
      </trkpt>
      <trkpt lat="49.7739" lon="2.18573">
        <ele>86.1</ele>
        <time>2023-08-16T09:33:59Z</time>
      </trkpt>
      <trkpt lat="49.7739" lon="2.18572">
        <ele>86.1</ele>
        <time>2023-08-16T09:34:00Z</time>
      </trkpt>
      <trkpt lat="49.7739" lon="2.1857">
        <ele>86.1</ele>
        <time>2023-08-16T09:34:01Z</time>
      </trkpt>
      <trkpt lat="49.7739" lon="2.18568">
        <ele>86.1</ele>
        <time>2023-08-16T09:34:02Z</time>
      </trkpt>
      <trkpt lat="49.77389" lon="2.18567">
        <ele>86.1</ele>
        <time>2023-08-16T09:34:03Z</time>
      </trkpt>
      <trkpt lat="49.77389" lon="2.18565">
        <ele>86.1</ele>
        <time>2023-08-16T09:34:04Z</time>
      </trkpt>
      <trkpt lat="49.77389" lon="2.18563">
        <ele>86.1</ele>
        <time>2023-08-16T09:34:05Z</time>
      </trkpt>
      <trkpt lat="49.77389" lon="2.18561">
        <ele>86.1</ele>
        <time>2023-08-16T09:34:06Z</time>
      </trkpt>
      <trkpt lat="49.77389" lon="2.1856">
        <ele>86.1</ele>
        <time>2023-08-16T09:34:08Z</time>
      </trkpt>
      <trkpt lat="49.77389" lon="2.18558">
        <ele>86.1</ele>
        <time>2023-08-16T09:34:09Z</time>
      </trkpt>
      <trkpt lat="49.77388" lon="2.18555">
        <ele>86.2</ele>
        <time>2023-08-16T09:34:10Z</time>
      </trkpt>
      <trkpt lat="49.77388" lon="2.18553">
        <ele>86.2</ele>
        <time>2023-08-16T09:34:11Z</time>
      </trkpt>
      <trkpt lat="49.77388" lon="2.18552">
        <ele>86.2</ele>
        <time>2023-08-16T09:34:12Z</time>
      </trkpt>
      <trkpt lat="49.77388" lon="2.18551">
        <ele>86.2</ele>
        <time>2023-08-16T09:34:13Z</time>
      </trkpt>
      <trkpt lat="49.77388" lon="2.18549">
        <ele>86.2</ele>
        <time>2023-08-16T09:34:15Z</time>
      </trkpt>
      <trkpt lat="49.77388" lon="2.18547">
        <ele>86.2</ele>
        <time>2023-08-16T09:34:16Z</time>
      </trkpt>
      <trkpt lat="49.77387" lon="2.18545">
        <ele>86.2</ele>
        <time>2023-08-16T09:34:17Z</time>
      </trkpt>
      <trkpt lat="49.77387" lon="2.18543">
        <ele>86.2</ele>
        <time>2023-08-16T09:34:19Z</time>
      </trkpt>
      <trkpt lat="49.77387" lon="2.18541">
        <ele>86.3</ele>
        <time>2023-08-16T09:34:20Z</time>
      </trkpt>
      <trkpt lat="49.77386" lon="2.18539">
        <ele>86.3</ele>
        <time>2023-08-16T09:34:21Z</time>
      </trkpt>
      <trkpt lat="49.77386" lon="2.18537">
        <ele>86.3</ele>
        <time>2023-08-16T09:34:22Z</time>
      </trkpt>
      <trkpt lat="49.77386" lon="2.18535">
        <ele>86.3</ele>
        <time>2023-08-16T09:34:23Z</time>
      </trkpt>
      <trkpt lat="49.77386" lon="2.18533">
        <ele>86.3</ele>
        <time>2023-08-16T09:34:24Z</time>
      </trkpt>
      <trkpt lat="49.77386" lon="2.18531">
        <ele>86.4</ele>
        <time>2023-08-16T09:34:26Z</time>
      </trkpt>
      <trkpt lat="49.77386" lon="2.18529">
        <ele>86.4</ele>
        <time>2023-08-16T09:34:27Z</time>
      </trkpt>
      <trkpt lat="49.77386" lon="2.18527">
        <ele>86.4</ele>
        <time>2023-08-16T09:34:28Z</time>
      </trkpt>
      <trkpt lat="49.77386" lon="2.18526">
        <ele>86.4</ele>
        <time>2023-08-16T09:34:29Z</time>
      </trkpt>
      <trkpt lat="49.77386" lon="2.18524">
        <ele>86.4</ele>
        <time>2023-08-16T09:34:30Z</time>
      </trkpt>
      <trkpt lat="49.77386" lon="2.18521">
        <ele>86.5</ele>
        <time>2023-08-16T09:34:32Z</time>
      </trkpt>
      <trkpt lat="49.77386" lon="2.18519">
        <ele>86.5</ele>
        <time>2023-08-16T09:34:33Z</time>
      </trkpt>
      <trkpt lat="49.77386" lon="2.18518">
        <ele>86.5</ele>
        <time>2023-08-16T09:34:34Z</time>
      </trkpt>
      <trkpt lat="49.77386" lon="2.18516">
        <ele>86.5</ele>
        <time>2023-08-16T09:34:35Z</time>
      </trkpt>
      <trkpt lat="49.77385" lon="2.18515">
        <ele>86.5</ele>
        <time>2023-08-16T09:34:36Z</time>
      </trkpt>
      <trkpt lat="49.77385" lon="2.18513">
        <ele>86.5</ele>
        <time>2023-08-16T09:34:37Z</time>
      </trkpt>
      <trkpt lat="49.77385" lon="2.18511">
        <ele>86.6</ele>
        <time>2023-08-16T09:34:39Z</time>
      </trkpt>
      <trkpt lat="49.77385" lon="2.18508">
        <ele>86.6</ele>
        <time>2023-08-16T09:34:40Z</time>
      </trkpt>
      <trkpt lat="49.77384" lon="2.18505">
        <ele>86.6</ele>
        <time>2023-08-16T09:34:41Z</time>
      </trkpt>
      <trkpt lat="49.77384" lon="2.18504">
        <ele>86.6</ele>
        <time>2023-08-16T09:34:42Z</time>
      </trkpt>
      <trkpt lat="49.77384" lon="2.18503">
        <ele>86.6</ele>
        <time>2023-08-16T09:34:43Z</time>
      </trkpt>
      <trkpt lat="49.77384" lon="2.18501">
        <ele>86.7</ele>
        <time>2023-08-16T09:34:44Z</time>
      </trkpt>
      <trkpt lat="49.77384" lon="2.18499">
        <ele>86.7</ele>
        <time>2023-08-16T09:34:45Z</time>
      </trkpt>
      <trkpt lat="49.77384" lon="2.18497">
        <ele>86.7</ele>
        <time>2023-08-16T09:34:47Z</time>
      </trkpt>
      <trkpt lat="49.77383" lon="2.18494">
        <ele>86.7</ele>
        <time>2023-08-16T09:34:48Z</time>
      </trkpt>
      <trkpt lat="49.77383" lon="2.18492">
        <ele>86.7</ele>
        <time>2023-08-16T09:34:49Z</time>
      </trkpt>
      <trkpt lat="49.77383" lon="2.18489">
        <ele>86.8</ele>
        <time>2023-08-16T09:34:50Z</time>
      </trkpt>
      <trkpt lat="49.77383" lon="2.18488">
        <ele>86.8</ele>
        <time>2023-08-16T09:34:51Z</time>
      </trkpt>
      <trkpt lat="49.77383" lon="2.18487">
        <ele>86.8</ele>
        <time>2023-08-16T09:34:52Z</time>
      </trkpt>
      <trkpt lat="49.77383" lon="2.18484">
        <ele>86.8</ele>
        <time>2023-08-16T09:34:54Z</time>
      </trkpt>
      <trkpt lat="49.77383" lon="2.18482">
        <ele>86.8</ele>
        <time>2023-08-16T09:34:55Z</time>
      </trkpt>
      <trkpt lat="49.77383" lon="2.18481">
        <ele>86.8</ele>
        <time>2023-08-16T09:34:56Z</time>
      </trkpt>
      <trkpt lat="49.77383" lon="2.18479">
        <ele>86.8</ele>
        <time>2023-08-16T09:34:57Z</time>
      </trkpt>
      <trkpt lat="49.77383" lon="2.18477">
        <ele>86.8</ele>
        <time>2023-08-16T09:34:58Z</time>
      </trkpt>
      <trkpt lat="49.77383" lon="2.18476">
        <ele>86.8</ele>
        <time>2023-08-16T09:34:59Z</time>
      </trkpt>
      <trkpt lat="49.77383" lon="2.18474">
        <ele>86.8</ele>
        <time>2023-08-16T09:35:01Z</time>
      </trkpt>
      <trkpt lat="49.77383" lon="2.18472">
        <ele>86.8</ele>
        <time>2023-08-16T09:35:02Z</time>
      </trkpt>
      <trkpt lat="49.77383" lon="2.18471">
        <ele>86.8</ele>
        <time>2023-08-16T09:35:03Z</time>
      </trkpt>
      <trkpt lat="49.77383" lon="2.18469">
        <ele>86.8</ele>
        <time>2023-08-16T09:35:04Z</time>
      </trkpt>
      <trkpt lat="49.77383" lon="2.18468">
        <ele>86.8</ele>
        <time>2023-08-16T09:35:05Z</time>
      </trkpt>
      <trkpt lat="49.77383" lon="2.18466">
        <ele>86.8</ele>
        <time>2023-08-16T09:35:07Z</time>
      </trkpt>
      <trkpt lat="49.77383" lon="2.18464">
        <ele>86.8</ele>
        <time>2023-08-16T09:35:08Z</time>
      </trkpt>
      <trkpt lat="49.77383" lon="2.18463">
        <ele>86.8</ele>
        <time>2023-08-16T09:35:09Z</time>
      </trkpt>
      <trkpt lat="49.77383" lon="2.18461">
        <ele>86.8</ele>
        <time>2023-08-16T09:35:10Z</time>
      </trkpt>
      <trkpt lat="49.77383" lon="2.18459">
        <ele>86.8</ele>
        <time>2023-08-16T09:35:11Z</time>
      </trkpt>
      <trkpt lat="49.77383" lon="2.18458">
        <ele>86.8</ele>
        <time>2023-08-16T09:35:12Z</time>
      </trkpt>
      <trkpt lat="49.77383" lon="2.18456">
        <ele>86.8</ele>
        <time>2023-08-16T09:35:14Z</time>
      </trkpt>
      <trkpt lat="49.77383" lon="2.18454">
        <ele>86.8</ele>
        <time>2023-08-16T09:35:15Z</time>
      </trkpt>
      <trkpt lat="49.77383" lon="2.18452">
        <ele>86.8</ele>
        <time>2023-08-16T09:35:16Z</time>
      </trkpt>
      <trkpt lat="49.77383" lon="2.18451">
        <ele>86.8</ele>
        <time>2023-08-16T09:35:17Z</time>
      </trkpt>
      <trkpt lat="49.77383" lon="2.18449">
        <ele>86.8</ele>
        <time>2023-08-16T09:35:18Z</time>
      </trkpt>
      <trkpt lat="49.77382" lon="2.18448">
        <ele>86.8</ele>
        <time>2023-08-16T09:35:19Z</time>
      </trkpt>
      <trkpt lat="49.77382" lon="2.18445">
        <ele>86.8</ele>
        <time>2023-08-16T09:35:21Z</time>
      </trkpt>
      <trkpt lat="49.77382" lon="2.18444">
        <ele>86.8</ele>
        <time>2023-08-16T09:35:22Z</time>
      </trkpt>
      <trkpt lat="49.77381" lon="2.18442">
        <ele>86.8</ele>
        <time>2023-08-16T09:35:23Z</time>
      </trkpt>
      <trkpt lat="49.77381" lon="2.18441">
        <ele>86.8</ele>
        <time>2023-08-16T09:35:24Z</time>
      </trkpt>
      <trkpt lat="49.77381" lon="2.18439">
        <ele>86.8</ele>
        <time>2023-08-16T09:35:26Z</time>
      </trkpt>
      <trkpt lat="49.77381" lon="2.18437">
        <ele>86.8</ele>
        <time>2023-08-16T09:35:27Z</time>
      </trkpt>
      <trkpt lat="49.77381" lon="2.18436">
        <ele>86.8</ele>
        <time>2023-08-16T09:35:28Z</time>
      </trkpt>
      <trkpt lat="49.77381" lon="2.18434">
        <ele>86.8</ele>
        <time>2023-08-16T09:35:29Z</time>
      </trkpt>
      <trkpt lat="49.77381" lon="2.18432">
        <ele>86.8</ele>
        <time>2023-08-16T09:35:30Z</time>
      </trkpt>
      <trkpt lat="49.77381" lon="2.18429">
        <ele>86.8</ele>
        <time>2023-08-16T09:35:32Z</time>
      </trkpt>
      <trkpt lat="49.7738" lon="2.18428">
        <ele>86.8</ele>
        <time>2023-08-16T09:35:33Z</time>
      </trkpt>
      <trkpt lat="49.7738" lon="2.18427">
        <ele>86.8</ele>
        <time>2023-08-16T09:35:34Z</time>
      </trkpt>
      <trkpt lat="49.7738" lon="2.18425">
        <ele>86.8</ele>
        <time>2023-08-16T09:35:35Z</time>
      </trkpt>
      <trkpt lat="49.7738" lon="2.18424">
        <ele>86.8</ele>
        <time>2023-08-16T09:35:36Z</time>
      </trkpt>
      <trkpt lat="49.77379" lon="2.18422">
        <ele>86.8</ele>
        <time>2023-08-16T09:35:37Z</time>
      </trkpt>
      <trkpt lat="49.77379" lon="2.18418">
        <ele>86.8</ele>
        <time>2023-08-16T09:35:39Z</time>
      </trkpt>
      <trkpt lat="49.77379" lon="2.18417">
        <ele>86.7</ele>
        <time>2023-08-16T09:35:40Z</time>
      </trkpt>
      <trkpt lat="49.77378" lon="2.18416">
        <ele>86.7</ele>
        <time>2023-08-16T09:35:41Z</time>
      </trkpt>
      <trkpt lat="49.77378" lon="2.18412">
        <ele>86.7</ele>
        <time>2023-08-16T09:35:42Z</time>
      </trkpt>
      <trkpt lat="49.77378" lon="2.18411">
        <ele>86.7</ele>
        <time>2023-08-16T09:35:43Z</time>
      </trkpt>
      <trkpt lat="49.77378" lon="2.1841">
        <ele>86.7</ele>
        <time>2023-08-16T09:35:44Z</time>
      </trkpt>
      <trkpt lat="49.77378" lon="2.18406">
        <ele>86.7</ele>
        <time>2023-08-16T09:35:45Z</time>
      </trkpt>
      <trkpt lat="49.77378" lon="2.18405">
        <ele>86.7</ele>
        <time>2023-08-16T09:35:47Z</time>
      </trkpt>
      <trkpt lat="49.77378" lon="2.18403">
        <ele>86.7</ele>
        <time>2023-08-16T09:35:48Z</time>
      </trkpt>
      <trkpt lat="49.77377" lon="2.18401">
        <ele>86.7</ele>
        <time>2023-08-16T09:35:49Z</time>
      </trkpt>
      <trkpt lat="49.77377" lon="2.184">
        <ele>86.7</ele>
        <time>2023-08-16T09:35:50Z</time>
      </trkpt>
      <trkpt lat="49.77377" lon="2.18398">
        <ele>86.7</ele>
        <time>2023-08-16T09:35:51Z</time>
      </trkpt>
      <trkpt lat="49.77377" lon="2.18396">
        <ele>86.7</ele>
        <time>2023-08-16T09:35:53Z</time>
      </trkpt>
      <trkpt lat="49.77377" lon="2.18394">
        <ele>86.7</ele>
        <time>2023-08-16T09:35:54Z</time>
      </trkpt>
      <trkpt lat="49.77377" lon="2.18393">
        <ele>86.7</ele>
        <time>2023-08-16T09:35:55Z</time>
      </trkpt>
      <trkpt lat="49.77376" lon="2.18391">
        <ele>86.7</ele>
        <time>2023-08-16T09:35:56Z</time>
      </trkpt>
      <trkpt lat="49.77376" lon="2.18389">
        <ele>86.6</ele>
        <time>2023-08-16T09:35:57Z</time>
      </trkpt>
      <trkpt lat="49.77376" lon="2.18388">
        <ele>86.6</ele>
        <time>2023-08-16T09:35:58Z</time>
      </trkpt>
      <trkpt lat="49.77376" lon="2.18386">
        <ele>86.6</ele>
        <time>2023-08-16T09:36:00Z</time>
      </trkpt>
      <trkpt lat="49.77376" lon="2.18384">
        <ele>86.6</ele>
        <time>2023-08-16T09:36:01Z</time>
      </trkpt>
      <trkpt lat="49.77376" lon="2.18382">
        <ele>86.6</ele>
        <time>2023-08-16T09:36:02Z</time>
      </trkpt>
      <trkpt lat="49.77376" lon="2.1838">
        <ele>86.6</ele>
        <time>2023-08-16T09:36:03Z</time>
      </trkpt>
      <trkpt lat="49.77376" lon="2.18379">
        <ele>86.6</ele>
        <time>2023-08-16T09:36:04Z</time>
      </trkpt>
      <trkpt lat="49.77376" lon="2.18377">
        <ele>86.6</ele>
        <time>2023-08-16T09:36:05Z</time>
      </trkpt>
      <trkpt lat="49.77376" lon="2.18376">
        <ele>86.6</ele>
        <time>2023-08-16T09:36:06Z</time>
      </trkpt>
      <trkpt lat="49.77376" lon="2.18374">
        <ele>86.6</ele>
        <time>2023-08-16T09:36:08Z</time>
      </trkpt>
      <trkpt lat="49.77375" lon="2.18373">
        <ele>86.6</ele>
        <time>2023-08-16T09:36:09Z</time>
      </trkpt>
      <trkpt lat="49.77375" lon="2.18371">
        <ele>86.6</ele>
        <time>2023-08-16T09:36:10Z</time>
      </trkpt>
      <trkpt lat="49.77375" lon="2.18369">
        <ele>86.6</ele>
        <time>2023-08-16T09:36:11Z</time>
      </trkpt>
      <trkpt lat="49.77375" lon="2.18367">
        <ele>86.6</ele>
        <time>2023-08-16T09:36:12Z</time>
      </trkpt>
      <trkpt lat="49.77375" lon="2.18366">
        <ele>86.5</ele>
        <time>2023-08-16T09:36:13Z</time>
      </trkpt>
      <trkpt lat="49.77375" lon="2.18364">
        <ele>86.5</ele>
        <time>2023-08-16T09:36:14Z</time>
      </trkpt>
      <trkpt lat="49.77375" lon="2.18362">
        <ele>86.5</ele>
        <time>2023-08-16T09:36:16Z</time>
      </trkpt>
      <trkpt lat="49.77375" lon="2.1836">
        <ele>86.5</ele>
        <time>2023-08-16T09:36:17Z</time>
      </trkpt>
      <trkpt lat="49.77375" lon="2.18358">
        <ele>86.5</ele>
        <time>2023-08-16T09:36:18Z</time>
      </trkpt>
      <trkpt lat="49.77375" lon="2.18356">
        <ele>86.5</ele>
        <time>2023-08-16T09:36:19Z</time>
      </trkpt>
      <trkpt lat="49.77375" lon="2.18355">
        <ele>86.5</ele>
        <time>2023-08-16T09:36:21Z</time>
      </trkpt>
      <trkpt lat="49.77375" lon="2.18353">
        <ele>86.5</ele>
        <time>2023-08-16T09:36:22Z</time>
      </trkpt>
      <trkpt lat="49.77375" lon="2.18351">
        <ele>86.5</ele>
        <time>2023-08-16T09:36:23Z</time>
      </trkpt>
      <trkpt lat="49.77375" lon="2.18349">
        <ele>86.5</ele>
        <time>2023-08-16T09:36:24Z</time>
      </trkpt>
      <trkpt lat="49.77375" lon="2.18348">
        <ele>86.4</ele>
        <time>2023-08-16T09:36:25Z</time>
      </trkpt>
      <trkpt lat="49.77375" lon="2.18346">
        <ele>86.4</ele>
        <time>2023-08-16T09:36:27Z</time>
      </trkpt>
      <trkpt lat="49.77375" lon="2.18345">
        <ele>86.4</ele>
        <time>2023-08-16T09:36:28Z</time>
      </trkpt>
      <trkpt lat="49.77374" lon="2.18343">
        <ele>86.4</ele>
        <time>2023-08-16T09:36:29Z</time>
      </trkpt>
      <trkpt lat="49.77374" lon="2.18341">
        <ele>86.4</ele>
        <time>2023-08-16T09:36:30Z</time>
      </trkpt>
      <trkpt lat="49.77374" lon="2.18339">
        <ele>86.4</ele>
        <time>2023-08-16T09:36:31Z</time>
      </trkpt>
      <trkpt lat="49.77374" lon="2.18337">
        <ele>86.4</ele>
        <time>2023-08-16T09:36:32Z</time>
      </trkpt>
      <trkpt lat="49.77374" lon="2.18336">
        <ele>86.4</ele>
        <time>2023-08-16T09:36:33Z</time>
      </trkpt>
      <trkpt lat="49.77374" lon="2.18334">
        <ele>86.4</ele>
        <time>2023-08-16T09:36:35Z</time>
      </trkpt>
      <trkpt lat="49.77374" lon="2.18332">
        <ele>86.3</ele>
        <time>2023-08-16T09:36:36Z</time>
      </trkpt>
      <trkpt lat="49.77374" lon="2.1833">
        <ele>86.3</ele>
        <time>2023-08-16T09:36:37Z</time>
      </trkpt>
      <trkpt lat="49.77374" lon="2.18328">
        <ele>86.3</ele>
        <time>2023-08-16T09:36:38Z</time>
      </trkpt>
      <trkpt lat="49.77374" lon="2.18326">
        <ele>86.3</ele>
        <time>2023-08-16T09:36:39Z</time>
      </trkpt>
      <trkpt lat="49.77374" lon="2.18324">
        <ele>86.3</ele>
        <time>2023-08-16T09:36:40Z</time>
      </trkpt>
      <trkpt lat="49.77374" lon="2.18321">
        <ele>86.3</ele>
        <time>2023-08-16T09:36:41Z</time>
      </trkpt>
      <trkpt lat="49.77373" lon="2.1832">
        <ele>86.2</ele>
        <time>2023-08-16T09:36:43Z</time>
      </trkpt>
      <trkpt lat="49.77373" lon="2.18319">
        <ele>86.2</ele>
        <time>2023-08-16T09:36:44Z</time>
      </trkpt>
      <trkpt lat="49.77373" lon="2.18316">
        <ele>86.2</ele>
        <time>2023-08-16T09:36:45Z</time>
      </trkpt>
      <trkpt lat="49.77373" lon="2.18314">
        <ele>86.2</ele>
        <time>2023-08-16T09:36:46Z</time>
      </trkpt>
      <trkpt lat="49.77372" lon="2.18313">
        <ele>86.2</ele>
        <time>2023-08-16T09:36:47Z</time>
      </trkpt>
      <trkpt lat="49.77372" lon="2.1831">
        <ele>86.1</ele>
        <time>2023-08-16T09:36:48Z</time>
      </trkpt>
      <trkpt lat="49.77372" lon="2.18309">
        <ele>86.1</ele>
        <time>2023-08-16T09:36:50Z</time>
      </trkpt>
      <trkpt lat="49.77371" lon="2.18307">
        <ele>86.1</ele>
        <time>2023-08-16T09:36:51Z</time>
      </trkpt>
      <trkpt lat="49.77371" lon="2.18305">
        <ele>86.1</ele>
        <time>2023-08-16T09:36:52Z</time>
      </trkpt>
      <trkpt lat="49.77371" lon="2.18304">
        <ele>86</ele>
        <time>2023-08-16T09:36:53Z</time>
      </trkpt>
      <trkpt lat="49.7737" lon="2.18302">
        <ele>86</ele>
        <time>2023-08-16T09:36:54Z</time>
      </trkpt>
      <trkpt lat="49.7737" lon="2.18301">
        <ele>86</ele>
        <time>2023-08-16T09:36:55Z</time>
      </trkpt>
      <trkpt lat="49.7737" lon="2.18299">
        <ele>86</ele>
        <time>2023-08-16T09:36:57Z</time>
      </trkpt>
      <trkpt lat="49.7737" lon="2.18297">
        <ele>85.9</ele>
        <time>2023-08-16T09:36:58Z</time>
      </trkpt>
      <trkpt lat="49.77369" lon="2.18295">
        <ele>85.9</ele>
        <time>2023-08-16T09:36:59Z</time>
      </trkpt>
      <trkpt lat="49.77369" lon="2.18294">
        <ele>85.9</ele>
        <time>2023-08-16T09:37:00Z</time>
      </trkpt>
      <trkpt lat="49.77369" lon="2.18292">
        <ele>85.9</ele>
        <time>2023-08-16T09:37:01Z</time>
      </trkpt>
      <trkpt lat="49.77368" lon="2.18289">
        <ele>85.8</ele>
        <time>2023-08-16T09:37:02Z</time>
      </trkpt>
      <trkpt lat="49.77367" lon="2.18288">
        <ele>85.8</ele>
        <time>2023-08-16T09:37:04Z</time>
      </trkpt>
      <trkpt lat="49.77367" lon="2.18287">
        <ele>85.8</ele>
        <time>2023-08-16T09:37:05Z</time>
      </trkpt>
      <trkpt lat="49.77367" lon="2.18285">
        <ele>85.8</ele>
        <time>2023-08-16T09:37:06Z</time>
      </trkpt>
      <trkpt lat="49.77366" lon="2.18284">
        <ele>85.8</ele>
        <time>2023-08-16T09:37:07Z</time>
      </trkpt>
      <trkpt lat="49.77366" lon="2.18282">
        <ele>85.8</ele>
        <time>2023-08-16T09:37:08Z</time>
      </trkpt>
      <trkpt lat="49.77365" lon="2.18279">
        <ele>85.7</ele>
        <time>2023-08-16T09:37:09Z</time>
      </trkpt>
      <trkpt lat="49.77365" lon="2.18277">
        <ele>85.7</ele>
        <time>2023-08-16T09:37:11Z</time>
      </trkpt>
      <trkpt lat="49.77365" lon="2.18276">
        <ele>85.7</ele>
        <time>2023-08-16T09:37:12Z</time>
      </trkpt>
      <trkpt lat="49.77365" lon="2.18273">
        <ele>85.7</ele>
        <time>2023-08-16T09:37:13Z</time>
      </trkpt>
      <trkpt lat="49.77365" lon="2.18272">
        <ele>85.7</ele>
        <time>2023-08-16T09:37:14Z</time>
      </trkpt>
      <trkpt lat="49.77365" lon="2.1827">
        <ele>85.6</ele>
        <time>2023-08-16T09:37:15Z</time>
      </trkpt>
      <trkpt lat="49.77365" lon="2.18267">
        <ele>85.6</ele>
        <time>2023-08-16T09:37:16Z</time>
      </trkpt>
      <trkpt lat="49.77365" lon="2.18266">
        <ele>85.6</ele>
        <time>2023-08-16T09:37:18Z</time>
      </trkpt>
      <trkpt lat="49.77365" lon="2.18265">
        <ele>85.6</ele>
        <time>2023-08-16T09:37:19Z</time>
      </trkpt>
      <trkpt lat="49.77365" lon="2.18261">
        <ele>85.6</ele>
        <time>2023-08-16T09:37:20Z</time>
      </trkpt>
      <trkpt lat="49.77365" lon="2.1826">
        <ele>85.5</ele>
        <time>2023-08-16T09:37:21Z</time>
      </trkpt>
      <trkpt lat="49.77365" lon="2.18259">
        <ele>85.5</ele>
        <time>2023-08-16T09:37:22Z</time>
      </trkpt>
      <trkpt lat="49.77365" lon="2.18257">
        <ele>85.4</ele>
        <time>2023-08-16T09:37:24Z</time>
      </trkpt>
      <trkpt lat="49.77365" lon="2.18255">
        <ele>85.4</ele>
        <time>2023-08-16T09:37:25Z</time>
      </trkpt>
      <trkpt lat="49.77365" lon="2.18253">
        <ele>85.3</ele>
        <time>2023-08-16T09:37:26Z</time>
      </trkpt>
      <trkpt lat="49.77365" lon="2.18252">
        <ele>85.3</ele>
        <time>2023-08-16T09:37:27Z</time>
      </trkpt>
      <trkpt lat="49.77365" lon="2.1825">
        <ele>85.2</ele>
        <time>2023-08-16T09:37:28Z</time>
      </trkpt>
      <trkpt lat="49.77365" lon="2.18248">
        <ele>85.2</ele>
        <time>2023-08-16T09:37:29Z</time>
      </trkpt>
      <trkpt lat="49.77365" lon="2.18245">
        <ele>85.1</ele>
        <time>2023-08-16T09:37:30Z</time>
      </trkpt>
      <trkpt lat="49.77365" lon="2.18243">
        <ele>85</ele>
        <time>2023-08-16T09:37:32Z</time>
      </trkpt>
      <trkpt lat="49.77365" lon="2.18241">
        <ele>85</ele>
        <time>2023-08-16T09:37:33Z</time>
      </trkpt>
      <trkpt lat="49.77365" lon="2.1824">
        <ele>84.9</ele>
        <time>2023-08-16T09:37:34Z</time>
      </trkpt>
      <trkpt lat="49.77365" lon="2.18238">
        <ele>84.9</ele>
        <time>2023-08-16T09:37:35Z</time>
      </trkpt>
      <trkpt lat="49.77365" lon="2.18236">
        <ele>84.8</ele>
        <time>2023-08-16T09:37:36Z</time>
      </trkpt>
      <trkpt lat="49.77365" lon="2.18235">
        <ele>84.8</ele>
        <time>2023-08-16T09:37:37Z</time>
      </trkpt>
      <trkpt lat="49.77365" lon="2.18233">
        <ele>84.7</ele>
        <time>2023-08-16T09:37:38Z</time>
      </trkpt>
      <trkpt lat="49.77365" lon="2.18231">
        <ele>84.7</ele>
        <time>2023-08-16T09:37:40Z</time>
      </trkpt>
      <trkpt lat="49.77365" lon="2.18229">
        <ele>84.6</ele>
        <time>2023-08-16T09:37:41Z</time>
      </trkpt>
      <trkpt lat="49.77365" lon="2.18228">
        <ele>84.6</ele>
        <time>2023-08-16T09:37:42Z</time>
      </trkpt>
      <trkpt lat="49.77364" lon="2.18226">
        <ele>84.5</ele>
        <time>2023-08-16T09:37:43Z</time>
      </trkpt>
      <trkpt lat="49.77364" lon="2.18225">
        <ele>84.5</ele>
        <time>2023-08-16T09:37:44Z</time>
      </trkpt>
      <trkpt lat="49.77364" lon="2.18223">
        <ele>84.4</ele>
        <time>2023-08-16T09:37:45Z</time>
      </trkpt>
      <trkpt lat="49.77364" lon="2.1822">
        <ele>84.3</ele>
        <time>2023-08-16T09:37:47Z</time>
      </trkpt>
      <trkpt lat="49.77364" lon="2.18219">
        <ele>84.3</ele>
        <time>2023-08-16T09:37:48Z</time>
      </trkpt>
      <trkpt lat="49.77364" lon="2.18217">
        <ele>84.2</ele>
        <time>2023-08-16T09:37:49Z</time>
      </trkpt>
      <trkpt lat="49.77364" lon="2.18214">
        <ele>84.2</ele>
        <time>2023-08-16T09:37:50Z</time>
      </trkpt>
      <trkpt lat="49.77364" lon="2.18213">
        <ele>84.1</ele>
        <time>2023-08-16T09:37:51Z</time>
      </trkpt>
      <trkpt lat="49.77364" lon="2.18212">
        <ele>84.1</ele>
        <time>2023-08-16T09:37:52Z</time>
      </trkpt>
      <trkpt lat="49.77364" lon="2.1821">
        <ele>84</ele>
        <time>2023-08-16T09:37:53Z</time>
      </trkpt>
      <trkpt lat="49.77365" lon="2.18207">
        <ele>83.9</ele>
        <time>2023-08-16T09:37:55Z</time>
      </trkpt>
      <trkpt lat="49.77364" lon="2.18205">
        <ele>83.9</ele>
        <time>2023-08-16T09:37:56Z</time>
      </trkpt>
      <trkpt lat="49.77364" lon="2.18203">
        <ele>83.8</ele>
        <time>2023-08-16T09:37:58Z</time>
      </trkpt>
      <trkpt lat="49.77364" lon="2.18202">
        <ele>83.8</ele>
        <time>2023-08-16T09:37:59Z</time>
      </trkpt>
      <trkpt lat="49.77364" lon="2.182">
        <ele>83.7</ele>
        <time>2023-08-16T09:38:00Z</time>
      </trkpt>
      <trkpt lat="49.77364" lon="2.18198">
        <ele>83.6</ele>
        <time>2023-08-16T09:38:01Z</time>
      </trkpt>
      <trkpt lat="49.77364" lon="2.18196">
        <ele>83.6</ele>
        <time>2023-08-16T09:38:02Z</time>
      </trkpt>
      <trkpt lat="49.77364" lon="2.18195">
        <ele>83.5</ele>
        <time>2023-08-16T09:38:03Z</time>
      </trkpt>
      <trkpt lat="49.77364" lon="2.18193">
        <ele>83.5</ele>
        <time>2023-08-16T09:38:04Z</time>
      </trkpt>
      <trkpt lat="49.77364" lon="2.18191">
        <ele>83.4</ele>
        <time>2023-08-16T09:38:06Z</time>
      </trkpt>
      <trkpt lat="49.77364" lon="2.18189">
        <ele>83.3</ele>
        <time>2023-08-16T09:38:07Z</time>
      </trkpt>
      <trkpt lat="49.77364" lon="2.18187">
        <ele>83.3</ele>
        <time>2023-08-16T09:38:08Z</time>
      </trkpt>
      <trkpt lat="49.77364" lon="2.18186">
        <ele>83.2</ele>
        <time>2023-08-16T09:38:09Z</time>
      </trkpt>
      <trkpt lat="49.77364" lon="2.18184">
        <ele>83.2</ele>
        <time>2023-08-16T09:38:10Z</time>
      </trkpt>
      <trkpt lat="49.77364" lon="2.18183">
        <ele>83.1</ele>
        <time>2023-08-16T09:38:12Z</time>
      </trkpt>
      <trkpt lat="49.77364" lon="2.18182">
        <ele>83.1</ele>
        <time>2023-08-16T09:38:13Z</time>
      </trkpt>
      <trkpt lat="49.77363" lon="2.1818">
        <ele>83</ele>
        <time>2023-08-16T09:38:14Z</time>
      </trkpt>
      <trkpt lat="49.77363" lon="2.18178">
        <ele>83</ele>
        <time>2023-08-16T09:38:15Z</time>
      </trkpt>
      <trkpt lat="49.77363" lon="2.18177">
        <ele>82.9</ele>
        <time>2023-08-16T09:38:16Z</time>
      </trkpt>
      <trkpt lat="49.77363" lon="2.18175">
        <ele>82.8</ele>
        <time>2023-08-16T09:38:17Z</time>
      </trkpt>
      <trkpt lat="49.77362" lon="2.18174">
        <ele>82.8</ele>
        <time>2023-08-16T09:38:18Z</time>
      </trkpt>
      <trkpt lat="49.77362" lon="2.18172">
        <ele>82.7</ele>
        <time>2023-08-16T09:38:20Z</time>
      </trkpt>
      <trkpt lat="49.77362" lon="2.18171">
        <ele>82.7</ele>
        <time>2023-08-16T09:38:21Z</time>
      </trkpt>
      <trkpt lat="49.7736" lon="2.18169">
        <ele>82.5</ele>
        <time>2023-08-16T09:38:22Z</time>
      </trkpt>
      <trkpt lat="49.7736" lon="2.18167">
        <ele>82.5</ele>
        <time>2023-08-16T09:38:24Z</time>
      </trkpt>
      <trkpt lat="49.77359" lon="2.18166">
        <ele>82.4</ele>
        <time>2023-08-16T09:38:25Z</time>
      </trkpt>
      <trkpt lat="49.77358" lon="2.18164">
        <ele>82.4</ele>
        <time>2023-08-16T09:38:27Z</time>
      </trkpt>
      <trkpt lat="49.77358" lon="2.18163">
        <ele>82.3</ele>
        <time>2023-08-16T09:38:28Z</time>
      </trkpt>
      <trkpt lat="49.77358" lon="2.18163">
        <ele>82.3</ele>
        <time>2023-08-16T09:38:30Z</time>
      </trkpt>
      <trkpt lat="49.77358" lon="2.18163">
        <ele>82.3</ele>
        <time>2023-08-16T09:38:31Z</time>
      </trkpt>
      <trkpt lat="49.77358" lon="2.18164">
        <ele>82.3</ele>
        <time>2023-08-16T09:38:32Z</time>
      </trkpt>
      <trkpt lat="49.77358" lon="2.18164">
        <ele>82.3</ele>
        <time>2023-08-16T09:38:34Z</time>
      </trkpt>
      <trkpt lat="49.77358" lon="2.18164">
        <ele>82.3</ele>
        <time>2023-08-16T09:38:35Z</time>
      </trkpt>
      <trkpt lat="49.77358" lon="2.18164">
        <ele>82.3</ele>
        <time>2023-08-16T09:38:37Z</time>
      </trkpt>
      <trkpt lat="49.77358" lon="2.18164">
        <ele>82.3</ele>
        <time>2023-08-16T09:38:38Z</time>
      </trkpt>
      <trkpt lat="49.77358" lon="2.18164">
        <ele>82.3</ele>
        <time>2023-08-16T09:38:40Z</time>
      </trkpt>
      <trkpt lat="49.77358" lon="2.18164">
        <ele>82.3</ele>
        <time>2023-08-16T09:38:41Z</time>
      </trkpt>
      <trkpt lat="49.77358" lon="2.18164">
        <ele>82.3</ele>
        <time>2023-08-16T09:38:42Z</time>
      </trkpt>
      <trkpt lat="49.77359" lon="2.18165">
        <ele>82.3</ele>
        <time>2023-08-16T09:38:43Z</time>
      </trkpt>
      <trkpt lat="49.77359" lon="2.18168">
        <ele>82.2</ele>
        <time>2023-08-16T09:38:44Z</time>
      </trkpt>
      <trkpt lat="49.7736" lon="2.18169">
        <ele>82.1</ele>
        <time>2023-08-16T09:38:45Z</time>
      </trkpt>
      <trkpt lat="49.7736" lon="2.18169">
        <ele>82.1</ele>
        <time>2023-08-16T09:38:46Z</time>
      </trkpt>
      <trkpt lat="49.7736" lon="2.1817">
        <ele>82.1</ele>
        <time>2023-08-16T09:38:47Z</time>
      </trkpt>
      <trkpt lat="49.7736" lon="2.1817">
        <ele>82.1</ele>
        <time>2023-08-16T09:38:48Z</time>
      </trkpt>
      <trkpt lat="49.7736" lon="2.1817">
        <ele>82.1</ele>
        <time>2023-08-16T09:38:49Z</time>
      </trkpt>
      <trkpt lat="49.7736" lon="2.1817">
        <ele>82.1</ele>
        <time>2023-08-16T09:38:50Z</time>
      </trkpt>
      <trkpt lat="49.7736" lon="2.18171">
        <ele>82.1</ele>
        <time>2023-08-16T09:38:51Z</time>
      </trkpt>
      <trkpt lat="49.7736" lon="2.18171">
        <ele>82.1</ele>
        <time>2023-08-16T09:38:52Z</time>
      </trkpt>
      <trkpt lat="49.7736" lon="2.18171">
        <ele>82.1</ele>
        <time>2023-08-16T09:38:53Z</time>
      </trkpt>
      <trkpt lat="49.7736" lon="2.18171">
        <ele>82.1</ele>
        <time>2023-08-16T09:38:54Z</time>
      </trkpt>
      <trkpt lat="49.7736" lon="2.18171">
        <ele>82.1</ele>
        <time>2023-08-16T09:38:55Z</time>
      </trkpt>
      <trkpt lat="49.7736" lon="2.18171">
        <ele>82.1</ele>
        <time>2023-08-16T09:38:56Z</time>
      </trkpt>
      <trkpt lat="49.7736" lon="2.18171">
        <ele>82.1</ele>
        <time>2023-08-16T09:38:57Z</time>
      </trkpt>
      <trkpt lat="49.7736" lon="2.18171">
        <ele>82.1</ele>
        <time>2023-08-16T09:38:58Z</time>
      </trkpt>
      <trkpt lat="49.7736" lon="2.18171">
        <ele>82.1</ele>
        <time>2023-08-16T09:38:59Z</time>
      </trkpt>
      <trkpt lat="49.7736" lon="2.18171">
        <ele>82.1</ele>
        <time>2023-08-16T09:39:00Z</time>
      </trkpt>
      <trkpt lat="49.7736" lon="2.18171">
        <ele>82.1</ele>
        <time>2023-08-16T09:39:01Z</time>
      </trkpt>
      <trkpt lat="49.7736" lon="2.18171">
        <ele>82.1</ele>
        <time>2023-08-16T09:39:02Z</time>
      </trkpt>
      <trkpt lat="49.7736" lon="2.18171">
        <ele>82.1</ele>
        <time>2023-08-16T09:39:03Z</time>
      </trkpt>
      <trkpt lat="49.7736" lon="2.18171">
        <ele>82.1</ele>
        <time>2023-08-16T09:39:04Z</time>
      </trkpt>
      <trkpt lat="49.7736" lon="2.18171">
        <ele>82.1</ele>
        <time>2023-08-16T09:39:05Z</time>
      </trkpt>
      <trkpt lat="49.7736" lon="2.18171">
        <ele>82.1</ele>
        <time>2023-08-16T09:39:06Z</time>
      </trkpt>
      <trkpt lat="49.7736" lon="2.18171">
        <ele>82.1</ele>
        <time>2023-08-16T09:39:07Z</time>
      </trkpt>
      <trkpt lat="49.7736" lon="2.18171">
        <ele>82.1</ele>
        <time>2023-08-16T09:39:08Z</time>
      </trkpt>
      <trkpt lat="49.7736" lon="2.18171">
        <ele>82.1</ele>
        <time>2023-08-16T09:39:09Z</time>
      </trkpt>
      <trkpt lat="49.7736" lon="2.18171">
        <ele>82.1</ele>
        <time>2023-08-16T09:39:10Z</time>
      </trkpt>
      <trkpt lat="49.7736" lon="2.18171">
        <ele>82.1</ele>
        <time>2023-08-16T09:39:11Z</time>
      </trkpt>
      <trkpt lat="49.7736" lon="2.18171">
        <ele>82.1</ele>
        <time>2023-08-16T09:39:12Z</time>
      </trkpt>
      <trkpt lat="49.7736" lon="2.18171">
        <ele>82.1</ele>
        <time>2023-08-16T09:39:13Z</time>
      </trkpt>
      <trkpt lat="49.7736" lon="2.18171">
        <ele>82.1</ele>
        <time>2023-08-16T09:39:14Z</time>
      </trkpt>
      <trkpt lat="49.7736" lon="2.18171">
        <ele>82.1</ele>
        <time>2023-08-16T09:39:15Z</time>
      </trkpt>
      <trkpt lat="49.7736" lon="2.18171">
        <ele>82.1</ele>
        <time>2023-08-16T09:39:16Z</time>
      </trkpt>
      <trkpt lat="49.7736" lon="2.18171">
        <ele>82.1</ele>
        <time>2023-08-16T09:39:17Z</time>
      </trkpt>
      <trkpt lat="49.7736" lon="2.18171">
        <ele>82.1</ele>
        <time>2023-08-16T09:39:18Z</time>
      </trkpt>
      <trkpt lat="49.7736" lon="2.18171">
        <ele>82.1</ele>
        <time>2023-08-16T09:39:19Z</time>
      </trkpt>
      <trkpt lat="49.7736" lon="2.18171">
        <ele>82.1</ele>
        <time>2023-08-16T09:39:20Z</time>
      </trkpt>
      <trkpt lat="49.7736" lon="2.18171">
        <ele>82.1</ele>
        <time>2023-08-16T09:39:21Z</time>
      </trkpt>
      <trkpt lat="49.7736" lon="2.18171">
        <ele>82.1</ele>
        <time>2023-08-16T09:39:22Z</time>
      </trkpt>
      <trkpt lat="49.7736" lon="2.18171">
        <ele>82.1</ele>
        <time>2023-08-16T09:39:23Z</time>
      </trkpt>
      <trkpt lat="49.7736" lon="2.18171">
        <ele>82.1</ele>
        <time>2023-08-16T09:39:24Z</time>
      </trkpt>
      <trkpt lat="49.7736" lon="2.18171">
        <ele>82.1</ele>
        <time>2023-08-16T09:39:25Z</time>
      </trkpt>
      <trkpt lat="49.7736" lon="2.18171">
        <ele>82.1</ele>
        <time>2023-08-16T09:39:26Z</time>
      </trkpt>
      <trkpt lat="49.7736" lon="2.18171">
        <ele>82.1</ele>
        <time>2023-08-16T09:39:27Z</time>
      </trkpt>
      <trkpt lat="49.7736" lon="2.18171">
        <ele>82.1</ele>
        <time>2023-08-16T09:39:28Z</time>
      </trkpt>
      <trkpt lat="49.7736" lon="2.18171">
        <ele>82.1</ele>
        <time>2023-08-16T09:39:29Z</time>
      </trkpt>
      <trkpt lat="49.7736" lon="2.18171">
        <ele>82.1</ele>
        <time>2023-08-16T09:39:30Z</time>
      </trkpt>
      <trkpt lat="49.7736" lon="2.18171">
        <ele>82.1</ele>
        <time>2023-08-16T09:39:31Z</time>
      </trkpt>
      <trkpt lat="49.7736" lon="2.18171">
        <ele>82.1</ele>
        <time>2023-08-16T09:39:32Z</time>
      </trkpt>
      <trkpt lat="49.7736" lon="2.18171">
        <ele>82.1</ele>
        <time>2023-08-16T09:39:33Z</time>
      </trkpt>
      <trkpt lat="49.7736" lon="2.18171">
        <ele>82.1</ele>
        <time>2023-08-16T09:39:34Z</time>
      </trkpt>
      <trkpt lat="49.7736" lon="2.18171">
        <ele>82.1</ele>
        <time>2023-08-16T09:39:35Z</time>
      </trkpt>
      <trkpt lat="49.7736" lon="2.18171">
        <ele>82.1</ele>
        <time>2023-08-16T09:39:36Z</time>
      </trkpt>
      <trkpt lat="49.7736" lon="2.18171">
        <ele>82.1</ele>
        <time>2023-08-16T09:39:37Z</time>
      </trkpt>
      <trkpt lat="49.7736" lon="2.18171">
        <ele>82.1</ele>
        <time>2023-08-16T09:39:38Z</time>
      </trkpt>
      <trkpt lat="49.7736" lon="2.18171">
        <ele>82.1</ele>
        <time>2023-08-16T09:39:39Z</time>
      </trkpt>
      <trkpt lat="49.7736" lon="2.18171">
        <ele>82.1</ele>
        <time>2023-08-16T09:39:40Z</time>
      </trkpt>
      <trkpt lat="49.7736" lon="2.18171">
        <ele>82.1</ele>
        <time>2023-08-16T09:39:41Z</time>
      </trkpt>
      <trkpt lat="49.7736" lon="2.18171">
        <ele>82.1</ele>
        <time>2023-08-16T09:39:42Z</time>
      </trkpt>
      <trkpt lat="49.7736" lon="2.18171">
        <ele>82.1</ele>
        <time>2023-08-16T09:39:43Z</time>
      </trkpt>
      <trkpt lat="49.7736" lon="2.18171">
        <ele>82.1</ele>
        <time>2023-08-16T09:39:44Z</time>
      </trkpt>
      <trkpt lat="49.7736" lon="2.18171">
        <ele>82.1</ele>
        <time>2023-08-16T09:39:45Z</time>
      </trkpt>
      <trkpt lat="49.7736" lon="2.18171">
        <ele>82.1</ele>
        <time>2023-08-16T09:39:46Z</time>
      </trkpt>
      <trkpt lat="49.7736" lon="2.18171">
        <ele>82.1</ele>
        <time>2023-08-16T09:39:47Z</time>
      </trkpt>
      <trkpt lat="49.7736" lon="2.18171">
        <ele>82.1</ele>
        <time>2023-08-16T09:39:48Z</time>
      </trkpt>
      <trkpt lat="49.7736" lon="2.18171">
        <ele>82.1</ele>
        <time>2023-08-16T09:39:49Z</time>
      </trkpt>
      <trkpt lat="49.7736" lon="2.18171">
        <ele>82.1</ele>
        <time>2023-08-16T09:39:50Z</time>
      </trkpt>
      <trkpt lat="49.7736" lon="2.18171">
        <ele>82.1</ele>
        <time>2023-08-16T09:39:51Z</time>
      </trkpt>
      <trkpt lat="49.7736" lon="2.18171">
        <ele>82.1</ele>
        <time>2023-08-16T09:39:52Z</time>
      </trkpt>
      <trkpt lat="49.7736" lon="2.18171">
        <ele>82.1</ele>
        <time>2023-08-16T09:39:53Z</time>
      </trkpt>
      <trkpt lat="49.7736" lon="2.18171">
        <ele>82.1</ele>
        <time>2023-08-16T09:39:54Z</time>
      </trkpt>
      <trkpt lat="49.7736" lon="2.18171">
        <ele>82.1</ele>
        <time>2023-08-16T09:39:55Z</time>
      </trkpt>
      <trkpt lat="49.7736" lon="2.18171">
        <ele>82.1</ele>
        <time>2023-08-16T09:39:56Z</time>
      </trkpt>
      <trkpt lat="49.7736" lon="2.18171">
        <ele>82.1</ele>
        <time>2023-08-16T09:39:57Z</time>
      </trkpt>
      <trkpt lat="49.7736" lon="2.18171">
        <ele>82.1</ele>
        <time>2023-08-16T09:39:58Z</time>
      </trkpt>
      <trkpt lat="49.7736" lon="2.18171">
        <ele>82.1</ele>
        <time>2023-08-16T09:39:59Z</time>
      </trkpt>
      <trkpt lat="49.7736" lon="2.18171">
        <ele>82.1</ele>
        <time>2023-08-16T09:40:00Z</time>
      </trkpt>
      <trkpt lat="49.7736" lon="2.18171">
        <ele>82.1</ele>
        <time>2023-08-16T09:40:01Z</time>
      </trkpt>
      <trkpt lat="49.7736" lon="2.18171">
        <ele>82.1</ele>
        <time>2023-08-16T09:40:02Z</time>
      </trkpt>
      <trkpt lat="49.7736" lon="2.18171">
        <ele>82.1</ele>
        <time>2023-08-16T09:40:03Z</time>
      </trkpt>
      <trkpt lat="49.7736" lon="2.18171">
        <ele>82.1</ele>
        <time>2023-08-16T09:40:04Z</time>
      </trkpt>
      <trkpt lat="49.7736" lon="2.18171">
        <ele>82.1</ele>
        <time>2023-08-16T09:40:05Z</time>
      </trkpt>
      <trkpt lat="49.7736" lon="2.18171">
        <ele>82.1</ele>
        <time>2023-08-16T09:40:06Z</time>
      </trkpt>
      <trkpt lat="49.7736" lon="2.18171">
        <ele>82.1</ele>
        <time>2023-08-16T09:40:07Z</time>
      </trkpt>
      <trkpt lat="49.7736" lon="2.18171">
        <ele>82.1</ele>
        <time>2023-08-16T09:40:08Z</time>
      </trkpt>
      <trkpt lat="49.7736" lon="2.18171">
        <ele>82.1</ele>
        <time>2023-08-16T09:40:09Z</time>
      </trkpt>
      <trkpt lat="49.77361" lon="2.18173">
        <ele>82</ele>
        <time>2023-08-16T09:40:10Z</time>
      </trkpt>
      <trkpt lat="49.77361" lon="2.18174">
        <ele>82</ele>
        <time>2023-08-16T09:40:11Z</time>
      </trkpt>
      <trkpt lat="49.77361" lon="2.18173">
        <ele>82</ele>
        <time>2023-08-16T09:40:12Z</time>
      </trkpt>
      <trkpt lat="49.77361" lon="2.18173">
        <ele>81.9</ele>
        <time>2023-08-16T09:40:13Z</time>
      </trkpt>
      <trkpt lat="49.7736" lon="2.18172">
        <ele>81.9</ele>
        <time>2023-08-16T09:40:14Z</time>
      </trkpt>
      <trkpt lat="49.7736" lon="2.18172">
        <ele>81.9</ele>
        <time>2023-08-16T09:40:15Z</time>
      </trkpt>
      <trkpt lat="49.77359" lon="2.18171">
        <ele>81.9</ele>
        <time>2023-08-16T09:40:16Z</time>
      </trkpt>
      <trkpt lat="49.77359" lon="2.18171">
        <ele>81.9</ele>
        <time>2023-08-16T09:40:17Z</time>
      </trkpt>
      <trkpt lat="49.77359" lon="2.18171">
        <ele>81.9</ele>
        <time>2023-08-16T09:40:19Z</time>
      </trkpt>
      <trkpt lat="49.77359" lon="2.1817">
        <ele>81.8</ele>
        <time>2023-08-16T09:40:20Z</time>
      </trkpt>
      <trkpt lat="49.77359" lon="2.1817">
        <ele>81.8</ele>
        <time>2023-08-16T09:40:21Z</time>
      </trkpt>
      <trkpt lat="49.77359" lon="2.1817">
        <ele>81.8</ele>
        <time>2023-08-16T09:40:22Z</time>
      </trkpt>
      <trkpt lat="49.77359" lon="2.18169">
        <ele>81.8</ele>
        <time>2023-08-16T09:40:24Z</time>
      </trkpt>
      <trkpt lat="49.77359" lon="2.18169">
        <ele>81.8</ele>
        <time>2023-08-16T09:40:25Z</time>
      </trkpt>
      <trkpt lat="49.77359" lon="2.18169">
        <ele>81.8</ele>
        <time>2023-08-16T09:40:27Z</time>
      </trkpt>
      <trkpt lat="49.77359" lon="2.18169">
        <ele>81.8</ele>
        <time>2023-08-16T09:40:28Z</time>
      </trkpt>
      <trkpt lat="49.77359" lon="2.18169">
        <ele>81.8</ele>
        <time>2023-08-16T09:40:29Z</time>
      </trkpt>
      <trkpt lat="49.77358" lon="2.18169">
        <ele>81.8</ele>
        <time>2023-08-16T09:40:31Z</time>
      </trkpt>
      <trkpt lat="49.77359" lon="2.18168">
        <ele>81.8</ele>
        <time>2023-08-16T09:40:32Z</time>
      </trkpt>
      <trkpt lat="49.77359" lon="2.18168">
        <ele>81.7</ele>
        <time>2023-08-16T09:40:33Z</time>
      </trkpt>
      <trkpt lat="49.77359" lon="2.18167">
        <ele>81.7</ele>
        <time>2023-08-16T09:40:35Z</time>
      </trkpt>
      <trkpt lat="49.7736" lon="2.18165">
        <ele>81.6</ele>
        <time>2023-08-16T09:40:36Z</time>
      </trkpt>
      <trkpt lat="49.77361" lon="2.18162">
        <ele>81.5</ele>
        <time>2023-08-16T09:40:37Z</time>
      </trkpt>
      <trkpt lat="49.77362" lon="2.1816">
        <ele>81.5</ele>
        <time>2023-08-16T09:40:38Z</time>
      </trkpt>
      <trkpt lat="49.77362" lon="2.18157">
        <ele>81.4</ele>
        <time>2023-08-16T09:40:39Z</time>
      </trkpt>
      <trkpt lat="49.77363" lon="2.18155">
        <ele>81.3</ele>
        <time>2023-08-16T09:40:41Z</time>
      </trkpt>
      <trkpt lat="49.77363" lon="2.18155">
        <ele>81.3</ele>
        <time>2023-08-16T09:40:42Z</time>
      </trkpt>
      <trkpt lat="49.77362" lon="2.18153">
        <ele>81.3</ele>
        <time>2023-08-16T09:40:43Z</time>
      </trkpt>
      <trkpt lat="49.77363" lon="2.18151">
        <ele>81.2</ele>
        <time>2023-08-16T09:40:44Z</time>
      </trkpt>
      <trkpt lat="49.77363" lon="2.1815">
        <ele>81.2</ele>
        <time>2023-08-16T09:40:45Z</time>
      </trkpt>
      <trkpt lat="49.77363" lon="2.18148">
        <ele>81.1</ele>
        <time>2023-08-16T09:40:46Z</time>
      </trkpt>
      <trkpt lat="49.77363" lon="2.18147">
        <ele>81.1</ele>
        <time>2023-08-16T09:40:47Z</time>
      </trkpt>
      <trkpt lat="49.77363" lon="2.18144">
        <ele>81</ele>
        <time>2023-08-16T09:40:49Z</time>
      </trkpt>
      <trkpt lat="49.77363" lon="2.18143">
        <ele>81</ele>
        <time>2023-08-16T09:40:50Z</time>
      </trkpt>
      <trkpt lat="49.77364" lon="2.18142">
        <ele>80.9</ele>
        <time>2023-08-16T09:40:52Z</time>
      </trkpt>
      <trkpt lat="49.77364" lon="2.1814">
        <ele>80.9</ele>
        <time>2023-08-16T09:40:53Z</time>
      </trkpt>
      <trkpt lat="49.77364" lon="2.18138">
        <ele>80.8</ele>
        <time>2023-08-16T09:40:54Z</time>
      </trkpt>
      <trkpt lat="49.77365" lon="2.18136">
        <ele>80.8</ele>
        <time>2023-08-16T09:40:55Z</time>
      </trkpt>
      <trkpt lat="49.77365" lon="2.18134">
        <ele>80.7</ele>
        <time>2023-08-16T09:40:57Z</time>
      </trkpt>
      <trkpt lat="49.77365" lon="2.18133">
        <ele>80.7</ele>
        <time>2023-08-16T09:40:58Z</time>
      </trkpt>
      <trkpt lat="49.77366" lon="2.18132">
        <ele>80.6</ele>
        <time>2023-08-16T09:40:59Z</time>
      </trkpt>
      <trkpt lat="49.77366" lon="2.1813">
        <ele>80.6</ele>
        <time>2023-08-16T09:41:00Z</time>
      </trkpt>
      <trkpt lat="49.77367" lon="2.18129">
        <ele>80.5</ele>
        <time>2023-08-16T09:41:01Z</time>
      </trkpt>
      <trkpt lat="49.77367" lon="2.18127">
        <ele>80.5</ele>
        <time>2023-08-16T09:41:03Z</time>
      </trkpt>
      <trkpt lat="49.77367" lon="2.18126">
        <ele>80.4</ele>
        <time>2023-08-16T09:41:04Z</time>
      </trkpt>
      <trkpt lat="49.77368" lon="2.18124">
        <ele>80.4</ele>
        <time>2023-08-16T09:41:05Z</time>
      </trkpt>
      <trkpt lat="49.77368" lon="2.18122">
        <ele>80.3</ele>
        <time>2023-08-16T09:41:06Z</time>
      </trkpt>
      <trkpt lat="49.77369" lon="2.18121">
        <ele>80.3</ele>
        <time>2023-08-16T09:41:07Z</time>
      </trkpt>
      <trkpt lat="49.77369" lon="2.1812">
        <ele>80.2</ele>
        <time>2023-08-16T09:41:08Z</time>
      </trkpt>
      <trkpt lat="49.7737" lon="2.18118">
        <ele>80.1</ele>
        <time>2023-08-16T09:41:10Z</time>
      </trkpt>
      <trkpt lat="49.77371" lon="2.18117">
        <ele>80.1</ele>
        <time>2023-08-16T09:41:11Z</time>
      </trkpt>
      <trkpt lat="49.77371" lon="2.18115">
        <ele>80</ele>
        <time>2023-08-16T09:41:12Z</time>
      </trkpt>
      <trkpt lat="49.77372" lon="2.18114">
        <ele>79.9</ele>
        <time>2023-08-16T09:41:13Z</time>
      </trkpt>
      <trkpt lat="49.77373" lon="2.18112">
        <ele>79.9</ele>
        <time>2023-08-16T09:41:14Z</time>
      </trkpt>
      <trkpt lat="49.77374" lon="2.18111">
        <ele>79.8</ele>
        <time>2023-08-16T09:41:15Z</time>
      </trkpt>
      <trkpt lat="49.77374" lon="2.1811">
        <ele>79.7</ele>
        <time>2023-08-16T09:41:16Z</time>
      </trkpt>
      <trkpt lat="49.77375" lon="2.18108">
        <ele>79.7</ele>
        <time>2023-08-16T09:41:18Z</time>
      </trkpt>
      <trkpt lat="49.77375" lon="2.18106">
        <ele>79.6</ele>
        <time>2023-08-16T09:41:19Z</time>
      </trkpt>
      <trkpt lat="49.77376" lon="2.18105">
        <ele>79.5</ele>
        <time>2023-08-16T09:41:20Z</time>
      </trkpt>
      <trkpt lat="49.77376" lon="2.18104">
        <ele>79.5</ele>
        <time>2023-08-16T09:41:21Z</time>
      </trkpt>
      <trkpt lat="49.77377" lon="2.18102">
        <ele>79.4</ele>
        <time>2023-08-16T09:41:22Z</time>
      </trkpt>
      <trkpt lat="49.77377" lon="2.181">
        <ele>79.3</ele>
        <time>2023-08-16T09:41:23Z</time>
      </trkpt>
      <trkpt lat="49.77377" lon="2.18099">
        <ele>79.3</ele>
        <time>2023-08-16T09:41:24Z</time>
      </trkpt>
      <trkpt lat="49.77378" lon="2.18098">
        <ele>79.2</ele>
        <time>2023-08-16T09:41:25Z</time>
      </trkpt>
      <trkpt lat="49.77378" lon="2.18096">
        <ele>79.2</ele>
        <time>2023-08-16T09:41:27Z</time>
      </trkpt>
      <trkpt lat="49.77378" lon="2.18096">
        <ele>79.1</ele>
        <time>2023-08-16T09:41:28Z</time>
      </trkpt>
      <trkpt lat="49.77378" lon="2.18095">
        <ele>79.1</ele>
        <time>2023-08-16T09:41:29Z</time>
      </trkpt>
      <trkpt lat="49.77379" lon="2.18093">
        <ele>79</ele>
        <time>2023-08-16T09:41:30Z</time>
      </trkpt>
      <trkpt lat="49.77379" lon="2.18092">
        <ele>79</ele>
        <time>2023-08-16T09:41:31Z</time>
      </trkpt>
      <trkpt lat="49.77379" lon="2.18089">
        <ele>78.9</ele>
        <time>2023-08-16T09:41:32Z</time>
      </trkpt>
      <trkpt lat="49.7738" lon="2.18087">
        <ele>78.8</ele>
        <time>2023-08-16T09:41:34Z</time>
      </trkpt>
      <trkpt lat="49.7738" lon="2.18086">
        <ele>78.8</ele>
        <time>2023-08-16T09:41:35Z</time>
      </trkpt>
      <trkpt lat="49.77381" lon="2.18083">
        <ele>78.6</ele>
        <time>2023-08-16T09:41:36Z</time>
      </trkpt>
      <trkpt lat="49.77381" lon="2.18082">
        <ele>78.6</ele>
        <time>2023-08-16T09:41:37Z</time>
      </trkpt>
      <trkpt lat="49.77381" lon="2.18081">
        <ele>78.5</ele>
        <time>2023-08-16T09:41:38Z</time>
      </trkpt>
      <trkpt lat="49.77381" lon="2.18079">
        <ele>78.5</ele>
        <time>2023-08-16T09:41:39Z</time>
      </trkpt>
      <trkpt lat="49.77381" lon="2.18077">
        <ele>78.4</ele>
        <time>2023-08-16T09:41:40Z</time>
      </trkpt>
      <trkpt lat="49.77382" lon="2.18075">
        <ele>78.3</ele>
        <time>2023-08-16T09:41:41Z</time>
      </trkpt>
      <trkpt lat="49.77382" lon="2.18073">
        <ele>78.2</ele>
        <time>2023-08-16T09:41:43Z</time>
      </trkpt>
      <trkpt lat="49.77383" lon="2.18071">
        <ele>78.2</ele>
        <time>2023-08-16T09:41:44Z</time>
      </trkpt>
      <trkpt lat="49.77384" lon="2.18069">
        <ele>78</ele>
        <time>2023-08-16T09:41:45Z</time>
      </trkpt>
      <trkpt lat="49.77384" lon="2.18068">
        <ele>78</ele>
        <time>2023-08-16T09:41:46Z</time>
      </trkpt>
      <trkpt lat="49.77385" lon="2.18066">
        <ele>77.9</ele>
        <time>2023-08-16T09:41:47Z</time>
      </trkpt>
      <trkpt lat="49.77386" lon="2.18063">
        <ele>77.8</ele>
        <time>2023-08-16T09:41:48Z</time>
      </trkpt>
      <trkpt lat="49.77386" lon="2.18062">
        <ele>77.7</ele>
        <time>2023-08-16T09:41:50Z</time>
      </trkpt>
      <trkpt lat="49.77387" lon="2.18061">
        <ele>77.7</ele>
        <time>2023-08-16T09:41:51Z</time>
      </trkpt>
      <trkpt lat="49.77388" lon="2.18058">
        <ele>77.5</ele>
        <time>2023-08-16T09:41:52Z</time>
      </trkpt>
      <trkpt lat="49.77389" lon="2.18057">
        <ele>77.5</ele>
        <time>2023-08-16T09:41:53Z</time>
      </trkpt>
      <trkpt lat="49.77389" lon="2.18056">
        <ele>77.4</ele>
        <time>2023-08-16T09:41:54Z</time>
      </trkpt>
      <trkpt lat="49.7739" lon="2.18055">
        <ele>77.3</ele>
        <time>2023-08-16T09:41:55Z</time>
      </trkpt>
      <trkpt lat="49.77391" lon="2.18054">
        <ele>77.3</ele>
        <time>2023-08-16T09:41:56Z</time>
      </trkpt>
      <trkpt lat="49.77392" lon="2.18053">
        <ele>77.2</ele>
        <time>2023-08-16T09:41:57Z</time>
      </trkpt>
      <trkpt lat="49.77393" lon="2.18051">
        <ele>77.1</ele>
        <time>2023-08-16T09:41:58Z</time>
      </trkpt>
      <trkpt lat="49.77393" lon="2.18049">
        <ele>77</ele>
        <time>2023-08-16T09:42:00Z</time>
      </trkpt>
      <trkpt lat="49.77394" lon="2.18047">
        <ele>76.9</ele>
        <time>2023-08-16T09:42:01Z</time>
      </trkpt>
      <trkpt lat="49.77395" lon="2.18045">
        <ele>76.8</ele>
        <time>2023-08-16T09:42:02Z</time>
      </trkpt>
      <trkpt lat="49.77396" lon="2.18043">
        <ele>76.6</ele>
        <time>2023-08-16T09:42:03Z</time>
      </trkpt>
      <trkpt lat="49.77397" lon="2.18042">
        <ele>76.6</ele>
        <time>2023-08-16T09:42:04Z</time>
      </trkpt>
      <trkpt lat="49.77398" lon="2.18041">
        <ele>76.5</ele>
        <time>2023-08-16T09:42:05Z</time>
      </trkpt>
      <trkpt lat="49.77399" lon="2.18038">
        <ele>76.4</ele>
        <time>2023-08-16T09:42:06Z</time>
      </trkpt>
      <trkpt lat="49.774" lon="2.18037">
        <ele>76.3</ele>
        <time>2023-08-16T09:42:08Z</time>
      </trkpt>
      <trkpt lat="49.774" lon="2.18035">
        <ele>76.2</ele>
        <time>2023-08-16T09:42:09Z</time>
      </trkpt>
      <trkpt lat="49.77401" lon="2.18034">
        <ele>76.2</ele>
        <time>2023-08-16T09:42:10Z</time>
      </trkpt>
      <trkpt lat="49.77402" lon="2.18033">
        <ele>76.1</ele>
        <time>2023-08-16T09:42:12Z</time>
      </trkpt>
      <trkpt lat="49.77402" lon="2.18031">
        <ele>76</ele>
        <time>2023-08-16T09:42:13Z</time>
      </trkpt>
      <trkpt lat="49.77403" lon="2.1803">
        <ele>75.9</ele>
        <time>2023-08-16T09:42:14Z</time>
      </trkpt>
      <trkpt lat="49.77404" lon="2.18028">
        <ele>75.8</ele>
        <time>2023-08-16T09:42:15Z</time>
      </trkpt>
      <trkpt lat="49.77404" lon="2.18027">
        <ele>75.8</ele>
        <time>2023-08-16T09:42:16Z</time>
      </trkpt>
      <trkpt lat="49.77405" lon="2.18025">
        <ele>75.7</ele>
        <time>2023-08-16T09:42:17Z</time>
      </trkpt>
      <trkpt lat="49.77405" lon="2.18024">
        <ele>75.6</ele>
        <time>2023-08-16T09:42:18Z</time>
      </trkpt>
      <trkpt lat="49.77406" lon="2.18022">
        <ele>75.6</ele>
        <time>2023-08-16T09:42:19Z</time>
      </trkpt>
      <trkpt lat="49.77407" lon="2.1802">
        <ele>75.5</ele>
        <time>2023-08-16T09:42:21Z</time>
      </trkpt>
      <trkpt lat="49.77407" lon="2.18018">
        <ele>75.4</ele>
        <time>2023-08-16T09:42:22Z</time>
      </trkpt>
      <trkpt lat="49.77408" lon="2.18015">
        <ele>75.3</ele>
        <time>2023-08-16T09:42:23Z</time>
      </trkpt>
      <trkpt lat="49.77408" lon="2.18014">
        <ele>75.2</ele>
        <time>2023-08-16T09:42:24Z</time>
      </trkpt>
      <trkpt lat="49.77409" lon="2.18013">
        <ele>75.2</ele>
        <time>2023-08-16T09:42:25Z</time>
      </trkpt>
      <trkpt lat="49.77409" lon="2.18011">
        <ele>75.1</ele>
        <time>2023-08-16T09:42:27Z</time>
      </trkpt>
      <trkpt lat="49.7741" lon="2.18009">
        <ele>75</ele>
        <time>2023-08-16T09:42:28Z</time>
      </trkpt>
      <trkpt lat="49.7741" lon="2.18007">
        <ele>74.9</ele>
        <time>2023-08-16T09:42:29Z</time>
      </trkpt>
      <trkpt lat="49.77411" lon="2.18005">
        <ele>74.8</ele>
        <time>2023-08-16T09:42:30Z</time>
      </trkpt>
      <trkpt lat="49.77412" lon="2.18002">
        <ele>74.7</ele>
        <time>2023-08-16T09:42:31Z</time>
      </trkpt>
      <trkpt lat="49.77412" lon="2.18001">
        <ele>74.6</ele>
        <time>2023-08-16T09:42:32Z</time>
      </trkpt>
      <trkpt lat="49.77413" lon="2.18">
        <ele>74.6</ele>
        <time>2023-08-16T09:42:33Z</time>
      </trkpt>
      <trkpt lat="49.77414" lon="2.17997">
        <ele>74.5</ele>
        <time>2023-08-16T09:42:35Z</time>
      </trkpt>
      <trkpt lat="49.77414" lon="2.17995">
        <ele>74.4</ele>
        <time>2023-08-16T09:42:36Z</time>
      </trkpt>
      <trkpt lat="49.77415" lon="2.17994">
        <ele>74.3</ele>
        <time>2023-08-16T09:42:37Z</time>
      </trkpt>
      <trkpt lat="49.77416" lon="2.17992">
        <ele>74.2</ele>
        <time>2023-08-16T09:42:38Z</time>
      </trkpt>
      <trkpt lat="49.77416" lon="2.1799">
        <ele>74.2</ele>
        <time>2023-08-16T09:42:40Z</time>
      </trkpt>
      <trkpt lat="49.77417" lon="2.17987">
        <ele>74</ele>
        <time>2023-08-16T09:42:41Z</time>
      </trkpt>
      <trkpt lat="49.77418" lon="2.17986">
        <ele>74</ele>
        <time>2023-08-16T09:42:42Z</time>
      </trkpt>
      <trkpt lat="49.77418" lon="2.17985">
        <ele>73.9</ele>
        <time>2023-08-16T09:42:43Z</time>
      </trkpt>
      <trkpt lat="49.77419" lon="2.17983">
        <ele>73.7</ele>
        <time>2023-08-16T09:42:44Z</time>
      </trkpt>
      <trkpt lat="49.7742" lon="2.17982">
        <ele>73.6</ele>
        <time>2023-08-16T09:42:46Z</time>
      </trkpt>
      <trkpt lat="49.77421" lon="2.17981">
        <ele>73.5</ele>
        <time>2023-08-16T09:42:47Z</time>
      </trkpt>
      <trkpt lat="49.77422" lon="2.17978">
        <ele>73.3</ele>
        <time>2023-08-16T09:42:48Z</time>
      </trkpt>
      <trkpt lat="49.77423" lon="2.17977">
        <ele>73.2</ele>
        <time>2023-08-16T09:42:49Z</time>
      </trkpt>
      <trkpt lat="49.77423" lon="2.17976">
        <ele>73.2</ele>
        <time>2023-08-16T09:42:50Z</time>
      </trkpt>
      <trkpt lat="49.77424" lon="2.17975">
        <ele>73</ele>
        <time>2023-08-16T09:42:51Z</time>
      </trkpt>
      <trkpt lat="49.77425" lon="2.17973">
        <ele>72.9</ele>
        <time>2023-08-16T09:42:52Z</time>
      </trkpt>
      <trkpt lat="49.77425" lon="2.17972">
        <ele>72.8</ele>
        <time>2023-08-16T09:42:53Z</time>
      </trkpt>
      <trkpt lat="49.77426" lon="2.17969">
        <ele>72.6</ele>
        <time>2023-08-16T09:42:55Z</time>
      </trkpt>
      <trkpt lat="49.77427" lon="2.17968">
        <ele>72.5</ele>
        <time>2023-08-16T09:42:56Z</time>
      </trkpt>
      <trkpt lat="49.77427" lon="2.17966">
        <ele>72.4</ele>
        <time>2023-08-16T09:42:57Z</time>
      </trkpt>
      <trkpt lat="49.77428" lon="2.17964">
        <ele>72.2</ele>
        <time>2023-08-16T09:42:58Z</time>
      </trkpt>
      <trkpt lat="49.77429" lon="2.17963">
        <ele>72.1</ele>
        <time>2023-08-16T09:42:59Z</time>
      </trkpt>
      <trkpt lat="49.77429" lon="2.17961">
        <ele>72.1</ele>
        <time>2023-08-16T09:43:00Z</time>
      </trkpt>
      <trkpt lat="49.7743" lon="2.1796">
        <ele>71.9</ele>
        <time>2023-08-16T09:43:01Z</time>
      </trkpt>
      <trkpt lat="49.7743" lon="2.17959">
        <ele>71.8</ele>
        <time>2023-08-16T09:43:03Z</time>
      </trkpt>
      <trkpt lat="49.77431" lon="2.17958">
        <ele>71.8</ele>
        <time>2023-08-16T09:43:04Z</time>
      </trkpt>
      <trkpt lat="49.77431" lon="2.17956">
        <ele>71.6</ele>
        <time>2023-08-16T09:43:05Z</time>
      </trkpt>
      <trkpt lat="49.77432" lon="2.17955">
        <ele>71.6</ele>
        <time>2023-08-16T09:43:06Z</time>
      </trkpt>
      <trkpt lat="49.77432" lon="2.17953">
        <ele>71.5</ele>
        <time>2023-08-16T09:43:07Z</time>
      </trkpt>
      <trkpt lat="49.77432" lon="2.17952">
        <ele>71.4</ele>
        <time>2023-08-16T09:43:08Z</time>
      </trkpt>
      <trkpt lat="49.77433" lon="2.17951">
        <ele>71.3</ele>
        <time>2023-08-16T09:43:09Z</time>
      </trkpt>
      <trkpt lat="49.77433" lon="2.17949">
        <ele>71.2</ele>
        <time>2023-08-16T09:43:10Z</time>
      </trkpt>
      <trkpt lat="49.77434" lon="2.17948">
        <ele>71.1</ele>
        <time>2023-08-16T09:43:12Z</time>
      </trkpt>
      <trkpt lat="49.77434" lon="2.17946">
        <ele>71</ele>
        <time>2023-08-16T09:43:13Z</time>
      </trkpt>
      <trkpt lat="49.77435" lon="2.17945">
        <ele>70.9</ele>
        <time>2023-08-16T09:43:14Z</time>
      </trkpt>
      <trkpt lat="49.77435" lon="2.17944">
        <ele>70.8</ele>
        <time>2023-08-16T09:43:15Z</time>
      </trkpt>
      <trkpt lat="49.77436" lon="2.17942">
        <ele>70.7</ele>
        <time>2023-08-16T09:43:16Z</time>
      </trkpt>
      <trkpt lat="49.77436" lon="2.17941">
        <ele>70.6</ele>
        <time>2023-08-16T09:43:17Z</time>
      </trkpt>
      <trkpt lat="49.77437" lon="2.1794">
        <ele>70.5</ele>
        <time>2023-08-16T09:43:18Z</time>
      </trkpt>
      <trkpt lat="49.77437" lon="2.17939">
        <ele>70.4</ele>
        <time>2023-08-16T09:43:19Z</time>
      </trkpt>
      <trkpt lat="49.77438" lon="2.17938">
        <ele>70.3</ele>
        <time>2023-08-16T09:43:21Z</time>
      </trkpt>
      <trkpt lat="49.77439" lon="2.17937">
        <ele>70.2</ele>
        <time>2023-08-16T09:43:22Z</time>
      </trkpt>
      <trkpt lat="49.7744" lon="2.17936">
        <ele>70.1</ele>
        <time>2023-08-16T09:43:23Z</time>
      </trkpt>
      <trkpt lat="49.77441" lon="2.17935">
        <ele>70</ele>
        <time>2023-08-16T09:43:25Z</time>
      </trkpt>
      <trkpt lat="49.77442" lon="2.17933">
        <ele>69.8</ele>
        <time>2023-08-16T09:43:26Z</time>
      </trkpt>
      <trkpt lat="49.77442" lon="2.17931">
        <ele>69.7</ele>
        <time>2023-08-16T09:43:27Z</time>
      </trkpt>
      <trkpt lat="49.77443" lon="2.1793">
        <ele>69.6</ele>
        <time>2023-08-16T09:43:28Z</time>
      </trkpt>
      <trkpt lat="49.77443" lon="2.17929">
        <ele>69.6</ele>
        <time>2023-08-16T09:43:29Z</time>
      </trkpt>
      <trkpt lat="49.77443" lon="2.17928">
        <ele>69.5</ele>
        <time>2023-08-16T09:43:30Z</time>
      </trkpt>
      <trkpt lat="49.77443" lon="2.17927">
        <ele>69.4</ele>
        <time>2023-08-16T09:43:32Z</time>
      </trkpt>
      <trkpt lat="49.77444" lon="2.17926">
        <ele>69.3</ele>
        <time>2023-08-16T09:43:33Z</time>
      </trkpt>
      <trkpt lat="49.77444" lon="2.17925">
        <ele>69.2</ele>
        <time>2023-08-16T09:43:34Z</time>
      </trkpt>
      <trkpt lat="49.77445" lon="2.17923">
        <ele>69.1</ele>
        <time>2023-08-16T09:43:35Z</time>
      </trkpt>
      <trkpt lat="49.77445" lon="2.17922">
        <ele>69</ele>
        <time>2023-08-16T09:43:36Z</time>
      </trkpt>
      <trkpt lat="49.77446" lon="2.17921">
        <ele>68.9</ele>
        <time>2023-08-16T09:43:37Z</time>
      </trkpt>
      <trkpt lat="49.77446" lon="2.1792">
        <ele>68.9</ele>
        <time>2023-08-16T09:43:38Z</time>
      </trkpt>
      <trkpt lat="49.77447" lon="2.17918">
        <ele>68.7</ele>
        <time>2023-08-16T09:43:39Z</time>
      </trkpt>
      <trkpt lat="49.77447" lon="2.17916">
        <ele>68.6</ele>
        <time>2023-08-16T09:43:41Z</time>
      </trkpt>
      <trkpt lat="49.77448" lon="2.17915">
        <ele>68.5</ele>
        <time>2023-08-16T09:43:42Z</time>
      </trkpt>
      <trkpt lat="49.77448" lon="2.17913">
        <ele>68.4</ele>
        <time>2023-08-16T09:43:43Z</time>
      </trkpt>
      <trkpt lat="49.77449" lon="2.17912">
        <ele>68.3</ele>
        <time>2023-08-16T09:43:44Z</time>
      </trkpt>
      <trkpt lat="49.77449" lon="2.1791">
        <ele>68.2</ele>
        <time>2023-08-16T09:43:45Z</time>
      </trkpt>
      <trkpt lat="49.7745" lon="2.17908">
        <ele>68</ele>
        <time>2023-08-16T09:43:46Z</time>
      </trkpt>
      <trkpt lat="49.7745" lon="2.17907">
        <ele>67.9</ele>
        <time>2023-08-16T09:43:47Z</time>
      </trkpt>
      <trkpt lat="49.77451" lon="2.17906">
        <ele>67.8</ele>
        <time>2023-08-16T09:43:48Z</time>
      </trkpt>
      <trkpt lat="49.77452" lon="2.17903">
        <ele>67.6</ele>
        <time>2023-08-16T09:43:50Z</time>
      </trkpt>
      <trkpt lat="49.77453" lon="2.17902">
        <ele>67.5</ele>
        <time>2023-08-16T09:43:51Z</time>
      </trkpt>
      <trkpt lat="49.77454" lon="2.17901">
        <ele>67.4</ele>
        <time>2023-08-16T09:43:52Z</time>
      </trkpt>
      <trkpt lat="49.77455" lon="2.17899">
        <ele>67.2</ele>
        <time>2023-08-16T09:43:53Z</time>
      </trkpt>
      <trkpt lat="49.77455" lon="2.17898">
        <ele>67.1</ele>
        <time>2023-08-16T09:43:55Z</time>
      </trkpt>
      <trkpt lat="49.77457" lon="2.17895">
        <ele>66.9</ele>
        <time>2023-08-16T09:43:56Z</time>
      </trkpt>
      <trkpt lat="49.77457" lon="2.17894">
        <ele>66.8</ele>
        <time>2023-08-16T09:43:57Z</time>
      </trkpt>
      <trkpt lat="49.77458" lon="2.17893">
        <ele>66.7</ele>
        <time>2023-08-16T09:43:58Z</time>
      </trkpt>
      <trkpt lat="49.77458" lon="2.17892">
        <ele>66.6</ele>
        <time>2023-08-16T09:43:59Z</time>
      </trkpt>
      <trkpt lat="49.77459" lon="2.17891">
        <ele>66.5</ele>
        <time>2023-08-16T09:44:00Z</time>
      </trkpt>
      <trkpt lat="49.7746" lon="2.17889">
        <ele>66.4</ele>
        <time>2023-08-16T09:44:01Z</time>
      </trkpt>
      <trkpt lat="49.77461" lon="2.17887">
        <ele>66.2</ele>
        <time>2023-08-16T09:44:03Z</time>
      </trkpt>
      <trkpt lat="49.77462" lon="2.17886">
        <ele>66.1</ele>
        <time>2023-08-16T09:44:04Z</time>
      </trkpt>
      <trkpt lat="49.77462" lon="2.17885">
        <ele>66</ele>
        <time>2023-08-16T09:44:05Z</time>
      </trkpt>
      <trkpt lat="49.77463" lon="2.17884">
        <ele>65.9</ele>
        <time>2023-08-16T09:44:06Z</time>
      </trkpt>
      <trkpt lat="49.77464" lon="2.17882">
        <ele>65.8</ele>
        <time>2023-08-16T09:44:07Z</time>
      </trkpt>
      <trkpt lat="49.77465" lon="2.17881">
        <ele>65.6</ele>
        <time>2023-08-16T09:44:09Z</time>
      </trkpt>
      <trkpt lat="49.77466" lon="2.17879">
        <ele>65.5</ele>
        <time>2023-08-16T09:44:10Z</time>
      </trkpt>
      <trkpt lat="49.77467" lon="2.17877">
        <ele>65.3</ele>
        <time>2023-08-16T09:44:11Z</time>
      </trkpt>
      <trkpt lat="49.77468" lon="2.17876">
        <ele>65.2</ele>
        <time>2023-08-16T09:44:12Z</time>
      </trkpt>
      <trkpt lat="49.77468" lon="2.17875">
        <ele>65.1</ele>
        <time>2023-08-16T09:44:13Z</time>
      </trkpt>
      <trkpt lat="49.77469" lon="2.17873">
        <ele>65</ele>
        <time>2023-08-16T09:44:14Z</time>
      </trkpt>
      <trkpt lat="49.7747" lon="2.17873">
        <ele>64.9</ele>
        <time>2023-08-16T09:44:15Z</time>
      </trkpt>
      <trkpt lat="49.77471" lon="2.17871">
        <ele>64.8</ele>
        <time>2023-08-16T09:44:17Z</time>
      </trkpt>
      <trkpt lat="49.77471" lon="2.1787">
        <ele>64.7</ele>
        <time>2023-08-16T09:44:18Z</time>
      </trkpt>
      <trkpt lat="49.77472" lon="2.17868">
        <ele>64.6</ele>
        <time>2023-08-16T09:44:19Z</time>
      </trkpt>
      <trkpt lat="49.77472" lon="2.17867">
        <ele>64.6</ele>
        <time>2023-08-16T09:44:20Z</time>
      </trkpt>
      <trkpt lat="49.77471" lon="2.17865">
        <ele>64.4</ele>
        <time>2023-08-16T09:44:21Z</time>
      </trkpt>
      <trkpt lat="49.7747" lon="2.17864">
        <ele>64.3</ele>
        <time>2023-08-16T09:44:22Z</time>
      </trkpt>
      <trkpt lat="49.77469" lon="2.17863">
        <ele>64.2</ele>
        <time>2023-08-16T09:44:24Z</time>
      </trkpt>
      <trkpt lat="49.77468" lon="2.17862">
        <ele>64.1</ele>
        <time>2023-08-16T09:44:25Z</time>
      </trkpt>
      <trkpt lat="49.77467" lon="2.17861">
        <ele>64</ele>
        <time>2023-08-16T09:44:26Z</time>
      </trkpt>
      <trkpt lat="49.77466" lon="2.1786">
        <ele>63.9</ele>
        <time>2023-08-16T09:44:27Z</time>
      </trkpt>
      <trkpt lat="49.77466" lon="2.1786">
        <ele>61</ele>
        <time>2023-08-16T09:44:28Z</time>
      </trkpt>
      <trkpt lat="49.77465" lon="2.17859">
        <ele>61.1</ele>
        <time>2023-08-16T09:44:29Z</time>
      </trkpt>
      <trkpt lat="49.77464" lon="2.17857">
        <ele>61.1</ele>
        <time>2023-08-16T09:44:30Z</time>
      </trkpt>
      <trkpt lat="49.77462" lon="2.17855">
        <ele>61.1</ele>
        <time>2023-08-16T09:44:32Z</time>
      </trkpt>
      <trkpt lat="49.77462" lon="2.17854">
        <ele>61.1</ele>
        <time>2023-08-16T09:44:33Z</time>
      </trkpt>
      <trkpt lat="49.77461" lon="2.17853">
        <ele>61.1</ele>
        <time>2023-08-16T09:44:34Z</time>
      </trkpt>
      <trkpt lat="49.7746" lon="2.17852">
        <ele>61.1</ele>
        <time>2023-08-16T09:44:35Z</time>
      </trkpt>
      <trkpt lat="49.7746" lon="2.1785">
        <ele>61.1</ele>
        <time>2023-08-16T09:44:36Z</time>
      </trkpt>
      <trkpt lat="49.77459" lon="2.17849">
        <ele>61.1</ele>
        <time>2023-08-16T09:44:37Z</time>
      </trkpt>
      <trkpt lat="49.77459" lon="2.17847">
        <ele>61.2</ele>
        <time>2023-08-16T09:44:39Z</time>
      </trkpt>
      <trkpt lat="49.77459" lon="2.17846">
        <ele>61.2</ele>
        <time>2023-08-16T09:44:40Z</time>
      </trkpt>
      <trkpt lat="49.77458" lon="2.17844">
        <ele>61.2</ele>
        <time>2023-08-16T09:44:41Z</time>
      </trkpt>
      <trkpt lat="49.77458" lon="2.17843">
        <ele>61.2</ele>
        <time>2023-08-16T09:44:42Z</time>
      </trkpt>
      <trkpt lat="49.77458" lon="2.17841">
        <ele>61.2</ele>
        <time>2023-08-16T09:44:43Z</time>
      </trkpt>
      <trkpt lat="49.77457" lon="2.1784">
        <ele>61.2</ele>
        <time>2023-08-16T09:44:45Z</time>
      </trkpt>
      <trkpt lat="49.77457" lon="2.17839">
        <ele>61.2</ele>
        <time>2023-08-16T09:44:46Z</time>
      </trkpt>
      <trkpt lat="49.77457" lon="2.17837">
        <ele>61.2</ele>
        <time>2023-08-16T09:44:47Z</time>
      </trkpt>
      <trkpt lat="49.77456" lon="2.17836">
        <ele>61.2</ele>
        <time>2023-08-16T09:44:48Z</time>
      </trkpt>
      <trkpt lat="49.77456" lon="2.17835">
        <ele>61.2</ele>
        <time>2023-08-16T09:44:50Z</time>
      </trkpt>
      <trkpt lat="49.77456" lon="2.17834">
        <ele>61.3</ele>
        <time>2023-08-16T09:44:51Z</time>
      </trkpt>
      <trkpt lat="49.77456" lon="2.17833">
        <ele>61.3</ele>
        <time>2023-08-16T09:44:52Z</time>
      </trkpt>
      <trkpt lat="49.77455" lon="2.17832">
        <ele>61.3</ele>
        <time>2023-08-16T09:44:53Z</time>
      </trkpt>
      <trkpt lat="49.77455" lon="2.17831">
        <ele>61.3</ele>
        <time>2023-08-16T09:44:54Z</time>
      </trkpt>
      <trkpt lat="49.77455" lon="2.17829">
        <ele>61.3</ele>
        <time>2023-08-16T09:44:56Z</time>
      </trkpt>
      <trkpt lat="49.77455" lon="2.17828">
        <ele>61.3</ele>
        <time>2023-08-16T09:44:57Z</time>
      </trkpt>
      <trkpt lat="49.77455" lon="2.17827">
        <ele>61.3</ele>
        <time>2023-08-16T09:44:58Z</time>
      </trkpt>
      <trkpt lat="49.77454" lon="2.17826">
        <ele>61.3</ele>
        <time>2023-08-16T09:44:59Z</time>
      </trkpt>
      <trkpt lat="49.77454" lon="2.17824">
        <ele>61.3</ele>
        <time>2023-08-16T09:45:00Z</time>
      </trkpt>
      <trkpt lat="49.77454" lon="2.17823">
        <ele>61.3</ele>
        <time>2023-08-16T09:45:02Z</time>
      </trkpt>
      <trkpt lat="49.77453" lon="2.17821">
        <ele>61.4</ele>
        <time>2023-08-16T09:45:03Z</time>
      </trkpt>
      <trkpt lat="49.77452" lon="2.1782">
        <ele>61.4</ele>
        <time>2023-08-16T09:45:04Z</time>
      </trkpt>
      <trkpt lat="49.77452" lon="2.17818">
        <ele>61.4</ele>
        <time>2023-08-16T09:45:05Z</time>
      </trkpt>
      <trkpt lat="49.77451" lon="2.17817">
        <ele>61.4</ele>
        <time>2023-08-16T09:45:06Z</time>
      </trkpt>
      <trkpt lat="49.7745" lon="2.17814">
        <ele>61.4</ele>
        <time>2023-08-16T09:45:08Z</time>
      </trkpt>
      <trkpt lat="49.7745" lon="2.17812">
        <ele>61.4</ele>
        <time>2023-08-16T09:45:09Z</time>
      </trkpt>
      <trkpt lat="49.7745" lon="2.17811">
        <ele>61.4</ele>
        <time>2023-08-16T09:45:10Z</time>
      </trkpt>
      <trkpt lat="49.77451" lon="2.1781">
        <ele>61.4</ele>
        <time>2023-08-16T09:45:11Z</time>
      </trkpt>
      <trkpt lat="49.77453" lon="2.1781">
        <ele>61.4</ele>
        <time>2023-08-16T09:45:12Z</time>
      </trkpt>
      <trkpt lat="49.77454" lon="2.17809">
        <ele>61.4</ele>
        <time>2023-08-16T09:45:14Z</time>
      </trkpt>
      <trkpt lat="49.77456" lon="2.17808">
        <ele>61.4</ele>
        <time>2023-08-16T09:45:15Z</time>
      </trkpt>
      <trkpt lat="49.77457" lon="2.17808">
        <ele>61.4</ele>
        <time>2023-08-16T09:45:16Z</time>
      </trkpt>
      <trkpt lat="49.77459" lon="2.17807">
        <ele>61.4</ele>
        <time>2023-08-16T09:45:18Z</time>
      </trkpt>
      <trkpt lat="49.77459" lon="2.17807">
        <ele>61.4</ele>
        <time>2023-08-16T09:45:19Z</time>
      </trkpt>
      <trkpt lat="49.7746" lon="2.17807">
        <ele>61.4</ele>
        <time>2023-08-16T09:45:21Z</time>
      </trkpt>
      <trkpt lat="49.7746" lon="2.17807">
        <ele>61.4</ele>
        <time>2023-08-16T09:45:22Z</time>
      </trkpt>
      <trkpt lat="49.77461" lon="2.17806">
        <ele>61.4</ele>
        <time>2023-08-16T09:45:23Z</time>
      </trkpt>
      <trkpt lat="49.77461" lon="2.17806">
        <ele>61.4</ele>
        <time>2023-08-16T09:45:25Z</time>
      </trkpt>
      <trkpt lat="49.77461" lon="2.17806">
        <ele>61.4</ele>
        <time>2023-08-16T09:45:26Z</time>
      </trkpt>
      <trkpt lat="49.77461" lon="2.17805">
        <ele>61.4</ele>
        <time>2023-08-16T09:45:28Z</time>
      </trkpt>
      <trkpt lat="49.77462" lon="2.17804">
        <ele>61.4</ele>
        <time>2023-08-16T09:45:29Z</time>
      </trkpt>
      <trkpt lat="49.77462" lon="2.17803">
        <ele>61.4</ele>
        <time>2023-08-16T09:45:30Z</time>
      </trkpt>
      <trkpt lat="49.77462" lon="2.17801">
        <ele>61.4</ele>
        <time>2023-08-16T09:45:31Z</time>
      </trkpt>
      <trkpt lat="49.77461" lon="2.178">
        <ele>61.4</ele>
        <time>2023-08-16T09:45:32Z</time>
      </trkpt>
      <trkpt lat="49.77461" lon="2.17799">
        <ele>61.4</ele>
        <time>2023-08-16T09:45:33Z</time>
      </trkpt>
      <trkpt lat="49.77461" lon="2.17798">
        <ele>61.4</ele>
        <time>2023-08-16T09:45:35Z</time>
      </trkpt>
      <trkpt lat="49.7746" lon="2.17797">
        <ele>61.4</ele>
        <time>2023-08-16T09:45:36Z</time>
      </trkpt>
      <trkpt lat="49.7746" lon="2.17796">
        <ele>61.4</ele>
        <time>2023-08-16T09:45:37Z</time>
      </trkpt>
      <trkpt lat="49.7746" lon="2.17795">
        <ele>61.4</ele>
        <time>2023-08-16T09:45:38Z</time>
      </trkpt>
      <trkpt lat="49.77459" lon="2.17794">
        <ele>61.4</ele>
        <time>2023-08-16T09:45:39Z</time>
      </trkpt>
      <trkpt lat="49.77459" lon="2.17793">
        <ele>61.4</ele>
        <time>2023-08-16T09:45:40Z</time>
      </trkpt>
      <trkpt lat="49.77458" lon="2.17791">
        <ele>61.4</ele>
        <time>2023-08-16T09:45:42Z</time>
      </trkpt>
      <trkpt lat="49.77458" lon="2.1779">
        <ele>61.4</ele>
        <time>2023-08-16T09:45:43Z</time>
      </trkpt>
      <trkpt lat="49.77457" lon="2.17789">
        <ele>61.4</ele>
        <time>2023-08-16T09:45:44Z</time>
      </trkpt>
      <trkpt lat="49.77456" lon="2.17789">
        <ele>61.4</ele>
        <time>2023-08-16T09:45:45Z</time>
      </trkpt>
      <trkpt lat="49.77456" lon="2.17788">
        <ele>61.4</ele>
        <time>2023-08-16T09:45:46Z</time>
      </trkpt>
      <trkpt lat="49.77455" lon="2.17788">
        <ele>61.4</ele>
        <time>2023-08-16T09:45:47Z</time>
      </trkpt>
      <trkpt lat="49.77454" lon="2.17787">
        <ele>61.4</ele>
        <time>2023-08-16T09:45:49Z</time>
      </trkpt>
      <trkpt lat="49.77453" lon="2.17786">
        <ele>61.4</ele>
        <time>2023-08-16T09:45:50Z</time>
      </trkpt>
      <trkpt lat="49.77453" lon="2.17785">
        <ele>61.4</ele>
        <time>2023-08-16T09:45:51Z</time>
      </trkpt>
      <trkpt lat="49.77452" lon="2.17784">
        <ele>61.4</ele>
        <time>2023-08-16T09:45:53Z</time>
      </trkpt>
      <trkpt lat="49.77451" lon="2.17784">
        <ele>61.4</ele>
        <time>2023-08-16T09:45:54Z</time>
      </trkpt>
      <trkpt lat="49.7745" lon="2.17783">
        <ele>61.4</ele>
        <time>2023-08-16T09:45:55Z</time>
      </trkpt>
      <trkpt lat="49.77449" lon="2.17783">
        <ele>61.4</ele>
        <time>2023-08-16T09:45:56Z</time>
      </trkpt>
      <trkpt lat="49.77448" lon="2.17783">
        <ele>61.4</ele>
        <time>2023-08-16T09:45:57Z</time>
      </trkpt>
      <trkpt lat="49.77448" lon="2.17782">
        <ele>61.4</ele>
        <time>2023-08-16T09:45:58Z</time>
      </trkpt>
      <trkpt lat="49.77447" lon="2.17781">
        <ele>61.4</ele>
        <time>2023-08-16T09:45:59Z</time>
      </trkpt>
      <trkpt lat="49.77447" lon="2.1778">
        <ele>61.4</ele>
        <time>2023-08-16T09:46:00Z</time>
      </trkpt>
      <trkpt lat="49.77446" lon="2.17779">
        <ele>61.4</ele>
        <time>2023-08-16T09:46:02Z</time>
      </trkpt>
      <trkpt lat="49.77445" lon="2.17777">
        <ele>61.4</ele>
        <time>2023-08-16T09:46:03Z</time>
      </trkpt>
      <trkpt lat="49.77445" lon="2.17777">
        <ele>61.4</ele>
        <time>2023-08-16T09:46:04Z</time>
      </trkpt>
      <trkpt lat="49.77445" lon="2.17776">
        <ele>61.4</ele>
        <time>2023-08-16T09:46:05Z</time>
      </trkpt>
      <trkpt lat="49.77444" lon="2.17776">
        <ele>61.4</ele>
        <time>2023-08-16T09:46:06Z</time>
      </trkpt>
      <trkpt lat="49.77444" lon="2.17775">
        <ele>61.4</ele>
        <time>2023-08-16T09:46:07Z</time>
      </trkpt>
      <trkpt lat="49.77444" lon="2.17775">
        <ele>61.4</ele>
        <time>2023-08-16T09:46:09Z</time>
      </trkpt>
      <trkpt lat="49.77444" lon="2.17776">
        <ele>61.4</ele>
        <time>2023-08-16T09:46:10Z</time>
      </trkpt>
      <trkpt lat="49.77444" lon="2.17776">
        <ele>61.4</ele>
        <time>2023-08-16T09:46:12Z</time>
      </trkpt>
      <trkpt lat="49.77444" lon="2.17777">
        <ele>61.4</ele>
        <time>2023-08-16T09:46:13Z</time>
      </trkpt>
      <trkpt lat="49.77444" lon="2.17777">
        <ele>61.4</ele>
        <time>2023-08-16T09:46:14Z</time>
      </trkpt>
      <trkpt lat="49.77445" lon="2.17779">
        <ele>61.4</ele>
        <time>2023-08-16T09:46:16Z</time>
      </trkpt>
      <trkpt lat="49.77445" lon="2.17779">
        <ele>61.4</ele>
        <time>2023-08-16T09:46:17Z</time>
      </trkpt>
      <trkpt lat="49.77445" lon="2.1778">
        <ele>61.4</ele>
        <time>2023-08-16T09:46:18Z</time>
      </trkpt>
      <trkpt lat="49.77446" lon="2.17781">
        <ele>61.4</ele>
        <time>2023-08-16T09:46:20Z</time>
      </trkpt>
      <trkpt lat="49.77446" lon="2.17781">
        <ele>61.4</ele>
        <time>2023-08-16T09:46:21Z</time>
      </trkpt>
      <trkpt lat="49.77446" lon="2.17781">
        <ele>61.4</ele>
        <time>2023-08-16T09:46:23Z</time>
      </trkpt>
      <trkpt lat="49.77446" lon="2.17782">
        <ele>61.4</ele>
        <time>2023-08-16T09:46:24Z</time>
      </trkpt>
      <trkpt lat="49.77447" lon="2.17782">
        <ele>61.4</ele>
        <time>2023-08-16T09:46:26Z</time>
      </trkpt>
      <trkpt lat="49.77447" lon="2.17782">
        <ele>61.4</ele>
        <time>2023-08-16T09:46:27Z</time>
      </trkpt>
      <trkpt lat="49.77447" lon="2.17782">
        <ele>61.4</ele>
        <time>2023-08-16T09:46:28Z</time>
      </trkpt>
      <trkpt lat="49.77447" lon="2.17782">
        <ele>61.4</ele>
        <time>2023-08-16T09:46:29Z</time>
      </trkpt>
      <trkpt lat="49.77447" lon="2.17782">
        <ele>61.4</ele>
        <time>2023-08-16T09:46:30Z</time>
      </trkpt>
      <trkpt lat="49.77447" lon="2.17782">
        <ele>61.4</ele>
        <time>2023-08-16T09:46:31Z</time>
      </trkpt>
      <trkpt lat="49.77447" lon="2.17782">
        <ele>61.4</ele>
        <time>2023-08-16T09:46:32Z</time>
      </trkpt>
      <trkpt lat="49.77447" lon="2.17782">
        <ele>61.4</ele>
        <time>2023-08-16T09:46:33Z</time>
      </trkpt>
      <trkpt lat="49.77447" lon="2.17782">
        <ele>61.4</ele>
        <time>2023-08-16T09:46:34Z</time>
      </trkpt>
      <trkpt lat="49.77447" lon="2.17782">
        <ele>61.4</ele>
        <time>2023-08-16T09:46:35Z</time>
      </trkpt>
      <trkpt lat="49.77447" lon="2.17782">
        <ele>61.4</ele>
        <time>2023-08-16T09:46:36Z</time>
      </trkpt>
      <trkpt lat="49.77447" lon="2.17782">
        <ele>61.4</ele>
        <time>2023-08-16T09:46:37Z</time>
      </trkpt>
      <trkpt lat="49.77447" lon="2.17782">
        <ele>61.4</ele>
        <time>2023-08-16T09:46:38Z</time>
      </trkpt>
      <trkpt lat="49.77448" lon="2.17782">
        <ele>61.4</ele>
        <time>2023-08-16T09:46:39Z</time>
      </trkpt>
      <trkpt lat="49.77448" lon="2.17782">
        <ele>61.4</ele>
        <time>2023-08-16T09:46:40Z</time>
      </trkpt>
      <trkpt lat="49.77448" lon="2.17782">
        <ele>61.4</ele>
        <time>2023-08-16T09:46:41Z</time>
      </trkpt>
      <trkpt lat="49.77448" lon="2.17782">
        <ele>61.4</ele>
        <time>2023-08-16T09:46:42Z</time>
      </trkpt>
      <trkpt lat="49.77448" lon="2.17782">
        <ele>61.4</ele>
        <time>2023-08-16T09:46:43Z</time>
      </trkpt>
      <trkpt lat="49.77448" lon="2.17782">
        <ele>61.4</ele>
        <time>2023-08-16T09:46:44Z</time>
      </trkpt>
      <trkpt lat="49.77448" lon="2.17782">
        <ele>61.4</ele>
        <time>2023-08-16T09:46:45Z</time>
      </trkpt>
      <trkpt lat="49.77448" lon="2.17782">
        <ele>61.4</ele>
        <time>2023-08-16T09:46:46Z</time>
      </trkpt>
      <trkpt lat="49.77448" lon="2.17782">
        <ele>61.4</ele>
        <time>2023-08-16T09:46:47Z</time>
      </trkpt>
      <trkpt lat="49.77448" lon="2.17782">
        <ele>61.4</ele>
        <time>2023-08-16T09:46:48Z</time>
      </trkpt>
      <trkpt lat="49.77448" lon="2.17782">
        <ele>61.4</ele>
        <time>2023-08-16T09:46:49Z</time>
      </trkpt>
      <trkpt lat="49.77448" lon="2.17782">
        <ele>61.4</ele>
        <time>2023-08-16T09:46:50Z</time>
      </trkpt>
      <trkpt lat="49.77448" lon="2.17782">
        <ele>61.4</ele>
        <time>2023-08-16T09:46:51Z</time>
      </trkpt>
      <trkpt lat="49.77448" lon="2.17782">
        <ele>61.4</ele>
        <time>2023-08-16T09:46:52Z</time>
      </trkpt>
      <trkpt lat="49.77448" lon="2.17782">
        <ele>61.4</ele>
        <time>2023-08-16T09:46:53Z</time>
      </trkpt>
      <trkpt lat="49.77448" lon="2.17782">
        <ele>61.4</ele>
        <time>2023-08-16T09:46:54Z</time>
      </trkpt>
      <trkpt lat="49.77448" lon="2.17782">
        <ele>61.4</ele>
        <time>2023-08-16T09:46:55Z</time>
      </trkpt>
      <trkpt lat="49.77448" lon="2.17782">
        <ele>61.4</ele>
        <time>2023-08-16T09:46:56Z</time>
      </trkpt>
      <trkpt lat="49.77449" lon="2.17782">
        <ele>61.4</ele>
        <time>2023-08-16T09:46:57Z</time>
      </trkpt>
      <trkpt lat="49.77449" lon="2.17782">
        <ele>61.4</ele>
        <time>2023-08-16T09:46:58Z</time>
      </trkpt>
      <trkpt lat="49.77449" lon="2.17782">
        <ele>61.4</ele>
        <time>2023-08-16T09:46:59Z</time>
      </trkpt>
      <trkpt lat="49.77449" lon="2.17782">
        <ele>61.4</ele>
        <time>2023-08-16T09:47:00Z</time>
      </trkpt>
      <trkpt lat="49.77449" lon="2.17782">
        <ele>61.4</ele>
        <time>2023-08-16T09:47:01Z</time>
      </trkpt>
      <trkpt lat="49.77449" lon="2.17782">
        <ele>61.4</ele>
        <time>2023-08-16T09:47:02Z</time>
      </trkpt>
      <trkpt lat="49.77449" lon="2.17782">
        <ele>61.4</ele>
        <time>2023-08-16T09:47:03Z</time>
      </trkpt>
      <trkpt lat="49.77449" lon="2.17782">
        <ele>61.4</ele>
        <time>2023-08-16T09:47:04Z</time>
      </trkpt>
      <trkpt lat="49.77449" lon="2.17782">
        <ele>61.4</ele>
        <time>2023-08-16T09:47:05Z</time>
      </trkpt>
      <trkpt lat="49.77449" lon="2.17782">
        <ele>61.4</ele>
        <time>2023-08-16T09:47:06Z</time>
      </trkpt>
      <trkpt lat="49.77449" lon="2.17782">
        <ele>61.4</ele>
        <time>2023-08-16T09:47:07Z</time>
      </trkpt>
      <trkpt lat="49.77449" lon="2.17782">
        <ele>61.4</ele>
        <time>2023-08-16T09:47:08Z</time>
      </trkpt>
      <trkpt lat="49.77449" lon="2.17782">
        <ele>61.4</ele>
        <time>2023-08-16T09:47:09Z</time>
      </trkpt>
      <trkpt lat="49.77449" lon="2.17782">
        <ele>61.4</ele>
        <time>2023-08-16T09:47:10Z</time>
      </trkpt>
      <trkpt lat="49.77449" lon="2.17782">
        <ele>61.4</ele>
        <time>2023-08-16T09:47:11Z</time>
      </trkpt>
      <trkpt lat="49.77449" lon="2.17782">
        <ele>61.4</ele>
        <time>2023-08-16T09:47:12Z</time>
      </trkpt>
      <trkpt lat="49.77449" lon="2.17782">
        <ele>61.4</ele>
        <time>2023-08-16T09:47:13Z</time>
      </trkpt>
      <trkpt lat="49.77449" lon="2.17782">
        <ele>61.4</ele>
        <time>2023-08-16T09:47:14Z</time>
      </trkpt>
      <trkpt lat="49.7745" lon="2.17782">
        <ele>61.4</ele>
        <time>2023-08-16T09:47:15Z</time>
      </trkpt>
      <trkpt lat="49.7745" lon="2.17782">
        <ele>61.4</ele>
        <time>2023-08-16T09:47:16Z</time>
      </trkpt>
      <trkpt lat="49.7745" lon="2.17782">
        <ele>61.4</ele>
        <time>2023-08-16T09:47:17Z</time>
      </trkpt>
      <trkpt lat="49.7745" lon="2.17782">
        <ele>61.4</ele>
        <time>2023-08-16T09:47:18Z</time>
      </trkpt>
      <trkpt lat="49.7745" lon="2.17782">
        <ele>61.4</ele>
        <time>2023-08-16T09:47:19Z</time>
      </trkpt>
      <trkpt lat="49.7745" lon="2.17782">
        <ele>61.4</ele>
        <time>2023-08-16T09:47:20Z</time>
      </trkpt>
      <trkpt lat="49.7745" lon="2.17782">
        <ele>61.4</ele>
        <time>2023-08-16T09:47:21Z</time>
      </trkpt>
      <trkpt lat="49.7745" lon="2.17782">
        <ele>61.4</ele>
        <time>2023-08-16T09:47:22Z</time>
      </trkpt>
      <trkpt lat="49.7745" lon="2.17782">
        <ele>61.4</ele>
        <time>2023-08-16T09:47:23Z</time>
      </trkpt>
      <trkpt lat="49.7745" lon="2.17782">
        <ele>61.4</ele>
        <time>2023-08-16T09:47:24Z</time>
      </trkpt>
      <trkpt lat="49.7745" lon="2.17782">
        <ele>61.4</ele>
        <time>2023-08-16T09:47:25Z</time>
      </trkpt>
      <trkpt lat="49.7745" lon="2.17782">
        <ele>61.4</ele>
        <time>2023-08-16T09:47:26Z</time>
      </trkpt>
      <trkpt lat="49.7745" lon="2.17782">
        <ele>61.4</ele>
        <time>2023-08-16T09:47:27Z</time>
      </trkpt>
      <trkpt lat="49.7745" lon="2.17782">
        <ele>61.4</ele>
        <time>2023-08-16T09:47:28Z</time>
      </trkpt>
      <trkpt lat="49.7745" lon="2.17782">
        <ele>61.4</ele>
        <time>2023-08-16T09:47:29Z</time>
      </trkpt>
      <trkpt lat="49.7745" lon="2.17782">
        <ele>61.4</ele>
        <time>2023-08-16T09:47:30Z</time>
      </trkpt>
      <trkpt lat="49.77452" lon="2.17783">
        <ele>61.4</ele>
        <time>2023-08-16T09:47:31Z</time>
      </trkpt>
      <trkpt lat="49.77452" lon="2.17783">
        <ele>61.4</ele>
        <time>2023-08-16T09:47:32Z</time>
      </trkpt>
      <trkpt lat="49.77452" lon="2.17783">
        <ele>61.4</ele>
        <time>2023-08-16T09:47:33Z</time>
      </trkpt>
      <trkpt lat="49.77452" lon="2.17783">
        <ele>61.4</ele>
        <time>2023-08-16T09:47:34Z</time>
      </trkpt>
      <trkpt lat="49.77452" lon="2.17783">
        <ele>61.4</ele>
        <time>2023-08-16T09:47:35Z</time>
      </trkpt>
      <trkpt lat="49.77452" lon="2.17783">
        <ele>61.4</ele>
        <time>2023-08-16T09:47:36Z</time>
      </trkpt>
      <trkpt lat="49.77452" lon="2.17783">
        <ele>61.4</ele>
        <time>2023-08-16T09:47:37Z</time>
      </trkpt>
      <trkpt lat="49.77452" lon="2.17783">
        <ele>61.4</ele>
        <time>2023-08-16T09:47:38Z</time>
      </trkpt>
      <trkpt lat="49.77452" lon="2.17783">
        <ele>61.4</ele>
        <time>2023-08-16T09:47:39Z</time>
      </trkpt>
      <trkpt lat="49.77452" lon="2.17783">
        <ele>61.4</ele>
        <time>2023-08-16T09:47:40Z</time>
      </trkpt>
      <trkpt lat="49.77452" lon="2.17783">
        <ele>61.4</ele>
        <time>2023-08-16T09:47:41Z</time>
      </trkpt>
      <trkpt lat="49.77452" lon="2.17782">
        <ele>61.4</ele>
        <time>2023-08-16T09:47:42Z</time>
      </trkpt>
      <trkpt lat="49.77452" lon="2.17782">
        <ele>61.4</ele>
        <time>2023-08-16T09:47:43Z</time>
      </trkpt>
      <trkpt lat="49.77452" lon="2.17782">
        <ele>61.4</ele>
        <time>2023-08-16T09:47:44Z</time>
      </trkpt>
      <trkpt lat="49.77452" lon="2.17782">
        <ele>61.4</ele>
        <time>2023-08-16T09:47:45Z</time>
      </trkpt>
      <trkpt lat="49.77452" lon="2.17782">
        <ele>61.4</ele>
        <time>2023-08-16T09:47:46Z</time>
      </trkpt>
      <trkpt lat="49.77452" lon="2.17783">
        <ele>61.4</ele>
        <time>2023-08-16T09:47:48Z</time>
      </trkpt>
      <trkpt lat="49.77452" lon="2.17784">
        <ele>61.4</ele>
        <time>2023-08-16T09:47:50Z</time>
      </trkpt>
      <trkpt lat="49.77452" lon="2.17784">
        <ele>61.4</ele>
        <time>2023-08-16T09:47:51Z</time>
      </trkpt>
      <trkpt lat="49.77452" lon="2.17783">
        <ele>61.4</ele>
        <time>2023-08-16T09:47:52Z</time>
      </trkpt>
      <trkpt lat="49.77452" lon="2.17783">
        <ele>61.4</ele>
        <time>2023-08-16T09:47:53Z</time>
      </trkpt>
      <trkpt lat="49.77452" lon="2.17783">
        <ele>61.4</ele>
        <time>2023-08-16T09:47:54Z</time>
      </trkpt>
      <trkpt lat="49.77452" lon="2.17783">
        <ele>61.4</ele>
        <time>2023-08-16T09:47:55Z</time>
      </trkpt>
      <trkpt lat="49.77452" lon="2.17782">
        <ele>61.4</ele>
        <time>2023-08-16T09:47:56Z</time>
      </trkpt>
      <trkpt lat="49.77452" lon="2.17782">
        <ele>61.4</ele>
        <time>2023-08-16T09:47:57Z</time>
      </trkpt>
      <trkpt lat="49.77452" lon="2.17782">
        <ele>61.4</ele>
        <time>2023-08-16T09:47:58Z</time>
      </trkpt>
      <trkpt lat="49.77452" lon="2.17782">
        <ele>61.4</ele>
        <time>2023-08-16T09:47:59Z</time>
      </trkpt>
      <trkpt lat="49.77452" lon="2.17782">
        <ele>61.4</ele>
        <time>2023-08-16T09:48:00Z</time>
      </trkpt>
      <trkpt lat="49.77452" lon="2.17782">
        <ele>61.4</ele>
        <time>2023-08-16T09:48:01Z</time>
      </trkpt>
      <trkpt lat="49.77452" lon="2.17782">
        <ele>61.4</ele>
        <time>2023-08-16T09:48:02Z</time>
      </trkpt>
      <trkpt lat="49.77452" lon="2.17782">
        <ele>61.4</ele>
        <time>2023-08-16T09:48:03Z</time>
      </trkpt>
      <trkpt lat="49.77452" lon="2.17782">
        <ele>61.4</ele>
        <time>2023-08-16T09:48:04Z</time>
      </trkpt>
      <trkpt lat="49.77452" lon="2.17782">
        <ele>61.4</ele>
        <time>2023-08-16T09:48:05Z</time>
      </trkpt>
      <trkpt lat="49.77452" lon="2.17782">
        <ele>61.4</ele>
        <time>2023-08-16T09:48:06Z</time>
      </trkpt>
      <trkpt lat="49.77452" lon="2.17782">
        <ele>61.4</ele>
        <time>2023-08-16T09:48:07Z</time>
      </trkpt>
      <trkpt lat="49.77452" lon="2.17782">
        <ele>61.4</ele>
        <time>2023-08-16T09:48:08Z</time>
      </trkpt>
      <trkpt lat="49.77452" lon="2.17782">
        <ele>61.4</ele>
        <time>2023-08-16T09:48:09Z</time>
      </trkpt>
      <trkpt lat="49.77452" lon="2.17782">
        <ele>61.4</ele>
        <time>2023-08-16T09:48:10Z</time>
      </trkpt>
      <trkpt lat="49.77452" lon="2.17782">
        <ele>61.4</ele>
        <time>2023-08-16T09:48:11Z</time>
      </trkpt>
      <trkpt lat="49.77452" lon="2.17782">
        <ele>61.4</ele>
        <time>2023-08-16T09:48:12Z</time>
      </trkpt>
      <trkpt lat="49.77452" lon="2.17782">
        <ele>61.4</ele>
        <time>2023-08-16T09:48:13Z</time>
      </trkpt>
      <trkpt lat="49.77452" lon="2.17781">
        <ele>61.4</ele>
        <time>2023-08-16T09:48:14Z</time>
      </trkpt>
      <trkpt lat="49.77452" lon="2.17781">
        <ele>61.4</ele>
        <time>2023-08-16T09:48:15Z</time>
      </trkpt>
      <trkpt lat="49.77452" lon="2.17781">
        <ele>61.4</ele>
        <time>2023-08-16T09:48:16Z</time>
      </trkpt>
      <trkpt lat="49.77452" lon="2.17781">
        <ele>61.4</ele>
        <time>2023-08-16T09:48:17Z</time>
      </trkpt>
      <trkpt lat="49.77452" lon="2.17781">
        <ele>61.4</ele>
        <time>2023-08-16T09:48:19Z</time>
      </trkpt>
      <trkpt lat="49.77451" lon="2.17782">
        <ele>61.4</ele>
        <time>2023-08-16T09:48:20Z</time>
      </trkpt>
      <trkpt lat="49.77451" lon="2.17781">
        <ele>61.4</ele>
        <time>2023-08-16T09:48:21Z</time>
      </trkpt>
      <trkpt lat="49.77451" lon="2.17781">
        <ele>61.4</ele>
        <time>2023-08-16T09:48:22Z</time>
      </trkpt>
      <trkpt lat="49.77451" lon="2.1778">
        <ele>61.4</ele>
        <time>2023-08-16T09:48:23Z</time>
      </trkpt>
      <trkpt lat="49.77451" lon="2.1778">
        <ele>61.4</ele>
        <time>2023-08-16T09:48:25Z</time>
      </trkpt>
      <trkpt lat="49.77451" lon="2.1778">
        <ele>61.4</ele>
        <time>2023-08-16T09:48:26Z</time>
      </trkpt>
      <trkpt lat="49.77452" lon="2.17781">
        <ele>61.4</ele>
        <time>2023-08-16T09:48:27Z</time>
      </trkpt>
      <trkpt lat="49.77453" lon="2.17782">
        <ele>61.4</ele>
        <time>2023-08-16T09:48:28Z</time>
      </trkpt>
      <trkpt lat="49.77453" lon="2.17783">
        <ele>61.4</ele>
        <time>2023-08-16T09:48:30Z</time>
      </trkpt>
      <trkpt lat="49.77453" lon="2.17784">
        <ele>61.4</ele>
        <time>2023-08-16T09:48:31Z</time>
      </trkpt>
      <trkpt lat="49.77454" lon="2.17785">
        <ele>61.4</ele>
        <time>2023-08-16T09:48:32Z</time>
      </trkpt>
      <trkpt lat="49.77454" lon="2.17786">
        <ele>61.4</ele>
        <time>2023-08-16T09:48:33Z</time>
      </trkpt>
      <trkpt lat="49.77455" lon="2.17786">
        <ele>61.4</ele>
        <time>2023-08-16T09:48:34Z</time>
      </trkpt>
      <trkpt lat="49.77456" lon="2.17786">
        <ele>61.4</ele>
        <time>2023-08-16T09:48:35Z</time>
      </trkpt>
      <trkpt lat="49.77456" lon="2.17787">
        <ele>61.4</ele>
        <time>2023-08-16T09:48:37Z</time>
      </trkpt>
      <trkpt lat="49.77456" lon="2.17787">
        <ele>61.4</ele>
        <time>2023-08-16T09:48:38Z</time>
      </trkpt>
      <trkpt lat="49.77457" lon="2.17788">
        <ele>61.4</ele>
        <time>2023-08-16T09:48:39Z</time>
      </trkpt>
      <trkpt lat="49.77457" lon="2.17789">
        <ele>61.4</ele>
        <time>2023-08-16T09:48:40Z</time>
      </trkpt>
      <trkpt lat="49.77458" lon="2.17789">
        <ele>61.4</ele>
        <time>2023-08-16T09:48:41Z</time>
      </trkpt>
      <trkpt lat="49.77458" lon="2.1779">
        <ele>61.4</ele>
        <time>2023-08-16T09:48:42Z</time>
      </trkpt>
      <trkpt lat="49.77459" lon="2.1779">
        <ele>61.4</ele>
        <time>2023-08-16T09:48:43Z</time>
      </trkpt>
      <trkpt lat="49.7746" lon="2.1779">
        <ele>61.4</ele>
        <time>2023-08-16T09:48:44Z</time>
      </trkpt>
      <trkpt lat="49.7746" lon="2.17791">
        <ele>61.4</ele>
        <time>2023-08-16T09:48:46Z</time>
      </trkpt>
      <trkpt lat="49.77461" lon="2.17792">
        <ele>61.4</ele>
        <time>2023-08-16T09:48:47Z</time>
      </trkpt>
      <trkpt lat="49.77461" lon="2.17792">
        <ele>61.4</ele>
        <time>2023-08-16T09:48:48Z</time>
      </trkpt>
      <trkpt lat="49.77462" lon="2.17792">
        <ele>61.4</ele>
        <time>2023-08-16T09:48:49Z</time>
      </trkpt>
      <trkpt lat="49.77462" lon="2.17792">
        <ele>61.4</ele>
        <time>2023-08-16T09:48:50Z</time>
      </trkpt>
      <trkpt lat="49.77462" lon="2.17792">
        <ele>61.4</ele>
        <time>2023-08-16T09:48:52Z</time>
      </trkpt>
      <trkpt lat="49.77462" lon="2.17792">
        <ele>61.4</ele>
        <time>2023-08-16T09:48:53Z</time>
      </trkpt>
      <trkpt lat="49.77462" lon="2.17792">
        <ele>61.4</ele>
        <time>2023-08-16T09:48:55Z</time>
      </trkpt>
      <trkpt lat="49.77462" lon="2.17792">
        <ele>61.4</ele>
        <time>2023-08-16T09:48:56Z</time>
      </trkpt>
      <trkpt lat="49.77462" lon="2.17792">
        <ele>61.4</ele>
        <time>2023-08-16T09:48:58Z</time>
      </trkpt>
      <trkpt lat="49.77462" lon="2.17792">
        <ele>61.4</ele>
        <time>2023-08-16T09:48:59Z</time>
      </trkpt>
      <trkpt lat="49.77462" lon="2.17792">
        <ele>61.4</ele>
        <time>2023-08-16T09:49:00Z</time>
      </trkpt>
      <trkpt lat="49.77462" lon="2.17793">
        <ele>61.4</ele>
        <time>2023-08-16T09:49:02Z</time>
      </trkpt>
      <trkpt lat="49.77462" lon="2.17793">
        <ele>61.4</ele>
        <time>2023-08-16T09:49:03Z</time>
      </trkpt>
      <trkpt lat="49.77462" lon="2.17793">
        <ele>61.4</ele>
        <time>2023-08-16T09:49:05Z</time>
      </trkpt>
      <trkpt lat="49.77462" lon="2.17793">
        <ele>61.4</ele>
        <time>2023-08-16T09:49:06Z</time>
      </trkpt>
      <trkpt lat="49.77462" lon="2.17793">
        <ele>61.4</ele>
        <time>2023-08-16T09:49:07Z</time>
      </trkpt>
      <trkpt lat="49.77462" lon="2.17793">
        <ele>61.4</ele>
        <time>2023-08-16T09:49:08Z</time>
      </trkpt>
      <trkpt lat="49.77462" lon="2.17793">
        <ele>61.4</ele>
        <time>2023-08-16T09:49:09Z</time>
      </trkpt>
      <trkpt lat="49.77462" lon="2.17793">
        <ele>61.4</ele>
        <time>2023-08-16T09:49:10Z</time>
      </trkpt>
      <trkpt lat="49.77462" lon="2.17793">
        <ele>61.4</ele>
        <time>2023-08-16T09:49:12Z</time>
      </trkpt>
      <trkpt lat="49.77462" lon="2.17793">
        <ele>61.4</ele>
        <time>2023-08-16T09:49:13Z</time>
      </trkpt>
      <trkpt lat="49.77462" lon="2.17793">
        <ele>61.4</ele>
        <time>2023-08-16T09:49:15Z</time>
      </trkpt>
      <trkpt lat="49.77462" lon="2.17793">
        <ele>61.4</ele>
        <time>2023-08-16T09:49:16Z</time>
      </trkpt>
      <trkpt lat="49.77462" lon="2.17793">
        <ele>61.4</ele>
        <time>2023-08-16T09:49:18Z</time>
      </trkpt>
      <trkpt lat="49.77462" lon="2.17793">
        <ele>61.4</ele>
        <time>2023-08-16T09:49:19Z</time>
      </trkpt>
      <trkpt lat="49.77462" lon="2.17793">
        <ele>61.4</ele>
        <time>2023-08-16T09:49:20Z</time>
      </trkpt>
      <trkpt lat="49.77462" lon="2.17793">
        <ele>61.4</ele>
        <time>2023-08-16T09:49:22Z</time>
      </trkpt>
      <trkpt lat="49.77462" lon="2.17793">
        <ele>61.4</ele>
        <time>2023-08-16T09:49:23Z</time>
      </trkpt>
      <trkpt lat="49.77462" lon="2.17793">
        <ele>61.4</ele>
        <time>2023-08-16T09:49:24Z</time>
      </trkpt>
      <trkpt lat="49.77462" lon="2.17793">
        <ele>61.4</ele>
        <time>2023-08-16T09:49:26Z</time>
      </trkpt>
      <trkpt lat="49.77462" lon="2.17793">
        <ele>61.4</ele>
        <time>2023-08-16T09:49:27Z</time>
      </trkpt>
      <trkpt lat="49.77462" lon="2.17793">
        <ele>61.4</ele>
        <time>2023-08-16T09:49:28Z</time>
      </trkpt>
      <trkpt lat="49.77462" lon="2.17793">
        <ele>61.4</ele>
        <time>2023-08-16T09:49:29Z</time>
      </trkpt>
      <trkpt lat="49.77462" lon="2.17793">
        <ele>61.4</ele>
        <time>2023-08-16T09:49:30Z</time>
      </trkpt>
      <trkpt lat="49.77462" lon="2.17793">
        <ele>61.4</ele>
        <time>2023-08-16T09:49:31Z</time>
      </trkpt>
      <trkpt lat="49.77462" lon="2.17793">
        <ele>61.4</ele>
        <time>2023-08-16T09:49:32Z</time>
      </trkpt>
      <trkpt lat="49.77463" lon="2.17793">
        <ele>61.4</ele>
        <time>2023-08-16T09:49:33Z</time>
      </trkpt>
      <trkpt lat="49.77463" lon="2.17793">
        <ele>61.4</ele>
        <time>2023-08-16T09:49:34Z</time>
      </trkpt>
      <trkpt lat="49.77463" lon="2.17793">
        <ele>61.4</ele>
        <time>2023-08-16T09:49:35Z</time>
      </trkpt>
      <trkpt lat="49.77463" lon="2.17793">
        <ele>61.4</ele>
        <time>2023-08-16T09:49:36Z</time>
      </trkpt>
      <trkpt lat="49.77463" lon="2.17793">
        <ele>61.4</ele>
        <time>2023-08-16T09:49:37Z</time>
      </trkpt>
      <trkpt lat="49.77463" lon="2.17793">
        <ele>61.4</ele>
        <time>2023-08-16T09:49:38Z</time>
      </trkpt>
      <trkpt lat="49.77463" lon="2.17793">
        <ele>61.4</ele>
        <time>2023-08-16T09:49:39Z</time>
      </trkpt>
      <trkpt lat="49.77463" lon="2.17793">
        <ele>61.4</ele>
        <time>2023-08-16T09:49:40Z</time>
      </trkpt>
      <trkpt lat="49.77463" lon="2.17794">
        <ele>61.4</ele>
        <time>2023-08-16T09:49:41Z</time>
      </trkpt>
      <trkpt lat="49.77463" lon="2.17794">
        <ele>61.4</ele>
        <time>2023-08-16T09:49:42Z</time>
      </trkpt>
      <trkpt lat="49.77463" lon="2.17794">
        <ele>61.4</ele>
        <time>2023-08-16T09:49:43Z</time>
      </trkpt>
      <trkpt lat="49.77463" lon="2.17794">
        <ele>61.4</ele>
        <time>2023-08-16T09:49:44Z</time>
      </trkpt>
      <trkpt lat="49.77463" lon="2.17794">
        <ele>61.4</ele>
        <time>2023-08-16T09:49:45Z</time>
      </trkpt>
      <trkpt lat="49.77463" lon="2.17794">
        <ele>61.4</ele>
        <time>2023-08-16T09:49:46Z</time>
      </trkpt>
      <trkpt lat="49.77463" lon="2.17794">
        <ele>61.4</ele>
        <time>2023-08-16T09:49:47Z</time>
      </trkpt>
      <trkpt lat="49.77463" lon="2.17794">
        <ele>61.4</ele>
        <time>2023-08-16T09:49:48Z</time>
      </trkpt>
      <trkpt lat="49.77463" lon="2.17794">
        <ele>61.4</ele>
        <time>2023-08-16T09:49:49Z</time>
      </trkpt>
      <trkpt lat="49.77463" lon="2.17794">
        <ele>61.4</ele>
        <time>2023-08-16T09:49:50Z</time>
      </trkpt>
      <trkpt lat="49.77463" lon="2.17794">
        <ele>61.4</ele>
        <time>2023-08-16T09:49:51Z</time>
      </trkpt>
      <trkpt lat="49.77463" lon="2.17794">
        <ele>61.4</ele>
        <time>2023-08-16T09:49:52Z</time>
      </trkpt>
      <trkpt lat="49.77463" lon="2.17794">
        <ele>61.4</ele>
        <time>2023-08-16T09:49:53Z</time>
      </trkpt>
      <trkpt lat="49.77463" lon="2.17794">
        <ele>61.4</ele>
        <time>2023-08-16T09:49:54Z</time>
      </trkpt>
      <trkpt lat="49.77463" lon="2.17794">
        <ele>61.4</ele>
        <time>2023-08-16T09:49:55Z</time>
      </trkpt>
      <trkpt lat="49.77463" lon="2.17794">
        <ele>61.4</ele>
        <time>2023-08-16T09:49:56Z</time>
      </trkpt>
      <trkpt lat="49.77463" lon="2.17794">
        <ele>61.4</ele>
        <time>2023-08-16T09:49:57Z</time>
      </trkpt>
      <trkpt lat="49.77463" lon="2.17794">
        <ele>61.4</ele>
        <time>2023-08-16T09:49:58Z</time>
      </trkpt>
      <trkpt lat="49.77463" lon="2.17794">
        <ele>61.4</ele>
        <time>2023-08-16T09:49:59Z</time>
      </trkpt>
      <trkpt lat="49.77463" lon="2.17794">
        <ele>61.4</ele>
        <time>2023-08-16T09:50:00Z</time>
      </trkpt>
      <trkpt lat="49.77463" lon="2.17794">
        <ele>61.4</ele>
        <time>2023-08-16T09:50:01Z</time>
      </trkpt>
      <trkpt lat="49.77463" lon="2.17794">
        <ele>61.4</ele>
        <time>2023-08-16T09:50:02Z</time>
      </trkpt>
      <trkpt lat="49.77463" lon="2.17794">
        <ele>61.4</ele>
        <time>2023-08-16T09:50:03Z</time>
      </trkpt>
      <trkpt lat="49.77463" lon="2.17794">
        <ele>61.4</ele>
        <time>2023-08-16T09:50:04Z</time>
      </trkpt>
      <trkpt lat="49.77463" lon="2.17794">
        <ele>61.4</ele>
        <time>2023-08-16T09:50:05Z</time>
      </trkpt>
      <trkpt lat="49.77463" lon="2.17794">
        <ele>61.4</ele>
        <time>2023-08-16T09:50:06Z</time>
      </trkpt>
      <trkpt lat="49.77464" lon="2.17794">
        <ele>61.4</ele>
        <time>2023-08-16T09:50:07Z</time>
      </trkpt>
      <trkpt lat="49.77464" lon="2.17794">
        <ele>61.4</ele>
        <time>2023-08-16T09:50:08Z</time>
      </trkpt>
      <trkpt lat="49.77464" lon="2.17794">
        <ele>61.4</ele>
        <time>2023-08-16T09:50:09Z</time>
      </trkpt>
      <trkpt lat="49.77464" lon="2.17794">
        <ele>61.4</ele>
        <time>2023-08-16T09:50:10Z</time>
      </trkpt>
      <trkpt lat="49.77464" lon="2.17794">
        <ele>61.4</ele>
        <time>2023-08-16T09:50:11Z</time>
      </trkpt>
      <trkpt lat="49.77464" lon="2.17794">
        <ele>61.4</ele>
        <time>2023-08-16T09:50:12Z</time>
      </trkpt>
      <trkpt lat="49.77464" lon="2.17794">
        <ele>61.4</ele>
        <time>2023-08-16T09:50:13Z</time>
      </trkpt>
      <trkpt lat="49.77464" lon="2.17794">
        <ele>61.4</ele>
        <time>2023-08-16T09:50:14Z</time>
      </trkpt>
      <trkpt lat="49.77464" lon="2.17795">
        <ele>61.4</ele>
        <time>2023-08-16T09:50:15Z</time>
      </trkpt>
      <trkpt lat="49.77464" lon="2.17795">
        <ele>61.4</ele>
        <time>2023-08-16T09:50:16Z</time>
      </trkpt>
      <trkpt lat="49.77464" lon="2.17795">
        <ele>61.4</ele>
        <time>2023-08-16T09:50:17Z</time>
      </trkpt>
      <trkpt lat="49.77464" lon="2.17795">
        <ele>61.4</ele>
        <time>2023-08-16T09:50:18Z</time>
      </trkpt>
      <trkpt lat="49.77464" lon="2.17795">
        <ele>61.4</ele>
        <time>2023-08-16T09:50:19Z</time>
      </trkpt>
      <trkpt lat="49.77464" lon="2.17795">
        <ele>61.4</ele>
        <time>2023-08-16T09:50:20Z</time>
      </trkpt>
      <trkpt lat="49.77464" lon="2.17795">
        <ele>61.4</ele>
        <time>2023-08-16T09:50:21Z</time>
      </trkpt>
      <trkpt lat="49.77464" lon="2.17795">
        <ele>61.4</ele>
        <time>2023-08-16T09:50:22Z</time>
      </trkpt>
      <trkpt lat="49.77464" lon="2.17795">
        <ele>61.4</ele>
        <time>2023-08-16T09:50:23Z</time>
      </trkpt>
      <trkpt lat="49.77464" lon="2.17795">
        <ele>61.4</ele>
        <time>2023-08-16T09:50:24Z</time>
      </trkpt>
      <trkpt lat="49.77464" lon="2.17795">
        <ele>61.4</ele>
        <time>2023-08-16T09:50:25Z</time>
      </trkpt>
      <trkpt lat="49.77464" lon="2.17795">
        <ele>61.4</ele>
        <time>2023-08-16T09:50:26Z</time>
      </trkpt>
      <trkpt lat="49.77464" lon="2.17795">
        <ele>61.4</ele>
        <time>2023-08-16T09:50:27Z</time>
      </trkpt>
      <trkpt lat="49.77464" lon="2.17795">
        <ele>61.4</ele>
        <time>2023-08-16T09:50:28Z</time>
      </trkpt>
      <trkpt lat="49.77464" lon="2.17795">
        <ele>61.4</ele>
        <time>2023-08-16T09:50:29Z</time>
      </trkpt>
      <trkpt lat="49.77464" lon="2.17795">
        <ele>61.4</ele>
        <time>2023-08-16T09:50:30Z</time>
      </trkpt>
      <trkpt lat="49.77464" lon="2.17795">
        <ele>61.4</ele>
        <time>2023-08-16T09:50:31Z</time>
      </trkpt>
      <trkpt lat="49.77464" lon="2.17795">
        <ele>61.4</ele>
        <time>2023-08-16T09:50:32Z</time>
      </trkpt>
      <trkpt lat="49.77464" lon="2.17795">
        <ele>61.4</ele>
        <time>2023-08-16T09:50:33Z</time>
      </trkpt>
      <trkpt lat="49.77464" lon="2.17795">
        <ele>61.4</ele>
        <time>2023-08-16T09:50:34Z</time>
      </trkpt>
      <trkpt lat="49.77464" lon="2.17795">
        <ele>61.4</ele>
        <time>2023-08-16T09:50:35Z</time>
      </trkpt>
      <trkpt lat="49.77464" lon="2.17795">
        <ele>61.4</ele>
        <time>2023-08-16T09:50:36Z</time>
      </trkpt>
      <trkpt lat="49.77464" lon="2.17795">
        <ele>61.4</ele>
        <time>2023-08-16T09:50:37Z</time>
      </trkpt>
      <trkpt lat="49.77464" lon="2.17795">
        <ele>61.4</ele>
        <time>2023-08-16T09:50:38Z</time>
      </trkpt>
      <trkpt lat="49.77464" lon="2.17795">
        <ele>61.4</ele>
        <time>2023-08-16T09:50:39Z</time>
      </trkpt>
      <trkpt lat="49.77465" lon="2.17795">
        <ele>61.4</ele>
        <time>2023-08-16T09:50:40Z</time>
      </trkpt>
      <trkpt lat="49.77465" lon="2.17795">
        <ele>61.4</ele>
        <time>2023-08-16T09:50:41Z</time>
      </trkpt>
      <trkpt lat="49.77465" lon="2.17795">
        <ele>61.4</ele>
        <time>2023-08-16T09:50:42Z</time>
      </trkpt>
      <trkpt lat="49.77465" lon="2.17795">
        <ele>61.4</ele>
        <time>2023-08-16T09:50:43Z</time>
      </trkpt>
      <trkpt lat="49.77465" lon="2.17795">
        <ele>61.4</ele>
        <time>2023-08-16T09:50:44Z</time>
      </trkpt>
      <trkpt lat="49.77465" lon="2.17795">
        <ele>61.4</ele>
        <time>2023-08-16T09:50:45Z</time>
      </trkpt>
      <trkpt lat="49.77465" lon="2.17795">
        <ele>61.4</ele>
        <time>2023-08-16T09:50:46Z</time>
      </trkpt>
      <trkpt lat="49.77465" lon="2.17795">
        <ele>61.4</ele>
        <time>2023-08-16T09:50:47Z</time>
      </trkpt>
      <trkpt lat="49.77465" lon="2.17795">
        <ele>61.4</ele>
        <time>2023-08-16T09:50:48Z</time>
      </trkpt>
      <trkpt lat="49.77465" lon="2.17796">
        <ele>61.4</ele>
        <time>2023-08-16T09:50:49Z</time>
      </trkpt>
      <trkpt lat="49.77465" lon="2.17796">
        <ele>61.4</ele>
        <time>2023-08-16T09:50:50Z</time>
      </trkpt>
      <trkpt lat="49.77465" lon="2.17796">
        <ele>61.4</ele>
        <time>2023-08-16T09:50:51Z</time>
      </trkpt>
      <trkpt lat="49.77465" lon="2.17796">
        <ele>61.4</ele>
        <time>2023-08-16T09:50:52Z</time>
      </trkpt>
      <trkpt lat="49.77465" lon="2.17796">
        <ele>61.4</ele>
        <time>2023-08-16T09:50:53Z</time>
      </trkpt>
      <trkpt lat="49.77465" lon="2.17796">
        <ele>61.4</ele>
        <time>2023-08-16T09:50:54Z</time>
      </trkpt>
      <trkpt lat="49.77465" lon="2.17796">
        <ele>61.4</ele>
        <time>2023-08-16T09:50:55Z</time>
      </trkpt>
      <trkpt lat="49.77465" lon="2.17796">
        <ele>61.4</ele>
        <time>2023-08-16T09:50:56Z</time>
      </trkpt>
      <trkpt lat="49.77465" lon="2.17796">
        <ele>61.4</ele>
        <time>2023-08-16T09:50:57Z</time>
      </trkpt>
      <trkpt lat="49.77465" lon="2.17796">
        <ele>61.4</ele>
        <time>2023-08-16T09:50:58Z</time>
      </trkpt>
      <trkpt lat="49.77465" lon="2.17796">
        <ele>61.4</ele>
        <time>2023-08-16T09:50:59Z</time>
      </trkpt>
      <trkpt lat="49.77465" lon="2.17796">
        <ele>61.4</ele>
        <time>2023-08-16T09:51:00Z</time>
      </trkpt>
      <trkpt lat="49.77465" lon="2.17796">
        <ele>61.4</ele>
        <time>2023-08-16T09:51:01Z</time>
      </trkpt>
      <trkpt lat="49.77465" lon="2.17796">
        <ele>61.4</ele>
        <time>2023-08-16T09:51:02Z</time>
      </trkpt>
      <trkpt lat="49.77465" lon="2.17796">
        <ele>61.4</ele>
        <time>2023-08-16T09:51:03Z</time>
      </trkpt>
      <trkpt lat="49.77465" lon="2.17796">
        <ele>61.4</ele>
        <time>2023-08-16T09:51:04Z</time>
      </trkpt>
      <trkpt lat="49.77466" lon="2.17797">
        <ele>61.4</ele>
        <time>2023-08-16T09:51:05Z</time>
      </trkpt>
      <trkpt lat="49.77466" lon="2.17798">
        <ele>61.4</ele>
        <time>2023-08-16T09:51:06Z</time>
      </trkpt>
      <trkpt lat="49.77466" lon="2.17798">
        <ele>61.4</ele>
        <time>2023-08-16T09:51:07Z</time>
      </trkpt>
      <trkpt lat="49.77466" lon="2.17798">
        <ele>61.4</ele>
        <time>2023-08-16T09:51:08Z</time>
      </trkpt>
      <trkpt lat="49.77466" lon="2.17798">
        <ele>61.4</ele>
        <time>2023-08-16T09:51:09Z</time>
      </trkpt>
      <trkpt lat="49.77466" lon="2.17798">
        <ele>61.4</ele>
        <time>2023-08-16T09:51:10Z</time>
      </trkpt>
      <trkpt lat="49.77466" lon="2.17798">
        <ele>61.4</ele>
        <time>2023-08-16T09:51:11Z</time>
      </trkpt>
      <trkpt lat="49.77466" lon="2.17798">
        <ele>61.4</ele>
        <time>2023-08-16T09:51:12Z</time>
      </trkpt>
      <trkpt lat="49.77466" lon="2.17798">
        <ele>61.4</ele>
        <time>2023-08-16T09:51:13Z</time>
      </trkpt>
      <trkpt lat="49.77466" lon="2.17798">
        <ele>61.4</ele>
        <time>2023-08-16T09:51:14Z</time>
      </trkpt>
      <trkpt lat="49.77466" lon="2.17798">
        <ele>61.4</ele>
        <time>2023-08-16T09:51:15Z</time>
      </trkpt>
      <trkpt lat="49.77466" lon="2.17798">
        <ele>61.4</ele>
        <time>2023-08-16T09:51:16Z</time>
      </trkpt>
      <trkpt lat="49.77466" lon="2.17799">
        <ele>61.4</ele>
        <time>2023-08-16T09:51:17Z</time>
      </trkpt>
      <trkpt lat="49.77466" lon="2.17799">
        <ele>61.4</ele>
        <time>2023-08-16T09:51:18Z</time>
      </trkpt>
      <trkpt lat="49.77466" lon="2.17799">
        <ele>61.4</ele>
        <time>2023-08-16T09:51:19Z</time>
      </trkpt>
      <trkpt lat="49.77466" lon="2.17799">
        <ele>61.4</ele>
        <time>2023-08-16T09:51:20Z</time>
      </trkpt>
      <trkpt lat="49.77466" lon="2.17799">
        <ele>61.4</ele>
        <time>2023-08-16T09:51:21Z</time>
      </trkpt>
      <trkpt lat="49.77466" lon="2.17799">
        <ele>61.4</ele>
        <time>2023-08-16T09:51:22Z</time>
      </trkpt>
      <trkpt lat="49.77466" lon="2.17799">
        <ele>61.4</ele>
        <time>2023-08-16T09:51:23Z</time>
      </trkpt>
      <trkpt lat="49.77466" lon="2.17799">
        <ele>61.4</ele>
        <time>2023-08-16T09:51:24Z</time>
      </trkpt>
      <trkpt lat="49.77466" lon="2.17799">
        <ele>61.4</ele>
        <time>2023-08-16T09:51:25Z</time>
      </trkpt>
      <trkpt lat="49.77466" lon="2.17799">
        <ele>61.4</ele>
        <time>2023-08-16T09:51:26Z</time>
      </trkpt>
      <trkpt lat="49.77466" lon="2.17799">
        <ele>61.4</ele>
        <time>2023-08-16T09:51:27Z</time>
      </trkpt>
      <trkpt lat="49.77466" lon="2.17799">
        <ele>61.4</ele>
        <time>2023-08-16T09:51:28Z</time>
      </trkpt>
      <trkpt lat="49.77466" lon="2.17799">
        <ele>61.4</ele>
        <time>2023-08-16T09:51:29Z</time>
      </trkpt>
      <trkpt lat="49.77466" lon="2.17799">
        <ele>61.4</ele>
        <time>2023-08-16T09:51:30Z</time>
      </trkpt>
      <trkpt lat="49.77466" lon="2.17799">
        <ele>61.4</ele>
        <time>2023-08-16T09:51:31Z</time>
      </trkpt>
      <trkpt lat="49.77466" lon="2.17799">
        <ele>61.4</ele>
        <time>2023-08-16T09:51:32Z</time>
      </trkpt>
      <trkpt lat="49.77466" lon="2.17799">
        <ele>61.4</ele>
        <time>2023-08-16T09:51:33Z</time>
      </trkpt>
      <trkpt lat="49.77466" lon="2.17799">
        <ele>61.4</ele>
        <time>2023-08-16T09:51:34Z</time>
      </trkpt>
      <trkpt lat="49.77466" lon="2.17799">
        <ele>61.4</ele>
        <time>2023-08-16T09:51:35Z</time>
      </trkpt>
      <trkpt lat="49.77466" lon="2.17799">
        <ele>61.4</ele>
        <time>2023-08-16T09:51:36Z</time>
      </trkpt>
      <trkpt lat="49.77466" lon="2.17799">
        <ele>61.4</ele>
        <time>2023-08-16T09:51:37Z</time>
      </trkpt>
      <trkpt lat="49.77466" lon="2.17799">
        <ele>61.4</ele>
        <time>2023-08-16T09:51:38Z</time>
      </trkpt>
      <trkpt lat="49.77466" lon="2.17799">
        <ele>61.4</ele>
        <time>2023-08-16T09:51:39Z</time>
      </trkpt>
      <trkpt lat="49.77466" lon="2.17799">
        <ele>61.4</ele>
        <time>2023-08-16T09:51:40Z</time>
      </trkpt>
      <trkpt lat="49.77466" lon="2.17799">
        <ele>61.4</ele>
        <time>2023-08-16T09:51:41Z</time>
      </trkpt>
      <trkpt lat="49.77466" lon="2.17799">
        <ele>61.4</ele>
        <time>2023-08-16T09:51:42Z</time>
      </trkpt>
      <trkpt lat="49.77466" lon="2.17799">
        <ele>61.4</ele>
        <time>2023-08-16T09:51:43Z</time>
      </trkpt>
      <trkpt lat="49.77466" lon="2.17799">
        <ele>61.4</ele>
        <time>2023-08-16T09:51:44Z</time>
      </trkpt>
      <trkpt lat="49.77466" lon="2.17799">
        <ele>61.4</ele>
        <time>2023-08-16T09:51:45Z</time>
      </trkpt>
      <trkpt lat="49.77466" lon="2.17799">
        <ele>61.4</ele>
        <time>2023-08-16T09:51:46Z</time>
      </trkpt>
      <trkpt lat="49.77466" lon="2.17799">
        <ele>61.4</ele>
        <time>2023-08-16T09:51:47Z</time>
      </trkpt>
      <trkpt lat="49.77466" lon="2.17799">
        <ele>61.4</ele>
        <time>2023-08-16T09:51:48Z</time>
      </trkpt>
      <trkpt lat="49.77466" lon="2.17799">
        <ele>61.4</ele>
        <time>2023-08-16T09:51:49Z</time>
      </trkpt>
      <trkpt lat="49.77466" lon="2.17799">
        <ele>61.4</ele>
        <time>2023-08-16T09:51:50Z</time>
      </trkpt>
      <trkpt lat="49.77466" lon="2.17799">
        <ele>61.4</ele>
        <time>2023-08-16T09:51:51Z</time>
      </trkpt>
      <trkpt lat="49.77466" lon="2.17799">
        <ele>61.4</ele>
        <time>2023-08-16T09:51:52Z</time>
      </trkpt>
      <trkpt lat="49.77466" lon="2.17799">
        <ele>61.4</ele>
        <time>2023-08-16T09:51:53Z</time>
      </trkpt>
      <trkpt lat="49.77466" lon="2.17799">
        <ele>61.4</ele>
        <time>2023-08-16T09:51:54Z</time>
      </trkpt>
      <trkpt lat="49.77466" lon="2.17799">
        <ele>61.4</ele>
        <time>2023-08-16T09:51:55Z</time>
      </trkpt>
      <trkpt lat="49.77466" lon="2.17799">
        <ele>61.4</ele>
        <time>2023-08-16T09:51:56Z</time>
      </trkpt>
      <trkpt lat="49.77466" lon="2.17799">
        <ele>61.4</ele>
        <time>2023-08-16T09:51:57Z</time>
      </trkpt>
      <trkpt lat="49.77466" lon="2.17799">
        <ele>61.4</ele>
        <time>2023-08-16T09:51:58Z</time>
      </trkpt>
      <trkpt lat="49.77466" lon="2.17799">
        <ele>61.4</ele>
        <time>2023-08-16T09:51:59Z</time>
      </trkpt>
      <trkpt lat="49.77466" lon="2.17799">
        <ele>61.4</ele>
        <time>2023-08-16T09:52:00Z</time>
      </trkpt>
      <trkpt lat="49.77466" lon="2.17799">
        <ele>61.4</ele>
        <time>2023-08-16T09:52:01Z</time>
      </trkpt>
      <trkpt lat="49.77466" lon="2.17799">
        <ele>61.4</ele>
        <time>2023-08-16T09:52:02Z</time>
      </trkpt>
      <trkpt lat="49.77466" lon="2.17799">
        <ele>61.4</ele>
        <time>2023-08-16T09:52:03Z</time>
      </trkpt>
      <trkpt lat="49.77466" lon="2.17799">
        <ele>61.4</ele>
        <time>2023-08-16T09:52:04Z</time>
      </trkpt>
      <trkpt lat="49.77466" lon="2.17799">
        <ele>61.4</ele>
        <time>2023-08-16T09:52:05Z</time>
      </trkpt>
      <trkpt lat="49.77466" lon="2.17799">
        <ele>61.4</ele>
        <time>2023-08-16T09:52:06Z</time>
      </trkpt>
      <trkpt lat="49.77466" lon="2.17799">
        <ele>61.4</ele>
        <time>2023-08-16T09:52:07Z</time>
      </trkpt>
      <trkpt lat="49.77466" lon="2.17799">
        <ele>61.4</ele>
        <time>2023-08-16T09:52:08Z</time>
      </trkpt>
      <trkpt lat="49.77466" lon="2.17799">
        <ele>61.4</ele>
        <time>2023-08-16T09:52:09Z</time>
      </trkpt>
      <trkpt lat="49.77466" lon="2.17799">
        <ele>61.4</ele>
        <time>2023-08-16T09:52:10Z</time>
      </trkpt>
      <trkpt lat="49.77466" lon="2.17799">
        <ele>61.4</ele>
        <time>2023-08-16T09:52:11Z</time>
      </trkpt>
      <trkpt lat="49.77466" lon="2.17799">
        <ele>61.4</ele>
        <time>2023-08-16T09:52:12Z</time>
      </trkpt>
      <trkpt lat="49.77466" lon="2.17799">
        <ele>61.4</ele>
        <time>2023-08-16T09:52:13Z</time>
      </trkpt>
      <trkpt lat="49.77466" lon="2.17799">
        <ele>61.4</ele>
        <time>2023-08-16T09:52:14Z</time>
      </trkpt>
      <trkpt lat="49.77466" lon="2.17799">
        <ele>61.4</ele>
        <time>2023-08-16T09:52:15Z</time>
      </trkpt>
      <trkpt lat="49.77466" lon="2.17799">
        <ele>61.4</ele>
        <time>2023-08-16T09:52:16Z</time>
      </trkpt>
      <trkpt lat="49.77466" lon="2.17799">
        <ele>61.4</ele>
        <time>2023-08-16T09:52:17Z</time>
      </trkpt>
      <trkpt lat="49.77466" lon="2.17799">
        <ele>61.4</ele>
        <time>2023-08-16T09:52:18Z</time>
      </trkpt>
      <trkpt lat="49.77466" lon="2.17799">
        <ele>61.4</ele>
        <time>2023-08-16T09:52:19Z</time>
      </trkpt>
      <trkpt lat="49.77466" lon="2.17799">
        <ele>61.4</ele>
        <time>2023-08-16T09:52:20Z</time>
      </trkpt>
      <trkpt lat="49.77466" lon="2.17799">
        <ele>61.4</ele>
        <time>2023-08-16T09:52:21Z</time>
      </trkpt>
      <trkpt lat="49.77467" lon="2.17799">
        <ele>61.4</ele>
        <time>2023-08-16T09:52:22Z</time>
      </trkpt>
      <trkpt lat="49.77468" lon="2.17799">
        <ele>61.4</ele>
        <time>2023-08-16T09:52:23Z</time>
      </trkpt>
      <trkpt lat="49.77468" lon="2.178">
        <ele>61.4</ele>
        <time>2023-08-16T09:52:24Z</time>
      </trkpt>
      <trkpt lat="49.77468" lon="2.178">
        <ele>61.4</ele>
        <time>2023-08-16T09:52:25Z</time>
      </trkpt>
      <trkpt lat="49.77468" lon="2.178">
        <ele>61.4</ele>
        <time>2023-08-16T09:52:26Z</time>
      </trkpt>
      <trkpt lat="49.77468" lon="2.178">
        <ele>61.4</ele>
        <time>2023-08-16T09:52:27Z</time>
      </trkpt>
      <trkpt lat="49.77468" lon="2.178">
        <ele>61.4</ele>
        <time>2023-08-16T09:52:28Z</time>
      </trkpt>
      <trkpt lat="49.77468" lon="2.178">
        <ele>61.4</ele>
        <time>2023-08-16T09:52:29Z</time>
      </trkpt>
      <trkpt lat="49.77468" lon="2.178">
        <ele>61.4</ele>
        <time>2023-08-16T09:52:30Z</time>
      </trkpt>
      <trkpt lat="49.77468" lon="2.178">
        <ele>61.4</ele>
        <time>2023-08-16T09:52:31Z</time>
      </trkpt>
      <trkpt lat="49.77468" lon="2.178">
        <ele>61.4</ele>
        <time>2023-08-16T09:52:32Z</time>
      </trkpt>
      <trkpt lat="49.77468" lon="2.178">
        <ele>61.4</ele>
        <time>2023-08-16T09:52:33Z</time>
      </trkpt>
      <trkpt lat="49.77468" lon="2.178">
        <ele>61.4</ele>
        <time>2023-08-16T09:52:34Z</time>
      </trkpt>
      <trkpt lat="49.77469" lon="2.178">
        <ele>61.4</ele>
        <time>2023-08-16T09:52:35Z</time>
      </trkpt>
      <trkpt lat="49.77469" lon="2.178">
        <ele>61.4</ele>
        <time>2023-08-16T09:52:36Z</time>
      </trkpt>
      <trkpt lat="49.77469" lon="2.178">
        <ele>61.4</ele>
        <time>2023-08-16T09:52:37Z</time>
      </trkpt>
      <trkpt lat="49.77469" lon="2.178">
        <ele>61.4</ele>
        <time>2023-08-16T09:52:38Z</time>
      </trkpt>
      <trkpt lat="49.77469" lon="2.178">
        <ele>61.4</ele>
        <time>2023-08-16T09:52:39Z</time>
      </trkpt>
      <trkpt lat="49.77469" lon="2.178">
        <ele>61.4</ele>
        <time>2023-08-16T09:52:40Z</time>
      </trkpt>
      <trkpt lat="49.77469" lon="2.178">
        <ele>61.4</ele>
        <time>2023-08-16T09:52:41Z</time>
      </trkpt>
      <trkpt lat="49.77469" lon="2.178">
        <ele>61.4</ele>
        <time>2023-08-16T09:52:42Z</time>
      </trkpt>
      <trkpt lat="49.77468" lon="2.178">
        <ele>61.4</ele>
        <time>2023-08-16T09:52:44Z</time>
      </trkpt>
      <trkpt lat="49.77468" lon="2.178">
        <ele>61.4</ele>
        <time>2023-08-16T09:52:45Z</time>
      </trkpt>
      <trkpt lat="49.77468" lon="2.178">
        <ele>61.4</ele>
        <time>2023-08-16T09:52:46Z</time>
      </trkpt>
      <trkpt lat="49.77468" lon="2.178">
        <ele>61.4</ele>
        <time>2023-08-16T09:52:47Z</time>
      </trkpt>
      <trkpt lat="49.77468" lon="2.178">
        <ele>61.4</ele>
        <time>2023-08-16T09:52:48Z</time>
      </trkpt>
      <trkpt lat="49.77468" lon="2.178">
        <ele>61.4</ele>
        <time>2023-08-16T09:52:49Z</time>
      </trkpt>
      <trkpt lat="49.77468" lon="2.178">
        <ele>61.4</ele>
        <time>2023-08-16T09:52:50Z</time>
      </trkpt>
      <trkpt lat="49.77468" lon="2.178">
        <ele>61.4</ele>
        <time>2023-08-16T09:52:51Z</time>
      </trkpt>
      <trkpt lat="49.77468" lon="2.178">
        <ele>61.4</ele>
        <time>2023-08-16T09:52:52Z</time>
      </trkpt>
      <trkpt lat="49.77469" lon="2.178">
        <ele>61.4</ele>
        <time>2023-08-16T09:52:53Z</time>
      </trkpt>
      <trkpt lat="49.77469" lon="2.178">
        <ele>61.4</ele>
        <time>2023-08-16T09:52:54Z</time>
      </trkpt>
      <trkpt lat="49.77469" lon="2.178">
        <ele>61.4</ele>
        <time>2023-08-16T09:52:55Z</time>
      </trkpt>
      <trkpt lat="49.77469" lon="2.178">
        <ele>61.4</ele>
        <time>2023-08-16T09:52:56Z</time>
      </trkpt>
      <trkpt lat="49.77469" lon="2.178">
        <ele>61.4</ele>
        <time>2023-08-16T09:52:57Z</time>
      </trkpt>
      <trkpt lat="49.77469" lon="2.178">
        <ele>61.4</ele>
        <time>2023-08-16T09:52:58Z</time>
      </trkpt>
      <trkpt lat="49.77469" lon="2.178">
        <ele>61.4</ele>
        <time>2023-08-16T09:52:59Z</time>
      </trkpt>
      <trkpt lat="49.77469" lon="2.178">
        <ele>61.4</ele>
        <time>2023-08-16T09:53:00Z</time>
      </trkpt>
      <trkpt lat="49.77469" lon="2.178">
        <ele>61.4</ele>
        <time>2023-08-16T09:53:01Z</time>
      </trkpt>
      <trkpt lat="49.77469" lon="2.178">
        <ele>61.4</ele>
        <time>2023-08-16T09:53:02Z</time>
      </trkpt>
      <trkpt lat="49.77469" lon="2.178">
        <ele>61.4</ele>
        <time>2023-08-16T09:53:03Z</time>
      </trkpt>
      <trkpt lat="49.77469" lon="2.178">
        <ele>61.4</ele>
        <time>2023-08-16T09:53:04Z</time>
      </trkpt>
      <trkpt lat="49.77469" lon="2.178">
        <ele>61.4</ele>
        <time>2023-08-16T09:53:05Z</time>
      </trkpt>
      <trkpt lat="49.77469" lon="2.178">
        <ele>61.4</ele>
        <time>2023-08-16T09:53:06Z</time>
      </trkpt>
      <trkpt lat="49.77469" lon="2.178">
        <ele>61.4</ele>
        <time>2023-08-16T09:53:07Z</time>
      </trkpt>
      <trkpt lat="49.77469" lon="2.178">
        <ele>61.4</ele>
        <time>2023-08-16T09:53:08Z</time>
      </trkpt>
      <trkpt lat="49.77469" lon="2.178">
        <ele>61.4</ele>
        <time>2023-08-16T09:53:09Z</time>
      </trkpt>
      <trkpt lat="49.77469" lon="2.178">
        <ele>61.4</ele>
        <time>2023-08-16T09:53:10Z</time>
      </trkpt>
      <trkpt lat="49.77469" lon="2.178">
        <ele>61.4</ele>
        <time>2023-08-16T09:53:11Z</time>
      </trkpt>
      <trkpt lat="49.77469" lon="2.178">
        <ele>61.4</ele>
        <time>2023-08-16T09:53:12Z</time>
      </trkpt>
      <trkpt lat="49.77469" lon="2.178">
        <ele>61.4</ele>
        <time>2023-08-16T09:53:13Z</time>
      </trkpt>
      <trkpt lat="49.77469" lon="2.178">
        <ele>61.4</ele>
        <time>2023-08-16T09:53:14Z</time>
      </trkpt>
      <trkpt lat="49.77469" lon="2.178">
        <ele>61.4</ele>
        <time>2023-08-16T09:53:15Z</time>
      </trkpt>
      <trkpt lat="49.77469" lon="2.178">
        <ele>61.4</ele>
        <time>2023-08-16T09:53:16Z</time>
      </trkpt>
      <trkpt lat="49.77469" lon="2.178">
        <ele>61.4</ele>
        <time>2023-08-16T09:53:17Z</time>
      </trkpt>
      <trkpt lat="49.77469" lon="2.178">
        <ele>61.4</ele>
        <time>2023-08-16T09:53:18Z</time>
      </trkpt>
      <trkpt lat="49.77469" lon="2.178">
        <ele>61.4</ele>
        <time>2023-08-16T09:53:19Z</time>
      </trkpt>
      <trkpt lat="49.77469" lon="2.178">
        <ele>61.4</ele>
        <time>2023-08-16T09:53:20Z</time>
      </trkpt>
      <trkpt lat="49.77469" lon="2.178">
        <ele>61.4</ele>
        <time>2023-08-16T09:53:21Z</time>
      </trkpt>
      <trkpt lat="49.77469" lon="2.178">
        <ele>61.4</ele>
        <time>2023-08-16T09:53:22Z</time>
      </trkpt>
      <trkpt lat="49.77469" lon="2.178">
        <ele>61.4</ele>
        <time>2023-08-16T09:53:23Z</time>
      </trkpt>
      <trkpt lat="49.77469" lon="2.178">
        <ele>61.4</ele>
        <time>2023-08-16T09:53:24Z</time>
      </trkpt>
      <trkpt lat="49.77469" lon="2.178">
        <ele>61.4</ele>
        <time>2023-08-16T09:53:25Z</time>
      </trkpt>
      <trkpt lat="49.77469" lon="2.178">
        <ele>61.4</ele>
        <time>2023-08-16T09:53:26Z</time>
      </trkpt>
      <trkpt lat="49.77469" lon="2.178">
        <ele>61.4</ele>
        <time>2023-08-16T09:53:27Z</time>
      </trkpt>
      <trkpt lat="49.77469" lon="2.178">
        <ele>61.4</ele>
        <time>2023-08-16T09:53:28Z</time>
      </trkpt>
      <trkpt lat="49.77469" lon="2.178">
        <ele>61.4</ele>
        <time>2023-08-16T09:53:29Z</time>
      </trkpt>
      <trkpt lat="49.77469" lon="2.178">
        <ele>61.4</ele>
        <time>2023-08-16T09:53:30Z</time>
      </trkpt>
      <trkpt lat="49.77469" lon="2.178">
        <ele>61.4</ele>
        <time>2023-08-16T09:53:31Z</time>
      </trkpt>
      <trkpt lat="49.77469" lon="2.178">
        <ele>61.4</ele>
        <time>2023-08-16T09:53:32Z</time>
      </trkpt>
      <trkpt lat="49.77469" lon="2.178">
        <ele>61.4</ele>
        <time>2023-08-16T09:53:33Z</time>
      </trkpt>
      <trkpt lat="49.77469" lon="2.178">
        <ele>61.4</ele>
        <time>2023-08-16T09:53:34Z</time>
      </trkpt>
      <trkpt lat="49.77469" lon="2.178">
        <ele>61.4</ele>
        <time>2023-08-16T09:53:35Z</time>
      </trkpt>
      <trkpt lat="49.77469" lon="2.178">
        <ele>61.4</ele>
        <time>2023-08-16T09:53:36Z</time>
      </trkpt>
      <trkpt lat="49.77469" lon="2.178">
        <ele>61.4</ele>
        <time>2023-08-16T09:53:37Z</time>
      </trkpt>
      <trkpt lat="49.77469" lon="2.178">
        <ele>61.4</ele>
        <time>2023-08-16T09:53:38Z</time>
      </trkpt>
      <trkpt lat="49.77469" lon="2.178">
        <ele>61.4</ele>
        <time>2023-08-16T09:53:39Z</time>
      </trkpt>
      <trkpt lat="49.77469" lon="2.178">
        <ele>61.4</ele>
        <time>2023-08-16T09:53:40Z</time>
      </trkpt>
      <trkpt lat="49.77469" lon="2.178">
        <ele>61.4</ele>
        <time>2023-08-16T09:53:41Z</time>
      </trkpt>
      <trkpt lat="49.77469" lon="2.178">
        <ele>61.4</ele>
        <time>2023-08-16T09:53:42Z</time>
      </trkpt>
      <trkpt lat="49.77469" lon="2.178">
        <ele>61.4</ele>
        <time>2023-08-16T09:53:43Z</time>
      </trkpt>
      <trkpt lat="49.77469" lon="2.178">
        <ele>61.4</ele>
        <time>2023-08-16T09:53:44Z</time>
      </trkpt>
      <trkpt lat="49.77469" lon="2.178">
        <ele>61.4</ele>
        <time>2023-08-16T09:53:45Z</time>
      </trkpt>
      <trkpt lat="49.77469" lon="2.178">
        <ele>61.4</ele>
        <time>2023-08-16T09:53:46Z</time>
      </trkpt>
      <trkpt lat="49.77469" lon="2.178">
        <ele>61.4</ele>
        <time>2023-08-16T09:53:47Z</time>
      </trkpt>
      <trkpt lat="49.77469" lon="2.178">
        <ele>61.4</ele>
        <time>2023-08-16T09:53:48Z</time>
      </trkpt>
      <trkpt lat="49.77469" lon="2.178">
        <ele>61.4</ele>
        <time>2023-08-16T09:53:49Z</time>
      </trkpt>
      <trkpt lat="49.77469" lon="2.178">
        <ele>61.4</ele>
        <time>2023-08-16T09:53:50Z</time>
      </trkpt>
      <trkpt lat="49.77469" lon="2.178">
        <ele>61.4</ele>
        <time>2023-08-16T09:53:51Z</time>
      </trkpt>
      <trkpt lat="49.77469" lon="2.178">
        <ele>61.4</ele>
        <time>2023-08-16T09:53:52Z</time>
      </trkpt>
      <trkpt lat="49.77469" lon="2.178">
        <ele>61.4</ele>
        <time>2023-08-16T09:53:53Z</time>
      </trkpt>
      <trkpt lat="49.77469" lon="2.178">
        <ele>61.4</ele>
        <time>2023-08-16T09:53:54Z</time>
      </trkpt>
      <trkpt lat="49.77469" lon="2.178">
        <ele>61.4</ele>
        <time>2023-08-16T09:53:55Z</time>
      </trkpt>
      <trkpt lat="49.77469" lon="2.178">
        <ele>61.4</ele>
        <time>2023-08-16T09:53:56Z</time>
      </trkpt>
      <trkpt lat="49.77469" lon="2.178">
        <ele>61.4</ele>
        <time>2023-08-16T09:53:57Z</time>
      </trkpt>
      <trkpt lat="49.77469" lon="2.178">
        <ele>61.4</ele>
        <time>2023-08-16T09:53:58Z</time>
      </trkpt>
      <trkpt lat="49.77469" lon="2.178">
        <ele>61.4</ele>
        <time>2023-08-16T09:53:59Z</time>
      </trkpt>
      <trkpt lat="49.77469" lon="2.178">
        <ele>61.4</ele>
        <time>2023-08-16T09:54:00Z</time>
      </trkpt>
      <trkpt lat="49.77469" lon="2.178">
        <ele>61.4</ele>
        <time>2023-08-16T09:54:01Z</time>
      </trkpt>
      <trkpt lat="49.77469" lon="2.178">
        <ele>61.4</ele>
        <time>2023-08-16T09:54:02Z</time>
      </trkpt>
      <trkpt lat="49.77469" lon="2.178">
        <ele>61.4</ele>
        <time>2023-08-16T09:54:03Z</time>
      </trkpt>
      <trkpt lat="49.77469" lon="2.178">
        <ele>61.4</ele>
        <time>2023-08-16T09:54:04Z</time>
      </trkpt>
      <trkpt lat="49.77469" lon="2.178">
        <ele>61.4</ele>
        <time>2023-08-16T09:54:05Z</time>
      </trkpt>
      <trkpt lat="49.77469" lon="2.178">
        <ele>61.4</ele>
        <time>2023-08-16T09:54:06Z</time>
      </trkpt>
      <trkpt lat="49.77469" lon="2.178">
        <ele>61.4</ele>
        <time>2023-08-16T09:54:07Z</time>
      </trkpt>
      <trkpt lat="49.77469" lon="2.178">
        <ele>61.4</ele>
        <time>2023-08-16T09:54:08Z</time>
      </trkpt>
      <trkpt lat="49.77468" lon="2.178">
        <ele>61.4</ele>
        <time>2023-08-16T09:54:09Z</time>
      </trkpt>
      <trkpt lat="49.77468" lon="2.178">
        <ele>61.4</ele>
        <time>2023-08-16T09:54:10Z</time>
      </trkpt>
      <trkpt lat="49.77467" lon="2.17799">
        <ele>61.4</ele>
        <time>2023-08-16T09:54:11Z</time>
      </trkpt>
      <trkpt lat="49.77467" lon="2.17799">
        <ele>61.4</ele>
        <time>2023-08-16T09:54:12Z</time>
      </trkpt>
      <trkpt lat="49.77467" lon="2.17799">
        <ele>61.4</ele>
        <time>2023-08-16T09:54:13Z</time>
      </trkpt>
      <trkpt lat="49.77467" lon="2.17799">
        <ele>61.4</ele>
        <time>2023-08-16T09:54:14Z</time>
      </trkpt>
      <trkpt lat="49.77467" lon="2.17799">
        <ele>61.4</ele>
        <time>2023-08-16T09:54:15Z</time>
      </trkpt>
      <trkpt lat="49.77467" lon="2.17799">
        <ele>61.4</ele>
        <time>2023-08-16T09:54:16Z</time>
      </trkpt>
      <trkpt lat="49.77467" lon="2.17799">
        <ele>61.4</ele>
        <time>2023-08-16T09:54:17Z</time>
      </trkpt>
      <trkpt lat="49.77467" lon="2.17799">
        <ele>61.4</ele>
        <time>2023-08-16T09:54:18Z</time>
      </trkpt>
      <trkpt lat="49.77467" lon="2.17799">
        <ele>61.4</ele>
        <time>2023-08-16T09:54:19Z</time>
      </trkpt>
      <trkpt lat="49.77467" lon="2.17799">
        <ele>61.4</ele>
        <time>2023-08-16T09:54:20Z</time>
      </trkpt>
      <trkpt lat="49.77467" lon="2.17799">
        <ele>61.4</ele>
        <time>2023-08-16T09:54:21Z</time>
      </trkpt>
      <trkpt lat="49.77467" lon="2.17799">
        <ele>61.4</ele>
        <time>2023-08-16T09:54:23Z</time>
      </trkpt>
      <trkpt lat="49.77467" lon="2.17799">
        <ele>61.4</ele>
        <time>2023-08-16T09:54:24Z</time>
      </trkpt>
      <trkpt lat="49.77467" lon="2.17799">
        <ele>61.4</ele>
        <time>2023-08-16T09:54:25Z</time>
      </trkpt>
      <trkpt lat="49.77467" lon="2.17798">
        <ele>61.4</ele>
        <time>2023-08-16T09:54:26Z</time>
      </trkpt>
      <trkpt lat="49.77467" lon="2.17798">
        <ele>61.4</ele>
        <time>2023-08-16T09:54:27Z</time>
      </trkpt>
      <trkpt lat="49.77467" lon="2.17798">
        <ele>61.4</ele>
        <time>2023-08-16T09:54:28Z</time>
      </trkpt>
      <trkpt lat="49.77467" lon="2.17798">
        <ele>61.4</ele>
        <time>2023-08-16T09:54:29Z</time>
      </trkpt>
      <trkpt lat="49.77467" lon="2.17798">
        <ele>61.4</ele>
        <time>2023-08-16T09:54:30Z</time>
      </trkpt>
      <trkpt lat="49.77467" lon="2.17798">
        <ele>61.4</ele>
        <time>2023-08-16T09:54:31Z</time>
      </trkpt>
      <trkpt lat="49.77467" lon="2.17798">
        <ele>61.4</ele>
        <time>2023-08-16T09:54:32Z</time>
      </trkpt>
      <trkpt lat="49.77467" lon="2.17798">
        <ele>61.4</ele>
        <time>2023-08-16T09:54:33Z</time>
      </trkpt>
      <trkpt lat="49.77467" lon="2.17798">
        <ele>61.4</ele>
        <time>2023-08-16T09:54:34Z</time>
      </trkpt>
      <trkpt lat="49.77467" lon="2.17798">
        <ele>61.4</ele>
        <time>2023-08-16T09:54:35Z</time>
      </trkpt>
      <trkpt lat="49.77467" lon="2.17798">
        <ele>61.4</ele>
        <time>2023-08-16T09:54:36Z</time>
      </trkpt>
      <trkpt lat="49.77467" lon="2.17798">
        <ele>61.4</ele>
        <time>2023-08-16T09:54:37Z</time>
      </trkpt>
      <trkpt lat="49.77467" lon="2.17798">
        <ele>61.4</ele>
        <time>2023-08-16T09:54:38Z</time>
      </trkpt>
      <trkpt lat="49.77467" lon="2.17798">
        <ele>61.4</ele>
        <time>2023-08-16T09:54:39Z</time>
      </trkpt>
      <trkpt lat="49.77467" lon="2.17798">
        <ele>61.4</ele>
        <time>2023-08-16T09:54:40Z</time>
      </trkpt>
      <trkpt lat="49.77467" lon="2.17798">
        <ele>61.4</ele>
        <time>2023-08-16T09:54:41Z</time>
      </trkpt>
      <trkpt lat="49.77467" lon="2.17798">
        <ele>61.4</ele>
        <time>2023-08-16T09:54:42Z</time>
      </trkpt>
      <trkpt lat="49.77467" lon="2.17798">
        <ele>61.4</ele>
        <time>2023-08-16T09:54:43Z</time>
      </trkpt>
      <trkpt lat="49.77467" lon="2.17798">
        <ele>61.4</ele>
        <time>2023-08-16T09:54:44Z</time>
      </trkpt>
      <trkpt lat="49.77467" lon="2.17798">
        <ele>61.4</ele>
        <time>2023-08-16T09:54:45Z</time>
      </trkpt>
      <trkpt lat="49.77467" lon="2.17798">
        <ele>61.4</ele>
        <time>2023-08-16T09:54:46Z</time>
      </trkpt>
      <trkpt lat="49.77467" lon="2.17798">
        <ele>61.4</ele>
        <time>2023-08-16T09:54:47Z</time>
      </trkpt>
      <trkpt lat="49.77467" lon="2.17798">
        <ele>61.4</ele>
        <time>2023-08-16T09:54:48Z</time>
      </trkpt>
      <trkpt lat="49.77467" lon="2.17798">
        <ele>61.4</ele>
        <time>2023-08-16T09:54:49Z</time>
      </trkpt>
      <trkpt lat="49.77467" lon="2.17798">
        <ele>61.4</ele>
        <time>2023-08-16T09:54:50Z</time>
      </trkpt>
      <trkpt lat="49.77467" lon="2.17798">
        <ele>61.4</ele>
        <time>2023-08-16T09:54:51Z</time>
      </trkpt>
      <trkpt lat="49.77467" lon="2.17798">
        <ele>61.4</ele>
        <time>2023-08-16T09:54:52Z</time>
      </trkpt>
      <trkpt lat="49.77467" lon="2.17798">
        <ele>61.4</ele>
        <time>2023-08-16T09:54:53Z</time>
      </trkpt>
      <trkpt lat="49.77467" lon="2.17798">
        <ele>61.4</ele>
        <time>2023-08-16T09:54:54Z</time>
      </trkpt>
      <trkpt lat="49.77467" lon="2.17798">
        <ele>61.4</ele>
        <time>2023-08-16T09:54:55Z</time>
      </trkpt>
      <trkpt lat="49.77467" lon="2.17798">
        <ele>61.4</ele>
        <time>2023-08-16T09:54:56Z</time>
      </trkpt>
      <trkpt lat="49.77467" lon="2.17798">
        <ele>61.4</ele>
        <time>2023-08-16T09:54:57Z</time>
      </trkpt>
      <trkpt lat="49.77467" lon="2.17798">
        <ele>61.4</ele>
        <time>2023-08-16T09:54:58Z</time>
      </trkpt>
      <trkpt lat="49.77467" lon="2.17798">
        <ele>61.4</ele>
        <time>2023-08-16T09:54:59Z</time>
      </trkpt>
      <trkpt lat="49.77467" lon="2.17798">
        <ele>61.4</ele>
        <time>2023-08-16T09:55:00Z</time>
      </trkpt>
      <trkpt lat="49.77467" lon="2.17798">
        <ele>61.4</ele>
        <time>2023-08-16T09:55:01Z</time>
      </trkpt>
      <trkpt lat="49.77467" lon="2.17798">
        <ele>61.4</ele>
        <time>2023-08-16T09:55:02Z</time>
      </trkpt>
      <trkpt lat="49.77467" lon="2.17798">
        <ele>61.4</ele>
        <time>2023-08-16T09:55:03Z</time>
      </trkpt>
      <trkpt lat="49.77467" lon="2.17798">
        <ele>61.4</ele>
        <time>2023-08-16T09:55:04Z</time>
      </trkpt>
      <trkpt lat="49.77467" lon="2.17798">
        <ele>61.4</ele>
        <time>2023-08-16T09:55:05Z</time>
      </trkpt>
      <trkpt lat="49.77467" lon="2.17798">
        <ele>61.4</ele>
        <time>2023-08-16T09:55:06Z</time>
      </trkpt>
      <trkpt lat="49.77467" lon="2.17798">
        <ele>61.4</ele>
        <time>2023-08-16T09:55:07Z</time>
      </trkpt>
      <trkpt lat="49.77467" lon="2.17798">
        <ele>61.4</ele>
        <time>2023-08-16T09:55:08Z</time>
      </trkpt>
      <trkpt lat="49.77467" lon="2.17798">
        <ele>61.4</ele>
        <time>2023-08-16T09:55:09Z</time>
      </trkpt>
      <trkpt lat="49.77467" lon="2.17798">
        <ele>61.4</ele>
        <time>2023-08-16T09:55:10Z</time>
      </trkpt>
      <trkpt lat="49.77467" lon="2.17798">
        <ele>61.4</ele>
        <time>2023-08-16T09:55:11Z</time>
      </trkpt>
      <trkpt lat="49.77467" lon="2.17798">
        <ele>61.4</ele>
        <time>2023-08-16T09:55:12Z</time>
      </trkpt>
      <trkpt lat="49.77467" lon="2.17798">
        <ele>61.4</ele>
        <time>2023-08-16T09:55:13Z</time>
      </trkpt>
      <trkpt lat="49.77467" lon="2.17798">
        <ele>61.4</ele>
        <time>2023-08-16T09:55:14Z</time>
      </trkpt>
      <trkpt lat="49.77467" lon="2.17798">
        <ele>61.4</ele>
        <time>2023-08-16T09:55:15Z</time>
      </trkpt>
      <trkpt lat="49.77467" lon="2.17798">
        <ele>61.4</ele>
        <time>2023-08-16T09:55:16Z</time>
      </trkpt>
      <trkpt lat="49.77467" lon="2.17798">
        <ele>61.4</ele>
        <time>2023-08-16T09:55:17Z</time>
      </trkpt>
      <trkpt lat="49.77467" lon="2.17798">
        <ele>61.4</ele>
        <time>2023-08-16T09:55:18Z</time>
      </trkpt>
      <trkpt lat="49.77467" lon="2.17798">
        <ele>61.4</ele>
        <time>2023-08-16T09:55:19Z</time>
      </trkpt>
      <trkpt lat="49.77467" lon="2.17798">
        <ele>61.4</ele>
        <time>2023-08-16T09:55:20Z</time>
      </trkpt>
      <trkpt lat="49.77467" lon="2.17798">
        <ele>61.4</ele>
        <time>2023-08-16T09:55:21Z</time>
      </trkpt>
      <trkpt lat="49.77467" lon="2.17798">
        <ele>61.4</ele>
        <time>2023-08-16T09:55:22Z</time>
      </trkpt>
      <trkpt lat="49.77467" lon="2.17798">
        <ele>61.4</ele>
        <time>2023-08-16T09:55:23Z</time>
      </trkpt>
      <trkpt lat="49.77467" lon="2.17798">
        <ele>61.4</ele>
        <time>2023-08-16T09:55:24Z</time>
      </trkpt>
      <trkpt lat="49.77467" lon="2.17798">
        <ele>61.4</ele>
        <time>2023-08-16T09:55:25Z</time>
      </trkpt>
      <trkpt lat="49.77467" lon="2.17798">
        <ele>61.4</ele>
        <time>2023-08-16T09:55:26Z</time>
      </trkpt>
      <trkpt lat="49.77467" lon="2.17798">
        <ele>61.4</ele>
        <time>2023-08-16T09:55:27Z</time>
      </trkpt>
      <trkpt lat="49.77467" lon="2.17798">
        <ele>61.4</ele>
        <time>2023-08-16T09:55:28Z</time>
      </trkpt>
      <trkpt lat="49.77467" lon="2.17798">
        <ele>61.4</ele>
        <time>2023-08-16T09:55:29Z</time>
      </trkpt>
      <trkpt lat="49.77467" lon="2.17798">
        <ele>61.4</ele>
        <time>2023-08-16T09:55:30Z</time>
      </trkpt>
      <trkpt lat="49.77467" lon="2.17798">
        <ele>61.4</ele>
        <time>2023-08-16T09:55:31Z</time>
      </trkpt>
      <trkpt lat="49.77467" lon="2.17798">
        <ele>61.4</ele>
        <time>2023-08-16T09:55:32Z</time>
      </trkpt>
      <trkpt lat="49.77467" lon="2.17798">
        <ele>61.4</ele>
        <time>2023-08-16T09:55:33Z</time>
      </trkpt>
      <trkpt lat="49.77467" lon="2.17798">
        <ele>61.4</ele>
        <time>2023-08-16T09:55:34Z</time>
      </trkpt>
      <trkpt lat="49.77467" lon="2.17798">
        <ele>61.4</ele>
        <time>2023-08-16T09:55:35Z</time>
      </trkpt>
      <trkpt lat="49.77467" lon="2.17798">
        <ele>61.4</ele>
        <time>2023-08-16T09:55:36Z</time>
      </trkpt>
      <trkpt lat="49.77467" lon="2.17798">
        <ele>61.4</ele>
        <time>2023-08-16T09:55:37Z</time>
      </trkpt>
      <trkpt lat="49.77467" lon="2.17798">
        <ele>61.4</ele>
        <time>2023-08-16T09:55:38Z</time>
      </trkpt>
      <trkpt lat="49.77467" lon="2.17798">
        <ele>61.4</ele>
        <time>2023-08-16T09:55:39Z</time>
      </trkpt>
      <trkpt lat="49.77467" lon="2.17798">
        <ele>61.4</ele>
        <time>2023-08-16T09:55:40Z</time>
      </trkpt>
      <trkpt lat="49.77467" lon="2.17798">
        <ele>61.4</ele>
        <time>2023-08-16T09:55:41Z</time>
      </trkpt>
      <trkpt lat="49.77467" lon="2.17798">
        <ele>61.4</ele>
        <time>2023-08-16T09:55:42Z</time>
      </trkpt>
      <trkpt lat="49.77467" lon="2.17798">
        <ele>61.4</ele>
        <time>2023-08-16T09:55:43Z</time>
      </trkpt>
      <trkpt lat="49.77467" lon="2.17798">
        <ele>61.4</ele>
        <time>2023-08-16T09:55:44Z</time>
      </trkpt>
      <trkpt lat="49.77467" lon="2.17798">
        <ele>61.4</ele>
        <time>2023-08-16T09:55:45Z</time>
      </trkpt>
      <trkpt lat="49.77467" lon="2.17798">
        <ele>61.4</ele>
        <time>2023-08-16T09:55:46Z</time>
      </trkpt>
      <trkpt lat="49.77467" lon="2.17798">
        <ele>61.4</ele>
        <time>2023-08-16T09:55:47Z</time>
      </trkpt>
      <trkpt lat="49.77467" lon="2.17798">
        <ele>61.4</ele>
        <time>2023-08-16T09:55:48Z</time>
      </trkpt>
      <trkpt lat="49.77467" lon="2.17798">
        <ele>61.4</ele>
        <time>2023-08-16T09:55:49Z</time>
      </trkpt>
      <trkpt lat="49.77467" lon="2.17798">
        <ele>61.4</ele>
        <time>2023-08-16T09:55:50Z</time>
      </trkpt>
      <trkpt lat="49.77467" lon="2.17798">
        <ele>61.4</ele>
        <time>2023-08-16T09:55:51Z</time>
      </trkpt>
      <trkpt lat="49.77467" lon="2.17798">
        <ele>61.4</ele>
        <time>2023-08-16T09:55:52Z</time>
      </trkpt>
      <trkpt lat="49.77467" lon="2.17798">
        <ele>61.4</ele>
        <time>2023-08-16T09:55:53Z</time>
      </trkpt>
      <trkpt lat="49.77467" lon="2.17798">
        <ele>61.4</ele>
        <time>2023-08-16T09:55:54Z</time>
      </trkpt>
      <trkpt lat="49.77466" lon="2.17798">
        <ele>61.4</ele>
        <time>2023-08-16T09:55:55Z</time>
      </trkpt>
      <trkpt lat="49.77466" lon="2.17798">
        <ele>61.4</ele>
        <time>2023-08-16T09:55:56Z</time>
      </trkpt>
      <trkpt lat="49.77465" lon="2.17798">
        <ele>61.4</ele>
        <time>2023-08-16T09:55:57Z</time>
      </trkpt>
      <trkpt lat="49.77465" lon="2.17798">
        <ele>61.4</ele>
        <time>2023-08-16T09:55:58Z</time>
      </trkpt>
      <trkpt lat="49.77465" lon="2.17798">
        <ele>61.4</ele>
        <time>2023-08-16T09:55:59Z</time>
      </trkpt>
      <trkpt lat="49.77465" lon="2.17798">
        <ele>61.4</ele>
        <time>2023-08-16T09:56:00Z</time>
      </trkpt>
      <trkpt lat="49.77465" lon="2.17798">
        <ele>61.4</ele>
        <time>2023-08-16T09:56:01Z</time>
      </trkpt>
      <trkpt lat="49.77465" lon="2.17798">
        <ele>61.4</ele>
        <time>2023-08-16T09:56:02Z</time>
      </trkpt>
      <trkpt lat="49.77465" lon="2.17798">
        <ele>61.4</ele>
        <time>2023-08-16T09:56:03Z</time>
      </trkpt>
      <trkpt lat="49.77465" lon="2.17798">
        <ele>61.4</ele>
        <time>2023-08-16T09:56:04Z</time>
      </trkpt>
      <trkpt lat="49.77465" lon="2.17798">
        <ele>61.4</ele>
        <time>2023-08-16T09:56:05Z</time>
      </trkpt>
      <trkpt lat="49.77465" lon="2.17798">
        <ele>61.4</ele>
        <time>2023-08-16T09:56:06Z</time>
      </trkpt>
      <trkpt lat="49.77465" lon="2.17798">
        <ele>61.4</ele>
        <time>2023-08-16T09:56:07Z</time>
      </trkpt>
      <trkpt lat="49.77465" lon="2.17798">
        <ele>61.4</ele>
        <time>2023-08-16T09:56:08Z</time>
      </trkpt>
      <trkpt lat="49.77465" lon="2.17798">
        <ele>61.4</ele>
        <time>2023-08-16T09:56:09Z</time>
      </trkpt>
      <trkpt lat="49.77465" lon="2.17798">
        <ele>61.4</ele>
        <time>2023-08-16T09:56:10Z</time>
      </trkpt>
      <trkpt lat="49.77465" lon="2.17798">
        <ele>61.4</ele>
        <time>2023-08-16T09:56:11Z</time>
      </trkpt>
      <trkpt lat="49.77465" lon="2.17798">
        <ele>61.4</ele>
        <time>2023-08-16T09:56:12Z</time>
      </trkpt>
      <trkpt lat="49.77465" lon="2.17798">
        <ele>61.4</ele>
        <time>2023-08-16T09:56:13Z</time>
      </trkpt>
      <trkpt lat="49.77465" lon="2.17798">
        <ele>61.4</ele>
        <time>2023-08-16T09:56:14Z</time>
      </trkpt>
      <trkpt lat="49.77465" lon="2.17798">
        <ele>61.4</ele>
        <time>2023-08-16T09:56:15Z</time>
      </trkpt>
      <trkpt lat="49.77465" lon="2.17798">
        <ele>61.4</ele>
        <time>2023-08-16T09:56:16Z</time>
      </trkpt>
      <trkpt lat="49.77465" lon="2.17798">
        <ele>61.4</ele>
        <time>2023-08-16T09:56:17Z</time>
      </trkpt>
      <trkpt lat="49.77465" lon="2.17798">
        <ele>61.4</ele>
        <time>2023-08-16T09:56:18Z</time>
      </trkpt>
      <trkpt lat="49.77465" lon="2.17798">
        <ele>61.4</ele>
        <time>2023-08-16T09:56:19Z</time>
      </trkpt>
      <trkpt lat="49.77465" lon="2.17798">
        <ele>61.4</ele>
        <time>2023-08-16T09:56:20Z</time>
      </trkpt>
      <trkpt lat="49.77465" lon="2.17798">
        <ele>61.4</ele>
        <time>2023-08-16T09:56:21Z</time>
      </trkpt>
      <trkpt lat="49.77465" lon="2.17798">
        <ele>61.4</ele>
        <time>2023-08-16T09:56:22Z</time>
      </trkpt>
      <trkpt lat="49.77465" lon="2.17798">
        <ele>61.4</ele>
        <time>2023-08-16T09:56:23Z</time>
      </trkpt>
      <trkpt lat="49.77465" lon="2.17798">
        <ele>61.4</ele>
        <time>2023-08-16T09:56:24Z</time>
      </trkpt>
      <trkpt lat="49.77465" lon="2.17798">
        <ele>61.4</ele>
        <time>2023-08-16T09:56:25Z</time>
      </trkpt>
      <trkpt lat="49.77465" lon="2.17798">
        <ele>61.4</ele>
        <time>2023-08-16T09:56:26Z</time>
      </trkpt>
      <trkpt lat="49.77465" lon="2.17798">
        <ele>61.4</ele>
        <time>2023-08-16T09:56:27Z</time>
      </trkpt>
      <trkpt lat="49.77465" lon="2.17798">
        <ele>61.4</ele>
        <time>2023-08-16T09:56:28Z</time>
      </trkpt>
      <trkpt lat="49.77465" lon="2.17798">
        <ele>61.4</ele>
        <time>2023-08-16T09:56:29Z</time>
      </trkpt>
      <trkpt lat="49.77465" lon="2.17798">
        <ele>61.4</ele>
        <time>2023-08-16T09:56:30Z</time>
      </trkpt>
      <trkpt lat="49.77465" lon="2.17798">
        <ele>61.4</ele>
        <time>2023-08-16T09:56:31Z</time>
      </trkpt>
      <trkpt lat="49.77465" lon="2.17798">
        <ele>61.4</ele>
        <time>2023-08-16T09:56:32Z</time>
      </trkpt>
      <trkpt lat="49.77465" lon="2.17798">
        <ele>61.4</ele>
        <time>2023-08-16T09:56:33Z</time>
      </trkpt>
      <trkpt lat="49.77465" lon="2.17798">
        <ele>61.4</ele>
        <time>2023-08-16T09:56:35Z</time>
      </trkpt>
      <trkpt lat="49.77465" lon="2.17798">
        <ele>61.4</ele>
        <time>2023-08-16T09:56:36Z</time>
      </trkpt>
      <trkpt lat="49.77465" lon="2.17798">
        <ele>61.4</ele>
        <time>2023-08-16T09:56:37Z</time>
      </trkpt>
      <trkpt lat="49.77465" lon="2.17798">
        <ele>61.4</ele>
        <time>2023-08-16T09:56:38Z</time>
      </trkpt>
      <trkpt lat="49.77465" lon="2.17798">
        <ele>61.4</ele>
        <time>2023-08-16T09:56:39Z</time>
      </trkpt>
    </trkseg>
  </trk>
</gpx>